<?xml version='1.0' encoding='UTF-8'?><gpx version="1.1" creator="JPX - https://github.com/jenetics/jpx" xmlns="http://www.topografix.com/GPX/1/1"><trk><trkseg><trkpt lat="44.4647084" lon="11.4005599"><ele>80.0</ele><time>2026-04-26T08:17:04.017Z</time></trkpt><trkpt lat="44.4646402" lon="11.4005238"><ele>80.0</ele><time>2026-04-26T08:17:10.012Z</time></trkpt><trkpt lat="44.4645795" lon="11.4004824"><ele>80.0</ele><time>2026-04-26T08:17:16.008Z</time></trkpt><trkpt lat="44.4645204" lon="11.4004319"><ele>80.0</ele><time>2026-04-26T08:17:22.014Z</time></trkpt><trkpt lat="44.464466" lon="11.4003679"><ele>80.0</ele><time>2026-04-26T08:17:29.009Z</time></trkpt><trkpt lat="44.4644512" lon="11.4002786"><ele>80.0</ele><time>2026-04-26T08:18:16.003Z</time></trkpt><trkpt lat="44.4644396" lon="11.400163"><ele>80.0</ele><time>2026-04-26T08:18:19.007Z</time></trkpt><trkpt lat="44.4645037" lon="11.4000682"><ele>80.0</ele><time>2026-04-26T08:18:21.954Z</time></trkpt><trkpt lat="44.464532" lon="11.3999641"><ele>80.0</ele><time>2026-04-26T08:18:23.855Z</time></trkpt><trkpt lat="44.4645715" lon="11.3998199"><ele>80.0</ele><time>2026-04-26T08:18:26.007Z</time></trkpt><trkpt lat="44.4646226" lon="11.3997075"><ele>80.0</ele><time>2026-04-26T08:18:28.022Z</time></trkpt><trkpt lat="44.4646796" lon="11.3996063"><ele>80.0</ele><time>2026-04-26T08:18:29.995Z</time></trkpt><trkpt lat="44.4647222" lon="11.3995268"><ele>80.0</ele><time>2026-04-26T08:18:31.001Z</time></trkpt><trkpt lat="44.4647784" lon="11.3994152"><ele>80.2</ele><time>2026-04-26T08:18:33.009Z</time></trkpt><trkpt lat="44.4648379" lon="11.3992982"><ele>80.4</ele><time>2026-04-26T08:18:35.013Z</time></trkpt><trkpt lat="44.4649061" lon="11.3991828"><ele>80.6</ele><time>2026-04-26T08:18:37.01Z</time></trkpt><trkpt lat="44.4649808" lon="11.3990634"><ele>80.8</ele><time>2026-04-26T08:18:39.007Z</time></trkpt><trkpt lat="44.4650572" lon="11.3989397"><ele>81.0</ele><time>2026-04-26T08:18:41.012Z</time></trkpt><trkpt lat="44.4651368" lon="11.3988148"><ele>81.0</ele><time>2026-04-26T08:18:43.008Z</time></trkpt><trkpt lat="44.4652181" lon="11.3986868"><ele>81.0</ele><time>2026-04-26T08:18:45.023Z</time></trkpt><trkpt lat="44.4652598" lon="11.3986202"><ele>81.0</ele><time>2026-04-26T08:18:45.999Z</time></trkpt><trkpt lat="44.4653023" lon="11.3985551"><ele>81.0</ele><time>2026-04-26T08:18:47.014Z</time></trkpt><trkpt lat="44.4653861" lon="11.3984243"><ele>81.0</ele><time>2026-04-26T08:18:49.002Z</time></trkpt><trkpt lat="44.465429" lon="11.3983591"><ele>81.0</ele><time>2026-04-26T08:18:50.003Z</time></trkpt><trkpt lat="44.4655144" lon="11.3982269"><ele>80.57142857142857</ele><time>2026-04-26T08:18:51.996Z</time></trkpt><trkpt lat="44.4655574" lon="11.3981609"><ele>80.14285714285714</ele><time>2026-04-26T08:18:53.01Z</time></trkpt><trkpt lat="44.4656029" lon="11.3980919"><ele>79.71428571428572</ele><time>2026-04-26T08:18:54.012Z</time></trkpt><trkpt lat="44.4656474" lon="11.3980252"><ele>79.28571428571428</ele><time>2026-04-26T08:18:55.002Z</time></trkpt><trkpt lat="44.4656912" lon="11.3979581"><ele>78.85714285714285</ele><time>2026-04-26T08:18:56.013Z</time></trkpt><trkpt lat="44.4657343" lon="11.3978927"><ele>78.42857142857143</ele><time>2026-04-26T08:18:57.008Z</time></trkpt><trkpt lat="44.4657767" lon="11.3978274"><ele>78.0</ele><time>2026-04-26T08:18:58.019Z</time></trkpt><trkpt lat="44.4658593" lon="11.3976964"><ele>77.8</ele><time>2026-04-26T08:19:00.002Z</time></trkpt><trkpt lat="44.4659437" lon="11.3975705"><ele>77.6</ele><time>2026-04-26T08:19:02.016Z</time></trkpt><trkpt lat="44.4660226" lon="11.3974384"><ele>77.4</ele><time>2026-04-26T08:19:04.018Z</time></trkpt><trkpt lat="44.4661052" lon="11.3973067"><ele>77.2</ele><time>2026-04-26T08:19:06.009Z</time></trkpt><trkpt lat="44.4661495" lon="11.3972438"><ele>77.0</ele><time>2026-04-26T08:19:07.007Z</time></trkpt><trkpt lat="44.4661956" lon="11.3971832"><ele>77.28571428571429</ele><time>2026-04-26T08:19:08.004Z</time></trkpt><trkpt lat="44.4662422" lon="11.3971229"><ele>77.57142857142857</ele><time>2026-04-26T08:19:09.008Z</time></trkpt><trkpt lat="44.4662903" lon="11.3970641"><ele>77.85714285714286</ele><time>2026-04-26T08:19:09.997Z</time></trkpt><trkpt lat="44.4663396" lon="11.3970071"><ele>78.14285714285714</ele><time>2026-04-26T08:19:11.011Z</time></trkpt><trkpt lat="44.4663906" lon="11.3969521"><ele>78.42857142857143</ele><time>2026-04-26T08:19:12.02Z</time></trkpt><trkpt lat="44.4664425" lon="11.3968977"><ele>78.71428571428572</ele><time>2026-04-26T08:19:13.012Z</time></trkpt><trkpt lat="44.4664966" lon="11.3968471"><ele>79.0</ele><time>2026-04-26T08:19:14.008Z</time></trkpt><trkpt lat="44.4665524" lon="11.3967989"><ele>78.14285714285715</ele><time>2026-04-26T08:19:15.006Z</time></trkpt><trkpt lat="44.4666091" lon="11.3967511"><ele>77.28571428571429</ele><time>2026-04-26T08:19:16.012Z</time></trkpt><trkpt lat="44.4666649" lon="11.3967031"><ele>76.42857142857143</ele><time>2026-04-26T08:19:17.004Z</time></trkpt><trkpt lat="44.4667228" lon="11.3966563"><ele>75.57142857142858</ele><time>2026-04-26T08:19:18.016Z</time></trkpt><trkpt lat="44.4667813" lon="11.3966091"><ele>74.71428571428572</ele><time>2026-04-26T08:19:19.006Z</time></trkpt><trkpt lat="44.4668408" lon="11.3965631"><ele>73.85714285714286</ele><time>2026-04-26T08:19:20.003Z</time></trkpt><trkpt lat="44.4669008" lon="11.3965165"><ele>73.0</ele><time>2026-04-26T08:19:21.015Z</time></trkpt><trkpt lat="44.4669603" lon="11.3964698"><ele>73.0</ele><time>2026-04-26T08:19:22.006Z</time></trkpt><trkpt lat="44.4670213" lon="11.3964251"><ele>73.0</ele><time>2026-04-26T08:19:23.005Z</time></trkpt><trkpt lat="44.4670827" lon="11.3963802"><ele>73.0</ele><time>2026-04-26T08:19:24.014Z</time></trkpt><trkpt lat="44.4671446" lon="11.396332"><ele>73.0</ele><time>2026-04-26T08:19:25.002Z</time></trkpt><trkpt lat="44.4672073" lon="11.3962823"><ele>73.0</ele><time>2026-04-26T08:19:25.998Z</time></trkpt><trkpt lat="44.4672709" lon="11.396232"><ele>73.0</ele><time>2026-04-26T08:19:27.011Z</time></trkpt><trkpt lat="44.4673356" lon="11.3961803"><ele>73.0</ele><time>2026-04-26T08:19:28.004Z</time></trkpt><trkpt lat="44.4674012" lon="11.3961287"><ele>73.0</ele><time>2026-04-26T08:19:29.012Z</time></trkpt><trkpt lat="44.4674673" lon="11.3960754"><ele>73.0</ele><time>2026-04-26T08:19:30.003Z</time></trkpt><trkpt lat="44.4675338" lon="11.3960214"><ele>73.0</ele><time>2026-04-26T08:19:31.013Z</time></trkpt><trkpt lat="44.467601" lon="11.395966"><ele>73.0</ele><time>2026-04-26T08:19:32.016Z</time></trkpt><trkpt lat="44.467668" lon="11.3959097"><ele>73.0</ele><time>2026-04-26T08:19:32.998Z</time></trkpt><trkpt lat="44.4677354" lon="11.3958542"><ele>73.0</ele><time>2026-04-26T08:19:34.008Z</time></trkpt><trkpt lat="44.467803" lon="11.3957991"><ele>73.0</ele><time>2026-04-26T08:19:35.007Z</time></trkpt><trkpt lat="44.4678711" lon="11.3957448"><ele>73.0</ele><time>2026-04-26T08:19:36.019Z</time></trkpt><trkpt lat="44.4679391" lon="11.3956896"><ele>73.0</ele><time>2026-04-26T08:19:37.009Z</time></trkpt><trkpt lat="44.4680072" lon="11.3956352"><ele>73.0</ele><time>2026-04-26T08:19:38.008Z</time></trkpt><trkpt lat="44.4680754" lon="11.3955807"><ele>73.0</ele><time>2026-04-26T08:19:39.012Z</time></trkpt><trkpt lat="44.4681438" lon="11.3955272"><ele>73.0</ele><time>2026-04-26T08:19:39.997Z</time></trkpt><trkpt lat="44.4682098" lon="11.3954731"><ele>72.0</ele><time>2026-04-26T08:19:41.022Z</time></trkpt><trkpt lat="44.4682753" lon="11.3954189"><ele>71.0</ele><time>2026-04-26T08:19:42.016Z</time></trkpt><trkpt lat="44.468341" lon="11.3953666"><ele>70.0</ele><time>2026-04-26T08:19:43.018Z</time></trkpt><trkpt lat="44.4684071" lon="11.3953175"><ele>69.0</ele><time>2026-04-26T08:19:44.016Z</time></trkpt><trkpt lat="44.4684716" lon="11.3952657"><ele>68.0</ele><time>2026-04-26T08:19:44.999Z</time></trkpt><trkpt lat="44.4685365" lon="11.3952144"><ele>67.0</ele><time>2026-04-26T08:19:46.014Z</time></trkpt><trkpt lat="44.4686002" lon="11.3951632"><ele>66.0</ele><time>2026-04-26T08:19:46.997Z</time></trkpt><trkpt lat="44.4686629" lon="11.3951124"><ele>66.0</ele><time>2026-04-26T08:19:48.009Z</time></trkpt><trkpt lat="44.4687263" lon="11.3950637"><ele>66.0</ele><time>2026-04-26T08:19:49.011Z</time></trkpt><trkpt lat="44.4687888" lon="11.3950196"><ele>66.0</ele><time>2026-04-26T08:19:50.004Z</time></trkpt><trkpt lat="44.4688526" lon="11.3949808"><ele>66.0</ele><time>2026-04-26T08:19:51.008Z</time></trkpt><trkpt lat="44.4689184" lon="11.3949475"><ele>66.0</ele><time>2026-04-26T08:19:52.013Z</time></trkpt><trkpt lat="44.4689852" lon="11.3949198"><ele>66.0</ele><time>2026-04-26T08:19:53.004Z</time></trkpt><trkpt lat="44.4690492" lon="11.3948974"><ele>66.0</ele><time>2026-04-26T08:19:54.009Z</time></trkpt><trkpt lat="44.4691135" lon="11.3948804"><ele>66.5</ele><time>2026-04-26T08:19:55.011Z</time></trkpt><trkpt lat="44.4692378" lon="11.3948505"><ele>67.0</ele><time>2026-04-26T08:19:57.006Z</time></trkpt><trkpt lat="44.4693575" lon="11.3948125"><ele>67.5</ele><time>2026-04-26T08:19:58.997Z</time></trkpt><trkpt lat="44.4694735" lon="11.3947797"><ele>68.0</ele><time>2026-04-26T08:20:01.019Z</time></trkpt><trkpt lat="44.4695852" lon="11.3947438"><ele>68.16666666666667</ele><time>2026-04-26T08:20:03.001Z</time></trkpt><trkpt lat="44.4696966" lon="11.3946886"><ele>68.33333333333334</ele><time>2026-04-26T08:20:05.006Z</time></trkpt><trkpt lat="44.469801" lon="11.3945926"><ele>68.5</ele><time>2026-04-26T08:20:07.008Z</time></trkpt><trkpt lat="44.4698506" lon="11.3945304"><ele>68.66666666666667</ele><time>2026-04-26T08:20:07.998Z</time></trkpt><trkpt lat="44.4698966" lon="11.3944588"><ele>68.83333333333333</ele><time>2026-04-26T08:20:09.011Z</time></trkpt><trkpt lat="44.4699355" lon="11.3943795"><ele>69.0</ele><time>2026-04-26T08:20:09.998Z</time></trkpt><trkpt lat="44.4699678" lon="11.3942915"><ele>69.0</ele><time>2026-04-26T08:20:11.014Z</time></trkpt><trkpt lat="44.4699917" lon="11.3942"><ele>69.0</ele><time>2026-04-26T08:20:12.012Z</time></trkpt><trkpt lat="44.4700067" lon="11.3941052"><ele>69.0</ele><time>2026-04-26T08:20:13.02Z</time></trkpt><trkpt lat="44.4700133" lon="11.3940101"><ele>69.0</ele><time>2026-04-26T08:20:14.013Z</time></trkpt><trkpt lat="44.470014" lon="11.3939133"><ele>69.0</ele><time>2026-04-26T08:20:15.02Z</time></trkpt><trkpt lat="44.4700107" lon="11.3938161"><ele>69.0</ele><time>2026-04-26T08:20:15.997Z</time></trkpt><trkpt lat="44.4700035" lon="11.3937199"><ele>69.0</ele><time>2026-04-26T08:20:17.004Z</time></trkpt><trkpt lat="44.4699917" lon="11.3936252"><ele>69.28571428571429</ele><time>2026-04-26T08:20:18.002Z</time></trkpt><trkpt lat="44.4699805" lon="11.3935316"><ele>69.57142857142858</ele><time>2026-04-26T08:20:19.011Z</time></trkpt><trkpt lat="44.4699686" lon="11.3934387"><ele>69.85714285714286</ele><time>2026-04-26T08:20:20.005Z</time></trkpt><trkpt lat="44.4699562" lon="11.3933464"><ele>70.14285714285714</ele><time>2026-04-26T08:20:21.013Z</time></trkpt><trkpt lat="44.4699464" lon="11.3932545"><ele>70.42857142857142</ele><time>2026-04-26T08:20:22.009Z</time></trkpt><trkpt lat="44.4699414" lon="11.3931619"><ele>70.71428571428571</ele><time>2026-04-26T08:20:22.997Z</time></trkpt><trkpt lat="44.4699398" lon="11.3930702"><ele>71.0</ele><time>2026-04-26T08:20:24.002Z</time></trkpt><trkpt lat="44.4699425" lon="11.3929801"><ele>71.28571428571428</ele><time>2026-04-26T08:20:25.013Z</time></trkpt><trkpt lat="44.4699504" lon="11.3928903"><ele>71.57142857142857</ele><time>2026-04-26T08:20:26.001Z</time></trkpt><trkpt lat="44.4699657" lon="11.392802"><ele>71.85714285714286</ele><time>2026-04-26T08:20:27.011Z</time></trkpt><trkpt lat="44.4699878" lon="11.3927156"><ele>72.14285714285714</ele><time>2026-04-26T08:20:28.001Z</time></trkpt><trkpt lat="44.4700156" lon="11.3926319"><ele>72.42857142857143</ele><time>2026-04-26T08:20:29.013Z</time></trkpt><trkpt lat="44.4700451" lon="11.3925494"><ele>72.71428571428571</ele><time>2026-04-26T08:20:30.016Z</time></trkpt><trkpt lat="44.4700761" lon="11.3924684"><ele>73.0</ele><time>2026-04-26T08:20:31.009Z</time></trkpt><trkpt lat="44.4701079" lon="11.3923883"><ele>73.0</ele><time>2026-04-26T08:20:32.002Z</time></trkpt><trkpt lat="44.4701387" lon="11.3923076"><ele>73.0</ele><time>2026-04-26T08:20:33.003Z</time></trkpt><trkpt lat="44.4701711" lon="11.3922275"><ele>73.0</ele><time>2026-04-26T08:20:33.997Z</time></trkpt><trkpt lat="44.470205" lon="11.3921473"><ele>73.0</ele><time>2026-04-26T08:20:35.009Z</time></trkpt><trkpt lat="44.4702372" lon="11.392067"><ele>73.0</ele><time>2026-04-26T08:20:36.006Z</time></trkpt><trkpt lat="44.4702692" lon="11.3919885"><ele>73.0</ele><time>2026-04-26T08:20:37.015Z</time></trkpt><trkpt lat="44.4702991" lon="11.3919088"><ele>73.0</ele><time>2026-04-26T08:20:38.009Z</time></trkpt><trkpt lat="44.4703281" lon="11.3918272"><ele>73.0</ele><time>2026-04-26T08:20:39.006Z</time></trkpt><trkpt lat="44.4703574" lon="11.3917453"><ele>73.0</ele><time>2026-04-26T08:20:40.019Z</time></trkpt><trkpt lat="44.4703879" lon="11.3916638"><ele>73.0</ele><time>2026-04-26T08:20:41.012Z</time></trkpt><trkpt lat="44.4704203" lon="11.3915822"><ele>73.0</ele><time>2026-04-26T08:20:42.001Z</time></trkpt><trkpt lat="44.4704517" lon="11.3915004"><ele>73.0</ele><time>2026-04-26T08:20:43.004Z</time></trkpt><trkpt lat="44.4704828" lon="11.3914188"><ele>73.0</ele><time>2026-04-26T08:20:44.005Z</time></trkpt><trkpt lat="44.4705151" lon="11.3913395"><ele>73.0</ele><time>2026-04-26T08:20:45.019Z</time></trkpt><trkpt lat="44.4705451" lon="11.3912615"><ele>73.0</ele><time>2026-04-26T08:20:46.013Z</time></trkpt><trkpt lat="44.4705755" lon="11.3911768"><ele>73.0</ele><time>2026-04-26T08:20:47.006Z</time></trkpt><trkpt lat="44.4706061" lon="11.3910931"><ele>73.0</ele><time>2026-04-26T08:20:48.013Z</time></trkpt><trkpt lat="44.4706371" lon="11.3910083"><ele>73.0</ele><time>2026-04-26T08:20:49.01Z</time></trkpt><trkpt lat="44.4706668" lon="11.3909238"><ele>73.0</ele><time>2026-04-26T08:20:50.005Z</time></trkpt><trkpt lat="44.470698" lon="11.3908403"><ele>73.0</ele><time>2026-04-26T08:20:51.014Z</time></trkpt><trkpt lat="44.4707296" lon="11.3907541"><ele>73.0</ele><time>2026-04-26T08:20:51.998Z</time></trkpt><trkpt lat="44.4707618" lon="11.3906687"><ele>73.0</ele><time>2026-04-26T08:20:52.995Z</time></trkpt><trkpt lat="44.4707937" lon="11.3905837"><ele>73.0</ele><time>2026-04-26T08:20:54.006Z</time></trkpt><trkpt lat="44.4708263" lon="11.3904967"><ele>73.0</ele><time>2026-04-26T08:20:55.023Z</time></trkpt><trkpt lat="44.4708591" lon="11.3904102"><ele>73.0</ele><time>2026-04-26T08:20:56.009Z</time></trkpt><trkpt lat="44.4708919" lon="11.3903241"><ele>73.0</ele><time>2026-04-26T08:20:57.008Z</time></trkpt><trkpt lat="44.4709255" lon="11.3902361"><ele>73.0</ele><time>2026-04-26T08:20:58.011Z</time></trkpt><trkpt lat="44.4709581" lon="11.3901471"><ele>73.0</ele><time>2026-04-26T08:20:59.006Z</time></trkpt><trkpt lat="44.4709906" lon="11.390055"><ele>73.28571428571428</ele><time>2026-04-26T08:20:59.996Z</time></trkpt><trkpt lat="44.4710252" lon="11.3899649"><ele>73.57142857142857</ele><time>2026-04-26T08:21:01.012Z</time></trkpt><trkpt lat="44.4710596" lon="11.3898739"><ele>73.85714285714286</ele><time>2026-04-26T08:21:02.002Z</time></trkpt><trkpt lat="44.4710945" lon="11.3897839"><ele>74.14285714285714</ele><time>2026-04-26T08:21:02.994Z</time></trkpt><trkpt lat="44.4711303" lon="11.3896929"><ele>74.42857142857143</ele><time>2026-04-26T08:21:04.011Z</time></trkpt><trkpt lat="44.4711647" lon="11.3896013"><ele>74.71428571428571</ele><time>2026-04-26T08:21:05.008Z</time></trkpt><trkpt lat="44.4711993" lon="11.3895101"><ele>75.0</ele><time>2026-04-26T08:21:06.006Z</time></trkpt><trkpt lat="44.4712337" lon="11.3894184"><ele>74.99999999999999</ele><time>2026-04-26T08:21:07Z</time></trkpt><trkpt lat="44.471268" lon="11.3893263"><ele>75.0</ele><time>2026-04-26T08:21:08.007Z</time></trkpt><trkpt lat="44.4713025" lon="11.3892339"><ele>75.0</ele><time>2026-04-26T08:21:09.003Z</time></trkpt><trkpt lat="44.4713367" lon="11.3891407"><ele>75.0</ele><time>2026-04-26T08:21:10.003Z</time></trkpt><trkpt lat="44.4713705" lon="11.3890487"><ele>75.0</ele><time>2026-04-26T08:21:10.999Z</time></trkpt><trkpt lat="44.4714063" lon="11.3889577"><ele>74.99999999999999</ele><time>2026-04-26T08:21:12.009Z</time></trkpt><trkpt lat="44.4714413" lon="11.3888653"><ele>75.0</ele><time>2026-04-26T08:21:13.005Z</time></trkpt><trkpt lat="44.4714761" lon="11.3887724"><ele>74.5</ele><time>2026-04-26T08:21:14.01Z</time></trkpt><trkpt lat="44.4715109" lon="11.388679"><ele>74.0</ele><time>2026-04-26T08:21:14.999Z</time></trkpt><trkpt lat="44.471546" lon="11.3885865"><ele>73.5</ele><time>2026-04-26T08:21:16.012Z</time></trkpt><trkpt lat="44.4715806" lon="11.3884924"><ele>73.0</ele><time>2026-04-26T08:21:17.004Z</time></trkpt><trkpt lat="44.4716154" lon="11.3883989"><ele>72.5</ele><time>2026-04-26T08:21:17.995Z</time></trkpt><trkpt lat="44.4716515" lon="11.3883054"><ele>72.0</ele><time>2026-04-26T08:21:18.995Z</time></trkpt><trkpt lat="44.4716874" lon="11.3882121"><ele>72.0</ele><time>2026-04-26T08:21:20.01Z</time></trkpt><trkpt lat="44.4717232" lon="11.3881184"><ele>72.0</ele><time>2026-04-26T08:21:21.007Z</time></trkpt><trkpt lat="44.4717589" lon="11.3880246"><ele>72.0</ele><time>2026-04-26T08:21:22.004Z</time></trkpt><trkpt lat="44.4717949" lon="11.38793"><ele>72.0</ele><time>2026-04-26T08:21:23.006Z</time></trkpt><trkpt lat="44.4718295" lon="11.3878363"><ele>72.0</ele><time>2026-04-26T08:21:24.009Z</time></trkpt><trkpt lat="44.471862" lon="11.3877422"><ele>72.0</ele><time>2026-04-26T08:21:25.007Z</time></trkpt><trkpt lat="44.4718919" lon="11.3876469"><ele>71.85714285714286</ele><time>2026-04-26T08:21:26.002Z</time></trkpt><trkpt lat="44.4719245" lon="11.387554"><ele>71.71428571428572</ele><time>2026-04-26T08:21:27.001Z</time></trkpt><trkpt lat="44.4719604" lon="11.387465"><ele>71.57142857142857</ele><time>2026-04-26T08:21:27.997Z</time></trkpt><trkpt lat="44.4720034" lon="11.3873796"><ele>71.42857142857143</ele><time>2026-04-26T08:21:28.994Z</time></trkpt><trkpt lat="44.472053" lon="11.3873003"><ele>71.28571428571428</ele><time>2026-04-26T08:21:30.005Z</time></trkpt><trkpt lat="44.4721081" lon="11.3872288"><ele>71.14285714285714</ele><time>2026-04-26T08:21:31.006Z</time></trkpt><trkpt lat="44.4721679" lon="11.3871682"><ele>71.0</ele><time>2026-04-26T08:21:32.006Z</time></trkpt><trkpt lat="44.4722207" lon="11.3871154"><ele>70.6</ele><time>2026-04-26T08:21:33.005Z</time></trkpt><trkpt lat="44.4722872" lon="11.3870168"><ele>70.19999999999999</ele><time>2026-04-26T08:21:35.003Z</time></trkpt><trkpt lat="44.4723123" lon="11.3868894"><ele>69.80000000000001</ele><time>2026-04-26T08:21:37.009Z</time></trkpt><trkpt lat="44.47229" lon="11.3867403"><ele>69.4</ele><time>2026-04-26T08:21:39.003Z</time></trkpt><trkpt lat="44.4722089" lon="11.3866227"><ele>69.0</ele><time>2026-04-26T08:21:41.001Z</time></trkpt><trkpt lat="44.4720917" lon="11.3865531"><ele>68.85714285714286</ele><time>2026-04-26T08:21:42.992Z</time></trkpt><trkpt lat="44.4720273" lon="11.3865269"><ele>68.71428571428572</ele><time>2026-04-26T08:21:43.994Z</time></trkpt><trkpt lat="44.4719603" lon="11.3865067"><ele>68.57142857142857</ele><time>2026-04-26T08:21:44.997Z</time></trkpt><trkpt lat="44.4718924" lon="11.3864914"><ele>68.42857142857143</ele><time>2026-04-26T08:21:46.002Z</time></trkpt><trkpt lat="44.471824" lon="11.3864801"><ele>68.28571428571428</ele><time>2026-04-26T08:21:47.011Z</time></trkpt><trkpt lat="44.4717568" lon="11.386464"><ele>68.14285714285714</ele><time>2026-04-26T08:21:48.003Z</time></trkpt><trkpt lat="44.4716924" lon="11.3864499"><ele>68.0</ele><time>2026-04-26T08:21:48.996Z</time></trkpt><trkpt lat="44.4716319" lon="11.3864163"><ele>67.99999999999999</ele><time>2026-04-26T08:21:50.006Z</time></trkpt><trkpt lat="44.4715726" lon="11.3863822"><ele>68.0</ele><time>2026-04-26T08:21:51.006Z</time></trkpt><trkpt lat="44.4715141" lon="11.3863448"><ele>68.0</ele><time>2026-04-26T08:21:52.009Z</time></trkpt><trkpt lat="44.4714558" lon="11.3863053"><ele>68.0</ele><time>2026-04-26T08:21:53.002Z</time></trkpt><trkpt lat="44.4713968" lon="11.386268"><ele>68.0</ele><time>2026-04-26T08:21:54.008Z</time></trkpt><trkpt lat="44.4713384" lon="11.3862261"><ele>67.99999999999999</ele><time>2026-04-26T08:21:55Z</time></trkpt><trkpt lat="44.4712814" lon="11.3861858"><ele>68.0</ele><time>2026-04-26T08:21:56.004Z</time></trkpt><trkpt lat="44.4712256" lon="11.3861385"><ele>68.42857142857142</ele><time>2026-04-26T08:21:57Z</time></trkpt><trkpt lat="44.4711684" lon="11.3860918"><ele>68.85714285714286</ele><time>2026-04-26T08:21:58.001Z</time></trkpt><trkpt lat="44.4711082" lon="11.3860465"><ele>69.28571428571428</ele><time>2026-04-26T08:21:59.011Z</time></trkpt><trkpt lat="44.4710483" lon="11.3860039"><ele>69.71428571428571</ele><time>2026-04-26T08:22:00.003Z</time></trkpt><trkpt lat="44.4709889" lon="11.38596"><ele>70.14285714285714</ele><time>2026-04-26T08:22:01.012Z</time></trkpt><trkpt lat="44.470928" lon="11.3859183"><ele>70.57142857142857</ele><time>2026-04-26T08:22:02.004Z</time></trkpt><trkpt lat="44.4708685" lon="11.3858765"><ele>71.0</ele><time>2026-04-26T08:22:03.009Z</time></trkpt><trkpt lat="44.4708092" lon="11.3858333"><ele>71.0</ele><time>2026-04-26T08:22:04.004Z</time></trkpt><trkpt lat="44.4707484" lon="11.3857916"><ele>71.0</ele><time>2026-04-26T08:22:05.005Z</time></trkpt><trkpt lat="44.470686" lon="11.3857511"><ele>71.0</ele><time>2026-04-26T08:22:06.003Z</time></trkpt><trkpt lat="44.4706228" lon="11.3857126"><ele>71.0</ele><time>2026-04-26T08:22:06.996Z</time></trkpt><trkpt lat="44.4705615" lon="11.3856785"><ele>71.0</ele><time>2026-04-26T08:22:08.006Z</time></trkpt><trkpt lat="44.470496" lon="11.38565"><ele>71.0</ele><time>2026-04-26T08:22:09.003Z</time></trkpt><trkpt lat="44.4704288" lon="11.3856268"><ele>71.0</ele><time>2026-04-26T08:22:10.009Z</time></trkpt><trkpt lat="44.4703605" lon="11.3856073"><ele>70.71428571428571</ele><time>2026-04-26T08:22:11.007Z</time></trkpt><trkpt lat="44.470292" lon="11.3855886"><ele>70.42857142857142</ele><time>2026-04-26T08:22:11.991Z</time></trkpt><trkpt lat="44.4702242" lon="11.385573"><ele>70.14285714285714</ele><time>2026-04-26T08:22:13.001Z</time></trkpt><trkpt lat="44.4701532" lon="11.3855623"><ele>69.85714285714286</ele><time>2026-04-26T08:22:14.007Z</time></trkpt><trkpt lat="44.4700835" lon="11.3855466"><ele>69.57142857142858</ele><time>2026-04-26T08:22:15.005Z</time></trkpt><trkpt lat="44.4700156" lon="11.3855317"><ele>69.28571428571429</ele><time>2026-04-26T08:22:16.004Z</time></trkpt><trkpt lat="44.4699466" lon="11.3855142"><ele>69.0</ele><time>2026-04-26T08:22:17.015Z</time></trkpt><trkpt lat="44.4698795" lon="11.3854977"><ele>68.85714285714286</ele><time>2026-04-26T08:22:18.002Z</time></trkpt><trkpt lat="44.4698107" lon="11.3854819"><ele>68.71428571428572</ele><time>2026-04-26T08:22:19.01Z</time></trkpt><trkpt lat="44.4697444" lon="11.385468"><ele>68.57142857142857</ele><time>2026-04-26T08:22:20.008Z</time></trkpt><trkpt lat="44.4696754" lon="11.3854547"><ele>68.42857142857143</ele><time>2026-04-26T08:22:20.999Z</time></trkpt><trkpt lat="44.4696044" lon="11.3854408"><ele>68.28571428571428</ele><time>2026-04-26T08:22:22.002Z</time></trkpt><trkpt lat="44.4695325" lon="11.3854248"><ele>68.14285714285714</ele><time>2026-04-26T08:22:23.012Z</time></trkpt><trkpt lat="44.4694602" lon="11.3854098"><ele>68.0</ele><time>2026-04-26T08:22:24.006Z</time></trkpt><trkpt lat="44.4693882" lon="11.3853931"><ele>68.42857142857142</ele><time>2026-04-26T08:22:24.997Z</time></trkpt><trkpt lat="44.4693169" lon="11.3853782"><ele>68.85714285714286</ele><time>2026-04-26T08:22:26.004Z</time></trkpt><trkpt lat="44.4692474" lon="11.3853613"><ele>69.28571428571428</ele><time>2026-04-26T08:22:27.009Z</time></trkpt><trkpt lat="44.4691793" lon="11.3853443"><ele>69.71428571428571</ele><time>2026-04-26T08:22:28.004Z</time></trkpt><trkpt lat="44.4691103" lon="11.3853288"><ele>70.14285714285714</ele><time>2026-04-26T08:22:29.01Z</time></trkpt><trkpt lat="44.4690417" lon="11.3853147"><ele>70.57142857142857</ele><time>2026-04-26T08:22:30.013Z</time></trkpt><trkpt lat="44.4689738" lon="11.3852998"><ele>71.0</ele><time>2026-04-26T08:22:31.019Z</time></trkpt><trkpt lat="44.4689066" lon="11.385282"><ele>71.0</ele><time>2026-04-26T08:22:32.001Z</time></trkpt><trkpt lat="44.4688402" lon="11.3852684"><ele>71.0</ele><time>2026-04-26T08:22:33.011Z</time></trkpt><trkpt lat="44.468774" lon="11.3852554"><ele>71.0</ele><time>2026-04-26T08:22:34.005Z</time></trkpt><trkpt lat="44.4687072" lon="11.3852397"><ele>71.0</ele><time>2026-04-26T08:22:35.004Z</time></trkpt><trkpt lat="44.468641" lon="11.3852242"><ele>71.0</ele><time>2026-04-26T08:22:36.015Z</time></trkpt><trkpt lat="44.4685754" lon="11.3852088"><ele>71.0</ele><time>2026-04-26T08:22:37.005Z</time></trkpt><trkpt lat="44.4685101" lon="11.3851908"><ele>71.0</ele><time>2026-04-26T08:22:38.005Z</time></trkpt><trkpt lat="44.4684442" lon="11.3851746"><ele>70.85714285714286</ele><time>2026-04-26T08:22:39Z</time></trkpt><trkpt lat="44.468378" lon="11.3851608"><ele>70.71428571428571</ele><time>2026-04-26T08:22:40.008Z</time></trkpt><trkpt lat="44.468311" lon="11.3851459"><ele>70.57142857142857</ele><time>2026-04-26T08:22:41.012Z</time></trkpt><trkpt lat="44.4682463" lon="11.3851342"><ele>70.42857142857143</ele><time>2026-04-26T08:22:41.996Z</time></trkpt><trkpt lat="44.4681766" lon="11.385125"><ele>70.28571428571428</ele><time>2026-04-26T08:22:43.009Z</time></trkpt><trkpt lat="44.4681089" lon="11.3851089"><ele>70.14285714285714</ele><time>2026-04-26T08:22:44.004Z</time></trkpt><trkpt lat="44.468042" lon="11.3850955"><ele>70.0</ele><time>2026-04-26T08:22:45.006Z</time></trkpt><trkpt lat="44.4679762" lon="11.3850826"><ele>69.85714285714286</ele><time>2026-04-26T08:22:46.008Z</time></trkpt><trkpt lat="44.4679073" lon="11.3850677"><ele>69.71428571428572</ele><time>2026-04-26T08:22:47.007Z</time></trkpt><trkpt lat="44.4678392" lon="11.3850518"><ele>69.57142857142857</ele><time>2026-04-26T08:22:47.994Z</time></trkpt><trkpt lat="44.4677713" lon="11.385035"><ele>69.42857142857143</ele><time>2026-04-26T08:22:49.001Z</time></trkpt><trkpt lat="44.4677029" lon="11.385019"><ele>69.28571428571429</ele><time>2026-04-26T08:22:50.011Z</time></trkpt><trkpt lat="44.4676341" lon="11.3850064"><ele>69.14285714285714</ele><time>2026-04-26T08:22:51.008Z</time></trkpt><trkpt lat="44.4675673" lon="11.384991"><ele>69.0</ele><time>2026-04-26T08:22:52.001Z</time></trkpt><trkpt lat="44.4674998" lon="11.384974"><ele>69.0</ele><time>2026-04-26T08:22:53.001Z</time></trkpt><trkpt lat="44.4674318" lon="11.3849588"><ele>69.0</ele><time>2026-04-26T08:22:54.009Z</time></trkpt><trkpt lat="44.467366" lon="11.3849435"><ele>69.0</ele><time>2026-04-26T08:22:54.997Z</time></trkpt><trkpt lat="44.4673019" lon="11.384929"><ele>69.0</ele><time>2026-04-26T08:22:56.002Z</time></trkpt><trkpt lat="44.4672375" lon="11.3849145"><ele>69.0</ele><time>2026-04-26T08:22:57.004Z</time></trkpt><trkpt lat="44.4671724" lon="11.3849029"><ele>69.0</ele><time>2026-04-26T08:22:58.002Z</time></trkpt><trkpt lat="44.4671058" lon="11.3848899"><ele>69.0</ele><time>2026-04-26T08:22:58.998Z</time></trkpt><trkpt lat="44.4670424" lon="11.3848792"><ele>68.85714285714286</ele><time>2026-04-26T08:23:00Z</time></trkpt><trkpt lat="44.4669777" lon="11.3848719"><ele>68.71428571428572</ele><time>2026-04-26T08:23:01.004Z</time></trkpt><trkpt lat="44.4669135" lon="11.3848651"><ele>68.57142857142857</ele><time>2026-04-26T08:23:02.009Z</time></trkpt><trkpt lat="44.4668493" lon="11.3848585"><ele>68.42857142857143</ele><time>2026-04-26T08:23:03.002Z</time></trkpt><trkpt lat="44.4667848" lon="11.3848509"><ele>68.28571428571428</ele><time>2026-04-26T08:23:04.007Z</time></trkpt><trkpt lat="44.4667194" lon="11.384842"><ele>68.14285714285714</ele><time>2026-04-26T08:23:05.007Z</time></trkpt><trkpt lat="44.466655" lon="11.3848318"><ele>68.0</ele><time>2026-04-26T08:23:06.003Z</time></trkpt><trkpt lat="44.4665906" lon="11.3848179"><ele>67.99999999999999</ele><time>2026-04-26T08:23:06.994Z</time></trkpt><trkpt lat="44.4665292" lon="11.384792"><ele>68.0</ele><time>2026-04-26T08:23:08.005Z</time></trkpt><trkpt lat="44.4664697" lon="11.3847587"><ele>68.0</ele><time>2026-04-26T08:23:09.008Z</time></trkpt><trkpt lat="44.4664118" lon="11.3847157"><ele>68.0</ele><time>2026-04-26T08:23:10.012Z</time></trkpt><trkpt lat="44.4663525" lon="11.3846711"><ele>68.0</ele><time>2026-04-26T08:23:11.006Z</time></trkpt><trkpt lat="44.4662997" lon="11.3846189"><ele>67.99999999999999</ele><time>2026-04-26T08:23:12.001Z</time></trkpt><trkpt lat="44.4662522" lon="11.3845519"><ele>68.0</ele><time>2026-04-26T08:23:13.007Z</time></trkpt><trkpt lat="44.4662026" lon="11.3844833"><ele>68.28571428571428</ele><time>2026-04-26T08:23:14.008Z</time></trkpt><trkpt lat="44.4661546" lon="11.3844146"><ele>68.57142857142857</ele><time>2026-04-26T08:23:15.003Z</time></trkpt><trkpt lat="44.4661068" lon="11.3843453"><ele>68.85714285714286</ele><time>2026-04-26T08:23:16.007Z</time></trkpt><trkpt lat="44.466057" lon="11.3842793"><ele>69.14285714285714</ele><time>2026-04-26T08:23:17.002Z</time></trkpt><trkpt lat="44.4660068" lon="11.3842135"><ele>69.42857142857143</ele><time>2026-04-26T08:23:18Z</time></trkpt><trkpt lat="44.4659579" lon="11.384149"><ele>69.71428571428571</ele><time>2026-04-26T08:23:18.988Z</time></trkpt><trkpt lat="44.4659094" lon="11.3840823"><ele>70.0</ele><time>2026-04-26T08:23:20.009Z</time></trkpt><trkpt lat="44.4658611" lon="11.3840152"><ele>70.0</ele><time>2026-04-26T08:23:21.004Z</time></trkpt><trkpt lat="44.4658128" lon="11.3839498"><ele>70.0</ele><time>2026-04-26T08:23:22Z</time></trkpt><trkpt lat="44.4657661" lon="11.3838807"><ele>70.0</ele><time>2026-04-26T08:23:23.001Z</time></trkpt><trkpt lat="44.4657175" lon="11.383812"><ele>70.0</ele><time>2026-04-26T08:23:24.012Z</time></trkpt><trkpt lat="44.4656698" lon="11.3837399"><ele>70.0</ele><time>2026-04-26T08:23:24.998Z</time></trkpt><trkpt lat="44.4656234" lon="11.3836693"><ele>70.0</ele><time>2026-04-26T08:23:26.01Z</time></trkpt><trkpt lat="44.4655784" lon="11.3835943"><ele>70.0</ele><time>2026-04-26T08:23:27.009Z</time></trkpt><trkpt lat="44.4655336" lon="11.3835244"><ele>70.14285714285714</ele><time>2026-04-26T08:23:28.012Z</time></trkpt><trkpt lat="44.4654883" lon="11.3834527"><ele>70.28571428571428</ele><time>2026-04-26T08:23:29.016Z</time></trkpt><trkpt lat="44.4654417" lon="11.3833834"><ele>70.42857142857143</ele><time>2026-04-26T08:23:29.998Z</time></trkpt><trkpt lat="44.4653953" lon="11.3833136"><ele>70.57142857142857</ele><time>2026-04-26T08:23:31.006Z</time></trkpt><trkpt lat="44.4653502" lon="11.3832425"><ele>70.71428571428571</ele><time>2026-04-26T08:23:31.998Z</time></trkpt><trkpt lat="44.4653045" lon="11.3831743"><ele>70.85714285714286</ele><time>2026-04-26T08:23:33.006Z</time></trkpt><trkpt lat="44.4652584" lon="11.3831077"><ele>71.0</ele><time>2026-04-26T08:23:34.001Z</time></trkpt><trkpt lat="44.4652128" lon="11.3830415"><ele>71.71428571428571</ele><time>2026-04-26T08:23:35.012Z</time></trkpt><trkpt lat="44.4651687" lon="11.3829707"><ele>72.42857142857142</ele><time>2026-04-26T08:23:36.009Z</time></trkpt><trkpt lat="44.4651245" lon="11.3829014"><ele>73.14285714285714</ele><time>2026-04-26T08:23:37.017Z</time></trkpt><trkpt lat="44.4650823" lon="11.3828312"><ele>73.85714285714286</ele><time>2026-04-26T08:23:38.007Z</time></trkpt><trkpt lat="44.4650401" lon="11.3827591"><ele>74.57142857142858</ele><time>2026-04-26T08:23:39.008Z</time></trkpt><trkpt lat="44.4649981" lon="11.3826861"><ele>75.28571428571428</ele><time>2026-04-26T08:23:40.01Z</time></trkpt><trkpt lat="44.4649532" lon="11.3826138"><ele>76.0</ele><time>2026-04-26T08:23:41.005Z</time></trkpt><trkpt lat="44.4649089" lon="11.3825435"><ele>76.0</ele><time>2026-04-26T08:23:42.011Z</time></trkpt><trkpt lat="44.4648649" lon="11.3824699"><ele>76.0</ele><time>2026-04-26T08:23:43.007Z</time></trkpt><trkpt lat="44.4648195" lon="11.3823992"><ele>76.0</ele><time>2026-04-26T08:23:44.006Z</time></trkpt><trkpt lat="44.4647763" lon="11.3823275"><ele>76.0</ele><time>2026-04-26T08:23:45.01Z</time></trkpt><trkpt lat="44.4647297" lon="11.3822567"><ele>76.0</ele><time>2026-04-26T08:23:46.005Z</time></trkpt><trkpt lat="44.4646821" lon="11.3821866"><ele>76.0</ele><time>2026-04-26T08:23:47.005Z</time></trkpt><trkpt lat="44.4646364" lon="11.3821183"><ele>76.0</ele><time>2026-04-26T08:23:47.999Z</time></trkpt><trkpt lat="44.4645907" lon="11.3820484"><ele>75.57142857142857</ele><time>2026-04-26T08:23:49.005Z</time></trkpt><trkpt lat="44.4645436" lon="11.38198"><ele>75.14285714285715</ele><time>2026-04-26T08:23:50.005Z</time></trkpt><trkpt lat="44.4644973" lon="11.3819134"><ele>74.71428571428572</ele><time>2026-04-26T08:23:51.013Z</time></trkpt><trkpt lat="44.4644518" lon="11.3818453"><ele>74.28571428571428</ele><time>2026-04-26T08:23:51.998Z</time></trkpt><trkpt lat="44.4644056" lon="11.3817773"><ele>73.85714285714286</ele><time>2026-04-26T08:23:53Z</time></trkpt><trkpt lat="44.4643599" lon="11.3817111"><ele>73.42857142857143</ele><time>2026-04-26T08:23:54.005Z</time></trkpt><trkpt lat="44.4643158" lon="11.3816437"><ele>73.0</ele><time>2026-04-26T08:23:55Z</time></trkpt><trkpt lat="44.4642712" lon="11.381578"><ele>73.0</ele><time>2026-04-26T08:23:56.001Z</time></trkpt><trkpt lat="44.4642254" lon="11.3815126"><ele>73.0</ele><time>2026-04-26T08:23:57.004Z</time></trkpt><trkpt lat="44.4641805" lon="11.3814464"><ele>73.0</ele><time>2026-04-26T08:23:57.995Z</time></trkpt><trkpt lat="44.4641361" lon="11.3813807"><ele>73.0</ele><time>2026-04-26T08:23:59.002Z</time></trkpt><trkpt lat="44.4640913" lon="11.3813151"><ele>73.0</ele><time>2026-04-26T08:24:00.013Z</time></trkpt><trkpt lat="44.4640463" lon="11.3812501"><ele>73.0</ele><time>2026-04-26T08:24:01.014Z</time></trkpt><trkpt lat="44.464002" lon="11.3811838"><ele>73.0</ele><time>2026-04-26T08:24:02.005Z</time></trkpt><trkpt lat="44.4639568" lon="11.381119"><ele>73.125</ele><time>2026-04-26T08:24:03.008Z</time></trkpt><trkpt lat="44.4639113" lon="11.3810539"><ele>73.25</ele><time>2026-04-26T08:24:04.002Z</time></trkpt><trkpt lat="44.4638659" lon="11.3809892"><ele>73.375</ele><time>2026-04-26T08:24:05Z</time></trkpt><trkpt lat="44.4638211" lon="11.3809251"><ele>73.5</ele><time>2026-04-26T08:24:06.006Z</time></trkpt><trkpt lat="44.4637767" lon="11.3808606"><ele>73.625</ele><time>2026-04-26T08:24:06.998Z</time></trkpt><trkpt lat="44.4637323" lon="11.3807965"><ele>73.75</ele><time>2026-04-26T08:24:08.005Z</time></trkpt><trkpt lat="44.4636879" lon="11.3807308"><ele>73.875</ele><time>2026-04-26T08:24:08.998Z</time></trkpt><trkpt lat="44.4636439" lon="11.3806674"><ele>74.0</ele><time>2026-04-26T08:24:10.004Z</time></trkpt><trkpt lat="44.4635579" lon="11.3805374"><ele>74.4</ele><time>2026-04-26T08:24:12.003Z</time></trkpt><trkpt lat="44.4635143" lon="11.3804732"><ele>74.80000000000001</ele><time>2026-04-26T08:24:13.005Z</time></trkpt><trkpt lat="44.4634277" lon="11.3803506"><ele>75.19999999999999</ele><time>2026-04-26T08:24:15.004Z</time></trkpt><trkpt lat="44.4633435" lon="11.380232"><ele>75.6</ele><time>2026-04-26T08:24:17.006Z</time></trkpt><trkpt lat="44.4632666" lon="11.380123"><ele>76.0</ele><time>2026-04-26T08:24:19.001Z</time></trkpt><trkpt lat="44.463197" lon="11.380024"><ele>76.0</ele><time>2026-04-26T08:24:21.008Z</time></trkpt><trkpt lat="44.463134" lon="11.3799293"><ele>76.0</ele><time>2026-04-26T08:24:23.007Z</time></trkpt><trkpt lat="44.4630772" lon="11.3798421"><ele>76.0</ele><time>2026-04-26T08:24:25.007Z</time></trkpt><trkpt lat="44.4630194" lon="11.3797569"><ele>76.0</ele><time>2026-04-26T08:24:27.014Z</time></trkpt><trkpt lat="44.4629544" lon="11.3796671"><ele>76.0</ele><time>2026-04-26T08:24:29.003Z</time></trkpt><trkpt lat="44.4628797" lon="11.3795806"><ele>76.0</ele><time>2026-04-26T08:24:31.007Z</time></trkpt><trkpt lat="44.4627887" lon="11.3795072"><ele>76.5</ele><time>2026-04-26T08:24:33.017Z</time></trkpt><trkpt lat="44.4626798" lon="11.3794638"><ele>77.0</ele><time>2026-04-26T08:24:35.01Z</time></trkpt><trkpt lat="44.4625614" lon="11.3794623"><ele>77.5</ele><time>2026-04-26T08:24:37.012Z</time></trkpt><trkpt lat="44.4624421" lon="11.3794695"><ele>78.0</ele><time>2026-04-26T08:24:39.01Z</time></trkpt><trkpt lat="44.4623218" lon="11.3794813"><ele>78.0</ele><time>2026-04-26T08:24:41.006Z</time></trkpt><trkpt lat="44.4622021" lon="11.3794958"><ele>78.0</ele><time>2026-04-26T08:24:43.011Z</time></trkpt><trkpt lat="44.4620857" lon="11.3794854"><ele>78.0</ele><time>2026-04-26T08:24:45.013Z</time></trkpt><trkpt lat="44.4619751" lon="11.3794224"><ele>78.0</ele><time>2026-04-26T08:24:47.004Z</time></trkpt><trkpt lat="44.461872" lon="11.3793304"><ele>77.85714285714286</ele><time>2026-04-26T08:24:49.01Z</time></trkpt><trkpt lat="44.461767" lon="11.3792368"><ele>77.71428571428571</ele><time>2026-04-26T08:24:51.017Z</time></trkpt><trkpt lat="44.4617178" lon="11.3791764"><ele>77.57142857142857</ele><time>2026-04-26T08:24:52.011Z</time></trkpt><trkpt lat="44.4616765" lon="11.3791039"><ele>77.42857142857143</ele><time>2026-04-26T08:24:53.01Z</time></trkpt><trkpt lat="44.4616396" lon="11.3790307"><ele>77.28571428571428</ele><time>2026-04-26T08:24:54.004Z</time></trkpt><trkpt lat="44.4616016" lon="11.3789599"><ele>77.14285714285714</ele><time>2026-04-26T08:24:55.008Z</time></trkpt><trkpt lat="44.4615601" lon="11.3788905"><ele>77.0</ele><time>2026-04-26T08:24:56.011Z</time></trkpt><trkpt lat="44.4615176" lon="11.3788225"><ele>77.0</ele><time>2026-04-26T08:24:56.997Z</time></trkpt><trkpt lat="44.4614743" lon="11.3787563"><ele>77.0</ele><time>2026-04-26T08:24:58.018Z</time></trkpt><trkpt lat="44.4614298" lon="11.3786939"><ele>77.0</ele><time>2026-04-26T08:24:59.028Z</time></trkpt><trkpt lat="44.4613416" lon="11.37857"><ele>77.0</ele><time>2026-04-26T08:25:01.012Z</time></trkpt><trkpt lat="44.4612971" lon="11.3785069"><ele>77.0</ele><time>2026-04-26T08:25:02.001Z</time></trkpt><trkpt lat="44.4612528" lon="11.378444"><ele>77.0</ele><time>2026-04-26T08:25:03.018Z</time></trkpt><trkpt lat="44.4612081" lon="11.3783809"><ele>77.0</ele><time>2026-04-26T08:25:03.999Z</time></trkpt><trkpt lat="44.4611647" lon="11.3783167"><ele>76.6</ele><time>2026-04-26T08:25:05.016Z</time></trkpt><trkpt lat="44.4610766" lon="11.3781956"><ele>76.2</ele><time>2026-04-26T08:25:07.004Z</time></trkpt><trkpt lat="44.4609894" lon="11.3780691"><ele>75.8</ele><time>2026-04-26T08:25:09.007Z</time></trkpt><trkpt lat="44.4609441" lon="11.3780065"><ele>75.4</ele><time>2026-04-26T08:25:10.005Z</time></trkpt><trkpt lat="44.4608542" lon="11.3778865"><ele>75.0</ele><time>2026-04-26T08:25:12.003Z</time></trkpt><trkpt lat="44.4607677" lon="11.3777637"><ele>75.0</ele><time>2026-04-26T08:25:14Z</time></trkpt><trkpt lat="44.4606805" lon="11.3776402"><ele>75.0</ele><time>2026-04-26T08:25:16.014Z</time></trkpt><trkpt lat="44.4605929" lon="11.3775188"><ele>75.0</ele><time>2026-04-26T08:25:18.009Z</time></trkpt><trkpt lat="44.4605076" lon="11.3773989"><ele>75.0</ele><time>2026-04-26T08:25:20.014Z</time></trkpt><trkpt lat="44.460426" lon="11.3772735"><ele>74.25</ele><time>2026-04-26T08:25:22.025Z</time></trkpt><trkpt lat="44.4603483" lon="11.3771437"><ele>73.5</ele><time>2026-04-26T08:25:24.014Z</time></trkpt><trkpt lat="44.4602758" lon="11.3770065"><ele>72.75</ele><time>2026-04-26T08:25:26.009Z</time></trkpt><trkpt lat="44.4602095" lon="11.3768641"><ele>72.0</ele><time>2026-04-26T08:25:28.001Z</time></trkpt><trkpt lat="44.460152" lon="11.3767165"><ele>72.0</ele><time>2026-04-26T08:25:30.002Z</time></trkpt><trkpt lat="44.4601045" lon="11.3765596"><ele>72.0</ele><time>2026-04-26T08:25:32.002Z</time></trkpt><trkpt lat="44.4600619" lon="11.3764004"><ele>72.0</ele><time>2026-04-26T08:25:34.016Z</time></trkpt><trkpt lat="44.4600248" lon="11.3762392"><ele>72.0</ele><time>2026-04-26T08:25:36Z</time></trkpt><trkpt lat="44.4599859" lon="11.3760824"><ele>73.0</ele><time>2026-04-26T08:25:38.012Z</time></trkpt><trkpt lat="44.4599477" lon="11.3759267"><ele>74.0</ele><time>2026-04-26T08:25:40.011Z</time></trkpt><trkpt lat="44.4599165" lon="11.3757664"><ele>75.0</ele><time>2026-04-26T08:25:42.009Z</time></trkpt><trkpt lat="44.4599187" lon="11.3755982"><ele>76.0</ele><time>2026-04-26T08:25:44Z</time></trkpt><trkpt lat="44.4599681" lon="11.3754452"><ele>76.0</ele><time>2026-04-26T08:25:46.006Z</time></trkpt><trkpt lat="44.4600239" lon="11.3752953"><ele>76.0</ele><time>2026-04-26T08:25:47.999Z</time></trkpt><trkpt lat="44.4600634" lon="11.3751404"><ele>76.0</ele><time>2026-04-26T08:25:50.009Z</time></trkpt><trkpt lat="44.4600683" lon="11.3749767"><ele>76.0</ele><time>2026-04-26T08:25:51.997Z</time></trkpt><trkpt lat="44.4600359" lon="11.3748204"><ele>76.0</ele><time>2026-04-26T08:25:54.009Z</time></trkpt><trkpt lat="44.4599641" lon="11.3746935"><ele>76.0</ele><time>2026-04-26T08:25:56.008Z</time></trkpt><trkpt lat="44.4598646" lon="11.3746118"><ele>76.0</ele><time>2026-04-26T08:25:58.015Z</time></trkpt><trkpt lat="44.4597512" lon="11.3745706"><ele>76.0</ele><time>2026-04-26T08:26:00.003Z</time></trkpt><trkpt lat="44.4596313" lon="11.3745557"><ele>76.5</ele><time>2026-04-26T08:26:02.005Z</time></trkpt><trkpt lat="44.4595132" lon="11.374523"><ele>77.0</ele><time>2026-04-26T08:26:04.012Z</time></trkpt><trkpt lat="44.4594202" lon="11.3744208"><ele>77.5</ele><time>2026-04-26T08:26:06.007Z</time></trkpt><trkpt lat="44.4593347" lon="11.3743115"><ele>78.0</ele><time>2026-04-26T08:26:08.005Z</time></trkpt><trkpt lat="44.4592454" lon="11.3742062"><ele>78.0</ele><time>2026-04-26T08:26:10.02Z</time></trkpt><trkpt lat="44.4591517" lon="11.3741084"><ele>78.0</ele><time>2026-04-26T08:26:12.013Z</time></trkpt><trkpt lat="44.4590541" lon="11.374019"><ele>78.0</ele><time>2026-04-26T08:26:14.011Z</time></trkpt><trkpt lat="44.4589525" lon="11.3739348"><ele>78.0</ele><time>2026-04-26T08:26:16.012Z</time></trkpt><trkpt lat="44.4588483" lon="11.3738576"><ele>78.75</ele><time>2026-04-26T08:26:18.021Z</time></trkpt><trkpt lat="44.4587396" lon="11.3737914"><ele>79.5</ele><time>2026-04-26T08:26:20.005Z</time></trkpt><trkpt lat="44.4586266" lon="11.3737352"><ele>80.25</ele><time>2026-04-26T08:26:21.999Z</time></trkpt><trkpt lat="44.4585096" lon="11.3736862"><ele>81.0</ele><time>2026-04-26T08:26:24.014Z</time></trkpt><trkpt lat="44.4583892" lon="11.3736444"><ele>81.0</ele><time>2026-04-26T08:26:26.003Z</time></trkpt><trkpt lat="44.4582666" lon="11.3736102"><ele>81.0</ele><time>2026-04-26T08:26:28.003Z</time></trkpt><trkpt lat="44.4582044" lon="11.3735951"><ele>81.0</ele><time>2026-04-26T08:26:29.01Z</time></trkpt><trkpt lat="44.4581421" lon="11.3735808"><ele>81.0</ele><time>2026-04-26T08:26:30.004Z</time></trkpt><trkpt lat="44.458018" lon="11.3735564"><ele>81.0</ele><time>2026-04-26T08:26:32.006Z</time></trkpt><trkpt lat="44.4578945" lon="11.3735307"><ele>80.5</ele><time>2026-04-26T08:26:34.008Z</time></trkpt><trkpt lat="44.4577724" lon="11.3735026"><ele>80.0</ele><time>2026-04-26T08:26:36.004Z</time></trkpt><trkpt lat="44.4576503" lon="11.3734764"><ele>79.5</ele><time>2026-04-26T08:26:38.019Z</time></trkpt><trkpt lat="44.4575282" lon="11.3734518"><ele>79.0</ele><time>2026-04-26T08:26:40.014Z</time></trkpt><trkpt lat="44.457406" lon="11.3734235"><ele>79.0</ele><time>2026-04-26T08:26:42.006Z</time></trkpt><trkpt lat="44.4572848" lon="11.3733955"><ele>79.0</ele><time>2026-04-26T08:26:44.015Z</time></trkpt><trkpt lat="44.4571646" lon="11.3733669"><ele>79.0</ele><time>2026-04-26T08:26:45.999Z</time></trkpt><trkpt lat="44.4570448" lon="11.3733342"><ele>79.0</ele><time>2026-04-26T08:26:48.002Z</time></trkpt><trkpt lat="44.4569277" lon="11.3732972"><ele>78.5</ele><time>2026-04-26T08:26:50.014Z</time></trkpt><trkpt lat="44.4568111" lon="11.3732552"><ele>78.0</ele><time>2026-04-26T08:26:52.014Z</time></trkpt><trkpt lat="44.4566952" lon="11.3732081"><ele>77.5</ele><time>2026-04-26T08:26:54.016Z</time></trkpt><trkpt lat="44.4565796" lon="11.3731607"><ele>77.0</ele><time>2026-04-26T08:26:56.005Z</time></trkpt><trkpt lat="44.4564662" lon="11.3731089"><ele>77.0</ele><time>2026-04-26T08:26:58.002Z</time></trkpt><trkpt lat="44.4563541" lon="11.3730538"><ele>77.0</ele><time>2026-04-26T08:27:00.011Z</time></trkpt><trkpt lat="44.4562452" lon="11.3729956"><ele>77.0</ele><time>2026-04-26T08:27:02.007Z</time></trkpt><trkpt lat="44.4561397" lon="11.3729332"><ele>77.0</ele><time>2026-04-26T08:27:04.01Z</time></trkpt><trkpt lat="44.4560321" lon="11.3728787"><ele>78.0</ele><time>2026-04-26T08:27:05.999Z</time></trkpt><trkpt lat="44.455925" lon="11.372826"><ele>79.0</ele><time>2026-04-26T08:27:08.002Z</time></trkpt><trkpt lat="44.4558179" lon="11.3727695"><ele>80.0</ele><time>2026-04-26T08:27:10.017Z</time></trkpt><trkpt lat="44.4557098" lon="11.3727084"><ele>81.0</ele><time>2026-04-26T08:27:12.015Z</time></trkpt><trkpt lat="44.4556019" lon="11.3726491"><ele>81.0</ele><time>2026-04-26T08:27:14.003Z</time></trkpt><trkpt lat="44.4554945" lon="11.3725908"><ele>81.0</ele><time>2026-04-26T08:27:16.01Z</time></trkpt><trkpt lat="44.4553872" lon="11.3725321"><ele>81.0</ele><time>2026-04-26T08:27:18.008Z</time></trkpt><trkpt lat="44.4552803" lon="11.3724746"><ele>81.0</ele><time>2026-04-26T08:27:20.003Z</time></trkpt><trkpt lat="44.455172" lon="11.3724191"><ele>81.0</ele><time>2026-04-26T08:27:22.022Z</time></trkpt><trkpt lat="44.4550652" lon="11.3723603"><ele>81.0</ele><time>2026-04-26T08:27:23.998Z</time></trkpt><trkpt lat="44.4549583" lon="11.3723029"><ele>81.0</ele><time>2026-04-26T08:27:26.005Z</time></trkpt><trkpt lat="44.454852" lon="11.372243"><ele>81.0</ele><time>2026-04-26T08:27:28.003Z</time></trkpt><trkpt lat="44.4547457" lon="11.3721761"><ele>81.0</ele><time>2026-04-26T08:27:30.018Z</time></trkpt><trkpt lat="44.4546387" lon="11.372104"><ele>81.0</ele><time>2026-04-26T08:27:32.008Z</time></trkpt><trkpt lat="44.4545347" lon="11.372026"><ele>81.0</ele><time>2026-04-26T08:27:34.003Z</time></trkpt><trkpt lat="44.4544339" lon="11.3719418"><ele>81.0</ele><time>2026-04-26T08:27:36.001Z</time></trkpt><trkpt lat="44.4543356" lon="11.371853"><ele>81.25</ele><time>2026-04-26T08:27:38.01Z</time></trkpt><trkpt lat="44.4542393" lon="11.371755"><ele>81.5</ele><time>2026-04-26T08:27:40.012Z</time></trkpt><trkpt lat="44.4541479" lon="11.3716499"><ele>81.75</ele><time>2026-04-26T08:27:42.017Z</time></trkpt><trkpt lat="44.4540576" lon="11.3715391"><ele>82.0</ele><time>2026-04-26T08:27:44.007Z</time></trkpt><trkpt lat="44.4539712" lon="11.3714245"><ele>82.0</ele><time>2026-04-26T08:27:46.009Z</time></trkpt><trkpt lat="44.4538896" lon="11.3713062"><ele>82.0</ele><time>2026-04-26T08:27:48.01Z</time></trkpt><trkpt lat="44.4538075" lon="11.3711842"><ele>82.0</ele><time>2026-04-26T08:27:49.999Z</time></trkpt><trkpt lat="44.4537259" lon="11.3710608"><ele>82.0</ele><time>2026-04-26T08:27:51.991Z</time></trkpt><trkpt lat="44.4536443" lon="11.3709352"><ele>82.0</ele><time>2026-04-26T08:27:54.002Z</time></trkpt><trkpt lat="44.4535604" lon="11.3708092"><ele>82.0</ele><time>2026-04-26T08:27:56Z</time></trkpt><trkpt lat="44.453475" lon="11.3706806"><ele>82.0</ele><time>2026-04-26T08:27:58.014Z</time></trkpt><trkpt lat="44.4533903" lon="11.3705537"><ele>82.0</ele><time>2026-04-26T08:28:00.012Z</time></trkpt><trkpt lat="44.4533065" lon="11.3704256"><ele>82.75</ele><time>2026-04-26T08:28:02.007Z</time></trkpt><trkpt lat="44.4532314" lon="11.3702904"><ele>83.5</ele><time>2026-04-26T08:28:04.004Z</time></trkpt><trkpt lat="44.4531877" lon="11.3701322"><ele>84.25</ele><time>2026-04-26T08:28:06.008Z</time></trkpt><trkpt lat="44.4531796" lon="11.3699617"><ele>85.0</ele><time>2026-04-26T08:28:07.997Z</time></trkpt><trkpt lat="44.4531484" lon="11.3697911"><ele>85.0</ele><time>2026-04-26T08:28:10.002Z</time></trkpt><trkpt lat="44.4531079" lon="11.3697233"><ele>85.0</ele><time>2026-04-26T08:28:11.011Z</time></trkpt><trkpt lat="44.453055" lon="11.3696746"><ele>85.0</ele><time>2026-04-26T08:28:12.006Z</time></trkpt><trkpt lat="44.4529952" lon="11.369646"><ele>85.0</ele><time>2026-04-26T08:28:13.016Z</time></trkpt><trkpt lat="44.4529322" lon="11.3696268"><ele>85.0</ele><time>2026-04-26T08:28:14.002Z</time></trkpt><trkpt lat="44.4528696" lon="11.3696009"><ele>85.0</ele><time>2026-04-26T08:28:15.005Z</time></trkpt><trkpt lat="44.4528129" lon="11.3695541"><ele>85.0</ele><time>2026-04-26T08:28:16.003Z</time></trkpt><trkpt lat="44.4527652" lon="11.3694898"><ele>84.14285714285715</ele><time>2026-04-26T08:28:17.01Z</time></trkpt><trkpt lat="44.4527241" lon="11.3694173"><ele>83.28571428571428</ele><time>2026-04-26T08:28:18.012Z</time></trkpt><trkpt lat="44.4526863" lon="11.3693418"><ele>82.42857142857143</ele><time>2026-04-26T08:28:19.003Z</time></trkpt><trkpt lat="44.4526476" lon="11.3692681"><ele>81.57142857142858</ele><time>2026-04-26T08:28:20.005Z</time></trkpt><trkpt lat="44.4526102" lon="11.3691931"><ele>80.71428571428572</ele><time>2026-04-26T08:28:21.001Z</time></trkpt><trkpt lat="44.4525724" lon="11.3691185"><ele>79.85714285714286</ele><time>2026-04-26T08:28:22.004Z</time></trkpt><trkpt lat="44.4525348" lon="11.369045"><ele>79.0</ele><time>2026-04-26T08:28:23.005Z</time></trkpt><trkpt lat="44.4524971" lon="11.3689724"><ele>79.0</ele><time>2026-04-26T08:28:23.998Z</time></trkpt><trkpt lat="44.4524605" lon="11.368899"><ele>79.0</ele><time>2026-04-26T08:28:25.004Z</time></trkpt><trkpt lat="44.4524236" lon="11.3688265"><ele>79.0</ele><time>2026-04-26T08:28:26.004Z</time></trkpt><trkpt lat="44.4523873" lon="11.3687531"><ele>79.0</ele><time>2026-04-26T08:28:26.992Z</time></trkpt><trkpt lat="44.4523155" lon="11.3686113"><ele>79.0</ele><time>2026-04-26T08:28:29.015Z</time></trkpt><trkpt lat="44.452245" lon="11.3684711"><ele>79.0</ele><time>2026-04-26T08:28:31.002Z</time></trkpt><trkpt lat="44.4521754" lon="11.3683338"><ele>80.2</ele><time>2026-04-26T08:28:33.002Z</time></trkpt><trkpt lat="44.4521062" lon="11.3681997"><ele>81.4</ele><time>2026-04-26T08:28:35.009Z</time></trkpt><trkpt lat="44.4520406" lon="11.3680704"><ele>82.6</ele><time>2026-04-26T08:28:37.006Z</time></trkpt><trkpt lat="44.4519765" lon="11.3679441"><ele>83.8</ele><time>2026-04-26T08:28:39.002Z</time></trkpt><trkpt lat="44.4519143" lon="11.3678216"><ele>85.0</ele><time>2026-04-26T08:28:41.011Z</time></trkpt><trkpt lat="44.4518549" lon="11.3677022"><ele>86.0</ele><time>2026-04-26T08:28:43.004Z</time></trkpt><trkpt lat="44.451798" lon="11.3675892"><ele>87.0</ele><time>2026-04-26T08:28:45.01Z</time></trkpt><trkpt lat="44.4517421" lon="11.3674798"><ele>88.0</ele><time>2026-04-26T08:28:47.003Z</time></trkpt><trkpt lat="44.4516878" lon="11.3673733"><ele>89.0</ele><time>2026-04-26T08:28:49.005Z</time></trkpt><trkpt lat="44.451634" lon="11.3672686"><ele>90.0</ele><time>2026-04-26T08:28:51.003Z</time></trkpt><trkpt lat="44.4515808" lon="11.3671644"><ele>90.2</ele><time>2026-04-26T08:28:53Z</time></trkpt><trkpt lat="44.4515264" lon="11.3670582"><ele>90.4</ele><time>2026-04-26T08:28:55.007Z</time></trkpt><trkpt lat="44.451472" lon="11.3669508"><ele>90.6</ele><time>2026-04-26T08:28:57.006Z</time></trkpt><trkpt lat="44.4514191" lon="11.3668432"><ele>90.8</ele><time>2026-04-26T08:28:59.007Z</time></trkpt><trkpt lat="44.4513644" lon="11.3667398"><ele>91.0</ele><time>2026-04-26T08:29:01.007Z</time></trkpt><trkpt lat="44.4513101" lon="11.3666374"><ele>91.5</ele><time>2026-04-26T08:29:03.002Z</time></trkpt><trkpt lat="44.4512569" lon="11.3665365"><ele>92.0</ele><time>2026-04-26T08:29:05.014Z</time></trkpt><trkpt lat="44.4512041" lon="11.3664382"><ele>92.5</ele><time>2026-04-26T08:29:06.999Z</time></trkpt><trkpt lat="44.4511502" lon="11.3663422"><ele>93.0</ele><time>2026-04-26T08:29:09.011Z</time></trkpt><trkpt lat="44.4510959" lon="11.3662469"><ele>93.5</ele><time>2026-04-26T08:29:11.011Z</time></trkpt><trkpt lat="44.4510415" lon="11.3661525"><ele>94.0</ele><time>2026-04-26T08:29:13.008Z</time></trkpt><trkpt lat="44.4509852" lon="11.3660605"><ele>94.33333333333333</ele><time>2026-04-26T08:29:15.015Z</time></trkpt><trkpt lat="44.4509275" lon="11.3659685"><ele>94.66666666666666</ele><time>2026-04-26T08:29:17.006Z</time></trkpt><trkpt lat="44.4508689" lon="11.3658778"><ele>95.0</ele><time>2026-04-26T08:29:19.01Z</time></trkpt><trkpt lat="44.45081" lon="11.3657878"><ele>95.33333333333333</ele><time>2026-04-26T08:29:20.993Z</time></trkpt><trkpt lat="44.4507492" lon="11.3656985"><ele>95.66666666666667</ele><time>2026-04-26T08:29:23.01Z</time></trkpt><trkpt lat="44.4506849" lon="11.3656131"><ele>96.0</ele><time>2026-04-26T08:29:25.003Z</time></trkpt><trkpt lat="44.4506223" lon="11.3655261"><ele>96.66666666666667</ele><time>2026-04-26T08:29:27.006Z</time></trkpt><trkpt lat="44.4505588" lon="11.3654426"><ele>97.33333333333334</ele><time>2026-04-26T08:29:29.001Z</time></trkpt><trkpt lat="44.4504939" lon="11.3653598"><ele>98.0</ele><time>2026-04-26T08:29:31.007Z</time></trkpt><trkpt lat="44.4504287" lon="11.3652775"><ele>98.66666666666667</ele><time>2026-04-26T08:29:33.01Z</time></trkpt><trkpt lat="44.4503625" lon="11.3651994"><ele>99.33333333333334</ele><time>2026-04-26T08:29:35.015Z</time></trkpt><trkpt lat="44.4502953" lon="11.3651205"><ele>100.0</ele><time>2026-04-26T08:29:37.009Z</time></trkpt><trkpt lat="44.4502293" lon="11.3650445"><ele>100.00000000000001</ele><time>2026-04-26T08:29:39.013Z</time></trkpt><trkpt lat="44.4501636" lon="11.3649674"><ele>100.0</ele><time>2026-04-26T08:29:41.017Z</time></trkpt><trkpt lat="44.4500959" lon="11.364895"><ele>100.0</ele><time>2026-04-26T08:29:43.005Z</time></trkpt><trkpt lat="44.450027" lon="11.3648209"><ele>100.0</ele><time>2026-04-26T08:29:44.987Z</time></trkpt><trkpt lat="44.4499585" lon="11.364747"><ele>100.00000000000001</ele><time>2026-04-26T08:29:47.013Z</time></trkpt><trkpt lat="44.4498916" lon="11.36467"><ele>100.0</ele><time>2026-04-26T08:29:48.992Z</time></trkpt><trkpt lat="44.4498236" lon="11.3645962"><ele>100.33333333333334</ele><time>2026-04-26T08:29:51.001Z</time></trkpt><trkpt lat="44.4497523" lon="11.3645193"><ele>100.66666666666667</ele><time>2026-04-26T08:29:53.013Z</time></trkpt><trkpt lat="44.4496841" lon="11.3644441"><ele>101.0</ele><time>2026-04-26T08:29:54.991Z</time></trkpt><trkpt lat="44.4496138" lon="11.3643682"><ele>101.33333333333334</ele><time>2026-04-26T08:29:57.003Z</time></trkpt><trkpt lat="44.4495429" lon="11.3642921"><ele>101.66666666666667</ele><time>2026-04-26T08:29:59.016Z</time></trkpt><trkpt lat="44.449473" lon="11.3642147"><ele>102.0</ele><time>2026-04-26T08:30:01.004Z</time></trkpt><trkpt lat="44.4493998" lon="11.364137"><ele>102.0</ele><time>2026-04-26T08:30:03.011Z</time></trkpt><trkpt lat="44.4493239" lon="11.3640564"><ele>102.0</ele><time>2026-04-26T08:30:05.003Z</time></trkpt><trkpt lat="44.4492461" lon="11.3639728"><ele>102.0</ele><time>2026-04-26T08:30:07.005Z</time></trkpt><trkpt lat="44.4491669" lon="11.3638889"><ele>102.0</ele><time>2026-04-26T08:30:09.003Z</time></trkpt><trkpt lat="44.4490838" lon="11.3637991"><ele>102.0</ele><time>2026-04-26T08:30:11.01Z</time></trkpt><trkpt lat="44.4489994" lon="11.3637064"><ele>101.8</ele><time>2026-04-26T08:30:13.01Z</time></trkpt><trkpt lat="44.4489125" lon="11.3636134"><ele>101.6</ele><time>2026-04-26T08:30:15.023Z</time></trkpt><trkpt lat="44.4488291" lon="11.3635206"><ele>101.39999999999999</ele><time>2026-04-26T08:30:17.019Z</time></trkpt><trkpt lat="44.4487433" lon="11.3634274"><ele>101.19999999999999</ele><time>2026-04-26T08:30:19.004Z</time></trkpt><trkpt lat="44.4486562" lon="11.363337"><ele>101.0</ele><time>2026-04-26T08:30:21.024Z</time></trkpt><trkpt lat="44.4485697" lon="11.3632419"><ele>101.4</ele><time>2026-04-26T08:30:23.004Z</time></trkpt><trkpt lat="44.4484828" lon="11.3631449"><ele>101.8</ele><time>2026-04-26T08:30:25.009Z</time></trkpt><trkpt lat="44.4483962" lon="11.3630501"><ele>102.2</ele><time>2026-04-26T08:30:27.001Z</time></trkpt><trkpt lat="44.4483123" lon="11.3629522"><ele>102.60000000000001</ele><time>2026-04-26T08:30:29.015Z</time></trkpt><trkpt lat="44.4482433" lon="11.3628359"><ele>103.0</ele><time>2026-04-26T08:30:31.019Z</time></trkpt><trkpt lat="44.4482108" lon="11.3626877"><ele>103.0</ele><time>2026-04-26T08:30:33.014Z</time></trkpt><trkpt lat="44.4481741" lon="11.3625399"><ele>103.0</ele><time>2026-04-26T08:30:35.005Z</time></trkpt><trkpt lat="44.4480996" lon="11.3624232"><ele>103.0</ele><time>2026-04-26T08:30:36.998Z</time></trkpt><trkpt lat="44.4479935" lon="11.3623626"><ele>103.0</ele><time>2026-04-26T08:30:39.008Z</time></trkpt><trkpt lat="44.4478866" lon="11.3622999"><ele>104.25</ele><time>2026-04-26T08:30:40.992Z</time></trkpt><trkpt lat="44.4478064" lon="11.3621839"><ele>105.5</ele><time>2026-04-26T08:30:43Z</time></trkpt><trkpt lat="44.4477394" lon="11.3620498"><ele>106.75</ele><time>2026-04-26T08:30:45.008Z</time></trkpt><trkpt lat="44.4476755" lon="11.3619127"><ele>108.0</ele><time>2026-04-26T08:30:47.007Z</time></trkpt><trkpt lat="44.4476118" lon="11.3617764"><ele>108.0</ele><time>2026-04-26T08:30:48.997Z</time></trkpt><trkpt lat="44.4475487" lon="11.3616399"><ele>108.0</ele><time>2026-04-26T08:30:51.007Z</time></trkpt><trkpt lat="44.4474826" lon="11.3615029"><ele>108.0</ele><time>2026-04-26T08:30:53.013Z</time></trkpt><trkpt lat="44.4474189" lon="11.3613649"><ele>108.0</ele><time>2026-04-26T08:30:55.006Z</time></trkpt><trkpt lat="44.4473547" lon="11.3612267"><ele>107.5</ele><time>2026-04-26T08:30:56.993Z</time></trkpt><trkpt lat="44.4472895" lon="11.3610869"><ele>107.0</ele><time>2026-04-26T08:30:59.002Z</time></trkpt><trkpt lat="44.4472238" lon="11.3609461"><ele>106.5</ele><time>2026-04-26T08:31:01.003Z</time></trkpt><trkpt lat="44.4471562" lon="11.3608037"><ele>106.0</ele><time>2026-04-26T08:31:03.01Z</time></trkpt><trkpt lat="44.4470902" lon="11.3606599"><ele>106.0</ele><time>2026-04-26T08:31:05.006Z</time></trkpt><trkpt lat="44.4470238" lon="11.3605131"><ele>106.0</ele><time>2026-04-26T08:31:06.994Z</time></trkpt><trkpt lat="44.4469889" lon="11.3604387"><ele>106.0</ele><time>2026-04-26T08:31:08.004Z</time></trkpt><trkpt lat="44.4469535" lon="11.360364"><ele>106.0</ele><time>2026-04-26T08:31:09.012Z</time></trkpt><trkpt lat="44.4469183" lon="11.3602898"><ele>106.0</ele><time>2026-04-26T08:31:10.009Z</time></trkpt><trkpt lat="44.4468827" lon="11.360214"><ele>106.0</ele><time>2026-04-26T08:31:11.006Z</time></trkpt><trkpt lat="44.4468474" lon="11.3601381"><ele>106.0</ele><time>2026-04-26T08:31:12.001Z</time></trkpt><trkpt lat="44.446812" lon="11.3600618"><ele>106.0</ele><time>2026-04-26T08:31:13.007Z</time></trkpt><trkpt lat="44.4467765" lon="11.3599848"><ele>106.0</ele><time>2026-04-26T08:31:14.006Z</time></trkpt><trkpt lat="44.4467413" lon="11.359907"><ele>106.0</ele><time>2026-04-26T08:31:15.016Z</time></trkpt><trkpt lat="44.4467049" lon="11.3598295"><ele>106.0</ele><time>2026-04-26T08:31:15.996Z</time></trkpt><trkpt lat="44.4466686" lon="11.3597516"><ele>106.0</ele><time>2026-04-26T08:31:17.003Z</time></trkpt><trkpt lat="44.4466314" lon="11.3596732"><ele>106.0</ele><time>2026-04-26T08:31:18.006Z</time></trkpt><trkpt lat="44.4465949" lon="11.3595944"><ele>106.0</ele><time>2026-04-26T08:31:19.001Z</time></trkpt><trkpt lat="44.4465579" lon="11.3595159"><ele>105.85714285714286</ele><time>2026-04-26T08:31:20.004Z</time></trkpt><trkpt lat="44.4465208" lon="11.3594365"><ele>105.71428571428571</ele><time>2026-04-26T08:31:20.998Z</time></trkpt><trkpt lat="44.4464836" lon="11.3593566"><ele>105.57142857142857</ele><time>2026-04-26T08:31:22.013Z</time></trkpt><trkpt lat="44.4464455" lon="11.3592769"><ele>105.42857142857143</ele><time>2026-04-26T08:31:23.008Z</time></trkpt><trkpt lat="44.4464073" lon="11.3591972"><ele>105.28571428571428</ele><time>2026-04-26T08:31:24.006Z</time></trkpt><trkpt lat="44.4463693" lon="11.3591151"><ele>105.14285714285714</ele><time>2026-04-26T08:31:25Z</time></trkpt><trkpt lat="44.4463308" lon="11.3590325"><ele>105.0</ele><time>2026-04-26T08:31:25.999Z</time></trkpt><trkpt lat="44.4462926" lon="11.3589482"><ele>103.85714285714286</ele><time>2026-04-26T08:31:27.015Z</time></trkpt><trkpt lat="44.4462534" lon="11.358864"><ele>102.71428571428572</ele><time>2026-04-26T08:31:28.011Z</time></trkpt><trkpt lat="44.4462137" lon="11.3587792"><ele>101.57142857142857</ele><time>2026-04-26T08:31:29.007Z</time></trkpt><trkpt lat="44.446173" lon="11.3586933"><ele>100.42857142857143</ele><time>2026-04-26T08:31:30.009Z</time></trkpt><trkpt lat="44.4461312" lon="11.3586074"><ele>99.28571428571429</ele><time>2026-04-26T08:31:31.006Z</time></trkpt><trkpt lat="44.4460904" lon="11.3585209"><ele>98.14285714285714</ele><time>2026-04-26T08:31:32.006Z</time></trkpt><trkpt lat="44.4460496" lon="11.3584331"><ele>97.0</ele><time>2026-04-26T08:31:33.01Z</time></trkpt><trkpt lat="44.4460083" lon="11.3583455"><ele>97.00000000000001</ele><time>2026-04-26T08:31:33.995Z</time></trkpt><trkpt lat="44.445968" lon="11.3582574"><ele>97.0</ele><time>2026-04-26T08:31:35.018Z</time></trkpt><trkpt lat="44.445928" lon="11.3581704"><ele>97.0</ele><time>2026-04-26T08:31:36.005Z</time></trkpt><trkpt lat="44.4458871" lon="11.3580814"><ele>97.0</ele><time>2026-04-26T08:31:37.004Z</time></trkpt><trkpt lat="44.4458452" lon="11.3579944"><ele>97.00000000000001</ele><time>2026-04-26T08:31:38.002Z</time></trkpt><trkpt lat="44.4458034" lon="11.3579058"><ele>97.0</ele><time>2026-04-26T08:31:39.008Z</time></trkpt><trkpt lat="44.445763" lon="11.3578169"><ele>96.57142857142857</ele><time>2026-04-26T08:31:40.01Z</time></trkpt><trkpt lat="44.4457222" lon="11.3577285"><ele>96.14285714285715</ele><time>2026-04-26T08:31:41.009Z</time></trkpt><trkpt lat="44.4456812" lon="11.357641"><ele>95.71428571428572</ele><time>2026-04-26T08:31:41.99Z</time></trkpt><trkpt lat="44.4456398" lon="11.3575541"><ele>95.28571428571428</ele><time>2026-04-26T08:31:43.003Z</time></trkpt><trkpt lat="44.4455987" lon="11.3574672"><ele>94.85714285714286</ele><time>2026-04-26T08:31:44Z</time></trkpt><trkpt lat="44.4455585" lon="11.3573801"><ele>94.42857142857143</ele><time>2026-04-26T08:31:45.005Z</time></trkpt><trkpt lat="44.4455193" lon="11.3572921"><ele>94.0</ele><time>2026-04-26T08:31:46.011Z</time></trkpt><trkpt lat="44.4454819" lon="11.3572028"><ele>94.71428571428571</ele><time>2026-04-26T08:31:47.004Z</time></trkpt><trkpt lat="44.445445" lon="11.3571121"><ele>95.42857142857142</ele><time>2026-04-26T08:31:48Z</time></trkpt><trkpt lat="44.4454076" lon="11.357022"><ele>96.14285714285714</ele><time>2026-04-26T08:31:49.006Z</time></trkpt><trkpt lat="44.445372" lon="11.3569317"><ele>96.85714285714286</ele><time>2026-04-26T08:31:50.012Z</time></trkpt><trkpt lat="44.4453375" lon="11.3568389"><ele>97.57142857142857</ele><time>2026-04-26T08:31:51Z</time></trkpt><trkpt lat="44.4453037" lon="11.3567452"><ele>98.28571428571429</ele><time>2026-04-26T08:31:52.004Z</time></trkpt><trkpt lat="44.4452723" lon="11.35665"><ele>99.0</ele><time>2026-04-26T08:31:53.017Z</time></trkpt><trkpt lat="44.4452416" lon="11.3565545"><ele>99.0</ele><time>2026-04-26T08:31:54.002Z</time></trkpt><trkpt lat="44.4452125" lon="11.3564586"><ele>99.0</ele><time>2026-04-26T08:31:55.005Z</time></trkpt><trkpt lat="44.4451857" lon="11.3563619"><ele>99.0</ele><time>2026-04-26T08:31:56.007Z</time></trkpt><trkpt lat="44.4451607" lon="11.3562647"><ele>99.0</ele><time>2026-04-26T08:31:57.01Z</time></trkpt><trkpt lat="44.4451359" lon="11.356168"><ele>99.0</ele><time>2026-04-26T08:31:57.999Z</time></trkpt><trkpt lat="44.4451106" lon="11.3560711"><ele>99.0</ele><time>2026-04-26T08:31:59.009Z</time></trkpt><trkpt lat="44.4450862" lon="11.3559741"><ele>99.0</ele><time>2026-04-26T08:31:59.998Z</time></trkpt><trkpt lat="44.4450618" lon="11.3558778"><ele>99.28571428571429</ele><time>2026-04-26T08:32:01.004Z</time></trkpt><trkpt lat="44.4450378" lon="11.3557815"><ele>99.57142857142857</ele><time>2026-04-26T08:32:02.001Z</time></trkpt><trkpt lat="44.445015" lon="11.3556852"><ele>99.85714285714286</ele><time>2026-04-26T08:32:03.016Z</time></trkpt><trkpt lat="44.4449907" lon="11.355589"><ele>100.14285714285714</ele><time>2026-04-26T08:32:04.006Z</time></trkpt><trkpt lat="44.4449646" lon="11.3554938"><ele>100.42857142857142</ele><time>2026-04-26T08:32:05Z</time></trkpt><trkpt lat="44.4449371" lon="11.3553993"><ele>100.71428571428571</ele><time>2026-04-26T08:32:05.999Z</time></trkpt><trkpt lat="44.444909" lon="11.3553053"><ele>101.0</ele><time>2026-04-26T08:32:07.007Z</time></trkpt><trkpt lat="44.4448786" lon="11.3552121"><ele>101.14285714285714</ele><time>2026-04-26T08:32:08.01Z</time></trkpt><trkpt lat="44.4448438" lon="11.3551204"><ele>101.28571428571428</ele><time>2026-04-26T08:32:09.011Z</time></trkpt><trkpt lat="44.4448058" lon="11.3550298"><ele>101.42857142857143</ele><time>2026-04-26T08:32:10.008Z</time></trkpt><trkpt lat="44.4447661" lon="11.3549411"><ele>101.57142857142857</ele><time>2026-04-26T08:32:11.008Z</time></trkpt><trkpt lat="44.4447243" lon="11.3548543"><ele>101.71428571428572</ele><time>2026-04-26T08:32:12.008Z</time></trkpt><trkpt lat="44.44468" lon="11.3547702"><ele>101.85714285714286</ele><time>2026-04-26T08:32:13.005Z</time></trkpt><trkpt lat="44.4446338" lon="11.3546885"><ele>102.0</ele><time>2026-04-26T08:32:13.998Z</time></trkpt><trkpt lat="44.4445856" lon="11.3546087"><ele>102.0</ele><time>2026-04-26T08:32:15.001Z</time></trkpt><trkpt lat="44.4445349" lon="11.3545321"><ele>102.0</ele><time>2026-04-26T08:32:16.015Z</time></trkpt><trkpt lat="44.4444831" lon="11.3544579"><ele>102.0</ele><time>2026-04-26T08:32:17.014Z</time></trkpt><trkpt lat="44.4444291" lon="11.3543865"><ele>102.0</ele><time>2026-04-26T08:32:18.012Z</time></trkpt><trkpt lat="44.4443748" lon="11.3543143"><ele>102.0</ele><time>2026-04-26T08:32:19.005Z</time></trkpt><trkpt lat="44.4443231" lon="11.3542376"><ele>102.0</ele><time>2026-04-26T08:32:20.01Z</time></trkpt><trkpt lat="44.4442823" lon="11.354148"><ele>102.0</ele><time>2026-04-26T08:32:21.004Z</time></trkpt><trkpt lat="44.4442554" lon="11.3540507"><ele>102.0</ele><time>2026-04-26T08:32:22.005Z</time></trkpt><trkpt lat="44.4442202" lon="11.3539609"><ele>102.0</ele><time>2026-04-26T08:32:23.007Z</time></trkpt><trkpt lat="44.4441653" lon="11.3538947"><ele>102.0</ele><time>2026-04-26T08:32:24.012Z</time></trkpt><trkpt lat="44.4440973" lon="11.3538603"><ele>102.0</ele><time>2026-04-26T08:32:25.007Z</time></trkpt><trkpt lat="44.4440246" lon="11.353849"><ele>102.0</ele><time>2026-04-26T08:32:26.006Z</time></trkpt><trkpt lat="44.4439503" lon="11.3538395"><ele>102.0</ele><time>2026-04-26T08:32:27.001Z</time></trkpt><trkpt lat="44.4438769" lon="11.3538091"><ele>102.0</ele><time>2026-04-26T08:32:28.007Z</time></trkpt><trkpt lat="44.4438098" lon="11.3537564"><ele>101.83333333333333</ele><time>2026-04-26T08:32:29.006Z</time></trkpt><trkpt lat="44.4437482" lon="11.3536921"><ele>101.66666666666666</ele><time>2026-04-26T08:32:30Z</time></trkpt><trkpt lat="44.4436913" lon="11.35362"><ele>101.5</ele><time>2026-04-26T08:32:31.001Z</time></trkpt><trkpt lat="44.4436385" lon="11.353543"><ele>101.33333333333333</ele><time>2026-04-26T08:32:32.01Z</time></trkpt><trkpt lat="44.4435893" lon="11.3534616"><ele>101.16666666666666</ele><time>2026-04-26T08:32:33.01Z</time></trkpt><trkpt lat="44.4435436" lon="11.3533775"><ele>101.0</ele><time>2026-04-26T08:32:34.011Z</time></trkpt><trkpt lat="44.4435012" lon="11.35329"><ele>100.99999999999999</ele><time>2026-04-26T08:32:35.009Z</time></trkpt><trkpt lat="44.4434635" lon="11.3531974"><ele>101.0</ele><time>2026-04-26T08:32:36.005Z</time></trkpt><trkpt lat="44.4434292" lon="11.3531024"><ele>101.0</ele><time>2026-04-26T08:32:37.005Z</time></trkpt><trkpt lat="44.4433949" lon="11.353009"><ele>101.0</ele><time>2026-04-26T08:32:38.001Z</time></trkpt><trkpt lat="44.4433629" lon="11.3529123"><ele>100.99999999999999</ele><time>2026-04-26T08:32:38.99Z</time></trkpt><trkpt lat="44.4433308" lon="11.3528139"><ele>101.0</ele><time>2026-04-26T08:32:40.008Z</time></trkpt><trkpt lat="44.4432978" lon="11.3527215"><ele>100.83333333333333</ele><time>2026-04-26T08:32:41.007Z</time></trkpt><trkpt lat="44.4432625" lon="11.3526302"><ele>100.66666666666666</ele><time>2026-04-26T08:32:42.011Z</time></trkpt><trkpt lat="44.4432226" lon="11.352542"><ele>100.5</ele><time>2026-04-26T08:32:43.024Z</time></trkpt><trkpt lat="44.4431803" lon="11.352454"><ele>100.33333333333334</ele><time>2026-04-26T08:32:44.003Z</time></trkpt><trkpt lat="44.4431334" lon="11.3523696"><ele>100.16666666666667</ele><time>2026-04-26T08:32:45.011Z</time></trkpt><trkpt lat="44.4430825" lon="11.3522872"><ele>100.0</ele><time>2026-04-26T08:32:46.012Z</time></trkpt><trkpt lat="44.4430282" lon="11.3522086"><ele>100.33333333333334</ele><time>2026-04-26T08:32:47.005Z</time></trkpt><trkpt lat="44.4429707" lon="11.3521346"><ele>100.66666666666667</ele><time>2026-04-26T08:32:48.006Z</time></trkpt><trkpt lat="44.44291" lon="11.352064"><ele>101.0</ele><time>2026-04-26T08:32:49.01Z</time></trkpt><trkpt lat="44.442846" lon="11.3520004"><ele>101.33333333333334</ele><time>2026-04-26T08:32:50.006Z</time></trkpt><trkpt lat="44.4427794" lon="11.3519419"><ele>101.66666666666667</ele><time>2026-04-26T08:32:50.992Z</time></trkpt><trkpt lat="44.4427097" lon="11.35189"><ele>102.0</ele><time>2026-04-26T08:32:51.998Z</time></trkpt><trkpt lat="44.4426375" lon="11.3518443"><ele>101.0</ele><time>2026-04-26T08:32:53Z</time></trkpt><trkpt lat="44.4425633" lon="11.3518039"><ele>100.0</ele><time>2026-04-26T08:32:54.009Z</time></trkpt><trkpt lat="44.4424872" lon="11.351769"><ele>99.0</ele><time>2026-04-26T08:32:55.009Z</time></trkpt><trkpt lat="44.4424093" lon="11.3517407"><ele>98.0</ele><time>2026-04-26T08:32:56Z</time></trkpt><trkpt lat="44.4423302" lon="11.3517204"><ele>97.0</ele><time>2026-04-26T08:32:57.006Z</time></trkpt><trkpt lat="44.4422504" lon="11.351704"><ele>96.0</ele><time>2026-04-26T08:32:58Z</time></trkpt><trkpt lat="44.4421699" lon="11.351696"><ele>96.83333333333333</ele><time>2026-04-26T08:32:58.998Z</time></trkpt><trkpt lat="44.4420897" lon="11.3516963"><ele>97.66666666666666</ele><time>2026-04-26T08:32:59.998Z</time></trkpt><trkpt lat="44.4420097" lon="11.3517039"><ele>98.5</ele><time>2026-04-26T08:33:01.009Z</time></trkpt><trkpt lat="44.4419304" lon="11.3517166"><ele>99.33333333333333</ele><time>2026-04-26T08:33:02.006Z</time></trkpt><trkpt lat="44.4418519" lon="11.3517326"><ele>100.16666666666666</ele><time>2026-04-26T08:33:03.011Z</time></trkpt><trkpt lat="44.441774" lon="11.3517499"><ele>101.0</ele><time>2026-04-26T08:33:04.006Z</time></trkpt><trkpt lat="44.4416991" lon="11.3517793"><ele>100.99999999999999</ele><time>2026-04-26T08:33:04.995Z</time></trkpt><trkpt lat="44.4416207" lon="11.3518116"><ele>101.0</ele><time>2026-04-26T08:33:05.991Z</time></trkpt><trkpt lat="44.4415448" lon="11.3518466"><ele>101.0</ele><time>2026-04-26T08:33:07.008Z</time></trkpt><trkpt lat="44.441468" lon="11.3518831"><ele>101.0</ele><time>2026-04-26T08:33:08.007Z</time></trkpt><trkpt lat="44.4413934" lon="11.3519183"><ele>100.99999999999999</ele><time>2026-04-26T08:33:09.002Z</time></trkpt><trkpt lat="44.4413196" lon="11.3519533"><ele>101.0</ele><time>2026-04-26T08:33:10.004Z</time></trkpt><trkpt lat="44.4412455" lon="11.3519892"><ele>100.85714285714286</ele><time>2026-04-26T08:33:11Z</time></trkpt><trkpt lat="44.4411735" lon="11.3520219"><ele>100.71428571428571</ele><time>2026-04-26T08:33:12.006Z</time></trkpt><trkpt lat="44.4411007" lon="11.3520546"><ele>100.57142857142858</ele><time>2026-04-26T08:33:13.007Z</time></trkpt><trkpt lat="44.4410303" lon="11.3520819"><ele>100.42857142857143</ele><time>2026-04-26T08:33:14.005Z</time></trkpt><trkpt lat="44.440959" lon="11.3521079"><ele>100.28571428571429</ele><time>2026-04-26T08:33:15.001Z</time></trkpt><trkpt lat="44.4408878" lon="11.3521305"><ele>100.14285714285715</ele><time>2026-04-26T08:33:16.011Z</time></trkpt><trkpt lat="44.440815" lon="11.3521504"><ele>100.0</ele><time>2026-04-26T08:33:17.006Z</time></trkpt><trkpt lat="44.4407432" lon="11.3521665"><ele>100.00000000000001</ele><time>2026-04-26T08:33:18.013Z</time></trkpt><trkpt lat="44.4406731" lon="11.3521785"><ele>100.0</ele><time>2026-04-26T08:33:19Z</time></trkpt><trkpt lat="44.4406028" lon="11.3521869"><ele>100.0</ele><time>2026-04-26T08:33:20.004Z</time></trkpt><trkpt lat="44.4405336" lon="11.3521908"><ele>100.0</ele><time>2026-04-26T08:33:21.005Z</time></trkpt><trkpt lat="44.4404675" lon="11.3521947"><ele>100.00000000000001</ele><time>2026-04-26T08:33:21.997Z</time></trkpt><trkpt lat="44.4403409" lon="11.3521799"><ele>100.0</ele><time>2026-04-26T08:33:24Z</time></trkpt><trkpt lat="44.4402775" lon="11.3521654"><ele>100.28571428571429</ele><time>2026-04-26T08:33:25.01Z</time></trkpt><trkpt lat="44.4402153" lon="11.3521405"><ele>100.57142857142857</ele><time>2026-04-26T08:33:26.012Z</time></trkpt><trkpt lat="44.440159" lon="11.3520958"><ele>100.85714285714286</ele><time>2026-04-26T08:33:27.004Z</time></trkpt><trkpt lat="44.4401117" lon="11.3520358"><ele>101.14285714285714</ele><time>2026-04-26T08:33:28.008Z</time></trkpt><trkpt lat="44.4400615" lon="11.3519767"><ele>101.42857142857143</ele><time>2026-04-26T08:33:29.003Z</time></trkpt><trkpt lat="44.4400028" lon="11.3519365"><ele>101.71428571428572</ele><time>2026-04-26T08:33:30.004Z</time></trkpt><trkpt lat="44.4399373" lon="11.3519245"><ele>102.0</ele><time>2026-04-26T08:33:31.005Z</time></trkpt><trkpt lat="44.4398711" lon="11.3519395"><ele>102.0</ele><time>2026-04-26T08:33:32.01Z</time></trkpt><trkpt lat="44.4398083" lon="11.3519748"><ele>102.0</ele><time>2026-04-26T08:33:33.016Z</time></trkpt><trkpt lat="44.4397472" lon="11.3520212"><ele>102.0</ele><time>2026-04-26T08:33:33.996Z</time></trkpt><trkpt lat="44.4396813" lon="11.3520584"><ele>102.0</ele><time>2026-04-26T08:33:35Z</time></trkpt><trkpt lat="44.4396108" lon="11.3520773"><ele>102.0</ele><time>2026-04-26T08:33:35.998Z</time></trkpt><trkpt lat="44.4395385" lon="11.352084"><ele>102.0</ele><time>2026-04-26T08:33:37.007Z</time></trkpt><trkpt lat="44.4394683" lon="11.3520846"><ele>102.0</ele><time>2026-04-26T08:33:38.012Z</time></trkpt><trkpt lat="44.4393983" lon="11.352085"><ele>102.0</ele><time>2026-04-26T08:33:39.005Z</time></trkpt><trkpt lat="44.4393292" lon="11.3520839"><ele>102.0</ele><time>2026-04-26T08:33:40.004Z</time></trkpt><trkpt lat="44.4392607" lon="11.3520815"><ele>102.0</ele><time>2026-04-26T08:33:41.013Z</time></trkpt><trkpt lat="44.4391926" lon="11.3520812"><ele>102.0</ele><time>2026-04-26T08:33:42.004Z</time></trkpt><trkpt lat="44.4391252" lon="11.3520815"><ele>102.0</ele><time>2026-04-26T08:33:43.011Z</time></trkpt><trkpt lat="44.4390576" lon="11.3520797"><ele>102.0</ele><time>2026-04-26T08:33:44.008Z</time></trkpt><trkpt lat="44.4389909" lon="11.3520781"><ele>102.0</ele><time>2026-04-26T08:33:45.006Z</time></trkpt><trkpt lat="44.438924" lon="11.352078"><ele>102.0</ele><time>2026-04-26T08:33:46.007Z</time></trkpt><trkpt lat="44.4388575" lon="11.3520776"><ele>102.0</ele><time>2026-04-26T08:33:47.001Z</time></trkpt><trkpt lat="44.4387909" lon="11.3520767"><ele>102.0</ele><time>2026-04-26T08:33:48.007Z</time></trkpt><trkpt lat="44.4387245" lon="11.3520757"><ele>102.0</ele><time>2026-04-26T08:33:49.003Z</time></trkpt><trkpt lat="44.4386586" lon="11.3520738"><ele>102.0</ele><time>2026-04-26T08:33:50.008Z</time></trkpt><trkpt lat="44.438593" lon="11.3520732"><ele>102.0</ele><time>2026-04-26T08:33:51.01Z</time></trkpt><trkpt lat="44.4385257" lon="11.3520725"><ele>102.0</ele><time>2026-04-26T08:33:52.008Z</time></trkpt><trkpt lat="44.438459" lon="11.3520696"><ele>101.625</ele><time>2026-04-26T08:33:53.008Z</time></trkpt><trkpt lat="44.4383939" lon="11.3520668"><ele>101.25</ele><time>2026-04-26T08:33:54.01Z</time></trkpt><trkpt lat="44.4383291" lon="11.3520615"><ele>100.875</ele><time>2026-04-26T08:33:55.012Z</time></trkpt><trkpt lat="44.4382654" lon="11.3520575"><ele>100.5</ele><time>2026-04-26T08:33:56.01Z</time></trkpt><trkpt lat="44.4382003" lon="11.3520545"><ele>100.125</ele><time>2026-04-26T08:33:57.018Z</time></trkpt><trkpt lat="44.4381373" lon="11.3520497"><ele>99.75</ele><time>2026-04-26T08:33:58.006Z</time></trkpt><trkpt lat="44.4380743" lon="11.3520432"><ele>99.375</ele><time>2026-04-26T08:33:58.998Z</time></trkpt><trkpt lat="44.438011" lon="11.3520372"><ele>99.0</ele><time>2026-04-26T08:34:00.003Z</time></trkpt><trkpt lat="44.4378867" lon="11.3520279"><ele>99.0</ele><time>2026-04-26T08:34:02.007Z</time></trkpt><trkpt lat="44.4377631" lon="11.3520175"><ele>99.0</ele><time>2026-04-26T08:34:04.004Z</time></trkpt><trkpt lat="44.4376403" lon="11.3520012"><ele>99.0</ele><time>2026-04-26T08:34:06.008Z</time></trkpt><trkpt lat="44.4375164" lon="11.3519878"><ele>99.0</ele><time>2026-04-26T08:34:08.005Z</time></trkpt><trkpt lat="44.4373922" lon="11.3519791"><ele>99.0</ele><time>2026-04-26T08:34:09.994Z</time></trkpt><trkpt lat="44.437268" lon="11.3519662"><ele>99.0</ele><time>2026-04-26T08:34:12.002Z</time></trkpt><trkpt lat="44.4371436" lon="11.3519535"><ele>99.0</ele><time>2026-04-26T08:34:14.013Z</time></trkpt><trkpt lat="44.4370198" lon="11.3519428"><ele>99.0</ele><time>2026-04-26T08:34:16.005Z</time></trkpt><trkpt lat="44.436896" lon="11.3519292"><ele>99.75</ele><time>2026-04-26T08:34:17.998Z</time></trkpt><trkpt lat="44.4367712" lon="11.3519187"><ele>100.5</ele><time>2026-04-26T08:34:20.008Z</time></trkpt><trkpt lat="44.4366477" lon="11.3519078"><ele>101.25</ele><time>2026-04-26T08:34:22.013Z</time></trkpt><trkpt lat="44.4365244" lon="11.3518947"><ele>102.0</ele><time>2026-04-26T08:34:24.005Z</time></trkpt><trkpt lat="44.4364003" lon="11.3518805"><ele>102.8</ele><time>2026-04-26T08:34:26.024Z</time></trkpt><trkpt lat="44.4362761" lon="11.3518685"><ele>103.6</ele><time>2026-04-26T08:34:28.004Z</time></trkpt><trkpt lat="44.436152" lon="11.3518557"><ele>104.39999999999999</ele><time>2026-04-26T08:34:30.001Z</time></trkpt><trkpt lat="44.436028" lon="11.351844"><ele>105.19999999999999</ele><time>2026-04-26T08:34:32.002Z</time></trkpt><trkpt lat="44.4359651" lon="11.3518366"><ele>106.0</ele><time>2026-04-26T08:34:32.993Z</time></trkpt><trkpt lat="44.4359017" lon="11.351829"><ele>106.0</ele><time>2026-04-26T08:34:34.005Z</time></trkpt><trkpt lat="44.4358383" lon="11.3518239"><ele>106.0</ele><time>2026-04-26T08:34:35.01Z</time></trkpt><trkpt lat="44.4357748" lon="11.3518194"><ele>106.0</ele><time>2026-04-26T08:34:36.005Z</time></trkpt><trkpt lat="44.4356495" lon="11.3518056"><ele>106.0</ele><time>2026-04-26T08:34:38.007Z</time></trkpt><trkpt lat="44.4355862" lon="11.3517991"><ele>106.0</ele><time>2026-04-26T08:34:39.006Z</time></trkpt><trkpt lat="44.4355223" lon="11.351793"><ele>106.0</ele><time>2026-04-26T08:34:40.006Z</time></trkpt><trkpt lat="44.4354574" lon="11.3517867"><ele>106.0</ele><time>2026-04-26T08:34:41.006Z</time></trkpt><trkpt lat="44.4353925" lon="11.3517796"><ele>106.14285714285715</ele><time>2026-04-26T08:34:42.009Z</time></trkpt><trkpt lat="44.4353272" lon="11.3517724"><ele>106.28571428571428</ele><time>2026-04-26T08:34:43.004Z</time></trkpt><trkpt lat="44.4352619" lon="11.3517647"><ele>106.42857142857143</ele><time>2026-04-26T08:34:44.001Z</time></trkpt><trkpt lat="44.4351966" lon="11.3517586"><ele>106.57142857142858</ele><time>2026-04-26T08:34:44.999Z</time></trkpt><trkpt lat="44.4351314" lon="11.3517533"><ele>106.71428571428572</ele><time>2026-04-26T08:34:46.001Z</time></trkpt><trkpt lat="44.4350667" lon="11.3517464"><ele>106.85714285714286</ele><time>2026-04-26T08:34:47.002Z</time></trkpt><trkpt lat="44.4350022" lon="11.3517396"><ele>107.0</ele><time>2026-04-26T08:34:48Z</time></trkpt><trkpt lat="44.4349374" lon="11.3517317"><ele>107.00000000000001</ele><time>2026-04-26T08:34:49.016Z</time></trkpt><trkpt lat="44.4348729" lon="11.3517247"><ele>107.0</ele><time>2026-04-26T08:34:50.003Z</time></trkpt><trkpt lat="44.4348084" lon="11.351719"><ele>107.0</ele><time>2026-04-26T08:34:51.021Z</time></trkpt><trkpt lat="44.4347442" lon="11.3517142"><ele>107.0</ele><time>2026-04-26T08:34:52.004Z</time></trkpt><trkpt lat="44.4346791" lon="11.3517074"><ele>107.0</ele><time>2026-04-26T08:34:53.007Z</time></trkpt><trkpt lat="44.4346133" lon="11.3517006"><ele>107.00000000000001</ele><time>2026-04-26T08:34:54.007Z</time></trkpt><trkpt lat="44.4345463" lon="11.351694"><ele>107.0</ele><time>2026-04-26T08:34:54.998Z</time></trkpt><trkpt lat="44.4344796" lon="11.3516867"><ele>106.85714285714286</ele><time>2026-04-26T08:34:56.002Z</time></trkpt><trkpt lat="44.4344132" lon="11.35168"><ele>106.71428571428572</ele><time>2026-04-26T08:34:57.001Z</time></trkpt><trkpt lat="44.4343469" lon="11.3516742"><ele>106.57142857142858</ele><time>2026-04-26T08:34:58.02Z</time></trkpt><trkpt lat="44.4342809" lon="11.3516672"><ele>106.42857142857143</ele><time>2026-04-26T08:34:59.004Z</time></trkpt><trkpt lat="44.4342157" lon="11.3516607"><ele>106.28571428571428</ele><time>2026-04-26T08:35:00.002Z</time></trkpt><trkpt lat="44.4341507" lon="11.3516537"><ele>106.14285714285715</ele><time>2026-04-26T08:35:01.006Z</time></trkpt><trkpt lat="44.4340853" lon="11.3516473"><ele>106.0</ele><time>2026-04-26T08:35:02.01Z</time></trkpt><trkpt lat="44.4340205" lon="11.3516384"><ele>106.0</ele><time>2026-04-26T08:35:03.005Z</time></trkpt><trkpt lat="44.4339553" lon="11.3516309"><ele>106.0</ele><time>2026-04-26T08:35:04.009Z</time></trkpt><trkpt lat="44.4338899" lon="11.3516241"><ele>106.0</ele><time>2026-04-26T08:35:05.012Z</time></trkpt><trkpt lat="44.4338246" lon="11.3516175"><ele>106.0</ele><time>2026-04-26T08:35:06.007Z</time></trkpt><trkpt lat="44.4337584" lon="11.3516107"><ele>106.0</ele><time>2026-04-26T08:35:07.005Z</time></trkpt><trkpt lat="44.433692" lon="11.351604"><ele>106.0</ele><time>2026-04-26T08:35:08.006Z</time></trkpt><trkpt lat="44.4336254" lon="11.3515978"><ele>106.0</ele><time>2026-04-26T08:35:09.008Z</time></trkpt><trkpt lat="44.4335586" lon="11.3515907"><ele>106.14285714285715</ele><time>2026-04-26T08:35:10.012Z</time></trkpt><trkpt lat="44.4334916" lon="11.3515819"><ele>106.28571428571428</ele><time>2026-04-26T08:35:11.012Z</time></trkpt><trkpt lat="44.4334242" lon="11.3515736"><ele>106.42857142857143</ele><time>2026-04-26T08:35:12.005Z</time></trkpt><trkpt lat="44.4333566" lon="11.3515628"><ele>106.57142857142858</ele><time>2026-04-26T08:35:13.006Z</time></trkpt><trkpt lat="44.4332897" lon="11.3515489"><ele>106.71428571428572</ele><time>2026-04-26T08:35:14.007Z</time></trkpt><trkpt lat="44.433224" lon="11.3515319"><ele>106.85714285714286</ele><time>2026-04-26T08:35:15.004Z</time></trkpt><trkpt lat="44.4331588" lon="11.3515111"><ele>107.0</ele><time>2026-04-26T08:35:15.999Z</time></trkpt><trkpt lat="44.4330938" lon="11.3514865"><ele>107.00000000000001</ele><time>2026-04-26T08:35:17.008Z</time></trkpt><trkpt lat="44.4330291" lon="11.3514606"><ele>107.0</ele><time>2026-04-26T08:35:18.007Z</time></trkpt><trkpt lat="44.4329642" lon="11.3514346"><ele>107.0</ele><time>2026-04-26T08:35:19.005Z</time></trkpt><trkpt lat="44.4328998" lon="11.3514073"><ele>107.0</ele><time>2026-04-26T08:35:20.004Z</time></trkpt><trkpt lat="44.4328356" lon="11.3513781"><ele>107.0</ele><time>2026-04-26T08:35:21.01Z</time></trkpt><trkpt lat="44.432772" lon="11.3513482"><ele>107.00000000000001</ele><time>2026-04-26T08:35:22.003Z</time></trkpt><trkpt lat="44.4327077" lon="11.3513199"><ele>107.0</ele><time>2026-04-26T08:35:23.011Z</time></trkpt><trkpt lat="44.4326436" lon="11.3512907"><ele>108.85714285714286</ele><time>2026-04-26T08:35:24.009Z</time></trkpt><trkpt lat="44.4325791" lon="11.3512618"><ele>110.71428571428572</ele><time>2026-04-26T08:35:25.009Z</time></trkpt><trkpt lat="44.4325153" lon="11.351233"><ele>112.57142857142858</ele><time>2026-04-26T08:35:26.007Z</time></trkpt><trkpt lat="44.4324515" lon="11.3512017"><ele>114.42857142857143</ele><time>2026-04-26T08:35:27.008Z</time></trkpt><trkpt lat="44.4323873" lon="11.351172"><ele>116.28571428571428</ele><time>2026-04-26T08:35:28.013Z</time></trkpt><trkpt lat="44.4323229" lon="11.3511423"><ele>118.14285714285715</ele><time>2026-04-26T08:35:29.004Z</time></trkpt><trkpt lat="44.4322592" lon="11.3511115"><ele>120.0</ele><time>2026-04-26T08:35:30.004Z</time></trkpt><trkpt lat="44.4321946" lon="11.3510809"><ele>118.85714285714286</ele><time>2026-04-26T08:35:31.003Z</time></trkpt><trkpt lat="44.4321296" lon="11.3510486"><ele>117.71428571428571</ele><time>2026-04-26T08:35:32.007Z</time></trkpt><trkpt lat="44.4320635" lon="11.3510174"><ele>116.57142857142857</ele><time>2026-04-26T08:35:33.009Z</time></trkpt><trkpt lat="44.4319973" lon="11.3509863"><ele>115.42857142857143</ele><time>2026-04-26T08:35:34.007Z</time></trkpt><trkpt lat="44.4319317" lon="11.3509554"><ele>114.28571428571428</ele><time>2026-04-26T08:35:35.006Z</time></trkpt><trkpt lat="44.431866" lon="11.3509242"><ele>113.14285714285714</ele><time>2026-04-26T08:35:36.003Z</time></trkpt><trkpt lat="44.4318003" lon="11.3508933"><ele>112.0</ele><time>2026-04-26T08:35:37.006Z</time></trkpt><trkpt lat="44.4317343" lon="11.3508629"><ele>112.0</ele><time>2026-04-26T08:35:38.002Z</time></trkpt><trkpt lat="44.4316683" lon="11.3508315"><ele>112.0</ele><time>2026-04-26T08:35:39.005Z</time></trkpt><trkpt lat="44.4316026" lon="11.3508015"><ele>112.0</ele><time>2026-04-26T08:35:40.012Z</time></trkpt><trkpt lat="44.4315369" lon="11.3507715"><ele>112.0</ele><time>2026-04-26T08:35:41.008Z</time></trkpt><trkpt lat="44.4314717" lon="11.3507398"><ele>112.0</ele><time>2026-04-26T08:35:42.004Z</time></trkpt><trkpt lat="44.431406" lon="11.3507083"><ele>112.0</ele><time>2026-04-26T08:35:43.001Z</time></trkpt><trkpt lat="44.4313405" lon="11.350676"><ele>112.0</ele><time>2026-04-26T08:35:44.011Z</time></trkpt><trkpt lat="44.4312744" lon="11.3506454"><ele>111.85714285714286</ele><time>2026-04-26T08:35:45Z</time></trkpt><trkpt lat="44.4312089" lon="11.3506145"><ele>111.71428571428572</ele><time>2026-04-26T08:35:46Z</time></trkpt><trkpt lat="44.4311444" lon="11.3505837"><ele>111.57142857142857</ele><time>2026-04-26T08:35:47.013Z</time></trkpt><trkpt lat="44.4310797" lon="11.350552"><ele>111.42857142857143</ele><time>2026-04-26T08:35:48.002Z</time></trkpt><trkpt lat="44.4310148" lon="11.3505199"><ele>111.28571428571429</ele><time>2026-04-26T08:35:49.006Z</time></trkpt><trkpt lat="44.4309494" lon="11.3504898"><ele>111.14285714285714</ele><time>2026-04-26T08:35:50.005Z</time></trkpt><trkpt lat="44.4308852" lon="11.3504587"><ele>111.0</ele><time>2026-04-26T08:35:50.999Z</time></trkpt><trkpt lat="44.4308215" lon="11.3504285"><ele>111.0</ele><time>2026-04-26T08:35:52.019Z</time></trkpt><trkpt lat="44.430758" lon="11.3503968"><ele>111.0</ele><time>2026-04-26T08:35:53.016Z</time></trkpt><trkpt lat="44.4306936" lon="11.3503669"><ele>111.0</ele><time>2026-04-26T08:35:54.011Z</time></trkpt><trkpt lat="44.43063" lon="11.350337"><ele>111.0</ele><time>2026-04-26T08:35:55.005Z</time></trkpt><trkpt lat="44.4305665" lon="11.350309"><ele>111.0</ele><time>2026-04-26T08:35:56.011Z</time></trkpt><trkpt lat="44.4305036" lon="11.3502791"><ele>111.0</ele><time>2026-04-26T08:35:56.995Z</time></trkpt><trkpt lat="44.430441" lon="11.3502497"><ele>111.0</ele><time>2026-04-26T08:35:58Z</time></trkpt><trkpt lat="44.4303783" lon="11.3502191"><ele>110.71428571428571</ele><time>2026-04-26T08:35:59.008Z</time></trkpt><trkpt lat="44.4303154" lon="11.3501898"><ele>110.42857142857143</ele><time>2026-04-26T08:36:00.002Z</time></trkpt><trkpt lat="44.4302529" lon="11.3501619"><ele>110.14285714285714</ele><time>2026-04-26T08:36:01.022Z</time></trkpt><trkpt lat="44.4301908" lon="11.3501332"><ele>109.85714285714286</ele><time>2026-04-26T08:36:02.008Z</time></trkpt><trkpt lat="44.43013" lon="11.3501008"><ele>109.57142857142858</ele><time>2026-04-26T08:36:03.003Z</time></trkpt><trkpt lat="44.4300693" lon="11.3500711"><ele>109.28571428571429</ele><time>2026-04-26T08:36:04.002Z</time></trkpt><trkpt lat="44.4300077" lon="11.3500423"><ele>109.0</ele><time>2026-04-26T08:36:05.001Z</time></trkpt><trkpt lat="44.4299467" lon="11.3500128"><ele>109.0</ele><time>2026-04-26T08:36:06.007Z</time></trkpt><trkpt lat="44.4298848" lon="11.3499854"><ele>109.0</ele><time>2026-04-26T08:36:07.003Z</time></trkpt><trkpt lat="44.4298231" lon="11.3499577"><ele>109.0</ele><time>2026-04-26T08:36:08.014Z</time></trkpt><trkpt lat="44.4297616" lon="11.3499298"><ele>109.0</ele><time>2026-04-26T08:36:09.001Z</time></trkpt><trkpt lat="44.4296999" lon="11.3499017"><ele>109.0</ele><time>2026-04-26T08:36:10.001Z</time></trkpt><trkpt lat="44.4296385" lon="11.3498745"><ele>109.0</ele><time>2026-04-26T08:36:11.012Z</time></trkpt><trkpt lat="44.4295777" lon="11.3498492"><ele>109.0</ele><time>2026-04-26T08:36:12.006Z</time></trkpt><trkpt lat="44.4295172" lon="11.3498243"><ele>109.0</ele><time>2026-04-26T08:36:13.01Z</time></trkpt><trkpt lat="44.4293969" lon="11.3497742"><ele>109.0</ele><time>2026-04-26T08:36:15.006Z</time></trkpt><trkpt lat="44.4293369" lon="11.3497468"><ele>109.0</ele><time>2026-04-26T08:36:16.005Z</time></trkpt><trkpt lat="44.4292769" lon="11.34972"><ele>109.0</ele><time>2026-04-26T08:36:17.008Z</time></trkpt><trkpt lat="44.4291573" lon="11.34967"><ele>109.0</ele><time>2026-04-26T08:36:19.008Z</time></trkpt><trkpt lat="44.4290392" lon="11.3496179"><ele>109.0</ele><time>2026-04-26T08:36:21.014Z</time></trkpt><trkpt lat="44.428922" lon="11.3495634"><ele>109.0</ele><time>2026-04-26T08:36:23.009Z</time></trkpt><trkpt lat="44.4288045" lon="11.3495107"><ele>109.0</ele><time>2026-04-26T08:36:25.008Z</time></trkpt><trkpt lat="44.4286877" lon="11.3494604"><ele>109.0</ele><time>2026-04-26T08:36:27.006Z</time></trkpt><trkpt lat="44.4285715" lon="11.3494098"><ele>109.0</ele><time>2026-04-26T08:36:29.01Z</time></trkpt><trkpt lat="44.4284563" lon="11.3493582"><ele>109.0</ele><time>2026-04-26T08:36:31.007Z</time></trkpt><trkpt lat="44.4283397" lon="11.3493063"><ele>109.0</ele><time>2026-04-26T08:36:32.998Z</time></trkpt><trkpt lat="44.4282215" lon="11.3492544"><ele>109.0</ele><time>2026-04-26T08:36:34.998Z</time></trkpt><trkpt lat="44.4281036" lon="11.3492041"><ele>109.0</ele><time>2026-04-26T08:36:37.009Z</time></trkpt><trkpt lat="44.4279867" lon="11.3491543"><ele>109.0</ele><time>2026-04-26T08:36:38.996Z</time></trkpt><trkpt lat="44.4278688" lon="11.3491036"><ele>109.0</ele><time>2026-04-26T08:36:41.009Z</time></trkpt><trkpt lat="44.4277522" lon="11.3490501"><ele>109.0</ele><time>2026-04-26T08:36:43.005Z</time></trkpt><trkpt lat="44.4276362" lon="11.3489987"><ele>109.5</ele><time>2026-04-26T08:36:45.015Z</time></trkpt><trkpt lat="44.4275209" lon="11.3489476"><ele>110.0</ele><time>2026-04-26T08:36:47.013Z</time></trkpt><trkpt lat="44.4274079" lon="11.3488919"><ele>110.5</ele><time>2026-04-26T08:36:48.997Z</time></trkpt><trkpt lat="44.427295" lon="11.3488377"><ele>111.0</ele><time>2026-04-26T08:36:51.007Z</time></trkpt><trkpt lat="44.427182" lon="11.3487768"><ele>111.25</ele><time>2026-04-26T08:36:53.003Z</time></trkpt><trkpt lat="44.4270688" lon="11.3487093"><ele>111.5</ele><time>2026-04-26T08:36:55.007Z</time></trkpt><trkpt lat="44.426955" lon="11.3486376"><ele>111.75</ele><time>2026-04-26T08:36:57.01Z</time></trkpt><trkpt lat="44.4268441" lon="11.348555"><ele>112.0</ele><time>2026-04-26T08:36:59.005Z</time></trkpt><trkpt lat="44.4267349" lon="11.3484656"><ele>112.0</ele><time>2026-04-26T08:37:01.007Z</time></trkpt><trkpt lat="44.4266812" lon="11.3484184"><ele>112.0</ele><time>2026-04-26T08:37:02.006Z</time></trkpt><trkpt lat="44.4266282" lon="11.3483694"><ele>112.0</ele><time>2026-04-26T08:37:03.004Z</time></trkpt><trkpt lat="44.4265759" lon="11.3483187"><ele>112.0</ele><time>2026-04-26T08:37:04.002Z</time></trkpt><trkpt lat="44.4265252" lon="11.3482655"><ele>112.0</ele><time>2026-04-26T08:37:05Z</time></trkpt><trkpt lat="44.4264745" lon="11.3482108"><ele>112.0</ele><time>2026-04-26T08:37:06.012Z</time></trkpt><trkpt lat="44.4264247" lon="11.3481542"><ele>112.0</ele><time>2026-04-26T08:37:07.006Z</time></trkpt><trkpt lat="44.4263757" lon="11.3480969"><ele>112.0</ele><time>2026-04-26T08:37:08.005Z</time></trkpt><trkpt lat="44.4263279" lon="11.3480374"><ele>112.14285714285714</ele><time>2026-04-26T08:37:09.01Z</time></trkpt><trkpt lat="44.4262806" lon="11.347978"><ele>112.28571428571428</ele><time>2026-04-26T08:37:10.004Z</time></trkpt><trkpt lat="44.4262356" lon="11.3479125"><ele>112.42857142857143</ele><time>2026-04-26T08:37:11.01Z</time></trkpt><trkpt lat="44.4261881" lon="11.3478473"><ele>112.57142857142857</ele><time>2026-04-26T08:37:12.011Z</time></trkpt><trkpt lat="44.4261411" lon="11.3477824"><ele>112.71428571428571</ele><time>2026-04-26T08:37:13.012Z</time></trkpt><trkpt lat="44.4260959" lon="11.3477187"><ele>112.85714285714286</ele><time>2026-04-26T08:37:14.007Z</time></trkpt><trkpt lat="44.4260502" lon="11.3476537"><ele>113.0</ele><time>2026-04-26T08:37:15.015Z</time></trkpt><trkpt lat="44.4260057" lon="11.3475912"><ele>113.0</ele><time>2026-04-26T08:37:16.012Z</time></trkpt><trkpt lat="44.425961" lon="11.3475278"><ele>113.0</ele><time>2026-04-26T08:37:17.013Z</time></trkpt><trkpt lat="44.4259157" lon="11.3474635"><ele>113.0</ele><time>2026-04-26T08:37:18Z</time></trkpt><trkpt lat="44.4258713" lon="11.3473999"><ele>113.0</ele><time>2026-04-26T08:37:19.001Z</time></trkpt><trkpt lat="44.4258254" lon="11.3473368"><ele>113.0</ele><time>2026-04-26T08:37:20.003Z</time></trkpt><trkpt lat="44.4257799" lon="11.3472706"><ele>113.0</ele><time>2026-04-26T08:37:21Z</time></trkpt><trkpt lat="44.4257347" lon="11.3472056"><ele>113.0</ele><time>2026-04-26T08:37:22.004Z</time></trkpt><trkpt lat="44.4256889" lon="11.3471407"><ele>113.0</ele><time>2026-04-26T08:37:23.009Z</time></trkpt><trkpt lat="44.4256427" lon="11.347076"><ele>113.0</ele><time>2026-04-26T08:37:24.002Z</time></trkpt><trkpt lat="44.4255966" lon="11.3470126"><ele>113.0</ele><time>2026-04-26T08:37:25.001Z</time></trkpt><trkpt lat="44.4255498" lon="11.3469525"><ele>113.0</ele><time>2026-04-26T08:37:26.002Z</time></trkpt><trkpt lat="44.4255014" lon="11.3468934"><ele>113.0</ele><time>2026-04-26T08:37:27.012Z</time></trkpt><trkpt lat="44.425453" lon="11.3468361"><ele>113.0</ele><time>2026-04-26T08:37:28.007Z</time></trkpt><trkpt lat="44.425405" lon="11.3467789"><ele>113.0</ele><time>2026-04-26T08:37:29.01Z</time></trkpt><trkpt lat="44.425356" lon="11.3467211"><ele>113.0</ele><time>2026-04-26T08:37:30.008Z</time></trkpt><trkpt lat="44.4253068" lon="11.3466642"><ele>112.99999999999999</ele><time>2026-04-26T08:37:31.008Z</time></trkpt><trkpt lat="44.4252576" lon="11.3466085"><ele>113.0</ele><time>2026-04-26T08:37:31.998Z</time></trkpt><trkpt lat="44.4252077" lon="11.3465533"><ele>113.0</ele><time>2026-04-26T08:37:33.012Z</time></trkpt><trkpt lat="44.425108" lon="11.3464469"><ele>113.0</ele><time>2026-04-26T08:37:35.001Z</time></trkpt><trkpt lat="44.4250067" lon="11.3463433"><ele>112.99999999999999</ele><time>2026-04-26T08:37:37.013Z</time></trkpt><trkpt lat="44.424955" lon="11.346293"><ele>113.0</ele><time>2026-04-26T08:37:38.01Z</time></trkpt><trkpt lat="44.4249023" lon="11.3462431"><ele>113.14285714285714</ele><time>2026-04-26T08:37:39.003Z</time></trkpt><trkpt lat="44.4248499" lon="11.3461924"><ele>113.28571428571428</ele><time>2026-04-26T08:37:40.002Z</time></trkpt><trkpt lat="44.4247959" lon="11.3461425"><ele>113.42857142857142</ele><time>2026-04-26T08:37:41.011Z</time></trkpt><trkpt lat="44.4247415" lon="11.3460936"><ele>113.57142857142857</ele><time>2026-04-26T08:37:42.008Z</time></trkpt><trkpt lat="44.4246862" lon="11.3460464"><ele>113.7142857142857</ele><time>2026-04-26T08:37:43.01Z</time></trkpt><trkpt lat="44.4246291" lon="11.3460027"><ele>113.85714285714285</ele><time>2026-04-26T08:37:44.005Z</time></trkpt><trkpt lat="44.4245724" lon="11.345959"><ele>114.0</ele><time>2026-04-26T08:37:45.003Z</time></trkpt><trkpt lat="44.4245164" lon="11.3459161"><ele>114.0</ele><time>2026-04-26T08:37:46.002Z</time></trkpt><trkpt lat="44.42446" lon="11.345874"><ele>114.0</ele><time>2026-04-26T08:37:47.012Z</time></trkpt><trkpt lat="44.4244027" lon="11.3458339"><ele>114.0</ele><time>2026-04-26T08:37:48.008Z</time></trkpt><trkpt lat="44.4243455" lon="11.3457943"><ele>114.0</ele><time>2026-04-26T08:37:49.015Z</time></trkpt><trkpt lat="44.4242885" lon="11.3457538"><ele>114.0</ele><time>2026-04-26T08:37:50.014Z</time></trkpt><trkpt lat="44.4242311" lon="11.3457124"><ele>114.0</ele><time>2026-04-26T08:37:51.007Z</time></trkpt><trkpt lat="44.4241732" lon="11.3456728"><ele>114.0</ele><time>2026-04-26T08:37:52.001Z</time></trkpt><trkpt lat="44.4241153" lon="11.3456332"><ele>114.0</ele><time>2026-04-26T08:37:53.015Z</time></trkpt><trkpt lat="44.4240565" lon="11.3455967"><ele>114.0</ele><time>2026-04-26T08:37:54.016Z</time></trkpt><trkpt lat="44.4239987" lon="11.3455614"><ele>114.0</ele><time>2026-04-26T08:37:55.004Z</time></trkpt><trkpt lat="44.4239397" lon="11.3455281"><ele>114.0</ele><time>2026-04-26T08:37:56.004Z</time></trkpt><trkpt lat="44.4238809" lon="11.3454958"><ele>114.0</ele><time>2026-04-26T08:37:57.013Z</time></trkpt><trkpt lat="44.4237638" lon="11.3454342"><ele>114.0</ele><time>2026-04-26T08:37:59.007Z</time></trkpt><trkpt lat="44.4236462" lon="11.3453772"><ele>114.0</ele><time>2026-04-26T08:38:01.016Z</time></trkpt><trkpt lat="44.4235279" lon="11.3453227"><ele>115.6</ele><time>2026-04-26T08:38:03.007Z</time></trkpt><trkpt lat="44.4234067" lon="11.3452713"><ele>117.2</ele><time>2026-04-26T08:38:05.008Z</time></trkpt><trkpt lat="44.4233459" lon="11.3452472"><ele>118.79999999999998</ele><time>2026-04-26T08:38:06.014Z</time></trkpt><trkpt lat="44.4232246" lon="11.3451995"><ele>120.39999999999999</ele><time>2026-04-26T08:38:08.01Z</time></trkpt><trkpt lat="44.4231633" lon="11.3451792"><ele>122.0</ele><time>2026-04-26T08:38:09.006Z</time></trkpt><trkpt lat="44.4230405" lon="11.3451455"><ele>120.99999999999999</ele><time>2026-04-26T08:38:11.014Z</time></trkpt><trkpt lat="44.4229177" lon="11.3451124"><ele>120.0</ele><time>2026-04-26T08:38:13.009Z</time></trkpt><trkpt lat="44.4228557" lon="11.3450968"><ele>119.0</ele><time>2026-04-26T08:38:14.004Z</time></trkpt><trkpt lat="44.4227936" lon="11.345082"><ele>118.0</ele><time>2026-04-26T08:38:14.999Z</time></trkpt><trkpt lat="44.4226702" lon="11.3450547"><ele>116.99999999999999</ele><time>2026-04-26T08:38:16.996Z</time></trkpt><trkpt lat="44.4226074" lon="11.3450407"><ele>116.0</ele><time>2026-04-26T08:38:18.005Z</time></trkpt><trkpt lat="44.4224825" lon="11.3450184"><ele>116.00000000000001</ele><time>2026-04-26T08:38:20.013Z</time></trkpt><trkpt lat="44.4224193" lon="11.3450112"><ele>116.0</ele><time>2026-04-26T08:38:20.999Z</time></trkpt><trkpt lat="44.4223554" lon="11.3450035"><ele>116.00000000000001</ele><time>2026-04-26T08:38:22.011Z</time></trkpt><trkpt lat="44.4222906" lon="11.3449977"><ele>116.00000000000001</ele><time>2026-04-26T08:38:23.006Z</time></trkpt><trkpt lat="44.4222267" lon="11.3449941"><ele>116.0</ele><time>2026-04-26T08:38:24.005Z</time></trkpt><trkpt lat="44.4221626" lon="11.3449922"><ele>116.00000000000001</ele><time>2026-04-26T08:38:25.007Z</time></trkpt><trkpt lat="44.4220982" lon="11.3449881"><ele>116.00000000000001</ele><time>2026-04-26T08:38:26.015Z</time></trkpt><trkpt lat="44.4220332" lon="11.3449844"><ele>116.2857142857143</ele><time>2026-04-26T08:38:27.009Z</time></trkpt><trkpt lat="44.4219686" lon="11.3449813"><ele>116.57142857142858</ele><time>2026-04-26T08:38:28.001Z</time></trkpt><trkpt lat="44.4219042" lon="11.3449797"><ele>116.85714285714286</ele><time>2026-04-26T08:38:29.005Z</time></trkpt><trkpt lat="44.4218395" lon="11.3449809"><ele>117.14285714285715</ele><time>2026-04-26T08:38:30.008Z</time></trkpt><trkpt lat="44.4217752" lon="11.3449832"><ele>117.42857142857144</ele><time>2026-04-26T08:38:31.006Z</time></trkpt><trkpt lat="44.4217116" lon="11.3449866"><ele>117.71428571428571</ele><time>2026-04-26T08:38:31.998Z</time></trkpt><trkpt lat="44.4216483" lon="11.3449897"><ele>118.0</ele><time>2026-04-26T08:38:33.003Z</time></trkpt><trkpt lat="44.4215235" lon="11.345001"><ele>118.0</ele><time>2026-04-26T08:38:35.003Z</time></trkpt><trkpt lat="44.4214608" lon="11.3450102"><ele>118.00000000000001</ele><time>2026-04-26T08:38:36.008Z</time></trkpt><trkpt lat="44.4213371" lon="11.3450239"><ele>118.00000000000001</ele><time>2026-04-26T08:38:38.013Z</time></trkpt><trkpt lat="44.4212135" lon="11.3450356"><ele>118.0</ele><time>2026-04-26T08:38:40.009Z</time></trkpt><trkpt lat="44.4210899" lon="11.3450514"><ele>118.0</ele><time>2026-04-26T08:38:41.994Z</time></trkpt><trkpt lat="44.4209654" lon="11.3450698"><ele>117.25</ele><time>2026-04-26T08:38:44.01Z</time></trkpt><trkpt lat="44.4208415" lon="11.3450866"><ele>116.5</ele><time>2026-04-26T08:38:46.014Z</time></trkpt><trkpt lat="44.4207172" lon="11.3451056"><ele>115.75</ele><time>2026-04-26T08:38:48.005Z</time></trkpt><trkpt lat="44.420593" lon="11.3451204"><ele>115.0</ele><time>2026-04-26T08:38:50.023Z</time></trkpt><trkpt lat="44.4204693" lon="11.3451361"><ele>117.25</ele><time>2026-04-26T08:38:52.017Z</time></trkpt><trkpt lat="44.4203457" lon="11.3451518"><ele>119.5</ele><time>2026-04-26T08:38:54.006Z</time></trkpt><trkpt lat="44.4202207" lon="11.3451646"><ele>121.75</ele><time>2026-04-26T08:38:56.008Z</time></trkpt><trkpt lat="44.4200963" lon="11.3451808"><ele>124.0</ele><time>2026-04-26T08:38:58.014Z</time></trkpt><trkpt lat="44.4199708" lon="11.3451923"><ele>124.0</ele><time>2026-04-26T08:39:00.011Z</time></trkpt><trkpt lat="44.4199078" lon="11.3452005"><ele>124.0</ele><time>2026-04-26T08:39:01Z</time></trkpt><trkpt lat="44.4197844" lon="11.3452208"><ele>124.0</ele><time>2026-04-26T08:39:02.999Z</time></trkpt><trkpt lat="44.4196661" lon="11.3452389"><ele>124.0</ele><time>2026-04-26T08:39:05.004Z</time></trkpt><trkpt lat="44.4195477" lon="11.3452521"><ele>124.0</ele><time>2026-04-26T08:39:07.006Z</time></trkpt><trkpt lat="44.419427" lon="11.3452673"><ele>124.42857142857143</ele><time>2026-04-26T08:39:09.01Z</time></trkpt><trkpt lat="44.4193634" lon="11.3452715"><ele>124.85714285714286</ele><time>2026-04-26T08:39:10.011Z</time></trkpt><trkpt lat="44.4192997" lon="11.3452786"><ele>125.28571428571429</ele><time>2026-04-26T08:39:11.017Z</time></trkpt><trkpt lat="44.4192359" lon="11.3452868"><ele>125.71428571428572</ele><time>2026-04-26T08:39:12.018Z</time></trkpt><trkpt lat="44.4191719" lon="11.3452949"><ele>126.14285714285714</ele><time>2026-04-26T08:39:13.004Z</time></trkpt><trkpt lat="44.4191081" lon="11.345307"><ele>126.57142857142858</ele><time>2026-04-26T08:39:14.009Z</time></trkpt><trkpt lat="44.4190431" lon="11.3453157"><ele>127.0</ele><time>2026-04-26T08:39:15.007Z</time></trkpt><trkpt lat="44.4189783" lon="11.3453198"><ele>127.0</ele><time>2026-04-26T08:39:16.013Z</time></trkpt><trkpt lat="44.4189132" lon="11.3453275"><ele>127.0</ele><time>2026-04-26T08:39:17.003Z</time></trkpt><trkpt lat="44.4188486" lon="11.3453337"><ele>127.0</ele><time>2026-04-26T08:39:18.003Z</time></trkpt><trkpt lat="44.4187836" lon="11.3453383"><ele>127.0</ele><time>2026-04-26T08:39:19.009Z</time></trkpt><trkpt lat="44.4187182" lon="11.345346"><ele>127.0</ele><time>2026-04-26T08:39:19.997Z</time></trkpt><trkpt lat="44.4186528" lon="11.3453543"><ele>127.0</ele><time>2026-04-26T08:39:21.005Z</time></trkpt><trkpt lat="44.4185866" lon="11.3453617"><ele>127.0</ele><time>2026-04-26T08:39:22.005Z</time></trkpt><trkpt lat="44.4185206" lon="11.3453717"><ele>126.28571428571429</ele><time>2026-04-26T08:39:23.009Z</time></trkpt><trkpt lat="44.4184541" lon="11.3453812"><ele>125.57142857142856</ele><time>2026-04-26T08:39:24.009Z</time></trkpt><trkpt lat="44.4183881" lon="11.3453902"><ele>124.85714285714285</ele><time>2026-04-26T08:39:25.009Z</time></trkpt><trkpt lat="44.4183218" lon="11.3453978"><ele>124.14285714285714</ele><time>2026-04-26T08:39:26.014Z</time></trkpt><trkpt lat="44.4182556" lon="11.3454052"><ele>123.42857142857142</ele><time>2026-04-26T08:39:27.006Z</time></trkpt><trkpt lat="44.4181891" lon="11.3454129"><ele>122.7142857142857</ele><time>2026-04-26T08:39:28.011Z</time></trkpt><trkpt lat="44.4181228" lon="11.3454221"><ele>121.99999999999999</ele><time>2026-04-26T08:39:29.006Z</time></trkpt><trkpt lat="44.418057" lon="11.3454297"><ele>121.99999999999999</ele><time>2026-04-26T08:39:30.006Z</time></trkpt><trkpt lat="44.4179911" lon="11.3454371"><ele>122.0</ele><time>2026-04-26T08:39:31.013Z</time></trkpt><trkpt lat="44.4179253" lon="11.345444"><ele>121.99999999999999</ele><time>2026-04-26T08:39:32.014Z</time></trkpt><trkpt lat="44.4178588" lon="11.3454519"><ele>121.99999999999999</ele><time>2026-04-26T08:39:33.003Z</time></trkpt><trkpt lat="44.4177928" lon="11.3454581"><ele>122.0</ele><time>2026-04-26T08:39:34.004Z</time></trkpt><trkpt lat="44.4177267" lon="11.3454614"><ele>121.99999999999999</ele><time>2026-04-26T08:39:35.001Z</time></trkpt><trkpt lat="44.4176611" lon="11.3454627"><ele>121.99999999999999</ele><time>2026-04-26T08:39:36.007Z</time></trkpt><trkpt lat="44.4175951" lon="11.3454651"><ele>121.99999999999999</ele><time>2026-04-26T08:39:37.01Z</time></trkpt><trkpt lat="44.4175293" lon="11.3454687"><ele>122.0</ele><time>2026-04-26T08:39:38.003Z</time></trkpt><trkpt lat="44.4174637" lon="11.3454716"><ele>121.99999999999999</ele><time>2026-04-26T08:39:39.009Z</time></trkpt><trkpt lat="44.417398" lon="11.3454725"><ele>121.99999999999999</ele><time>2026-04-26T08:39:40.016Z</time></trkpt><trkpt lat="44.4173324" lon="11.3454748"><ele>122.0</ele><time>2026-04-26T08:39:41.002Z</time></trkpt><trkpt lat="44.4172666" lon="11.3454789"><ele>121.99999999999999</ele><time>2026-04-26T08:39:42.005Z</time></trkpt><trkpt lat="44.4172011" lon="11.3454817"><ele>121.99999999999999</ele><time>2026-04-26T08:39:43Z</time></trkpt><trkpt lat="44.4171352" lon="11.3454859"><ele>121.99999999999999</ele><time>2026-04-26T08:39:44.003Z</time></trkpt><trkpt lat="44.4170694" lon="11.3454915"><ele>122.0</ele><time>2026-04-26T08:39:45.005Z</time></trkpt><trkpt lat="44.4170031" lon="11.3454977"><ele>121.99999999999999</ele><time>2026-04-26T08:39:46.004Z</time></trkpt><trkpt lat="44.416937" lon="11.345503"><ele>121.99999999999999</ele><time>2026-04-26T08:39:47.009Z</time></trkpt><trkpt lat="44.4168717" lon="11.3455071"><ele>122.0</ele><time>2026-04-26T08:39:48.003Z</time></trkpt><trkpt lat="44.4168066" lon="11.3455131"><ele>121.99999999999999</ele><time>2026-04-26T08:39:48.997Z</time></trkpt><trkpt lat="44.4167411" lon="11.3455187"><ele>121.99999999999999</ele><time>2026-04-26T08:39:50.005Z</time></trkpt><trkpt lat="44.4166752" lon="11.3455237"><ele>121.99999999999999</ele><time>2026-04-26T08:39:51.006Z</time></trkpt><trkpt lat="44.4166099" lon="11.345528"><ele>122.0</ele><time>2026-04-26T08:39:51.996Z</time></trkpt><trkpt lat="44.4165441" lon="11.3455324"><ele>121.99999999999999</ele><time>2026-04-26T08:39:53Z</time></trkpt><trkpt lat="44.4164785" lon="11.3455366"><ele>121.99999999999999</ele><time>2026-04-26T08:39:54.004Z</time></trkpt><trkpt lat="44.4164129" lon="11.3455423"><ele>122.0</ele><time>2026-04-26T08:39:55.002Z</time></trkpt><trkpt lat="44.4163476" lon="11.3455482"><ele>121.99999999999999</ele><time>2026-04-26T08:39:56.013Z</time></trkpt><trkpt lat="44.4162828" lon="11.3455525"><ele>121.99999999999999</ele><time>2026-04-26T08:39:57.013Z</time></trkpt><trkpt lat="44.416218" lon="11.3455576"><ele>121.99999999999999</ele><time>2026-04-26T08:39:58.007Z</time></trkpt><trkpt lat="44.4161538" lon="11.3455634"><ele>122.0</ele><time>2026-04-26T08:39:59.01Z</time></trkpt><trkpt lat="44.4160892" lon="11.3455714"><ele>121.99999999999999</ele><time>2026-04-26T08:40:00.003Z</time></trkpt><trkpt lat="44.4160241" lon="11.3455787"><ele>121.99999999999999</ele><time>2026-04-26T08:40:01.002Z</time></trkpt><trkpt lat="44.4159592" lon="11.3455863"><ele>122.0</ele><time>2026-04-26T08:40:02.017Z</time></trkpt><trkpt lat="44.4158942" lon="11.3455939"><ele>121.99999999999999</ele><time>2026-04-26T08:40:03.006Z</time></trkpt><trkpt lat="44.4158293" lon="11.345603"><ele>121.99999999999999</ele><time>2026-04-26T08:40:04.006Z</time></trkpt><trkpt lat="44.4157645" lon="11.3456114"><ele>121.99999999999999</ele><time>2026-04-26T08:40:04.996Z</time></trkpt><trkpt lat="44.4157002" lon="11.3456188"><ele>122.0</ele><time>2026-04-26T08:40:06.013Z</time></trkpt><trkpt lat="44.4156362" lon="11.3456256"><ele>121.99999999999999</ele><time>2026-04-26T08:40:07.005Z</time></trkpt><trkpt lat="44.4155723" lon="11.3456317"><ele>121.99999999999999</ele><time>2026-04-26T08:40:08.005Z</time></trkpt><trkpt lat="44.4154468" lon="11.3456493"><ele>122.0</ele><time>2026-04-26T08:40:10.002Z</time></trkpt><trkpt lat="44.4153824" lon="11.3456585"><ele>121.99999999999999</ele><time>2026-04-26T08:40:11.007Z</time></trkpt><trkpt lat="44.4153173" lon="11.345668"><ele>121.99999999999999</ele><time>2026-04-26T08:40:12.008Z</time></trkpt><trkpt lat="44.4152528" lon="11.345675"><ele>122.42857142857142</ele><time>2026-04-26T08:40:13.016Z</time></trkpt><trkpt lat="44.4151891" lon="11.3456842"><ele>122.85714285714286</ele><time>2026-04-26T08:40:14.005Z</time></trkpt><trkpt lat="44.4150622" lon="11.3457031"><ele>123.28571428571428</ele><time>2026-04-26T08:40:16.004Z</time></trkpt><trkpt lat="44.4149988" lon="11.3457085"><ele>123.71428571428571</ele><time>2026-04-26T08:40:16.993Z</time></trkpt><trkpt lat="44.4149347" lon="11.3457153"><ele>124.14285714285714</ele><time>2026-04-26T08:40:18.005Z</time></trkpt><trkpt lat="44.4148706" lon="11.3457219"><ele>124.57142857142857</ele><time>2026-04-26T08:40:19.005Z</time></trkpt><trkpt lat="44.4148072" lon="11.3457299"><ele>125.0</ele><time>2026-04-26T08:40:20.011Z</time></trkpt><trkpt lat="44.414743" lon="11.3457398"><ele>125.0</ele><time>2026-04-26T08:40:21.007Z</time></trkpt><trkpt lat="44.4146792" lon="11.3457493"><ele>125.0</ele><time>2026-04-26T08:40:22Z</time></trkpt><trkpt lat="44.4146136" lon="11.3457582"><ele>125.0</ele><time>2026-04-26T08:40:23.011Z</time></trkpt><trkpt lat="44.414549" lon="11.3457672"><ele>125.0</ele><time>2026-04-26T08:40:24.006Z</time></trkpt><trkpt lat="44.4144844" lon="11.3457759"><ele>125.0</ele><time>2026-04-26T08:40:25.009Z</time></trkpt><trkpt lat="44.41442" lon="11.3457836"><ele>125.0</ele><time>2026-04-26T08:40:26Z</time></trkpt><trkpt lat="44.4143559" lon="11.3457914"><ele>125.0</ele><time>2026-04-26T08:40:26.996Z</time></trkpt><trkpt lat="44.4142916" lon="11.3457971"><ele>125.28571428571428</ele><time>2026-04-26T08:40:28.007Z</time></trkpt><trkpt lat="44.414227" lon="11.345804"><ele>125.57142857142858</ele><time>2026-04-26T08:40:29.006Z</time></trkpt><trkpt lat="44.4141619" lon="11.3458108"><ele>125.85714285714286</ele><time>2026-04-26T08:40:30.008Z</time></trkpt><trkpt lat="44.4140969" lon="11.3458177"><ele>126.14285714285714</ele><time>2026-04-26T08:40:31.007Z</time></trkpt><trkpt lat="44.4140313" lon="11.3458234"><ele>126.42857142857142</ele><time>2026-04-26T08:40:32.008Z</time></trkpt><trkpt lat="44.4139649" lon="11.3458279"><ele>126.71428571428572</ele><time>2026-04-26T08:40:32.997Z</time></trkpt><trkpt lat="44.4138986" lon="11.3458307"><ele>127.0</ele><time>2026-04-26T08:40:34.007Z</time></trkpt><trkpt lat="44.4138314" lon="11.3458323"><ele>127.14285714285714</ele><time>2026-04-26T08:40:35.005Z</time></trkpt><trkpt lat="44.4137645" lon="11.3458323"><ele>127.28571428571428</ele><time>2026-04-26T08:40:35.997Z</time></trkpt><trkpt lat="44.4136972" lon="11.3458309"><ele>127.42857142857142</ele><time>2026-04-26T08:40:37.013Z</time></trkpt><trkpt lat="44.4136298" lon="11.3458294"><ele>127.57142857142857</ele><time>2026-04-26T08:40:38.01Z</time></trkpt><trkpt lat="44.4135619" lon="11.3458257"><ele>127.7142857142857</ele><time>2026-04-26T08:40:39.005Z</time></trkpt><trkpt lat="44.4134942" lon="11.34582"><ele>127.85714285714285</ele><time>2026-04-26T08:40:40.01Z</time></trkpt><trkpt lat="44.4134264" lon="11.3458136"><ele>128.0</ele><time>2026-04-26T08:40:41.015Z</time></trkpt><trkpt lat="44.4133586" lon="11.3458061"><ele>128.0</ele><time>2026-04-26T08:40:42.005Z</time></trkpt><trkpt lat="44.4132906" lon="11.3457975"><ele>127.99999999999999</ele><time>2026-04-26T08:40:43.005Z</time></trkpt><trkpt lat="44.4132228" lon="11.3457857"><ele>128.0</ele><time>2026-04-26T08:40:44.01Z</time></trkpt><trkpt lat="44.4131549" lon="11.3457729"><ele>128.0</ele><time>2026-04-26T08:40:45Z</time></trkpt><trkpt lat="44.4130875" lon="11.3457578"><ele>127.99999999999999</ele><time>2026-04-26T08:40:46.005Z</time></trkpt><trkpt lat="44.4130203" lon="11.3457418"><ele>128.0</ele><time>2026-04-26T08:40:47.007Z</time></trkpt><trkpt lat="44.4129532" lon="11.3457242"><ele>128.0</ele><time>2026-04-26T08:40:48.012Z</time></trkpt><trkpt lat="44.4128862" lon="11.3457045"><ele>128.0</ele><time>2026-04-26T08:40:49.009Z</time></trkpt><trkpt lat="44.4128194" lon="11.3456836"><ele>127.99999999999999</ele><time>2026-04-26T08:40:50.002Z</time></trkpt><trkpt lat="44.4127527" lon="11.3456623"><ele>128.0</ele><time>2026-04-26T08:40:51.008Z</time></trkpt><trkpt lat="44.412687" lon="11.3456389"><ele>128.0</ele><time>2026-04-26T08:40:52.005Z</time></trkpt><trkpt lat="44.412622" lon="11.3456143"><ele>127.99999999999999</ele><time>2026-04-26T08:40:53.008Z</time></trkpt><trkpt lat="44.4125571" lon="11.3455901"><ele>128.0</ele><time>2026-04-26T08:40:53.999Z</time></trkpt><trkpt lat="44.4124922" lon="11.3455648"><ele>128.0</ele><time>2026-04-26T08:40:55.004Z</time></trkpt><trkpt lat="44.4124285" lon="11.3455366"><ele>128.0</ele><time>2026-04-26T08:40:56.017Z</time></trkpt><trkpt lat="44.4123648" lon="11.3455054"><ele>127.99999999999999</ele><time>2026-04-26T08:40:57.009Z</time></trkpt><trkpt lat="44.4123013" lon="11.3454736"><ele>128.0</ele><time>2026-04-26T08:40:58.005Z</time></trkpt><trkpt lat="44.4122379" lon="11.3454417"><ele>128.0</ele><time>2026-04-26T08:40:59.008Z</time></trkpt><trkpt lat="44.4121752" lon="11.3454089"><ele>127.99999999999999</ele><time>2026-04-26T08:41:00.005Z</time></trkpt><trkpt lat="44.4121124" lon="11.3453733"><ele>128.0</ele><time>2026-04-26T08:41:01.017Z</time></trkpt><trkpt lat="44.4120505" lon="11.3453368"><ele>128.0</ele><time>2026-04-26T08:41:02.005Z</time></trkpt><trkpt lat="44.4119888" lon="11.3452991"><ele>127.71428571428571</ele><time>2026-04-26T08:41:03.007Z</time></trkpt><trkpt lat="44.4119281" lon="11.3452608"><ele>127.42857142857142</ele><time>2026-04-26T08:41:04.002Z</time></trkpt><trkpt lat="44.4118679" lon="11.3452219"><ele>127.14285714285714</ele><time>2026-04-26T08:41:05.01Z</time></trkpt><trkpt lat="44.4118082" lon="11.3451817"><ele>126.85714285714286</ele><time>2026-04-26T08:41:06.013Z</time></trkpt><trkpt lat="44.4117487" lon="11.3451407"><ele>126.57142857142857</ele><time>2026-04-26T08:41:06.994Z</time></trkpt><trkpt lat="44.4116902" lon="11.3450998"><ele>126.28571428571428</ele><time>2026-04-26T08:41:08.004Z</time></trkpt><trkpt lat="44.4116312" lon="11.3450583"><ele>126.0</ele><time>2026-04-26T08:41:09.008Z</time></trkpt><trkpt lat="44.4115727" lon="11.3450158"><ele>126.0</ele><time>2026-04-26T08:41:10.004Z</time></trkpt><trkpt lat="44.411514" lon="11.3449735"><ele>126.0</ele><time>2026-04-26T08:41:11.004Z</time></trkpt><trkpt lat="44.411455" lon="11.3449326"><ele>126.0</ele><time>2026-04-26T08:41:12.013Z</time></trkpt><trkpt lat="44.4113966" lon="11.3448913"><ele>126.0</ele><time>2026-04-26T08:41:13.013Z</time></trkpt><trkpt lat="44.4113386" lon="11.3448485"><ele>126.0</ele><time>2026-04-26T08:41:14.002Z</time></trkpt><trkpt lat="44.4112803" lon="11.3448063"><ele>126.0</ele><time>2026-04-26T08:41:15.012Z</time></trkpt><trkpt lat="44.4112216" lon="11.3447646"><ele>126.0</ele><time>2026-04-26T08:41:16.017Z</time></trkpt><trkpt lat="44.4111635" lon="11.3447222"><ele>126.57142857142857</ele><time>2026-04-26T08:41:17.007Z</time></trkpt><trkpt lat="44.4111053" lon="11.3446802"><ele>127.14285714285714</ele><time>2026-04-26T08:41:18.007Z</time></trkpt><trkpt lat="44.4110472" lon="11.3446383"><ele>127.71428571428572</ele><time>2026-04-26T08:41:19.01Z</time></trkpt><trkpt lat="44.410989" lon="11.3445959"><ele>128.28571428571428</ele><time>2026-04-26T08:41:20.01Z</time></trkpt><trkpt lat="44.4109299" lon="11.3445539"><ele>128.85714285714286</ele><time>2026-04-26T08:41:21.008Z</time></trkpt><trkpt lat="44.4108708" lon="11.3445121"><ele>129.42857142857144</ele><time>2026-04-26T08:41:21.996Z</time></trkpt><trkpt lat="44.4108116" lon="11.3444699"><ele>130.0</ele><time>2026-04-26T08:41:23.004Z</time></trkpt><trkpt lat="44.4107524" lon="11.344427"><ele>130.00000000000003</ele><time>2026-04-26T08:41:24.002Z</time></trkpt><trkpt lat="44.4106928" lon="11.3443851"><ele>130.0</ele><time>2026-04-26T08:41:25.009Z</time></trkpt><trkpt lat="44.410633" lon="11.3443426"><ele>130.0</ele><time>2026-04-26T08:41:26.011Z</time></trkpt><trkpt lat="44.4105735" lon="11.3443003"><ele>130.0</ele><time>2026-04-26T08:41:27.005Z</time></trkpt><trkpt lat="44.4105143" lon="11.3442583"><ele>130.0</ele><time>2026-04-26T08:41:28Z</time></trkpt><trkpt lat="44.410455" lon="11.3442163"><ele>130.00000000000003</ele><time>2026-04-26T08:41:29.018Z</time></trkpt><trkpt lat="44.410396" lon="11.3441728"><ele>130.0</ele><time>2026-04-26T08:41:30.011Z</time></trkpt><trkpt lat="44.4103371" lon="11.3441287"><ele>129.85714285714286</ele><time>2026-04-26T08:41:31.004Z</time></trkpt><trkpt lat="44.4102781" lon="11.3440845"><ele>129.71428571428572</ele><time>2026-04-26T08:41:32.001Z</time></trkpt><trkpt lat="44.4102184" lon="11.344042"><ele>129.57142857142856</ele><time>2026-04-26T08:41:33.007Z</time></trkpt><trkpt lat="44.4101592" lon="11.3440002"><ele>129.42857142857144</ele><time>2026-04-26T08:41:34.004Z</time></trkpt><trkpt lat="44.4101009" lon="11.3439585"><ele>129.28571428571428</ele><time>2026-04-26T08:41:35Z</time></trkpt><trkpt lat="44.4100433" lon="11.3439169"><ele>129.14285714285714</ele><time>2026-04-26T08:41:36.004Z</time></trkpt><trkpt lat="44.409986" lon="11.3438753"><ele>129.0</ele><time>2026-04-26T08:41:37.01Z</time></trkpt><trkpt lat="44.4099278" lon="11.343834"><ele>128.85714285714283</ele><time>2026-04-26T08:41:38.011Z</time></trkpt><trkpt lat="44.4098706" lon="11.3437923"><ele>128.71428571428572</ele><time>2026-04-26T08:41:39.005Z</time></trkpt><trkpt lat="44.4098128" lon="11.3437504"><ele>128.57142857142856</ele><time>2026-04-26T08:41:40.015Z</time></trkpt><trkpt lat="44.4097548" lon="11.3437086"><ele>128.42857142857142</ele><time>2026-04-26T08:41:41.005Z</time></trkpt><trkpt lat="44.4096957" lon="11.3436685"><ele>128.28571428571428</ele><time>2026-04-26T08:41:42.005Z</time></trkpt><trkpt lat="44.4096368" lon="11.3436279"><ele>128.14285714285714</ele><time>2026-04-26T08:41:43.014Z</time></trkpt><trkpt lat="44.4095779" lon="11.343586"><ele>128.0</ele><time>2026-04-26T08:41:44.004Z</time></trkpt><trkpt lat="44.4095191" lon="11.3435441"><ele>128.0</ele><time>2026-04-26T08:41:45.008Z</time></trkpt><trkpt lat="44.4094604" lon="11.343502"><ele>127.99999999999999</ele><time>2026-04-26T08:41:46.012Z</time></trkpt><trkpt lat="44.4094014" lon="11.3434598"><ele>128.0</ele><time>2026-04-26T08:41:47.002Z</time></trkpt><trkpt lat="44.4093428" lon="11.343418"><ele>128.0</ele><time>2026-04-26T08:41:48.008Z</time></trkpt><trkpt lat="44.4092841" lon="11.3433763"><ele>127.99999999999999</ele><time>2026-04-26T08:41:49.011Z</time></trkpt><trkpt lat="44.4092255" lon="11.3433353"><ele>128.0</ele><time>2026-04-26T08:41:50.001Z</time></trkpt><trkpt lat="44.4091669" lon="11.3432946"><ele>128.0</ele><time>2026-04-26T08:41:50.998Z</time></trkpt><trkpt lat="44.4091083" lon="11.3432535"><ele>128.0</ele><time>2026-04-26T08:41:51.997Z</time></trkpt><trkpt lat="44.4090502" lon="11.3432111"><ele>127.99999999999999</ele><time>2026-04-26T08:41:53.009Z</time></trkpt><trkpt lat="44.4089914" lon="11.3431686"><ele>128.0</ele><time>2026-04-26T08:41:53.998Z</time></trkpt><trkpt lat="44.4089325" lon="11.343127"><ele>128.0</ele><time>2026-04-26T08:41:55.008Z</time></trkpt><trkpt lat="44.4088733" lon="11.3430875"><ele>127.99999999999999</ele><time>2026-04-26T08:41:55.999Z</time></trkpt><trkpt lat="44.408814" lon="11.343046"><ele>128.0</ele><time>2026-04-26T08:41:57.009Z</time></trkpt><trkpt lat="44.4087545" lon="11.3430031"><ele>128.0</ele><time>2026-04-26T08:41:58.013Z</time></trkpt><trkpt lat="44.4086944" lon="11.3429606"><ele>128.42857142857142</ele><time>2026-04-26T08:41:59.005Z</time></trkpt><trkpt lat="44.4086336" lon="11.3429181"><ele>128.85714285714283</ele><time>2026-04-26T08:42:00.013Z</time></trkpt><trkpt lat="44.4085739" lon="11.3428742"><ele>129.28571428571428</ele><time>2026-04-26T08:42:01.007Z</time></trkpt><trkpt lat="44.4085136" lon="11.3428303"><ele>129.71428571428572</ele><time>2026-04-26T08:42:01.999Z</time></trkpt><trkpt lat="44.4084525" lon="11.3427883"><ele>130.14285714285717</ele><time>2026-04-26T08:42:03.007Z</time></trkpt><trkpt lat="44.408391" lon="11.3427455"><ele>130.57142857142858</ele><time>2026-04-26T08:42:04.014Z</time></trkpt><trkpt lat="44.4083299" lon="11.3427033"><ele>131.0</ele><time>2026-04-26T08:42:05.009Z</time></trkpt><trkpt lat="44.408269" lon="11.3426606"><ele>131.0</ele><time>2026-04-26T08:42:06.012Z</time></trkpt><trkpt lat="44.4082094" lon="11.342616"><ele>131.0</ele><time>2026-04-26T08:42:07.005Z</time></trkpt><trkpt lat="44.4081487" lon="11.3425732"><ele>131.0</ele><time>2026-04-26T08:42:08.006Z</time></trkpt><trkpt lat="44.4080901" lon="11.3425317"><ele>131.0</ele><time>2026-04-26T08:42:09.005Z</time></trkpt><trkpt lat="44.4080291" lon="11.3424914"><ele>131.0</ele><time>2026-04-26T08:42:10.011Z</time></trkpt><trkpt lat="44.4079692" lon="11.3424498"><ele>131.0</ele><time>2026-04-26T08:42:11.006Z</time></trkpt><trkpt lat="44.4079078" lon="11.3424061"><ele>131.0</ele><time>2026-04-26T08:42:12.006Z</time></trkpt><trkpt lat="44.4078474" lon="11.3423623"><ele>131.0</ele><time>2026-04-26T08:42:13.015Z</time></trkpt><trkpt lat="44.4077872" lon="11.3423206"><ele>131.0</ele><time>2026-04-26T08:42:14.002Z</time></trkpt><trkpt lat="44.4077272" lon="11.3422764"><ele>131.0</ele><time>2026-04-26T08:42:15.001Z</time></trkpt><trkpt lat="44.4076667" lon="11.3422315"><ele>131.0</ele><time>2026-04-26T08:42:16.002Z</time></trkpt><trkpt lat="44.4076062" lon="11.3421891"><ele>131.0</ele><time>2026-04-26T08:42:17.005Z</time></trkpt><trkpt lat="44.4075459" lon="11.342147"><ele>131.0</ele><time>2026-04-26T08:42:17.998Z</time></trkpt><trkpt lat="44.4074853" lon="11.3421045"><ele>131.0</ele><time>2026-04-26T08:42:19.013Z</time></trkpt><trkpt lat="44.4074243" lon="11.3420615"><ele>131.0</ele><time>2026-04-26T08:42:20.006Z</time></trkpt><trkpt lat="44.4073639" lon="11.3420179"><ele>131.0</ele><time>2026-04-26T08:42:21.013Z</time></trkpt><trkpt lat="44.4073036" lon="11.3419739"><ele>131.0</ele><time>2026-04-26T08:42:22.006Z</time></trkpt><trkpt lat="44.4072422" lon="11.3419299"><ele>131.0</ele><time>2026-04-26T08:42:23.006Z</time></trkpt><trkpt lat="44.4071811" lon="11.3418859"><ele>131.0</ele><time>2026-04-26T08:42:24.004Z</time></trkpt><trkpt lat="44.4071205" lon="11.3418416"><ele>131.0</ele><time>2026-04-26T08:42:25.01Z</time></trkpt><trkpt lat="44.4070597" lon="11.3417965"><ele>131.0</ele><time>2026-04-26T08:42:26.009Z</time></trkpt><trkpt lat="44.4069983" lon="11.3417541"><ele>130.57142857142858</ele><time>2026-04-26T08:42:27.003Z</time></trkpt><trkpt lat="44.4069372" lon="11.3417109"><ele>130.14285714285717</ele><time>2026-04-26T08:42:28.006Z</time></trkpt><trkpt lat="44.4068761" lon="11.341668"><ele>129.71428571428572</ele><time>2026-04-26T08:42:29.006Z</time></trkpt><trkpt lat="44.4068153" lon="11.3416248"><ele>129.28571428571428</ele><time>2026-04-26T08:42:30.004Z</time></trkpt><trkpt lat="44.4067546" lon="11.341581"><ele>128.85714285714283</ele><time>2026-04-26T08:42:31.004Z</time></trkpt><trkpt lat="44.4066936" lon="11.3415369"><ele>128.42857142857142</ele><time>2026-04-26T08:42:31.998Z</time></trkpt><trkpt lat="44.4066321" lon="11.3414925"><ele>128.0</ele><time>2026-04-26T08:42:32.993Z</time></trkpt><trkpt lat="44.4065705" lon="11.3414496"><ele>128.0</ele><time>2026-04-26T08:42:33.997Z</time></trkpt><trkpt lat="44.4065098" lon="11.3414058"><ele>127.99999999999999</ele><time>2026-04-26T08:42:35.004Z</time></trkpt><trkpt lat="44.4064492" lon="11.3413612"><ele>128.0</ele><time>2026-04-26T08:42:35.997Z</time></trkpt><trkpt lat="44.4063883" lon="11.3413171"><ele>128.0</ele><time>2026-04-26T08:42:37.009Z</time></trkpt><trkpt lat="44.4063262" lon="11.3412748"><ele>127.99999999999999</ele><time>2026-04-26T08:42:38.003Z</time></trkpt><trkpt lat="44.4062654" lon="11.3412311"><ele>128.0</ele><time>2026-04-26T08:42:39.003Z</time></trkpt><trkpt lat="44.4062042" lon="11.3411881"><ele>128.0</ele><time>2026-04-26T08:42:39.999Z</time></trkpt><trkpt lat="44.4061443" lon="11.3411444"><ele>128.0</ele><time>2026-04-26T08:42:41.008Z</time></trkpt><trkpt lat="44.4060842" lon="11.3411013"><ele>127.99999999999999</ele><time>2026-04-26T08:42:42.003Z</time></trkpt><trkpt lat="44.4060248" lon="11.3410584"><ele>128.0</ele><time>2026-04-26T08:42:43.005Z</time></trkpt><trkpt lat="44.4059648" lon="11.3410167"><ele>128.0</ele><time>2026-04-26T08:42:44.004Z</time></trkpt><trkpt lat="44.4059053" lon="11.3409741"><ele>127.99999999999999</ele><time>2026-04-26T08:42:45.005Z</time></trkpt><trkpt lat="44.4058457" lon="11.3409321"><ele>128.0</ele><time>2026-04-26T08:42:46.001Z</time></trkpt><trkpt lat="44.4057858" lon="11.34089"><ele>128.0</ele><time>2026-04-26T08:42:47.007Z</time></trkpt><trkpt lat="44.4057254" lon="11.3408473"><ele>128.0</ele><time>2026-04-26T08:42:48Z</time></trkpt><trkpt lat="44.4056649" lon="11.3408043"><ele>127.99999999999999</ele><time>2026-04-26T08:42:48.997Z</time></trkpt><trkpt lat="44.4056041" lon="11.3407622"><ele>128.0</ele><time>2026-04-26T08:42:50.014Z</time></trkpt><trkpt lat="44.4055439" lon="11.3407192"><ele>128.0</ele><time>2026-04-26T08:42:51.006Z</time></trkpt><trkpt lat="44.4054832" lon="11.3406775"><ele>127.99999999999999</ele><time>2026-04-26T08:42:52.002Z</time></trkpt><trkpt lat="44.4054229" lon="11.3406341"><ele>128.0</ele><time>2026-04-26T08:42:53.01Z</time></trkpt><trkpt lat="44.4053628" lon="11.3405909"><ele>128.0</ele><time>2026-04-26T08:42:54.015Z</time></trkpt><trkpt lat="44.4053024" lon="11.3405504"><ele>129.0</ele><time>2026-04-26T08:42:55.008Z</time></trkpt><trkpt lat="44.4052418" lon="11.3405087"><ele>130.0</ele><time>2026-04-26T08:42:56.005Z</time></trkpt><trkpt lat="44.4051816" lon="11.3404671"><ele>131.0</ele><time>2026-04-26T08:42:57Z</time></trkpt><trkpt lat="44.4051216" lon="11.3404239"><ele>132.0</ele><time>2026-04-26T08:42:58.009Z</time></trkpt><trkpt lat="44.4050627" lon="11.340378"><ele>133.0</ele><time>2026-04-26T08:42:59.011Z</time></trkpt><trkpt lat="44.4050035" lon="11.3403314"><ele>134.0</ele><time>2026-04-26T08:43:00.007Z</time></trkpt><trkpt lat="44.4049437" lon="11.3402861"><ele>135.0</ele><time>2026-04-26T08:43:01.001Z</time></trkpt><trkpt lat="44.404884" lon="11.3402422"><ele>135.0</ele><time>2026-04-26T08:43:02.008Z</time></trkpt><trkpt lat="44.4048245" lon="11.3402002"><ele>135.0</ele><time>2026-04-26T08:43:03.015Z</time></trkpt><trkpt lat="44.404765" lon="11.3401585"><ele>135.0</ele><time>2026-04-26T08:43:04.011Z</time></trkpt><trkpt lat="44.4047055" lon="11.3401175"><ele>135.0</ele><time>2026-04-26T08:43:05.013Z</time></trkpt><trkpt lat="44.4046458" lon="11.3400775"><ele>135.0</ele><time>2026-04-26T08:43:06.003Z</time></trkpt><trkpt lat="44.4045862" lon="11.3400371"><ele>135.0</ele><time>2026-04-26T08:43:07.002Z</time></trkpt><trkpt lat="44.4045266" lon="11.3399946"><ele>135.0</ele><time>2026-04-26T08:43:07.999Z</time></trkpt><trkpt lat="44.4044675" lon="11.3399503"><ele>135.28571428571428</ele><time>2026-04-26T08:43:09.017Z</time></trkpt><trkpt lat="44.4044076" lon="11.339908"><ele>135.57142857142856</ele><time>2026-04-26T08:43:10.018Z</time></trkpt><trkpt lat="44.4043482" lon="11.3398643"><ele>135.85714285714286</ele><time>2026-04-26T08:43:11.005Z</time></trkpt><trkpt lat="44.404289" lon="11.3398201"><ele>136.14285714285714</ele><time>2026-04-26T08:43:12.009Z</time></trkpt><trkpt lat="44.4042294" lon="11.3397777"><ele>136.42857142857144</ele><time>2026-04-26T08:43:13.013Z</time></trkpt><trkpt lat="44.4041692" lon="11.3397362"><ele>136.71428571428572</ele><time>2026-04-26T08:43:14.014Z</time></trkpt><trkpt lat="44.4041102" lon="11.3396943"><ele>137.0</ele><time>2026-04-26T08:43:15.003Z</time></trkpt><trkpt lat="44.4040516" lon="11.3396513"><ele>137.00000000000003</ele><time>2026-04-26T08:43:16.005Z</time></trkpt><trkpt lat="44.4039922" lon="11.3396094"><ele>137.0</ele><time>2026-04-26T08:43:17.02Z</time></trkpt><trkpt lat="44.4039321" lon="11.339569"><ele>137.0</ele><time>2026-04-26T08:43:18.004Z</time></trkpt><trkpt lat="44.4038734" lon="11.339527"><ele>137.0</ele><time>2026-04-26T08:43:18.999Z</time></trkpt><trkpt lat="44.403815" lon="11.3394849"><ele>137.0</ele><time>2026-04-26T08:43:20.012Z</time></trkpt><trkpt lat="44.4037561" lon="11.3394439"><ele>137.00000000000003</ele><time>2026-04-26T08:43:21.012Z</time></trkpt><trkpt lat="44.4036974" lon="11.3394029"><ele>137.0</ele><time>2026-04-26T08:43:22.01Z</time></trkpt><trkpt lat="44.4036393" lon="11.3393622"><ele>136.2857142857143</ele><time>2026-04-26T08:43:23.005Z</time></trkpt><trkpt lat="44.4035821" lon="11.3393192"><ele>135.57142857142858</ele><time>2026-04-26T08:43:24.008Z</time></trkpt><trkpt lat="44.403525" lon="11.3392758"><ele>134.85714285714286</ele><time>2026-04-26T08:43:24.997Z</time></trkpt><trkpt lat="44.4034678" lon="11.3392328"><ele>134.14285714285717</ele><time>2026-04-26T08:43:26.008Z</time></trkpt><trkpt lat="44.4034103" lon="11.3391918"><ele>133.42857142857144</ele><time>2026-04-26T08:43:27.002Z</time></trkpt><trkpt lat="44.4033528" lon="11.3391495"><ele>132.71428571428572</ele><time>2026-04-26T08:43:28.007Z</time></trkpt><trkpt lat="44.4032955" lon="11.3391075"><ele>132.0</ele><time>2026-04-26T08:43:29.008Z</time></trkpt><trkpt lat="44.4032373" lon="11.3390671"><ele>132.0</ele><time>2026-04-26T08:43:30.006Z</time></trkpt><trkpt lat="44.4031794" lon="11.3390266"><ele>132.0</ele><time>2026-04-26T08:43:31.006Z</time></trkpt><trkpt lat="44.4031216" lon="11.3389863"><ele>132.0</ele><time>2026-04-26T08:43:32.001Z</time></trkpt><trkpt lat="44.4030642" lon="11.3389463"><ele>132.0</ele><time>2026-04-26T08:43:33.008Z</time></trkpt><trkpt lat="44.4030073" lon="11.3389051"><ele>132.0</ele><time>2026-04-26T08:43:34.011Z</time></trkpt><trkpt lat="44.4029501" lon="11.3388642"><ele>132.0</ele><time>2026-04-26T08:43:35.013Z</time></trkpt><trkpt lat="44.4028932" lon="11.3388229"><ele>132.0</ele><time>2026-04-26T08:43:36.009Z</time></trkpt><trkpt lat="44.4028358" lon="11.3387826"><ele>132.25</ele><time>2026-04-26T08:43:37.015Z</time></trkpt><trkpt lat="44.4027786" lon="11.3387438"><ele>132.5</ele><time>2026-04-26T08:43:37.999Z</time></trkpt><trkpt lat="44.4027212" lon="11.3387059"><ele>132.75</ele><time>2026-04-26T08:43:39.007Z</time></trkpt><trkpt lat="44.4026641" lon="11.3386667"><ele>133.0</ele><time>2026-04-26T08:43:40.012Z</time></trkpt><trkpt lat="44.4026065" lon="11.338628"><ele>133.25</ele><time>2026-04-26T08:43:41.009Z</time></trkpt><trkpt lat="44.4025482" lon="11.338591"><ele>133.5</ele><time>2026-04-26T08:43:42.009Z</time></trkpt><trkpt lat="44.4024891" lon="11.3385548"><ele>133.75</ele><time>2026-04-26T08:43:43.01Z</time></trkpt><trkpt lat="44.4024294" lon="11.338519"><ele>134.0</ele><time>2026-04-26T08:43:44.002Z</time></trkpt><trkpt lat="44.4023701" lon="11.3384823"><ele>134.0</ele><time>2026-04-26T08:43:44.999Z</time></trkpt><trkpt lat="44.4023101" lon="11.3384478"><ele>134.0</ele><time>2026-04-26T08:43:46.007Z</time></trkpt><trkpt lat="44.4022497" lon="11.338415"><ele>134.0</ele><time>2026-04-26T08:43:47.013Z</time></trkpt><trkpt lat="44.4021881" lon="11.3383842"><ele>134.0</ele><time>2026-04-26T08:43:48.01Z</time></trkpt><trkpt lat="44.4021261" lon="11.3383553"><ele>134.0</ele><time>2026-04-26T08:43:49.007Z</time></trkpt><trkpt lat="44.402064" lon="11.338327"><ele>134.0</ele><time>2026-04-26T08:43:49.992Z</time></trkpt><trkpt lat="44.4020022" lon="11.3382975"><ele>134.0</ele><time>2026-04-26T08:43:51.007Z</time></trkpt><trkpt lat="44.4019397" lon="11.3382695"><ele>134.0</ele><time>2026-04-26T08:43:52.007Z</time></trkpt><trkpt lat="44.4018773" lon="11.3382438"><ele>134.0</ele><time>2026-04-26T08:43:53.007Z</time></trkpt><trkpt lat="44.4018151" lon="11.3382193"><ele>134.0</ele><time>2026-04-26T08:43:54.001Z</time></trkpt><trkpt lat="44.4017522" lon="11.3381969"><ele>134.0</ele><time>2026-04-26T08:43:55.002Z</time></trkpt><trkpt lat="44.4016892" lon="11.3381769"><ele>134.0</ele><time>2026-04-26T08:43:56.011Z</time></trkpt><trkpt lat="44.4016259" lon="11.3381586"><ele>134.0</ele><time>2026-04-26T08:43:57.009Z</time></trkpt><trkpt lat="44.4015621" lon="11.3381414"><ele>134.0</ele><time>2026-04-26T08:43:58.006Z</time></trkpt><trkpt lat="44.4014978" lon="11.3381248"><ele>134.0</ele><time>2026-04-26T08:43:59.004Z</time></trkpt><trkpt lat="44.4014332" lon="11.3381094"><ele>134.0</ele><time>2026-04-26T08:44:00.003Z</time></trkpt><trkpt lat="44.4013688" lon="11.3380956"><ele>134.0</ele><time>2026-04-26T08:44:01.012Z</time></trkpt><trkpt lat="44.4013041" lon="11.3380832"><ele>134.0</ele><time>2026-04-26T08:44:02.005Z</time></trkpt><trkpt lat="44.401239" lon="11.3380702"><ele>134.0</ele><time>2026-04-26T08:44:02.997Z</time></trkpt><trkpt lat="44.4011739" lon="11.3380562"><ele>134.0</ele><time>2026-04-26T08:44:04.005Z</time></trkpt><trkpt lat="44.4011084" lon="11.3380417"><ele>134.0</ele><time>2026-04-26T08:44:04.999Z</time></trkpt><trkpt lat="44.4010423" lon="11.3380289"><ele>134.42857142857144</ele><time>2026-04-26T08:44:05.997Z</time></trkpt><trkpt lat="44.4009762" lon="11.3380169"><ele>134.85714285714286</ele><time>2026-04-26T08:44:07.009Z</time></trkpt><trkpt lat="44.4009101" lon="11.3380051"><ele>135.28571428571428</ele><time>2026-04-26T08:44:08.004Z</time></trkpt><trkpt lat="44.4008442" lon="11.3379927"><ele>135.71428571428572</ele><time>2026-04-26T08:44:09.004Z</time></trkpt><trkpt lat="44.4007787" lon="11.3379796"><ele>136.14285714285714</ele><time>2026-04-26T08:44:10.002Z</time></trkpt><trkpt lat="44.4007129" lon="11.3379672"><ele>136.57142857142858</ele><time>2026-04-26T08:44:11Z</time></trkpt><trkpt lat="44.4006479" lon="11.3379539"><ele>137.0</ele><time>2026-04-26T08:44:12.006Z</time></trkpt><trkpt lat="44.400583" lon="11.337941"><ele>137.00000000000003</ele><time>2026-04-26T08:44:13.002Z</time></trkpt><trkpt lat="44.400518" lon="11.3379293"><ele>137.0</ele><time>2026-04-26T08:44:14.005Z</time></trkpt><trkpt lat="44.4004523" lon="11.3379178"><ele>137.0</ele><time>2026-04-26T08:44:15.016Z</time></trkpt><trkpt lat="44.4003876" lon="11.3379064"><ele>137.0</ele><time>2026-04-26T08:44:16.006Z</time></trkpt><trkpt lat="44.400324" lon="11.3378948"><ele>137.0</ele><time>2026-04-26T08:44:17.009Z</time></trkpt><trkpt lat="44.4002593" lon="11.3378844"><ele>137.00000000000003</ele><time>2026-04-26T08:44:17.997Z</time></trkpt><trkpt lat="44.4001941" lon="11.3378736"><ele>137.0</ele><time>2026-04-26T08:44:19.008Z</time></trkpt><trkpt lat="44.4001292" lon="11.3378627"><ele>137.14285714285717</ele><time>2026-04-26T08:44:19.997Z</time></trkpt><trkpt lat="44.4000657" lon="11.3378511"><ele>137.28571428571428</ele><time>2026-04-26T08:44:20.996Z</time></trkpt><trkpt lat="44.4000013" lon="11.3378399"><ele>137.42857142857144</ele><time>2026-04-26T08:44:21.999Z</time></trkpt><trkpt lat="44.3999366" lon="11.3378283"><ele>137.57142857142858</ele><time>2026-04-26T08:44:23.008Z</time></trkpt><trkpt lat="44.3998725" lon="11.3378168"><ele>137.71428571428572</ele><time>2026-04-26T08:44:24.003Z</time></trkpt><trkpt lat="44.399809" lon="11.3378062"><ele>137.85714285714286</ele><time>2026-04-26T08:44:24.995Z</time></trkpt><trkpt lat="44.3997455" lon="11.3377961"><ele>138.0</ele><time>2026-04-26T08:44:25.998Z</time></trkpt><trkpt lat="44.3996819" lon="11.3377861"><ele>138.0</ele><time>2026-04-26T08:44:27.004Z</time></trkpt><trkpt lat="44.3995607" lon="11.3377668"><ele>138.0</ele><time>2026-04-26T08:44:29.007Z</time></trkpt><trkpt lat="44.3994431" lon="11.3377451"><ele>138.0</ele><time>2026-04-26T08:44:31.004Z</time></trkpt><trkpt lat="44.3993314" lon="11.3377253"><ele>138.0</ele><time>2026-04-26T08:44:32.998Z</time></trkpt><trkpt lat="44.3992211" lon="11.3377039"><ele>138.0</ele><time>2026-04-26T08:44:35.004Z</time></trkpt><trkpt lat="44.3991145" lon="11.3376778"><ele>138.0</ele><time>2026-04-26T08:44:37Z</time></trkpt><trkpt lat="44.3990165" lon="11.3376281"><ele>138.0</ele><time>2026-04-26T08:44:38.994Z</time></trkpt><trkpt lat="44.3989319" lon="11.3375397"><ele>138.0</ele><time>2026-04-26T08:44:41.002Z</time></trkpt><trkpt lat="44.3988885" lon="11.3374042"><ele>138.0</ele><time>2026-04-26T08:44:43.003Z</time></trkpt><trkpt lat="44.3988382" lon="11.3372676"><ele>138.20000000000002</ele><time>2026-04-26T08:44:44.997Z</time></trkpt><trkpt lat="44.3987525" lon="11.3371714"><ele>138.4</ele><time>2026-04-26T08:44:47.007Z</time></trkpt><trkpt lat="44.3986403" lon="11.3371628"><ele>138.60000000000002</ele><time>2026-04-26T08:44:49.009Z</time></trkpt><trkpt lat="44.3985269" lon="11.3372282"><ele>138.8</ele><time>2026-04-26T08:44:50.996Z</time></trkpt><trkpt lat="44.3984727" lon="11.3372813"><ele>139.0</ele><time>2026-04-26T08:44:52.003Z</time></trkpt><trkpt lat="44.398414" lon="11.3373343"><ele>139.0</ele><time>2026-04-26T08:44:53.002Z</time></trkpt><trkpt lat="44.3983471" lon="11.3373737"><ele>139.0</ele><time>2026-04-26T08:44:53.999Z</time></trkpt><trkpt lat="44.3982738" lon="11.3374007"><ele>139.0</ele><time>2026-04-26T08:44:55.007Z</time></trkpt><trkpt lat="44.3981979" lon="11.3374191"><ele>139.0</ele><time>2026-04-26T08:44:56.017Z</time></trkpt><trkpt lat="44.3981179" lon="11.3374298"><ele>139.0</ele><time>2026-04-26T08:44:57.01Z</time></trkpt><trkpt lat="44.3980354" lon="11.3374311"><ele>139.0</ele><time>2026-04-26T08:44:57.989Z</time></trkpt><trkpt lat="44.3979527" lon="11.3374226"><ele>139.0</ele><time>2026-04-26T08:44:58.995Z</time></trkpt><trkpt lat="44.3978692" lon="11.3374134"><ele>139.0</ele><time>2026-04-26T08:45:00.007Z</time></trkpt><trkpt lat="44.3977851" lon="11.3373984"><ele>139.0</ele><time>2026-04-26T08:45:01.005Z</time></trkpt><trkpt lat="44.3977014" lon="11.3373852"><ele>139.0</ele><time>2026-04-26T08:45:02.009Z</time></trkpt><trkpt lat="44.3976176" lon="11.3373707"><ele>139.0</ele><time>2026-04-26T08:45:03.012Z</time></trkpt><trkpt lat="44.3975343" lon="11.3373552"><ele>139.0</ele><time>2026-04-26T08:45:04.01Z</time></trkpt><trkpt lat="44.3974521" lon="11.3373355"><ele>139.0</ele><time>2026-04-26T08:45:04.998Z</time></trkpt><trkpt lat="44.3973703" lon="11.3373157"><ele>139.0</ele><time>2026-04-26T08:45:06.006Z</time></trkpt><trkpt lat="44.3972902" lon="11.3372965"><ele>139.0</ele><time>2026-04-26T08:45:07.007Z</time></trkpt><trkpt lat="44.39721" lon="11.3372772"><ele>139.0</ele><time>2026-04-26T08:45:08.003Z</time></trkpt><trkpt lat="44.3971308" lon="11.337257"><ele>139.0</ele><time>2026-04-26T08:45:09.011Z</time></trkpt><trkpt lat="44.3970563" lon="11.3372375"><ele>139.0</ele><time>2026-04-26T08:45:10.004Z</time></trkpt><trkpt lat="44.3969833" lon="11.3372172"><ele>139.28571428571428</ele><time>2026-04-26T08:45:11.013Z</time></trkpt><trkpt lat="44.3969122" lon="11.3371961"><ele>139.57142857142858</ele><time>2026-04-26T08:45:12.013Z</time></trkpt><trkpt lat="44.3968424" lon="11.337173"><ele>139.85714285714286</ele><time>2026-04-26T08:45:13.009Z</time></trkpt><trkpt lat="44.3967735" lon="11.3371512"><ele>140.14285714285714</ele><time>2026-04-26T08:45:14.008Z</time></trkpt><trkpt lat="44.3967054" lon="11.3371291"><ele>140.42857142857142</ele><time>2026-04-26T08:45:15.005Z</time></trkpt><trkpt lat="44.3966371" lon="11.3371057"><ele>140.71428571428572</ele><time>2026-04-26T08:45:16.007Z</time></trkpt><trkpt lat="44.3965695" lon="11.3370794"><ele>141.0</ele><time>2026-04-26T08:45:17.013Z</time></trkpt><trkpt lat="44.3965024" lon="11.3370507"><ele>141.0</ele><time>2026-04-26T08:45:18.006Z</time></trkpt><trkpt lat="44.3964362" lon="11.3370211"><ele>141.0</ele><time>2026-04-26T08:45:19Z</time></trkpt><trkpt lat="44.3963704" lon="11.3369906"><ele>141.0</ele><time>2026-04-26T08:45:20.01Z</time></trkpt><trkpt lat="44.3963046" lon="11.3369597"><ele>141.0</ele><time>2026-04-26T08:45:21.003Z</time></trkpt><trkpt lat="44.3962382" lon="11.33693"><ele>141.0</ele><time>2026-04-26T08:45:22.005Z</time></trkpt><trkpt lat="44.396173" lon="11.3368993"><ele>141.0</ele><time>2026-04-26T08:45:23.004Z</time></trkpt><trkpt lat="44.3961081" lon="11.3368696"><ele>141.0</ele><time>2026-04-26T08:45:24.01Z</time></trkpt><trkpt lat="44.3960426" lon="11.3368392"><ele>141.28571428571428</ele><time>2026-04-26T08:45:25.012Z</time></trkpt><trkpt lat="44.3959772" lon="11.3368079"><ele>141.57142857142856</ele><time>2026-04-26T08:45:26.009Z</time></trkpt><trkpt lat="44.3959116" lon="11.3367767"><ele>141.85714285714283</ele><time>2026-04-26T08:45:26.994Z</time></trkpt><trkpt lat="44.3958465" lon="11.3367458"><ele>142.14285714285714</ele><time>2026-04-26T08:45:28.023Z</time></trkpt><trkpt lat="44.3957812" lon="11.336715"><ele>142.42857142857142</ele><time>2026-04-26T08:45:29.002Z</time></trkpt><trkpt lat="44.3957163" lon="11.3366834"><ele>142.7142857142857</ele><time>2026-04-26T08:45:30.004Z</time></trkpt><trkpt lat="44.3956519" lon="11.336653"><ele>143.0</ele><time>2026-04-26T08:45:31.008Z</time></trkpt><trkpt lat="44.3955875" lon="11.3366229"><ele>142.99999999999997</ele><time>2026-04-26T08:45:32.009Z</time></trkpt><trkpt lat="44.3955228" lon="11.3365921"><ele>143.0</ele><time>2026-04-26T08:45:33.009Z</time></trkpt><trkpt lat="44.3954586" lon="11.3365596"><ele>143.0</ele><time>2026-04-26T08:45:34.012Z</time></trkpt><trkpt lat="44.3953949" lon="11.336528"><ele>143.0</ele><time>2026-04-26T08:45:35.007Z</time></trkpt><trkpt lat="44.3953307" lon="11.3364983"><ele>143.0</ele><time>2026-04-26T08:45:36Z</time></trkpt><trkpt lat="44.3952666" lon="11.3364701"><ele>142.99999999999997</ele><time>2026-04-26T08:45:37.002Z</time></trkpt><trkpt lat="44.3952027" lon="11.3364426"><ele>143.0</ele><time>2026-04-26T08:45:38.002Z</time></trkpt><trkpt lat="44.3951394" lon="11.3364128"><ele>143.42857142857142</ele><time>2026-04-26T08:45:38.997Z</time></trkpt><trkpt lat="44.3950763" lon="11.3363818"><ele>143.85714285714286</ele><time>2026-04-26T08:45:40.004Z</time></trkpt><trkpt lat="44.3950126" lon="11.3363527"><ele>144.28571428571428</ele><time>2026-04-26T08:45:41.005Z</time></trkpt><trkpt lat="44.3949491" lon="11.3363231"><ele>144.71428571428572</ele><time>2026-04-26T08:45:42.006Z</time></trkpt><trkpt lat="44.394886" lon="11.3362931"><ele>145.14285714285714</ele><time>2026-04-26T08:45:43Z</time></trkpt><trkpt lat="44.3948223" lon="11.3362639"><ele>145.57142857142856</ele><time>2026-04-26T08:45:44.008Z</time></trkpt><trkpt lat="44.3947583" lon="11.3362362"><ele>146.0</ele><time>2026-04-26T08:45:45.011Z</time></trkpt><trkpt lat="44.3946957" lon="11.3362061"><ele>145.85714285714286</ele><time>2026-04-26T08:45:46.01Z</time></trkpt><trkpt lat="44.3946335" lon="11.3361755"><ele>145.71428571428572</ele><time>2026-04-26T08:45:47.007Z</time></trkpt><trkpt lat="44.3945713" lon="11.3361475"><ele>145.57142857142858</ele><time>2026-04-26T08:45:48.009Z</time></trkpt><trkpt lat="44.3945091" lon="11.3361206"><ele>145.42857142857144</ele><time>2026-04-26T08:45:49.003Z</time></trkpt><trkpt lat="44.3944471" lon="11.3360958"><ele>145.2857142857143</ele><time>2026-04-26T08:45:50.002Z</time></trkpt><trkpt lat="44.3943847" lon="11.3360716"><ele>145.14285714285714</ele><time>2026-04-26T08:45:51Z</time></trkpt><trkpt lat="44.3943219" lon="11.3360455"><ele>145.0</ele><time>2026-04-26T08:45:52.005Z</time></trkpt><trkpt lat="44.3942592" lon="11.3360188"><ele>145.0</ele><time>2026-04-26T08:45:53.014Z</time></trkpt><trkpt lat="44.394196" lon="11.3359939"><ele>145.0</ele><time>2026-04-26T08:45:54Z</time></trkpt><trkpt lat="44.3941327" lon="11.3359695"><ele>145.0</ele><time>2026-04-26T08:45:55.005Z</time></trkpt><trkpt lat="44.3940697" lon="11.3359466"><ele>145.0</ele><time>2026-04-26T08:45:55.998Z</time></trkpt><trkpt lat="44.3940073" lon="11.3359219"><ele>145.0</ele><time>2026-04-26T08:45:57.004Z</time></trkpt><trkpt lat="44.3939449" lon="11.3358975"><ele>145.0</ele><time>2026-04-26T08:45:58.002Z</time></trkpt><trkpt lat="44.3938815" lon="11.3358756"><ele>145.0</ele><time>2026-04-26T08:45:59.003Z</time></trkpt><trkpt lat="44.3938176" lon="11.335855"><ele>145.14285714285714</ele><time>2026-04-26T08:46:00.01Z</time></trkpt><trkpt lat="44.3937542" lon="11.3358337"><ele>145.2857142857143</ele><time>2026-04-26T08:46:01.004Z</time></trkpt><trkpt lat="44.3936905" lon="11.3358129"><ele>145.42857142857144</ele><time>2026-04-26T08:46:02.002Z</time></trkpt><trkpt lat="44.3936265" lon="11.3357937"><ele>145.57142857142858</ele><time>2026-04-26T08:46:02.991Z</time></trkpt><trkpt lat="44.3935629" lon="11.3357761"><ele>145.71428571428572</ele><time>2026-04-26T08:46:04.008Z</time></trkpt><trkpt lat="44.3934998" lon="11.3357591"><ele>145.85714285714286</ele><time>2026-04-26T08:46:04.992Z</time></trkpt><trkpt lat="44.3934366" lon="11.3357433"><ele>146.0</ele><time>2026-04-26T08:46:06.01Z</time></trkpt><trkpt lat="44.3933735" lon="11.3357279"><ele>146.0</ele><time>2026-04-26T08:46:07.004Z</time></trkpt><trkpt lat="44.393311" lon="11.3357141"><ele>146.0</ele><time>2026-04-26T08:46:07.995Z</time></trkpt><trkpt lat="44.3932484" lon="11.3356999"><ele>146.0</ele><time>2026-04-26T08:46:09.005Z</time></trkpt><trkpt lat="44.3931859" lon="11.335687"><ele>146.0</ele><time>2026-04-26T08:46:10.008Z</time></trkpt><trkpt lat="44.3931223" lon="11.3356746"><ele>146.0</ele><time>2026-04-26T08:46:11.009Z</time></trkpt><trkpt lat="44.3930588" lon="11.3356624"><ele>146.0</ele><time>2026-04-26T08:46:12.002Z</time></trkpt><trkpt lat="44.3929955" lon="11.3356511"><ele>146.0</ele><time>2026-04-26T08:46:13.008Z</time></trkpt><trkpt lat="44.3929324" lon="11.3356398"><ele>146.0</ele><time>2026-04-26T08:46:14.005Z</time></trkpt><trkpt lat="44.3928695" lon="11.3356283"><ele>145.71428571428572</ele><time>2026-04-26T08:46:14.998Z</time></trkpt><trkpt lat="44.392806" lon="11.3356194"><ele>145.42857142857144</ele><time>2026-04-26T08:46:15.99Z</time></trkpt><trkpt lat="44.3927417" lon="11.3356097"><ele>145.14285714285717</ele><time>2026-04-26T08:46:17.017Z</time></trkpt><trkpt lat="44.3926773" lon="11.3356"><ele>144.85714285714286</ele><time>2026-04-26T08:46:18.008Z</time></trkpt><trkpt lat="44.392612" lon="11.3355925"><ele>144.57142857142858</ele><time>2026-04-26T08:46:19.004Z</time></trkpt><trkpt lat="44.392547" lon="11.3355834"><ele>144.2857142857143</ele><time>2026-04-26T08:46:19.999Z</time></trkpt><trkpt lat="44.3924818" lon="11.3355739"><ele>144.0</ele><time>2026-04-26T08:46:20.999Z</time></trkpt><trkpt lat="44.3924159" lon="11.3355662"><ele>144.00000000000003</ele><time>2026-04-26T08:46:22.004Z</time></trkpt><trkpt lat="44.3923501" lon="11.3355585"><ele>144.0</ele><time>2026-04-26T08:46:23.005Z</time></trkpt><trkpt lat="44.3922836" lon="11.335548"><ele>144.0</ele><time>2026-04-26T08:46:24.005Z</time></trkpt><trkpt lat="44.3922169" lon="11.3355362"><ele>144.0</ele><time>2026-04-26T08:46:25.009Z</time></trkpt><trkpt lat="44.3921501" lon="11.3355256"><ele>144.0</ele><time>2026-04-26T08:46:26.011Z</time></trkpt><trkpt lat="44.3920841" lon="11.3355163"><ele>144.00000000000003</ele><time>2026-04-26T08:46:27.001Z</time></trkpt><trkpt lat="44.3920183" lon="11.3355093"><ele>144.0</ele><time>2026-04-26T08:46:28.001Z</time></trkpt><trkpt lat="44.3919522" lon="11.3355017"><ele>144.14285714285717</ele><time>2026-04-26T08:46:28.999Z</time></trkpt><trkpt lat="44.3918869" lon="11.3354919"><ele>144.28571428571428</ele><time>2026-04-26T08:46:30.006Z</time></trkpt><trkpt lat="44.3918216" lon="11.335481"><ele>144.42857142857144</ele><time>2026-04-26T08:46:31.008Z</time></trkpt><trkpt lat="44.3917566" lon="11.3354705"><ele>144.57142857142858</ele><time>2026-04-26T08:46:32.006Z</time></trkpt><trkpt lat="44.3916919" lon="11.3354598"><ele>144.71428571428572</ele><time>2026-04-26T08:46:33.007Z</time></trkpt><trkpt lat="44.3916272" lon="11.3354496"><ele>144.85714285714286</ele><time>2026-04-26T08:46:33.999Z</time></trkpt><trkpt lat="44.3915624" lon="11.3354404"><ele>145.0</ele><time>2026-04-26T08:46:35.007Z</time></trkpt><trkpt lat="44.3914973" lon="11.3354321"><ele>145.0</ele><time>2026-04-26T08:46:36.001Z</time></trkpt><trkpt lat="44.3914322" lon="11.3354227"><ele>145.0</ele><time>2026-04-26T08:46:37Z</time></trkpt><trkpt lat="44.391367" lon="11.3354134"><ele>145.0</ele><time>2026-04-26T08:46:38.001Z</time></trkpt><trkpt lat="44.3913025" lon="11.3354039"><ele>145.0</ele><time>2026-04-26T08:46:39.003Z</time></trkpt><trkpt lat="44.3912373" lon="11.3353943"><ele>145.0</ele><time>2026-04-26T08:46:40.009Z</time></trkpt><trkpt lat="44.3911724" lon="11.3353841"><ele>145.0</ele><time>2026-04-26T08:46:41.009Z</time></trkpt><trkpt lat="44.3911067" lon="11.3353741"><ele>145.0</ele><time>2026-04-26T08:46:42.01Z</time></trkpt><trkpt lat="44.3910403" lon="11.3353645"><ele>145.57142857142858</ele><time>2026-04-26T08:46:42.99Z</time></trkpt><trkpt lat="44.390974" lon="11.3353528"><ele>146.14285714285717</ele><time>2026-04-26T08:46:44.005Z</time></trkpt><trkpt lat="44.3909073" lon="11.3353417"><ele>146.71428571428572</ele><time>2026-04-26T08:46:45.01Z</time></trkpt><trkpt lat="44.3908403" lon="11.3353336"><ele>147.28571428571428</ele><time>2026-04-26T08:46:46.007Z</time></trkpt><trkpt lat="44.3907737" lon="11.3353248"><ele>147.85714285714283</ele><time>2026-04-26T08:46:47.008Z</time></trkpt><trkpt lat="44.3907068" lon="11.3353156"><ele>148.42857142857142</ele><time>2026-04-26T08:46:48Z</time></trkpt><trkpt lat="44.3906399" lon="11.3353073"><ele>149.0</ele><time>2026-04-26T08:46:49.001Z</time></trkpt><trkpt lat="44.3905734" lon="11.3352989"><ele>149.14285714285714</ele><time>2026-04-26T08:46:50.001Z</time></trkpt><trkpt lat="44.3905072" lon="11.3352876"><ele>149.28571428571428</ele><time>2026-04-26T08:46:51.01Z</time></trkpt><trkpt lat="44.3904413" lon="11.335277"><ele>149.42857142857142</ele><time>2026-04-26T08:46:52.016Z</time></trkpt><trkpt lat="44.3903749" lon="11.335269"><ele>149.57142857142856</ele><time>2026-04-26T08:46:53.01Z</time></trkpt><trkpt lat="44.3903091" lon="11.3352604"><ele>149.71428571428572</ele><time>2026-04-26T08:46:54Z</time></trkpt><trkpt lat="44.3902424" lon="11.3352489"><ele>149.85714285714283</ele><time>2026-04-26T08:46:55.009Z</time></trkpt><trkpt lat="44.3901762" lon="11.3352403"><ele>150.0</ele><time>2026-04-26T08:46:56.013Z</time></trkpt><trkpt lat="44.390111" lon="11.3352316"><ele>149.99999999999997</ele><time>2026-04-26T08:46:57.003Z</time></trkpt><trkpt lat="44.390046" lon="11.3352227"><ele>150.0</ele><time>2026-04-26T08:46:58.001Z</time></trkpt><trkpt lat="44.3899805" lon="11.3352179"><ele>150.0</ele><time>2026-04-26T08:46:59.002Z</time></trkpt><trkpt lat="44.3899141" lon="11.3352092"><ele>150.0</ele><time>2026-04-26T08:46:59.998Z</time></trkpt><trkpt lat="44.3898483" lon="11.3352027"><ele>150.0</ele><time>2026-04-26T08:47:01Z</time></trkpt><trkpt lat="44.3897819" lon="11.3351966"><ele>149.99999999999997</ele><time>2026-04-26T08:47:02.008Z</time></trkpt><trkpt lat="44.3897155" lon="11.3351905"><ele>150.0</ele><time>2026-04-26T08:47:03.001Z</time></trkpt><trkpt lat="44.3896507" lon="11.3351851"><ele>149.42857142857142</ele><time>2026-04-26T08:47:04.009Z</time></trkpt><trkpt lat="44.3895858" lon="11.3351814"><ele>148.85714285714286</ele><time>2026-04-26T08:47:05.008Z</time></trkpt><trkpt lat="44.3895206" lon="11.3351788"><ele>148.28571428571428</ele><time>2026-04-26T08:47:06.004Z</time></trkpt><trkpt lat="44.3894542" lon="11.3351752"><ele>147.71428571428572</ele><time>2026-04-26T08:47:06.993Z</time></trkpt><trkpt lat="44.3893893" lon="11.3351693"><ele>147.14285714285714</ele><time>2026-04-26T08:47:07.998Z</time></trkpt><trkpt lat="44.3893241" lon="11.3351658"><ele>146.57142857142856</ele><time>2026-04-26T08:47:09.004Z</time></trkpt><trkpt lat="44.3892595" lon="11.3351641"><ele>146.0</ele><time>2026-04-26T08:47:10.013Z</time></trkpt><trkpt lat="44.3891939" lon="11.3351614"><ele>146.0</ele><time>2026-04-26T08:47:11.01Z</time></trkpt><trkpt lat="44.3891297" lon="11.3351592"><ele>146.0</ele><time>2026-04-26T08:47:12.011Z</time></trkpt><trkpt lat="44.3890657" lon="11.3351583"><ele>146.0</ele><time>2026-04-26T08:47:13.007Z</time></trkpt><trkpt lat="44.3890011" lon="11.3351591"><ele>146.0</ele><time>2026-04-26T08:47:14.001Z</time></trkpt><trkpt lat="44.3889372" lon="11.3351587"><ele>146.0</ele><time>2026-04-26T08:47:15.005Z</time></trkpt><trkpt lat="44.3888736" lon="11.3351585"><ele>146.0</ele><time>2026-04-26T08:47:16.006Z</time></trkpt><trkpt lat="44.3888104" lon="11.3351592"><ele>146.0</ele><time>2026-04-26T08:47:17.012Z</time></trkpt><trkpt lat="44.3887467" lon="11.3351615"><ele>146.0</ele><time>2026-04-26T08:47:18.001Z</time></trkpt><trkpt lat="44.3886823" lon="11.335163"><ele>146.57142857142856</ele><time>2026-04-26T08:47:19.016Z</time></trkpt><trkpt lat="44.3886169" lon="11.3351651"><ele>147.14285714285714</ele><time>2026-04-26T08:47:20.013Z</time></trkpt><trkpt lat="44.388552" lon="11.335167"><ele>147.71428571428572</ele><time>2026-04-26T08:47:21.001Z</time></trkpt><trkpt lat="44.3884869" lon="11.3351699"><ele>148.28571428571428</ele><time>2026-04-26T08:47:22.003Z</time></trkpt><trkpt lat="44.3884217" lon="11.3351722"><ele>148.85714285714286</ele><time>2026-04-26T08:47:23.006Z</time></trkpt><trkpt lat="44.3883561" lon="11.3351743"><ele>149.42857142857142</ele><time>2026-04-26T08:47:24.006Z</time></trkpt><trkpt lat="44.3882907" lon="11.3351757"><ele>150.0</ele><time>2026-04-26T08:47:25.003Z</time></trkpt><trkpt lat="44.3882264" lon="11.3351785"><ele>150.0</ele><time>2026-04-26T08:47:26.008Z</time></trkpt><trkpt lat="44.388163" lon="11.3351815"><ele>150.0</ele><time>2026-04-26T08:47:27.007Z</time></trkpt><trkpt lat="44.3880998" lon="11.3351845"><ele>150.0</ele><time>2026-04-26T08:47:28.012Z</time></trkpt><trkpt lat="44.3880365" lon="11.3351881"><ele>150.0</ele><time>2026-04-26T08:47:29.008Z</time></trkpt><trkpt lat="44.3879114" lon="11.3351946"><ele>150.0</ele><time>2026-04-26T08:47:31.003Z</time></trkpt><trkpt lat="44.3878483" lon="11.3351985"><ele>150.0</ele><time>2026-04-26T08:47:32.005Z</time></trkpt><trkpt lat="44.3877218" lon="11.3352043"><ele>150.0</ele><time>2026-04-26T08:47:34.009Z</time></trkpt><trkpt lat="44.3876588" lon="11.3352065"><ele>150.0</ele><time>2026-04-26T08:47:35.009Z</time></trkpt><trkpt lat="44.3875956" lon="11.3352077"><ele>150.0</ele><time>2026-04-26T08:47:36.006Z</time></trkpt><trkpt lat="44.3875325" lon="11.335212"><ele>150.0</ele><time>2026-04-26T08:47:36.996Z</time></trkpt><trkpt lat="44.3874689" lon="11.3352154"><ele>150.0</ele><time>2026-04-26T08:47:37.997Z</time></trkpt><trkpt lat="44.3873428" lon="11.3352195"><ele>150.0</ele><time>2026-04-26T08:47:40.001Z</time></trkpt><trkpt lat="44.3872169" lon="11.3352236"><ele>150.75</ele><time>2026-04-26T08:47:41.999Z</time></trkpt><trkpt lat="44.3870915" lon="11.3352299"><ele>151.5</ele><time>2026-04-26T08:47:44Z</time></trkpt><trkpt lat="44.3869665" lon="11.3352364"><ele>152.25</ele><time>2026-04-26T08:47:46.002Z</time></trkpt><trkpt lat="44.3868435" lon="11.3352409"><ele>153.0</ele><time>2026-04-26T08:47:48.007Z</time></trkpt><trkpt lat="44.386721" lon="11.3352424"><ele>153.0</ele><time>2026-04-26T08:47:50.005Z</time></trkpt><trkpt lat="44.3865991" lon="11.3352491"><ele>153.0</ele><time>2026-04-26T08:47:52.004Z</time></trkpt><trkpt lat="44.3864786" lon="11.3352556"><ele>153.0</ele><time>2026-04-26T08:47:53.994Z</time></trkpt><trkpt lat="44.3863577" lon="11.3352592"><ele>153.0</ele><time>2026-04-26T08:47:55.998Z</time></trkpt><trkpt lat="44.3862357" lon="11.3352622"><ele>153.5</ele><time>2026-04-26T08:47:58.003Z</time></trkpt><trkpt lat="44.3861137" lon="11.3352651"><ele>154.0</ele><time>2026-04-26T08:48:00.011Z</time></trkpt><trkpt lat="44.3859919" lon="11.3352701"><ele>154.5</ele><time>2026-04-26T08:48:02.01Z</time></trkpt><trkpt lat="44.3858699" lon="11.3352721"><ele>155.0</ele><time>2026-04-26T08:48:03.996Z</time></trkpt><trkpt lat="44.3857478" lon="11.3352767"><ele>155.0</ele><time>2026-04-26T08:48:06.008Z</time></trkpt><trkpt lat="44.3856265" lon="11.3352796"><ele>155.0</ele><time>2026-04-26T08:48:08.002Z</time></trkpt><trkpt lat="44.3855065" lon="11.3352813"><ele>155.0</ele><time>2026-04-26T08:48:10.006Z</time></trkpt><trkpt lat="44.385387" lon="11.335287"><ele>155.0</ele><time>2026-04-26T08:48:12.015Z</time></trkpt><trkpt lat="44.3852671" lon="11.3352908"><ele>154.75</ele><time>2026-04-26T08:48:14.004Z</time></trkpt><trkpt lat="44.3851466" lon="11.3352927"><ele>154.5</ele><time>2026-04-26T08:48:16.007Z</time></trkpt><trkpt lat="44.3850258" lon="11.3352968"><ele>154.25</ele><time>2026-04-26T08:48:18.005Z</time></trkpt><trkpt lat="44.3849044" lon="11.3353012"><ele>154.0</ele><time>2026-04-26T08:48:20.004Z</time></trkpt><trkpt lat="44.3847828" lon="11.3353084"><ele>154.25</ele><time>2026-04-26T08:48:22.008Z</time></trkpt><trkpt lat="44.3846634" lon="11.335318"><ele>154.5</ele><time>2026-04-26T08:48:24.007Z</time></trkpt><trkpt lat="44.3845439" lon="11.3353344"><ele>154.75</ele><time>2026-04-26T08:48:26.002Z</time></trkpt><trkpt lat="44.3844246" lon="11.3353629"><ele>155.0</ele><time>2026-04-26T08:48:27.999Z</time></trkpt><trkpt lat="44.3843074" lon="11.3353964"><ele>155.0</ele><time>2026-04-26T08:48:30.005Z</time></trkpt><trkpt lat="44.3841905" lon="11.3354341"><ele>155.0</ele><time>2026-04-26T08:48:32.005Z</time></trkpt><trkpt lat="44.3840748" lon="11.3354787"><ele>155.0</ele><time>2026-04-26T08:48:34.009Z</time></trkpt><trkpt lat="44.3839583" lon="11.3355286"><ele>155.0</ele><time>2026-04-26T08:48:36.007Z</time></trkpt><trkpt lat="44.3838422" lon="11.3355858"><ele>155.0</ele><time>2026-04-26T08:48:38.003Z</time></trkpt><trkpt lat="44.3837272" lon="11.3356461"><ele>155.0</ele><time>2026-04-26T08:48:40Z</time></trkpt><trkpt lat="44.3836109" lon="11.3357064"><ele>155.0</ele><time>2026-04-26T08:48:42.008Z</time></trkpt><trkpt lat="44.3834932" lon="11.3357649"><ele>155.0</ele><time>2026-04-26T08:48:43.999Z</time></trkpt><trkpt lat="44.3833769" lon="11.3358249"><ele>155.0</ele><time>2026-04-26T08:48:46.001Z</time></trkpt><trkpt lat="44.3832634" lon="11.3358913"><ele>155.0</ele><time>2026-04-26T08:48:47.997Z</time></trkpt><trkpt lat="44.3831503" lon="11.3359561"><ele>155.0</ele><time>2026-04-26T08:48:50.004Z</time></trkpt><trkpt lat="44.3830363" lon="11.3360208"><ele>155.0</ele><time>2026-04-26T08:48:51.998Z</time></trkpt><trkpt lat="44.3829235" lon="11.3360884"><ele>155.75</ele><time>2026-04-26T08:48:54.005Z</time></trkpt><trkpt lat="44.3828105" lon="11.3361557"><ele>156.5</ele><time>2026-04-26T08:48:56.001Z</time></trkpt><trkpt lat="44.3826979" lon="11.3362204"><ele>157.25</ele><time>2026-04-26T08:48:58.005Z</time></trkpt><trkpt lat="44.3825847" lon="11.3362864"><ele>158.0</ele><time>2026-04-26T08:49:00.011Z</time></trkpt><trkpt lat="44.3824709" lon="11.3363536"><ele>158.0</ele><time>2026-04-26T08:49:02.01Z</time></trkpt><trkpt lat="44.3823566" lon="11.336421"><ele>158.0</ele><time>2026-04-26T08:49:04.002Z</time></trkpt><trkpt lat="44.3822431" lon="11.3364878"><ele>158.0</ele><time>2026-04-26T08:49:06.006Z</time></trkpt><trkpt lat="44.3821294" lon="11.3365566"><ele>158.0</ele><time>2026-04-26T08:49:08.002Z</time></trkpt><trkpt lat="44.3820151" lon="11.3366229"><ele>157.875</ele><time>2026-04-26T08:49:10.013Z</time></trkpt><trkpt lat="44.3819562" lon="11.3366597"><ele>157.75</ele><time>2026-04-26T08:49:11.006Z</time></trkpt><trkpt lat="44.3818981" lon="11.336694"><ele>157.625</ele><time>2026-04-26T08:49:11.999Z</time></trkpt><trkpt lat="44.3818384" lon="11.3367275"><ele>157.5</ele><time>2026-04-26T08:49:12.997Z</time></trkpt><trkpt lat="44.3817786" lon="11.3367604"><ele>157.375</ele><time>2026-04-26T08:49:14.01Z</time></trkpt><trkpt lat="44.381719" lon="11.336792"><ele>157.25</ele><time>2026-04-26T08:49:14.997Z</time></trkpt><trkpt lat="44.3816585" lon="11.3368227"><ele>157.125</ele><time>2026-04-26T08:49:16.007Z</time></trkpt><trkpt lat="44.3815981" lon="11.3368534"><ele>157.0</ele><time>2026-04-26T08:49:17Z</time></trkpt><trkpt lat="44.381538" lon="11.3368834"><ele>157.0</ele><time>2026-04-26T08:49:18.001Z</time></trkpt><trkpt lat="44.3814781" lon="11.3369114"><ele>157.0</ele><time>2026-04-26T08:49:19.002Z</time></trkpt><trkpt lat="44.3814177" lon="11.3369396"><ele>157.0</ele><time>2026-04-26T08:49:19.999Z</time></trkpt><trkpt lat="44.3813577" lon="11.3369701"><ele>157.0</ele><time>2026-04-26T08:49:21.003Z</time></trkpt><trkpt lat="44.3812983" lon="11.3370018"><ele>157.0</ele><time>2026-04-26T08:49:22.007Z</time></trkpt><trkpt lat="44.3812381" lon="11.3370328"><ele>157.0</ele><time>2026-04-26T08:49:23.009Z</time></trkpt><trkpt lat="44.3811795" lon="11.337066"><ele>157.0</ele><time>2026-04-26T08:49:23.999Z</time></trkpt><trkpt lat="44.3811206" lon="11.3371007"><ele>157.0</ele><time>2026-04-26T08:49:25.001Z</time></trkpt><trkpt lat="44.3810616" lon="11.3371355"><ele>157.28571428571428</ele><time>2026-04-26T08:49:26.005Z</time></trkpt><trkpt lat="44.3810024" lon="11.3371687"><ele>157.57142857142856</ele><time>2026-04-26T08:49:27.01Z</time></trkpt><trkpt lat="44.3809426" lon="11.3372022"><ele>157.85714285714283</ele><time>2026-04-26T08:49:28.016Z</time></trkpt><trkpt lat="44.3808831" lon="11.337236"><ele>158.14285714285714</ele><time>2026-04-26T08:49:29.011Z</time></trkpt><trkpt lat="44.3808226" lon="11.3372692"><ele>158.42857142857144</ele><time>2026-04-26T08:49:29.998Z</time></trkpt><trkpt lat="44.3807628" lon="11.3373019"><ele>158.7142857142857</ele><time>2026-04-26T08:49:31.005Z</time></trkpt><trkpt lat="44.3807027" lon="11.3373351"><ele>159.0</ele><time>2026-04-26T08:49:32.013Z</time></trkpt><trkpt lat="44.38058" lon="11.3373891"><ele>159.0</ele><time>2026-04-26T08:49:34.012Z</time></trkpt><trkpt lat="44.3805188" lon="11.3374133"><ele>159.0</ele><time>2026-04-26T08:49:35Z</time></trkpt><trkpt lat="44.3804563" lon="11.3374371"><ele>159.0</ele><time>2026-04-26T08:49:36.007Z</time></trkpt><trkpt lat="44.3803931" lon="11.3374598"><ele>159.0</ele><time>2026-04-26T08:49:37.003Z</time></trkpt><trkpt lat="44.3803286" lon="11.3374801"><ele>159.0</ele><time>2026-04-26T08:49:38.014Z</time></trkpt><trkpt lat="44.3802645" lon="11.3374972"><ele>159.0</ele><time>2026-04-26T08:49:38.999Z</time></trkpt><trkpt lat="44.3802004" lon="11.3375113"><ele>159.0</ele><time>2026-04-26T08:49:40.005Z</time></trkpt><trkpt lat="44.3801358" lon="11.3375231"><ele>159.0</ele><time>2026-04-26T08:49:41.005Z</time></trkpt><trkpt lat="44.3800715" lon="11.3375321"><ele>159.0</ele><time>2026-04-26T08:49:42.005Z</time></trkpt><trkpt lat="44.3800067" lon="11.3375383"><ele>159.0</ele><time>2026-04-26T08:49:42.997Z</time></trkpt><trkpt lat="44.3799428" lon="11.3375461"><ele>159.0</ele><time>2026-04-26T08:49:44.004Z</time></trkpt><trkpt lat="44.3798794" lon="11.3375522"><ele>159.0</ele><time>2026-04-26T08:49:45.003Z</time></trkpt><trkpt lat="44.3798164" lon="11.337558"><ele>159.0</ele><time>2026-04-26T08:49:45.999Z</time></trkpt><trkpt lat="44.3796916" lon="11.3375713"><ele>159.0</ele><time>2026-04-26T08:49:48.002Z</time></trkpt><trkpt lat="44.3795681" lon="11.3376004"><ele>160.14285714285714</ele><time>2026-04-26T08:49:50.009Z</time></trkpt><trkpt lat="44.3795059" lon="11.337619"><ele>161.2857142857143</ele><time>2026-04-26T08:49:51.005Z</time></trkpt><trkpt lat="44.3794426" lon="11.3376395"><ele>162.42857142857144</ele><time>2026-04-26T08:49:51.997Z</time></trkpt><trkpt lat="44.3793794" lon="11.3376637"><ele>163.57142857142856</ele><time>2026-04-26T08:49:53.006Z</time></trkpt><trkpt lat="44.3793167" lon="11.3376909"><ele>164.71428571428572</ele><time>2026-04-26T08:49:54.005Z</time></trkpt><trkpt lat="44.3792535" lon="11.3377176"><ele>165.85714285714286</ele><time>2026-04-26T08:49:55.007Z</time></trkpt><trkpt lat="44.3791899" lon="11.3377428"><ele>167.0</ele><time>2026-04-26T08:49:56.005Z</time></trkpt><trkpt lat="44.3791248" lon="11.3377664"><ele>167.0</ele><time>2026-04-26T08:49:56.994Z</time></trkpt><trkpt lat="44.3790591" lon="11.3377888"><ele>167.0</ele><time>2026-04-26T08:49:57.993Z</time></trkpt><trkpt lat="44.3789921" lon="11.3378084"><ele>167.0</ele><time>2026-04-26T08:49:58.996Z</time></trkpt><trkpt lat="44.3789246" lon="11.3378267"><ele>167.0</ele><time>2026-04-26T08:50:00Z</time></trkpt><trkpt lat="44.3788575" lon="11.3378425"><ele>167.0</ele><time>2026-04-26T08:50:01Z</time></trkpt><trkpt lat="44.3787895" lon="11.337857"><ele>167.0</ele><time>2026-04-26T08:50:02.01Z</time></trkpt><trkpt lat="44.3787202" lon="11.3378692"><ele>167.0</ele><time>2026-04-26T08:50:03.004Z</time></trkpt><trkpt lat="44.3786502" lon="11.3378799"><ele>167.85714285714286</ele><time>2026-04-26T08:50:04.006Z</time></trkpt><trkpt lat="44.3785802" lon="11.3378878"><ele>168.71428571428572</ele><time>2026-04-26T08:50:05.006Z</time></trkpt><trkpt lat="44.3785098" lon="11.3378949"><ele>169.57142857142856</ele><time>2026-04-26T08:50:06.011Z</time></trkpt><trkpt lat="44.3784388" lon="11.337901"><ele>170.42857142857144</ele><time>2026-04-26T08:50:07.009Z</time></trkpt><trkpt lat="44.3783668" lon="11.337902"><ele>171.2857142857143</ele><time>2026-04-26T08:50:08.008Z</time></trkpt><trkpt lat="44.3782939" lon="11.3379"><ele>172.14285714285714</ele><time>2026-04-26T08:50:09.001Z</time></trkpt><trkpt lat="44.3782198" lon="11.3378972"><ele>173.0</ele><time>2026-04-26T08:50:10Z</time></trkpt><trkpt lat="44.3781457" lon="11.3378911"><ele>173.0</ele><time>2026-04-26T08:50:11.016Z</time></trkpt><trkpt lat="44.3780715" lon="11.3378778"><ele>173.0</ele><time>2026-04-26T08:50:12.003Z</time></trkpt><trkpt lat="44.3779965" lon="11.3378604"><ele>173.0</ele><time>2026-04-26T08:50:12.999Z</time></trkpt><trkpt lat="44.377923" lon="11.3378353"><ele>173.0</ele><time>2026-04-26T08:50:14.006Z</time></trkpt><trkpt lat="44.3778508" lon="11.3378026"><ele>173.0</ele><time>2026-04-26T08:50:15.001Z</time></trkpt><trkpt lat="44.3777818" lon="11.3377594"><ele>173.0</ele><time>2026-04-26T08:50:16.012Z</time></trkpt><trkpt lat="44.3777173" lon="11.3377098"><ele>171.7142857142857</ele><time>2026-04-26T08:50:17.006Z</time></trkpt><trkpt lat="44.3776551" lon="11.337656"><ele>170.42857142857144</ele><time>2026-04-26T08:50:18.008Z</time></trkpt><trkpt lat="44.3775954" lon="11.3375997"><ele>169.14285714285714</ele><time>2026-04-26T08:50:19.001Z</time></trkpt><trkpt lat="44.3775388" lon="11.3375395"><ele>167.85714285714283</ele><time>2026-04-26T08:50:20.006Z</time></trkpt><trkpt lat="44.3774836" lon="11.3374781"><ele>166.57142857142856</ele><time>2026-04-26T08:50:21.008Z</time></trkpt><trkpt lat="44.3774289" lon="11.3374171"><ele>165.28571428571428</ele><time>2026-04-26T08:50:22.006Z</time></trkpt><trkpt lat="44.377375" lon="11.3373568"><ele>164.0</ele><time>2026-04-26T08:50:23.008Z</time></trkpt><trkpt lat="44.3773207" lon="11.3372965"><ele>163.99999999999997</ele><time>2026-04-26T08:50:24.004Z</time></trkpt><trkpt lat="44.3772681" lon="11.3372375"><ele>164.0</ele><time>2026-04-26T08:50:25.004Z</time></trkpt><trkpt lat="44.3772161" lon="11.33718"><ele>164.0</ele><time>2026-04-26T08:50:26.013Z</time></trkpt><trkpt lat="44.3771645" lon="11.3371221"><ele>164.0</ele><time>2026-04-26T08:50:26.992Z</time></trkpt><trkpt lat="44.3771132" lon="11.3370665"><ele>164.0</ele><time>2026-04-26T08:50:27.993Z</time></trkpt><trkpt lat="44.3770606" lon="11.3370168"><ele>163.99999999999997</ele><time>2026-04-26T08:50:29.014Z</time></trkpt><trkpt lat="44.3770059" lon="11.3369713"><ele>164.0</ele><time>2026-04-26T08:50:30.01Z</time></trkpt><trkpt lat="44.3768978" lon="11.3368835"><ele>163.75</ele><time>2026-04-26T08:50:32.006Z</time></trkpt><trkpt lat="44.3767827" lon="11.3368184"><ele>163.5</ele><time>2026-04-26T08:50:34.006Z</time></trkpt><trkpt lat="44.3766605" lon="11.3367801"><ele>163.25</ele><time>2026-04-26T08:50:36.005Z</time></trkpt><trkpt lat="44.3765366" lon="11.3367669"><ele>163.0</ele><time>2026-04-26T08:50:38Z</time></trkpt><trkpt lat="44.3764131" lon="11.3367824"><ele>163.5</ele><time>2026-04-26T08:50:40.003Z</time></trkpt><trkpt lat="44.3762909" lon="11.336814"><ele>164.0</ele><time>2026-04-26T08:50:42.018Z</time></trkpt><trkpt lat="44.3761704" lon="11.3368555"><ele>164.5</ele><time>2026-04-26T08:50:44Z</time></trkpt><trkpt lat="44.3760524" lon="11.3369087"><ele>165.0</ele><time>2026-04-26T08:50:46.007Z</time></trkpt><trkpt lat="44.3759389" lon="11.3369772"><ele>165.0</ele><time>2026-04-26T08:50:48.005Z</time></trkpt><trkpt lat="44.3758271" lon="11.3370549"><ele>165.0</ele><time>2026-04-26T08:50:50.012Z</time></trkpt><trkpt lat="44.3757167" lon="11.3371404"><ele>165.0</ele><time>2026-04-26T08:50:52.002Z</time></trkpt><trkpt lat="44.3756621" lon="11.3371857"><ele>165.0</ele><time>2026-04-26T08:50:53Z</time></trkpt><trkpt lat="44.3756076" lon="11.3372329"><ele>165.0</ele><time>2026-04-26T08:50:54.004Z</time></trkpt><trkpt lat="44.3755536" lon="11.3372815"><ele>165.0</ele><time>2026-04-26T08:50:55.019Z</time></trkpt><trkpt lat="44.3754996" lon="11.3373313"><ele>164.71428571428572</ele><time>2026-04-26T08:50:56.007Z</time></trkpt><trkpt lat="44.3754453" lon="11.3373811"><ele>164.42857142857144</ele><time>2026-04-26T08:50:57.004Z</time></trkpt><trkpt lat="44.3753904" lon="11.3374314"><ele>164.14285714285717</ele><time>2026-04-26T08:50:58.006Z</time></trkpt><trkpt lat="44.3753342" lon="11.3374826"><ele>163.85714285714286</ele><time>2026-04-26T08:50:59.01Z</time></trkpt><trkpt lat="44.3752775" lon="11.3375328"><ele>163.57142857142856</ele><time>2026-04-26T08:51:00.007Z</time></trkpt><trkpt lat="44.3752203" lon="11.3375835"><ele>163.2857142857143</ele><time>2026-04-26T08:51:01.001Z</time></trkpt><trkpt lat="44.3751623" lon="11.3376338"><ele>163.0</ele><time>2026-04-26T08:51:02.004Z</time></trkpt><trkpt lat="44.3751052" lon="11.3376878"><ele>163.0</ele><time>2026-04-26T08:51:03.001Z</time></trkpt><trkpt lat="44.3750495" lon="11.3377453"><ele>163.0</ele><time>2026-04-26T08:51:04.007Z</time></trkpt><trkpt lat="44.3749944" lon="11.3378054"><ele>163.0</ele><time>2026-04-26T08:51:05.006Z</time></trkpt><trkpt lat="44.3749401" lon="11.3378684"><ele>163.0</ele><time>2026-04-26T08:51:06.008Z</time></trkpt><trkpt lat="44.374887" lon="11.3379336"><ele>163.0</ele><time>2026-04-26T08:51:07.008Z</time></trkpt><trkpt lat="44.374835" lon="11.3380001"><ele>163.0</ele><time>2026-04-26T08:51:07.997Z</time></trkpt><trkpt lat="44.3747833" lon="11.3380661"><ele>163.0</ele><time>2026-04-26T08:51:09.007Z</time></trkpt><trkpt lat="44.3747316" lon="11.3381309"><ele>164.0</ele><time>2026-04-26T08:51:10.005Z</time></trkpt><trkpt lat="44.3746794" lon="11.3381937"><ele>165.0</ele><time>2026-04-26T08:51:11.002Z</time></trkpt><trkpt lat="44.374627" lon="11.3382553"><ele>166.0</ele><time>2026-04-26T08:51:12.008Z</time></trkpt><trkpt lat="44.3745756" lon="11.3383146"><ele>167.0</ele><time>2026-04-26T08:51:13.001Z</time></trkpt><trkpt lat="44.374526" lon="11.3383716"><ele>168.0</ele><time>2026-04-26T08:51:14.006Z</time></trkpt><trkpt lat="44.374473" lon="11.3384211"><ele>169.0</ele><time>2026-04-26T08:51:14.996Z</time></trkpt><trkpt lat="44.3744174" lon="11.3384673"><ele>170.0</ele><time>2026-04-26T08:51:16Z</time></trkpt><trkpt lat="44.3743549" lon="11.3385057"><ele>170.0</ele><time>2026-04-26T08:51:17.007Z</time></trkpt><trkpt lat="44.3742898" lon="11.3385362"><ele>170.0</ele><time>2026-04-26T08:51:18.009Z</time></trkpt><trkpt lat="44.3742268" lon="11.3385587"><ele>170.0</ele><time>2026-04-26T08:51:18.988Z</time></trkpt><trkpt lat="44.3741616" lon="11.3385809"><ele>170.0</ele><time>2026-04-26T08:51:20.008Z</time></trkpt><trkpt lat="44.3740979" lon="11.3386024"><ele>170.0</ele><time>2026-04-26T08:51:21.004Z</time></trkpt><trkpt lat="44.3739742" lon="11.3386444"><ele>170.0</ele><time>2026-04-26T08:51:23.005Z</time></trkpt><trkpt lat="44.3739124" lon="11.3386632"><ele>170.4</ele><time>2026-04-26T08:51:24.01Z</time></trkpt><trkpt lat="44.373851" lon="11.3386869"><ele>170.8</ele><time>2026-04-26T08:51:24.996Z</time></trkpt><trkpt lat="44.3737363" lon="11.3387492"><ele>171.2</ele><time>2026-04-26T08:51:27.005Z</time></trkpt><trkpt lat="44.3736294" lon="11.338827"><ele>171.6</ele><time>2026-04-26T08:51:29.007Z</time></trkpt><trkpt lat="44.3735265" lon="11.3389108"><ele>172.0</ele><time>2026-04-26T08:51:30.997Z</time></trkpt><trkpt lat="44.3734299" lon="11.3390035"><ele>172.0</ele><time>2026-04-26T08:51:32.993Z</time></trkpt><trkpt lat="44.3733395" lon="11.3391004"><ele>172.0</ele><time>2026-04-26T08:51:35.006Z</time></trkpt><trkpt lat="44.373245" lon="11.3391873"><ele>172.0</ele><time>2026-04-26T08:51:37.003Z</time></trkpt><trkpt lat="44.3731446" lon="11.3392668"><ele>172.0</ele><time>2026-04-26T08:51:38.997Z</time></trkpt><trkpt lat="44.3730415" lon="11.3393259"><ele>174.0</ele><time>2026-04-26T08:51:41.004Z</time></trkpt><trkpt lat="44.3729351" lon="11.3393764"><ele>176.0</ele><time>2026-04-26T08:51:43.001Z</time></trkpt><trkpt lat="44.3728335" lon="11.3394227"><ele>178.0</ele><time>2026-04-26T08:51:45.021Z</time></trkpt><trkpt lat="44.3727331" lon="11.3394651"><ele>180.0</ele><time>2026-04-26T08:51:47.014Z</time></trkpt><trkpt lat="44.3726359" lon="11.3395096"><ele>182.0</ele><time>2026-04-26T08:51:48.994Z</time></trkpt><trkpt lat="44.3725394" lon="11.3395506"><ele>182.0</ele><time>2026-04-26T08:51:50.998Z</time></trkpt><trkpt lat="44.3724446" lon="11.3395901"><ele>182.0</ele><time>2026-04-26T08:51:52.995Z</time></trkpt><trkpt lat="44.3723493" lon="11.339627"><ele>182.0</ele><time>2026-04-26T08:51:54.999Z</time></trkpt><trkpt lat="44.3722517" lon="11.339661"><ele>182.0</ele><time>2026-04-26T08:51:57Z</time></trkpt><trkpt lat="44.3721546" lon="11.3396853"><ele>182.0</ele><time>2026-04-26T08:51:59.004Z</time></trkpt><trkpt lat="44.3720529" lon="11.3397086"><ele>180.0</ele><time>2026-04-26T08:52:01.021Z</time></trkpt><trkpt lat="44.3719619" lon="11.3397494"><ele>178.0</ele><time>2026-04-26T08:52:03.008Z</time></trkpt><trkpt lat="44.3718692" lon="11.3398044"><ele>176.0</ele><time>2026-04-26T08:52:05.008Z</time></trkpt><trkpt lat="44.3717658" lon="11.3398599"><ele>174.0</ele><time>2026-04-26T08:52:07.006Z</time></trkpt><trkpt lat="44.3716608" lon="11.3399073"><ele>172.0</ele><time>2026-04-26T08:52:09.011Z</time></trkpt><trkpt lat="44.3715584" lon="11.3399542"><ele>172.0</ele><time>2026-04-26T08:52:10.991Z</time></trkpt><trkpt lat="44.3714522" lon="11.3400057"><ele>172.0</ele><time>2026-04-26T08:52:13.005Z</time></trkpt><trkpt lat="44.3713458" lon="11.340064"><ele>172.0</ele><time>2026-04-26T08:52:14.999Z</time></trkpt><trkpt lat="44.371239" lon="11.3401107"><ele>172.0</ele><time>2026-04-26T08:52:17.005Z</time></trkpt><trkpt lat="44.3711201" lon="11.340097"><ele>172.00000000000003</ele><time>2026-04-26T08:52:19.018Z</time></trkpt><trkpt lat="44.3710112" lon="11.3400178"><ele>172.0</ele><time>2026-04-26T08:52:21.007Z</time></trkpt><trkpt lat="44.3709634" lon="11.3399592"><ele>172.0</ele><time>2026-04-26T08:52:22.016Z</time></trkpt><trkpt lat="44.3709216" lon="11.3398929"><ele>172.0</ele><time>2026-04-26T08:52:23.005Z</time></trkpt><trkpt lat="44.3708804" lon="11.339824"><ele>172.0</ele><time>2026-04-26T08:52:24.016Z</time></trkpt><trkpt lat="44.3708412" lon="11.3397539"><ele>172.00000000000003</ele><time>2026-04-26T08:52:25.005Z</time></trkpt><trkpt lat="44.3708016" lon="11.3396836"><ele>172.0</ele><time>2026-04-26T08:52:26.006Z</time></trkpt><trkpt lat="44.3707633" lon="11.339611"><ele>172.42857142857144</ele><time>2026-04-26T08:52:27.004Z</time></trkpt><trkpt lat="44.3707252" lon="11.3395399"><ele>172.85714285714286</ele><time>2026-04-26T08:52:28.018Z</time></trkpt><trkpt lat="44.3706881" lon="11.3394673"><ele>173.28571428571428</ele><time>2026-04-26T08:52:29.007Z</time></trkpt><trkpt lat="44.3706508" lon="11.3393944"><ele>173.71428571428572</ele><time>2026-04-26T08:52:30.012Z</time></trkpt><trkpt lat="44.3706145" lon="11.3393214"><ele>174.14285714285714</ele><time>2026-04-26T08:52:31.001Z</time></trkpt><trkpt lat="44.3705383" lon="11.3391801"><ele>174.57142857142858</ele><time>2026-04-26T08:52:33.008Z</time></trkpt><trkpt lat="44.3705007" lon="11.3391083"><ele>175.0</ele><time>2026-04-26T08:52:34.019Z</time></trkpt><trkpt lat="44.3704631" lon="11.3390356"><ele>175.0</ele><time>2026-04-26T08:52:35.01Z</time></trkpt><trkpt lat="44.3704271" lon="11.3389603"><ele>175.0</ele><time>2026-04-26T08:52:36.008Z</time></trkpt><trkpt lat="44.3703895" lon="11.3388849"><ele>175.0</ele><time>2026-04-26T08:52:37.008Z</time></trkpt><trkpt lat="44.3703528" lon="11.3388102"><ele>175.0</ele><time>2026-04-26T08:52:38.006Z</time></trkpt><trkpt lat="44.3703148" lon="11.3387362"><ele>175.0</ele><time>2026-04-26T08:52:39.018Z</time></trkpt><trkpt lat="44.3702774" lon="11.3386639"><ele>175.0</ele><time>2026-04-26T08:52:40.003Z</time></trkpt><trkpt lat="44.3702397" lon="11.3385932"><ele>175.0</ele><time>2026-04-26T08:52:41.017Z</time></trkpt><trkpt lat="44.3701603" lon="11.3384575"><ele>175.4</ele><time>2026-04-26T08:52:43.007Z</time></trkpt><trkpt lat="44.3700592" lon="11.3383577"><ele>175.8</ele><time>2026-04-26T08:52:45.007Z</time></trkpt><trkpt lat="44.3699436" lon="11.3382947"><ele>176.2</ele><time>2026-04-26T08:52:47.015Z</time></trkpt><trkpt lat="44.3698183" lon="11.3382694"><ele>176.6</ele><time>2026-04-26T08:52:49.008Z</time></trkpt><trkpt lat="44.369754" lon="11.3382758"><ele>177.0</ele><time>2026-04-26T08:52:50.004Z</time></trkpt><trkpt lat="44.3696892" lon="11.3382913"><ele>177.0</ele><time>2026-04-26T08:52:51.01Z</time></trkpt><trkpt lat="44.3696271" lon="11.3383186"><ele>177.0</ele><time>2026-04-26T08:52:52.007Z</time></trkpt><trkpt lat="44.3695677" lon="11.3383562"><ele>177.0</ele><time>2026-04-26T08:52:53.004Z</time></trkpt><trkpt lat="44.3695097" lon="11.3384016"><ele>177.0</ele><time>2026-04-26T08:52:54Z</time></trkpt><trkpt lat="44.3694535" lon="11.338447"><ele>177.0</ele><time>2026-04-26T08:52:55.002Z</time></trkpt><trkpt lat="44.3694003" lon="11.3385036"><ele>177.0</ele><time>2026-04-26T08:52:56.01Z</time></trkpt><trkpt lat="44.3693477" lon="11.3385587"><ele>177.0</ele><time>2026-04-26T08:52:57.001Z</time></trkpt><trkpt lat="44.369295" lon="11.3386133"><ele>177.0</ele><time>2026-04-26T08:52:57.998Z</time></trkpt><trkpt lat="44.3692434" lon="11.3386675"><ele>177.0</ele><time>2026-04-26T08:52:59.002Z</time></trkpt><trkpt lat="44.3691925" lon="11.3387244"><ele>177.0</ele><time>2026-04-26T08:53:00.009Z</time></trkpt><trkpt lat="44.369141" lon="11.3387801"><ele>177.0</ele><time>2026-04-26T08:53:01Z</time></trkpt><trkpt lat="44.3690894" lon="11.3388328"><ele>177.0</ele><time>2026-04-26T08:53:02.004Z</time></trkpt><trkpt lat="44.3690383" lon="11.3388847"><ele>177.0</ele><time>2026-04-26T08:53:03.004Z</time></trkpt><trkpt lat="44.3689394" lon="11.3389923"><ele>177.0</ele><time>2026-04-26T08:53:05.009Z</time></trkpt><trkpt lat="44.3688901" lon="11.3390477"><ele>176.75</ele><time>2026-04-26T08:53:06.004Z</time></trkpt><trkpt lat="44.3687924" lon="11.3391557"><ele>176.5</ele><time>2026-04-26T08:53:08.006Z</time></trkpt><trkpt lat="44.3686939" lon="11.3392625"><ele>176.25</ele><time>2026-04-26T08:53:10.002Z</time></trkpt><trkpt lat="44.3685952" lon="11.3393686"><ele>176.0</ele><time>2026-04-26T08:53:12.011Z</time></trkpt><trkpt lat="44.3684993" lon="11.3394739"><ele>176.0</ele><time>2026-04-26T08:53:14.006Z</time></trkpt><trkpt lat="44.368401" lon="11.3395786"><ele>176.0</ele><time>2026-04-26T08:53:16.002Z</time></trkpt><trkpt lat="44.3683503" lon="11.3396319"><ele>176.0</ele><time>2026-04-26T08:53:17.01Z</time></trkpt><trkpt lat="44.3682996" lon="11.3396848"><ele>176.0</ele><time>2026-04-26T08:53:17.997Z</time></trkpt><trkpt lat="44.3682485" lon="11.3397369"><ele>176.0</ele><time>2026-04-26T08:53:19.004Z</time></trkpt><trkpt lat="44.3681451" lon="11.3398368"><ele>176.0</ele><time>2026-04-26T08:53:21.002Z</time></trkpt><trkpt lat="44.3680352" lon="11.3399261"><ele>176.71428571428572</ele><time>2026-04-26T08:53:23.008Z</time></trkpt><trkpt lat="44.3679772" lon="11.3399636"><ele>177.42857142857142</ele><time>2026-04-26T08:53:24.003Z</time></trkpt><trkpt lat="44.3679156" lon="11.3400009"><ele>178.14285714285714</ele><time>2026-04-26T08:53:24.996Z</time></trkpt><trkpt lat="44.3678555" lon="11.3400348"><ele>178.85714285714286</ele><time>2026-04-26T08:53:26.002Z</time></trkpt><trkpt lat="44.3677939" lon="11.3400653"><ele>179.57142857142856</ele><time>2026-04-26T08:53:27.01Z</time></trkpt><trkpt lat="44.3677327" lon="11.3401001"><ele>180.28571428571428</ele><time>2026-04-26T08:53:27.998Z</time></trkpt><trkpt lat="44.367673" lon="11.3401334"><ele>181.0</ele><time>2026-04-26T08:53:29.002Z</time></trkpt><trkpt lat="44.367612" lon="11.3401628"><ele>181.0</ele><time>2026-04-26T08:53:29.989Z</time></trkpt><trkpt lat="44.3675516" lon="11.3401919"><ele>181.0</ele><time>2026-04-26T08:53:31.002Z</time></trkpt><trkpt lat="44.3674927" lon="11.3402237"><ele>181.0</ele><time>2026-04-26T08:53:32.001Z</time></trkpt><trkpt lat="44.3673735" lon="11.3402766"><ele>181.0</ele><time>2026-04-26T08:53:34.009Z</time></trkpt><trkpt lat="44.3673081" lon="11.3403042"><ele>181.0</ele><time>2026-04-26T08:53:35Z</time></trkpt><trkpt lat="44.3671953" lon="11.3403573"><ele>181.0</ele><time>2026-04-26T08:53:37.003Z</time></trkpt><trkpt lat="44.3670806" lon="11.3404046"><ele>180.83333333333334</ele><time>2026-04-26T08:53:39.001Z</time></trkpt><trkpt lat="44.3670191" lon="11.3404284"><ele>180.66666666666669</ele><time>2026-04-26T08:53:40.008Z</time></trkpt><trkpt lat="44.3669568" lon="11.3404495"><ele>180.5</ele><time>2026-04-26T08:53:41.008Z</time></trkpt><trkpt lat="44.3668318" lon="11.3404937"><ele>180.33333333333334</ele><time>2026-04-26T08:53:43.004Z</time></trkpt><trkpt lat="44.3667674" lon="11.3405119"><ele>180.16666666666666</ele><time>2026-04-26T08:53:44.001Z</time></trkpt><trkpt lat="44.3667024" lon="11.3405246"><ele>180.0</ele><time>2026-04-26T08:53:45.002Z</time></trkpt><trkpt lat="44.3666349" lon="11.3405384"><ele>180.0</ele><time>2026-04-26T08:53:46.004Z</time></trkpt><trkpt lat="44.3665682" lon="11.3405465"><ele>180.0</ele><time>2026-04-26T08:53:47.006Z</time></trkpt><trkpt lat="44.3665024" lon="11.3405461"><ele>180.0</ele><time>2026-04-26T08:53:48.006Z</time></trkpt><trkpt lat="44.3664351" lon="11.3405389"><ele>180.0</ele><time>2026-04-26T08:53:49.002Z</time></trkpt><trkpt lat="44.3663674" lon="11.3405284"><ele>180.0</ele><time>2026-04-26T08:53:50.005Z</time></trkpt><trkpt lat="44.3663021" lon="11.3405101"><ele>180.0</ele><time>2026-04-26T08:53:51.003Z</time></trkpt><trkpt lat="44.3662386" lon="11.3404861"><ele>180.0</ele><time>2026-04-26T08:53:52.004Z</time></trkpt><trkpt lat="44.3661761" lon="11.3404603"><ele>179.42857142857142</ele><time>2026-04-26T08:53:53.014Z</time></trkpt><trkpt lat="44.366114" lon="11.3404316"><ele>178.85714285714286</ele><time>2026-04-26T08:53:53.992Z</time></trkpt><trkpt lat="44.3660531" lon="11.3403957"><ele>178.28571428571428</ele><time>2026-04-26T08:53:54.99Z</time></trkpt><trkpt lat="44.3659953" lon="11.3403518"><ele>177.71428571428572</ele><time>2026-04-26T08:53:56Z</time></trkpt><trkpt lat="44.3659385" lon="11.3403066"><ele>177.14285714285714</ele><time>2026-04-26T08:53:56.998Z</time></trkpt><trkpt lat="44.3658824" lon="11.3402595"><ele>176.57142857142858</ele><time>2026-04-26T08:53:58.001Z</time></trkpt><trkpt lat="44.3658299" lon="11.3402062"><ele>176.0</ele><time>2026-04-26T08:53:58.996Z</time></trkpt><trkpt lat="44.3657792" lon="11.3401504"><ele>176.0</ele><time>2026-04-26T08:53:59.993Z</time></trkpt><trkpt lat="44.3657303" lon="11.3400902"><ele>176.0</ele><time>2026-04-26T08:54:01.015Z</time></trkpt><trkpt lat="44.3656834" lon="11.3400257"><ele>176.0</ele><time>2026-04-26T08:54:02.005Z</time></trkpt><trkpt lat="44.3656389" lon="11.3399589"><ele>176.0</ele><time>2026-04-26T08:54:03.012Z</time></trkpt><trkpt lat="44.3655977" lon="11.3398886"><ele>176.0</ele><time>2026-04-26T08:54:03.998Z</time></trkpt><trkpt lat="44.3655591" lon="11.3398158"><ele>176.0</ele><time>2026-04-26T08:54:05.011Z</time></trkpt><trkpt lat="44.3655236" lon="11.3397405"><ele>176.0</ele><time>2026-04-26T08:54:06.002Z</time></trkpt><trkpt lat="44.3654915" lon="11.3396632"><ele>176.14285714285714</ele><time>2026-04-26T08:54:06.999Z</time></trkpt><trkpt lat="44.3654619" lon="11.3395846"><ele>176.28571428571428</ele><time>2026-04-26T08:54:07.995Z</time></trkpt><trkpt lat="44.3654353" lon="11.3395021"><ele>176.42857142857144</ele><time>2026-04-26T08:54:08.998Z</time></trkpt><trkpt lat="44.3654102" lon="11.3394185"><ele>176.57142857142856</ele><time>2026-04-26T08:54:09.989Z</time></trkpt><trkpt lat="44.3653869" lon="11.3393332"><ele>176.7142857142857</ele><time>2026-04-26T08:54:10.996Z</time></trkpt><trkpt lat="44.3653682" lon="11.3392455"><ele>176.85714285714286</ele><time>2026-04-26T08:54:12.003Z</time></trkpt><trkpt lat="44.3653523" lon="11.3391565"><ele>177.0</ele><time>2026-04-26T08:54:12.994Z</time></trkpt><trkpt lat="44.3653394" lon="11.3390669"><ele>177.0</ele><time>2026-04-26T08:54:13.996Z</time></trkpt><trkpt lat="44.3653256" lon="11.3389775"><ele>177.0</ele><time>2026-04-26T08:54:15.007Z</time></trkpt><trkpt lat="44.3653125" lon="11.3388885"><ele>177.0</ele><time>2026-04-26T08:54:16Z</time></trkpt><trkpt lat="44.3653009" lon="11.3388002"><ele>177.0</ele><time>2026-04-26T08:54:16.995Z</time></trkpt><trkpt lat="44.3652897" lon="11.3387123"><ele>177.0</ele><time>2026-04-26T08:54:18.005Z</time></trkpt><trkpt lat="44.3652787" lon="11.338625"><ele>177.0</ele><time>2026-04-26T08:54:19.004Z</time></trkpt><trkpt lat="44.3652563" lon="11.3384528"><ele>177.0</ele><time>2026-04-26T08:54:20.994Z</time></trkpt><trkpt lat="44.3652324" lon="11.3382825"><ele>177.0</ele><time>2026-04-26T08:54:23.003Z</time></trkpt><trkpt lat="44.3652033" lon="11.3381154"><ele>177.0</ele><time>2026-04-26T08:54:24.992Z</time></trkpt><trkpt lat="44.3651592" lon="11.3379581"><ele>177.0</ele><time>2026-04-26T08:54:27.016Z</time></trkpt><trkpt lat="44.3650909" lon="11.337822"><ele>177.0</ele><time>2026-04-26T08:54:29.007Z</time></trkpt><trkpt lat="44.3650026" lon="11.3377151"><ele>177.75</ele><time>2026-04-26T08:54:31.005Z</time></trkpt><trkpt lat="44.3649012" lon="11.3376352"><ele>178.5</ele><time>2026-04-26T08:54:33.005Z</time></trkpt><trkpt lat="44.3647979" lon="11.3375649"><ele>179.25</ele><time>2026-04-26T08:54:34.999Z</time></trkpt><trkpt lat="44.3646957" lon="11.3374969"><ele>180.0</ele><time>2026-04-26T08:54:37.001Z</time></trkpt><trkpt lat="44.3645978" lon="11.3374298"><ele>180.0</ele><time>2026-04-26T08:54:39.005Z</time></trkpt><trkpt lat="44.3644974" lon="11.3373611"><ele>180.0</ele><time>2026-04-26T08:54:40.999Z</time></trkpt><trkpt lat="44.3643989" lon="11.3372919"><ele>180.0</ele><time>2026-04-26T08:54:43.002Z</time></trkpt><trkpt lat="44.3643031" lon="11.3372261"><ele>180.0</ele><time>2026-04-26T08:54:45.002Z</time></trkpt><trkpt lat="44.3642096" lon="11.3371569"><ele>180.0</ele><time>2026-04-26T08:54:47.008Z</time></trkpt><trkpt lat="44.3641169" lon="11.3370922"><ele>180.0</ele><time>2026-04-26T08:54:49.002Z</time></trkpt><trkpt lat="44.3640276" lon="11.3370273"><ele>180.0</ele><time>2026-04-26T08:54:51.01Z</time></trkpt><trkpt lat="44.3639398" lon="11.3369644"><ele>180.0</ele><time>2026-04-26T08:54:53.009Z</time></trkpt><trkpt lat="44.3638558" lon="11.3369041"><ele>180.0</ele><time>2026-04-26T08:54:55.005Z</time></trkpt><trkpt lat="44.363776" lon="11.3368465"><ele>180.0</ele><time>2026-04-26T08:54:57Z</time></trkpt><trkpt lat="44.3636991" lon="11.3367922"><ele>182.5</ele><time>2026-04-26T08:54:59.002Z</time></trkpt><trkpt lat="44.3636238" lon="11.3367359"><ele>185.0</ele><time>2026-04-26T08:55:01.015Z</time></trkpt><trkpt lat="44.3635504" lon="11.3366826"><ele>187.5</ele><time>2026-04-26T08:55:03.008Z</time></trkpt><trkpt lat="44.363472" lon="11.3366292"><ele>190.0</ele><time>2026-04-26T08:55:05.001Z</time></trkpt><trkpt lat="44.363396" lon="11.3365714"><ele>192.5</ele><time>2026-04-26T08:55:07.007Z</time></trkpt><trkpt lat="44.3633172" lon="11.3365167"><ele>195.0</ele><time>2026-04-26T08:55:09.011Z</time></trkpt><trkpt lat="44.3632379" lon="11.3364577"><ele>195.0</ele><time>2026-04-26T08:55:11.003Z</time></trkpt><trkpt lat="44.3631566" lon="11.3364002"><ele>195.0</ele><time>2026-04-26T08:55:12.99Z</time></trkpt><trkpt lat="44.3630729" lon="11.3363392"><ele>195.0</ele><time>2026-04-26T08:55:15.01Z</time></trkpt><trkpt lat="44.3629912" lon="11.3362807"><ele>195.0</ele><time>2026-04-26T08:55:17.002Z</time></trkpt><trkpt lat="44.3629073" lon="11.3362211"><ele>195.0</ele><time>2026-04-26T08:55:19.005Z</time></trkpt><trkpt lat="44.3628225" lon="11.3361633"><ele>194.2</ele><time>2026-04-26T08:55:21.001Z</time></trkpt><trkpt lat="44.3627377" lon="11.336103"><ele>193.4</ele><time>2026-04-26T08:55:22.996Z</time></trkpt><trkpt lat="44.3626484" lon="11.3360401"><ele>192.60000000000002</ele><time>2026-04-26T08:55:25.003Z</time></trkpt><trkpt lat="44.3625559" lon="11.3359742"><ele>191.8</ele><time>2026-04-26T08:55:26.998Z</time></trkpt><trkpt lat="44.3624591" lon="11.3359076"><ele>191.0</ele><time>2026-04-26T08:55:29.004Z</time></trkpt><trkpt lat="44.3623565" lon="11.3358348"><ele>191.0</ele><time>2026-04-26T08:55:31.007Z</time></trkpt><trkpt lat="44.3622453" lon="11.3357534"><ele>191.0</ele><time>2026-04-26T08:55:32.998Z</time></trkpt><trkpt lat="44.3621873" lon="11.3357088"><ele>191.0</ele><time>2026-04-26T08:55:34.007Z</time></trkpt><trkpt lat="44.3621286" lon="11.3356588"><ele>191.0</ele><time>2026-04-26T08:55:35.002Z</time></trkpt><trkpt lat="44.3620688" lon="11.3356048"><ele>191.0</ele><time>2026-04-26T08:55:36.018Z</time></trkpt><trkpt lat="44.362009" lon="11.3355452"><ele>191.0</ele><time>2026-04-26T08:55:37.015Z</time></trkpt><trkpt lat="44.361951" lon="11.3354796"><ele>190.85714285714286</ele><time>2026-04-26T08:55:38.005Z</time></trkpt><trkpt lat="44.3618933" lon="11.3354115"><ele>190.7142857142857</ele><time>2026-04-26T08:55:39.009Z</time></trkpt><trkpt lat="44.3618381" lon="11.3353398"><ele>190.57142857142856</ele><time>2026-04-26T08:55:40.011Z</time></trkpt><trkpt lat="44.3617863" lon="11.3352654"><ele>190.42857142857144</ele><time>2026-04-26T08:55:41.007Z</time></trkpt><trkpt lat="44.3617389" lon="11.3351872"><ele>190.28571428571428</ele><time>2026-04-26T08:55:42.006Z</time></trkpt><trkpt lat="44.3616948" lon="11.3351086"><ele>190.14285714285714</ele><time>2026-04-26T08:55:43Z</time></trkpt><trkpt lat="44.3616548" lon="11.3350292"><ele>190.0</ele><time>2026-04-26T08:55:44.016Z</time></trkpt><trkpt lat="44.3616169" lon="11.3349501"><ele>190.0</ele><time>2026-04-26T08:55:45.008Z</time></trkpt><trkpt lat="44.3615816" lon="11.3348693"><ele>190.0</ele><time>2026-04-26T08:55:46.002Z</time></trkpt><trkpt lat="44.3615506" lon="11.3347845"><ele>190.0</ele><time>2026-04-26T08:55:46.999Z</time></trkpt><trkpt lat="44.3615245" lon="11.3346974"><ele>190.0</ele><time>2026-04-26T08:55:48.011Z</time></trkpt><trkpt lat="44.3615044" lon="11.3346078"><ele>190.0</ele><time>2026-04-26T08:55:49.009Z</time></trkpt><trkpt lat="44.3614879" lon="11.3345176"><ele>190.0</ele><time>2026-04-26T08:55:49.997Z</time></trkpt><trkpt lat="44.361475" lon="11.3344277"><ele>190.0</ele><time>2026-04-26T08:55:51.001Z</time></trkpt><trkpt lat="44.3614668" lon="11.3343371"><ele>189.85714285714286</ele><time>2026-04-26T08:55:51.997Z</time></trkpt><trkpt lat="44.3614601" lon="11.3342466"><ele>189.71428571428572</ele><time>2026-04-26T08:55:53.008Z</time></trkpt><trkpt lat="44.3614533" lon="11.3341563"><ele>189.57142857142856</ele><time>2026-04-26T08:55:54.004Z</time></trkpt><trkpt lat="44.3614473" lon="11.334067"><ele>189.42857142857144</ele><time>2026-04-26T08:55:55.002Z</time></trkpt><trkpt lat="44.3614419" lon="11.3339781"><ele>189.28571428571428</ele><time>2026-04-26T08:55:56.016Z</time></trkpt><trkpt lat="44.3614359" lon="11.3338897"><ele>189.14285714285714</ele><time>2026-04-26T08:55:57.011Z</time></trkpt><trkpt lat="44.3614291" lon="11.3338019"><ele>189.0</ele><time>2026-04-26T08:55:58.005Z</time></trkpt><trkpt lat="44.3614167" lon="11.333628"><ele>189.0</ele><time>2026-04-26T08:56:00.001Z</time></trkpt><trkpt lat="44.361405" lon="11.3334546"><ele>189.0</ele><time>2026-04-26T08:56:02.016Z</time></trkpt><trkpt lat="44.3613919" lon="11.3332828"><ele>189.0</ele><time>2026-04-26T08:56:04.017Z</time></trkpt><trkpt lat="44.361379" lon="11.3331116"><ele>189.0</ele><time>2026-04-26T08:56:06.028Z</time></trkpt><trkpt lat="44.3613654" lon="11.3329409"><ele>190.25</ele><time>2026-04-26T08:56:07.997Z</time></trkpt><trkpt lat="44.3613521" lon="11.3327716"><ele>191.5</ele><time>2026-04-26T08:56:10.005Z</time></trkpt><trkpt lat="44.3613389" lon="11.3326042"><ele>192.75</ele><time>2026-04-26T08:56:12.013Z</time></trkpt><trkpt lat="44.3613266" lon="11.3324373"><ele>194.0</ele><time>2026-04-26T08:56:13.999Z</time></trkpt><trkpt lat="44.3613119" lon="11.3322717"><ele>194.25</ele><time>2026-04-26T08:56:16.007Z</time></trkpt><trkpt lat="44.361299" lon="11.3321037"><ele>194.5</ele><time>2026-04-26T08:56:18.001Z</time></trkpt><trkpt lat="44.3612831" lon="11.3319347"><ele>194.75</ele><time>2026-04-26T08:56:20.014Z</time></trkpt><trkpt lat="44.3612659" lon="11.3317657"><ele>195.0</ele><time>2026-04-26T08:56:22.005Z</time></trkpt><trkpt lat="44.3612396" lon="11.331596"><ele>195.0</ele><time>2026-04-26T08:56:24Z</time></trkpt><trkpt lat="44.3612032" lon="11.3314283"><ele>195.0</ele><time>2026-04-26T08:56:25.989Z</time></trkpt><trkpt lat="44.3611749" lon="11.331349"><ele>195.0</ele><time>2026-04-26T08:56:27.003Z</time></trkpt><trkpt lat="44.3611434" lon="11.3312724"><ele>195.0</ele><time>2026-04-26T08:56:28.012Z</time></trkpt><trkpt lat="44.3610697" lon="11.331132"><ele>195.0</ele><time>2026-04-26T08:56:30.011Z</time></trkpt><trkpt lat="44.3609767" lon="11.3310162"><ele>194.25</ele><time>2026-04-26T08:56:32.012Z</time></trkpt><trkpt lat="44.3608724" lon="11.3309191"><ele>193.5</ele><time>2026-04-26T08:56:34.012Z</time></trkpt><trkpt lat="44.3607616" lon="11.3308387"><ele>192.75</ele><time>2026-04-26T08:56:36.015Z</time></trkpt><trkpt lat="44.3606486" lon="11.3307694"><ele>192.0</ele><time>2026-04-26T08:56:38Z</time></trkpt><trkpt lat="44.3605331" lon="11.3307161"><ele>192.2</ele><time>2026-04-26T08:56:40.015Z</time></trkpt><trkpt lat="44.3604159" lon="11.3306686"><ele>192.39999999999998</ele><time>2026-04-26T08:56:42.016Z</time></trkpt><trkpt lat="44.3602971" lon="11.3306273"><ele>192.60000000000002</ele><time>2026-04-26T08:56:44.008Z</time></trkpt><trkpt lat="44.3601749" lon="11.3305867"><ele>192.8</ele><time>2026-04-26T08:56:46Z</time></trkpt><trkpt lat="44.3601144" lon="11.3305617"><ele>193.0</ele><time>2026-04-26T08:56:47.002Z</time></trkpt><trkpt lat="44.3600535" lon="11.3305359"><ele>193.0</ele><time>2026-04-26T08:56:48Z</time></trkpt><trkpt lat="44.3599935" lon="11.3305069"><ele>193.0</ele><time>2026-04-26T08:56:49.003Z</time></trkpt><trkpt lat="44.3599341" lon="11.3304737"><ele>193.0</ele><time>2026-04-26T08:56:50.001Z</time></trkpt><trkpt lat="44.3598761" lon="11.3304385"><ele>193.0</ele><time>2026-04-26T08:56:51.015Z</time></trkpt><trkpt lat="44.3598184" lon="11.3304002"><ele>193.0</ele><time>2026-04-26T08:56:52.009Z</time></trkpt><trkpt lat="44.3597623" lon="11.3303581"><ele>193.0</ele><time>2026-04-26T08:56:52.997Z</time></trkpt><trkpt lat="44.359707" lon="11.3303127"><ele>193.0</ele><time>2026-04-26T08:56:54.005Z</time></trkpt><trkpt lat="44.3596524" lon="11.3302669"><ele>193.0</ele><time>2026-04-26T08:56:55.01Z</time></trkpt><trkpt lat="44.3595978" lon="11.3302207"><ele>193.00000000000003</ele><time>2026-04-26T08:56:56.006Z</time></trkpt><trkpt lat="44.3595433" lon="11.3301734"><ele>193.0</ele><time>2026-04-26T08:56:57.008Z</time></trkpt><trkpt lat="44.3594884" lon="11.3301245"><ele>193.0</ele><time>2026-04-26T08:56:58.002Z</time></trkpt><trkpt lat="44.3594348" lon="11.3300739"><ele>193.0</ele><time>2026-04-26T08:56:59.009Z</time></trkpt><trkpt lat="44.3593816" lon="11.3300207"><ele>193.0</ele><time>2026-04-26T08:57:00.003Z</time></trkpt><trkpt lat="44.3593297" lon="11.3299654"><ele>193.00000000000003</ele><time>2026-04-26T08:57:01.02Z</time></trkpt><trkpt lat="44.3592781" lon="11.3299102"><ele>193.0</ele><time>2026-04-26T08:57:02.009Z</time></trkpt><trkpt lat="44.3592277" lon="11.3298541"><ele>193.00000000000003</ele><time>2026-04-26T08:57:03.005Z</time></trkpt><trkpt lat="44.3591792" lon="11.3297961"><ele>193.0</ele><time>2026-04-26T08:57:04.008Z</time></trkpt><trkpt lat="44.3591317" lon="11.3297358"><ele>193.0</ele><time>2026-04-26T08:57:04.998Z</time></trkpt><trkpt lat="44.3590857" lon="11.3296733"><ele>193.0</ele><time>2026-04-26T08:57:06.012Z</time></trkpt><trkpt lat="44.3590403" lon="11.3296089"><ele>193.0</ele><time>2026-04-26T08:57:07.007Z</time></trkpt><trkpt lat="44.3589946" lon="11.3295442"><ele>193.00000000000003</ele><time>2026-04-26T08:57:08.011Z</time></trkpt><trkpt lat="44.3589489" lon="11.329477"><ele>193.0</ele><time>2026-04-26T08:57:09.027Z</time></trkpt><trkpt lat="44.358905" lon="11.3294086"><ele>193.57142857142858</ele><time>2026-04-26T08:57:10.011Z</time></trkpt><trkpt lat="44.3588609" lon="11.329339"><ele>194.14285714285714</ele><time>2026-04-26T08:57:11.003Z</time></trkpt><trkpt lat="44.3588158" lon="11.3292712"><ele>194.71428571428572</ele><time>2026-04-26T08:57:12.004Z</time></trkpt><trkpt lat="44.3587712" lon="11.3292038"><ele>195.28571428571428</ele><time>2026-04-26T08:57:13.011Z</time></trkpt><trkpt lat="44.3587272" lon="11.3291363"><ele>195.85714285714286</ele><time>2026-04-26T08:57:14.011Z</time></trkpt><trkpt lat="44.3586832" lon="11.3290681"><ele>196.42857142857144</ele><time>2026-04-26T08:57:15.016Z</time></trkpt><trkpt lat="44.3586387" lon="11.329"><ele>197.0</ele><time>2026-04-26T08:57:16.002Z</time></trkpt><trkpt lat="44.358593" lon="11.3289342"><ele>197.14285714285714</ele><time>2026-04-26T08:57:17.002Z</time></trkpt><trkpt lat="44.3585463" lon="11.3288686"><ele>197.28571428571428</ele><time>2026-04-26T08:57:18.016Z</time></trkpt><trkpt lat="44.3584989" lon="11.3288048"><ele>197.42857142857144</ele><time>2026-04-26T08:57:19.004Z</time></trkpt><trkpt lat="44.3584507" lon="11.328742"><ele>197.57142857142856</ele><time>2026-04-26T08:57:20.002Z</time></trkpt><trkpt lat="44.3584004" lon="11.3286821"><ele>197.7142857142857</ele><time>2026-04-26T08:57:21.006Z</time></trkpt><trkpt lat="44.358349" lon="11.3286251"><ele>197.85714285714286</ele><time>2026-04-26T08:57:22.005Z</time></trkpt><trkpt lat="44.3582954" lon="11.3285725"><ele>198.0</ele><time>2026-04-26T08:57:23.007Z</time></trkpt><trkpt lat="44.3582404" lon="11.3285254"><ele>198.0</ele><time>2026-04-26T08:57:24.004Z</time></trkpt><trkpt lat="44.3581838" lon="11.3284837"><ele>198.0</ele><time>2026-04-26T08:57:25.012Z</time></trkpt><trkpt lat="44.3581252" lon="11.3284465"><ele>198.0</ele><time>2026-04-26T08:57:26.004Z</time></trkpt><trkpt lat="44.3580662" lon="11.3284133"><ele>198.0</ele><time>2026-04-26T08:57:27.001Z</time></trkpt><trkpt lat="44.3579446" lon="11.3283712"><ele>198.0</ele><time>2026-04-26T08:57:29.006Z</time></trkpt><trkpt lat="44.3578218" lon="11.3283577"><ele>198.0</ele><time>2026-04-26T08:57:31.004Z</time></trkpt><trkpt lat="44.3577024" lon="11.3283614"><ele>198.0</ele><time>2026-04-26T08:57:33Z</time></trkpt><trkpt lat="44.3575861" lon="11.3283718"><ele>198.0</ele><time>2026-04-26T08:57:35.019Z</time></trkpt><trkpt lat="44.3574734" lon="11.3283877"><ele>198.0</ele><time>2026-04-26T08:57:37.008Z</time></trkpt><trkpt lat="44.3573637" lon="11.3284094"><ele>198.0</ele><time>2026-04-26T08:57:38.998Z</time></trkpt><trkpt lat="44.3572581" lon="11.3284384"><ele>198.0</ele><time>2026-04-26T08:57:41.005Z</time></trkpt><trkpt lat="44.3571518" lon="11.3284737"><ele>198.0</ele><time>2026-04-26T08:57:43.008Z</time></trkpt><trkpt lat="44.3570466" lon="11.3285183"><ele>198.0</ele><time>2026-04-26T08:57:45.004Z</time></trkpt><trkpt lat="44.3569423" lon="11.3285708"><ele>198.0</ele><time>2026-04-26T08:57:47.01Z</time></trkpt><trkpt lat="44.3568326" lon="11.3286238"><ele>198.0</ele><time>2026-04-26T08:57:49.009Z</time></trkpt><trkpt lat="44.3567205" lon="11.3286784"><ele>198.0</ele><time>2026-04-26T08:57:51.006Z</time></trkpt><trkpt lat="44.356608" lon="11.3287352"><ele>198.0</ele><time>2026-04-26T08:57:53.01Z</time></trkpt><trkpt lat="44.3564943" lon="11.3287935"><ele>198.0</ele><time>2026-04-26T08:57:55.014Z</time></trkpt><trkpt lat="44.3563859" lon="11.3288527"><ele>198.0</ele><time>2026-04-26T08:57:56.997Z</time></trkpt><trkpt lat="44.3562693" lon="11.3289118"><ele>199.66666666666666</ele><time>2026-04-26T08:57:59.008Z</time></trkpt><trkpt lat="44.3561458" lon="11.3289582"><ele>201.33333333333331</ele><time>2026-04-26T08:58:00.993Z</time></trkpt><trkpt lat="44.3560808" lon="11.3289709"><ele>203.0</ele><time>2026-04-26T08:58:01.997Z</time></trkpt><trkpt lat="44.3560164" lon="11.3289746"><ele>204.66666666666666</ele><time>2026-04-26T08:58:03.004Z</time></trkpt><trkpt lat="44.3559517" lon="11.3289755"><ele>206.33333333333331</ele><time>2026-04-26T08:58:04.008Z</time></trkpt><trkpt lat="44.3558883" lon="11.328971"><ele>208.0</ele><time>2026-04-26T08:58:05.011Z</time></trkpt><trkpt lat="44.3558248" lon="11.3289643"><ele>208.0</ele><time>2026-04-26T08:58:06.003Z</time></trkpt><trkpt lat="44.3557605" lon="11.3289536"><ele>208.0</ele><time>2026-04-26T08:58:06.991Z</time></trkpt><trkpt lat="44.3556966" lon="11.3289398"><ele>208.0</ele><time>2026-04-26T08:58:08.005Z</time></trkpt><trkpt lat="44.3556332" lon="11.3289214"><ele>208.0</ele><time>2026-04-26T08:58:09.004Z</time></trkpt><trkpt lat="44.3555698" lon="11.3289013"><ele>208.0</ele><time>2026-04-26T08:58:10.015Z</time></trkpt><trkpt lat="44.3555078" lon="11.3288811"><ele>208.0</ele><time>2026-04-26T08:58:10.997Z</time></trkpt><trkpt lat="44.3554454" lon="11.3288584"><ele>208.0</ele><time>2026-04-26T08:58:12.012Z</time></trkpt><trkpt lat="44.3553827" lon="11.3288333"><ele>206.85714285714286</ele><time>2026-04-26T08:58:13.007Z</time></trkpt><trkpt lat="44.3553205" lon="11.3288037"><ele>205.71428571428572</ele><time>2026-04-26T08:58:13.998Z</time></trkpt><trkpt lat="44.3552592" lon="11.3287759"><ele>204.57142857142858</ele><time>2026-04-26T08:58:15.007Z</time></trkpt><trkpt lat="44.3551977" lon="11.3287486"><ele>203.42857142857144</ele><time>2026-04-26T08:58:16.004Z</time></trkpt><trkpt lat="44.3551344" lon="11.3287206"><ele>202.28571428571428</ele><time>2026-04-26T08:58:17.007Z</time></trkpt><trkpt lat="44.3550706" lon="11.328692"><ele>201.14285714285717</ele><time>2026-04-26T08:58:17.995Z</time></trkpt><trkpt lat="44.3550066" lon="11.3286634"><ele>200.0</ele><time>2026-04-26T08:58:19.001Z</time></trkpt><trkpt lat="44.3549426" lon="11.3286314"><ele>200.00000000000003</ele><time>2026-04-26T08:58:20.006Z</time></trkpt><trkpt lat="44.3548788" lon="11.3286002"><ele>200.0</ele><time>2026-04-26T08:58:21.006Z</time></trkpt><trkpt lat="44.3548138" lon="11.3285701"><ele>200.0</ele><time>2026-04-26T08:58:22Z</time></trkpt><trkpt lat="44.3547498" lon="11.3285415"><ele>200.0</ele><time>2026-04-26T08:58:23.002Z</time></trkpt><trkpt lat="44.3546858" lon="11.3285122"><ele>200.0</ele><time>2026-04-26T08:58:24.004Z</time></trkpt><trkpt lat="44.3546218" lon="11.3284824"><ele>200.00000000000003</ele><time>2026-04-26T08:58:25.014Z</time></trkpt><trkpt lat="44.354558" lon="11.3284526"><ele>200.0</ele><time>2026-04-26T08:58:26.013Z</time></trkpt><trkpt lat="44.3544941" lon="11.3284235"><ele>200.71428571428572</ele><time>2026-04-26T08:58:27.01Z</time></trkpt><trkpt lat="44.3544304" lon="11.3283938"><ele>201.42857142857144</ele><time>2026-04-26T08:58:28.002Z</time></trkpt><trkpt lat="44.3543678" lon="11.3283648"><ele>202.14285714285717</ele><time>2026-04-26T08:58:29.005Z</time></trkpt><trkpt lat="44.3543053" lon="11.3283358"><ele>202.85714285714286</ele><time>2026-04-26T08:58:30.002Z</time></trkpt><trkpt lat="44.3542445" lon="11.3283073"><ele>203.57142857142856</ele><time>2026-04-26T08:58:31.011Z</time></trkpt><trkpt lat="44.3541835" lon="11.3282796"><ele>204.2857142857143</ele><time>2026-04-26T08:58:32.008Z</time></trkpt><trkpt lat="44.3541206" lon="11.3282489"><ele>205.0</ele><time>2026-04-26T08:58:33.004Z</time></trkpt><trkpt lat="44.3540002" lon="11.3281919"><ele>204.99999999999997</ele><time>2026-04-26T08:58:35.001Z</time></trkpt><trkpt lat="44.3539392" lon="11.3281648"><ele>205.0</ele><time>2026-04-26T08:58:36.01Z</time></trkpt><trkpt lat="44.3538775" lon="11.3281362"><ele>205.0</ele><time>2026-04-26T08:58:36.99Z</time></trkpt><trkpt lat="44.3538165" lon="11.3281078"><ele>205.0</ele><time>2026-04-26T08:58:38.008Z</time></trkpt><trkpt lat="44.3537554" lon="11.3280805"><ele>204.99999999999997</ele><time>2026-04-26T08:58:39.012Z</time></trkpt><trkpt lat="44.3536345" lon="11.3280237"><ele>205.0</ele><time>2026-04-26T08:58:41.006Z</time></trkpt><trkpt lat="44.3535728" lon="11.3279957"><ele>204.57142857142858</ele><time>2026-04-26T08:58:42.003Z</time></trkpt><trkpt lat="44.3535123" lon="11.3279659"><ele>204.14285714285714</ele><time>2026-04-26T08:58:43.003Z</time></trkpt><trkpt lat="44.3534513" lon="11.3279348"><ele>203.71428571428572</ele><time>2026-04-26T08:58:44.006Z</time></trkpt><trkpt lat="44.3533898" lon="11.3279021"><ele>203.28571428571428</ele><time>2026-04-26T08:58:45.015Z</time></trkpt><trkpt lat="44.3533299" lon="11.3278667"><ele>202.85714285714283</ele><time>2026-04-26T08:58:46.002Z</time></trkpt><trkpt lat="44.3532714" lon="11.3278292"><ele>202.42857142857142</ele><time>2026-04-26T08:58:47.013Z</time></trkpt><trkpt lat="44.3532118" lon="11.3277927"><ele>202.0</ele><time>2026-04-26T08:58:48.001Z</time></trkpt><trkpt lat="44.3531541" lon="11.3277524"><ele>202.0</ele><time>2026-04-26T08:58:49.001Z</time></trkpt><trkpt lat="44.3530974" lon="11.3277083"><ele>202.0</ele><time>2026-04-26T08:58:50.01Z</time></trkpt><trkpt lat="44.3530412" lon="11.3276628"><ele>202.0</ele><time>2026-04-26T08:58:51.001Z</time></trkpt><trkpt lat="44.3529875" lon="11.3276146"><ele>202.0</ele><time>2026-04-26T08:58:51.998Z</time></trkpt><trkpt lat="44.3529348" lon="11.3275654"><ele>202.0</ele><time>2026-04-26T08:58:52.993Z</time></trkpt><trkpt lat="44.3528832" lon="11.3275134"><ele>202.0</ele><time>2026-04-26T08:58:54.002Z</time></trkpt><trkpt lat="44.3528324" lon="11.3274584"><ele>202.0</ele><time>2026-04-26T08:58:54.999Z</time></trkpt><trkpt lat="44.352783" lon="11.3274014"><ele>202.0</ele><time>2026-04-26T08:58:56.004Z</time></trkpt><trkpt lat="44.352735" lon="11.3273408"><ele>203.0</ele><time>2026-04-26T08:58:57.003Z</time></trkpt><trkpt lat="44.3526889" lon="11.3272772"><ele>204.0</ele><time>2026-04-26T08:58:58.001Z</time></trkpt><trkpt lat="44.3526439" lon="11.3272105"><ele>205.0</ele><time>2026-04-26T08:58:59.008Z</time></trkpt><trkpt lat="44.3526028" lon="11.3271406"><ele>206.0</ele><time>2026-04-26T08:58:59.998Z</time></trkpt><trkpt lat="44.3525644" lon="11.3270693"><ele>207.0</ele><time>2026-04-26T08:59:01.01Z</time></trkpt><trkpt lat="44.3525281" lon="11.3269954"><ele>208.0</ele><time>2026-04-26T08:59:02.01Z</time></trkpt><trkpt lat="44.3524934" lon="11.3269194"><ele>209.0</ele><time>2026-04-26T08:59:03.004Z</time></trkpt><trkpt lat="44.3524605" lon="11.3268418"><ele>209.0</ele><time>2026-04-26T08:59:04.006Z</time></trkpt><trkpt lat="44.3524313" lon="11.3267614"><ele>209.0</ele><time>2026-04-26T08:59:05.01Z</time></trkpt><trkpt lat="44.3524035" lon="11.3266799"><ele>209.0</ele><time>2026-04-26T08:59:06.004Z</time></trkpt><trkpt lat="44.3523773" lon="11.3265973"><ele>209.0</ele><time>2026-04-26T08:59:07.014Z</time></trkpt><trkpt lat="44.3523533" lon="11.3265141"><ele>209.0</ele><time>2026-04-26T08:59:08Z</time></trkpt><trkpt lat="44.3523309" lon="11.3264288"><ele>209.0</ele><time>2026-04-26T08:59:09.005Z</time></trkpt><trkpt lat="44.3523084" lon="11.3263447"><ele>209.0</ele><time>2026-04-26T08:59:10.001Z</time></trkpt><trkpt lat="44.3522867" lon="11.3262608"><ele>207.79999999999998</ele><time>2026-04-26T08:59:10.995Z</time></trkpt><trkpt lat="44.3522662" lon="11.3261774"><ele>206.6</ele><time>2026-04-26T08:59:12.007Z</time></trkpt><trkpt lat="44.3522464" lon="11.3260932"><ele>205.4</ele><time>2026-04-26T08:59:13.006Z</time></trkpt><trkpt lat="44.352205" lon="11.325929"><ele>204.2</ele><time>2026-04-26T08:59:15.003Z</time></trkpt><trkpt lat="44.3521644" lon="11.3257657"><ele>203.0</ele><time>2026-04-26T08:59:17Z</time></trkpt><trkpt lat="44.3521232" lon="11.3256025"><ele>209.0</ele><time>2026-04-26T08:59:19.003Z</time></trkpt><trkpt lat="44.3520839" lon="11.3254389"><ele>215.0</ele><time>2026-04-26T08:59:21.004Z</time></trkpt><trkpt lat="44.3520467" lon="11.3252743"><ele>221.0</ele><time>2026-04-26T08:59:23.004Z</time></trkpt><trkpt lat="44.35201" lon="11.32511"><ele>227.0</ele><time>2026-04-26T08:59:25.008Z</time></trkpt><trkpt lat="44.3519754" lon="11.3249432"><ele>227.00000000000003</ele><time>2026-04-26T08:59:27.016Z</time></trkpt><trkpt lat="44.3519413" lon="11.3247732"><ele>227.0</ele><time>2026-04-26T08:59:29.007Z</time></trkpt><trkpt lat="44.3519254" lon="11.3246869"><ele>227.0</ele><time>2026-04-26T08:59:30.005Z</time></trkpt><trkpt lat="44.3519078" lon="11.3246007"><ele>227.0</ele><time>2026-04-26T08:59:31.013Z</time></trkpt><trkpt lat="44.3518898" lon="11.3245149"><ele>227.00000000000003</ele><time>2026-04-26T08:59:32.009Z</time></trkpt><trkpt lat="44.3518742" lon="11.3244279"><ele>227.0</ele><time>2026-04-26T08:59:33.016Z</time></trkpt><trkpt lat="44.3518383" lon="11.3242597"><ele>224.5</ele><time>2026-04-26T08:59:35.009Z</time></trkpt><trkpt lat="44.3517966" lon="11.3240968"><ele>222.0</ele><time>2026-04-26T08:59:37.008Z</time></trkpt><trkpt lat="44.3517482" lon="11.3239412"><ele>219.5</ele><time>2026-04-26T08:59:39.006Z</time></trkpt><trkpt lat="44.3516958" lon="11.3237921"><ele>217.0</ele><time>2026-04-26T08:59:40.997Z</time></trkpt><trkpt lat="44.3516363" lon="11.3236524"><ele>214.5</ele><time>2026-04-26T08:59:43.006Z</time></trkpt><trkpt lat="44.3515713" lon="11.3235167"><ele>212.0</ele><time>2026-04-26T08:59:44.996Z</time></trkpt><trkpt lat="44.3515009" lon="11.3233877"><ele>209.5</ele><time>2026-04-26T08:59:47.009Z</time></trkpt><trkpt lat="44.3514279" lon="11.3232632"><ele>207.0</ele><time>2026-04-26T08:59:49.011Z</time></trkpt><trkpt lat="44.3513518" lon="11.3231434"><ele>208.0</ele><time>2026-04-26T08:59:51.009Z</time></trkpt><trkpt lat="44.3512724" lon="11.3230301"><ele>209.0</ele><time>2026-04-26T08:59:53.007Z</time></trkpt><trkpt lat="44.3511896" lon="11.3229206"><ele>210.0</ele><time>2026-04-26T08:59:55.008Z</time></trkpt><trkpt lat="44.3511045" lon="11.3228098"><ele>211.0</ele><time>2026-04-26T08:59:57.014Z</time></trkpt><trkpt lat="44.351017" lon="11.3227037"><ele>211.0</ele><time>2026-04-26T08:59:59.004Z</time></trkpt><trkpt lat="44.350926" lon="11.3226032"><ele>211.0</ele><time>2026-04-26T09:00:01.004Z</time></trkpt><trkpt lat="44.3508343" lon="11.3225034"><ele>211.0</ele><time>2026-04-26T09:00:02.992Z</time></trkpt><trkpt lat="44.3507374" lon="11.322417"><ele>211.0</ele><time>2026-04-26T09:00:05.02Z</time></trkpt><trkpt lat="44.3506328" lon="11.322348"><ele>211.20000000000002</ele><time>2026-04-26T09:00:07.004Z</time></trkpt><trkpt lat="44.3505231" lon="11.3222968"><ele>211.4</ele><time>2026-04-26T09:00:08.997Z</time></trkpt><trkpt lat="44.3504088" lon="11.3222734"><ele>211.6</ele><time>2026-04-26T09:00:10.989Z</time></trkpt><trkpt lat="44.3503" lon="11.3222848"><ele>211.8</ele><time>2026-04-26T09:00:13.006Z</time></trkpt><trkpt lat="44.3501949" lon="11.3223122"><ele>212.0</ele><time>2026-04-26T09:00:15.011Z</time></trkpt><trkpt lat="44.3500856" lon="11.3223562"><ele>212.0</ele><time>2026-04-26T09:00:17.001Z</time></trkpt><trkpt lat="44.3499822" lon="11.3223974"><ele>212.0</ele><time>2026-04-26T09:00:19Z</time></trkpt><trkpt lat="44.3498768" lon="11.3224488"><ele>212.0</ele><time>2026-04-26T09:00:21.001Z</time></trkpt><trkpt lat="44.3497585" lon="11.3225133"><ele>212.0</ele><time>2026-04-26T09:00:22.999Z</time></trkpt><trkpt lat="44.3496984" lon="11.3225453"><ele>212.0</ele><time>2026-04-26T09:00:24.008Z</time></trkpt><trkpt lat="44.3495823" lon="11.3226098"><ele>212.25</ele><time>2026-04-26T09:00:26.006Z</time></trkpt><trkpt lat="44.3494613" lon="11.3226621"><ele>212.5</ele><time>2026-04-26T09:00:28.003Z</time></trkpt><trkpt lat="44.3493527" lon="11.3227044"><ele>212.75</ele><time>2026-04-26T09:00:30.01Z</time></trkpt><trkpt lat="44.3492314" lon="11.3227422"><ele>213.0</ele><time>2026-04-26T09:00:32.016Z</time></trkpt><trkpt lat="44.3491144" lon="11.3227748"><ele>213.0</ele><time>2026-04-26T09:00:34.017Z</time></trkpt><trkpt lat="44.348993" lon="11.3227895"><ele>213.0</ele><time>2026-04-26T09:00:36.003Z</time></trkpt><trkpt lat="44.3488822" lon="11.322803"><ele>213.0</ele><time>2026-04-26T09:00:38.01Z</time></trkpt><trkpt lat="44.3487689" lon="11.3228187"><ele>213.0</ele><time>2026-04-26T09:00:40.005Z</time></trkpt><trkpt lat="44.3486499" lon="11.3228333"><ele>214.60000000000002</ele><time>2026-04-26T09:00:42.004Z</time></trkpt><trkpt lat="44.3485832" lon="11.3228407"><ele>216.20000000000002</ele><time>2026-04-26T09:00:43.005Z</time></trkpt><trkpt lat="44.3484686" lon="11.3228463"><ele>217.8</ele><time>2026-04-26T09:00:45.01Z</time></trkpt><trkpt lat="44.3483573" lon="11.3228494"><ele>219.4</ele><time>2026-04-26T09:00:47.012Z</time></trkpt><trkpt lat="44.3482453" lon="11.3228517"><ele>221.0</ele><time>2026-04-26T09:00:49.002Z</time></trkpt><trkpt lat="44.3481802" lon="11.3228513"><ele>221.00000000000003</ele><time>2026-04-26T09:00:50.009Z</time></trkpt><trkpt lat="44.3481153" lon="11.322855"><ele>221.0</ele><time>2026-04-26T09:00:51.008Z</time></trkpt><trkpt lat="44.348048" lon="11.3228561"><ele>221.0</ele><time>2026-04-26T09:00:52.012Z</time></trkpt><trkpt lat="44.3479232" lon="11.3228495"><ele>221.0</ele><time>2026-04-26T09:00:54.008Z</time></trkpt><trkpt lat="44.347808" lon="11.3228471"><ele>221.00000000000003</ele><time>2026-04-26T09:00:56.002Z</time></trkpt><trkpt lat="44.3477445" lon="11.3228424"><ele>221.0</ele><time>2026-04-26T09:00:57.014Z</time></trkpt><trkpt lat="44.347625" lon="11.3228376"><ele>220.75</ele><time>2026-04-26T09:00:59.007Z</time></trkpt><trkpt lat="44.3475163" lon="11.3228304"><ele>220.5</ele><time>2026-04-26T09:01:01.011Z</time></trkpt><trkpt lat="44.3473979" lon="11.3228206"><ele>220.25</ele><time>2026-04-26T09:01:03.004Z</time></trkpt><trkpt lat="44.3472786" lon="11.3228297"><ele>220.0</ele><time>2026-04-26T09:01:04.997Z</time></trkpt><trkpt lat="44.3471694" lon="11.3228439"><ele>220.0</ele><time>2026-04-26T09:01:07.002Z</time></trkpt><trkpt lat="44.34704" lon="11.3228676"><ele>220.0</ele><time>2026-04-26T09:01:09.01Z</time></trkpt><trkpt lat="44.3469729" lon="11.3228875"><ele>220.0</ele><time>2026-04-26T09:01:10Z</time></trkpt><trkpt lat="44.3468643" lon="11.3229287"><ele>220.0</ele><time>2026-04-26T09:01:12.002Z</time></trkpt><trkpt lat="44.346759" lon="11.322976"><ele>220.0</ele><time>2026-04-26T09:01:14.007Z</time></trkpt><trkpt lat="44.3466554" lon="11.3230166"><ele>220.0</ele><time>2026-04-26T09:01:16.009Z</time></trkpt><trkpt lat="44.3465519" lon="11.3230522"><ele>220.0</ele><time>2026-04-26T09:01:18.014Z</time></trkpt><trkpt lat="44.3464355" lon="11.3230712"><ele>220.0</ele><time>2026-04-26T09:01:20.01Z</time></trkpt><trkpt lat="44.3463159" lon="11.3230796"><ele>220.0</ele><time>2026-04-26T09:01:22Z</time></trkpt><trkpt lat="44.3462415" lon="11.3230651"><ele>220.0</ele><time>2026-04-26T09:01:23.003Z</time></trkpt><trkpt lat="44.3461636" lon="11.3230375"><ele>223.2</ele><time>2026-04-26T09:01:24.006Z</time></trkpt><trkpt lat="44.3460884" lon="11.323002"><ele>226.4</ele><time>2026-04-26T09:01:25.013Z</time></trkpt><trkpt lat="44.3459715" lon="11.3229322"><ele>229.60000000000002</ele><time>2026-04-26T09:01:27.009Z</time></trkpt><trkpt lat="44.3458897" lon="11.3228798"><ele>232.8</ele><time>2026-04-26T09:01:28.006Z</time></trkpt><trkpt lat="44.345827" lon="11.3228278"><ele>236.0</ele><time>2026-04-26T09:01:29.012Z</time></trkpt><trkpt lat="44.3457587" lon="11.3227668"><ele>236.0</ele><time>2026-04-26T09:01:30.001Z</time></trkpt><trkpt lat="44.3456979" lon="11.3227053"><ele>236.0</ele><time>2026-04-26T09:01:30.992Z</time></trkpt><trkpt lat="44.3456422" lon="11.3226452"><ele>236.0</ele><time>2026-04-26T09:01:31.997Z</time></trkpt><trkpt lat="44.3455891" lon="11.3225889"><ele>236.0</ele><time>2026-04-26T09:01:33.004Z</time></trkpt><trkpt lat="44.3455308" lon="11.3225314"><ele>236.0</ele><time>2026-04-26T09:01:34.004Z</time></trkpt><trkpt lat="44.3454755" lon="11.3224683"><ele>236.0</ele><time>2026-04-26T09:01:35.006Z</time></trkpt><trkpt lat="44.3454199" lon="11.3223955"><ele>236.0</ele><time>2026-04-26T09:01:36.011Z</time></trkpt><trkpt lat="44.3453724" lon="11.3223311"><ele>236.14285714285714</ele><time>2026-04-26T09:01:37Z</time></trkpt><trkpt lat="44.3453271" lon="11.3222651"><ele>236.28571428571428</ele><time>2026-04-26T09:01:38.006Z</time></trkpt><trkpt lat="44.3452474" lon="11.3221592"><ele>236.42857142857142</ele><time>2026-04-26T09:01:40Z</time></trkpt><trkpt lat="44.3452106" lon="11.3220816"><ele>236.57142857142856</ele><time>2026-04-26T09:01:41.001Z</time></trkpt><trkpt lat="44.3451786" lon="11.3219994"><ele>236.71428571428572</ele><time>2026-04-26T09:01:42.023Z</time></trkpt><trkpt lat="44.3451516" lon="11.3219107"><ele>236.85714285714283</ele><time>2026-04-26T09:01:43.001Z</time></trkpt><trkpt lat="44.3451222" lon="11.3218232"><ele>236.99999999999997</ele><time>2026-04-26T09:01:44.003Z</time></trkpt><trkpt lat="44.3450993" lon="11.3217289"><ele>237.0</ele><time>2026-04-26T09:01:45.01Z</time></trkpt><trkpt lat="44.3450859" lon="11.3216359"><ele>237.0</ele><time>2026-04-26T09:01:46.01Z</time></trkpt><trkpt lat="44.3450681" lon="11.3215492"><ele>237.0</ele><time>2026-04-26T09:01:47.006Z</time></trkpt><trkpt lat="44.3450352" lon="11.3213889"><ele>237.0</ele><time>2026-04-26T09:01:49.013Z</time></trkpt><trkpt lat="44.3449974" lon="11.3212409"><ele>237.0</ele><time>2026-04-26T09:01:51.01Z</time></trkpt><trkpt lat="44.3449649" lon="11.3210945"><ele>235.39999999999998</ele><time>2026-04-26T09:01:53.013Z</time></trkpt><trkpt lat="44.3449277" lon="11.320941"><ele>233.79999999999998</ele><time>2026-04-26T09:01:55.005Z</time></trkpt><trkpt lat="44.3448883" lon="11.320803"><ele>232.2</ele><time>2026-04-26T09:01:56.997Z</time></trkpt><trkpt lat="44.3448331" lon="11.3206863"><ele>230.6</ele><time>2026-04-26T09:01:59.001Z</time></trkpt><trkpt lat="44.3447663" lon="11.3205945"><ele>229.0</ele><time>2026-04-26T09:02:01.011Z</time></trkpt><trkpt lat="44.3446753" lon="11.3205344"><ele>229.0</ele><time>2026-04-26T09:02:03.013Z</time></trkpt><trkpt lat="44.3445806" lon="11.3204927"><ele>228.99999999999997</ele><time>2026-04-26T09:02:04.999Z</time></trkpt><trkpt lat="44.3444683" lon="11.3204851"><ele>228.99999999999997</ele><time>2026-04-26T09:02:07.008Z</time></trkpt><trkpt lat="44.3443609" lon="11.3204886"><ele>229.0</ele><time>2026-04-26T09:02:09.007Z</time></trkpt><trkpt lat="44.34425" lon="11.3204899"><ele>229.0</ele><time>2026-04-26T09:02:11.001Z</time></trkpt><trkpt lat="44.3441608" lon="11.3204867"><ele>228.99999999999997</ele><time>2026-04-26T09:02:13.004Z</time></trkpt><trkpt lat="44.3440765" lon="11.32049"><ele>229.0</ele><time>2026-04-26T09:02:14.995Z</time></trkpt><trkpt lat="44.3439874" lon="11.32051"><ele>229.0</ele><time>2026-04-26T09:02:16.999Z</time></trkpt><trkpt lat="44.3439034" lon="11.3205224"><ele>229.0</ele><time>2026-04-26T09:02:19.003Z</time></trkpt><trkpt lat="44.343821" lon="11.3205667"><ele>228.99999999999997</ele><time>2026-04-26T09:02:22.016Z</time></trkpt><trkpt lat="44.3437437" lon="11.3206106"><ele>229.0</ele><time>2026-04-26T09:02:25.003Z</time></trkpt><trkpt lat="44.3436755" lon="11.320652"><ele>231.66666666666666</ele><time>2026-04-26T09:02:29.001Z</time></trkpt><trkpt lat="44.3435795" lon="11.320721"><ele>234.33333333333331</ele><time>2026-04-26T09:03:48.102Z</time></trkpt><trkpt lat="44.3435065" lon="11.3207647"><ele>237.0</ele><time>2026-04-26T09:03:53.103Z</time></trkpt><trkpt lat="44.3434432" lon="11.320789"><ele>239.66666666666669</ele><time>2026-04-26T09:03:55.102Z</time></trkpt><trkpt lat="44.3433547" lon="11.320789"><ele>242.33333333333334</ele><time>2026-04-26T09:03:57.126Z</time></trkpt><trkpt lat="44.3432659" lon="11.3207814"><ele>245.0</ele><time>2026-04-26T09:03:59.112Z</time></trkpt><trkpt lat="44.3431413" lon="11.3207833"><ele>245.00000000000003</ele><time>2026-04-26T09:04:01.116Z</time></trkpt><trkpt lat="44.3430752" lon="11.320783"><ele>245.0</ele><time>2026-04-26T09:04:02.111Z</time></trkpt><trkpt lat="44.3429611" lon="11.3207729"><ele>245.0</ele><time>2026-04-26T09:04:04.104Z</time></trkpt><trkpt lat="44.342892" lon="11.3207641"><ele>245.0</ele><time>2026-04-26T09:04:05.112Z</time></trkpt><trkpt lat="44.3428153" lon="11.3207587"><ele>245.00000000000003</ele><time>2026-04-26T09:04:06.14Z</time></trkpt><trkpt lat="44.3427438" lon="11.3207517"><ele>245.0</ele><time>2026-04-26T09:04:07.114Z</time></trkpt><trkpt lat="44.3426701" lon="11.32074"><ele>244.50000000000003</ele><time>2026-04-26T09:04:08.118Z</time></trkpt><trkpt lat="44.3425982" lon="11.3207181"><ele>244.0</ele><time>2026-04-26T09:04:09.105Z</time></trkpt><trkpt lat="44.3425312" lon="11.320692"><ele>243.5</ele><time>2026-04-26T09:04:10.116Z</time></trkpt><trkpt lat="44.3424619" lon="11.3206566"><ele>243.0</ele><time>2026-04-26T09:04:11.115Z</time></trkpt><trkpt lat="44.3423447" lon="11.32056"><ele>242.50000000000003</ele><time>2026-04-26T09:04:13.116Z</time></trkpt><trkpt lat="44.3422705" lon="11.3204954"><ele>242.0</ele><time>2026-04-26T09:04:14.113Z</time></trkpt><trkpt lat="44.3422058" lon="11.3204357"><ele>242.0</ele><time>2026-04-26T09:04:15.099Z</time></trkpt><trkpt lat="44.3421377" lon="11.3203642"><ele>242.0</ele><time>2026-04-26T09:04:16.111Z</time></trkpt><trkpt lat="44.3420615" lon="11.3202275"><ele>242.0</ele><time>2026-04-26T09:04:18.12Z</time></trkpt><trkpt lat="44.342018" lon="11.3201573"><ele>242.0</ele><time>2026-04-26T09:04:19.119Z</time></trkpt><trkpt lat="44.3419441" lon="11.3200238"><ele>242.0</ele><time>2026-04-26T09:04:21.124Z</time></trkpt><trkpt lat="44.3418691" lon="11.3198849"><ele>242.0</ele><time>2026-04-26T09:04:23.113Z</time></trkpt><trkpt lat="44.3418052" lon="11.3197543"><ele>242.0</ele><time>2026-04-26T09:04:25.109Z</time></trkpt><trkpt lat="44.341733" lon="11.3196194"><ele>242.0</ele><time>2026-04-26T09:04:27.12Z</time></trkpt><trkpt lat="44.3416582" lon="11.3194995"><ele>242.0</ele><time>2026-04-26T09:04:29.119Z</time></trkpt><trkpt lat="44.3415839" lon="11.319396"><ele>241.6</ele><time>2026-04-26T09:04:31.119Z</time></trkpt><trkpt lat="44.3415048" lon="11.3193"><ele>241.2</ele><time>2026-04-26T09:04:33.116Z</time></trkpt><trkpt lat="44.3414197" lon="11.3192111"><ele>240.8</ele><time>2026-04-26T09:04:35.11Z</time></trkpt><trkpt lat="44.3413407" lon="11.3191224"><ele>240.4</ele><time>2026-04-26T09:04:37.125Z</time></trkpt><trkpt lat="44.3412632" lon="11.3190306"><ele>240.0</ele><time>2026-04-26T09:04:39.112Z</time></trkpt><trkpt lat="44.3411869" lon="11.3189427"><ele>236.0</ele><time>2026-04-26T09:04:41.114Z</time></trkpt><trkpt lat="44.3411148" lon="11.3188523"><ele>232.0</ele><time>2026-04-26T09:04:43.118Z</time></trkpt><trkpt lat="44.3410426" lon="11.318762"><ele>228.0</ele><time>2026-04-26T09:04:45.113Z</time></trkpt><trkpt lat="44.3409691" lon="11.3186735"><ele>224.0</ele><time>2026-04-26T09:04:47.114Z</time></trkpt><trkpt lat="44.3408966" lon="11.3185859"><ele>220.0</ele><time>2026-04-26T09:04:49.107Z</time></trkpt><trkpt lat="44.3408246" lon="11.318497"><ele>220.0</ele><time>2026-04-26T09:04:51.124Z</time></trkpt><trkpt lat="44.3407502" lon="11.3184101"><ele>220.0</ele><time>2026-04-26T09:04:53.114Z</time></trkpt><trkpt lat="44.3406759" lon="11.3183246"><ele>220.0</ele><time>2026-04-26T09:04:55.11Z</time></trkpt><trkpt lat="44.3405981" lon="11.3182394"><ele>220.0</ele><time>2026-04-26T09:04:57.117Z</time></trkpt><trkpt lat="44.3405151" lon="11.3181605"><ele>220.0</ele><time>2026-04-26T09:04:59.121Z</time></trkpt><trkpt lat="44.3404338" lon="11.3180816"><ele>219.8</ele><time>2026-04-26T09:05:01.115Z</time></trkpt><trkpt lat="44.3403478" lon="11.3180068"><ele>219.6</ele><time>2026-04-26T09:05:03.114Z</time></trkpt><trkpt lat="44.3402563" lon="11.3179374"><ele>219.39999999999998</ele><time>2026-04-26T09:05:05.126Z</time></trkpt><trkpt lat="44.3401588" lon="11.3178761"><ele>219.2</ele><time>2026-04-26T09:05:07.119Z</time></trkpt><trkpt lat="44.3400493" lon="11.3178254"><ele>219.0</ele><time>2026-04-26T09:05:09.116Z</time></trkpt><trkpt lat="44.339925" lon="11.317786"><ele>219.0</ele><time>2026-04-26T09:05:11.117Z</time></trkpt><trkpt lat="44.3398568" lon="11.3177677"><ele>219.0</ele><time>2026-04-26T09:05:12.111Z</time></trkpt><trkpt lat="44.339784" lon="11.3177527"><ele>219.0</ele><time>2026-04-26T09:05:13.105Z</time></trkpt><trkpt lat="44.3397089" lon="11.3177363"><ele>219.0</ele><time>2026-04-26T09:05:14.12Z</time></trkpt><trkpt lat="44.3396308" lon="11.3177184"><ele>219.0</ele><time>2026-04-26T09:05:15.114Z</time></trkpt><trkpt lat="44.3395496" lon="11.3176968"><ele>219.0</ele><time>2026-04-26T09:05:16.113Z</time></trkpt><trkpt lat="44.3394703" lon="11.3176736"><ele>219.83333333333334</ele><time>2026-04-26T09:05:17.118Z</time></trkpt><trkpt lat="44.3393905" lon="11.3176503"><ele>220.66666666666669</ele><time>2026-04-26T09:05:18.108Z</time></trkpt><trkpt lat="44.3393114" lon="11.3176267"><ele>221.5</ele><time>2026-04-26T09:05:19.108Z</time></trkpt><trkpt lat="44.339235" lon="11.3175998"><ele>222.33333333333334</ele><time>2026-04-26T09:05:20.109Z</time></trkpt><trkpt lat="44.3391591" lon="11.3175743"><ele>223.16666666666669</ele><time>2026-04-26T09:05:21.121Z</time></trkpt><trkpt lat="44.3390851" lon="11.3175504"><ele>224.0</ele><time>2026-04-26T09:05:22.109Z</time></trkpt><trkpt lat="44.3390135" lon="11.3175271"><ele>224.0</ele><time>2026-04-26T09:05:23.109Z</time></trkpt><trkpt lat="44.3389419" lon="11.3175042"><ele>224.0</ele><time>2026-04-26T09:05:24.113Z</time></trkpt><trkpt lat="44.3388737" lon="11.3174769"><ele>224.0</ele><time>2026-04-26T09:05:25.116Z</time></trkpt><trkpt lat="44.3388043" lon="11.3174477"><ele>224.0</ele><time>2026-04-26T09:05:26.119Z</time></trkpt><trkpt lat="44.3387376" lon="11.3174184"><ele>224.0</ele><time>2026-04-26T09:05:27.114Z</time></trkpt><trkpt lat="44.3386733" lon="11.3173885"><ele>224.0</ele><time>2026-04-26T09:05:28.115Z</time></trkpt><trkpt lat="44.3386099" lon="11.3173583"><ele>224.0</ele><time>2026-04-26T09:05:29.113Z</time></trkpt><trkpt lat="44.3385471" lon="11.3173275"><ele>223.85714285714286</ele><time>2026-04-26T09:05:30.108Z</time></trkpt><trkpt lat="44.3384836" lon="11.3172955"><ele>223.71428571428572</ele><time>2026-04-26T09:05:31.119Z</time></trkpt><trkpt lat="44.3384205" lon="11.317263"><ele>223.57142857142856</ele><time>2026-04-26T09:05:32.114Z</time></trkpt><trkpt lat="44.3383592" lon="11.317227"><ele>223.42857142857144</ele><time>2026-04-26T09:05:33.108Z</time></trkpt><trkpt lat="44.3382995" lon="11.3171883"><ele>223.28571428571428</ele><time>2026-04-26T09:05:34.108Z</time></trkpt><trkpt lat="44.3382433" lon="11.3171429"><ele>223.14285714285714</ele><time>2026-04-26T09:05:35.111Z</time></trkpt><trkpt lat="44.3381878" lon="11.3170936"><ele>223.0</ele><time>2026-04-26T09:05:36.11Z</time></trkpt><trkpt lat="44.3381345" lon="11.3170422"><ele>222.75</ele><time>2026-04-26T09:05:37.106Z</time></trkpt><trkpt lat="44.3380825" lon="11.3169881"><ele>222.5</ele><time>2026-04-26T09:05:38.111Z</time></trkpt><trkpt lat="44.3380315" lon="11.316932"><ele>222.25</ele><time>2026-04-26T09:05:39.114Z</time></trkpt><trkpt lat="44.3379823" lon="11.3168737"><ele>222.0</ele><time>2026-04-26T09:05:40.116Z</time></trkpt><trkpt lat="44.337935" lon="11.3168139"><ele>221.75</ele><time>2026-04-26T09:05:41.122Z</time></trkpt><trkpt lat="44.3378889" lon="11.3167511"><ele>221.5</ele><time>2026-04-26T09:05:42.118Z</time></trkpt><trkpt lat="44.3378423" lon="11.3166912"><ele>221.25</ele><time>2026-04-26T09:05:43.117Z</time></trkpt><trkpt lat="44.3377963" lon="11.3166305"><ele>221.0</ele><time>2026-04-26T09:05:44.106Z</time></trkpt><trkpt lat="44.3377105" lon="11.316506"><ele>221.75</ele><time>2026-04-26T09:05:46.111Z</time></trkpt><trkpt lat="44.3376295" lon="11.3163781"><ele>222.5</ele><time>2026-04-26T09:05:48.114Z</time></trkpt><trkpt lat="44.3375502" lon="11.3162483"><ele>223.25</ele><time>2026-04-26T09:05:50.113Z</time></trkpt><trkpt lat="44.3374737" lon="11.3161172"><ele>224.0</ele><time>2026-04-26T09:05:52.119Z</time></trkpt><trkpt lat="44.3373997" lon="11.315988"><ele>224.0</ele><time>2026-04-26T09:05:54.115Z</time></trkpt><trkpt lat="44.337327" lon="11.3158615"><ele>224.0</ele><time>2026-04-26T09:05:56.119Z</time></trkpt><trkpt lat="44.3372536" lon="11.3157333"><ele>224.0</ele><time>2026-04-26T09:05:58.111Z</time></trkpt><trkpt lat="44.3371755" lon="11.3156049"><ele>224.0</ele><time>2026-04-26T09:06:00.102Z</time></trkpt><trkpt lat="44.3370909" lon="11.3154817"><ele>225.0</ele><time>2026-04-26T09:06:02.127Z</time></trkpt><trkpt lat="44.3370019" lon="11.3153672"><ele>226.0</ele><time>2026-04-26T09:06:04.125Z</time></trkpt><trkpt lat="44.3369078" lon="11.3152623"><ele>227.0</ele><time>2026-04-26T09:06:06.107Z</time></trkpt><trkpt lat="44.3368083" lon="11.3151651"><ele>228.0</ele><time>2026-04-26T09:06:08.123Z</time></trkpt><trkpt lat="44.3367037" lon="11.3150791"><ele>228.0</ele><time>2026-04-26T09:06:10.116Z</time></trkpt><trkpt lat="44.3365983" lon="11.3149932"><ele>228.0</ele><time>2026-04-26T09:06:12.124Z</time></trkpt><trkpt lat="44.3364935" lon="11.3149096"><ele>228.0</ele><time>2026-04-26T09:06:14.104Z</time></trkpt><trkpt lat="44.3363844" lon="11.314825"><ele>228.0</ele><time>2026-04-26T09:06:16.124Z</time></trkpt><trkpt lat="44.336277" lon="11.314737"><ele>228.0</ele><time>2026-04-26T09:06:18.118Z</time></trkpt><trkpt lat="44.336224" lon="11.3146893"><ele>228.0</ele><time>2026-04-26T09:06:19.122Z</time></trkpt><trkpt lat="44.3361197" lon="11.3145929"><ele>228.0</ele><time>2026-04-26T09:06:21.11Z</time></trkpt><trkpt lat="44.3360182" lon="11.3144924"><ele>228.0</ele><time>2026-04-26T09:06:23.119Z</time></trkpt><trkpt lat="44.3359679" lon="11.3144385"><ele>228.0</ele><time>2026-04-26T09:06:24.121Z</time></trkpt><trkpt lat="44.3359172" lon="11.314383"><ele>228.0</ele><time>2026-04-26T09:06:25.116Z</time></trkpt><trkpt lat="44.3358672" lon="11.3143275"><ele>228.0</ele><time>2026-04-26T09:06:26.122Z</time></trkpt><trkpt lat="44.3358165" lon="11.3142709"><ele>227.99999999999997</ele><time>2026-04-26T09:06:27.113Z</time></trkpt><trkpt lat="44.3357663" lon="11.3142132"><ele>228.0</ele><time>2026-04-26T09:06:28.117Z</time></trkpt><trkpt lat="44.3357164" lon="11.3141552"><ele>228.0</ele><time>2026-04-26T09:06:29.119Z</time></trkpt><trkpt lat="44.3356658" lon="11.3140981"><ele>227.99999999999997</ele><time>2026-04-26T09:06:30.116Z</time></trkpt><trkpt lat="44.335614" lon="11.3140417"><ele>228.0</ele><time>2026-04-26T09:06:31.112Z</time></trkpt><trkpt lat="44.3355599" lon="11.3139868"><ele>228.0</ele><time>2026-04-26T09:06:32.118Z</time></trkpt><trkpt lat="44.3355049" lon="11.313934"><ele>227.7142857142857</ele><time>2026-04-26T09:06:33.116Z</time></trkpt><trkpt lat="44.3354485" lon="11.3138828"><ele>227.4285714285714</ele><time>2026-04-26T09:06:34.118Z</time></trkpt><trkpt lat="44.3353905" lon="11.313836"><ele>227.14285714285714</ele><time>2026-04-26T09:06:35.105Z</time></trkpt><trkpt lat="44.335332" lon="11.3137888"><ele>226.85714285714283</ele><time>2026-04-26T09:06:36.135Z</time></trkpt><trkpt lat="44.3352728" lon="11.3137418"><ele>226.57142857142856</ele><time>2026-04-26T09:06:37.106Z</time></trkpt><trkpt lat="44.3352125" lon="11.3136951"><ele>226.28571428571428</ele><time>2026-04-26T09:06:38.118Z</time></trkpt><trkpt lat="44.335153" lon="11.3136456"><ele>226.0</ele><time>2026-04-26T09:06:39.111Z</time></trkpt><trkpt lat="44.3350929" lon="11.3135933"><ele>226.0</ele><time>2026-04-26T09:06:40.119Z</time></trkpt><trkpt lat="44.3350335" lon="11.3135379"><ele>226.0</ele><time>2026-04-26T09:06:41.117Z</time></trkpt><trkpt lat="44.3349758" lon="11.3134774"><ele>226.0</ele><time>2026-04-26T09:06:42.109Z</time></trkpt><trkpt lat="44.3349207" lon="11.3134115"><ele>226.0</ele><time>2026-04-26T09:06:43.115Z</time></trkpt><trkpt lat="44.3348691" lon="11.3133396"><ele>226.0</ele><time>2026-04-26T09:06:44.115Z</time></trkpt><trkpt lat="44.3348212" lon="11.3132631"><ele>226.0</ele><time>2026-04-26T09:06:45.122Z</time></trkpt><trkpt lat="44.3347796" lon="11.3131806"><ele>226.0</ele><time>2026-04-26T09:06:46.119Z</time></trkpt><trkpt lat="44.3347434" lon="11.3130948"><ele>226.42857142857144</ele><time>2026-04-26T09:06:47.12Z</time></trkpt><trkpt lat="44.3347114" lon="11.3130072"><ele>226.85714285714283</ele><time>2026-04-26T09:06:48.113Z</time></trkpt><trkpt lat="44.3346844" lon="11.3129178"><ele>227.28571428571428</ele><time>2026-04-26T09:06:49.114Z</time></trkpt><trkpt lat="44.3346588" lon="11.3128297"><ele>227.71428571428572</ele><time>2026-04-26T09:06:50.114Z</time></trkpt><trkpt lat="44.3346335" lon="11.3127416"><ele>228.14285714285717</ele><time>2026-04-26T09:06:51.108Z</time></trkpt><trkpt lat="44.3346098" lon="11.3126531"><ele>228.57142857142856</ele><time>2026-04-26T09:06:52.118Z</time></trkpt><trkpt lat="44.3345847" lon="11.3125655"><ele>229.0</ele><time>2026-04-26T09:06:53.118Z</time></trkpt><trkpt lat="44.3345589" lon="11.3124782"><ele>229.0</ele><time>2026-04-26T09:06:54.111Z</time></trkpt><trkpt lat="44.3345332" lon="11.3123895"><ele>229.0</ele><time>2026-04-26T09:06:55.113Z</time></trkpt><trkpt lat="44.3345082" lon="11.3123009"><ele>229.0</ele><time>2026-04-26T09:06:56.12Z</time></trkpt><trkpt lat="44.3344828" lon="11.3122115"><ele>229.0</ele><time>2026-04-26T09:06:57.126Z</time></trkpt><trkpt lat="44.3344577" lon="11.3121225"><ele>229.0</ele><time>2026-04-26T09:06:58.117Z</time></trkpt><trkpt lat="44.3344322" lon="11.3120336"><ele>229.0</ele><time>2026-04-26T09:06:59.123Z</time></trkpt><trkpt lat="44.334407" lon="11.3119455"><ele>229.0</ele><time>2026-04-26T09:07:00.118Z</time></trkpt><trkpt lat="44.3343818" lon="11.3118573"><ele>229.0</ele><time>2026-04-26T09:07:01.119Z</time></trkpt><trkpt lat="44.3343567" lon="11.3117692"><ele>229.0</ele><time>2026-04-26T09:07:02.123Z</time></trkpt><trkpt lat="44.3343308" lon="11.3116825"><ele>229.0</ele><time>2026-04-26T09:07:03.118Z</time></trkpt><trkpt lat="44.3343059" lon="11.3115956"><ele>229.0</ele><time>2026-04-26T09:07:04.11Z</time></trkpt><trkpt lat="44.33428" lon="11.3115084"><ele>229.0</ele><time>2026-04-26T09:07:05.104Z</time></trkpt><trkpt lat="44.3342544" lon="11.3114214"><ele>229.0</ele><time>2026-04-26T09:07:06.117Z</time></trkpt><trkpt lat="44.3342289" lon="11.3113343"><ele>229.0</ele><time>2026-04-26T09:07:07.113Z</time></trkpt><trkpt lat="44.3342034" lon="11.3112479"><ele>229.0</ele><time>2026-04-26T09:07:08.116Z</time></trkpt><trkpt lat="44.3341788" lon="11.3111617"><ele>229.0</ele><time>2026-04-26T09:07:09.126Z</time></trkpt><trkpt lat="44.3341541" lon="11.3110761"><ele>229.0</ele><time>2026-04-26T09:07:10.11Z</time></trkpt><trkpt lat="44.3341291" lon="11.3109907"><ele>229.0</ele><time>2026-04-26T09:07:11.114Z</time></trkpt><trkpt lat="44.3341044" lon="11.3109058"><ele>229.0</ele><time>2026-04-26T09:07:12.111Z</time></trkpt><trkpt lat="44.3340791" lon="11.3108207"><ele>229.0</ele><time>2026-04-26T09:07:13.11Z</time></trkpt><trkpt lat="44.3340546" lon="11.3107352"><ele>229.0</ele><time>2026-04-26T09:07:14.113Z</time></trkpt><trkpt lat="44.3340299" lon="11.3106493"><ele>229.14285714285714</ele><time>2026-04-26T09:07:15.121Z</time></trkpt><trkpt lat="44.3340039" lon="11.3105643"><ele>229.28571428571428</ele><time>2026-04-26T09:07:16.12Z</time></trkpt><trkpt lat="44.3339779" lon="11.3104792"><ele>229.42857142857142</ele><time>2026-04-26T09:07:17.127Z</time></trkpt><trkpt lat="44.3339537" lon="11.310394"><ele>229.57142857142856</ele><time>2026-04-26T09:07:18.115Z</time></trkpt><trkpt lat="44.33393" lon="11.3103097"><ele>229.71428571428572</ele><time>2026-04-26T09:07:19.12Z</time></trkpt><trkpt lat="44.333906" lon="11.3102262"><ele>229.85714285714283</ele><time>2026-04-26T09:07:20.117Z</time></trkpt><trkpt lat="44.333882" lon="11.3101439"><ele>229.99999999999997</ele><time>2026-04-26T09:07:21.13Z</time></trkpt><trkpt lat="44.3338575" lon="11.3100615"><ele>230.0</ele><time>2026-04-26T09:07:22.112Z</time></trkpt><trkpt lat="44.333833" lon="11.3099796"><ele>230.0</ele><time>2026-04-26T09:07:23.107Z</time></trkpt><trkpt lat="44.333808" lon="11.3098985"><ele>230.0</ele><time>2026-04-26T09:07:24.122Z</time></trkpt><trkpt lat="44.3337823" lon="11.3098167"><ele>230.0</ele><time>2026-04-26T09:07:25.112Z</time></trkpt><trkpt lat="44.3337572" lon="11.3097344"><ele>230.0</ele><time>2026-04-26T09:07:26.113Z</time></trkpt><trkpt lat="44.3337323" lon="11.3096513"><ele>230.0</ele><time>2026-04-26T09:07:27.118Z</time></trkpt><trkpt lat="44.3337085" lon="11.3095671"><ele>230.0</ele><time>2026-04-26T09:07:28.127Z</time></trkpt><trkpt lat="44.3336853" lon="11.3094832"><ele>230.0</ele><time>2026-04-26T09:07:29.128Z</time></trkpt><trkpt lat="44.3336615" lon="11.3093989"><ele>230.0</ele><time>2026-04-26T09:07:30.131Z</time></trkpt><trkpt lat="44.3336383" lon="11.309316"><ele>230.0</ele><time>2026-04-26T09:07:31.126Z</time></trkpt><trkpt lat="44.3336148" lon="11.3092337"><ele>230.0</ele><time>2026-04-26T09:07:32.112Z</time></trkpt><trkpt lat="44.3335909" lon="11.3091519"><ele>230.0</ele><time>2026-04-26T09:07:33.114Z</time></trkpt><trkpt lat="44.333567" lon="11.3090703"><ele>230.0</ele><time>2026-04-26T09:07:34.122Z</time></trkpt><trkpt lat="44.3335437" lon="11.3089878"><ele>230.0</ele><time>2026-04-26T09:07:35.118Z</time></trkpt><trkpt lat="44.3335194" lon="11.3089053"><ele>230.0</ele><time>2026-04-26T09:07:36.118Z</time></trkpt><trkpt lat="44.3334943" lon="11.3088228"><ele>230.0</ele><time>2026-04-26T09:07:37.114Z</time></trkpt><trkpt lat="44.3334697" lon="11.3087397"><ele>230.1428571428571</ele><time>2026-04-26T09:07:38.114Z</time></trkpt><trkpt lat="44.3334457" lon="11.308657"><ele>230.28571428571428</ele><time>2026-04-26T09:07:39.12Z</time></trkpt><trkpt lat="44.3334216" lon="11.3085744"><ele>230.42857142857142</ele><time>2026-04-26T09:07:40.113Z</time></trkpt><trkpt lat="44.3333976" lon="11.3084921"><ele>230.57142857142856</ele><time>2026-04-26T09:07:41.117Z</time></trkpt><trkpt lat="44.3333739" lon="11.30841"><ele>230.71428571428572</ele><time>2026-04-26T09:07:42.106Z</time></trkpt><trkpt lat="44.3333511" lon="11.3083279"><ele>230.85714285714286</ele><time>2026-04-26T09:07:43.119Z</time></trkpt><trkpt lat="44.3333052" lon="11.3081652"><ele>231.0</ele><time>2026-04-26T09:07:45.125Z</time></trkpt><trkpt lat="44.3332577" lon="11.3080038"><ele>231.0</ele><time>2026-04-26T09:07:47.112Z</time></trkpt><trkpt lat="44.3332073" lon="11.3078437"><ele>231.0</ele><time>2026-04-26T09:07:49.118Z</time></trkpt><trkpt lat="44.3331816" lon="11.3077632"><ele>231.0</ele><time>2026-04-26T09:07:50.126Z</time></trkpt><trkpt lat="44.3331254" lon="11.307606"><ele>231.0</ele><time>2026-04-26T09:07:52.111Z</time></trkpt><trkpt lat="44.3330934" lon="11.3075297"><ele>231.0</ele><time>2026-04-26T09:07:53.123Z</time></trkpt><trkpt lat="44.3330601" lon="11.3074539"><ele>231.0</ele><time>2026-04-26T09:07:54.115Z</time></trkpt><trkpt lat="44.3330255" lon="11.3073795"><ele>231.0</ele><time>2026-04-26T09:07:55.125Z</time></trkpt><trkpt lat="44.3329896" lon="11.3073054"><ele>231.0</ele><time>2026-04-26T09:07:56.114Z</time></trkpt><trkpt lat="44.3329511" lon="11.3072334"><ele>231.0</ele><time>2026-04-26T09:07:57.109Z</time></trkpt><trkpt lat="44.3329111" lon="11.3071614"><ele>231.0</ele><time>2026-04-26T09:07:58.107Z</time></trkpt><trkpt lat="44.3328714" lon="11.3070899"><ele>231.0</ele><time>2026-04-26T09:07:59.116Z</time></trkpt><trkpt lat="44.3328316" lon="11.3070186"><ele>231.0</ele><time>2026-04-26T09:08:00.112Z</time></trkpt><trkpt lat="44.3327924" lon="11.3069485"><ele>231.0</ele><time>2026-04-26T09:08:01.112Z</time></trkpt><trkpt lat="44.332753" lon="11.306879"><ele>231.0</ele><time>2026-04-26T09:08:02.123Z</time></trkpt><trkpt lat="44.3326752" lon="11.3067416"><ele>231.0</ele><time>2026-04-26T09:08:04.111Z</time></trkpt><trkpt lat="44.3325953" lon="11.3066056"><ele>231.0</ele><time>2026-04-26T09:08:06.115Z</time></trkpt><trkpt lat="44.3325165" lon="11.3064692"><ele>231.0</ele><time>2026-04-26T09:08:08.11Z</time></trkpt><trkpt lat="44.3324371" lon="11.3063341"><ele>231.25</ele><time>2026-04-26T09:08:10.117Z</time></trkpt><trkpt lat="44.332355" lon="11.3062025"><ele>231.5</ele><time>2026-04-26T09:08:12.119Z</time></trkpt><trkpt lat="44.3322699" lon="11.3060778"><ele>231.75</ele><time>2026-04-26T09:08:14.116Z</time></trkpt><trkpt lat="44.3321832" lon="11.3059568"><ele>232.0</ele><time>2026-04-26T09:08:16.123Z</time></trkpt><trkpt lat="44.3320956" lon="11.3058401"><ele>232.5</ele><time>2026-04-26T09:08:18.11Z</time></trkpt><trkpt lat="44.3320046" lon="11.305728"><ele>233.0</ele><time>2026-04-26T09:08:20.111Z</time></trkpt><trkpt lat="44.3319122" lon="11.3056169"><ele>233.5</ele><time>2026-04-26T09:08:22.124Z</time></trkpt><trkpt lat="44.331816" lon="11.3055111"><ele>234.0</ele><time>2026-04-26T09:08:24.119Z</time></trkpt><trkpt lat="44.3317161" lon="11.3054095"><ele>234.0</ele><time>2026-04-26T09:08:26.108Z</time></trkpt><trkpt lat="44.3316113" lon="11.3053176"><ele>234.0</ele><time>2026-04-26T09:08:28.119Z</time></trkpt><trkpt lat="44.3315015" lon="11.305236"><ele>234.0</ele><time>2026-04-26T09:08:30.108Z</time></trkpt><trkpt lat="44.3313911" lon="11.3051566"><ele>234.0</ele><time>2026-04-26T09:08:32.128Z</time></trkpt><trkpt lat="44.3312787" lon="11.305082"><ele>235.0</ele><time>2026-04-26T09:08:34.117Z</time></trkpt><trkpt lat="44.3311653" lon="11.3050066"><ele>236.0</ele><time>2026-04-26T09:08:36.119Z</time></trkpt><trkpt lat="44.3310525" lon="11.3049328"><ele>237.0</ele><time>2026-04-26T09:08:38.114Z</time></trkpt><trkpt lat="44.3309408" lon="11.3048585"><ele>238.0</ele><time>2026-04-26T09:08:40.113Z</time></trkpt><trkpt lat="44.3308288" lon="11.3047864"><ele>238.0</ele><time>2026-04-26T09:08:42.11Z</time></trkpt><trkpt lat="44.3307178" lon="11.3047168"><ele>238.0</ele><time>2026-04-26T09:08:44.115Z</time></trkpt><trkpt lat="44.3306059" lon="11.304648"><ele>238.0</ele><time>2026-04-26T09:08:46.112Z</time></trkpt><trkpt lat="44.330493" lon="11.3045802"><ele>238.0</ele><time>2026-04-26T09:08:48.118Z</time></trkpt><trkpt lat="44.3303801" lon="11.3045126"><ele>238.0</ele><time>2026-04-26T09:08:50.118Z</time></trkpt><trkpt lat="44.3302673" lon="11.3044469"><ele>238.0</ele><time>2026-04-26T09:08:52.115Z</time></trkpt><trkpt lat="44.3301552" lon="11.3043799"><ele>238.0</ele><time>2026-04-26T09:08:54.112Z</time></trkpt><trkpt lat="44.3300426" lon="11.3043078"><ele>238.0</ele><time>2026-04-26T09:08:56.121Z</time></trkpt><trkpt lat="44.3299311" lon="11.3042306"><ele>238.0</ele><time>2026-04-26T09:08:58.11Z</time></trkpt><trkpt lat="44.3298209" lon="11.3041526"><ele>238.0</ele><time>2026-04-26T09:09:00.124Z</time></trkpt><trkpt lat="44.3297098" lon="11.3040753"><ele>238.0</ele><time>2026-04-26T09:09:02.114Z</time></trkpt><trkpt lat="44.3296004" lon="11.3039941"><ele>238.0</ele><time>2026-04-26T09:09:04.117Z</time></trkpt><trkpt lat="44.3294916" lon="11.3039119"><ele>238.0</ele><time>2026-04-26T09:09:06.12Z</time></trkpt><trkpt lat="44.3293864" lon="11.3038242"><ele>238.0</ele><time>2026-04-26T09:09:08.117Z</time></trkpt><trkpt lat="44.3292827" lon="11.303734"><ele>238.0</ele><time>2026-04-26T09:09:10.118Z</time></trkpt><trkpt lat="44.3291812" lon="11.3036415"><ele>238.0</ele><time>2026-04-26T09:09:12.116Z</time></trkpt><trkpt lat="44.3290799" lon="11.3035497"><ele>238.0</ele><time>2026-04-26T09:09:14.116Z</time></trkpt><trkpt lat="44.3289796" lon="11.3034585"><ele>238.0</ele><time>2026-04-26T09:09:16.112Z</time></trkpt><trkpt lat="44.3288818" lon="11.3033671"><ele>238.0</ele><time>2026-04-26T09:09:18.119Z</time></trkpt><trkpt lat="44.3287847" lon="11.3032741"><ele>238.0</ele><time>2026-04-26T09:09:20.114Z</time></trkpt><trkpt lat="44.3286875" lon="11.3031789"><ele>238.75</ele><time>2026-04-26T09:09:22.12Z</time></trkpt><trkpt lat="44.3285898" lon="11.3030835"><ele>239.5</ele><time>2026-04-26T09:09:24.12Z</time></trkpt><trkpt lat="44.3284909" lon="11.3029884"><ele>240.25</ele><time>2026-04-26T09:09:26.118Z</time></trkpt><trkpt lat="44.3283914" lon="11.3028914"><ele>241.0</ele><time>2026-04-26T09:09:28.113Z</time></trkpt><trkpt lat="44.3282906" lon="11.3027941"><ele>241.0</ele><time>2026-04-26T09:09:30.126Z</time></trkpt><trkpt lat="44.3281896" lon="11.3026955"><ele>241.0</ele><time>2026-04-26T09:09:32.114Z</time></trkpt><trkpt lat="44.3280879" lon="11.3025996"><ele>241.0</ele><time>2026-04-26T09:09:34.117Z</time></trkpt><trkpt lat="44.3279827" lon="11.3025096"><ele>241.0</ele><time>2026-04-26T09:09:36.123Z</time></trkpt><trkpt lat="44.3278708" lon="11.3024296"><ele>241.16666666666666</ele><time>2026-04-26T09:09:38.117Z</time></trkpt><trkpt lat="44.3278111" lon="11.3023984"><ele>241.33333333333331</ele><time>2026-04-26T09:09:39.118Z</time></trkpt><trkpt lat="44.3277505" lon="11.3023709"><ele>241.5</ele><time>2026-04-26T09:09:40.112Z</time></trkpt><trkpt lat="44.3276893" lon="11.3023489"><ele>241.66666666666669</ele><time>2026-04-26T09:09:41.115Z</time></trkpt><trkpt lat="44.3275664" lon="11.3023151"><ele>241.83333333333334</ele><time>2026-04-26T09:09:43.121Z</time></trkpt><trkpt lat="44.3274434" lon="11.3022906"><ele>242.0</ele><time>2026-04-26T09:09:45.118Z</time></trkpt><trkpt lat="44.3273196" lon="11.3022728"><ele>242.75</ele><time>2026-04-26T09:09:47.112Z</time></trkpt><trkpt lat="44.3271952" lon="11.3022528"><ele>243.5</ele><time>2026-04-26T09:09:49.122Z</time></trkpt><trkpt lat="44.3270719" lon="11.3022192"><ele>244.25</ele><time>2026-04-26T09:09:51.125Z</time></trkpt><trkpt lat="44.3269522" lon="11.3021707"><ele>245.0</ele><time>2026-04-26T09:09:53.119Z</time></trkpt><trkpt lat="44.3268359" lon="11.3021078"><ele>245.0</ele><time>2026-04-26T09:09:55.117Z</time></trkpt><trkpt lat="44.3267261" lon="11.3020296"><ele>245.0</ele><time>2026-04-26T09:09:57.11Z</time></trkpt><trkpt lat="44.3266206" lon="11.301942"><ele>245.0</ele><time>2026-04-26T09:09:59.12Z</time></trkpt><trkpt lat="44.3265187" lon="11.3018461"><ele>245.0</ele><time>2026-04-26T09:10:01.114Z</time></trkpt><trkpt lat="44.3264199" lon="11.3017446"><ele>244.5</ele><time>2026-04-26T09:10:03.106Z</time></trkpt><trkpt lat="44.3263254" lon="11.3016324"><ele>244.0</ele><time>2026-04-26T09:10:05.123Z</time></trkpt><trkpt lat="44.3262363" lon="11.3015148"><ele>243.5</ele><time>2026-04-26T09:10:07.122Z</time></trkpt><trkpt lat="44.3261467" lon="11.3013985"><ele>243.0</ele><time>2026-04-26T09:10:09.118Z</time></trkpt><trkpt lat="44.3260574" lon="11.3012823"><ele>243.0</ele><time>2026-04-26T09:10:11.112Z</time></trkpt><trkpt lat="44.3259679" lon="11.3011654"><ele>243.0</ele><time>2026-04-26T09:10:13.117Z</time></trkpt><trkpt lat="44.3258762" lon="11.3010503"><ele>243.0</ele><time>2026-04-26T09:10:15.113Z</time></trkpt><trkpt lat="44.3257865" lon="11.3009341"><ele>243.0</ele><time>2026-04-26T09:10:17.114Z</time></trkpt><trkpt lat="44.3256969" lon="11.3008172"><ele>243.0</ele><time>2026-04-26T09:10:19.121Z</time></trkpt><trkpt lat="44.3256067" lon="11.3007002"><ele>243.0</ele><time>2026-04-26T09:10:21.118Z</time></trkpt><trkpt lat="44.3255174" lon="11.3005821"><ele>243.0</ele><time>2026-04-26T09:10:23.118Z</time></trkpt><trkpt lat="44.3254273" lon="11.3004652"><ele>243.0</ele><time>2026-04-26T09:10:25.114Z</time></trkpt><trkpt lat="44.3253382" lon="11.3003476"><ele>244.25</ele><time>2026-04-26T09:10:27.117Z</time></trkpt><trkpt lat="44.3252531" lon="11.3002328"><ele>245.5</ele><time>2026-04-26T09:10:29.114Z</time></trkpt><trkpt lat="44.3251666" lon="11.3001225"><ele>246.75</ele><time>2026-04-26T09:10:31.115Z</time></trkpt><trkpt lat="44.3250811" lon="11.3000107"><ele>248.0</ele><time>2026-04-26T09:10:33.116Z</time></trkpt><trkpt lat="44.324995" lon="11.299901"><ele>248.0</ele><time>2026-04-26T09:10:35.109Z</time></trkpt><trkpt lat="44.3249095" lon="11.2997891"><ele>248.0</ele><time>2026-04-26T09:10:37.125Z</time></trkpt><trkpt lat="44.3248237" lon="11.2996717"><ele>248.0</ele><time>2026-04-26T09:10:39.117Z</time></trkpt><trkpt lat="44.3247331" lon="11.2995661"><ele>248.0</ele><time>2026-04-26T09:10:41.119Z</time></trkpt><trkpt lat="44.3246352" lon="11.2994793"><ele>247.75</ele><time>2026-04-26T09:10:43.113Z</time></trkpt><trkpt lat="44.3245282" lon="11.2994202"><ele>247.5</ele><time>2026-04-26T09:10:45.117Z</time></trkpt><trkpt lat="44.3244167" lon="11.2993968"><ele>247.25</ele><time>2026-04-26T09:10:47.119Z</time></trkpt><trkpt lat="44.3243042" lon="11.299407"><ele>247.0</ele><time>2026-04-26T09:10:49.118Z</time></trkpt><trkpt lat="44.3241963" lon="11.2994522"><ele>247.0</ele><time>2026-04-26T09:10:51.115Z</time></trkpt><trkpt lat="44.3240935" lon="11.2995128"><ele>247.0</ele><time>2026-04-26T09:10:53.108Z</time></trkpt><trkpt lat="44.3239969" lon="11.2995768"><ele>247.0</ele><time>2026-04-26T09:10:55.114Z</time></trkpt><trkpt lat="44.3239065" lon="11.2996479"><ele>247.0</ele><time>2026-04-26T09:10:57.114Z</time></trkpt><trkpt lat="44.3238163" lon="11.2997202"><ele>247.0</ele><time>2026-04-26T09:10:59.115Z</time></trkpt><trkpt lat="44.3237224" lon="11.2997899"><ele>248.39999999999998</ele><time>2026-04-26T09:11:01.115Z</time></trkpt><trkpt lat="44.3236266" lon="11.2998501"><ele>249.79999999999998</ele><time>2026-04-26T09:11:03.112Z</time></trkpt><trkpt lat="44.323528" lon="11.2998949"><ele>251.2</ele><time>2026-04-26T09:11:05.114Z</time></trkpt><trkpt lat="44.3234273" lon="11.2999315"><ele>252.6</ele><time>2026-04-26T09:11:07.123Z</time></trkpt><trkpt lat="44.3233268" lon="11.2999618"><ele>254.0</ele><time>2026-04-26T09:11:09.111Z</time></trkpt><trkpt lat="44.3232237" lon="11.29999"><ele>254.0</ele><time>2026-04-26T09:11:11.11Z</time></trkpt><trkpt lat="44.3231169" lon="11.3000183"><ele>253.99999999999997</ele><time>2026-04-26T09:11:13.118Z</time></trkpt><trkpt lat="44.323011" lon="11.3000447"><ele>253.99999999999997</ele><time>2026-04-26T09:11:15.115Z</time></trkpt><trkpt lat="44.3229027" lon="11.3000665"><ele>254.0</ele><time>2026-04-26T09:11:17.115Z</time></trkpt><trkpt lat="44.3227909" lon="11.3000858"><ele>254.0</ele><time>2026-04-26T09:11:19.117Z</time></trkpt><trkpt lat="44.3226817" lon="11.3001009"><ele>254.2</ele><time>2026-04-26T09:11:21.118Z</time></trkpt><trkpt lat="44.3225742" lon="11.3001167"><ele>254.39999999999998</ele><time>2026-04-26T09:11:23.115Z</time></trkpt><trkpt lat="44.3224681" lon="11.3001262"><ele>254.6</ele><time>2026-04-26T09:11:25.12Z</time></trkpt><trkpt lat="44.3223616" lon="11.3001293"><ele>254.8</ele><time>2026-04-26T09:11:27.11Z</time></trkpt><trkpt lat="44.3222558" lon="11.3001294"><ele>255.0</ele><time>2026-04-26T09:11:29.119Z</time></trkpt><trkpt lat="44.3221487" lon="11.300122"><ele>256.2</ele><time>2026-04-26T09:11:31.113Z</time></trkpt><trkpt lat="44.322043" lon="11.3001075"><ele>257.4</ele><time>2026-04-26T09:11:33.111Z</time></trkpt><trkpt lat="44.3219388" lon="11.3000873"><ele>258.6</ele><time>2026-04-26T09:11:35.113Z</time></trkpt><trkpt lat="44.3218339" lon="11.3000541"><ele>259.8</ele><time>2026-04-26T09:11:37.116Z</time></trkpt><trkpt lat="44.3217294" lon="11.3000166"><ele>261.0</ele><time>2026-04-26T09:11:39.106Z</time></trkpt><trkpt lat="44.3216284" lon="11.2999545"><ele>261.0</ele><time>2026-04-26T09:11:41.117Z</time></trkpt><trkpt lat="44.321542" lon="11.2998758"><ele>261.0</ele><time>2026-04-26T09:11:43.105Z</time></trkpt><trkpt lat="44.3214586" lon="11.2997874"><ele>261.0</ele><time>2026-04-26T09:11:45.114Z</time></trkpt><trkpt lat="44.3213803" lon="11.299695"><ele>261.0</ele><time>2026-04-26T09:11:47.115Z</time></trkpt><trkpt lat="44.321308" lon="11.2996023"><ele>261.0</ele><time>2026-04-26T09:11:49.114Z</time></trkpt><trkpt lat="44.3212348" lon="11.2995098"><ele>264.0</ele><time>2026-04-26T09:11:51.124Z</time></trkpt><trkpt lat="44.3211623" lon="11.299418"><ele>267.0</ele><time>2026-04-26T09:11:53.111Z</time></trkpt><trkpt lat="44.3210899" lon="11.2993315"><ele>270.0</ele><time>2026-04-26T09:11:55.122Z</time></trkpt><trkpt lat="44.3210196" lon="11.2992437"><ele>273.0</ele><time>2026-04-26T09:11:57.124Z</time></trkpt><trkpt lat="44.3209505" lon="11.2991583"><ele>276.0</ele><time>2026-04-26T09:11:59.113Z</time></trkpt><trkpt lat="44.3208859" lon="11.2990753"><ele>276.0</ele><time>2026-04-26T09:12:01.116Z</time></trkpt><trkpt lat="44.3208208" lon="11.2989958"><ele>276.0</ele><time>2026-04-26T09:12:03.105Z</time></trkpt><trkpt lat="44.3207592" lon="11.2989227"><ele>276.0</ele><time>2026-04-26T09:12:05.116Z</time></trkpt><trkpt lat="44.3206977" lon="11.2988528"><ele>276.0</ele><time>2026-04-26T09:12:07.11Z</time></trkpt><trkpt lat="44.3206376" lon="11.2987713"><ele>276.0</ele><time>2026-04-26T09:12:09.109Z</time></trkpt><trkpt lat="44.3205773" lon="11.2986917"><ele>276.0</ele><time>2026-04-26T09:12:11.117Z</time></trkpt><trkpt lat="44.3205173" lon="11.298615"><ele>279.3333333333333</ele><time>2026-04-26T09:12:13.115Z</time></trkpt><trkpt lat="44.3204591" lon="11.2985369"><ele>282.6666666666667</ele><time>2026-04-26T09:12:15.114Z</time></trkpt><trkpt lat="44.3204017" lon="11.2984508"><ele>286.0</ele><time>2026-04-26T09:12:17.119Z</time></trkpt><trkpt lat="44.3203446" lon="11.2983648"><ele>289.33333333333337</ele><time>2026-04-26T09:12:19.101Z</time></trkpt><trkpt lat="44.320288" lon="11.2982781"><ele>292.6666666666667</ele><time>2026-04-26T09:12:21.125Z</time></trkpt><trkpt lat="44.3202331" lon="11.2981881"><ele>296.0</ele><time>2026-04-26T09:12:23.112Z</time></trkpt><trkpt lat="44.3201754" lon="11.2980954"><ele>290.40000000000003</ele><time>2026-04-26T09:12:25.115Z</time></trkpt><trkpt lat="44.3201179" lon="11.2979996"><ele>284.8</ele><time>2026-04-26T09:12:27.103Z</time></trkpt><trkpt lat="44.3200597" lon="11.297904"><ele>279.20000000000005</ele><time>2026-04-26T09:12:29.116Z</time></trkpt><trkpt lat="44.3200007" lon="11.2978069"><ele>273.6</ele><time>2026-04-26T09:12:31.117Z</time></trkpt><trkpt lat="44.3199453" lon="11.2977046"><ele>268.0</ele><time>2026-04-26T09:12:33.117Z</time></trkpt><trkpt lat="44.3198917" lon="11.2975956"><ele>268.0</ele><time>2026-04-26T09:12:35.113Z</time></trkpt><trkpt lat="44.3198454" lon="11.2974809"><ele>268.0</ele><time>2026-04-26T09:12:37.114Z</time></trkpt><trkpt lat="44.3197992" lon="11.2973548"><ele>268.0</ele><time>2026-04-26T09:12:39.105Z</time></trkpt><trkpt lat="44.3197532" lon="11.2972202"><ele>268.0</ele><time>2026-04-26T09:12:41.12Z</time></trkpt><trkpt lat="44.319703" lon="11.2970836"><ele>268.0</ele><time>2026-04-26T09:12:43.12Z</time></trkpt><trkpt lat="44.3196405" lon="11.2969512"><ele>268.5</ele><time>2026-04-26T09:12:45.117Z</time></trkpt><trkpt lat="44.3195561" lon="11.296839"><ele>269.0</ele><time>2026-04-26T09:12:47.125Z</time></trkpt><trkpt lat="44.3194492" lon="11.2967748"><ele>269.5</ele><time>2026-04-26T09:12:49.115Z</time></trkpt><trkpt lat="44.3193279" lon="11.2967535"><ele>270.0</ele><time>2026-04-26T09:12:51.113Z</time></trkpt><trkpt lat="44.3192063" lon="11.2967663"><ele>270.0</ele><time>2026-04-26T09:12:53.111Z</time></trkpt><trkpt lat="44.3191413" lon="11.2967903"><ele>270.0</ele><time>2026-04-26T09:12:54.116Z</time></trkpt><trkpt lat="44.319075" lon="11.2968149"><ele>270.0</ele><time>2026-04-26T09:12:55.128Z</time></trkpt><trkpt lat="44.3190092" lon="11.2968424"><ele>270.0</ele><time>2026-04-26T09:12:56.127Z</time></trkpt><trkpt lat="44.3189478" lon="11.2968732"><ele>270.0</ele><time>2026-04-26T09:12:57.106Z</time></trkpt><trkpt lat="44.3188875" lon="11.2969039"><ele>270.0</ele><time>2026-04-26T09:12:58.108Z</time></trkpt><trkpt lat="44.3188289" lon="11.2969364"><ele>270.0</ele><time>2026-04-26T09:12:59.119Z</time></trkpt><trkpt lat="44.3187678" lon="11.2969826"><ele>270.3333333333333</ele><time>2026-04-26T09:13:00.112Z</time></trkpt><trkpt lat="44.3187089" lon="11.2970377"><ele>270.6666666666667</ele><time>2026-04-26T09:13:01.108Z</time></trkpt><trkpt lat="44.3186528" lon="11.2970889"><ele>271.0</ele><time>2026-04-26T09:13:02.114Z</time></trkpt><trkpt lat="44.3185961" lon="11.2971425"><ele>271.33333333333337</ele><time>2026-04-26T09:13:03.122Z</time></trkpt><trkpt lat="44.3185389" lon="11.2971908"><ele>271.6666666666667</ele><time>2026-04-26T09:13:04.123Z</time></trkpt><trkpt lat="44.3184839" lon="11.2972345"><ele>272.0</ele><time>2026-04-26T09:13:05.119Z</time></trkpt><trkpt lat="44.3183761" lon="11.2973228"><ele>272.0</ele><time>2026-04-26T09:13:07.112Z</time></trkpt><trkpt lat="44.3182742" lon="11.2974149"><ele>272.0</ele><time>2026-04-26T09:13:09.115Z</time></trkpt><trkpt lat="44.3182204" lon="11.2974607"><ele>272.0</ele><time>2026-04-26T09:13:10.112Z</time></trkpt><trkpt lat="44.318112" lon="11.2975421"><ele>272.0</ele><time>2026-04-26T09:13:12.119Z</time></trkpt><trkpt lat="44.3179976" lon="11.297603"><ele>272.0</ele><time>2026-04-26T09:13:14.119Z</time></trkpt><trkpt lat="44.3178781" lon="11.2976446"><ele>272.1428571428571</ele><time>2026-04-26T09:13:16.12Z</time></trkpt><trkpt lat="44.3178145" lon="11.2976568"><ele>272.2857142857143</ele><time>2026-04-26T09:13:17.118Z</time></trkpt><trkpt lat="44.3177492" lon="11.2976656"><ele>272.42857142857144</ele><time>2026-04-26T09:13:18.113Z</time></trkpt><trkpt lat="44.3176842" lon="11.2976717"><ele>272.57142857142856</ele><time>2026-04-26T09:13:19.109Z</time></trkpt><trkpt lat="44.3176203" lon="11.2976795"><ele>272.7142857142857</ele><time>2026-04-26T09:13:20.112Z</time></trkpt><trkpt lat="44.3175561" lon="11.2976876"><ele>272.85714285714283</ele><time>2026-04-26T09:13:21.119Z</time></trkpt><trkpt lat="44.3174899" lon="11.2976945"><ele>273.0</ele><time>2026-04-26T09:13:22.113Z</time></trkpt><trkpt lat="44.3174237" lon="11.2977009"><ele>273.0</ele><time>2026-04-26T09:13:23.127Z</time></trkpt><trkpt lat="44.3173583" lon="11.2977076"><ele>273.0</ele><time>2026-04-26T09:13:24.117Z</time></trkpt><trkpt lat="44.3172923" lon="11.2977168"><ele>273.0</ele><time>2026-04-26T09:13:25.122Z</time></trkpt><trkpt lat="44.3172256" lon="11.297726"><ele>273.0</ele><time>2026-04-26T09:13:26.113Z</time></trkpt><trkpt lat="44.3171586" lon="11.2977336"><ele>273.0</ele><time>2026-04-26T09:13:27.121Z</time></trkpt><trkpt lat="44.3170927" lon="11.2977421"><ele>273.0</ele><time>2026-04-26T09:13:28.112Z</time></trkpt><trkpt lat="44.3170279" lon="11.297754"><ele>273.0</ele><time>2026-04-26T09:13:29.114Z</time></trkpt><trkpt lat="44.3169627" lon="11.2977842"><ele>272.7142857142857</ele><time>2026-04-26T09:13:30.127Z</time></trkpt><trkpt lat="44.3168965" lon="11.2978268"><ele>272.42857142857144</ele><time>2026-04-26T09:13:31.13Z</time></trkpt><trkpt lat="44.3168299" lon="11.2978747"><ele>272.1428571428571</ele><time>2026-04-26T09:13:32.116Z</time></trkpt><trkpt lat="44.3167675" lon="11.297928"><ele>271.8571428571429</ele><time>2026-04-26T09:13:33.117Z</time></trkpt><trkpt lat="44.3167076" lon="11.2979772"><ele>271.57142857142856</ele><time>2026-04-26T09:13:34.115Z</time></trkpt><trkpt lat="44.3166466" lon="11.2980233"><ele>271.2857142857143</ele><time>2026-04-26T09:13:35.115Z</time></trkpt><trkpt lat="44.316583" lon="11.2980612"><ele>271.0</ele><time>2026-04-26T09:13:36.119Z</time></trkpt><trkpt lat="44.3165162" lon="11.2980777"><ele>273.16666666666663</ele><time>2026-04-26T09:13:37.106Z</time></trkpt><trkpt lat="44.3164469" lon="11.29809"><ele>275.3333333333333</ele><time>2026-04-26T09:13:38.116Z</time></trkpt><trkpt lat="44.3163805" lon="11.2980976"><ele>277.5</ele><time>2026-04-26T09:13:39.115Z</time></trkpt><trkpt lat="44.3163109" lon="11.2980993"><ele>279.6666666666667</ele><time>2026-04-26T09:13:40.118Z</time></trkpt><trkpt lat="44.3162473" lon="11.2981033"><ele>281.83333333333337</ele><time>2026-04-26T09:13:41.115Z</time></trkpt><trkpt lat="44.3161378" lon="11.2980771"><ele>284.0</ele><time>2026-04-26T09:13:43.11Z</time></trkpt><trkpt lat="44.3160321" lon="11.2980359"><ele>284.0</ele><time>2026-04-26T09:13:45.118Z</time></trkpt><trkpt lat="44.3159253" lon="11.297967"><ele>284.0</ele><time>2026-04-26T09:13:47.113Z</time></trkpt><trkpt lat="44.3158229" lon="11.2978924"><ele>284.0</ele><time>2026-04-26T09:13:49.113Z</time></trkpt><trkpt lat="44.3157328" lon="11.2977935"><ele>284.0</ele><time>2026-04-26T09:13:51.116Z</time></trkpt><trkpt lat="44.3156536" lon="11.2976836"><ele>284.0</ele><time>2026-04-26T09:13:53.118Z</time></trkpt><trkpt lat="44.3155852" lon="11.2975565"><ele>284.0</ele><time>2026-04-26T09:13:55.111Z</time></trkpt><trkpt lat="44.3155297" lon="11.2974251"><ele>284.0</ele><time>2026-04-26T09:13:57.106Z</time></trkpt><trkpt lat="44.3154918" lon="11.2972751"><ele>284.0</ele><time>2026-04-26T09:13:59.113Z</time></trkpt><trkpt lat="44.3154678" lon="11.2971223"><ele>284.0</ele><time>2026-04-26T09:14:01.113Z</time></trkpt><trkpt lat="44.3154375" lon="11.2969809"><ele>287.4</ele><time>2026-04-26T09:14:03.109Z</time></trkpt><trkpt lat="44.315401" lon="11.296835"><ele>290.79999999999995</ele><time>2026-04-26T09:14:05.118Z</time></trkpt><trkpt lat="44.3153526" lon="11.2966947"><ele>294.20000000000005</ele><time>2026-04-26T09:14:07.117Z</time></trkpt><trkpt lat="44.3152966" lon="11.2965663"><ele>297.6</ele><time>2026-04-26T09:14:09.116Z</time></trkpt><trkpt lat="44.315237" lon="11.2964494"><ele>301.0</ele><time>2026-04-26T09:14:11.118Z</time></trkpt><trkpt lat="44.315178" lon="11.2963379"><ele>301.0</ele><time>2026-04-26T09:14:13.107Z</time></trkpt><trkpt lat="44.315115" lon="11.2962319"><ele>301.0</ele><time>2026-04-26T09:14:15.11Z</time></trkpt><trkpt lat="44.3150532" lon="11.2961305"><ele>301.0</ele><time>2026-04-26T09:14:17.116Z</time></trkpt><trkpt lat="44.3149831" lon="11.2960345"><ele>301.0</ele><time>2026-04-26T09:14:19.113Z</time></trkpt><trkpt lat="44.3149079" lon="11.2959506"><ele>301.0</ele><time>2026-04-26T09:14:21.097Z</time></trkpt><trkpt lat="44.3148278" lon="11.2958772"><ele>301.0</ele><time>2026-04-26T09:14:23.104Z</time></trkpt><trkpt lat="44.3147403" lon="11.2958287"><ele>301.0</ele><time>2026-04-26T09:14:25.104Z</time></trkpt><trkpt lat="44.3146476" lon="11.2957917"><ele>301.0</ele><time>2026-04-26T09:14:27.119Z</time></trkpt><trkpt lat="44.3145499" lon="11.2957724"><ele>301.0</ele><time>2026-04-26T09:14:29.122Z</time></trkpt><trkpt lat="44.3144504" lon="11.2957613"><ele>301.0</ele><time>2026-04-26T09:14:31.111Z</time></trkpt><trkpt lat="44.3143464" lon="11.2957422"><ele>300.0</ele><time>2026-04-26T09:14:33.113Z</time></trkpt><trkpt lat="44.3142351" lon="11.2956912"><ele>299.0</ele><time>2026-04-26T09:14:35.114Z</time></trkpt><trkpt lat="44.3141394" lon="11.2955976"><ele>298.0</ele><time>2026-04-26T09:14:37.122Z</time></trkpt><trkpt lat="44.3140625" lon="11.2954646"><ele>297.0</ele><time>2026-04-26T09:14:39.118Z</time></trkpt><trkpt lat="44.3140134" lon="11.2953036"><ele>296.6666666666667</ele><time>2026-04-26T09:14:41.115Z</time></trkpt><trkpt lat="44.3139838" lon="11.2951413"><ele>296.3333333333333</ele><time>2026-04-26T09:14:43.121Z</time></trkpt><trkpt lat="44.3139861" lon="11.2949618"><ele>296.0</ele><time>2026-04-26T09:14:45.121Z</time></trkpt><trkpt lat="44.313986" lon="11.2948706"><ele>295.66666666666663</ele><time>2026-04-26T09:14:46.117Z</time></trkpt><trkpt lat="44.3139878" lon="11.2947816"><ele>295.3333333333333</ele><time>2026-04-26T09:14:47.118Z</time></trkpt><trkpt lat="44.3139905" lon="11.2946841"><ele>295.0</ele><time>2026-04-26T09:14:48.115Z</time></trkpt><trkpt lat="44.3139933" lon="11.2945938"><ele>295.0</ele><time>2026-04-26T09:14:49.112Z</time></trkpt><trkpt lat="44.3140028" lon="11.2945052"><ele>295.0</ele><time>2026-04-26T09:14:50.106Z</time></trkpt><trkpt lat="44.3140105" lon="11.2943365"><ele>295.0</ele><time>2026-04-26T09:14:52.104Z</time></trkpt><trkpt lat="44.3140259" lon="11.2941736"><ele>295.0</ele><time>2026-04-26T09:14:54.11Z</time></trkpt><trkpt lat="44.3140221" lon="11.2940115"><ele>295.0</ele><time>2026-04-26T09:14:56.122Z</time></trkpt><trkpt lat="44.3140174" lon="11.2938636"><ele>295.0</ele><time>2026-04-26T09:14:58.109Z</time></trkpt><trkpt lat="44.313996" lon="11.2937102"><ele>295.0</ele><time>2026-04-26T09:15:00.113Z</time></trkpt><trkpt lat="44.313954" lon="11.2935626"><ele>295.0</ele><time>2026-04-26T09:15:02.116Z</time></trkpt><trkpt lat="44.3138919" lon="11.2934278"><ele>295.0</ele><time>2026-04-26T09:15:04.121Z</time></trkpt><trkpt lat="44.3138127" lon="11.2933169"><ele>295.0</ele><time>2026-04-26T09:15:06.114Z</time></trkpt><trkpt lat="44.3137183" lon="11.2932234"><ele>295.0</ele><time>2026-04-26T09:15:08.122Z</time></trkpt><trkpt lat="44.3136142" lon="11.2931429"><ele>295.0</ele><time>2026-04-26T09:15:10.11Z</time></trkpt><trkpt lat="44.3135104" lon="11.2930683"><ele>295.0</ele><time>2026-04-26T09:15:12.11Z</time></trkpt><trkpt lat="44.3134141" lon="11.293009"><ele>295.4</ele><time>2026-04-26T09:15:14.118Z</time></trkpt><trkpt lat="44.3133118" lon="11.2929406"><ele>295.8</ele><time>2026-04-26T09:15:16.125Z</time></trkpt><trkpt lat="44.3132141" lon="11.2928831"><ele>296.2</ele><time>2026-04-26T09:15:18.122Z</time></trkpt><trkpt lat="44.3131215" lon="11.29283"><ele>296.6</ele><time>2026-04-26T09:15:20.119Z</time></trkpt><trkpt lat="44.3130254" lon="11.2927816"><ele>297.0</ele><time>2026-04-26T09:15:22.104Z</time></trkpt><trkpt lat="44.3129213" lon="11.2927176"><ele>295.75</ele><time>2026-04-26T09:15:24.115Z</time></trkpt><trkpt lat="44.3128161" lon="11.2926444"><ele>294.5</ele><time>2026-04-26T09:15:26.116Z</time></trkpt><trkpt lat="44.3127093" lon="11.2925527"><ele>293.25</ele><time>2026-04-26T09:15:28.115Z</time></trkpt><trkpt lat="44.3126115" lon="11.2924481"><ele>292.0</ele><time>2026-04-26T09:15:30.107Z</time></trkpt><trkpt lat="44.3125239" lon="11.2923315"><ele>292.0</ele><time>2026-04-26T09:15:32.127Z</time></trkpt><trkpt lat="44.3124484" lon="11.2922122"><ele>292.0</ele><time>2026-04-26T09:15:34.112Z</time></trkpt><trkpt lat="44.3123745" lon="11.2920931"><ele>292.0</ele><time>2026-04-26T09:15:36.118Z</time></trkpt><trkpt lat="44.3122989" lon="11.2919755"><ele>292.0</ele><time>2026-04-26T09:15:38.12Z</time></trkpt><trkpt lat="44.3122207" lon="11.2918581"><ele>292.0</ele><time>2026-04-26T09:15:40.101Z</time></trkpt><trkpt lat="44.3121417" lon="11.2917432"><ele>292.0</ele><time>2026-04-26T09:15:42.116Z</time></trkpt><trkpt lat="44.3120589" lon="11.291643"><ele>292.0</ele><time>2026-04-26T09:15:44.124Z</time></trkpt><trkpt lat="44.3119621" lon="11.291565"><ele>292.0</ele><time>2026-04-26T09:15:46.115Z</time></trkpt><trkpt lat="44.3118649" lon="11.2915008"><ele>292.0</ele><time>2026-04-26T09:15:48.12Z</time></trkpt><trkpt lat="44.3117639" lon="11.2914511"><ele>290.4</ele><time>2026-04-26T09:15:50.109Z</time></trkpt><trkpt lat="44.3116621" lon="11.2914124"><ele>288.79999999999995</ele><time>2026-04-26T09:15:52.116Z</time></trkpt><trkpt lat="44.3115605" lon="11.2913672"><ele>287.2</ele><time>2026-04-26T09:15:54.107Z</time></trkpt><trkpt lat="44.3114591" lon="11.2913213"><ele>285.59999999999997</ele><time>2026-04-26T09:15:56.112Z</time></trkpt><trkpt lat="44.3113537" lon="11.2912828"><ele>284.0</ele><time>2026-04-26T09:15:58.115Z</time></trkpt><trkpt lat="44.3112475" lon="11.2912482"><ele>283.5</ele><time>2026-04-26T09:16:00.118Z</time></trkpt><trkpt lat="44.3111381" lon="11.2912166"><ele>283.0</ele><time>2026-04-26T09:16:02.111Z</time></trkpt><trkpt lat="44.3110217" lon="11.2911928"><ele>282.5</ele><time>2026-04-26T09:16:04.116Z</time></trkpt><trkpt lat="44.3109078" lon="11.2911645"><ele>282.0</ele><time>2026-04-26T09:16:06.109Z</time></trkpt><trkpt lat="44.3107931" lon="11.2911464"><ele>282.0</ele><time>2026-04-26T09:16:08.113Z</time></trkpt><trkpt lat="44.3106699" lon="11.2911438"><ele>282.0</ele><time>2026-04-26T09:16:10.126Z</time></trkpt><trkpt lat="44.3106052" lon="11.2911449"><ele>282.0</ele><time>2026-04-26T09:16:11.116Z</time></trkpt><trkpt lat="44.3104822" lon="11.2911533"><ele>282.0</ele><time>2026-04-26T09:16:13.119Z</time></trkpt><trkpt lat="44.3103656" lon="11.2911636"><ele>282.0</ele><time>2026-04-26T09:16:15.12Z</time></trkpt><trkpt lat="44.3102431" lon="11.2912011"><ele>281.7142857142857</ele><time>2026-04-26T09:16:17.12Z</time></trkpt><trkpt lat="44.3101777" lon="11.2912196"><ele>281.42857142857144</ele><time>2026-04-26T09:16:18.118Z</time></trkpt><trkpt lat="44.3101157" lon="11.2912349"><ele>281.1428571428571</ele><time>2026-04-26T09:16:19.117Z</time></trkpt><trkpt lat="44.3100514" lon="11.291255"><ele>280.8571428571429</ele><time>2026-04-26T09:16:20.117Z</time></trkpt><trkpt lat="44.3099877" lon="11.291271"><ele>280.57142857142856</ele><time>2026-04-26T09:16:21.119Z</time></trkpt><trkpt lat="44.3099249" lon="11.2912855"><ele>280.2857142857143</ele><time>2026-04-26T09:16:22.113Z</time></trkpt><trkpt lat="44.3098021" lon="11.2913187"><ele>280.0</ele><time>2026-04-26T09:16:24.123Z</time></trkpt><trkpt lat="44.3097389" lon="11.2913359"><ele>279.25</ele><time>2026-04-26T09:16:25.112Z</time></trkpt><trkpt lat="44.309621" lon="11.2913672"><ele>278.5</ele><time>2026-04-26T09:16:27.121Z</time></trkpt><trkpt lat="44.3095085" lon="11.2914046"><ele>277.75</ele><time>2026-04-26T09:16:29.116Z</time></trkpt><trkpt lat="44.3094002" lon="11.2914444"><ele>277.0</ele><time>2026-04-26T09:16:31.107Z</time></trkpt><trkpt lat="44.3092829" lon="11.2914827"><ele>278.0</ele><time>2026-04-26T09:16:33.114Z</time></trkpt><trkpt lat="44.3091623" lon="11.2915192"><ele>279.0</ele><time>2026-04-26T09:16:35.113Z</time></trkpt><trkpt lat="44.3090995" lon="11.2915386"><ele>280.0</ele><time>2026-04-26T09:16:36.117Z</time></trkpt><trkpt lat="44.3090366" lon="11.2915576"><ele>281.0</ele><time>2026-04-26T09:16:37.119Z</time></trkpt><trkpt lat="44.3089708" lon="11.2915741"><ele>282.0</ele><time>2026-04-26T09:16:38.118Z</time></trkpt><trkpt lat="44.3088447" lon="11.2916017"><ele>283.0</ele><time>2026-04-26T09:16:40.109Z</time></trkpt><trkpt lat="44.30878" lon="11.2916109"><ele>283.0</ele><time>2026-04-26T09:16:41.117Z</time></trkpt><trkpt lat="44.3087158" lon="11.291619"><ele>283.0</ele><time>2026-04-26T09:16:42.119Z</time></trkpt><trkpt lat="44.3086506" lon="11.2916183"><ele>283.0</ele><time>2026-04-26T09:16:43.112Z</time></trkpt><trkpt lat="44.3085836" lon="11.291612"><ele>283.0</ele><time>2026-04-26T09:16:44.122Z</time></trkpt><trkpt lat="44.3085179" lon="11.2915979"><ele>283.0</ele><time>2026-04-26T09:16:45.121Z</time></trkpt><trkpt lat="44.3084538" lon="11.2915783"><ele>283.0</ele><time>2026-04-26T09:16:46.11Z</time></trkpt><trkpt lat="44.3083919" lon="11.291554"><ele>283.0</ele><time>2026-04-26T09:16:47.127Z</time></trkpt><trkpt lat="44.3082742" lon="11.2914932"><ele>282.75</ele><time>2026-04-26T09:16:49.118Z</time></trkpt><trkpt lat="44.3081663" lon="11.2914086"><ele>282.5</ele><time>2026-04-26T09:16:51.115Z</time></trkpt><trkpt lat="44.3080685" lon="11.2913035"><ele>282.25</ele><time>2026-04-26T09:16:53.113Z</time></trkpt><trkpt lat="44.3079763" lon="11.291188"><ele>282.0</ele><time>2026-04-26T09:16:55.118Z</time></trkpt><trkpt lat="44.3078889" lon="11.2910707"><ele>282.0</ele><time>2026-04-26T09:16:57.123Z</time></trkpt><trkpt lat="44.3078032" lon="11.2909517"><ele>282.0</ele><time>2026-04-26T09:16:59.116Z</time></trkpt><trkpt lat="44.3077168" lon="11.2908346"><ele>282.0</ele><time>2026-04-26T09:17:01.114Z</time></trkpt><trkpt lat="44.3076326" lon="11.290716"><ele>282.0</ele><time>2026-04-26T09:17:03.108Z</time></trkpt><trkpt lat="44.3075462" lon="11.2906011"><ele>282.5</ele><time>2026-04-26T09:17:05.111Z</time></trkpt><trkpt lat="44.3074606" lon="11.2904844"><ele>283.0</ele><time>2026-04-26T09:17:07.119Z</time></trkpt><trkpt lat="44.3073747" lon="11.2903695"><ele>283.5</ele><time>2026-04-26T09:17:09.115Z</time></trkpt><trkpt lat="44.3072859" lon="11.2902595"><ele>284.0</ele><time>2026-04-26T09:17:11.112Z</time></trkpt><trkpt lat="44.3071912" lon="11.2901578"><ele>284.5</ele><time>2026-04-26T09:17:13.123Z</time></trkpt><trkpt lat="44.3070894" lon="11.2900677"><ele>285.0</ele><time>2026-04-26T09:17:15.124Z</time></trkpt><trkpt lat="44.3069822" lon="11.2899911"><ele>285.5</ele><time>2026-04-26T09:17:17.114Z</time></trkpt><trkpt lat="44.3068685" lon="11.289927"><ele>286.0</ele><time>2026-04-26T09:17:19.113Z</time></trkpt><trkpt lat="44.3067493" lon="11.2898767"><ele>286.0</ele><time>2026-04-26T09:17:21.125Z</time></trkpt><trkpt lat="44.3066874" lon="11.2898588"><ele>286.0</ele><time>2026-04-26T09:17:22.118Z</time></trkpt><trkpt lat="44.3065641" lon="11.2898334"><ele>286.0</ele><time>2026-04-26T09:17:24.114Z</time></trkpt><trkpt lat="44.3064407" lon="11.28982"><ele>286.0</ele><time>2026-04-26T09:17:26.116Z</time></trkpt><trkpt lat="44.3063176" lon="11.2898162"><ele>286.0</ele><time>2026-04-26T09:17:28.116Z</time></trkpt><trkpt lat="44.3061939" lon="11.2898246"><ele>286.0</ele><time>2026-04-26T09:17:30.121Z</time></trkpt><trkpt lat="44.3060704" lon="11.2898376"><ele>286.0</ele><time>2026-04-26T09:17:32.117Z</time></trkpt><trkpt lat="44.3059474" lon="11.2898604"><ele>286.0</ele><time>2026-04-26T09:17:34.111Z</time></trkpt><trkpt lat="44.3058276" lon="11.2899036"><ele>286.0</ele><time>2026-04-26T09:17:36.123Z</time></trkpt><trkpt lat="44.3057109" lon="11.2899549"><ele>286.0</ele><time>2026-04-26T09:17:38.116Z</time></trkpt><trkpt lat="44.3055967" lon="11.2900188"><ele>286.0</ele><time>2026-04-26T09:17:40.12Z</time></trkpt><trkpt lat="44.3054886" lon="11.2900891"><ele>286.0</ele><time>2026-04-26T09:17:42.118Z</time></trkpt><trkpt lat="44.3053824" lon="11.290174"><ele>286.0</ele><time>2026-04-26T09:17:44.125Z</time></trkpt><trkpt lat="44.3052821" lon="11.2902629"><ele>285.8</ele><time>2026-04-26T09:17:46.121Z</time></trkpt><trkpt lat="44.3052288" lon="11.2903117"><ele>285.6</ele><time>2026-04-26T09:17:47.121Z</time></trkpt><trkpt lat="44.3051291" lon="11.2904068"><ele>285.4</ele><time>2026-04-26T09:17:49.109Z</time></trkpt><trkpt lat="44.3050301" lon="11.2905012"><ele>285.2</ele><time>2026-04-26T09:17:51.106Z</time></trkpt><trkpt lat="44.3049267" lon="11.2905916"><ele>285.0</ele><time>2026-04-26T09:17:53.11Z</time></trkpt><trkpt lat="44.304826" lon="11.2906778"><ele>286.4</ele><time>2026-04-26T09:17:55.107Z</time></trkpt><trkpt lat="44.3047221" lon="11.2907605"><ele>287.8</ele><time>2026-04-26T09:17:57.117Z</time></trkpt><trkpt lat="44.3046645" lon="11.2907998"><ele>289.2</ele><time>2026-04-26T09:17:58.109Z</time></trkpt><trkpt lat="44.3046067" lon="11.2908383"><ele>290.6</ele><time>2026-04-26T09:17:59.121Z</time></trkpt><trkpt lat="44.3044922" lon="11.2909101"><ele>292.0</ele><time>2026-04-26T09:18:01.109Z</time></trkpt><trkpt lat="44.3043744" lon="11.2909742"><ele>292.0</ele><time>2026-04-26T09:18:03.111Z</time></trkpt><trkpt lat="44.3043128" lon="11.2910068"><ele>292.0</ele><time>2026-04-26T09:18:04.123Z</time></trkpt><trkpt lat="44.3042449" lon="11.2910341"><ele>292.0</ele><time>2026-04-26T09:18:05.124Z</time></trkpt><trkpt lat="44.3041804" lon="11.2910605"><ele>292.0</ele><time>2026-04-26T09:18:06.111Z</time></trkpt><trkpt lat="44.3059474" lon="11.2898604"><ele>290.5</ele><time>2026-04-26T09:17:34.111Z</time></trkpt><trkpt lat="44.3058276" lon="11.2899036"><ele>289.0</ele><time>2026-04-26T09:17:36.123Z</time></trkpt><trkpt lat="44.3057109" lon="11.2899549"><ele>287.5</ele><time>2026-04-26T09:17:38.116Z</time></trkpt><trkpt lat="44.3055967" lon="11.2900188"><ele>286.0</ele><time>2026-04-26T09:17:40.12Z</time></trkpt><trkpt lat="44.3054886" lon="11.2900891"><ele>285.8</ele><time>2026-04-26T09:17:42.118Z</time></trkpt><trkpt lat="44.3053824" lon="11.290174"><ele>285.6</ele><time>2026-04-26T09:17:44.125Z</time></trkpt><trkpt lat="44.3052821" lon="11.2902629"><ele>285.4</ele><time>2026-04-26T09:17:46.121Z</time></trkpt><trkpt lat="44.3052288" lon="11.2903117"><ele>285.2</ele><time>2026-04-26T09:17:47.121Z</time></trkpt><trkpt lat="44.3051291" lon="11.2904068"><ele>285.0</ele><time>2026-04-26T09:17:49.109Z</time></trkpt><trkpt lat="44.3050301" lon="11.2905012"><ele>286.2</ele><time>2026-04-26T09:17:51.106Z</time></trkpt><trkpt lat="44.3049267" lon="11.2905916"><ele>287.4</ele><time>2026-04-26T09:17:53.11Z</time></trkpt><trkpt lat="44.304826" lon="11.2906778"><ele>288.6</ele><time>2026-04-26T09:17:55.107Z</time></trkpt><trkpt lat="44.3047221" lon="11.2907605"><ele>289.8</ele><time>2026-04-26T09:17:57.117Z</time></trkpt><trkpt lat="44.3046645" lon="11.2907998"><ele>291.0</ele><time>2026-04-26T09:17:58.109Z</time></trkpt><trkpt lat="44.3046067" lon="11.2908383"><ele>291.2</ele><time>2026-04-26T09:17:59.121Z</time></trkpt><trkpt lat="44.3044922" lon="11.2909101"><ele>291.40000000000003</ele><time>2026-04-26T09:18:01.109Z</time></trkpt><trkpt lat="44.3043744" lon="11.2909742"><ele>291.6</ele><time>2026-04-26T09:18:03.111Z</time></trkpt><trkpt lat="44.3043128" lon="11.2910068"><ele>291.8</ele><time>2026-04-26T09:18:04.123Z</time></trkpt><trkpt lat="44.3042449" lon="11.2910341"><ele>292.0</ele><time>2026-04-26T09:18:05.124Z</time></trkpt><trkpt lat="44.3041804" lon="11.2910605"><ele>292.0</ele><time>2026-04-26T09:18:06.111Z</time></trkpt><trkpt lat="44.3040619" lon="11.2911054"><ele>292.0</ele><time>2026-04-26T09:18:08.108Z</time></trkpt><trkpt lat="44.3039424" lon="11.291148"><ele>292.0</ele><time>2026-04-26T09:18:10.116Z</time></trkpt><trkpt lat="44.3038819" lon="11.2911752"><ele>292.0</ele><time>2026-04-26T09:18:11.111Z</time></trkpt><trkpt lat="44.3038188" lon="11.291195"><ele>292.0</ele><time>2026-04-26T09:18:12.114Z</time></trkpt><trkpt lat="44.3036958" lon="11.2912377"><ele>291.3333333333333</ele><time>2026-04-26T09:18:14.099Z</time></trkpt><trkpt lat="44.3035769" lon="11.2912809"><ele>290.66666666666663</ele><time>2026-04-26T09:18:16.115Z</time></trkpt><trkpt lat="44.3035141" lon="11.2913016"><ele>290.0</ele><time>2026-04-26T09:18:17.114Z</time></trkpt><trkpt lat="44.3034525" lon="11.2913237"><ele>289.3333333333333</ele><time>2026-04-26T09:18:18.108Z</time></trkpt><trkpt lat="44.3033337" lon="11.2913669"><ele>288.6666666666667</ele><time>2026-04-26T09:18:20.128Z</time></trkpt><trkpt lat="44.3032729" lon="11.2913918"><ele>288.0</ele><time>2026-04-26T09:18:21.109Z</time></trkpt><trkpt lat="44.3032114" lon="11.2914133"><ele>289.4</ele><time>2026-04-26T09:18:22.118Z</time></trkpt><trkpt lat="44.3030941" lon="11.291457"><ele>290.8</ele><time>2026-04-26T09:18:24.107Z</time></trkpt><trkpt lat="44.3029727" lon="11.2915014"><ele>292.2</ele><time>2026-04-26T09:18:26.124Z</time></trkpt><trkpt lat="44.3028545" lon="11.2915477"><ele>293.6</ele><time>2026-04-26T09:18:28.114Z</time></trkpt><trkpt lat="44.3027914" lon="11.2915678"><ele>295.0</ele><time>2026-04-26T09:18:29.112Z</time></trkpt><trkpt lat="44.3026737" lon="11.291606"><ele>295.0</ele><time>2026-04-26T09:18:31.113Z</time></trkpt><trkpt lat="44.3026124" lon="11.2916266"><ele>295.0</ele><time>2026-04-26T09:18:32.114Z</time></trkpt><trkpt lat="44.3024937" lon="11.2916734"><ele>295.0</ele><time>2026-04-26T09:18:34.119Z</time></trkpt><trkpt lat="44.3023807" lon="11.2917151"><ele>295.0</ele><time>2026-04-26T09:18:36.11Z</time></trkpt><trkpt lat="44.302262" lon="11.2917572"><ele>295.0</ele><time>2026-04-26T09:18:38.11Z</time></trkpt><trkpt lat="44.3022005" lon="11.2917816"><ele>294.0</ele><time>2026-04-26T09:18:39.106Z</time></trkpt><trkpt lat="44.3020811" lon="11.2918256"><ele>293.0</ele><time>2026-04-26T09:18:41.109Z</time></trkpt><trkpt lat="44.3019643" lon="11.2918703"><ele>292.0</ele><time>2026-04-26T09:18:43.117Z</time></trkpt><trkpt lat="44.3018508" lon="11.2919111"><ele>291.0</ele><time>2026-04-26T09:18:45.108Z</time></trkpt><trkpt lat="44.3017375" lon="11.2919527"><ele>291.0</ele><time>2026-04-26T09:18:47.107Z</time></trkpt><trkpt lat="44.3016203" lon="11.2919827"><ele>291.0</ele><time>2026-04-26T09:18:49.107Z</time></trkpt><trkpt lat="44.3015027" lon="11.2920012"><ele>291.0</ele><time>2026-04-26T09:18:51.117Z</time></trkpt><trkpt lat="44.3013854" lon="11.2920113"><ele>291.0</ele><time>2026-04-26T09:18:53.113Z</time></trkpt><trkpt lat="44.3012675" lon="11.2920097"><ele>291.2</ele><time>2026-04-26T09:18:55.109Z</time></trkpt><trkpt lat="44.3011491" lon="11.2919913"><ele>291.40000000000003</ele><time>2026-04-26T09:18:57.118Z</time></trkpt><trkpt lat="44.3010304" lon="11.2919603"><ele>291.6</ele><time>2026-04-26T09:18:59.106Z</time></trkpt><trkpt lat="44.3009109" lon="11.291922"><ele>291.8</ele><time>2026-04-26T09:19:01.113Z</time></trkpt><trkpt lat="44.3008501" lon="11.2918985"><ele>292.0</ele><time>2026-04-26T09:19:02.104Z</time></trkpt><trkpt lat="44.3007888" lon="11.2918755"><ele>292.0</ele><time>2026-04-26T09:19:03.116Z</time></trkpt><trkpt lat="44.3006718" lon="11.2918241"><ele>292.0</ele><time>2026-04-26T09:19:05.111Z</time></trkpt><trkpt lat="44.3005537" lon="11.2917734"><ele>292.0</ele><time>2026-04-26T09:19:07.112Z</time></trkpt><trkpt lat="44.300435" lon="11.2917261"><ele>292.0</ele><time>2026-04-26T09:19:09.105Z</time></trkpt><trkpt lat="44.3003186" lon="11.2916765"><ele>294.25</ele><time>2026-04-26T09:19:11.108Z</time></trkpt><trkpt lat="44.3002043" lon="11.2916246"><ele>296.5</ele><time>2026-04-26T09:19:13.107Z</time></trkpt><trkpt lat="44.3000863" lon="11.291574"><ele>298.75</ele><time>2026-04-26T09:19:15.108Z</time></trkpt><trkpt lat="44.2999705" lon="11.2915239"><ele>301.0</ele><time>2026-04-26T09:19:17.114Z</time></trkpt><trkpt lat="44.2998534" lon="11.291477"><ele>299.25</ele><time>2026-04-26T09:19:19.111Z</time></trkpt><trkpt lat="44.2997393" lon="11.2914276"><ele>297.5</ele><time>2026-04-26T09:19:21.107Z</time></trkpt><trkpt lat="44.2996251" lon="11.291378"><ele>295.75</ele><time>2026-04-26T09:19:23.123Z</time></trkpt><trkpt lat="44.2995147" lon="11.291329"><ele>294.0</ele><time>2026-04-26T09:19:25.106Z</time></trkpt><trkpt lat="44.2994032" lon="11.2912811"><ele>294.0</ele><time>2026-04-26T09:19:27.113Z</time></trkpt><trkpt lat="44.2992922" lon="11.2912333"><ele>294.0</ele><time>2026-04-26T09:19:29.106Z</time></trkpt><trkpt lat="44.2991813" lon="11.291187"><ele>294.0</ele><time>2026-04-26T09:19:31.113Z</time></trkpt><trkpt lat="44.299072" lon="11.2911342"><ele>294.0</ele><time>2026-04-26T09:19:33.108Z</time></trkpt><trkpt lat="44.2989619" lon="11.2910872"><ele>295.0</ele><time>2026-04-26T09:19:35.107Z</time></trkpt><trkpt lat="44.2988501" lon="11.2910395"><ele>296.0</ele><time>2026-04-26T09:19:37.112Z</time></trkpt><trkpt lat="44.2987369" lon="11.2909912"><ele>297.0</ele><time>2026-04-26T09:19:39.12Z</time></trkpt><trkpt lat="44.2986246" lon="11.2909427"><ele>298.0</ele><time>2026-04-26T09:19:41.118Z</time></trkpt><trkpt lat="44.298513" lon="11.2908963"><ele>298.0</ele><time>2026-04-26T09:19:43.117Z</time></trkpt><trkpt lat="44.2984012" lon="11.2908484"><ele>298.0</ele><time>2026-04-26T09:19:45.102Z</time></trkpt><trkpt lat="44.2982903" lon="11.2908016"><ele>298.0</ele><time>2026-04-26T09:19:47.12Z</time></trkpt><trkpt lat="44.2981785" lon="11.290754"><ele>298.0</ele><time>2026-04-26T09:19:49.11Z</time></trkpt><trkpt lat="44.2980683" lon="11.2907072"><ele>297.5</ele><time>2026-04-26T09:19:51.112Z</time></trkpt><trkpt lat="44.2979573" lon="11.2906605"><ele>297.0</ele><time>2026-04-26T09:19:53.109Z</time></trkpt><trkpt lat="44.297844" lon="11.2906122"><ele>296.5</ele><time>2026-04-26T09:19:55.111Z</time></trkpt><trkpt lat="44.2977332" lon="11.2905647"><ele>296.0</ele><time>2026-04-26T09:19:57.113Z</time></trkpt><trkpt lat="44.2976205" lon="11.2905175"><ele>296.0</ele><time>2026-04-26T09:19:59.114Z</time></trkpt><trkpt lat="44.2975087" lon="11.2904696"><ele>296.0</ele><time>2026-04-26T09:20:01.108Z</time></trkpt><trkpt lat="44.2973964" lon="11.2904201"><ele>296.0</ele><time>2026-04-26T09:20:03.109Z</time></trkpt><trkpt lat="44.2972833" lon="11.2903774"><ele>296.0</ele><time>2026-04-26T09:20:05.117Z</time></trkpt><trkpt lat="44.2971711" lon="11.2903301"><ele>296.0</ele><time>2026-04-26T09:20:07.128Z</time></trkpt><trkpt lat="44.2970587" lon="11.2902818"><ele>296.0</ele><time>2026-04-26T09:20:09.116Z</time></trkpt><trkpt lat="44.2969469" lon="11.2902302"><ele>296.0</ele><time>2026-04-26T09:20:11.118Z</time></trkpt><trkpt lat="44.2968354" lon="11.2901801"><ele>296.0</ele><time>2026-04-26T09:20:13.118Z</time></trkpt><trkpt lat="44.2967242" lon="11.2901333"><ele>296.0</ele><time>2026-04-26T09:20:15.106Z</time></trkpt><trkpt lat="44.2966146" lon="11.2900867"><ele>296.0</ele><time>2026-04-26T09:20:17.113Z</time></trkpt><trkpt lat="44.2965051" lon="11.2900394"><ele>296.0</ele><time>2026-04-26T09:20:19.111Z</time></trkpt><trkpt lat="44.2963946" lon="11.2899938"><ele>296.0</ele><time>2026-04-26T09:20:21.11Z</time></trkpt><trkpt lat="44.2962847" lon="11.2899464"><ele>296.25</ele><time>2026-04-26T09:20:23.117Z</time></trkpt><trkpt lat="44.296176" lon="11.2899009"><ele>296.5</ele><time>2026-04-26T09:20:25.115Z</time></trkpt><trkpt lat="44.2960653" lon="11.2898534"><ele>296.75</ele><time>2026-04-26T09:20:27.117Z</time></trkpt><trkpt lat="44.2959536" lon="11.2898063"><ele>297.0</ele><time>2026-04-26T09:20:29.11Z</time></trkpt><trkpt lat="44.2958433" lon="11.2897574"><ele>297.0</ele><time>2026-04-26T09:20:31.111Z</time></trkpt><trkpt lat="44.2957325" lon="11.2897118"><ele>297.0</ele><time>2026-04-26T09:20:33.113Z</time></trkpt><trkpt lat="44.2956223" lon="11.2896639"><ele>297.0</ele><time>2026-04-26T09:20:35.112Z</time></trkpt><trkpt lat="44.2955117" lon="11.289618"><ele>297.0</ele><time>2026-04-26T09:20:37.104Z</time></trkpt><trkpt lat="44.2954" lon="11.2895708"><ele>298.0</ele><time>2026-04-26T09:20:39.11Z</time></trkpt><trkpt lat="44.2952877" lon="11.2895232"><ele>299.0</ele><time>2026-04-26T09:20:41.109Z</time></trkpt><trkpt lat="44.2951744" lon="11.2894736"><ele>300.0</ele><time>2026-04-26T09:20:43.119Z</time></trkpt><trkpt lat="44.2950612" lon="11.2894252"><ele>301.0</ele><time>2026-04-26T09:20:45.119Z</time></trkpt><trkpt lat="44.2949508" lon="11.2893763"><ele>301.0</ele><time>2026-04-26T09:20:47.108Z</time></trkpt><trkpt lat="44.2948397" lon="11.2893298"><ele>301.0</ele><time>2026-04-26T09:20:49.11Z</time></trkpt><trkpt lat="44.294727" lon="11.2892816"><ele>301.0</ele><time>2026-04-26T09:20:51.11Z</time></trkpt><trkpt lat="44.2946109" lon="11.2892461"><ele>301.0</ele><time>2026-04-26T09:20:53.118Z</time></trkpt><trkpt lat="44.2944951" lon="11.2892099"><ele>302.0</ele><time>2026-04-26T09:20:55.123Z</time></trkpt><trkpt lat="44.2943813" lon="11.2891785"><ele>303.0</ele><time>2026-04-26T09:20:57.113Z</time></trkpt><trkpt lat="44.2942657" lon="11.2891519"><ele>304.0</ele><time>2026-04-26T09:20:59.107Z</time></trkpt><trkpt lat="44.2941482" lon="11.289131"><ele>305.0</ele><time>2026-04-26T09:21:01.118Z</time></trkpt><trkpt lat="44.2940282" lon="11.28912"><ele>306.5</ele><time>2026-04-26T09:21:03.114Z</time></trkpt><trkpt lat="44.2939058" lon="11.2891123"><ele>308.0</ele><time>2026-04-26T09:21:05.107Z</time></trkpt><trkpt lat="44.2937862" lon="11.2891015"><ele>309.5</ele><time>2026-04-26T09:21:07.111Z</time></trkpt><trkpt lat="44.2936651" lon="11.2890912"><ele>311.0</ele><time>2026-04-26T09:21:09.117Z</time></trkpt><trkpt lat="44.2935422" lon="11.2890859"><ele>311.0</ele><time>2026-04-26T09:21:11.106Z</time></trkpt><trkpt lat="44.2934198" lon="11.28908"><ele>311.0</ele><time>2026-04-26T09:21:13.109Z</time></trkpt><trkpt lat="44.2932964" lon="11.2890716"><ele>311.0</ele><time>2026-04-26T09:21:15.112Z</time></trkpt><trkpt lat="44.2931739" lon="11.2890626"><ele>311.0</ele><time>2026-04-26T09:21:17.112Z</time></trkpt><trkpt lat="44.2930491" lon="11.2890568"><ele>312.5</ele><time>2026-04-26T09:21:19.114Z</time></trkpt><trkpt lat="44.2929299" lon="11.2890538"><ele>314.0</ele><time>2026-04-26T09:21:21.11Z</time></trkpt><trkpt lat="44.2928154" lon="11.2890523"><ele>315.5</ele><time>2026-04-26T09:21:23.11Z</time></trkpt><trkpt lat="44.2926887" lon="11.2890566"><ele>317.0</ele><time>2026-04-26T09:21:25.111Z</time></trkpt><trkpt lat="44.2925616" lon="11.289062"><ele>317.0</ele><time>2026-04-26T09:21:27.106Z</time></trkpt><trkpt lat="44.2924375" lon="11.2890585"><ele>317.0</ele><time>2026-04-26T09:21:29.115Z</time></trkpt><trkpt lat="44.292318" lon="11.2890533"><ele>317.0</ele><time>2026-04-26T09:21:31.117Z</time></trkpt><trkpt lat="44.2921951" lon="11.2890529"><ele>317.0</ele><time>2026-04-26T09:21:33.119Z</time></trkpt><trkpt lat="44.2920731" lon="11.2890514"><ele>317.2</ele><time>2026-04-26T09:21:35.126Z</time></trkpt><trkpt lat="44.29201" lon="11.2890524"><ele>317.4</ele><time>2026-04-26T09:21:36.108Z</time></trkpt><trkpt lat="44.2918874" lon="11.2890393"><ele>317.6</ele><time>2026-04-26T09:21:38.11Z</time></trkpt><trkpt lat="44.2917633" lon="11.2890268"><ele>317.8</ele><time>2026-04-26T09:21:40.123Z</time></trkpt><trkpt lat="44.2916421" lon="11.2890228"><ele>318.0</ele><time>2026-04-26T09:21:42.112Z</time></trkpt><trkpt lat="44.2915212" lon="11.2890181"><ele>316.0</ele><time>2026-04-26T09:21:44.12Z</time></trkpt><trkpt lat="44.2913979" lon="11.2890163"><ele>314.0</ele><time>2026-04-26T09:21:46.121Z</time></trkpt><trkpt lat="44.2912761" lon="11.2890224"><ele>312.0</ele><time>2026-04-26T09:21:48.122Z</time></trkpt><trkpt lat="44.2911535" lon="11.2890393"><ele>310.0</ele><time>2026-04-26T09:21:50.116Z</time></trkpt><trkpt lat="44.2910335" lon="11.2890686"><ele>310.0</ele><time>2026-04-26T09:21:52.11Z</time></trkpt><trkpt lat="44.2909211" lon="11.2891193"><ele>310.0</ele><time>2026-04-26T09:21:54.118Z</time></trkpt><trkpt lat="44.2908129" lon="11.2891842"><ele>310.0</ele><time>2026-04-26T09:21:56.116Z</time></trkpt><trkpt lat="44.2907143" lon="11.2892597"><ele>310.0</ele><time>2026-04-26T09:21:58.122Z</time></trkpt><trkpt lat="44.2906191" lon="11.2893441"><ele>310.0</ele><time>2026-04-26T09:22:00.114Z</time></trkpt><trkpt lat="44.2905229" lon="11.2894342"><ele>310.0</ele><time>2026-04-26T09:22:02.103Z</time></trkpt><trkpt lat="44.2904304" lon="11.2895257"><ele>310.0</ele><time>2026-04-26T09:22:04.11Z</time></trkpt><trkpt lat="44.2903412" lon="11.2896234"><ele>310.0</ele><time>2026-04-26T09:22:06.108Z</time></trkpt><trkpt lat="44.2902617" lon="11.289738"><ele>310.25</ele><time>2026-04-26T09:22:08.115Z</time></trkpt><trkpt lat="44.2901924" lon="11.2898638"><ele>310.5</ele><time>2026-04-26T09:22:10.111Z</time></trkpt><trkpt lat="44.2901404" lon="11.29001"><ele>310.75</ele><time>2026-04-26T09:22:12.111Z</time></trkpt><trkpt lat="44.2901086" lon="11.2901696"><ele>311.0</ele><time>2026-04-26T09:22:14.111Z</time></trkpt><trkpt lat="44.290091" lon="11.2903322"><ele>311.0</ele><time>2026-04-26T09:22:16.113Z</time></trkpt><trkpt lat="44.2900866" lon="11.2905002"><ele>311.0</ele><time>2026-04-26T09:22:18.107Z</time></trkpt><trkpt lat="44.2900847" lon="11.2906692"><ele>311.0</ele><time>2026-04-26T09:22:20.105Z</time></trkpt><trkpt lat="44.2900848" lon="11.2908362"><ele>311.0</ele><time>2026-04-26T09:22:22.107Z</time></trkpt><trkpt lat="44.2900838" lon="11.2910102"><ele>311.40000000000003</ele><time>2026-04-26T09:22:24.11Z</time></trkpt><trkpt lat="44.2900849" lon="11.291181"><ele>311.8</ele><time>2026-04-26T09:22:26.122Z</time></trkpt><trkpt lat="44.2900852" lon="11.2913533"><ele>312.20000000000005</ele><time>2026-04-26T09:22:28.111Z</time></trkpt><trkpt lat="44.2900739" lon="11.2915243"><ele>312.6</ele><time>2026-04-26T09:22:30.117Z</time></trkpt><trkpt lat="44.2900634" lon="11.2916128"><ele>313.0</ele><time>2026-04-26T09:22:31.115Z</time></trkpt><trkpt lat="44.2900485" lon="11.291699"><ele>312.5</ele><time>2026-04-26T09:22:32.104Z</time></trkpt><trkpt lat="44.2899961" lon="11.291854"><ele>312.0</ele><time>2026-04-26T09:22:34.114Z</time></trkpt><trkpt lat="44.2899186" lon="11.2919888"><ele>311.5</ele><time>2026-04-26T09:22:36.105Z</time></trkpt><trkpt lat="44.289825" lon="11.2921007"><ele>311.0</ele><time>2026-04-26T09:22:38.116Z</time></trkpt><trkpt lat="44.2897211" lon="11.2921906"><ele>311.75</ele><time>2026-04-26T09:22:40.111Z</time></trkpt><trkpt lat="44.2896106" lon="11.2922635"><ele>312.5</ele><time>2026-04-26T09:22:42.103Z</time></trkpt><trkpt lat="44.2894936" lon="11.2923154"><ele>313.25</ele><time>2026-04-26T09:22:44.107Z</time></trkpt><trkpt lat="44.2893708" lon="11.292341"><ele>314.0</ele><time>2026-04-26T09:22:46.116Z</time></trkpt><trkpt lat="44.289246" lon="11.2923352"><ele>314.0</ele><time>2026-04-26T09:22:48.11Z</time></trkpt><trkpt lat="44.2891834" lon="11.2923235"><ele>314.0</ele><time>2026-04-26T09:22:49.115Z</time></trkpt><trkpt lat="44.289061" lon="11.2922849"><ele>314.0</ele><time>2026-04-26T09:22:51.114Z</time></trkpt><trkpt lat="44.2890008" lon="11.2922561"><ele>314.0</ele><time>2026-04-26T09:22:52.116Z</time></trkpt><trkpt lat="44.2888868" lon="11.292187"><ele>314.0</ele><time>2026-04-26T09:22:54.11Z</time></trkpt><trkpt lat="44.2887818" lon="11.2921045"><ele>314.25</ele><time>2026-04-26T09:22:56.106Z</time></trkpt><trkpt lat="44.2886827" lon="11.2920152"><ele>314.5</ele><time>2026-04-26T09:22:58.117Z</time></trkpt><trkpt lat="44.2885863" lon="11.2919278"><ele>314.75</ele><time>2026-04-26T09:23:00.102Z</time></trkpt><trkpt lat="44.2884931" lon="11.2918402"><ele>315.0</ele><time>2026-04-26T09:23:02.105Z</time></trkpt><trkpt lat="44.2884021" lon="11.2917567"><ele>315.0</ele><time>2026-04-26T09:23:04.114Z</time></trkpt><trkpt lat="44.2883126" lon="11.2916737"><ele>315.0</ele><time>2026-04-26T09:23:06.113Z</time></trkpt><trkpt lat="44.2882234" lon="11.291593"><ele>315.0</ele><time>2026-04-26T09:23:08.113Z</time></trkpt><trkpt lat="44.2881332" lon="11.2915106"><ele>315.0</ele><time>2026-04-26T09:23:10.111Z</time></trkpt><trkpt lat="44.2880435" lon="11.2914239"><ele>315.0</ele><time>2026-04-26T09:23:12.106Z</time></trkpt><trkpt lat="44.287954" lon="11.2913441"><ele>316.0</ele><time>2026-04-26T09:23:14.118Z</time></trkpt><trkpt lat="44.2878651" lon="11.2912632"><ele>317.0</ele><time>2026-04-26T09:23:16.12Z</time></trkpt><trkpt lat="44.287777" lon="11.2911815"><ele>318.0</ele><time>2026-04-26T09:23:18.108Z</time></trkpt><trkpt lat="44.2876903" lon="11.2911029"><ele>319.0</ele><time>2026-04-26T09:23:20.107Z</time></trkpt><trkpt lat="44.2876041" lon="11.2910243"><ele>320.0</ele><time>2026-04-26T09:23:22.111Z</time></trkpt><trkpt lat="44.287516" lon="11.2909474"><ele>320.0</ele><time>2026-04-26T09:23:24.119Z</time></trkpt><trkpt lat="44.2874236" lon="11.2908737"><ele>320.0</ele><time>2026-04-26T09:23:26.109Z</time></trkpt><trkpt lat="44.2873283" lon="11.2908116"><ele>320.0</ele><time>2026-04-26T09:23:28.124Z</time></trkpt><trkpt lat="44.2872289" lon="11.2907581"><ele>320.0</ele><time>2026-04-26T09:23:30.105Z</time></trkpt><trkpt lat="44.2871241" lon="11.2907229"><ele>320.0</ele><time>2026-04-26T09:23:32.118Z</time></trkpt><trkpt lat="44.2870172" lon="11.2907014"><ele>321.8</ele><time>2026-04-26T09:23:34.11Z</time></trkpt><trkpt lat="44.2869094" lon="11.2906898"><ele>323.6</ele><time>2026-04-26T09:23:36.119Z</time></trkpt><trkpt lat="44.2867991" lon="11.2906842"><ele>325.4</ele><time>2026-04-26T09:23:38.118Z</time></trkpt><trkpt lat="44.2866946" lon="11.2906737"><ele>327.2</ele><time>2026-04-26T09:23:40.112Z</time></trkpt><trkpt lat="44.2865936" lon="11.2906631"><ele>329.0</ele><time>2026-04-26T09:23:42.113Z</time></trkpt><trkpt lat="44.2864937" lon="11.2906556"><ele>327.5</ele><time>2026-04-26T09:23:44.111Z</time></trkpt><trkpt lat="44.2863771" lon="11.2906472"><ele>326.0</ele><time>2026-04-26T09:23:46.112Z</time></trkpt><trkpt lat="44.2862604" lon="11.2906356"><ele>324.5</ele><time>2026-04-26T09:23:48.115Z</time></trkpt><trkpt lat="44.286138" lon="11.2906251"><ele>323.0</ele><time>2026-04-26T09:23:50.116Z</time></trkpt><trkpt lat="44.286019" lon="11.2906159"><ele>323.0</ele><time>2026-04-26T09:23:52.118Z</time></trkpt><trkpt lat="44.2858978" lon="11.290605"><ele>323.0</ele><time>2026-04-26T09:23:54.114Z</time></trkpt><trkpt lat="44.2857791" lon="11.2905937"><ele>323.0</ele><time>2026-04-26T09:23:56.109Z</time></trkpt><trkpt lat="44.2856594" lon="11.2905827"><ele>323.0</ele><time>2026-04-26T09:23:58.116Z</time></trkpt><trkpt lat="44.2855392" lon="11.29057"><ele>322.5</ele><time>2026-04-26T09:24:00.116Z</time></trkpt><trkpt lat="44.2854191" lon="11.2905589"><ele>322.0</ele><time>2026-04-26T09:24:02.113Z</time></trkpt><trkpt lat="44.2853008" lon="11.2905468"><ele>321.5</ele><time>2026-04-26T09:24:04.118Z</time></trkpt><trkpt lat="44.2851818" lon="11.2905352"><ele>321.0</ele><time>2026-04-26T09:24:06.111Z</time></trkpt><trkpt lat="44.285062" lon="11.2905265"><ele>321.0</ele><time>2026-04-26T09:24:08.116Z</time></trkpt><trkpt lat="44.2849439" lon="11.290514"><ele>321.0</ele><time>2026-04-26T09:24:10.117Z</time></trkpt><trkpt lat="44.2848231" lon="11.2904998"><ele>321.0</ele><time>2026-04-26T09:24:12.122Z</time></trkpt><trkpt lat="44.284701" lon="11.2904878"><ele>321.0</ele><time>2026-04-26T09:24:14.116Z</time></trkpt><trkpt lat="44.2845797" lon="11.2904759"><ele>321.5</ele><time>2026-04-26T09:24:16.107Z</time></trkpt><trkpt lat="44.28446" lon="11.2904621"><ele>322.0</ele><time>2026-04-26T09:24:18.125Z</time></trkpt><trkpt lat="44.284341" lon="11.2904497"><ele>322.5</ele><time>2026-04-26T09:24:20.117Z</time></trkpt><trkpt lat="44.2842223" lon="11.2904389"><ele>323.0</ele><time>2026-04-26T09:24:22.113Z</time></trkpt><trkpt lat="44.284103" lon="11.2904261"><ele>323.0</ele><time>2026-04-26T09:24:24.111Z</time></trkpt><trkpt lat="44.2839836" lon="11.2904119"><ele>323.0</ele><time>2026-04-26T09:24:26.114Z</time></trkpt><trkpt lat="44.2838634" lon="11.2903992"><ele>323.0</ele><time>2026-04-26T09:24:28.114Z</time></trkpt><trkpt lat="44.2837413" lon="11.2903876"><ele>323.0</ele><time>2026-04-26T09:24:30.115Z</time></trkpt><trkpt lat="44.2836202" lon="11.2903742"><ele>323.25</ele><time>2026-04-26T09:24:32.118Z</time></trkpt><trkpt lat="44.2835014" lon="11.2903611"><ele>323.5</ele><time>2026-04-26T09:24:34.114Z</time></trkpt><trkpt lat="44.2833841" lon="11.29035"><ele>323.75</ele><time>2026-04-26T09:24:36.116Z</time></trkpt><trkpt lat="44.2832678" lon="11.2903378"><ele>324.0</ele><time>2026-04-26T09:24:38.121Z</time></trkpt><trkpt lat="44.2831523" lon="11.2903256"><ele>324.25</ele><time>2026-04-26T09:24:40.116Z</time></trkpt><trkpt lat="44.2830354" lon="11.2903118"><ele>324.5</ele><time>2026-04-26T09:24:42.117Z</time></trkpt><trkpt lat="44.282917" lon="11.2902999"><ele>324.75</ele><time>2026-04-26T09:24:44.102Z</time></trkpt><trkpt lat="44.2827953" lon="11.2902887"><ele>325.0</ele><time>2026-04-26T09:24:46.106Z</time></trkpt><trkpt lat="44.2826734" lon="11.2902815"><ele>325.0</ele><time>2026-04-26T09:24:48.111Z</time></trkpt><trkpt lat="44.2825534" lon="11.2902669"><ele>325.0</ele><time>2026-04-26T09:24:50.106Z</time></trkpt><trkpt lat="44.2824352" lon="11.2902541"><ele>325.0</ele><time>2026-04-26T09:24:52.112Z</time></trkpt><trkpt lat="44.2823176" lon="11.2902433"><ele>325.0</ele><time>2026-04-26T09:24:54.116Z</time></trkpt><trkpt lat="44.2821998" lon="11.2902313"><ele>325.75</ele><time>2026-04-26T09:24:56.115Z</time></trkpt><trkpt lat="44.2820833" lon="11.2902193"><ele>326.5</ele><time>2026-04-26T09:24:58.123Z</time></trkpt><trkpt lat="44.2819696" lon="11.2902087"><ele>327.25</ele><time>2026-04-26T09:25:00.109Z</time></trkpt><trkpt lat="44.2818552" lon="11.2901964"><ele>328.0</ele><time>2026-04-26T09:25:02.109Z</time></trkpt><trkpt lat="44.2817399" lon="11.290185"><ele>328.0</ele><time>2026-04-26T09:25:04.115Z</time></trkpt><trkpt lat="44.2816251" lon="11.2901713"><ele>328.0</ele><time>2026-04-26T09:25:06.116Z</time></trkpt><trkpt lat="44.2815101" lon="11.2901599"><ele>328.0</ele><time>2026-04-26T09:25:08.122Z</time></trkpt><trkpt lat="44.2813942" lon="11.290149"><ele>328.0</ele><time>2026-04-26T09:25:10.122Z</time></trkpt><trkpt lat="44.2812802" lon="11.2901388"><ele>328.59999999999997</ele><time>2026-04-26T09:25:12.109Z</time></trkpt><trkpt lat="44.2811689" lon="11.2901319"><ele>329.2</ele><time>2026-04-26T09:25:14.115Z</time></trkpt><trkpt lat="44.2810588" lon="11.2901297"><ele>329.8</ele><time>2026-04-26T09:25:16.105Z</time></trkpt><trkpt lat="44.2809507" lon="11.2901422"><ele>330.4</ele><time>2026-04-26T09:25:18.119Z</time></trkpt><trkpt lat="44.2808439" lon="11.2901687"><ele>331.0</ele><time>2026-04-26T09:25:20.106Z</time></trkpt><trkpt lat="44.2807366" lon="11.2902024"><ele>331.0</ele><time>2026-04-26T09:25:22.114Z</time></trkpt><trkpt lat="44.2806291" lon="11.2902404"><ele>331.0</ele><time>2026-04-26T09:25:24.113Z</time></trkpt><trkpt lat="44.280524" lon="11.2902847"><ele>331.0</ele><time>2026-04-26T09:25:26.134Z</time></trkpt><trkpt lat="44.2804199" lon="11.2903299"><ele>331.0</ele><time>2026-04-26T09:25:28.114Z</time></trkpt><trkpt lat="44.2803177" lon="11.290376"><ele>331.0</ele><time>2026-04-26T09:25:30.123Z</time></trkpt><trkpt lat="44.2802171" lon="11.2904207"><ele>331.4</ele><time>2026-04-26T09:25:32.119Z</time></trkpt><trkpt lat="44.2801177" lon="11.2904654"><ele>331.8</ele><time>2026-04-26T09:25:34.114Z</time></trkpt><trkpt lat="44.2800191" lon="11.2905093"><ele>332.2</ele><time>2026-04-26T09:25:36.112Z</time></trkpt><trkpt lat="44.2799195" lon="11.2905447"><ele>332.59999999999997</ele><time>2026-04-26T09:25:38.117Z</time></trkpt><trkpt lat="44.2798164" lon="11.2905744"><ele>333.0</ele><time>2026-04-26T09:25:40.12Z</time></trkpt><trkpt lat="44.2797113" lon="11.2905939"><ele>333.4</ele><time>2026-04-26T09:25:42.11Z</time></trkpt><trkpt lat="44.2796047" lon="11.2906071"><ele>333.79999999999995</ele><time>2026-04-26T09:25:44.12Z</time></trkpt><trkpt lat="44.2794959" lon="11.2906092"><ele>334.2</ele><time>2026-04-26T09:25:46.117Z</time></trkpt><trkpt lat="44.2793842" lon="11.2906106"><ele>334.6</ele><time>2026-04-26T09:25:48.118Z</time></trkpt><trkpt lat="44.2792723" lon="11.2906079"><ele>335.0</ele><time>2026-04-26T09:25:50.125Z</time></trkpt><trkpt lat="44.2791611" lon="11.2906057"><ele>335.0</ele><time>2026-04-26T09:25:52.129Z</time></trkpt><trkpt lat="44.2790487" lon="11.290608"><ele>335.0</ele><time>2026-04-26T09:25:54.115Z</time></trkpt><trkpt lat="44.2789354" lon="11.2906053"><ele>335.0</ele><time>2026-04-26T09:25:56.093Z</time></trkpt><trkpt lat="44.2788208" lon="11.2906027"><ele>335.0</ele><time>2026-04-26T09:25:58.116Z</time></trkpt><trkpt lat="44.2787021" lon="11.2906009"><ele>335.0</ele><time>2026-04-26T09:26:00.113Z</time></trkpt><trkpt lat="44.2785822" lon="11.2905945"><ele>335.0</ele><time>2026-04-26T09:26:02.114Z</time></trkpt><trkpt lat="44.2784597" lon="11.2905941"><ele>335.0</ele><time>2026-04-26T09:26:04.101Z</time></trkpt><trkpt lat="44.278336" lon="11.2905931"><ele>335.0</ele><time>2026-04-26T09:26:06.113Z</time></trkpt><trkpt lat="44.2782101" lon="11.2905901"><ele>335.0</ele><time>2026-04-26T09:26:08.107Z</time></trkpt><trkpt lat="44.2781462" lon="11.2905886"><ele>335.0</ele><time>2026-04-26T09:26:09.11Z</time></trkpt><trkpt lat="44.2780225" lon="11.2905889"><ele>335.0</ele><time>2026-04-26T09:26:11.108Z</time></trkpt><trkpt lat="44.2779001" lon="11.2905857"><ele>335.0</ele><time>2026-04-26T09:26:13.107Z</time></trkpt><trkpt lat="44.2777785" lon="11.2905837"><ele>335.0</ele><time>2026-04-26T09:26:15.103Z</time></trkpt><trkpt lat="44.2776579" lon="11.2905802"><ele>334.5</ele><time>2026-04-26T09:26:17.123Z</time></trkpt><trkpt lat="44.2775358" lon="11.2905745"><ele>334.0</ele><time>2026-04-26T09:26:19.113Z</time></trkpt><trkpt lat="44.2774143" lon="11.2905609"><ele>333.5</ele><time>2026-04-26T09:26:21.111Z</time></trkpt><trkpt lat="44.2772919" lon="11.2905346"><ele>333.0</ele><time>2026-04-26T09:26:23.116Z</time></trkpt><trkpt lat="44.277171" lon="11.2905009"><ele>334.0</ele><time>2026-04-26T09:26:25.112Z</time></trkpt><trkpt lat="44.2770523" lon="11.2904586"><ele>335.0</ele><time>2026-04-26T09:26:27.112Z</time></trkpt><trkpt lat="44.276935" lon="11.2904071"><ele>336.0</ele><time>2026-04-26T09:26:29.108Z</time></trkpt><trkpt lat="44.2768216" lon="11.2903494"><ele>337.0</ele><time>2026-04-26T09:26:31.113Z</time></trkpt><trkpt lat="44.2767094" lon="11.2902969"><ele>337.0</ele><time>2026-04-26T09:26:33.111Z</time></trkpt><trkpt lat="44.2765968" lon="11.2902452"><ele>337.0</ele><time>2026-04-26T09:26:35.118Z</time></trkpt><trkpt lat="44.2764855" lon="11.2901914"><ele>337.0</ele><time>2026-04-26T09:26:37.117Z</time></trkpt><trkpt lat="44.276372" lon="11.2901388"><ele>337.0</ele><time>2026-04-26T09:26:39.115Z</time></trkpt><trkpt lat="44.2762608" lon="11.2900842"><ele>339.0</ele><time>2026-04-26T09:26:41.109Z</time></trkpt><trkpt lat="44.2761482" lon="11.2900305"><ele>341.0</ele><time>2026-04-26T09:26:43.107Z</time></trkpt><trkpt lat="44.2760344" lon="11.2899769"><ele>343.0</ele><time>2026-04-26T09:26:45.108Z</time></trkpt><trkpt lat="44.2759213" lon="11.2899257"><ele>345.0</ele><time>2026-04-26T09:26:47.111Z</time></trkpt><trkpt lat="44.2758078" lon="11.2898729"><ele>345.0</ele><time>2026-04-26T09:26:49.112Z</time></trkpt><trkpt lat="44.2756954" lon="11.2898173"><ele>345.0</ele><time>2026-04-26T09:26:51.128Z</time></trkpt><trkpt lat="44.2755865" lon="11.2897633"><ele>345.0</ele><time>2026-04-26T09:26:53.117Z</time></trkpt><trkpt lat="44.2754759" lon="11.2897183"><ele>345.0</ele><time>2026-04-26T09:26:55.112Z</time></trkpt><trkpt lat="44.2753669" lon="11.2896722"><ele>343.75</ele><time>2026-04-26T09:26:57.104Z</time></trkpt><trkpt lat="44.2752549" lon="11.2896365"><ele>342.5</ele><time>2026-04-26T09:26:59.121Z</time></trkpt><trkpt lat="44.2751429" lon="11.289606"><ele>341.25</ele><time>2026-04-26T09:27:01.112Z</time></trkpt><trkpt lat="44.2750214" lon="11.2895914"><ele>340.0</ele><time>2026-04-26T09:27:03.106Z</time></trkpt><trkpt lat="44.2749042" lon="11.2895923"><ele>340.0</ele><time>2026-04-26T09:27:05.123Z</time></trkpt><trkpt lat="44.2747866" lon="11.2896109"><ele>340.0</ele><time>2026-04-26T09:27:07.107Z</time></trkpt><trkpt lat="44.274669" lon="11.2896468"><ele>340.0</ele><time>2026-04-26T09:27:09.108Z</time></trkpt><trkpt lat="44.2745539" lon="11.2896955"><ele>340.0</ele><time>2026-04-26T09:27:11.114Z</time></trkpt><trkpt lat="44.2744394" lon="11.2897523"><ele>341.25</ele><time>2026-04-26T09:27:13.119Z</time></trkpt><trkpt lat="44.2743286" lon="11.2898096"><ele>342.5</ele><time>2026-04-26T09:27:15.111Z</time></trkpt><trkpt lat="44.2742206" lon="11.2898638"><ele>343.75</ele><time>2026-04-26T09:27:17.113Z</time></trkpt><trkpt lat="44.2741154" lon="11.2899253"><ele>345.0</ele><time>2026-04-26T09:27:19.109Z</time></trkpt><trkpt lat="44.2740118" lon="11.2899863"><ele>344.8</ele><time>2026-04-26T09:27:21.113Z</time></trkpt><trkpt lat="44.2739094" lon="11.290048"><ele>344.6</ele><time>2026-04-26T09:27:23.115Z</time></trkpt><trkpt lat="44.273811" lon="11.290108"><ele>344.4</ele><time>2026-04-26T09:27:25.109Z</time></trkpt><trkpt lat="44.2737141" lon="11.2901678"><ele>344.2</ele><time>2026-04-26T09:27:27.117Z</time></trkpt><trkpt lat="44.2736182" lon="11.2902272"><ele>344.0</ele><time>2026-04-26T09:27:29.125Z</time></trkpt><trkpt lat="44.2735231" lon="11.2902849"><ele>344.0</ele><time>2026-04-26T09:27:31.111Z</time></trkpt><trkpt lat="44.2734276" lon="11.2903412"><ele>344.0</ele><time>2026-04-26T09:27:33.115Z</time></trkpt><trkpt lat="44.2733338" lon="11.2903985"><ele>344.0</ele><time>2026-04-26T09:27:35.116Z</time></trkpt><trkpt lat="44.2732406" lon="11.2904546"><ele>344.0</ele><time>2026-04-26T09:27:37.115Z</time></trkpt><trkpt lat="44.2731503" lon="11.2905107"><ele>344.0</ele><time>2026-04-26T09:27:39.111Z</time></trkpt><trkpt lat="44.2730571" lon="11.2905663"><ele>344.4</ele><time>2026-04-26T09:27:41.107Z</time></trkpt><trkpt lat="44.2729627" lon="11.2906208"><ele>344.79999999999995</ele><time>2026-04-26T09:27:43.117Z</time></trkpt><trkpt lat="44.272869" lon="11.2906784"><ele>345.20000000000005</ele><time>2026-04-26T09:27:45.118Z</time></trkpt><trkpt lat="44.2727737" lon="11.2907343"><ele>345.6</ele><time>2026-04-26T09:27:47.108Z</time></trkpt><trkpt lat="44.2726784" lon="11.2907895"><ele>346.0</ele><time>2026-04-26T09:27:49.107Z</time></trkpt><trkpt lat="44.272584" lon="11.2908457"><ele>346.0</ele><time>2026-04-26T09:27:51.109Z</time></trkpt><trkpt lat="44.2724915" lon="11.2909015"><ele>346.0</ele><time>2026-04-26T09:27:53.113Z</time></trkpt><trkpt lat="44.272398" lon="11.2909578"><ele>346.0</ele><time>2026-04-26T09:27:55.115Z</time></trkpt><trkpt lat="44.2723036" lon="11.2910123"><ele>346.0</ele><time>2026-04-26T09:27:57.109Z</time></trkpt><trkpt lat="44.272212" lon="11.2910688"><ele>346.0</ele><time>2026-04-26T09:27:59.106Z</time></trkpt><trkpt lat="44.272122" lon="11.2911228"><ele>346.6</ele><time>2026-04-26T09:28:01.114Z</time></trkpt><trkpt lat="44.2720327" lon="11.2911797"><ele>347.20000000000005</ele><time>2026-04-26T09:28:03.114Z</time></trkpt><trkpt lat="44.2719426" lon="11.2912431"><ele>347.79999999999995</ele><time>2026-04-26T09:28:05.108Z</time></trkpt><trkpt lat="44.2718574" lon="11.291322"><ele>348.4</ele><time>2026-04-26T09:28:07.128Z</time></trkpt><trkpt lat="44.2717794" lon="11.2914146"><ele>349.0</ele><time>2026-04-26T09:28:09.116Z</time></trkpt><trkpt lat="44.2717048" lon="11.2915134"><ele>349.0</ele><time>2026-04-26T09:28:11.121Z</time></trkpt><trkpt lat="44.2716294" lon="11.291613"><ele>349.0</ele><time>2026-04-26T09:28:13.107Z</time></trkpt><trkpt lat="44.2715566" lon="11.2917195"><ele>349.0</ele><time>2026-04-26T09:28:15.11Z</time></trkpt><trkpt lat="44.2714809" lon="11.2918261"><ele>349.0</ele><time>2026-04-26T09:28:17.111Z</time></trkpt><trkpt lat="44.2714046" lon="11.2919347"><ele>349.0</ele><time>2026-04-26T09:28:19.112Z</time></trkpt><trkpt lat="44.2713255" lon="11.2920444"><ele>349.0</ele><time>2026-04-26T09:28:21.111Z</time></trkpt><trkpt lat="44.2712377" lon="11.2921458"><ele>349.0</ele><time>2026-04-26T09:28:23.103Z</time></trkpt><trkpt lat="44.2711476" lon="11.2922447"><ele>349.0</ele><time>2026-04-26T09:28:25.106Z</time></trkpt><trkpt lat="44.2710523" lon="11.2923378"><ele>349.0</ele><time>2026-04-26T09:28:27.117Z</time></trkpt><trkpt lat="44.270954" lon="11.2924205"><ele>349.75</ele><time>2026-04-26T09:28:29.113Z</time></trkpt><trkpt lat="44.2708534" lon="11.2924946"><ele>350.5</ele><time>2026-04-26T09:28:31.104Z</time></trkpt><trkpt lat="44.2707509" lon="11.2925606"><ele>351.25</ele><time>2026-04-26T09:28:33.11Z</time></trkpt><trkpt lat="44.2706454" lon="11.2926166"><ele>352.0</ele><time>2026-04-26T09:28:35.111Z</time></trkpt><trkpt lat="44.2705398" lon="11.2926628"><ele>352.0</ele><time>2026-04-26T09:28:37.116Z</time></trkpt><trkpt lat="44.2704313" lon="11.2927057"><ele>352.0</ele><time>2026-04-26T09:28:39.11Z</time></trkpt><trkpt lat="44.270321" lon="11.292744"><ele>352.0</ele><time>2026-04-26T09:28:41.106Z</time></trkpt><trkpt lat="44.2702054" lon="11.2927781"><ele>352.0</ele><time>2026-04-26T09:28:43.105Z</time></trkpt><trkpt lat="44.2700895" lon="11.2928104"><ele>352.0</ele><time>2026-04-26T09:28:45.107Z</time></trkpt><trkpt lat="44.2699687" lon="11.2928367"><ele>352.0</ele><time>2026-04-26T09:28:47.11Z</time></trkpt><trkpt lat="44.2698499" lon="11.2928335"><ele>352.0</ele><time>2026-04-26T09:28:49.105Z</time></trkpt><trkpt lat="44.2697343" lon="11.2928244"><ele>352.0</ele><time>2026-04-26T09:28:51.109Z</time></trkpt><trkpt lat="44.2696196" lon="11.2928055"><ele>352.20000000000005</ele><time>2026-04-26T09:28:53.112Z</time></trkpt><trkpt lat="44.269513" lon="11.2927835"><ele>352.4</ele><time>2026-04-26T09:28:55.118Z</time></trkpt><trkpt lat="44.2694091" lon="11.2927532"><ele>352.6</ele><time>2026-04-26T09:28:57.104Z</time></trkpt><trkpt lat="44.2693046" lon="11.2927206"><ele>352.79999999999995</ele><time>2026-04-26T09:28:59.103Z</time></trkpt><trkpt lat="44.2692001" lon="11.2926855"><ele>353.0</ele><time>2026-04-26T09:29:01.104Z</time></trkpt><trkpt lat="44.2690985" lon="11.292649"><ele>353.0</ele><time>2026-04-26T09:29:03.106Z</time></trkpt><trkpt lat="44.2689984" lon="11.2926149"><ele>353.0</ele><time>2026-04-26T09:29:05.113Z</time></trkpt><trkpt lat="44.2688993" lon="11.2925802"><ele>353.0</ele><time>2026-04-26T09:29:07.109Z</time></trkpt><trkpt lat="44.2688025" lon="11.2925441"><ele>353.0</ele><time>2026-04-26T09:29:09.113Z</time></trkpt><trkpt lat="44.2687052" lon="11.2925112"><ele>353.0</ele><time>2026-04-26T09:29:11.108Z</time></trkpt><trkpt lat="44.2686141" lon="11.292475"><ele>353.6666666666667</ele><time>2026-04-26T09:29:13.124Z</time></trkpt><trkpt lat="44.2685243" lon="11.2924383"><ele>354.33333333333337</ele><time>2026-04-26T09:29:15.111Z</time></trkpt><trkpt lat="44.2684408" lon="11.2924021"><ele>355.0</ele><time>2026-04-26T09:29:17.11Z</time></trkpt><trkpt lat="44.2683656" lon="11.2923684"><ele>355.6666666666667</ele><time>2026-04-26T09:29:19.105Z</time></trkpt><trkpt lat="44.2683018" lon="11.2923344"><ele>356.3333333333333</ele><time>2026-04-26T09:29:21.113Z</time></trkpt><trkpt lat="44.268233" lon="11.2922581"><ele>357.0</ele><time>2026-04-26T09:29:24.109Z</time></trkpt><trkpt lat="44.2682148" lon="11.292172"><ele>357.0</ele><time>2026-04-26T09:29:26.11Z</time></trkpt><trkpt lat="44.2682345" lon="11.2920638"><ele>357.0</ele><time>2026-04-26T09:29:28.114Z</time></trkpt><trkpt lat="44.2682583" lon="11.291954"><ele>357.0</ele><time>2026-04-26T09:29:30.113Z</time></trkpt><trkpt lat="44.2682842" lon="11.2918355"><ele>357.0</ele><time>2026-04-26T09:29:32.111Z</time></trkpt><trkpt lat="44.2683027" lon="11.2917144"><ele>357.0</ele><time>2026-04-26T09:29:34.104Z</time></trkpt><trkpt lat="44.2683256" lon="11.2916046"><ele>357.0</ele><time>2026-04-26T09:29:36.104Z</time></trkpt><trkpt lat="44.2683428" lon="11.2915025"><ele>357.3333333333333</ele><time>2026-04-26T09:29:38.113Z</time></trkpt><trkpt lat="44.2683639" lon="11.2914002"><ele>357.6666666666667</ele><time>2026-04-26T09:29:40.109Z</time></trkpt><trkpt lat="44.2683908" lon="11.291297"><ele>358.0</ele><time>2026-04-26T09:29:42.106Z</time></trkpt><trkpt lat="44.268414" lon="11.2911876"><ele>358.33333333333337</ele><time>2026-04-26T09:29:44.118Z</time></trkpt><trkpt lat="44.268436" lon="11.2910832"><ele>358.6666666666667</ele><time>2026-04-26T09:29:46.11Z</time></trkpt><trkpt lat="44.2684536" lon="11.2909786"><ele>359.0</ele><time>2026-04-26T09:29:48.108Z</time></trkpt><trkpt lat="44.2684699" lon="11.2908815"><ele>359.0</ele><time>2026-04-26T09:29:50.123Z</time></trkpt><trkpt lat="44.2684896" lon="11.290793"><ele>359.0</ele><time>2026-04-26T09:29:52.111Z</time></trkpt><trkpt lat="44.2685068" lon="11.2906946"><ele>359.0</ele><time>2026-04-26T09:29:54.107Z</time></trkpt><trkpt lat="44.2685256" lon="11.2905991"><ele>359.0</ele><time>2026-04-26T09:29:56.099Z</time></trkpt><trkpt lat="44.268547" lon="11.2905018"><ele>359.0</ele><time>2026-04-26T09:29:58.124Z</time></trkpt><trkpt lat="44.2685683" lon="11.2904095"><ele>359.0</ele><time>2026-04-26T09:30:00.103Z</time></trkpt><trkpt lat="44.268552" lon="11.2903142"><ele>359.0</ele><time>2026-04-26T09:30:03.114Z</time></trkpt><trkpt lat="44.2686208" lon="11.2901406"><ele>359.7142857142857</ele><time>2026-04-26T09:32:22.109Z</time></trkpt><trkpt lat="44.2686719" lon="11.2900569"><ele>360.42857142857144</ele><time>2026-04-26T09:32:26.112Z</time></trkpt><trkpt lat="44.2686889" lon="11.2899722"><ele>361.1428571428571</ele><time>2026-04-26T09:32:29.116Z</time></trkpt><trkpt lat="44.2687091" lon="11.2898808"><ele>361.8571428571429</ele><time>2026-04-26T09:32:32.11Z</time></trkpt><trkpt lat="44.2687461" lon="11.2897895"><ele>362.57142857142856</ele><time>2026-04-26T09:32:35.115Z</time></trkpt><trkpt lat="44.268792" lon="11.2897104"><ele>363.2857142857143</ele><time>2026-04-26T09:32:38.111Z</time></trkpt><trkpt lat="44.2688582" lon="11.2896472"><ele>364.0</ele><time>2026-04-26T09:32:41.11Z</time></trkpt><trkpt lat="44.2689348" lon="11.2896082"><ele>365.66666666666663</ele><time>2026-04-26T09:32:44.117Z</time></trkpt><trkpt lat="44.2690105" lon="11.2895871"><ele>367.3333333333333</ele><time>2026-04-26T09:32:47.115Z</time></trkpt><trkpt lat="44.2690866" lon="11.2895692"><ele>369.0</ele><time>2026-04-26T09:32:50.11Z</time></trkpt><trkpt lat="44.2691658" lon="11.2895609"><ele>370.6666666666667</ele><time>2026-04-26T09:32:53.11Z</time></trkpt><trkpt lat="44.2692479" lon="11.2895465"><ele>372.33333333333337</ele><time>2026-04-26T09:32:56.114Z</time></trkpt><trkpt lat="44.2693286" lon="11.2895335"><ele>374.0</ele><time>2026-04-26T09:32:59.108Z</time></trkpt><trkpt lat="44.2694154" lon="11.2895238"><ele>374.0</ele><time>2026-04-26T09:33:02.117Z</time></trkpt><trkpt lat="44.2695016" lon="11.289509"><ele>374.0</ele><time>2026-04-26T09:33:05.118Z</time></trkpt><trkpt lat="44.2695882" lon="11.2894738"><ele>374.0</ele><time>2026-04-26T09:33:08.111Z</time></trkpt><trkpt lat="44.2696684" lon="11.2894189"><ele>374.0</ele><time>2026-04-26T09:33:11.119Z</time></trkpt><trkpt lat="44.269725" lon="11.289328"><ele>374.0</ele><time>2026-04-26T09:33:14.11Z</time></trkpt><trkpt lat="44.2697549" lon="11.2892164"><ele>374.0</ele><time>2026-04-26T09:33:17.119Z</time></trkpt><trkpt lat="44.2697542" lon="11.2890984"><ele>374.0</ele><time>2026-04-26T09:33:20.114Z</time></trkpt><trkpt lat="44.2697142" lon="11.2890102"><ele>374.0</ele><time>2026-04-26T09:33:23.117Z</time></trkpt><trkpt lat="44.2696414" lon="11.2889413"><ele>374.0</ele><time>2026-04-26T09:33:26.111Z</time></trkpt><trkpt lat="44.2695606" lon="11.2889007"><ele>374.0</ele><time>2026-04-26T09:33:29.107Z</time></trkpt><trkpt lat="44.2694737" lon="11.2888784"><ele>374.0</ele><time>2026-04-26T09:33:32.119Z</time></trkpt><trkpt lat="44.2693879" lon="11.2888575"><ele>374.0</ele><time>2026-04-26T09:33:35.11Z</time></trkpt><trkpt lat="44.2693001" lon="11.2888327"><ele>375.6666666666667</ele><time>2026-04-26T09:33:38.116Z</time></trkpt><trkpt lat="44.2692144" lon="11.2888157"><ele>377.33333333333337</ele><time>2026-04-26T09:33:41.113Z</time></trkpt><trkpt lat="44.2691274" lon="11.2887907"><ele>379.0</ele><time>2026-04-26T09:33:44.118Z</time></trkpt><trkpt lat="44.2690439" lon="11.2887714"><ele>380.6666666666667</ele><time>2026-04-26T09:33:47.117Z</time></trkpt><trkpt lat="44.2689603" lon="11.2887544"><ele>382.3333333333333</ele><time>2026-04-26T09:33:50.115Z</time></trkpt><trkpt lat="44.2688748" lon="11.2887302"><ele>384.0</ele><time>2026-04-26T09:33:53.109Z</time></trkpt><trkpt lat="44.268791" lon="11.2887058"><ele>384.0</ele><time>2026-04-26T09:33:56.114Z</time></trkpt><trkpt lat="44.2687083" lon="11.2886853"><ele>384.0</ele><time>2026-04-26T09:33:59.117Z</time></trkpt><trkpt lat="44.268627" lon="11.2886516"><ele>384.0</ele><time>2026-04-26T09:34:02.123Z</time></trkpt><trkpt lat="44.268547" lon="11.2886022"><ele>384.0</ele><time>2026-04-26T09:34:05.109Z</time></trkpt><trkpt lat="44.2684885" lon="11.2885064"><ele>384.0</ele><time>2026-04-26T09:34:08.112Z</time></trkpt><trkpt lat="44.2684792" lon="11.2883891"><ele>384.0</ele><time>2026-04-26T09:34:11.118Z</time></trkpt><trkpt lat="44.2685201" lon="11.288295"><ele>384.0</ele><time>2026-04-26T09:34:14.128Z</time></trkpt><trkpt lat="44.2685928" lon="11.2882547"><ele>384.0</ele><time>2026-04-26T09:34:17.115Z</time></trkpt><trkpt lat="44.2686624" lon="11.2882828"><ele>384.0</ele><time>2026-04-26T09:34:20.115Z</time></trkpt><trkpt lat="44.2687271" lon="11.2883284"><ele>384.0</ele><time>2026-04-26T09:34:23.117Z</time></trkpt><trkpt lat="44.2687946" lon="11.2883747"><ele>384.0</ele><time>2026-04-26T09:34:26.114Z</time></trkpt><trkpt lat="44.2688746" lon="11.2883999"><ele>384.0</ele><time>2026-04-26T09:34:29.11Z</time></trkpt><trkpt lat="44.2689585" lon="11.2883821"><ele>384.6666666666667</ele><time>2026-04-26T09:34:32.117Z</time></trkpt><trkpt lat="44.2690302" lon="11.2883183"><ele>385.33333333333337</ele><time>2026-04-26T09:34:35.118Z</time></trkpt><trkpt lat="44.2690969" lon="11.2882346"><ele>386.0</ele><time>2026-04-26T09:34:38.115Z</time></trkpt><trkpt lat="44.2691591" lon="11.2881468"><ele>386.6666666666667</ele><time>2026-04-26T09:34:41.115Z</time></trkpt><trkpt lat="44.2692166" lon="11.2880538"><ele>387.33333333333337</ele><time>2026-04-26T09:34:44.125Z</time></trkpt><trkpt lat="44.2692726" lon="11.2879584"><ele>388.0</ele><time>2026-04-26T09:34:47.126Z</time></trkpt><trkpt lat="44.2693249" lon="11.2878614"><ele>389.33333333333337</ele><time>2026-04-26T09:34:50.113Z</time></trkpt><trkpt lat="44.2693744" lon="11.2877656"><ele>390.6666666666667</ele><time>2026-04-26T09:34:53.114Z</time></trkpt><trkpt lat="44.2694114" lon="11.2876648"><ele>392.0</ele><time>2026-04-26T09:34:56.117Z</time></trkpt><trkpt lat="44.2694292" lon="11.2875529"><ele>393.33333333333337</ele><time>2026-04-26T09:34:59.127Z</time></trkpt><trkpt lat="44.2694184" lon="11.2874408"><ele>394.6666666666667</ele><time>2026-04-26T09:35:02.125Z</time></trkpt><trkpt lat="44.2693769" lon="11.2873419"><ele>396.0</ele><time>2026-04-26T09:35:05.112Z</time></trkpt><trkpt lat="44.2693094" lon="11.2872797"><ele>396.0</ele><time>2026-04-26T09:35:08.116Z</time></trkpt><trkpt lat="44.2692313" lon="11.2872542"><ele>396.0</ele><time>2026-04-26T09:35:11.117Z</time></trkpt><trkpt lat="44.2691515" lon="11.2872596"><ele>396.0</ele><time>2026-04-26T09:35:14.114Z</time></trkpt><trkpt lat="44.269072" lon="11.2872741"><ele>396.0</ele><time>2026-04-26T09:35:17.119Z</time></trkpt><trkpt lat="44.2689899" lon="11.2872823"><ele>396.0</ele><time>2026-04-26T09:35:20.113Z</time></trkpt><trkpt lat="44.2689058" lon="11.2872871"><ele>396.0</ele><time>2026-04-26T09:35:23.11Z</time></trkpt><trkpt lat="44.2688245" lon="11.2872585"><ele>397.5714285714286</ele><time>2026-04-26T09:35:26.118Z</time></trkpt><trkpt lat="44.2687653" lon="11.2871864"><ele>399.1428571428571</ele><time>2026-04-26T09:35:29.116Z</time></trkpt><trkpt lat="44.2687442" lon="11.2870939"><ele>400.7142857142857</ele><time>2026-04-26T09:35:32.113Z</time></trkpt><trkpt lat="44.2687434" lon="11.2869938"><ele>402.28571428571433</ele><time>2026-04-26T09:35:35.115Z</time></trkpt><trkpt lat="44.2687754" lon="11.2869107"><ele>403.8571428571429</ele><time>2026-04-26T09:35:38.118Z</time></trkpt><trkpt lat="44.2688175" lon="11.2868382"><ele>405.42857142857144</ele><time>2026-04-26T09:35:40.116Z</time></trkpt><trkpt lat="44.2688836" lon="11.2867532"><ele>407.0</ele><time>2026-04-26T09:35:43.119Z</time></trkpt><trkpt lat="44.2689463" lon="11.286672"><ele>407.00000000000006</ele><time>2026-04-26T09:35:46.115Z</time></trkpt><trkpt lat="44.2689964" lon="11.2865925"><ele>407.0</ele><time>2026-04-26T09:35:49.12Z</time></trkpt><trkpt lat="44.2690382" lon="11.2865158"><ele>407.0</ele><time>2026-04-26T09:35:52.116Z</time></trkpt><trkpt lat="44.2690756" lon="11.2864298"><ele>407.0</ele><time>2026-04-26T09:35:55.123Z</time></trkpt><trkpt lat="44.2690994" lon="11.2863382"><ele>407.0</ele><time>2026-04-26T09:35:58.119Z</time></trkpt><trkpt lat="44.2691101" lon="11.2862348"><ele>407.00000000000006</ele><time>2026-04-26T09:36:01.117Z</time></trkpt><trkpt lat="44.2690991" lon="11.2861337"><ele>407.0</ele><time>2026-04-26T09:36:04.116Z</time></trkpt><trkpt lat="44.2690672" lon="11.2860249"><ele>408.42857142857144</ele><time>2026-04-26T09:36:08.119Z</time></trkpt><trkpt lat="44.2690127" lon="11.2859562"><ele>409.8571428571429</ele><time>2026-04-26T09:36:11.129Z</time></trkpt><trkpt lat="44.2689429" lon="11.2859172"><ele>411.28571428571433</ele><time>2026-04-26T09:36:14.115Z</time></trkpt><trkpt lat="44.2688716" lon="11.2859025"><ele>412.7142857142857</ele><time>2026-04-26T09:36:17.117Z</time></trkpt><trkpt lat="44.2687964" lon="11.28591"><ele>414.1428571428571</ele><time>2026-04-26T09:36:20.12Z</time></trkpt><trkpt lat="44.268719" lon="11.2859351"><ele>415.5714285714286</ele><time>2026-04-26T09:36:23.101Z</time></trkpt><trkpt lat="44.2686541" lon="11.2859807"><ele>417.0</ele><time>2026-04-26T09:36:26.118Z</time></trkpt><trkpt lat="44.2685803" lon="11.2860458"><ele>417.0</ele><time>2026-04-26T09:36:29.116Z</time></trkpt><trkpt lat="44.2685067" lon="11.2861124"><ele>417.0</ele><time>2026-04-26T09:36:32.131Z</time></trkpt><trkpt lat="44.2684395" lon="11.2861933"><ele>417.0</ele><time>2026-04-26T09:36:35.118Z</time></trkpt><trkpt lat="44.2683691" lon="11.2862629"><ele>417.0</ele><time>2026-04-26T09:36:38.115Z</time></trkpt><trkpt lat="44.2682853" lon="11.286316"><ele>417.0</ele><time>2026-04-26T09:36:41.115Z</time></trkpt><trkpt lat="44.2681937" lon="11.28633"><ele>417.0</ele><time>2026-04-26T09:36:44.106Z</time></trkpt><trkpt lat="44.2681092" lon="11.2863123"><ele>417.3333333333333</ele><time>2026-04-26T09:36:47.121Z</time></trkpt><trkpt lat="44.2680416" lon="11.2862567"><ele>417.66666666666663</ele><time>2026-04-26T09:36:50.113Z</time></trkpt><trkpt lat="44.267989" lon="11.2861768"><ele>418.0</ele><time>2026-04-26T09:36:53.11Z</time></trkpt><trkpt lat="44.2679557" lon="11.2860852"><ele>418.3333333333333</ele><time>2026-04-26T09:36:56.107Z</time></trkpt><trkpt lat="44.2679433" lon="11.285982"><ele>418.66666666666663</ele><time>2026-04-26T09:36:59.125Z</time></trkpt><trkpt lat="44.2679544" lon="11.2858766"><ele>419.0</ele><time>2026-04-26T09:37:02.116Z</time></trkpt><trkpt lat="44.2679944" lon="11.2857781"><ele>418.99999999999994</ele><time>2026-04-26T09:37:05.107Z</time></trkpt><trkpt lat="44.2680424" lon="11.2856851"><ele>419.0</ele><time>2026-04-26T09:37:08.112Z</time></trkpt><trkpt lat="44.2681037" lon="11.2856032"><ele>419.0</ele><time>2026-04-26T09:37:11.115Z</time></trkpt><trkpt lat="44.2681618" lon="11.2855194"><ele>419.0</ele><time>2026-04-26T09:37:14.106Z</time></trkpt><trkpt lat="44.2682196" lon="11.2854428"><ele>418.99999999999994</ele><time>2026-04-26T09:37:17.111Z</time></trkpt><trkpt lat="44.2682724" lon="11.2853561"><ele>419.0</ele><time>2026-04-26T09:37:20.106Z</time></trkpt><trkpt lat="44.2683265" lon="11.2852747"><ele>421.49999999999994</ele><time>2026-04-26T09:37:23.111Z</time></trkpt><trkpt lat="44.2683825" lon="11.2851899"><ele>424.0</ele><time>2026-04-26T09:37:26.116Z</time></trkpt><trkpt lat="44.268438" lon="11.2851086"><ele>426.5</ele><time>2026-04-26T09:37:29.127Z</time></trkpt><trkpt lat="44.2684987" lon="11.2850352"><ele>429.0</ele><time>2026-04-26T09:37:32.111Z</time></trkpt><trkpt lat="44.2685658" lon="11.2849782"><ele>431.49999999999994</ele><time>2026-04-26T09:37:35.116Z</time></trkpt><trkpt lat="44.2686417" lon="11.2849372"><ele>434.0</ele><time>2026-04-26T09:37:38.123Z</time></trkpt><trkpt lat="44.2687235" lon="11.2849138"><ele>434.0</ele><time>2026-04-26T09:37:41.113Z</time></trkpt><trkpt lat="44.268802" lon="11.2848892"><ele>434.0</ele><time>2026-04-26T09:37:44.111Z</time></trkpt><trkpt lat="44.2688792" lon="11.2848698"><ele>434.0</ele><time>2026-04-26T09:37:48.122Z</time></trkpt><trkpt lat="44.2689457" lon="11.2848624"><ele>434.0</ele><time>2026-04-26T09:37:51.118Z</time></trkpt><trkpt lat="44.2690113" lon="11.2848366"><ele>434.0</ele><time>2026-04-26T09:37:54.121Z</time></trkpt><trkpt lat="44.2690705" lon="11.2847847"><ele>434.0</ele><time>2026-04-26T09:37:57.111Z</time></trkpt><trkpt lat="44.2691268" lon="11.284699"><ele>434.0</ele><time>2026-04-26T09:38:01.116Z</time></trkpt><trkpt lat="44.2691483" lon="11.2845987"><ele>435.8333333333333</ele><time>2026-04-26T09:38:04.117Z</time></trkpt><trkpt lat="44.2691474" lon="11.2844894"><ele>437.66666666666663</ele><time>2026-04-26T09:38:07.118Z</time></trkpt><trkpt lat="44.269121" lon="11.2843864"><ele>439.5</ele><time>2026-04-26T09:38:10.108Z</time></trkpt><trkpt lat="44.2690704" lon="11.2843005"><ele>441.33333333333337</ele><time>2026-04-26T09:38:13.115Z</time></trkpt><trkpt lat="44.2690053" lon="11.284231"><ele>443.1666666666667</ele><time>2026-04-26T09:38:16.11Z</time></trkpt><trkpt lat="44.2689305" lon="11.2841875"><ele>445.0</ele><time>2026-04-26T09:38:19.108Z</time></trkpt><trkpt lat="44.2688523" lon="11.2841489"><ele>445.33333333333337</ele><time>2026-04-26T09:38:22.109Z</time></trkpt><trkpt lat="44.2687708" lon="11.2841232"><ele>445.6666666666667</ele><time>2026-04-26T09:38:25.115Z</time></trkpt><trkpt lat="44.2686908" lon="11.2840968"><ele>446.0</ele><time>2026-04-26T09:38:28.113Z</time></trkpt><trkpt lat="44.2686059" lon="11.2840879"><ele>446.33333333333337</ele><time>2026-04-26T09:38:31.122Z</time></trkpt><trkpt lat="44.268525" lon="11.2841084"><ele>446.6666666666667</ele><time>2026-04-26T09:38:34.111Z</time></trkpt><trkpt lat="44.2684487" lon="11.2841575"><ele>447.0</ele><time>2026-04-26T09:38:37.128Z</time></trkpt><trkpt lat="44.268378" lon="11.2842172"><ele>447.0</ele><time>2026-04-26T09:38:40.112Z</time></trkpt><trkpt lat="44.2683155" lon="11.2842967"><ele>447.0</ele><time>2026-04-26T09:38:43.113Z</time></trkpt><trkpt lat="44.268257" lon="11.284386"><ele>447.0</ele><time>2026-04-26T09:38:46.114Z</time></trkpt><trkpt lat="44.2681833" lon="11.2844367"><ele>447.0</ele><time>2026-04-26T09:38:49.112Z</time></trkpt><trkpt lat="44.2681077" lon="11.2844353"><ele>447.0</ele><time>2026-04-26T09:38:52.123Z</time></trkpt><trkpt lat="44.2680483" lon="11.2843745"><ele>447.0</ele><time>2026-04-26T09:38:55.114Z</time></trkpt><trkpt lat="44.2680154" lon="11.2842795"><ele>447.8333333333333</ele><time>2026-04-26T09:38:58.123Z</time></trkpt><trkpt lat="44.2680183" lon="11.2841856"><ele>448.66666666666663</ele><time>2026-04-26T09:39:01.116Z</time></trkpt><trkpt lat="44.2680492" lon="11.2840712"><ele>449.5</ele><time>2026-04-26T09:39:04.112Z</time></trkpt><trkpt lat="44.2680833" lon="11.2839602"><ele>450.3333333333333</ele><time>2026-04-26T09:39:07.114Z</time></trkpt><trkpt lat="44.2681155" lon="11.2838569"><ele>451.16666666666663</ele><time>2026-04-26T09:39:10.113Z</time></trkpt><trkpt lat="44.2681557" lon="11.2837544"><ele>452.0</ele><time>2026-04-26T09:39:13.104Z</time></trkpt><trkpt lat="44.2682007" lon="11.2836563"><ele>452.16666666666663</ele><time>2026-04-26T09:39:16.121Z</time></trkpt><trkpt lat="44.2682474" lon="11.2835624"><ele>452.3333333333333</ele><time>2026-04-26T09:39:19.113Z</time></trkpt><trkpt lat="44.2682965" lon="11.2834737"><ele>452.5</ele><time>2026-04-26T09:39:22.113Z</time></trkpt><trkpt lat="44.268349" lon="11.2833947"><ele>452.66666666666663</ele><time>2026-04-26T09:39:25.109Z</time></trkpt><trkpt lat="44.2684109" lon="11.2833244"><ele>452.8333333333333</ele><time>2026-04-26T09:39:28.121Z</time></trkpt><trkpt lat="44.2684746" lon="11.2832492"><ele>453.0</ele><time>2026-04-26T09:39:31.105Z</time></trkpt><trkpt lat="44.2685449" lon="11.2831872"><ele>453.0</ele><time>2026-04-26T09:39:34.117Z</time></trkpt><trkpt lat="44.2686178" lon="11.2831314"><ele>453.0</ele><time>2026-04-26T09:39:37.117Z</time></trkpt><trkpt lat="44.268695" lon="11.2830918"><ele>453.0</ele><time>2026-04-26T09:39:40.111Z</time></trkpt><trkpt lat="44.268771" lon="11.2830786"><ele>453.0</ele><time>2026-04-26T09:39:43.12Z</time></trkpt><trkpt lat="44.2688475" lon="11.2830883"><ele>453.0</ele><time>2026-04-26T09:39:46.124Z</time></trkpt><trkpt lat="44.2689243" lon="11.2831122"><ele>453.0</ele><time>2026-04-26T09:39:49.109Z</time></trkpt><trkpt lat="44.2689986" lon="11.283144"><ele>453.6666666666667</ele><time>2026-04-26T09:39:52.12Z</time></trkpt><trkpt lat="44.2690737" lon="11.2831777"><ele>454.33333333333337</ele><time>2026-04-26T09:39:55.108Z</time></trkpt><trkpt lat="44.2691484" lon="11.2832175"><ele>455.0</ele><time>2026-04-26T09:39:58.114Z</time></trkpt><trkpt lat="44.2692231" lon="11.2832629"><ele>455.6666666666667</ele><time>2026-04-26T09:40:01.119Z</time></trkpt><trkpt lat="44.2692992" lon="11.2833015"><ele>456.33333333333337</ele><time>2026-04-26T09:40:04.123Z</time></trkpt><trkpt lat="44.2693781" lon="11.2833317"><ele>457.0</ele><time>2026-04-26T09:40:07.115Z</time></trkpt><trkpt lat="44.2694575" lon="11.2833514"><ele>457.00000000000006</ele><time>2026-04-26T09:40:10.114Z</time></trkpt><trkpt lat="44.2695366" lon="11.283364"><ele>457.0</ele><time>2026-04-26T09:40:13.111Z</time></trkpt><trkpt lat="44.2696175" lon="11.2833481"><ele>457.0</ele><time>2026-04-26T09:40:16.115Z</time></trkpt><trkpt lat="44.2696963" lon="11.2833075"><ele>457.0</ele><time>2026-04-26T09:40:19.125Z</time></trkpt><trkpt lat="44.269766" lon="11.2832405"><ele>457.00000000000006</ele><time>2026-04-26T09:40:22.113Z</time></trkpt><trkpt lat="44.269826" lon="11.283163"><ele>457.0</ele><time>2026-04-26T09:40:25.113Z</time></trkpt><trkpt lat="44.2698814" lon="11.2830755"><ele>459.1666666666667</ele><time>2026-04-26T09:40:28.12Z</time></trkpt><trkpt lat="44.2699312" lon="11.2829829"><ele>461.33333333333337</ele><time>2026-04-26T09:40:31.114Z</time></trkpt><trkpt lat="44.2699735" lon="11.2828837"><ele>463.5</ele><time>2026-04-26T09:40:34.11Z</time></trkpt><trkpt lat="44.2699827" lon="11.2827698"><ele>465.66666666666663</ele><time>2026-04-26T09:40:37.114Z</time></trkpt><trkpt lat="44.2699741" lon="11.2826524"><ele>467.8333333333333</ele><time>2026-04-26T09:40:40.115Z</time></trkpt><trkpt lat="44.2699332" lon="11.2825601"><ele>470.0</ele><time>2026-04-26T09:40:43.124Z</time></trkpt><trkpt lat="44.2698616" lon="11.2825085"><ele>469.99999999999994</ele><time>2026-04-26T09:40:46.114Z</time></trkpt><trkpt lat="44.2697823" lon="11.2824944"><ele>470.0</ele><time>2026-04-26T09:40:49.117Z</time></trkpt><trkpt lat="44.2697029" lon="11.2825187"><ele>470.0</ele><time>2026-04-26T09:40:52.116Z</time></trkpt><trkpt lat="44.2696295" lon="11.282563"><ele>470.0</ele><time>2026-04-26T09:40:55.104Z</time></trkpt><trkpt lat="44.2695514" lon="11.2825931"><ele>469.99999999999994</ele><time>2026-04-26T09:40:58.114Z</time></trkpt><trkpt lat="44.2694734" lon="11.2825833"><ele>470.0</ele><time>2026-04-26T09:41:01.12Z</time></trkpt><trkpt lat="44.2694104" lon="11.2825164"><ele>469.99999999999994</ele><time>2026-04-26T09:41:04.113Z</time></trkpt><trkpt lat="44.269373" lon="11.282421"><ele>470.0</ele><time>2026-04-26T09:41:07.113Z</time></trkpt><trkpt lat="44.269366" lon="11.2823113"><ele>470.0</ele><time>2026-04-26T09:41:10.112Z</time></trkpt><trkpt lat="44.2693579" lon="11.2822078"><ele>470.0</ele><time>2026-04-26T09:41:13.11Z</time></trkpt><trkpt lat="44.269347" lon="11.2821065"><ele>469.99999999999994</ele><time>2026-04-26T09:41:16.119Z</time></trkpt><trkpt lat="44.2693307" lon="11.2820002"><ele>470.0</ele><time>2026-04-26T09:41:19.115Z</time></trkpt><trkpt lat="44.2692996" lon="11.2818937"><ele>472.3333333333333</ele><time>2026-04-26T09:41:22.118Z</time></trkpt><trkpt lat="44.2692553" lon="11.281795"><ele>474.66666666666663</ele><time>2026-04-26T09:41:25.116Z</time></trkpt><trkpt lat="44.2691853" lon="11.2817391"><ele>477.0</ele><time>2026-04-26T09:41:28.102Z</time></trkpt><trkpt lat="44.2691042" lon="11.2817298"><ele>479.33333333333337</ele><time>2026-04-26T09:41:31.103Z</time></trkpt><trkpt lat="44.269029" lon="11.2817748"><ele>481.6666666666667</ele><time>2026-04-26T09:41:34.111Z</time></trkpt><trkpt lat="44.2689552" lon="11.2818351"><ele>484.0</ele><time>2026-04-26T09:41:37.12Z</time></trkpt><trkpt lat="44.2688808" lon="11.281893"><ele>484.0</ele><time>2026-04-26T09:41:40.11Z</time></trkpt><trkpt lat="44.2687975" lon="11.2819178"><ele>483.99999999999994</ele><time>2026-04-26T09:41:43.114Z</time></trkpt><trkpt lat="44.2687259" lon="11.281888"><ele>484.0</ele><time>2026-04-26T09:41:46.115Z</time></trkpt><trkpt lat="44.2686833" lon="11.2818109"><ele>484.0</ele><time>2026-04-26T09:41:49.112Z</time></trkpt><trkpt lat="44.2686719" lon="11.2817134"><ele>483.99999999999994</ele><time>2026-04-26T09:41:52.119Z</time></trkpt><trkpt lat="44.2687031" lon="11.28162"><ele>484.0</ele><time>2026-04-26T09:41:55.106Z</time></trkpt><trkpt lat="44.2687632" lon="11.2815595"><ele>484.0</ele><time>2026-04-26T09:41:58.129Z</time></trkpt><trkpt lat="44.2688336" lon="11.2815252"><ele>484.00000000000006</ele><time>2026-04-26T09:42:01.114Z</time></trkpt><trkpt lat="44.2689105" lon="11.2815187"><ele>484.0</ele><time>2026-04-26T09:42:04.113Z</time></trkpt><trkpt lat="44.268987" lon="11.2815089"><ele>484.0</ele><time>2026-04-26T09:42:07.112Z</time></trkpt><trkpt lat="44.269061" lon="11.2814879"><ele>484.0</ele><time>2026-04-26T09:42:10.106Z</time></trkpt><trkpt lat="44.2691333" lon="11.2814611"><ele>484.00000000000006</ele><time>2026-04-26T09:42:13.116Z</time></trkpt><trkpt lat="44.269201" lon="11.2814116"><ele>484.0</ele><time>2026-04-26T09:42:16.122Z</time></trkpt><trkpt lat="44.2692641" lon="11.2813386"><ele>486.83333333333337</ele><time>2026-04-26T09:42:19.113Z</time></trkpt><trkpt lat="44.2693298" lon="11.2812636"><ele>489.6666666666667</ele><time>2026-04-26T09:42:22.118Z</time></trkpt><trkpt lat="44.2694064" lon="11.2812148"><ele>492.5</ele><time>2026-04-26T09:42:25.118Z</time></trkpt><trkpt lat="44.2694876" lon="11.2812102"><ele>495.33333333333337</ele><time>2026-04-26T09:42:28.114Z</time></trkpt><trkpt lat="44.2695603" lon="11.2812365"><ele>498.1666666666667</ele><time>2026-04-26T09:42:31.112Z</time></trkpt><trkpt lat="44.2696314" lon="11.2812843"><ele>501.0</ele><time>2026-04-26T09:42:34.119Z</time></trkpt><trkpt lat="44.2697046" lon="11.2813264"><ele>500.3333333333333</ele><time>2026-04-26T09:42:37.115Z</time></trkpt><trkpt lat="44.2697816" lon="11.2813625"><ele>499.66666666666663</ele><time>2026-04-26T09:42:40.13Z</time></trkpt><trkpt lat="44.2698585" lon="11.2813763"><ele>499.0</ele><time>2026-04-26T09:42:43.119Z</time></trkpt><trkpt lat="44.2699354" lon="11.2813345"><ele>498.3333333333333</ele><time>2026-04-26T09:42:46.119Z</time></trkpt><trkpt lat="44.2699907" lon="11.2812455"><ele>497.66666666666663</ele><time>2026-04-26T09:42:49.119Z</time></trkpt><trkpt lat="44.2700156" lon="11.281134"><ele>497.0</ele><time>2026-04-26T09:42:52.122Z</time></trkpt><trkpt lat="44.2700054" lon="11.2810187"><ele>496.99999999999994</ele><time>2026-04-26T09:42:55.105Z</time></trkpt><trkpt lat="44.2699629" lon="11.2809246"><ele>497.0</ele><time>2026-04-26T09:42:58.116Z</time></trkpt><trkpt lat="44.2699043" lon="11.2808572"><ele>497.0</ele><time>2026-04-26T09:43:01.111Z</time></trkpt><trkpt lat="44.2698349" lon="11.2808025"><ele>497.0</ele><time>2026-04-26T09:43:04.121Z</time></trkpt><trkpt lat="44.2697665" lon="11.280747"><ele>496.99999999999994</ele><time>2026-04-26T09:43:07.112Z</time></trkpt><trkpt lat="44.2697002" lon="11.2806881"><ele>497.0</ele><time>2026-04-26T09:43:10.117Z</time></trkpt><trkpt lat="44.2696275" lon="11.2806401"><ele>497.66666666666663</ele><time>2026-04-26T09:43:13.108Z</time></trkpt><trkpt lat="44.2695481" lon="11.2806227"><ele>498.3333333333333</ele><time>2026-04-26T09:43:16.116Z</time></trkpt><trkpt lat="44.2694665" lon="11.2806426"><ele>499.0</ele><time>2026-04-26T09:43:19.117Z</time></trkpt><trkpt lat="44.2693884" lon="11.2806724"><ele>499.66666666666663</ele><time>2026-04-26T09:43:22.116Z</time></trkpt><trkpt lat="44.2693123" lon="11.2807092"><ele>500.3333333333333</ele><time>2026-04-26T09:43:25.124Z</time></trkpt><trkpt lat="44.2692348" lon="11.2807363"><ele>501.0</ele><time>2026-04-26T09:43:28.115Z</time></trkpt><trkpt lat="44.2691547" lon="11.2807329"><ele>501.0</ele><time>2026-04-26T09:43:31.107Z</time></trkpt><trkpt lat="44.2690848" lon="11.280688"><ele>501.0</ele><time>2026-04-26T09:43:34.112Z</time></trkpt><trkpt lat="44.2690326" lon="11.2806184"><ele>501.0</ele><time>2026-04-26T09:43:37.115Z</time></trkpt><trkpt lat="44.2689895" lon="11.2805352"><ele>501.0</ele><time>2026-04-26T09:43:40.118Z</time></trkpt><trkpt lat="44.2689367" lon="11.2804604"><ele>501.0</ele><time>2026-04-26T09:43:43.112Z</time></trkpt><trkpt lat="44.2688757" lon="11.2803939"><ele>501.0</ele><time>2026-04-26T09:43:46.115Z</time></trkpt><trkpt lat="44.2688109" lon="11.280341"><ele>503.14285714285717</ele><time>2026-04-26T09:43:49.117Z</time></trkpt><trkpt lat="44.2687455" lon="11.2802982"><ele>505.2857142857142</ele><time>2026-04-26T09:43:52.126Z</time></trkpt><trkpt lat="44.2686794" lon="11.2802615"><ele>507.4285714285714</ele><time>2026-04-26T09:43:55.108Z</time></trkpt><trkpt lat="44.2686248" lon="11.2802073"><ele>509.57142857142856</ele><time>2026-04-26T09:43:58.124Z</time></trkpt><trkpt lat="44.2686034" lon="11.2800997"><ele>511.71428571428567</ele><time>2026-04-26T09:44:02.119Z</time></trkpt><trkpt lat="44.2686403" lon="11.2800125"><ele>513.8571428571428</ele><time>2026-04-26T09:44:06.103Z</time></trkpt><trkpt lat="44.2687119" lon="11.2799634"><ele>516.0</ele><time>2026-04-26T09:44:10.118Z</time></trkpt><trkpt lat="44.2687747" lon="11.2799417"><ele>515.9999999999999</ele><time>2026-04-26T09:44:13.126Z</time></trkpt><trkpt lat="44.2688396" lon="11.2799436"><ele>516.0</ele><time>2026-04-26T09:44:16.113Z</time></trkpt><trkpt lat="44.2689036" lon="11.2799773"><ele>516.0</ele><time>2026-04-26T09:44:19.112Z</time></trkpt><trkpt lat="44.2689614" lon="11.2800171"><ele>516.0</ele><time>2026-04-26T09:44:22.113Z</time></trkpt><trkpt lat="44.2690241" lon="11.280066"><ele>516.0</ele><time>2026-04-26T09:44:26.117Z</time></trkpt><trkpt lat="44.2690966" lon="11.2801051"><ele>515.9999999999999</ele><time>2026-04-26T09:44:30.118Z</time></trkpt><trkpt lat="44.2691763" lon="11.2801123"><ele>516.0</ele><time>2026-04-26T09:44:34.112Z</time></trkpt><trkpt lat="44.2692474" lon="11.2800518"><ele>516.2857142857142</ele><time>2026-04-26T09:44:38.119Z</time></trkpt><trkpt lat="44.269291" lon="11.2799789"><ele>516.5714285714286</ele><time>2026-04-26T09:44:41.11Z</time></trkpt><trkpt lat="44.2693348" lon="11.2799027"><ele>516.8571428571429</ele><time>2026-04-26T09:44:44.109Z</time></trkpt><trkpt lat="44.2693664" lon="11.2798122"><ele>517.1428571428571</ele><time>2026-04-26T09:44:47.105Z</time></trkpt><trkpt lat="44.2694011" lon="11.2797281"><ele>517.4285714285714</ele><time>2026-04-26T09:44:50.11Z</time></trkpt><trkpt lat="44.269423" lon="11.2796408"><ele>517.7142857142857</ele><time>2026-04-26T09:44:53.114Z</time></trkpt><trkpt lat="44.2694448" lon="11.2795296"><ele>518.0</ele><time>2026-04-26T09:44:57.122Z</time></trkpt><trkpt lat="44.2694658" lon="11.2794418"><ele>520.2857142857143</ele><time>2026-04-26T09:45:01.113Z</time></trkpt><trkpt lat="44.2694848" lon="11.2793389"><ele>522.5714285714286</ele><time>2026-04-26T09:45:04.11Z</time></trkpt><trkpt lat="44.269503" lon="11.2792541"><ele>524.8571428571429</ele><time>2026-04-26T09:45:07.109Z</time></trkpt><trkpt lat="44.2695248" lon="11.2791525"><ele>527.1428571428571</ele><time>2026-04-26T09:45:11.119Z</time></trkpt><trkpt lat="44.269551" lon="11.27905"><ele>529.4285714285714</ele><time>2026-04-26T09:45:15.109Z</time></trkpt><trkpt lat="44.2695671" lon="11.2789486"><ele>531.7142857142858</ele><time>2026-04-26T09:45:19.108Z</time></trkpt><trkpt lat="44.2695982" lon="11.2788626"><ele>534.0</ele><time>2026-04-26T09:45:23.11Z</time></trkpt><trkpt lat="44.2696402" lon="11.278759"><ele>535.0</ele><time>2026-04-26T09:45:26.115Z</time></trkpt><trkpt lat="44.2696866" lon="11.2786743"><ele>536.0</ele><time>2026-04-26T09:45:29.108Z</time></trkpt><trkpt lat="44.2697417" lon="11.2786007"><ele>537.0</ele><time>2026-04-26T09:45:33.115Z</time></trkpt><trkpt lat="44.2697919" lon="11.278534"><ele>538.0</ele><time>2026-04-26T09:45:37.118Z</time></trkpt><trkpt lat="44.2698475" lon="11.278466"><ele>539.0</ele><time>2026-04-26T09:45:41.125Z</time></trkpt><trkpt lat="44.2699094" lon="11.278397"><ele>540.0</ele><time>2026-04-26T09:45:45.116Z</time></trkpt><trkpt lat="44.2699729" lon="11.2783251"><ele>540.0</ele><time>2026-04-26T09:45:49.115Z</time></trkpt><trkpt lat="44.2700459" lon="11.2782555"><ele>540.0</ele><time>2026-04-26T09:45:53.115Z</time></trkpt><trkpt lat="44.2701061" lon="11.2781879"><ele>540.0</ele><time>2026-04-26T09:45:57.119Z</time></trkpt><trkpt lat="44.2701669" lon="11.2781176"><ele>540.0</ele><time>2026-04-26T09:46:01.111Z</time></trkpt><trkpt lat="44.2702343" lon="11.2780387"><ele>540.0</ele><time>2026-04-26T09:46:06.125Z</time></trkpt><trkpt lat="44.2702933" lon="11.277974"><ele>540.0</ele><time>2026-04-26T09:46:10.12Z</time></trkpt><trkpt lat="44.2703475" lon="11.2779017"><ele>541.4285714285714</ele><time>2026-04-26T09:46:15.115Z</time></trkpt><trkpt lat="44.270408" lon="11.2778386"><ele>542.8571428571428</ele><time>2026-04-26T09:46:19.111Z</time></trkpt><trkpt lat="44.2704652" lon="11.2777674"><ele>544.2857142857142</ele><time>2026-04-26T09:46:23.107Z</time></trkpt><trkpt lat="44.2705123" lon="11.2776931"><ele>545.7142857142857</ele><time>2026-04-26T09:46:27.117Z</time></trkpt><trkpt lat="44.2705616" lon="11.2776196"><ele>547.1428571428571</ele><time>2026-04-26T09:46:31.118Z</time></trkpt><trkpt lat="44.2706112" lon="11.2775379"><ele>548.5714285714286</ele><time>2026-04-26T09:46:36.11Z</time></trkpt><trkpt lat="44.2706504" lon="11.2774537"><ele>550.0</ele><time>2026-04-26T09:46:42.112Z</time></trkpt><trkpt lat="44.2706924" lon="11.2773758"><ele>550.0</ele><time>2026-04-26T09:46:47.121Z</time></trkpt><trkpt lat="44.2707384" lon="11.2773149"><ele>550.0</ele><time>2026-04-26T09:46:51.119Z</time></trkpt><trkpt lat="44.2707888" lon="11.2772502"><ele>550.0</ele><time>2026-04-26T09:46:54.116Z</time></trkpt><trkpt lat="44.2708385" lon="11.2771811"><ele>550.0</ele><time>2026-04-26T09:46:58.116Z</time></trkpt><trkpt lat="44.2709001" lon="11.2771053"><ele>550.0</ele><time>2026-04-26T09:47:02.113Z</time></trkpt><trkpt lat="44.270966" lon="11.277045"><ele>550.0</ele><time>2026-04-26T09:47:06.12Z</time></trkpt><trkpt lat="44.2710322" lon="11.2769902"><ele>550.0</ele><time>2026-04-26T09:47:10.112Z</time></trkpt><trkpt lat="44.2710844" lon="11.2769273"><ele>552.2857142857143</ele><time>2026-04-26T09:47:14.111Z</time></trkpt><trkpt lat="44.2711383" lon="11.2768521"><ele>554.5714285714286</ele><time>2026-04-26T09:47:18.13Z</time></trkpt><trkpt lat="44.2711847" lon="11.276775"><ele>556.8571428571429</ele><time>2026-04-26T09:47:22.11Z</time></trkpt><trkpt lat="44.2712274" lon="11.2766896"><ele>559.1428571428571</ele><time>2026-04-26T09:47:26.113Z</time></trkpt><trkpt lat="44.2712662" lon="11.2765972"><ele>561.4285714285714</ele><time>2026-04-26T09:47:30.129Z</time></trkpt><trkpt lat="44.2713193" lon="11.2765147"><ele>563.7142857142858</ele><time>2026-04-26T09:47:34.122Z</time></trkpt><trkpt lat="44.2713653" lon="11.2764464"><ele>566.0</ele><time>2026-04-26T09:47:37.108Z</time></trkpt><trkpt lat="44.2713886" lon="11.276356"><ele>567.7142857142858</ele><time>2026-04-26T09:47:40.118Z</time></trkpt><trkpt lat="44.2713673" lon="11.276258"><ele>569.4285714285714</ele><time>2026-04-26T09:47:44.111Z</time></trkpt><trkpt lat="44.2712999" lon="11.2762019"><ele>571.1428571428571</ele><time>2026-04-26T09:47:50.115Z</time></trkpt><trkpt lat="44.2712426" lon="11.2761402"><ele>572.8571428571429</ele><time>2026-04-26T09:47:54.121Z</time></trkpt><trkpt lat="44.2712211" lon="11.2760393"><ele>574.5714285714286</ele><time>2026-04-26T09:47:58.113Z</time></trkpt><trkpt lat="44.2712253" lon="11.2759251"><ele>576.2857142857143</ele><time>2026-04-26T09:48:03.119Z</time></trkpt><trkpt lat="44.2712317" lon="11.2758333"><ele>578.0</ele><time>2026-04-26T09:48:06.111Z</time></trkpt><trkpt lat="44.2712482" lon="11.2757448"><ele>578.0</ele><time>2026-04-26T09:48:09.114Z</time></trkpt><trkpt lat="44.2712791" lon="11.2756546"><ele>578.0</ele><time>2026-04-26T09:48:12.113Z</time></trkpt><trkpt lat="44.2713212" lon="11.2755759"><ele>578.0</ele><time>2026-04-26T09:48:15.114Z</time></trkpt><trkpt lat="44.271377" lon="11.2755002"><ele>578.0</ele><time>2026-04-26T09:48:19.108Z</time></trkpt><trkpt lat="44.2714287" lon="11.2754429"><ele>578.0</ele><time>2026-04-26T09:48:23.108Z</time></trkpt><trkpt lat="44.271492" lon="11.2753967"><ele>578.0</ele><time>2026-04-26T09:48:27.117Z</time></trkpt><trkpt lat="44.2715419" lon="11.2753225"><ele>578.0</ele><time>2026-04-26T09:48:31.107Z</time></trkpt><trkpt lat="44.2715804" lon="11.2752426"><ele>579.1428571428571</ele><time>2026-04-26T09:48:34.118Z</time></trkpt><trkpt lat="44.2716392" lon="11.2751673"><ele>580.2857142857142</ele><time>2026-04-26T09:48:39.117Z</time></trkpt><trkpt lat="44.2717016" lon="11.275133"><ele>581.4285714285713</ele><time>2026-04-26T09:48:42.116Z</time></trkpt><trkpt lat="44.2717735" lon="11.2751009"><ele>582.5714285714286</ele><time>2026-04-26T09:48:46.11Z</time></trkpt><trkpt lat="44.2718516" lon="11.2750752"><ele>583.7142857142857</ele><time>2026-04-26T09:48:50.114Z</time></trkpt><trkpt lat="44.2719147" lon="11.2750559"><ele>584.8571428571428</ele><time>2026-04-26T09:48:53.111Z</time></trkpt><trkpt lat="44.2719822" lon="11.2750179"><ele>586.0</ele><time>2026-04-26T09:48:57.119Z</time></trkpt><trkpt lat="44.2720277" lon="11.2749556"><ele>585.9999999999999</ele><time>2026-04-26T09:49:01.118Z</time></trkpt><trkpt lat="44.2720719" lon="11.2748844"><ele>586.0</ele><time>2026-04-26T09:49:07.116Z</time></trkpt><trkpt lat="44.2720945" lon="11.2747918"><ele>586.0</ele><time>2026-04-26T09:49:13.109Z</time></trkpt><trkpt lat="44.2721" lon="11.2746735"><ele>586.0</ele><time>2026-04-26T09:49:18.134Z</time></trkpt><trkpt lat="44.2721034" lon="11.2745773"><ele>586.0</ele><time>2026-04-26T09:49:21.107Z</time></trkpt><trkpt lat="44.2721145" lon="11.2744743"><ele>585.9999999999999</ele><time>2026-04-26T09:49:25.121Z</time></trkpt><trkpt lat="44.2721381" lon="11.274391"><ele>586.0</ele><time>2026-04-26T09:49:28.114Z</time></trkpt><trkpt lat="44.2721755" lon="11.2742837"><ele>586.8333333333334</ele><time>2026-04-26T09:49:32.117Z</time></trkpt><trkpt lat="44.2722057" lon="11.2741913"><ele>587.6666666666667</ele><time>2026-04-26T09:49:36.118Z</time></trkpt><trkpt lat="44.2722344" lon="11.2740959"><ele>588.5</ele><time>2026-04-26T09:49:40.123Z</time></trkpt><trkpt lat="44.2722624" lon="11.2739928"><ele>589.3333333333334</ele><time>2026-04-26T09:49:44.12Z</time></trkpt><trkpt lat="44.2722834" lon="11.2738921"><ele>590.1666666666666</ele><time>2026-04-26T09:49:48.112Z</time></trkpt><trkpt lat="44.2722828" lon="11.2737882"><ele>591.0</ele><time>2026-04-26T09:49:52.12Z</time></trkpt><trkpt lat="44.2722732" lon="11.2736841"><ele>592.4285714285714</ele><time>2026-04-26T09:49:56.11Z</time></trkpt><trkpt lat="44.27226" lon="11.2735971"><ele>593.8571428571429</ele><time>2026-04-26T09:50:00.13Z</time></trkpt><trkpt lat="44.2722353" lon="11.2734885"><ele>595.2857142857142</ele><time>2026-04-26T09:50:05.121Z</time></trkpt><trkpt lat="44.2722119" lon="11.2733877"><ele>596.7142857142858</ele><time>2026-04-26T09:50:09.112Z</time></trkpt><trkpt lat="44.2722066" lon="11.2732712"><ele>598.1428571428572</ele><time>2026-04-26T09:50:13.114Z</time></trkpt><trkpt lat="44.2722193" lon="11.2731763"><ele>599.5714285714286</ele><time>2026-04-26T09:50:16.12Z</time></trkpt><trkpt lat="44.272253" lon="11.2730869"><ele>601.0</ele><time>2026-04-26T09:50:19.126Z</time></trkpt><trkpt lat="44.2723144" lon="11.2730083"><ele>601.0</ele><time>2026-04-26T09:50:22.12Z</time></trkpt><trkpt lat="44.2723821" lon="11.2729569"><ele>601.0</ele><time>2026-04-26T09:50:25.113Z</time></trkpt><trkpt lat="44.272444" lon="11.2729094"><ele>601.0</ele><time>2026-04-26T09:50:28.115Z</time></trkpt><trkpt lat="44.2725141" lon="11.2728698"><ele>601.0</ele><time>2026-04-26T09:50:31.113Z</time></trkpt><trkpt lat="44.2725763" lon="11.2728235"><ele>601.0</ele><time>2026-04-26T09:50:34.111Z</time></trkpt><trkpt lat="44.2726325" lon="11.2727683"><ele>601.0</ele><time>2026-04-26T09:50:37.115Z</time></trkpt><trkpt lat="44.2726906" lon="11.2727186"><ele>601.0</ele><time>2026-04-26T09:50:40.114Z</time></trkpt><trkpt lat="44.2727492" lon="11.2726681"><ele>601.0</ele><time>2026-04-26T09:50:43.116Z</time></trkpt><trkpt lat="44.2728093" lon="11.2726167"><ele>601.0</ele><time>2026-04-26T09:50:46.114Z</time></trkpt><trkpt lat="44.2728721" lon="11.27257"><ele>601.0</ele><time>2026-04-26T09:50:49.116Z</time></trkpt><trkpt lat="44.2729391" lon="11.272538"><ele>601.0</ele><time>2026-04-26T09:50:52.108Z</time></trkpt><trkpt lat="44.2730115" lon="11.2725102"><ele>601.0</ele><time>2026-04-26T09:50:55.107Z</time></trkpt><trkpt lat="44.2730828" lon="11.272486"><ele>601.0</ele><time>2026-04-26T09:50:58.116Z</time></trkpt><trkpt lat="44.2731498" lon="11.27247"><ele>601.0</ele><time>2026-04-26T09:51:01.119Z</time></trkpt><trkpt lat="44.2732148" lon="11.2724453"><ele>600.8571428571428</ele><time>2026-04-26T09:51:04.118Z</time></trkpt><trkpt lat="44.2732913" lon="11.2723992"><ele>600.7142857142858</ele><time>2026-04-26T09:51:08.112Z</time></trkpt><trkpt lat="44.2733465" lon="11.2723485"><ele>600.5714285714286</ele><time>2026-04-26T09:51:11.124Z</time></trkpt><trkpt lat="44.2733953" lon="11.2722875"><ele>600.4285714285713</ele><time>2026-04-26T09:51:14.12Z</time></trkpt><trkpt lat="44.273439" lon="11.2722114"><ele>600.2857142857142</ele><time>2026-04-26T09:51:17.119Z</time></trkpt><trkpt lat="44.2734767" lon="11.2721303"><ele>600.1428571428571</ele><time>2026-04-26T09:51:20.118Z</time></trkpt><trkpt lat="44.2735106" lon="11.2720462"><ele>600.0</ele><time>2026-04-26T09:51:23.106Z</time></trkpt><trkpt lat="44.2735404" lon="11.2719599"><ele>601.7142857142857</ele><time>2026-04-26T09:51:26.113Z</time></trkpt><trkpt lat="44.2735726" lon="11.2718737"><ele>603.4285714285714</ele><time>2026-04-26T09:51:29.122Z</time></trkpt><trkpt lat="44.2735966" lon="11.2717858"><ele>605.1428571428571</ele><time>2026-04-26T09:51:32.114Z</time></trkpt><trkpt lat="44.2736131" lon="11.2716923"><ele>606.8571428571429</ele><time>2026-04-26T09:51:35.115Z</time></trkpt><trkpt lat="44.2736316" lon="11.2715919"><ele>608.5714285714286</ele><time>2026-04-26T09:51:38.117Z</time></trkpt><trkpt lat="44.2736563" lon="11.2714901"><ele>610.2857142857142</ele><time>2026-04-26T09:51:41.119Z</time></trkpt><trkpt lat="44.2736845" lon="11.2713898"><ele>612.0</ele><time>2026-04-26T09:51:44.115Z</time></trkpt><trkpt lat="44.2737134" lon="11.2712911"><ele>613.0</ele><time>2026-04-26T09:51:47.119Z</time></trkpt><trkpt lat="44.2737484" lon="11.2711903"><ele>614.0</ele><time>2026-04-26T09:51:50.118Z</time></trkpt><trkpt lat="44.273785" lon="11.2710874"><ele>615.0</ele><time>2026-04-26T09:51:53.119Z</time></trkpt><trkpt lat="44.2738315" lon="11.2709891"><ele>616.0</ele><time>2026-04-26T09:51:56.114Z</time></trkpt><trkpt lat="44.2738973" lon="11.2709133"><ele>617.0</ele><time>2026-04-26T09:51:59.113Z</time></trkpt><trkpt lat="44.2739828" lon="11.2708745"><ele>618.0</ele><time>2026-04-26T09:52:02.115Z</time></trkpt><trkpt lat="44.2740747" lon="11.2708785"><ele>618.0</ele><time>2026-04-26T09:52:05.111Z</time></trkpt><trkpt lat="44.2741589" lon="11.2708981"><ele>618.0</ele><time>2026-04-26T09:52:08.119Z</time></trkpt><trkpt lat="44.2742444" lon="11.2709143"><ele>618.0</ele><time>2026-04-26T09:52:11.126Z</time></trkpt><trkpt lat="44.2743074" lon="11.2709224"><ele>618.0</ele><time>2026-04-26T09:52:13.113Z</time></trkpt><trkpt lat="44.2743766" lon="11.2709327"><ele>618.0</ele><time>2026-04-26T09:52:15.119Z</time></trkpt><trkpt lat="44.2744501" lon="11.2709459"><ele>618.0</ele><time>2026-04-26T09:52:17.119Z</time></trkpt><trkpt lat="44.2745315" lon="11.2709665"><ele>618.0</ele><time>2026-04-26T09:52:19.121Z</time></trkpt><trkpt lat="44.2746187" lon="11.2710065"><ele>618.0</ele><time>2026-04-26T09:52:21.123Z</time></trkpt><trkpt lat="44.2747114" lon="11.271063"><ele>618.0</ele><time>2026-04-26T09:52:23.116Z</time></trkpt><trkpt lat="44.2748037" lon="11.2711199"><ele>618.0</ele><time>2026-04-26T09:52:25.119Z</time></trkpt><trkpt lat="44.2748955" lon="11.2711882"><ele>618.0</ele><time>2026-04-26T09:52:27.115Z</time></trkpt><trkpt lat="44.2749891" lon="11.271248"><ele>618.6</ele><time>2026-04-26T09:52:29.114Z</time></trkpt><trkpt lat="44.2750806" lon="11.2712979"><ele>619.1999999999999</ele><time>2026-04-26T09:52:31.117Z</time></trkpt><trkpt lat="44.275175" lon="11.2713416"><ele>619.8</ele><time>2026-04-26T09:52:33.118Z</time></trkpt><trkpt lat="44.2752812" lon="11.2713728"><ele>620.4</ele><time>2026-04-26T09:52:35.121Z</time></trkpt><trkpt lat="44.275386" lon="11.2714033"><ele>621.0</ele><time>2026-04-26T09:52:37.123Z</time></trkpt><trkpt lat="44.2754856" lon="11.271433"><ele>619.8333333333334</ele><time>2026-04-26T09:52:39.123Z</time></trkpt><trkpt lat="44.275582" lon="11.2714578"><ele>618.6666666666666</ele><time>2026-04-26T09:52:41.124Z</time></trkpt><trkpt lat="44.2756699" lon="11.2714844"><ele>617.5</ele><time>2026-04-26T09:52:43.121Z</time></trkpt><trkpt lat="44.275749" lon="11.2715096"><ele>616.3333333333333</ele><time>2026-04-26T09:52:45.12Z</time></trkpt><trkpt lat="44.2758267" lon="11.2715345"><ele>615.1666666666666</ele><time>2026-04-26T09:52:47.117Z</time></trkpt><trkpt lat="44.2759058" lon="11.2715563"><ele>614.0</ele><time>2026-04-26T09:52:49.126Z</time></trkpt><trkpt lat="44.2759884" lon="11.2715757"><ele>614.0</ele><time>2026-04-26T09:52:51.114Z</time></trkpt><trkpt lat="44.2760743" lon="11.2715944"><ele>614.0</ele><time>2026-04-26T09:52:53.12Z</time></trkpt><trkpt lat="44.2761602" lon="11.2716173"><ele>614.0</ele><time>2026-04-26T09:52:55.116Z</time></trkpt><trkpt lat="44.276237" lon="11.2716365"><ele>614.0</ele><time>2026-04-26T09:52:57.11Z</time></trkpt><trkpt lat="44.2763138" lon="11.2716497"><ele>614.0</ele><time>2026-04-26T09:52:59.123Z</time></trkpt><trkpt lat="44.2763862" lon="11.2716653"><ele>614.0</ele><time>2026-04-26T09:53:01.106Z</time></trkpt><trkpt lat="44.2764586" lon="11.2716728"><ele>614.8333333333333</ele><time>2026-04-26T09:53:03.111Z</time></trkpt><trkpt lat="44.2765333" lon="11.2716722"><ele>615.6666666666666</ele><time>2026-04-26T09:53:05.117Z</time></trkpt><trkpt lat="44.2766161" lon="11.2716678"><ele>616.5</ele><time>2026-04-26T09:53:07.13Z</time></trkpt><trkpt lat="44.2767029" lon="11.2716551"><ele>617.3333333333334</ele><time>2026-04-26T09:53:09.122Z</time></trkpt><trkpt lat="44.2767929" lon="11.2716275"><ele>618.1666666666667</ele><time>2026-04-26T09:53:11.127Z</time></trkpt><trkpt lat="44.2768818" lon="11.2715963"><ele>619.0</ele><time>2026-04-26T09:53:13.119Z</time></trkpt><trkpt lat="44.2769755" lon="11.2715667"><ele>619.0</ele><time>2026-04-26T09:53:15.119Z</time></trkpt><trkpt lat="44.2770661" lon="11.271528"><ele>619.0</ele><time>2026-04-26T09:53:17.124Z</time></trkpt><trkpt lat="44.2771556" lon="11.2714814"><ele>619.0</ele><time>2026-04-26T09:53:19.111Z</time></trkpt><trkpt lat="44.2772385" lon="11.2714394"><ele>619.0</ele><time>2026-04-26T09:53:21.115Z</time></trkpt><trkpt lat="44.2773199" lon="11.2713948"><ele>619.0</ele><time>2026-04-26T09:53:23.123Z</time></trkpt><trkpt lat="44.2773983" lon="11.271346"><ele>621.5</ele><time>2026-04-26T09:53:25.11Z</time></trkpt><trkpt lat="44.2774735" lon="11.2713005"><ele>624.0</ele><time>2026-04-26T09:53:27.116Z</time></trkpt><trkpt lat="44.2775514" lon="11.2712574"><ele>626.5</ele><time>2026-04-26T09:53:29.105Z</time></trkpt><trkpt lat="44.2776306" lon="11.2712172"><ele>629.0</ele><time>2026-04-26T09:53:31.12Z</time></trkpt><trkpt lat="44.2777036" lon="11.2711809"><ele>631.5</ele><time>2026-04-26T09:53:33.118Z</time></trkpt><trkpt lat="44.2777686" lon="11.2711474"><ele>634.0</ele><time>2026-04-26T09:53:35.111Z</time></trkpt><trkpt lat="44.2778276" lon="11.2711058"><ele>634.0</ele><time>2026-04-26T09:53:37.115Z</time></trkpt><trkpt lat="44.2779074" lon="11.2710504"><ele>634.0</ele><time>2026-04-26T09:53:40.113Z</time></trkpt><trkpt lat="44.2779828" lon="11.2709996"><ele>634.0</ele><time>2026-04-26T09:53:43.117Z</time></trkpt><trkpt lat="44.2780559" lon="11.2709276"><ele>634.0</ele><time>2026-04-26T09:53:46.118Z</time></trkpt><trkpt lat="44.2781247" lon="11.2708576"><ele>634.0</ele><time>2026-04-26T09:53:49.126Z</time></trkpt><trkpt lat="44.278183" lon="11.2707742"><ele>634.0</ele><time>2026-04-26T09:53:52.122Z</time></trkpt><trkpt lat="44.2782328" lon="11.2706681"><ele>633.2857142857143</ele><time>2026-04-26T09:53:55.123Z</time></trkpt><trkpt lat="44.2782752" lon="11.2705647"><ele>632.5714285714286</ele><time>2026-04-26T09:53:58.115Z</time></trkpt><trkpt lat="44.2783082" lon="11.2704718"><ele>631.8571428571429</ele><time>2026-04-26T09:54:03.118Z</time></trkpt><trkpt lat="44.2783753" lon="11.2704409"><ele>631.1428571428571</ele><time>2026-04-26T09:56:20.122Z</time></trkpt><trkpt lat="44.2783775" lon="11.2703393"><ele>630.4285714285714</ele><time>2026-04-26T09:56:24.115Z</time></trkpt><trkpt lat="44.2783341" lon="11.2702735"><ele>629.7142857142857</ele><time>2026-04-26T09:56:28.119Z</time></trkpt><trkpt lat="44.2782794" lon="11.2701914"><ele>629.0</ele><time>2026-04-26T09:56:32.103Z</time></trkpt><trkpt lat="44.2782341" lon="11.2701204"><ele>629.0</ele><time>2026-04-26T09:56:35.116Z</time></trkpt><trkpt lat="44.2781888" lon="11.2700501"><ele>629.0</ele><time>2026-04-26T09:56:38.12Z</time></trkpt><trkpt lat="44.2781259" lon="11.2699792"><ele>629.0</ele><time>2026-04-26T09:56:42.116Z</time></trkpt><trkpt lat="44.278064" lon="11.269901"><ele>629.0</ele><time>2026-04-26T09:56:46.113Z</time></trkpt><trkpt lat="44.2780169" lon="11.2698373"><ele>629.0</ele><time>2026-04-26T09:56:49.109Z</time></trkpt><trkpt lat="44.2779662" lon="11.2697706"><ele>629.0</ele><time>2026-04-26T09:56:52.11Z</time></trkpt><trkpt lat="44.2779124" lon="11.2697115"><ele>629.0</ele><time>2026-04-26T09:56:55.105Z</time></trkpt><trkpt lat="44.2778553" lon="11.2696493"><ele>631.8333333333333</ele><time>2026-04-26T09:56:58.119Z</time></trkpt><trkpt lat="44.2778055" lon="11.2695831"><ele>634.6666666666666</ele><time>2026-04-26T09:57:01.12Z</time></trkpt><trkpt lat="44.2777608" lon="11.2695175"><ele>637.5</ele><time>2026-04-26T09:57:04.115Z</time></trkpt><trkpt lat="44.2777076" lon="11.2694441"><ele>640.3333333333334</ele><time>2026-04-26T09:57:09.11Z</time></trkpt><trkpt lat="44.2776785" lon="11.2693547"><ele>643.1666666666667</ele><time>2026-04-26T09:57:13.107Z</time></trkpt><trkpt lat="44.2776582" lon="11.2692453"><ele>646.0</ele><time>2026-04-26T09:57:16.115Z</time></trkpt><trkpt lat="44.2776426" lon="11.2691152"><ele>646.0</ele><time>2026-04-26T09:57:19.116Z</time></trkpt><trkpt lat="44.2776329" lon="11.2690068"><ele>646.0</ele><time>2026-04-26T09:57:21.114Z</time></trkpt><trkpt lat="44.2776386" lon="11.2688382"><ele>646.0</ele><time>2026-04-26T09:57:23.111Z</time></trkpt><trkpt lat="44.2776509" lon="11.2687076"><ele>646.0</ele><time>2026-04-26T09:57:25.105Z</time></trkpt><trkpt lat="44.277669" lon="11.2685865"><ele>646.0</ele><time>2026-04-26T09:57:27.125Z</time></trkpt><trkpt lat="44.2776994" lon="11.2684751"><ele>645.8</ele><time>2026-04-26T09:57:29.114Z</time></trkpt><trkpt lat="44.2777336" lon="11.268365"><ele>645.5999999999999</ele><time>2026-04-26T09:57:31.113Z</time></trkpt><trkpt lat="44.2777639" lon="11.2682631"><ele>645.4</ele><time>2026-04-26T09:57:33.117Z</time></trkpt><trkpt lat="44.2778033" lon="11.26816"><ele>645.2</ele><time>2026-04-26T09:57:35.12Z</time></trkpt><trkpt lat="44.2778619" lon="11.2680408"><ele>645.0</ele><time>2026-04-26T09:57:37.113Z</time></trkpt><trkpt lat="44.2779415" lon="11.2679042"><ele>646.3333333333334</ele><time>2026-04-26T09:57:39.114Z</time></trkpt><trkpt lat="44.2779852" lon="11.2678249"><ele>647.6666666666666</ele><time>2026-04-26T09:57:40.116Z</time></trkpt><trkpt lat="44.2780305" lon="11.2677404"><ele>649.0</ele><time>2026-04-26T09:57:41.12Z</time></trkpt><trkpt lat="44.2780796" lon="11.2676574"><ele>650.3333333333333</ele><time>2026-04-26T09:57:42.113Z</time></trkpt><trkpt lat="44.2781337" lon="11.2675761"><ele>651.6666666666666</ele><time>2026-04-26T09:57:43.126Z</time></trkpt><trkpt lat="44.2781885" lon="11.2674889"><ele>653.0</ele><time>2026-04-26T09:57:44.118Z</time></trkpt><trkpt lat="44.2782448" lon="11.2673989"><ele>650.0</ele><time>2026-04-26T09:57:45.126Z</time></trkpt><trkpt lat="44.2783011" lon="11.2673051"><ele>647.0</ele><time>2026-04-26T09:57:46.117Z</time></trkpt><trkpt lat="44.2783592" lon="11.2672093"><ele>644.0</ele><time>2026-04-26T09:57:47.112Z</time></trkpt><trkpt lat="44.2784186" lon="11.2671114"><ele>641.0</ele><time>2026-04-26T09:57:48.121Z</time></trkpt><trkpt lat="44.2784804" lon="11.2670125"><ele>638.0</ele><time>2026-04-26T09:57:49.113Z</time></trkpt><trkpt lat="44.2785454" lon="11.2669074"><ele>638.0</ele><time>2026-04-26T09:57:50.108Z</time></trkpt><trkpt lat="44.2786108" lon="11.2667987"><ele>638.0</ele><time>2026-04-26T09:57:51.121Z</time></trkpt><trkpt lat="44.2786743" lon="11.2666904"><ele>638.0</ele><time>2026-04-26T09:57:52.125Z</time></trkpt><trkpt lat="44.278739" lon="11.2665828"><ele>638.0</ele><time>2026-04-26T09:57:53.115Z</time></trkpt><trkpt lat="44.2788045" lon="11.266475"><ele>638.0</ele><time>2026-04-26T09:57:54.124Z</time></trkpt><trkpt lat="44.2788716" lon="11.2663648"><ele>637.0</ele><time>2026-04-26T09:57:55.121Z</time></trkpt><trkpt lat="44.2789347" lon="11.2662606"><ele>636.0</ele><time>2026-04-26T09:57:56.121Z</time></trkpt><trkpt lat="44.2789956" lon="11.2661605"><ele>635.0</ele><time>2026-04-26T09:57:57.118Z</time></trkpt><trkpt lat="44.2790557" lon="11.2660659"><ele>634.0</ele><time>2026-04-26T09:57:58.124Z</time></trkpt><trkpt lat="44.2791144" lon="11.2659868"><ele>633.0</ele><time>2026-04-26T09:57:59.111Z</time></trkpt><trkpt lat="44.2791752" lon="11.2659235"><ele>632.0</ele><time>2026-04-26T09:58:00.115Z</time></trkpt><trkpt lat="44.2792347" lon="11.2658638"><ele>632.0</ele><time>2026-04-26T09:58:01.12Z</time></trkpt><trkpt lat="44.27934" lon="11.2657844"><ele>632.0</ele><time>2026-04-26T09:58:03.116Z</time></trkpt><trkpt lat="44.2794231" lon="11.2656976"><ele>632.0</ele><time>2026-04-26T09:58:05.122Z</time></trkpt><trkpt lat="44.2794864" lon="11.2655941"><ele>632.0</ele><time>2026-04-26T09:58:07.124Z</time></trkpt><trkpt lat="44.27953" lon="11.2654605"><ele>632.0</ele><time>2026-04-26T09:58:09.129Z</time></trkpt><trkpt lat="44.2795795" lon="11.2653311"><ele>630.8000000000001</ele><time>2026-04-26T09:58:11.126Z</time></trkpt><trkpt lat="44.2796426" lon="11.2652018"><ele>629.6</ele><time>2026-04-26T09:58:13.107Z</time></trkpt><trkpt lat="44.2797316" lon="11.2650885"><ele>628.4000000000001</ele><time>2026-04-26T09:58:15.111Z</time></trkpt><trkpt lat="44.2798339" lon="11.2649815"><ele>627.2</ele><time>2026-04-26T09:58:17.115Z</time></trkpt><trkpt lat="44.2798901" lon="11.2649299"><ele>626.0</ele><time>2026-04-26T09:58:18.115Z</time></trkpt><trkpt lat="44.2799485" lon="11.2648731"><ele>626.0</ele><time>2026-04-26T09:58:19.117Z</time></trkpt><trkpt lat="44.2800112" lon="11.2648152"><ele>626.0</ele><time>2026-04-26T09:58:20.119Z</time></trkpt><trkpt lat="44.2800746" lon="11.264757"><ele>626.0</ele><time>2026-04-26T09:58:21.126Z</time></trkpt><trkpt lat="44.2801409" lon="11.264704"><ele>626.0</ele><time>2026-04-26T09:58:22.111Z</time></trkpt><trkpt lat="44.2802125" lon="11.264666"><ele>626.0</ele><time>2026-04-26T09:58:23.113Z</time></trkpt><trkpt lat="44.2802856" lon="11.264641"><ele>626.0</ele><time>2026-04-26T09:58:24.117Z</time></trkpt><trkpt lat="44.2803561" lon="11.2646265"><ele>627.4</ele><time>2026-04-26T09:58:25.118Z</time></trkpt><trkpt lat="44.2804219" lon="11.2646141"><ele>628.8</ele><time>2026-04-26T09:58:26.102Z</time></trkpt><trkpt lat="44.280536" lon="11.2645639"><ele>630.1999999999999</ele><time>2026-04-26T09:58:28.124Z</time></trkpt><trkpt lat="44.2806084" lon="11.2644578"><ele>631.6</ele><time>2026-04-26T09:58:30.105Z</time></trkpt><trkpt lat="44.2806093" lon="11.2643303"><ele>633.0</ele><time>2026-04-26T09:58:32.113Z</time></trkpt><trkpt lat="44.2805807" lon="11.2642335"><ele>633.0</ele><time>2026-04-26T09:58:34.119Z</time></trkpt><trkpt lat="44.2805361" lon="11.2641643"><ele>633.0</ele><time>2026-04-26T09:58:36.13Z</time></trkpt><trkpt lat="44.2804872" lon="11.2640969"><ele>633.0</ele><time>2026-04-26T09:58:38.121Z</time></trkpt><trkpt lat="44.2804359" lon="11.2640317"><ele>633.0</ele><time>2026-04-26T09:58:40.116Z</time></trkpt><trkpt lat="44.2803861" lon="11.2639663"><ele>633.0</ele><time>2026-04-26T09:58:42.108Z</time></trkpt><trkpt lat="44.2803372" lon="11.2638956"><ele>633.0</ele><time>2026-04-26T09:58:44.124Z</time></trkpt><trkpt lat="44.2802903" lon="11.2638262"><ele>633.0</ele><time>2026-04-26T09:58:46.114Z</time></trkpt><trkpt lat="44.2802478" lon="11.2637476"><ele>632.5</ele><time>2026-04-26T09:58:48.118Z</time></trkpt><trkpt lat="44.2802076" lon="11.2636618"><ele>632.0</ele><time>2026-04-26T09:58:50.118Z</time></trkpt><trkpt lat="44.2801659" lon="11.2635744"><ele>631.5</ele><time>2026-04-26T09:58:52.114Z</time></trkpt><trkpt lat="44.2801198" lon="11.2634842"><ele>631.0</ele><time>2026-04-26T09:58:54.115Z</time></trkpt><trkpt lat="44.2800674" lon="11.2633933"><ele>630.5</ele><time>2026-04-26T09:58:56.111Z</time></trkpt><trkpt lat="44.2800042" lon="11.2633025"><ele>630.0</ele><time>2026-04-26T09:58:58.122Z</time></trkpt><trkpt lat="44.2799378" lon="11.263213"><ele>630.0</ele><time>2026-04-26T09:59:00.121Z</time></trkpt><trkpt lat="44.2798726" lon="11.2631235"><ele>630.0</ele><time>2026-04-26T09:59:02.117Z</time></trkpt><trkpt lat="44.2798116" lon="11.2630299"><ele>630.0</ele><time>2026-04-26T09:59:04.107Z</time></trkpt><trkpt lat="44.2797556" lon="11.2629381"><ele>630.0</ele><time>2026-04-26T09:59:06.117Z</time></trkpt><trkpt lat="44.2797022" lon="11.2628487"><ele>630.0</ele><time>2026-04-26T09:59:08.115Z</time></trkpt><trkpt lat="44.2796513" lon="11.2627595"><ele>630.0</ele><time>2026-04-26T09:59:10.115Z</time></trkpt><trkpt lat="44.2796019" lon="11.2626742"><ele>630.5</ele><time>2026-04-26T09:59:12.116Z</time></trkpt><trkpt lat="44.2795508" lon="11.2625969"><ele>631.0</ele><time>2026-04-26T09:59:14.117Z</time></trkpt><trkpt lat="44.279501" lon="11.2625204"><ele>631.5</ele><time>2026-04-26T09:59:16.119Z</time></trkpt><trkpt lat="44.2794467" lon="11.2624509"><ele>632.0</ele><time>2026-04-26T09:59:18.114Z</time></trkpt><trkpt lat="44.2793875" lon="11.262384"><ele>632.5</ele><time>2026-04-26T09:59:20.118Z</time></trkpt><trkpt lat="44.2793256" lon="11.2623143"><ele>633.0</ele><time>2026-04-26T09:59:22.114Z</time></trkpt><trkpt lat="44.2792583" lon="11.262254"><ele>633.0</ele><time>2026-04-26T09:59:24.121Z</time></trkpt><trkpt lat="44.2791931" lon="11.2621957"><ele>633.0</ele><time>2026-04-26T09:59:26.12Z</time></trkpt><trkpt lat="44.2791252" lon="11.2621382"><ele>633.0</ele><time>2026-04-26T09:59:28.114Z</time></trkpt><trkpt lat="44.2790567" lon="11.2620796"><ele>633.0</ele><time>2026-04-26T09:59:30.117Z</time></trkpt><trkpt lat="44.2789868" lon="11.262017"><ele>633.0</ele><time>2026-04-26T09:59:32.107Z</time></trkpt><trkpt lat="44.2789186" lon="11.2619602"><ele>633.0</ele><time>2026-04-26T09:59:34.119Z</time></trkpt><trkpt lat="44.278854" lon="11.2619042"><ele>634.8571428571429</ele><time>2026-04-26T09:59:36.112Z</time></trkpt><trkpt lat="44.2787886" lon="11.2618524"><ele>636.7142857142858</ele><time>2026-04-26T09:59:38.128Z</time></trkpt><trkpt lat="44.2787253" lon="11.2618075"><ele>638.5714285714287</ele><time>2026-04-26T09:59:40.117Z</time></trkpt><trkpt lat="44.2786671" lon="11.2617563"><ele>640.4285714285714</ele><time>2026-04-26T09:59:42.115Z</time></trkpt><trkpt lat="44.278616" lon="11.2617044"><ele>642.2857142857143</ele><time>2026-04-26T09:59:44.111Z</time></trkpt><trkpt lat="44.2785673" lon="11.2616441"><ele>644.1428571428572</ele><time>2026-04-26T09:59:46.106Z</time></trkpt><trkpt lat="44.2785074" lon="11.2615439"><ele>646.0</ele><time>2026-04-26T09:59:49.116Z</time></trkpt><trkpt lat="44.2784529" lon="11.261447"><ele>646.0</ele><time>2026-04-26T09:59:52.113Z</time></trkpt><trkpt lat="44.2784059" lon="11.2613595"><ele>646.0</ele><time>2026-04-26T09:59:55.116Z</time></trkpt><trkpt lat="44.278362" lon="11.2612622"><ele>646.0</ele><time>2026-04-26T09:59:58.117Z</time></trkpt><trkpt lat="44.2783206" lon="11.2611618"><ele>646.0</ele><time>2026-04-26T10:00:01.114Z</time></trkpt><trkpt lat="44.278283" lon="11.2610641"><ele>646.0</ele><time>2026-04-26T10:00:04.124Z</time></trkpt><trkpt lat="44.2782464" lon="11.2609712"><ele>646.0</ele><time>2026-04-26T10:00:07.113Z</time></trkpt><trkpt lat="44.2782093" lon="11.2608788"><ele>646.0000000000001</ele><time>2026-04-26T10:00:10.119Z</time></trkpt><trkpt lat="44.278176" lon="11.2607937"><ele>646.0</ele><time>2026-04-26T10:00:13.117Z</time></trkpt><trkpt lat="44.2781413" lon="11.2607099"><ele>646.0</ele><time>2026-04-26T10:00:16.124Z</time></trkpt><trkpt lat="44.2781036" lon="11.2606094"><ele>646.0</ele><time>2026-04-26T10:00:20.117Z</time></trkpt><trkpt lat="44.2780685" lon="11.2605215"><ele>646.0</ele><time>2026-04-26T10:00:24.107Z</time></trkpt><trkpt lat="44.2780509" lon="11.2604273"><ele>646.0000000000001</ele><time>2026-04-26T10:00:27.11Z</time></trkpt><trkpt lat="44.2780345" lon="11.2603332"><ele>646.0</ele><time>2026-04-26T10:00:30.118Z</time></trkpt><trkpt lat="44.2780184" lon="11.2602393"><ele>648.0</ele><time>2026-04-26T10:00:33.109Z</time></trkpt><trkpt lat="44.2779959" lon="11.2601307"><ele>650.0</ele><time>2026-04-26T10:00:36.113Z</time></trkpt><trkpt lat="44.2779739" lon="11.260022"><ele>652.0</ele><time>2026-04-26T10:00:39.114Z</time></trkpt><trkpt lat="44.2779571" lon="11.2599139"><ele>654.0</ele><time>2026-04-26T10:00:42.12Z</time></trkpt><trkpt lat="44.2779394" lon="11.2598086"><ele>656.0</ele><time>2026-04-26T10:00:45.11Z</time></trkpt><trkpt lat="44.2779191" lon="11.2597106"><ele>658.0</ele><time>2026-04-26T10:00:48.111Z</time></trkpt><trkpt lat="44.2778899" lon="11.2596147"><ele>658.0</ele><time>2026-04-26T10:00:51.115Z</time></trkpt><trkpt lat="44.2778565" lon="11.2595245"><ele>658.0</ele><time>2026-04-26T10:00:54.105Z</time></trkpt><trkpt lat="44.2778191" lon="11.2594342"><ele>658.0</ele><time>2026-04-26T10:00:57.121Z</time></trkpt><trkpt lat="44.2777622" lon="11.259343"><ele>658.0</ele><time>2026-04-26T10:01:00.124Z</time></trkpt><trkpt lat="44.277698" lon="11.2592508"><ele>658.0</ele><time>2026-04-26T10:01:03.118Z</time></trkpt><trkpt lat="44.2776493" lon="11.2591719"><ele>658.0</ele><time>2026-04-26T10:01:05.114Z</time></trkpt><trkpt lat="44.2775946" lon="11.2591035"><ele>658.0</ele><time>2026-04-26T10:01:07.122Z</time></trkpt><trkpt lat="44.2775359" lon="11.259033"><ele>658.0</ele><time>2026-04-26T10:01:09.119Z</time></trkpt><trkpt lat="44.2774733" lon="11.2589513"><ele>658.0</ele><time>2026-04-26T10:01:11.111Z</time></trkpt><trkpt lat="44.27741" lon="11.2588579"><ele>658.0</ele><time>2026-04-26T10:01:13.118Z</time></trkpt><trkpt lat="44.2773432" lon="11.2587585"><ele>658.0</ele><time>2026-04-26T10:01:15.103Z</time></trkpt><trkpt lat="44.2772724" lon="11.2586446"><ele>657.2</ele><time>2026-04-26T10:01:17.117Z</time></trkpt><trkpt lat="44.2772039" lon="11.2585393"><ele>656.4</ele><time>2026-04-26T10:01:19.128Z</time></trkpt><trkpt lat="44.2771354" lon="11.2584263"><ele>655.6</ele><time>2026-04-26T10:01:21.118Z</time></trkpt><trkpt lat="44.2770579" lon="11.2583127"><ele>654.8000000000001</ele><time>2026-04-26T10:01:23.118Z</time></trkpt><trkpt lat="44.276963" lon="11.2582135"><ele>654.0</ele><time>2026-04-26T10:01:25.114Z</time></trkpt><trkpt lat="44.2769058" lon="11.2581727"><ele>654.0</ele><time>2026-04-26T10:01:26.12Z</time></trkpt><trkpt lat="44.276842" lon="11.2581373"><ele>654.0</ele><time>2026-04-26T10:01:27.111Z</time></trkpt><trkpt lat="44.2767737" lon="11.2581066"><ele>654.0</ele><time>2026-04-26T10:01:28.118Z</time></trkpt><trkpt lat="44.2767004" lon="11.2580799"><ele>654.0</ele><time>2026-04-26T10:01:29.125Z</time></trkpt><trkpt lat="44.276625" lon="11.2580527"><ele>654.0</ele><time>2026-04-26T10:01:30.11Z</time></trkpt><trkpt lat="44.2765501" lon="11.2580205"><ele>654.0</ele><time>2026-04-26T10:01:31.118Z</time></trkpt><trkpt lat="44.2764732" lon="11.2579822"><ele>652.6666666666666</ele><time>2026-04-26T10:01:32.117Z</time></trkpt><trkpt lat="44.2763974" lon="11.2579343"><ele>651.3333333333334</ele><time>2026-04-26T10:01:33.116Z</time></trkpt><trkpt lat="44.276327" lon="11.2578732"><ele>650.0</ele><time>2026-04-26T10:01:34.11Z</time></trkpt><trkpt lat="44.2762597" lon="11.257802"><ele>648.6666666666667</ele><time>2026-04-26T10:01:35.122Z</time></trkpt><trkpt lat="44.276193" lon="11.2577259"><ele>647.3333333333334</ele><time>2026-04-26T10:01:36.121Z</time></trkpt><trkpt lat="44.276128" lon="11.2576443"><ele>646.0</ele><time>2026-04-26T10:01:37.118Z</time></trkpt><trkpt lat="44.2760622" lon="11.2575604"><ele>646.0</ele><time>2026-04-26T10:01:38.122Z</time></trkpt><trkpt lat="44.2759979" lon="11.2574753"><ele>646.0</ele><time>2026-04-26T10:01:39.115Z</time></trkpt><trkpt lat="44.275934" lon="11.257392"><ele>646.0</ele><time>2026-04-26T10:01:40.107Z</time></trkpt><trkpt lat="44.2758729" lon="11.2573102"><ele>646.0</ele><time>2026-04-26T10:01:41.12Z</time></trkpt><trkpt lat="44.275816" lon="11.2572313"><ele>646.0</ele><time>2026-04-26T10:01:42.115Z</time></trkpt><trkpt lat="44.275762" lon="11.2571555"><ele>646.0</ele><time>2026-04-26T10:01:43.112Z</time></trkpt><trkpt lat="44.2757125" lon="11.2570808"><ele>645.5714285714287</ele><time>2026-04-26T10:01:44.116Z</time></trkpt><trkpt lat="44.2756665" lon="11.2570087"><ele>645.1428571428571</ele><time>2026-04-26T10:01:45.116Z</time></trkpt><trkpt lat="44.275623" lon="11.2569386"><ele>644.7142857142858</ele><time>2026-04-26T10:01:46.112Z</time></trkpt><trkpt lat="44.2755806" lon="11.2568682"><ele>644.2857142857143</ele><time>2026-04-26T10:01:47.118Z</time></trkpt><trkpt lat="44.2755403" lon="11.2567942"><ele>643.8571428571429</ele><time>2026-04-26T10:01:48.109Z</time></trkpt><trkpt lat="44.2755006" lon="11.2567158"><ele>643.4285714285714</ele><time>2026-04-26T10:01:49.115Z</time></trkpt><trkpt lat="44.2754623" lon="11.2566321"><ele>643.0</ele><time>2026-04-26T10:01:50.109Z</time></trkpt><trkpt lat="44.2754233" lon="11.2565497"><ele>644.6666666666667</ele><time>2026-04-26T10:01:51.115Z</time></trkpt><trkpt lat="44.2753856" lon="11.2564704"><ele>646.3333333333334</ele><time>2026-04-26T10:01:52.107Z</time></trkpt><trkpt lat="44.2753499" lon="11.2563922"><ele>648.0</ele><time>2026-04-26T10:01:53.118Z</time></trkpt><trkpt lat="44.2753195" lon="11.2563136"><ele>649.6666666666666</ele><time>2026-04-26T10:01:54.115Z</time></trkpt><trkpt lat="44.2752792" lon="11.2561591"><ele>651.3333333333333</ele><time>2026-04-26T10:01:56.113Z</time></trkpt><trkpt lat="44.275261" lon="11.2560158"><ele>653.0</ele><time>2026-04-26T10:01:58.12Z</time></trkpt><trkpt lat="44.2752461" lon="11.2558868"><ele>653.2</ele><time>2026-04-26T10:02:00.117Z</time></trkpt><trkpt lat="44.2752389" lon="11.2557484"><ele>653.4</ele><time>2026-04-26T10:02:02.11Z</time></trkpt><trkpt lat="44.2752307" lon="11.2556068"><ele>653.6</ele><time>2026-04-26T10:02:04.112Z</time></trkpt><trkpt lat="44.2752205" lon="11.2554585"><ele>653.8000000000001</ele><time>2026-04-26T10:02:06.115Z</time></trkpt><trkpt lat="44.2752116" lon="11.2553069"><ele>654.0</ele><time>2026-04-26T10:02:08.114Z</time></trkpt><trkpt lat="44.2751985" lon="11.2551329"><ele>653.7142857142857</ele><time>2026-04-26T10:02:10.116Z</time></trkpt><trkpt lat="44.2751856" lon="11.2550376"><ele>653.4285714285714</ele><time>2026-04-26T10:02:11.115Z</time></trkpt><trkpt lat="44.2751754" lon="11.2549385"><ele>653.1428571428571</ele><time>2026-04-26T10:02:12.119Z</time></trkpt><trkpt lat="44.2751657" lon="11.2548399"><ele>652.8571428571429</ele><time>2026-04-26T10:02:13.12Z</time></trkpt><trkpt lat="44.2751539" lon="11.2547392"><ele>652.5714285714286</ele><time>2026-04-26T10:02:14.11Z</time></trkpt><trkpt lat="44.2751377" lon="11.2546367"><ele>652.2857142857143</ele><time>2026-04-26T10:02:15.116Z</time></trkpt><trkpt lat="44.2751144" lon="11.2545342"><ele>652.0</ele><time>2026-04-26T10:02:16.115Z</time></trkpt><trkpt lat="44.2750861" lon="11.254433"><ele>650.8333333333334</ele><time>2026-04-26T10:02:17.12Z</time></trkpt><trkpt lat="44.2750512" lon="11.2543306"><ele>649.6666666666667</ele><time>2026-04-26T10:02:18.115Z</time></trkpt><trkpt lat="44.2750095" lon="11.2542277"><ele>648.5</ele><time>2026-04-26T10:02:19.111Z</time></trkpt><trkpt lat="44.2749704" lon="11.2541186"><ele>647.3333333333334</ele><time>2026-04-26T10:02:20.107Z</time></trkpt><trkpt lat="44.2749295" lon="11.2540092"><ele>646.1666666666666</ele><time>2026-04-26T10:02:21.123Z</time></trkpt><trkpt lat="44.2748859" lon="11.2538987"><ele>645.0</ele><time>2026-04-26T10:02:22.121Z</time></trkpt><trkpt lat="44.2748406" lon="11.2537882"><ele>645.8333333333334</ele><time>2026-04-26T10:02:23.117Z</time></trkpt><trkpt lat="44.2747956" lon="11.2536791"><ele>646.6666666666666</ele><time>2026-04-26T10:02:24.116Z</time></trkpt><trkpt lat="44.2747513" lon="11.2535711"><ele>647.5</ele><time>2026-04-26T10:02:25.113Z</time></trkpt><trkpt lat="44.274705" lon="11.2534677"><ele>648.3333333333333</ele><time>2026-04-26T10:02:26.11Z</time></trkpt><trkpt lat="44.274657" lon="11.2533699"><ele>649.1666666666666</ele><time>2026-04-26T10:02:27.116Z</time></trkpt><trkpt lat="44.2746047" lon="11.2532751"><ele>650.0</ele><time>2026-04-26T10:02:28.123Z</time></trkpt><trkpt lat="44.2745431" lon="11.2531938"><ele>650.0</ele><time>2026-04-26T10:02:29.114Z</time></trkpt><trkpt lat="44.2744734" lon="11.2531262"><ele>650.0</ele><time>2026-04-26T10:02:30.114Z</time></trkpt><trkpt lat="44.2743996" lon="11.2530661"><ele>650.0</ele><time>2026-04-26T10:02:31.108Z</time></trkpt><trkpt lat="44.2743244" lon="11.2530075"><ele>650.0</ele><time>2026-04-26T10:02:32.116Z</time></trkpt><trkpt lat="44.2742506" lon="11.2529428"><ele>650.0</ele><time>2026-04-26T10:02:33.113Z</time></trkpt><trkpt lat="44.2741815" lon="11.2528667"><ele>650.0</ele><time>2026-04-26T10:02:34.122Z</time></trkpt><trkpt lat="44.2741166" lon="11.2527825"><ele>650.0</ele><time>2026-04-26T10:02:35.112Z</time></trkpt><trkpt lat="44.2740519" lon="11.2526998"><ele>650.0</ele><time>2026-04-26T10:02:36.111Z</time></trkpt><trkpt lat="44.2739831" lon="11.2526226"><ele>650.0</ele><time>2026-04-26T10:02:37.114Z</time></trkpt><trkpt lat="44.2739103" lon="11.2525538"><ele>650.0</ele><time>2026-04-26T10:02:38.109Z</time></trkpt><trkpt lat="44.2738329" lon="11.2524933"><ele>650.0</ele><time>2026-04-26T10:02:39.112Z</time></trkpt><trkpt lat="44.273753" lon="11.2524359"><ele>650.0</ele><time>2026-04-26T10:02:40.121Z</time></trkpt><trkpt lat="44.2736778" lon="11.2523624"><ele>648.0</ele><time>2026-04-26T10:02:41.115Z</time></trkpt><trkpt lat="44.2736175" lon="11.2522644"><ele>646.0</ele><time>2026-04-26T10:02:42.111Z</time></trkpt><trkpt lat="44.2735783" lon="11.2521492"><ele>644.0</ele><time>2026-04-26T10:02:43.118Z</time></trkpt><trkpt lat="44.2735543" lon="11.2520275"><ele>642.0</ele><time>2026-04-26T10:02:44.116Z</time></trkpt><trkpt lat="44.2735329" lon="11.2519077"><ele>640.0</ele><time>2026-04-26T10:02:45.115Z</time></trkpt><trkpt lat="44.2735112" lon="11.2517886"><ele>640.0</ele><time>2026-04-26T10:02:46.118Z</time></trkpt><trkpt lat="44.2734847" lon="11.2516692"><ele>640.0</ele><time>2026-04-26T10:02:47.115Z</time></trkpt><trkpt lat="44.2734514" lon="11.2515512"><ele>640.0</ele><time>2026-04-26T10:02:48.13Z</time></trkpt><trkpt lat="44.2734155" lon="11.2514318"><ele>640.0</ele><time>2026-04-26T10:02:49.116Z</time></trkpt><trkpt lat="44.2733817" lon="11.2513103"><ele>640.0</ele><time>2026-04-26T10:02:50.125Z</time></trkpt><trkpt lat="44.2733576" lon="11.2511859"><ele>639.1666666666667</ele><time>2026-04-26T10:02:51.124Z</time></trkpt><trkpt lat="44.2733491" lon="11.251061"><ele>638.3333333333334</ele><time>2026-04-26T10:02:52.116Z</time></trkpt><trkpt lat="44.2733568" lon="11.2509406"><ele>637.5</ele><time>2026-04-26T10:02:53.123Z</time></trkpt><trkpt lat="44.2733757" lon="11.250828"><ele>636.6666666666666</ele><time>2026-04-26T10:02:54.117Z</time></trkpt><trkpt lat="44.2733963" lon="11.2507213"><ele>635.8333333333333</ele><time>2026-04-26T10:02:55.112Z</time></trkpt><trkpt lat="44.2734142" lon="11.2506171"><ele>635.0</ele><time>2026-04-26T10:02:56.104Z</time></trkpt><trkpt lat="44.2734269" lon="11.2505115"><ele>635.0</ele><time>2026-04-26T10:02:57.114Z</time></trkpt><trkpt lat="44.2734342" lon="11.2504041"><ele>635.0</ele><time>2026-04-26T10:02:58.113Z</time></trkpt><trkpt lat="44.2734385" lon="11.2502954"><ele>635.0</ele><time>2026-04-26T10:02:59.118Z</time></trkpt><trkpt lat="44.2734372" lon="11.2501857"><ele>635.0</ele><time>2026-04-26T10:03:00.119Z</time></trkpt><trkpt lat="44.2734336" lon="11.2500753"><ele>635.0</ele><time>2026-04-26T10:03:01.118Z</time></trkpt><trkpt lat="44.2734374" lon="11.2499654"><ele>635.0</ele><time>2026-04-26T10:03:02.104Z</time></trkpt><trkpt lat="44.2734519" lon="11.2498596"><ele>636.5</ele><time>2026-04-26T10:03:03.091Z</time></trkpt><trkpt lat="44.2734787" lon="11.2497641"><ele>638.0</ele><time>2026-04-26T10:03:04.122Z</time></trkpt><trkpt lat="44.2735166" lon="11.2496822"><ele>639.5</ele><time>2026-04-26T10:03:05.124Z</time></trkpt><trkpt lat="44.273563" lon="11.249619"><ele>641.0</ele><time>2026-04-26T10:03:06.123Z</time></trkpt><trkpt lat="44.2736634" lon="11.2495456"><ele>642.5</ele><time>2026-04-26T10:03:08.12Z</time></trkpt><trkpt lat="44.2737622" lon="11.2494975"><ele>644.0</ele><time>2026-04-26T10:03:10.12Z</time></trkpt><trkpt lat="44.2738597" lon="11.2494625"><ele>642.6</ele><time>2026-04-26T10:03:12.122Z</time></trkpt><trkpt lat="44.2739594" lon="11.2494472"><ele>641.2</ele><time>2026-04-26T10:03:14.12Z</time></trkpt><trkpt lat="44.2740576" lon="11.2494439"><ele>639.8000000000001</ele><time>2026-04-26T10:03:16.118Z</time></trkpt><trkpt lat="44.2741536" lon="11.2494298"><ele>638.4000000000001</ele><time>2026-04-26T10:03:18.114Z</time></trkpt><trkpt lat="44.2742541" lon="11.2494175"><ele>637.0</ele><time>2026-04-26T10:03:20.119Z</time></trkpt><trkpt lat="44.2743559" lon="11.2493939"><ele>637.0</ele><time>2026-04-26T10:03:22.118Z</time></trkpt><trkpt lat="44.2744501" lon="11.2493393"><ele>637.0</ele><time>2026-04-26T10:03:24.111Z</time></trkpt><trkpt lat="44.2745298" lon="11.2492444"><ele>637.0</ele><time>2026-04-26T10:03:26.117Z</time></trkpt><trkpt lat="44.2745826" lon="11.2491095"><ele>637.0</ele><time>2026-04-26T10:03:28.117Z</time></trkpt><trkpt lat="44.2746066" lon="11.2489591"><ele>637.0</ele><time>2026-04-26T10:03:30.115Z</time></trkpt><trkpt lat="44.2746097" lon="11.2488086"><ele>637.6</ele><time>2026-04-26T10:03:32.115Z</time></trkpt><trkpt lat="44.2745853" lon="11.2486643"><ele>638.2</ele><time>2026-04-26T10:03:34.121Z</time></trkpt><trkpt lat="44.2745474" lon="11.2485267"><ele>638.8</ele><time>2026-04-26T10:03:36.119Z</time></trkpt><trkpt lat="44.2745095" lon="11.2483941"><ele>639.4</ele><time>2026-04-26T10:03:38.109Z</time></trkpt><trkpt lat="44.2744826" lon="11.2482455"><ele>640.0</ele><time>2026-04-26T10:03:40.116Z</time></trkpt><trkpt lat="44.2744617" lon="11.2481013"><ele>640.0</ele><time>2026-04-26T10:03:42.117Z</time></trkpt><trkpt lat="44.2744343" lon="11.2479626"><ele>640.0</ele><time>2026-04-26T10:03:44.12Z</time></trkpt><trkpt lat="44.2744007" lon="11.2478211"><ele>640.0</ele><time>2026-04-26T10:03:46.123Z</time></trkpt><trkpt lat="44.2743566" lon="11.2476878"><ele>640.0</ele><time>2026-04-26T10:03:48.116Z</time></trkpt><trkpt lat="44.2743068" lon="11.2475573"><ele>640.0</ele><time>2026-04-26T10:03:50.118Z</time></trkpt><trkpt lat="44.2742508" lon="11.247442"><ele>640.0</ele><time>2026-04-26T10:03:52.109Z</time></trkpt><trkpt lat="44.2741962" lon="11.2473298"><ele>640.0</ele><time>2026-04-26T10:03:54.12Z</time></trkpt><trkpt lat="44.2741455" lon="11.2472196"><ele>640.0</ele><time>2026-04-26T10:03:56.119Z</time></trkpt><trkpt lat="44.2740989" lon="11.2471118"><ele>640.0</ele><time>2026-04-26T10:03:58.116Z</time></trkpt><trkpt lat="44.2740541" lon="11.2470046"><ele>640.0</ele><time>2026-04-26T10:04:00.116Z</time></trkpt><trkpt lat="44.2740131" lon="11.2468933"><ele>639.2</ele><time>2026-04-26T10:04:02.115Z</time></trkpt><trkpt lat="44.2739757" lon="11.246781"><ele>638.4</ele><time>2026-04-26T10:04:04.117Z</time></trkpt><trkpt lat="44.2739451" lon="11.2466628"><ele>637.6</ele><time>2026-04-26T10:04:06.111Z</time></trkpt><trkpt lat="44.273926" lon="11.2465359"><ele>636.8</ele><time>2026-04-26T10:04:08.112Z</time></trkpt><trkpt lat="44.2739172" lon="11.2464014"><ele>636.0</ele><time>2026-04-26T10:04:10.116Z</time></trkpt><trkpt lat="44.2739173" lon="11.2462691"><ele>641.6</ele><time>2026-04-26T10:04:12.11Z</time></trkpt><trkpt lat="44.2739184" lon="11.2461405"><ele>647.2</ele><time>2026-04-26T10:04:14.121Z</time></trkpt><trkpt lat="44.2739149" lon="11.2460068"><ele>652.8000000000001</ele><time>2026-04-26T10:04:16.117Z</time></trkpt><trkpt lat="44.2738912" lon="11.2458819"><ele>658.4000000000001</ele><time>2026-04-26T10:04:18.115Z</time></trkpt><trkpt lat="44.2738499" lon="11.2457637"><ele>664.0</ele><time>2026-04-26T10:04:20.109Z</time></trkpt><trkpt lat="44.2737985" lon="11.2456658"><ele>661.8000000000001</ele><time>2026-04-26T10:04:22.114Z</time></trkpt><trkpt lat="44.2737392" lon="11.2455755"><ele>659.6</ele><time>2026-04-26T10:04:24.095Z</time></trkpt><trkpt lat="44.2736747" lon="11.245489"><ele>657.4</ele><time>2026-04-26T10:04:26.122Z</time></trkpt><trkpt lat="44.2736102" lon="11.2453888"><ele>655.2</ele><time>2026-04-26T10:04:28.125Z</time></trkpt><trkpt lat="44.2735612" lon="11.245269"><ele>653.0</ele><time>2026-04-26T10:04:30.119Z</time></trkpt><trkpt lat="44.2735315" lon="11.24514"><ele>653.0</ele><time>2026-04-26T10:04:32.119Z</time></trkpt><trkpt lat="44.2735105" lon="11.2450039"><ele>653.0</ele><time>2026-04-26T10:04:34.118Z</time></trkpt><trkpt lat="44.2734903" lon="11.2448647"><ele>653.0</ele><time>2026-04-26T10:04:36.115Z</time></trkpt><trkpt lat="44.2734647" lon="11.2447323"><ele>653.0</ele><time>2026-04-26T10:04:38.115Z</time></trkpt><trkpt lat="44.2734308" lon="11.2446057"><ele>653.0</ele><time>2026-04-26T10:04:40.113Z</time></trkpt><trkpt lat="44.2733899" lon="11.2444812"><ele>654.4</ele><time>2026-04-26T10:04:42.113Z</time></trkpt><trkpt lat="44.2733358" lon="11.2443687"><ele>655.8</ele><time>2026-04-26T10:04:44.117Z</time></trkpt><trkpt lat="44.2732685" lon="11.244272"><ele>657.2</ele><time>2026-04-26T10:04:46.109Z</time></trkpt><trkpt lat="44.2732008" lon="11.2441715"><ele>658.6</ele><time>2026-04-26T10:04:48.12Z</time></trkpt><trkpt lat="44.273131" lon="11.2440677"><ele>660.0</ele><time>2026-04-26T10:04:50.113Z</time></trkpt><trkpt lat="44.2730585" lon="11.2439764"><ele>656.8</ele><time>2026-04-26T10:04:52.119Z</time></trkpt><trkpt lat="44.2729805" lon="11.2438895"><ele>653.6</ele><time>2026-04-26T10:04:54.115Z</time></trkpt><trkpt lat="44.2729019" lon="11.2437929"><ele>650.4000000000001</ele><time>2026-04-26T10:04:56.116Z</time></trkpt><trkpt lat="44.2728145" lon="11.2437003"><ele>647.2</ele><time>2026-04-26T10:04:58.123Z</time></trkpt><trkpt lat="44.2727189" lon="11.2436176"><ele>644.0</ele><time>2026-04-26T10:05:00.112Z</time></trkpt><trkpt lat="44.2726193" lon="11.2435321"><ele>644.0</ele><time>2026-04-26T10:05:02.12Z</time></trkpt><trkpt lat="44.2725185" lon="11.2434538"><ele>644.0</ele><time>2026-04-26T10:05:04.12Z</time></trkpt><trkpt lat="44.2724176" lon="11.2433796"><ele>644.0</ele><time>2026-04-26T10:05:06.112Z</time></trkpt><trkpt lat="44.2723175" lon="11.2432926"><ele>644.0</ele><time>2026-04-26T10:05:08.119Z</time></trkpt><trkpt lat="44.2722151" lon="11.2431919"><ele>644.0</ele><time>2026-04-26T10:05:10.117Z</time></trkpt><trkpt lat="44.2721174" lon="11.2430888"><ele>644.0</ele><time>2026-04-26T10:05:12.114Z</time></trkpt><trkpt lat="44.272069" lon="11.2430301"><ele>644.0</ele><time>2026-04-26T10:05:13.114Z</time></trkpt><trkpt lat="44.2720223" lon="11.2429679"><ele>644.0</ele><time>2026-04-26T10:05:14.12Z</time></trkpt><trkpt lat="44.2719764" lon="11.2429031"><ele>644.0</ele><time>2026-04-26T10:05:15.112Z</time></trkpt><trkpt lat="44.2719279" lon="11.2428353"><ele>644.0</ele><time>2026-04-26T10:05:16.116Z</time></trkpt><trkpt lat="44.2718768" lon="11.2427645"><ele>644.0</ele><time>2026-04-26T10:05:17.116Z</time></trkpt><trkpt lat="44.2718241" lon="11.242688"><ele>644.0</ele><time>2026-04-26T10:05:18.117Z</time></trkpt><trkpt lat="44.2717704" lon="11.2426078"><ele>644.0</ele><time>2026-04-26T10:05:19.119Z</time></trkpt><trkpt lat="44.271715" lon="11.2425232"><ele>644.0</ele><time>2026-04-26T10:05:20.118Z</time></trkpt><trkpt lat="44.2716602" lon="11.2424328"><ele>644.0</ele><time>2026-04-26T10:05:21.111Z</time></trkpt><trkpt lat="44.2716069" lon="11.2423375"><ele>644.0</ele><time>2026-04-26T10:05:22.104Z</time></trkpt><trkpt lat="44.2715541" lon="11.242242"><ele>643.3333333333333</ele><time>2026-04-26T10:05:23.115Z</time></trkpt><trkpt lat="44.2715028" lon="11.2421478"><ele>642.6666666666666</ele><time>2026-04-26T10:05:24.114Z</time></trkpt><trkpt lat="44.2714525" lon="11.2420552"><ele>642.0</ele><time>2026-04-26T10:05:25.109Z</time></trkpt><trkpt lat="44.2713969" lon="11.2419708"><ele>641.3333333333334</ele><time>2026-04-26T10:05:26.121Z</time></trkpt><trkpt lat="44.2713351" lon="11.241897"><ele>640.6666666666667</ele><time>2026-04-26T10:05:27.11Z</time></trkpt><trkpt lat="44.2712688" lon="11.2418329"><ele>640.0</ele><time>2026-04-26T10:05:28.122Z</time></trkpt><trkpt lat="44.2711989" lon="11.2417742"><ele>640.0</ele><time>2026-04-26T10:05:29.116Z</time></trkpt><trkpt lat="44.2711289" lon="11.2417138"><ele>640.0</ele><time>2026-04-26T10:05:30.119Z</time></trkpt><trkpt lat="44.2710626" lon="11.241647"><ele>640.0</ele><time>2026-04-26T10:05:31.112Z</time></trkpt><trkpt lat="44.2710143" lon="11.241557"><ele>640.0</ele><time>2026-04-26T10:05:32.12Z</time></trkpt><trkpt lat="44.2709963" lon="11.2414492"><ele>640.0</ele><time>2026-04-26T10:05:33.121Z</time></trkpt><trkpt lat="44.2710052" lon="11.241343"><ele>640.0</ele><time>2026-04-26T10:05:34.116Z</time></trkpt><trkpt lat="44.2710301" lon="11.2412452"><ele>640.1428571428571</ele><time>2026-04-26T10:05:35.116Z</time></trkpt><trkpt lat="44.2710586" lon="11.2411518"><ele>640.2857142857143</ele><time>2026-04-26T10:05:36.101Z</time></trkpt><trkpt lat="44.2710856" lon="11.2410592"><ele>640.4285714285714</ele><time>2026-04-26T10:05:37.113Z</time></trkpt><trkpt lat="44.2711131" lon="11.240965"><ele>640.5714285714286</ele><time>2026-04-26T10:05:38.123Z</time></trkpt><trkpt lat="44.2711418" lon="11.2408693"><ele>640.7142857142857</ele><time>2026-04-26T10:05:39.105Z</time></trkpt><trkpt lat="44.2711655" lon="11.2407721"><ele>640.8571428571429</ele><time>2026-04-26T10:05:40.119Z</time></trkpt><trkpt lat="44.2711925" lon="11.2406736"><ele>641.0</ele><time>2026-04-26T10:05:41.113Z</time></trkpt><trkpt lat="44.2712232" lon="11.2405784"><ele>640.6666666666666</ele><time>2026-04-26T10:05:42.115Z</time></trkpt><trkpt lat="44.2712511" lon="11.2404829"><ele>640.3333333333333</ele><time>2026-04-26T10:05:43.11Z</time></trkpt><trkpt lat="44.2712773" lon="11.2403857"><ele>640.0</ele><time>2026-04-26T10:05:44.115Z</time></trkpt><trkpt lat="44.2713041" lon="11.2402865"><ele>639.6666666666666</ele><time>2026-04-26T10:05:45.1Z</time></trkpt><trkpt lat="44.2713266" lon="11.2401859"><ele>639.3333333333334</ele><time>2026-04-26T10:05:46.115Z</time></trkpt><trkpt lat="44.2713394" lon="11.2400818"><ele>639.0</ele><time>2026-04-26T10:05:47.125Z</time></trkpt><trkpt lat="44.271339" lon="11.2399758"><ele>639.0000000000001</ele><time>2026-04-26T10:05:48.108Z</time></trkpt><trkpt lat="44.2713258" lon="11.2398726"><ele>639.0</ele><time>2026-04-26T10:05:49.112Z</time></trkpt><trkpt lat="44.2713008" lon="11.2397753"><ele>639.0</ele><time>2026-04-26T10:05:50.116Z</time></trkpt><trkpt lat="44.2712738" lon="11.2396812"><ele>639.0</ele><time>2026-04-26T10:05:51.11Z</time></trkpt><trkpt lat="44.2712455" lon="11.2395907"><ele>639.0</ele><time>2026-04-26T10:05:52.116Z</time></trkpt><trkpt lat="44.2712151" lon="11.2395073"><ele>639.0000000000001</ele><time>2026-04-26T10:05:53.126Z</time></trkpt><trkpt lat="44.2711853" lon="11.2394295"><ele>639.0</ele><time>2026-04-26T10:05:54.115Z</time></trkpt><trkpt lat="44.2711356" lon="11.2392992"><ele>638.6666666666666</ele><time>2026-04-26T10:05:56.112Z</time></trkpt><trkpt lat="44.2710979" lon="11.239206"><ele>638.3333333333334</ele><time>2026-04-26T10:05:58.109Z</time></trkpt><trkpt lat="44.2710563" lon="11.2391141"><ele>638.0</ele><time>2026-04-26T10:06:01.113Z</time></trkpt><trkpt lat="44.2710044" lon="11.2390077"><ele>637.6666666666667</ele><time>2026-04-26T10:06:04.115Z</time></trkpt><trkpt lat="44.2709568" lon="11.238922"><ele>637.3333333333334</ele><time>2026-04-26T10:06:06.114Z</time></trkpt><trkpt lat="44.2709027" lon="11.2388068"><ele>637.0</ele><time>2026-04-26T10:06:08.115Z</time></trkpt><trkpt lat="44.2708605" lon="11.2387115"><ele>636.3333333333334</ele><time>2026-04-26T10:06:10.114Z</time></trkpt><trkpt lat="44.2708099" lon="11.2386087"><ele>635.6666666666667</ele><time>2026-04-26T10:06:13.121Z</time></trkpt><trkpt lat="44.2707638" lon="11.2385324"><ele>635.0</ele><time>2026-04-26T10:06:15.124Z</time></trkpt><trkpt lat="44.270697" lon="11.2384589"><ele>634.3333333333334</ele><time>2026-04-26T10:06:18.114Z</time></trkpt><trkpt lat="44.2706285" lon="11.2384769"><ele>633.6666666666666</ele><time>2026-04-26T10:08:06.109Z</time></trkpt><trkpt lat="44.2705012" lon="11.238505"><ele>633.0</ele><time>2026-04-26T10:08:10.117Z</time></trkpt><trkpt lat="44.2703916" lon="11.2385575"><ele>631.8333333333334</ele><time>2026-04-26T10:08:11.125Z</time></trkpt><trkpt lat="44.2703326" lon="11.2386135"><ele>630.6666666666666</ele><time>2026-04-26T10:08:12.122Z</time></trkpt><trkpt lat="44.2702706" lon="11.2387224"><ele>629.5</ele><time>2026-04-26T10:08:14.122Z</time></trkpt><trkpt lat="44.270231" lon="11.2388356"><ele>628.3333333333333</ele><time>2026-04-26T10:08:16.106Z</time></trkpt><trkpt lat="44.2701827" lon="11.2389817"><ele>627.1666666666666</ele><time>2026-04-26T10:08:18.133Z</time></trkpt><trkpt lat="44.2701435" lon="11.2390575"><ele>626.0</ele><time>2026-04-26T10:08:19.117Z</time></trkpt><trkpt lat="44.2700904" lon="11.2391296"><ele>626.0</ele><time>2026-04-26T10:08:20.118Z</time></trkpt><trkpt lat="44.2700259" lon="11.2391953"><ele>626.0</ele><time>2026-04-26T10:08:21.125Z</time></trkpt><trkpt lat="44.2699539" lon="11.2392581"><ele>626.0</ele><time>2026-04-26T10:08:22.118Z</time></trkpt><trkpt lat="44.2698808" lon="11.2393237"><ele>626.0</ele><time>2026-04-26T10:08:23.118Z</time></trkpt><trkpt lat="44.269817" lon="11.2393912"><ele>626.0</ele><time>2026-04-26T10:08:24.118Z</time></trkpt><trkpt lat="44.2697602" lon="11.2394616"><ele>626.0</ele><time>2026-04-26T10:08:25.117Z</time></trkpt><trkpt lat="44.2697015" lon="11.2395355"><ele>623.8333333333333</ele><time>2026-04-26T10:08:26.117Z</time></trkpt><trkpt lat="44.2696361" lon="11.2396007"><ele>621.6666666666666</ele><time>2026-04-26T10:08:27.114Z</time></trkpt><trkpt lat="44.2695618" lon="11.2396374"><ele>619.5</ele><time>2026-04-26T10:08:28.114Z</time></trkpt><trkpt lat="44.2694812" lon="11.2396345"><ele>617.3333333333334</ele><time>2026-04-26T10:08:29.114Z</time></trkpt><trkpt lat="44.2694011" lon="11.2395948"><ele>615.1666666666667</ele><time>2026-04-26T10:08:30.113Z</time></trkpt><trkpt lat="44.2693236" lon="11.2395433"><ele>613.0</ele><time>2026-04-26T10:08:31.121Z</time></trkpt><trkpt lat="44.2692434" lon="11.2395085"><ele>613.0</ele><time>2026-04-26T10:08:32.116Z</time></trkpt><trkpt lat="44.2691607" lon="11.2395094"><ele>613.0</ele><time>2026-04-26T10:08:33.116Z</time></trkpt><trkpt lat="44.2690828" lon="11.2395532"><ele>613.0</ele><time>2026-04-26T10:08:34.103Z</time></trkpt><trkpt lat="44.2690149" lon="11.2396336"><ele>613.0</ele><time>2026-04-26T10:08:35.114Z</time></trkpt><trkpt lat="44.2689605" lon="11.239744"><ele>613.0</ele><time>2026-04-26T10:08:36.118Z</time></trkpt><trkpt lat="44.2689113" lon="11.2398546"><ele>613.0</ele><time>2026-04-26T10:08:37.112Z</time></trkpt><trkpt lat="44.268862" lon="11.2399621"><ele>612.3333333333334</ele><time>2026-04-26T10:08:38.129Z</time></trkpt><trkpt lat="44.2688119" lon="11.2400658"><ele>611.6666666666667</ele><time>2026-04-26T10:08:39.112Z</time></trkpt><trkpt lat="44.2687613" lon="11.2401707"><ele>611.0</ele><time>2026-04-26T10:08:40.12Z</time></trkpt><trkpt lat="44.2687126" lon="11.240277"><ele>610.3333333333334</ele><time>2026-04-26T10:08:41.129Z</time></trkpt><trkpt lat="44.2686672" lon="11.2403844"><ele>609.6666666666666</ele><time>2026-04-26T10:08:42.127Z</time></trkpt><trkpt lat="44.2686235" lon="11.2404917"><ele>609.0</ele><time>2026-04-26T10:08:43.121Z</time></trkpt><trkpt lat="44.2685793" lon="11.2405974"><ele>610.5714285714286</ele><time>2026-04-26T10:08:44.12Z</time></trkpt><trkpt lat="44.2685298" lon="11.2406831"><ele>612.1428571428571</ele><time>2026-04-26T10:08:45.117Z</time></trkpt><trkpt lat="44.2684746" lon="11.2407415"><ele>613.7142857142858</ele><time>2026-04-26T10:08:46.121Z</time></trkpt><trkpt lat="44.268412" lon="11.2407777"><ele>615.2857142857142</ele><time>2026-04-26T10:08:47.101Z</time></trkpt><trkpt lat="44.2683436" lon="11.2407925"><ele>616.8571428571429</ele><time>2026-04-26T10:08:48.127Z</time></trkpt><trkpt lat="44.2682743" lon="11.2407801"><ele>618.4285714285714</ele><time>2026-04-26T10:08:49.117Z</time></trkpt><trkpt lat="44.2682123" lon="11.2407365"><ele>620.0</ele><time>2026-04-26T10:08:50.124Z</time></trkpt><trkpt lat="44.2681647" lon="11.2406657"><ele>618.4285714285714</ele><time>2026-04-26T10:08:51.122Z</time></trkpt><trkpt lat="44.2681235" lon="11.2405883"><ele>616.8571428571429</ele><time>2026-04-26T10:08:52.124Z</time></trkpt><trkpt lat="44.2680744" lon="11.2405225"><ele>615.2857142857142</ele><time>2026-04-26T10:08:53.121Z</time></trkpt><trkpt lat="44.2680115" lon="11.2404769"><ele>613.7142857142858</ele><time>2026-04-26T10:08:54.117Z</time></trkpt><trkpt lat="44.267942" lon="11.2404392"><ele>612.1428571428571</ele><time>2026-04-26T10:08:55.119Z</time></trkpt><trkpt lat="44.2678684" lon="11.2404139"><ele>610.5714285714286</ele><time>2026-04-26T10:08:56.121Z</time></trkpt><trkpt lat="44.2677946" lon="11.2403985"><ele>609.0</ele><time>2026-04-26T10:08:57.119Z</time></trkpt><trkpt lat="44.2677208" lon="11.2403891"><ele>609.0</ele><time>2026-04-26T10:08:58.125Z</time></trkpt><trkpt lat="44.2676462" lon="11.2403854"><ele>609.0</ele><time>2026-04-26T10:08:59.113Z</time></trkpt><trkpt lat="44.2675704" lon="11.2403902"><ele>609.0</ele><time>2026-04-26T10:09:00.118Z</time></trkpt><trkpt lat="44.2674948" lon="11.2403985"><ele>609.0</ele><time>2026-04-26T10:09:01.12Z</time></trkpt><trkpt lat="44.2674179" lon="11.2404064"><ele>609.0</ele><time>2026-04-26T10:09:02.12Z</time></trkpt><trkpt lat="44.2673407" lon="11.240417"><ele>609.0</ele><time>2026-04-26T10:09:03.125Z</time></trkpt><trkpt lat="44.2672654" lon="11.2404341"><ele>609.1428571428571</ele><time>2026-04-26T10:09:04.114Z</time></trkpt><trkpt lat="44.2671939" lon="11.2404558"><ele>609.2857142857142</ele><time>2026-04-26T10:09:05.117Z</time></trkpt><trkpt lat="44.267124" lon="11.2404807"><ele>609.4285714285714</ele><time>2026-04-26T10:09:06.118Z</time></trkpt><trkpt lat="44.2670534" lon="11.2405062"><ele>609.5714285714286</ele><time>2026-04-26T10:09:07.13Z</time></trkpt><trkpt lat="44.2669866" lon="11.2405376"><ele>609.7142857142857</ele><time>2026-04-26T10:09:08.126Z</time></trkpt><trkpt lat="44.2669258" lon="11.2405827"><ele>609.8571428571429</ele><time>2026-04-26T10:09:09.12Z</time></trkpt><trkpt lat="44.266873" lon="11.2406414"><ele>610.0</ele><time>2026-04-26T10:09:10.12Z</time></trkpt><trkpt lat="44.2668285" lon="11.2407117"><ele>610.0</ele><time>2026-04-26T10:09:11.121Z</time></trkpt><trkpt lat="44.2667946" lon="11.240792"><ele>610.0</ele><time>2026-04-26T10:09:12.133Z</time></trkpt><trkpt lat="44.2667686" lon="11.2408772"><ele>610.0</ele><time>2026-04-26T10:09:13.124Z</time></trkpt><trkpt lat="44.2667407" lon="11.2409648"><ele>610.0</ele><time>2026-04-26T10:09:14.123Z</time></trkpt><trkpt lat="44.2667023" lon="11.241049"><ele>610.0</ele><time>2026-04-26T10:09:15.119Z</time></trkpt><trkpt lat="44.2666475" lon="11.2411107"><ele>610.0</ele><time>2026-04-26T10:09:16.119Z</time></trkpt><trkpt lat="44.2665802" lon="11.2411378"><ele>610.0</ele><time>2026-04-26T10:09:17.117Z</time></trkpt><trkpt lat="44.2665127" lon="11.2411384"><ele>610.0</ele><time>2026-04-26T10:09:18.123Z</time></trkpt><trkpt lat="44.2664464" lon="11.2411246"><ele>610.0</ele><time>2026-04-26T10:09:19.13Z</time></trkpt><trkpt lat="44.26638" lon="11.2411104"><ele>610.0</ele><time>2026-04-26T10:09:20.118Z</time></trkpt><trkpt lat="44.2663139" lon="11.2410985"><ele>610.0</ele><time>2026-04-26T10:09:21.124Z</time></trkpt><trkpt lat="44.2662475" lon="11.2410911"><ele>610.0</ele><time>2026-04-26T10:09:22.123Z</time></trkpt><trkpt lat="44.26618" lon="11.2410951"><ele>610.0</ele><time>2026-04-26T10:09:23.123Z</time></trkpt><trkpt lat="44.2661123" lon="11.2411083"><ele>610.0</ele><time>2026-04-26T10:09:24.125Z</time></trkpt><trkpt lat="44.266043" lon="11.2411316"><ele>609.8333333333334</ele><time>2026-04-26T10:09:25.114Z</time></trkpt><trkpt lat="44.2659715" lon="11.2411612"><ele>609.6666666666667</ele><time>2026-04-26T10:09:26.111Z</time></trkpt><trkpt lat="44.2658981" lon="11.2411896"><ele>609.5</ele><time>2026-04-26T10:09:27.118Z</time></trkpt><trkpt lat="44.2658234" lon="11.2412206"><ele>609.3333333333334</ele><time>2026-04-26T10:09:28.113Z</time></trkpt><trkpt lat="44.2657466" lon="11.2412498"><ele>609.1666666666666</ele><time>2026-04-26T10:09:29.118Z</time></trkpt><trkpt lat="44.2656664" lon="11.2412631"><ele>609.0</ele><time>2026-04-26T10:09:30.115Z</time></trkpt><trkpt lat="44.2655855" lon="11.241248"><ele>609.0</ele><time>2026-04-26T10:09:31.115Z</time></trkpt><trkpt lat="44.2655076" lon="11.2412115"><ele>609.0</ele><time>2026-04-26T10:09:32.126Z</time></trkpt><trkpt lat="44.2654337" lon="11.2411584"><ele>609.0</ele><time>2026-04-26T10:09:33.115Z</time></trkpt><trkpt lat="44.2653621" lon="11.2410951"><ele>609.0</ele><time>2026-04-26T10:09:34.117Z</time></trkpt><trkpt lat="44.265292" lon="11.2410299"><ele>609.0</ele><time>2026-04-26T10:09:35.131Z</time></trkpt><trkpt lat="44.2652235" lon="11.2409663"><ele>609.0</ele><time>2026-04-26T10:09:36.124Z</time></trkpt><trkpt lat="44.2651576" lon="11.2409013"><ele>609.0</ele><time>2026-04-26T10:09:37.119Z</time></trkpt><trkpt lat="44.2650936" lon="11.2408375"><ele>609.0</ele><time>2026-04-26T10:09:38.12Z</time></trkpt><trkpt lat="44.2650288" lon="11.2407771"><ele>609.0</ele><time>2026-04-26T10:09:39.119Z</time></trkpt><trkpt lat="44.2649615" lon="11.2407266"><ele>609.0</ele><time>2026-04-26T10:09:40.124Z</time></trkpt><trkpt lat="44.2648928" lon="11.2406863"><ele>609.0</ele><time>2026-04-26T10:09:41.121Z</time></trkpt><trkpt lat="44.264822" lon="11.2406502"><ele>609.0</ele><time>2026-04-26T10:09:42.118Z</time></trkpt><trkpt lat="44.2647518" lon="11.2406144"><ele>607.8571428571429</ele><time>2026-04-26T10:09:43.117Z</time></trkpt><trkpt lat="44.2646804" lon="11.2405814"><ele>606.7142857142858</ele><time>2026-04-26T10:09:44.118Z</time></trkpt><trkpt lat="44.2646081" lon="11.2405573"><ele>605.5714285714286</ele><time>2026-04-26T10:09:45.12Z</time></trkpt><trkpt lat="44.2645378" lon="11.240541"><ele>604.4285714285714</ele><time>2026-04-26T10:09:46.121Z</time></trkpt><trkpt lat="44.2644677" lon="11.2405339"><ele>603.2857142857143</ele><time>2026-04-26T10:09:47.112Z</time></trkpt><trkpt lat="44.264399" lon="11.2405334"><ele>602.1428571428571</ele><time>2026-04-26T10:09:48.122Z</time></trkpt><trkpt lat="44.2643294" lon="11.2405397"><ele>601.0</ele><time>2026-04-26T10:09:49.115Z</time></trkpt><trkpt lat="44.2642578" lon="11.2405462"><ele>601.0</ele><time>2026-04-26T10:09:50.111Z</time></trkpt><trkpt lat="44.2641828" lon="11.2405472"><ele>601.0</ele><time>2026-04-26T10:09:51.12Z</time></trkpt><trkpt lat="44.2641057" lon="11.2405415"><ele>601.0</ele><time>2026-04-26T10:09:52.107Z</time></trkpt><trkpt lat="44.264027" lon="11.2405311"><ele>601.0</ele><time>2026-04-26T10:09:53.128Z</time></trkpt><trkpt lat="44.2639465" lon="11.240516"><ele>601.0</ele><time>2026-04-26T10:09:54.125Z</time></trkpt><trkpt lat="44.2638645" lon="11.2404968"><ele>601.0</ele><time>2026-04-26T10:09:55.12Z</time></trkpt><trkpt lat="44.2637809" lon="11.2404759"><ele>601.3333333333334</ele><time>2026-04-26T10:09:56.116Z</time></trkpt><trkpt lat="44.2636962" lon="11.2404531"><ele>601.6666666666667</ele><time>2026-04-26T10:09:57.121Z</time></trkpt><trkpt lat="44.2636107" lon="11.2404283"><ele>602.0</ele><time>2026-04-26T10:09:58.118Z</time></trkpt><trkpt lat="44.2635257" lon="11.2404017"><ele>602.3333333333334</ele><time>2026-04-26T10:09:59.118Z</time></trkpt><trkpt lat="44.2634402" lon="11.2403779"><ele>602.6666666666666</ele><time>2026-04-26T10:10:00.121Z</time></trkpt><trkpt lat="44.2633535" lon="11.2403628"><ele>603.0</ele><time>2026-04-26T10:10:01.118Z</time></trkpt><trkpt lat="44.2632649" lon="11.2403616"><ele>603.0</ele><time>2026-04-26T10:10:02.121Z</time></trkpt><trkpt lat="44.2631737" lon="11.2403681"><ele>603.0</ele><time>2026-04-26T10:10:03.117Z</time></trkpt><trkpt lat="44.2630802" lon="11.2403744"><ele>603.0</ele><time>2026-04-26T10:10:04.124Z</time></trkpt><trkpt lat="44.2629848" lon="11.2403742"><ele>603.0</ele><time>2026-04-26T10:10:05.13Z</time></trkpt><trkpt lat="44.2628881" lon="11.2403734"><ele>603.0</ele><time>2026-04-26T10:10:06.116Z</time></trkpt><trkpt lat="44.2627951" lon="11.2403366"><ele>602.0</ele><time>2026-04-26T10:10:07.121Z</time></trkpt><trkpt lat="44.2627025" lon="11.2402938"><ele>601.0</ele><time>2026-04-26T10:10:08.124Z</time></trkpt><trkpt lat="44.2626128" lon="11.2402519"><ele>600.0</ele><time>2026-04-26T10:10:09.115Z</time></trkpt><trkpt lat="44.2625227" lon="11.2402083"><ele>599.0</ele><time>2026-04-26T10:10:10.116Z</time></trkpt><trkpt lat="44.2624342" lon="11.2401621"><ele>598.0</ele><time>2026-04-26T10:10:11.13Z</time></trkpt><trkpt lat="44.2623463" lon="11.2401152"><ele>600.1999999999999</ele><time>2026-04-26T10:10:12.119Z</time></trkpt><trkpt lat="44.2622588" lon="11.2400683"><ele>602.4</ele><time>2026-04-26T10:10:13.125Z</time></trkpt><trkpt lat="44.2621746" lon="11.2400209"><ele>604.5999999999999</ele><time>2026-04-26T10:10:14.119Z</time></trkpt><trkpt lat="44.2620895" lon="11.2399746"><ele>606.8</ele><time>2026-04-26T10:10:15.123Z</time></trkpt><trkpt lat="44.2620068" lon="11.2399206"><ele>609.0</ele><time>2026-04-26T10:10:16.122Z</time></trkpt><trkpt lat="44.2619306" lon="11.2398531"><ele>606.3333333333334</ele><time>2026-04-26T10:10:17.119Z</time></trkpt><trkpt lat="44.2618622" lon="11.2397743"><ele>603.6666666666666</ele><time>2026-04-26T10:10:18.123Z</time></trkpt><trkpt lat="44.2617972" lon="11.2396913"><ele>601.0</ele><time>2026-04-26T10:10:19.12Z</time></trkpt><trkpt lat="44.2617338" lon="11.2396057"><ele>598.3333333333333</ele><time>2026-04-26T10:10:20.124Z</time></trkpt><trkpt lat="44.2616672" lon="11.2395214"><ele>595.6666666666666</ele><time>2026-04-26T10:10:21.117Z</time></trkpt><trkpt lat="44.261598" lon="11.2394439"><ele>593.0</ele><time>2026-04-26T10:10:22.106Z</time></trkpt><trkpt lat="44.2615268" lon="11.2393758"><ele>593.0</ele><time>2026-04-26T10:10:23.124Z</time></trkpt><trkpt lat="44.261454" lon="11.239317"><ele>593.0</ele><time>2026-04-26T10:10:24.134Z</time></trkpt><trkpt lat="44.2613792" lon="11.2392632"><ele>593.0</ele><time>2026-04-26T10:10:25.118Z</time></trkpt><trkpt lat="44.2613033" lon="11.2392165"><ele>593.0</ele><time>2026-04-26T10:10:26.104Z</time></trkpt><trkpt lat="44.2612284" lon="11.2391741"><ele>593.0</ele><time>2026-04-26T10:10:27.119Z</time></trkpt><trkpt lat="44.2611533" lon="11.2391345"><ele>593.0</ele><time>2026-04-26T10:10:28.121Z</time></trkpt><trkpt lat="44.2610808" lon="11.2390975"><ele>591.9999999999999</ele><time>2026-04-26T10:10:29.112Z</time></trkpt><trkpt lat="44.261009" lon="11.2390638"><ele>591.0</ele><time>2026-04-26T10:10:30.114Z</time></trkpt><trkpt lat="44.2609372" lon="11.2390317"><ele>590.0</ele><time>2026-04-26T10:10:31.122Z</time></trkpt><trkpt lat="44.2608661" lon="11.2390006"><ele>589.0</ele><time>2026-04-26T10:10:32.115Z</time></trkpt><trkpt lat="44.2607953" lon="11.2389689"><ele>588.0</ele><time>2026-04-26T10:10:33.113Z</time></trkpt><trkpt lat="44.260725" lon="11.2389379"><ele>586.9999999999999</ele><time>2026-04-26T10:10:34.128Z</time></trkpt><trkpt lat="44.2606588" lon="11.2388985"><ele>586.0</ele><time>2026-04-26T10:10:35.118Z</time></trkpt><trkpt lat="44.2605948" lon="11.2388534"><ele>589.4</ele><time>2026-04-26T10:10:36.118Z</time></trkpt><trkpt lat="44.2605391" lon="11.2388048"><ele>592.8</ele><time>2026-04-26T10:10:37.123Z</time></trkpt><trkpt lat="44.2604471" lon="11.2387023"><ele>596.1999999999999</ele><time>2026-04-26T10:10:39.121Z</time></trkpt><trkpt lat="44.2603667" lon="11.2386211"><ele>599.6</ele><time>2026-04-26T10:10:41.115Z</time></trkpt><trkpt lat="44.2602904" lon="11.2385544"><ele>603.0</ele><time>2026-04-26T10:10:43.119Z</time></trkpt><trkpt lat="44.2602076" lon="11.2385073"><ele>603.0</ele><time>2026-04-26T10:10:45.113Z</time></trkpt><trkpt lat="44.2601187" lon="11.2384733"><ele>603.0</ele><time>2026-04-26T10:10:47.114Z</time></trkpt><trkpt lat="44.2600285" lon="11.2384467"><ele>603.0</ele><time>2026-04-26T10:10:49.117Z</time></trkpt><trkpt lat="44.2599347" lon="11.2384279"><ele>603.0</ele><time>2026-04-26T10:10:51.12Z</time></trkpt><trkpt lat="44.2598376" lon="11.2384191"><ele>603.0</ele><time>2026-04-26T10:10:53.127Z</time></trkpt><trkpt lat="44.2597416" lon="11.2384064"><ele>602.8333333333334</ele><time>2026-04-26T10:10:55.121Z</time></trkpt><trkpt lat="44.2596434" lon="11.2383981"><ele>602.6666666666666</ele><time>2026-04-26T10:10:57.12Z</time></trkpt><trkpt lat="44.2595508" lon="11.2384117"><ele>602.5</ele><time>2026-04-26T10:10:59.115Z</time></trkpt><trkpt lat="44.2594749" lon="11.2384584"><ele>602.3333333333333</ele><time>2026-04-26T10:11:01.114Z</time></trkpt><trkpt lat="44.2594084" lon="11.2385269"><ele>602.1666666666666</ele><time>2026-04-26T10:11:03.141Z</time></trkpt><trkpt lat="44.2593478" lon="11.2386103"><ele>602.0</ele><time>2026-04-26T10:11:05.123Z</time></trkpt><trkpt lat="44.2592846" lon="11.2386929"><ele>602.0</ele><time>2026-04-26T10:11:07.111Z</time></trkpt><trkpt lat="44.2592102" lon="11.2387633"><ele>602.0</ele><time>2026-04-26T10:11:09.115Z</time></trkpt><trkpt lat="44.2591285" lon="11.2388097"><ele>602.0</ele><time>2026-04-26T10:11:11.113Z</time></trkpt><trkpt lat="44.2590442" lon="11.23883"><ele>602.0</ele><time>2026-04-26T10:11:13.115Z</time></trkpt><trkpt lat="44.2589621" lon="11.2388371"><ele>602.0</ele><time>2026-04-26T10:11:15.112Z</time></trkpt><trkpt lat="44.2588933" lon="11.238831"><ele>602.0</ele><time>2026-04-26T10:11:17.117Z</time></trkpt><trkpt lat="44.2588006" lon="11.2388085"><ele>603.5714285714286</ele><time>2026-04-26T10:11:20.126Z</time></trkpt><trkpt lat="44.2587119" lon="11.2387633"><ele>605.1428571428571</ele><time>2026-04-26T10:11:23.116Z</time></trkpt><trkpt lat="44.2586536" lon="11.2387228"><ele>606.7142857142858</ele><time>2026-04-26T10:11:25.119Z</time></trkpt><trkpt lat="44.2585948" lon="11.2386819"><ele>608.2857142857142</ele><time>2026-04-26T10:11:27.113Z</time></trkpt><trkpt lat="44.2585386" lon="11.2386331"><ele>609.8571428571429</ele><time>2026-04-26T10:11:29.12Z</time></trkpt><trkpt lat="44.2584859" lon="11.2385843"><ele>611.4285714285714</ele><time>2026-04-26T10:11:31.109Z</time></trkpt><trkpt lat="44.2584338" lon="11.238534"><ele>613.0</ele><time>2026-04-26T10:11:33.111Z</time></trkpt><trkpt lat="44.2583829" lon="11.2384815"><ele>613.0</ele><time>2026-04-26T10:11:35.125Z</time></trkpt><trkpt lat="44.258332" lon="11.2384273"><ele>613.0</ele><time>2026-04-26T10:11:37.112Z</time></trkpt><trkpt lat="44.2582797" lon="11.2383702"><ele>613.0</ele><time>2026-04-26T10:11:39.117Z</time></trkpt><trkpt lat="44.2582323" lon="11.238302"><ele>613.0</ele><time>2026-04-26T10:11:41.12Z</time></trkpt><trkpt lat="44.2581894" lon="11.2382297"><ele>613.0</ele><time>2026-04-26T10:11:43.111Z</time></trkpt><trkpt lat="44.2581503" lon="11.2381563"><ele>613.0</ele><time>2026-04-26T10:11:45.124Z</time></trkpt><trkpt lat="44.2581119" lon="11.2380861"><ele>613.0</ele><time>2026-04-26T10:11:47.118Z</time></trkpt><trkpt lat="44.258078" lon="11.2380119"><ele>614.2857142857143</ele><time>2026-04-26T10:11:49.12Z</time></trkpt><trkpt lat="44.2580406" lon="11.2379321"><ele>615.5714285714286</ele><time>2026-04-26T10:11:51.121Z</time></trkpt><trkpt lat="44.2580034" lon="11.237856"><ele>616.8571428571429</ele><time>2026-04-26T10:11:53.12Z</time></trkpt><trkpt lat="44.2579624" lon="11.2377837"><ele>618.1428571428571</ele><time>2026-04-26T10:11:55.118Z</time></trkpt><trkpt lat="44.2579188" lon="11.2377173"><ele>619.4285714285714</ele><time>2026-04-26T10:11:57.117Z</time></trkpt><trkpt lat="44.2578724" lon="11.2376509"><ele>620.7142857142857</ele><time>2026-04-26T10:11:59.12Z</time></trkpt><trkpt lat="44.25782" lon="11.2375875"><ele>622.0</ele><time>2026-04-26T10:12:01.113Z</time></trkpt><trkpt lat="44.2577625" lon="11.2375306"><ele>622.0</ele><time>2026-04-26T10:12:03.12Z</time></trkpt><trkpt lat="44.2577035" lon="11.2374766"><ele>622.0</ele><time>2026-04-26T10:12:05.115Z</time></trkpt><trkpt lat="44.2576436" lon="11.2374213"><ele>622.0</ele><time>2026-04-26T10:12:07.119Z</time></trkpt><trkpt lat="44.2575601" lon="11.237354"><ele>622.0</ele><time>2026-04-26T10:12:10.119Z</time></trkpt><trkpt lat="44.2574777" lon="11.2372858"><ele>622.0</ele><time>2026-04-26T10:12:13.118Z</time></trkpt><trkpt lat="44.2574193" lon="11.2372509"><ele>622.0</ele><time>2026-04-26T10:12:15.117Z</time></trkpt><trkpt lat="44.2573532" lon="11.2371933"><ele>622.1428571428571</ele><time>2026-04-26T10:12:17.122Z</time></trkpt><trkpt lat="44.2572944" lon="11.2371405"><ele>622.2857142857143</ele><time>2026-04-26T10:12:19.118Z</time></trkpt><trkpt lat="44.2572356" lon="11.2370882"><ele>622.4285714285714</ele><time>2026-04-26T10:12:21.111Z</time></trkpt><trkpt lat="44.2571793" lon="11.2370305"><ele>622.5714285714286</ele><time>2026-04-26T10:12:23.12Z</time></trkpt><trkpt lat="44.2571235" lon="11.2369726"><ele>622.7142857142858</ele><time>2026-04-26T10:12:25.115Z</time></trkpt><trkpt lat="44.2570658" lon="11.2369204"><ele>622.8571428571429</ele><time>2026-04-26T10:12:27.113Z</time></trkpt><trkpt lat="44.2570081" lon="11.2368695"><ele>623.0</ele><time>2026-04-26T10:12:29.113Z</time></trkpt><trkpt lat="44.2569535" lon="11.2368142"><ele>623.0</ele><time>2026-04-26T10:12:31.118Z</time></trkpt><trkpt lat="44.2568982" lon="11.2367604"><ele>623.0</ele><time>2026-04-26T10:12:33.121Z</time></trkpt><trkpt lat="44.2568412" lon="11.236718"><ele>623.0</ele><time>2026-04-26T10:12:35.113Z</time></trkpt><trkpt lat="44.2567632" lon="11.2366584"><ele>623.0</ele><time>2026-04-26T10:12:38.108Z</time></trkpt><trkpt lat="44.2566941" lon="11.2366113"><ele>623.0</ele><time>2026-04-26T10:12:41.116Z</time></trkpt><trkpt lat="44.2566427" lon="11.2365159"><ele>623.0</ele><time>2026-04-26T10:12:44.119Z</time></trkpt><trkpt lat="44.2565976" lon="11.2364161"><ele>621.8</ele><time>2026-04-26T10:12:46.111Z</time></trkpt><trkpt lat="44.2565382" lon="11.2362857"><ele>620.5999999999999</ele><time>2026-04-26T10:12:48.119Z</time></trkpt><trkpt lat="44.2564521" lon="11.2361765"><ele>619.4000000000001</ele><time>2026-04-26T10:12:50.118Z</time></trkpt><trkpt lat="44.2563943" lon="11.2360861"><ele>618.2</ele><time>2026-04-26T10:12:52.117Z</time></trkpt><trkpt lat="44.2564038" lon="11.2359518"><ele>617.0</ele><time>2026-04-26T10:12:54.113Z</time></trkpt><trkpt lat="44.2563689" lon="11.2358071"><ele>615.4</ele><time>2026-04-26T10:12:56.118Z</time></trkpt><trkpt lat="44.2563025" lon="11.2356859"><ele>613.8000000000001</ele><time>2026-04-26T10:12:58.114Z</time></trkpt><trkpt lat="44.256226" lon="11.2355771"><ele>612.2</ele><time>2026-04-26T10:13:00.117Z</time></trkpt><trkpt lat="44.2561356" lon="11.2354631"><ele>610.6</ele><time>2026-04-26T10:13:02.124Z</time></trkpt><trkpt lat="44.2560838" lon="11.2354023"><ele>609.0</ele><time>2026-04-26T10:13:03.121Z</time></trkpt><trkpt lat="44.2560268" lon="11.2353422"><ele>608.5</ele><time>2026-04-26T10:13:04.123Z</time></trkpt><trkpt lat="44.2559612" lon="11.235288"><ele>608.0</ele><time>2026-04-26T10:13:05.116Z</time></trkpt><trkpt lat="44.255896" lon="11.2352359"><ele>607.5</ele><time>2026-04-26T10:13:06.104Z</time></trkpt><trkpt lat="44.255842" lon="11.2351849"><ele>607.0</ele><time>2026-04-26T10:13:07.123Z</time></trkpt><trkpt lat="44.2557915" lon="11.2350414"><ele>606.5</ele><time>2026-04-26T10:13:09.109Z</time></trkpt><trkpt lat="44.2558062" lon="11.2349527"><ele>606.0</ele><time>2026-04-26T10:13:10.112Z</time></trkpt><trkpt lat="44.2558431" lon="11.234871"><ele>603.3333333333334</ele><time>2026-04-26T10:13:11.114Z</time></trkpt><trkpt lat="44.2558895" lon="11.2347918"><ele>600.6666666666666</ele><time>2026-04-26T10:13:12.103Z</time></trkpt><trkpt lat="44.2559386" lon="11.234708"><ele>598.0</ele><time>2026-04-26T10:13:13.123Z</time></trkpt><trkpt lat="44.2559886" lon="11.2346147"><ele>595.3333333333333</ele><time>2026-04-26T10:13:14.121Z</time></trkpt><trkpt lat="44.256043" lon="11.2345193"><ele>592.6666666666666</ele><time>2026-04-26T10:13:15.114Z</time></trkpt><trkpt lat="44.2560972" lon="11.2344397"><ele>590.0</ele><time>2026-04-26T10:13:16.12Z</time></trkpt><trkpt lat="44.2561546" lon="11.2343834"><ele>590.0</ele><time>2026-04-26T10:13:17.12Z</time></trkpt><trkpt lat="44.2562231" lon="11.2343658"><ele>590.0</ele><time>2026-04-26T10:13:18.116Z</time></trkpt><trkpt lat="44.2562947" lon="11.2343881"><ele>590.0</ele><time>2026-04-26T10:13:19.121Z</time></trkpt><trkpt lat="44.2563654" lon="11.2344318"><ele>590.0</ele><time>2026-04-26T10:13:20.119Z</time></trkpt><trkpt lat="44.2564386" lon="11.2344821"><ele>590.0</ele><time>2026-04-26T10:13:21.115Z</time></trkpt><trkpt lat="44.256516" lon="11.2345347"><ele>590.0</ele><time>2026-04-26T10:13:22.123Z</time></trkpt><trkpt lat="44.2565962" lon="11.2345939"><ele>591.0</ele><time>2026-04-26T10:13:23.118Z</time></trkpt><trkpt lat="44.2566778" lon="11.2346627"><ele>592.0</ele><time>2026-04-26T10:13:24.118Z</time></trkpt><trkpt lat="44.2567612" lon="11.2347397"><ele>593.0</ele><time>2026-04-26T10:13:25.126Z</time></trkpt><trkpt lat="44.2568464" lon="11.2348229"><ele>594.0</ele><time>2026-04-26T10:13:26.113Z</time></trkpt><trkpt lat="44.2569336" lon="11.2349079"><ele>595.0</ele><time>2026-04-26T10:13:27.116Z</time></trkpt><trkpt lat="44.2570159" lon="11.2349991"><ele>597.0</ele><time>2026-04-26T10:13:28.106Z</time></trkpt><trkpt lat="44.257088" lon="11.2350993"><ele>599.0</ele><time>2026-04-26T10:13:29.117Z</time></trkpt><trkpt lat="44.2571561" lon="11.2352067"><ele>601.0</ele><time>2026-04-26T10:13:30.129Z</time></trkpt><trkpt lat="44.2572119" lon="11.2353115"><ele>603.0</ele><time>2026-04-26T10:13:31.117Z</time></trkpt><trkpt lat="44.2572592" lon="11.2354154"><ele>605.0</ele><time>2026-04-26T10:13:32.116Z</time></trkpt><trkpt lat="44.2572993" lon="11.2355183"><ele>602.8333333333333</ele><time>2026-04-26T10:13:33.118Z</time></trkpt><trkpt lat="44.2573412" lon="11.2356234"><ele>600.6666666666666</ele><time>2026-04-26T10:13:34.128Z</time></trkpt><trkpt lat="44.2573851" lon="11.2357198"><ele>598.5</ele><time>2026-04-26T10:13:35.111Z</time></trkpt><trkpt lat="44.2574333" lon="11.2358105"><ele>596.3333333333334</ele><time>2026-04-26T10:13:36.116Z</time></trkpt><trkpt lat="44.2574902" lon="11.2358937"><ele>594.1666666666667</ele><time>2026-04-26T10:13:37.124Z</time></trkpt><trkpt lat="44.257558" lon="11.2359709"><ele>592.0</ele><time>2026-04-26T10:13:38.115Z</time></trkpt><trkpt lat="44.2576323" lon="11.2360447"><ele>592.0</ele><time>2026-04-26T10:13:39.115Z</time></trkpt><trkpt lat="44.2577071" lon="11.2361104"><ele>592.0</ele><time>2026-04-26T10:13:40.119Z</time></trkpt><trkpt lat="44.2577785" lon="11.2361692"><ele>592.0</ele><time>2026-04-26T10:13:41.119Z</time></trkpt><trkpt lat="44.2578407" lon="11.2362277"><ele>592.0</ele><time>2026-04-26T10:13:42.118Z</time></trkpt><trkpt lat="44.2578905" lon="11.2362951"><ele>592.0</ele><time>2026-04-26T10:13:43.119Z</time></trkpt><trkpt lat="44.2579296" lon="11.2363814"><ele>592.0</ele><time>2026-04-26T10:13:44.119Z</time></trkpt><trkpt lat="44.2579591" lon="11.2364729"><ele>594.0</ele><time>2026-04-26T10:13:45.119Z</time></trkpt><trkpt lat="44.2579884" lon="11.236566"><ele>596.0</ele><time>2026-04-26T10:13:46.115Z</time></trkpt><trkpt lat="44.2580278" lon="11.2366452"><ele>598.0</ele><time>2026-04-26T10:13:47.112Z</time></trkpt><trkpt lat="44.2580834" lon="11.2367021"><ele>600.0</ele><time>2026-04-26T10:13:48.124Z</time></trkpt><trkpt lat="44.2581397" lon="11.2367578"><ele>602.0</ele><time>2026-04-26T10:13:49.12Z</time></trkpt><trkpt lat="44.25822" lon="11.2367724"><ele>604.0</ele><time>2026-04-26T10:13:50.114Z</time></trkpt><trkpt lat="44.2582997" lon="11.2367809"><ele>606.0</ele><time>2026-04-26T10:13:51.111Z</time></trkpt><trkpt lat="44.2583735" lon="11.2368056"><ele>601.3333333333334</ele><time>2026-04-26T10:13:52.126Z</time></trkpt><trkpt lat="44.2584426" lon="11.236856"><ele>596.6666666666666</ele><time>2026-04-26T10:13:53.116Z</time></trkpt><trkpt lat="44.2585104" lon="11.236924"><ele>592.0</ele><time>2026-04-26T10:13:54.115Z</time></trkpt><trkpt lat="44.2585815" lon="11.236997"><ele>587.3333333333333</ele><time>2026-04-26T10:13:55.12Z</time></trkpt><trkpt lat="44.2586534" lon="11.2370755"><ele>582.6666666666666</ele><time>2026-04-26T10:13:56.117Z</time></trkpt><trkpt lat="44.2587224" lon="11.237158"><ele>578.0</ele><time>2026-04-26T10:13:57.122Z</time></trkpt><trkpt lat="44.2587861" lon="11.2372336"><ele>578.0</ele><time>2026-04-26T10:13:58.12Z</time></trkpt><trkpt lat="44.2588447" lon="11.2373004"><ele>578.0</ele><time>2026-04-26T10:13:59.124Z</time></trkpt><trkpt lat="44.2588987" lon="11.2373457"><ele>578.0</ele><time>2026-04-26T10:14:00.114Z</time></trkpt><trkpt lat="44.2590049" lon="11.2373582"><ele>578.0</ele><time>2026-04-26T10:14:02.115Z</time></trkpt><trkpt lat="44.259048" lon="11.2372275"><ele>578.0</ele><time>2026-04-26T10:14:04.122Z</time></trkpt><trkpt lat="44.2590281" lon="11.2371436"><ele>578.0</ele><time>2026-04-26T10:14:05.117Z</time></trkpt><trkpt lat="44.2589883" lon="11.2370625"><ele>578.0</ele><time>2026-04-26T10:14:06.116Z</time></trkpt><trkpt lat="44.2589453" lon="11.236976"><ele>578.0</ele><time>2026-04-26T10:14:07.124Z</time></trkpt><trkpt lat="44.2588922" lon="11.236899"><ele>578.0</ele><time>2026-04-26T10:14:08.118Z</time></trkpt><trkpt lat="44.2588469" lon="11.236816"><ele>578.0</ele><time>2026-04-26T10:14:09.12Z</time></trkpt><trkpt lat="44.2588041" lon="11.2367276"><ele>578.0</ele><time>2026-04-26T10:14:10.114Z</time></trkpt><trkpt lat="44.2587611" lon="11.2366338"><ele>578.0</ele><time>2026-04-26T10:14:11.127Z</time></trkpt><trkpt lat="44.2587217" lon="11.236534"><ele>575.8</ele><time>2026-04-26T10:14:12.121Z</time></trkpt><trkpt lat="44.2586813" lon="11.2364299"><ele>573.5999999999999</ele><time>2026-04-26T10:14:13.11Z</time></trkpt><trkpt lat="44.25864" lon="11.2363199"><ele>571.4000000000001</ele><time>2026-04-26T10:14:14.122Z</time></trkpt><trkpt lat="44.258597" lon="11.2362059"><ele>569.2</ele><time>2026-04-26T10:14:15.12Z</time></trkpt><trkpt lat="44.2585537" lon="11.2360825"><ele>567.0</ele><time>2026-04-26T10:14:16.115Z</time></trkpt><trkpt lat="44.2585123" lon="11.2359533"><ele>567.0</ele><time>2026-04-26T10:14:17.123Z</time></trkpt><trkpt lat="44.2584714" lon="11.2358233"><ele>567.0</ele><time>2026-04-26T10:14:18.116Z</time></trkpt><trkpt lat="44.2584304" lon="11.2356935"><ele>567.0</ele><time>2026-04-26T10:14:19.118Z</time></trkpt><trkpt lat="44.2583952" lon="11.2355636"><ele>567.0</ele><time>2026-04-26T10:14:20.125Z</time></trkpt><trkpt lat="44.2583629" lon="11.2354327"><ele>567.0</ele><time>2026-04-26T10:14:21.126Z</time></trkpt><trkpt lat="44.2583313" lon="11.235299"><ele>565.4</ele><time>2026-04-26T10:14:22.12Z</time></trkpt><trkpt lat="44.2583057" lon="11.235162"><ele>563.8000000000001</ele><time>2026-04-26T10:14:23.129Z</time></trkpt><trkpt lat="44.2582828" lon="11.2350219"><ele>562.2</ele><time>2026-04-26T10:14:24.109Z</time></trkpt><trkpt lat="44.2582633" lon="11.2348827"><ele>560.6</ele><time>2026-04-26T10:14:25.108Z</time></trkpt><trkpt lat="44.2582458" lon="11.2347369"><ele>559.0</ele><time>2026-04-26T10:14:26.125Z</time></trkpt><trkpt lat="44.2582282" lon="11.2345967"><ele>558.4</ele><time>2026-04-26T10:14:27.119Z</time></trkpt><trkpt lat="44.2582155" lon="11.2344625"><ele>557.8</ele><time>2026-04-26T10:14:28.117Z</time></trkpt><trkpt lat="44.2582123" lon="11.2343283"><ele>557.2</ele><time>2026-04-26T10:14:29.124Z</time></trkpt><trkpt lat="44.2582189" lon="11.2342001"><ele>556.6</ele><time>2026-04-26T10:14:30.12Z</time></trkpt><trkpt lat="44.2582325" lon="11.2340788"><ele>556.0</ele><time>2026-04-26T10:14:31.121Z</time></trkpt><trkpt lat="44.2582488" lon="11.2339615"><ele>555.1666666666667</ele><time>2026-04-26T10:14:32.121Z</time></trkpt><trkpt lat="44.2582652" lon="11.2338486"><ele>554.3333333333334</ele><time>2026-04-26T10:14:33.119Z</time></trkpt><trkpt lat="44.2582833" lon="11.2337331"><ele>553.5</ele><time>2026-04-26T10:14:34.112Z</time></trkpt><trkpt lat="44.2583102" lon="11.2336246"><ele>552.6666666666666</ele><time>2026-04-26T10:14:35.114Z</time></trkpt><trkpt lat="44.2583533" lon="11.2335228"><ele>551.8333333333333</ele><time>2026-04-26T10:14:36.12Z</time></trkpt><trkpt lat="44.2584125" lon="11.2334326"><ele>551.0</ele><time>2026-04-26T10:14:37.127Z</time></trkpt><trkpt lat="44.2584703" lon="11.2333499"><ele>550.9999999999999</ele><time>2026-04-26T10:14:38.114Z</time></trkpt><trkpt lat="44.2585175" lon="11.2332693"><ele>551.0</ele><time>2026-04-26T10:14:39.114Z</time></trkpt><trkpt lat="44.2585485" lon="11.2331861"><ele>551.0</ele><time>2026-04-26T10:14:40.123Z</time></trkpt><trkpt lat="44.2585595" lon="11.2330965"><ele>551.0</ele><time>2026-04-26T10:14:41.11Z</time></trkpt><trkpt lat="44.2585563" lon="11.2330018"><ele>551.0</ele><time>2026-04-26T10:14:42.115Z</time></trkpt><trkpt lat="44.2585458" lon="11.2329096"><ele>550.9999999999999</ele><time>2026-04-26T10:14:43.113Z</time></trkpt><trkpt lat="44.2585242" lon="11.2328198"><ele>551.0</ele><time>2026-04-26T10:14:44.124Z</time></trkpt><trkpt lat="44.2584912" lon="11.2327416"><ele>549.1666666666666</ele><time>2026-04-26T10:14:45.123Z</time></trkpt><trkpt lat="44.2584475" lon="11.232668"><ele>547.3333333333333</ele><time>2026-04-26T10:14:46.124Z</time></trkpt><trkpt lat="44.2583972" lon="11.2325931"><ele>545.5</ele><time>2026-04-26T10:14:47.107Z</time></trkpt><trkpt lat="44.2583373" lon="11.2325202"><ele>543.6666666666666</ele><time>2026-04-26T10:14:48.117Z</time></trkpt><trkpt lat="44.2582713" lon="11.2324485"><ele>541.8333333333334</ele><time>2026-04-26T10:14:49.123Z</time></trkpt><trkpt lat="44.2582003" lon="11.2323775"><ele>540.0</ele><time>2026-04-26T10:14:50.121Z</time></trkpt><trkpt lat="44.2581255" lon="11.2323057"><ele>540.1666666666666</ele><time>2026-04-26T10:14:51.118Z</time></trkpt><trkpt lat="44.2580494" lon="11.232229"><ele>540.3333333333334</ele><time>2026-04-26T10:14:52.125Z</time></trkpt><trkpt lat="44.2579765" lon="11.2321526"><ele>540.5</ele><time>2026-04-26T10:14:53.135Z</time></trkpt><trkpt lat="44.2579067" lon="11.2320784"><ele>540.6666666666667</ele><time>2026-04-26T10:14:54.109Z</time></trkpt><trkpt lat="44.2578382" lon="11.2320076"><ele>540.8333333333334</ele><time>2026-04-26T10:14:55.125Z</time></trkpt><trkpt lat="44.2577735" lon="11.2319355"><ele>541.0</ele><time>2026-04-26T10:14:56.116Z</time></trkpt><trkpt lat="44.2577143" lon="11.2318551"><ele>541.0</ele><time>2026-04-26T10:14:57.125Z</time></trkpt><trkpt lat="44.2576614" lon="11.2317578"><ele>541.0</ele><time>2026-04-26T10:14:58.112Z</time></trkpt><trkpt lat="44.2576178" lon="11.2316461"><ele>541.0</ele><time>2026-04-26T10:14:59.118Z</time></trkpt><trkpt lat="44.2575877" lon="11.2315312"><ele>541.0</ele><time>2026-04-26T10:15:00.118Z</time></trkpt><trkpt lat="44.2575655" lon="11.2314176"><ele>541.0</ele><time>2026-04-26T10:15:01.117Z</time></trkpt><trkpt lat="44.2575434" lon="11.2313097"><ele>541.0</ele><time>2026-04-26T10:15:02.114Z</time></trkpt><trkpt lat="44.2575185" lon="11.2312052"><ele>539.1666666666667</ele><time>2026-04-26T10:15:03.124Z</time></trkpt><trkpt lat="44.2574871" lon="11.2311066"><ele>537.3333333333334</ele><time>2026-04-26T10:15:04.125Z</time></trkpt><trkpt lat="44.2574411" lon="11.2310145"><ele>535.5</ele><time>2026-04-26T10:15:05.117Z</time></trkpt><trkpt lat="44.257381" lon="11.2309335"><ele>533.6666666666666</ele><time>2026-04-26T10:15:06.112Z</time></trkpt><trkpt lat="44.2573084" lon="11.23086"><ele>531.8333333333333</ele><time>2026-04-26T10:15:07.12Z</time></trkpt><trkpt lat="44.257227" lon="11.2307892"><ele>530.0</ele><time>2026-04-26T10:15:08.124Z</time></trkpt><trkpt lat="44.2571403" lon="11.2307171"><ele>530.0</ele><time>2026-04-26T10:15:09.11Z</time></trkpt><trkpt lat="44.2570519" lon="11.2306479"><ele>530.0</ele><time>2026-04-26T10:15:10.115Z</time></trkpt><trkpt lat="44.2569625" lon="11.2305816"><ele>530.0</ele><time>2026-04-26T10:15:11.122Z</time></trkpt><trkpt lat="44.2568679" lon="11.230524"><ele>530.0</ele><time>2026-04-26T10:15:12.117Z</time></trkpt><trkpt lat="44.2567637" lon="11.2304848"><ele>530.0</ele><time>2026-04-26T10:15:13.116Z</time></trkpt><trkpt lat="44.2566534" lon="11.2304593"><ele>525.4</ele><time>2026-04-26T10:15:14.117Z</time></trkpt><trkpt lat="44.2565422" lon="11.2304513"><ele>520.8</ele><time>2026-04-26T10:15:15.118Z</time></trkpt><trkpt lat="44.2564352" lon="11.230453"><ele>516.2</ele><time>2026-04-26T10:15:16.106Z</time></trkpt><trkpt lat="44.256332" lon="11.2304567"><ele>511.6</ele><time>2026-04-26T10:15:17.12Z</time></trkpt><trkpt lat="44.2562328" lon="11.2304671"><ele>507.0</ele><time>2026-04-26T10:15:18.116Z</time></trkpt><trkpt lat="44.2561395" lon="11.230478"><ele>507.0</ele><time>2026-04-26T10:15:19.112Z</time></trkpt><trkpt lat="44.2560601" lon="11.230512"><ele>507.0</ele><time>2026-04-26T10:15:20.113Z</time></trkpt><trkpt lat="44.2559951" lon="11.230562"><ele>507.0</ele><time>2026-04-26T10:15:21.12Z</time></trkpt><trkpt lat="44.2559379" lon="11.2306262"><ele>507.0</ele><time>2026-04-26T10:15:22.126Z</time></trkpt><trkpt lat="44.2558914" lon="11.2307015"><ele>507.0</ele><time>2026-04-26T10:15:23.122Z</time></trkpt><trkpt lat="44.2558464" lon="11.2307761"><ele>507.0</ele><time>2026-04-26T10:15:24.111Z</time></trkpt><trkpt lat="44.2558019" lon="11.2308509"><ele>507.0</ele><time>2026-04-26T10:15:25.11Z</time></trkpt><trkpt lat="44.2557552" lon="11.2309267"><ele>506.42857142857144</ele><time>2026-04-26T10:15:26.116Z</time></trkpt><trkpt lat="44.2557103" lon="11.2310051"><ele>505.8571428571429</ele><time>2026-04-26T10:15:27.123Z</time></trkpt><trkpt lat="44.2556646" lon="11.2310803"><ele>505.28571428571433</ele><time>2026-04-26T10:15:28.111Z</time></trkpt><trkpt lat="44.2556173" lon="11.2311544"><ele>504.7142857142857</ele><time>2026-04-26T10:15:29.117Z</time></trkpt><trkpt lat="44.2555702" lon="11.2312265"><ele>504.1428571428572</ele><time>2026-04-26T10:15:30.118Z</time></trkpt><trkpt lat="44.2555221" lon="11.2313017"><ele>503.5714285714286</ele><time>2026-04-26T10:15:31.116Z</time></trkpt><trkpt lat="44.255475" lon="11.2313724"><ele>503.0</ele><time>2026-04-26T10:15:32.122Z</time></trkpt><trkpt lat="44.2554266" lon="11.2314394"><ele>504.28571428571433</ele><time>2026-04-26T10:15:33.123Z</time></trkpt><trkpt lat="44.2553806" lon="11.2315037"><ele>505.5714285714286</ele><time>2026-04-26T10:15:34.115Z</time></trkpt><trkpt lat="44.2553379" lon="11.2315718"><ele>506.8571428571429</ele><time>2026-04-26T10:15:35.115Z</time></trkpt><trkpt lat="44.255296" lon="11.2316416"><ele>508.1428571428571</ele><time>2026-04-26T10:15:36.13Z</time></trkpt><trkpt lat="44.255254" lon="11.2317141"><ele>509.4285714285714</ele><time>2026-04-26T10:15:37.12Z</time></trkpt><trkpt lat="44.2552147" lon="11.2317865"><ele>510.71428571428567</ele><time>2026-04-26T10:15:38.112Z</time></trkpt><trkpt lat="44.2551726" lon="11.2318606"><ele>512.0</ele><time>2026-04-26T10:15:39.107Z</time></trkpt><trkpt lat="44.2551297" lon="11.2319343"><ele>512.0</ele><time>2026-04-26T10:15:40.112Z</time></trkpt><trkpt lat="44.2550821" lon="11.2320123"><ele>511.99999999999994</ele><time>2026-04-26T10:15:41.11Z</time></trkpt><trkpt lat="44.2550333" lon="11.2320924"><ele>512.0</ele><time>2026-04-26T10:15:42.127Z</time></trkpt><trkpt lat="44.2549853" lon="11.2321746"><ele>512.0</ele><time>2026-04-26T10:15:43.119Z</time></trkpt><trkpt lat="44.2549393" lon="11.2322558"><ele>511.99999999999994</ele><time>2026-04-26T10:15:44.116Z</time></trkpt><trkpt lat="44.2548929" lon="11.2323302"><ele>512.0</ele><time>2026-04-26T10:15:45.107Z</time></trkpt><trkpt lat="44.2548438" lon="11.2323886"><ele>512.0</ele><time>2026-04-26T10:15:46.123Z</time></trkpt><trkpt lat="44.2547421" lon="11.2324646"><ele>513.6</ele><time>2026-04-26T10:15:48.123Z</time></trkpt><trkpt lat="44.2546297" lon="11.2324796"><ele>515.2</ele><time>2026-04-26T10:15:50.125Z</time></trkpt><trkpt lat="44.25452" lon="11.2324631"><ele>516.8</ele><time>2026-04-26T10:15:52.115Z</time></trkpt><trkpt lat="44.2544144" lon="11.232443"><ele>518.4</ele><time>2026-04-26T10:15:54.112Z</time></trkpt><trkpt lat="44.2543131" lon="11.2324328"><ele>520.0</ele><time>2026-04-26T10:15:56.117Z</time></trkpt><trkpt lat="44.254215" lon="11.2324535"><ele>520.0</ele><time>2026-04-26T10:15:58.115Z</time></trkpt><trkpt lat="44.2541204" lon="11.2325081"><ele>520.0</ele><time>2026-04-26T10:16:00.125Z</time></trkpt><trkpt lat="44.2540285" lon="11.2325818"><ele>520.0</ele><time>2026-04-26T10:16:02.121Z</time></trkpt><trkpt lat="44.2539381" lon="11.2326634"><ele>520.0</ele><time>2026-04-26T10:16:04.121Z</time></trkpt><trkpt lat="44.2538478" lon="11.2327551"><ele>520.0</ele><time>2026-04-26T10:16:06.117Z</time></trkpt><trkpt lat="44.2537825" lon="11.232886"><ele>518.7142857142858</ele><time>2026-04-26T10:16:08.115Z</time></trkpt><trkpt lat="44.2537209" lon="11.2330331"><ele>517.4285714285714</ele><time>2026-04-26T10:16:10.117Z</time></trkpt><trkpt lat="44.2536881" lon="11.2331092"><ele>516.1428571428571</ele><time>2026-04-26T10:16:11.102Z</time></trkpt><trkpt lat="44.2536564" lon="11.2331881"><ele>514.8571428571429</ele><time>2026-04-26T10:16:12.129Z</time></trkpt><trkpt lat="44.2536252" lon="11.2332666"><ele>513.5714285714286</ele><time>2026-04-26T10:16:13.129Z</time></trkpt><trkpt lat="44.2535908" lon="11.2333454"><ele>512.2857142857143</ele><time>2026-04-26T10:16:14.117Z</time></trkpt><trkpt lat="44.2535566" lon="11.2334257"><ele>511.0</ele><time>2026-04-26T10:16:15.111Z</time></trkpt><trkpt lat="44.2535235" lon="11.2335072"><ele>511.00000000000006</ele><time>2026-04-26T10:16:16.113Z</time></trkpt><trkpt lat="44.2534885" lon="11.2335859"><ele>511.0</ele><time>2026-04-26T10:16:17.117Z</time></trkpt><trkpt lat="44.2534531" lon="11.233663"><ele>511.0</ele><time>2026-04-26T10:16:18.115Z</time></trkpt><trkpt lat="44.2534197" lon="11.2337395"><ele>511.0</ele><time>2026-04-26T10:16:19.113Z</time></trkpt><trkpt lat="44.2533879" lon="11.2338167"><ele>511.00000000000006</ele><time>2026-04-26T10:16:20.118Z</time></trkpt><trkpt lat="44.2533296" lon="11.2339655"><ele>511.0</ele><time>2026-04-26T10:16:22.116Z</time></trkpt><trkpt lat="44.2532726" lon="11.2341124"><ele>512.4</ele><time>2026-04-26T10:16:24.109Z</time></trkpt><trkpt lat="44.2532138" lon="11.2342591"><ele>513.8</ele><time>2026-04-26T10:16:26.123Z</time></trkpt><trkpt lat="44.2531544" lon="11.2344051"><ele>515.1999999999999</ele><time>2026-04-26T10:16:28.123Z</time></trkpt><trkpt lat="44.2530874" lon="11.234545"><ele>516.6</ele><time>2026-04-26T10:16:30.114Z</time></trkpt><trkpt lat="44.2530524" lon="11.2346211"><ele>518.0</ele><time>2026-04-26T10:16:31.11Z</time></trkpt><trkpt lat="44.2530145" lon="11.2347005"><ele>516.0</ele><time>2026-04-26T10:16:32.114Z</time></trkpt><trkpt lat="44.2529762" lon="11.2347853"><ele>514.0</ele><time>2026-04-26T10:16:33.12Z</time></trkpt><trkpt lat="44.2529368" lon="11.2348747"><ele>512.0</ele><time>2026-04-26T10:16:34.121Z</time></trkpt><trkpt lat="44.2528953" lon="11.2349668"><ele>510.0</ele><time>2026-04-26T10:16:35.112Z</time></trkpt><trkpt lat="44.2528532" lon="11.235062"><ele>507.99999999999994</ele><time>2026-04-26T10:16:36.115Z</time></trkpt><trkpt lat="44.2528092" lon="11.2351674"><ele>506.0</ele><time>2026-04-26T10:16:37.113Z</time></trkpt><trkpt lat="44.2527668" lon="11.2352704"><ele>505.99999999999994</ele><time>2026-04-26T10:16:38.119Z</time></trkpt><trkpt lat="44.2527208" lon="11.2353777"><ele>506.0</ele><time>2026-04-26T10:16:39.124Z</time></trkpt><trkpt lat="44.252676" lon="11.2354838"><ele>506.0</ele><time>2026-04-26T10:16:40.109Z</time></trkpt><trkpt lat="44.2526323" lon="11.2355878"><ele>506.0</ele><time>2026-04-26T10:16:41.116Z</time></trkpt><trkpt lat="44.2525862" lon="11.235692"><ele>505.99999999999994</ele><time>2026-04-26T10:16:42.11Z</time></trkpt><trkpt lat="44.2525424" lon="11.2357904"><ele>506.0</ele><time>2026-04-26T10:16:43.118Z</time></trkpt><trkpt lat="44.2524926" lon="11.2358774"><ele>506.6</ele><time>2026-04-26T10:16:44.125Z</time></trkpt><trkpt lat="44.2524364" lon="11.2359655"><ele>507.20000000000005</ele><time>2026-04-26T10:16:45.115Z</time></trkpt><trkpt lat="44.2523752" lon="11.2360552"><ele>507.79999999999995</ele><time>2026-04-26T10:16:46.12Z</time></trkpt><trkpt lat="44.2523074" lon="11.2361445"><ele>508.4</ele><time>2026-04-26T10:16:47.113Z</time></trkpt><trkpt lat="44.2522344" lon="11.2362303"><ele>509.0</ele><time>2026-04-26T10:16:48.124Z</time></trkpt><trkpt lat="44.2521635" lon="11.2363127"><ele>509.16666666666663</ele><time>2026-04-26T10:16:49.11Z</time></trkpt><trkpt lat="44.2520976" lon="11.2363886"><ele>509.3333333333333</ele><time>2026-04-26T10:16:50.116Z</time></trkpt><trkpt lat="44.252038" lon="11.2364542"><ele>509.5</ele><time>2026-04-26T10:16:51.121Z</time></trkpt><trkpt lat="44.2519751" lon="11.2365003"><ele>509.66666666666663</ele><time>2026-04-26T10:16:52.113Z</time></trkpt><trkpt lat="44.2519023" lon="11.2365329"><ele>509.8333333333333</ele><time>2026-04-26T10:16:53.116Z</time></trkpt><trkpt lat="44.251824" lon="11.2365558"><ele>510.0</ele><time>2026-04-26T10:16:54.118Z</time></trkpt><trkpt lat="44.2517452" lon="11.2365769"><ele>510.0</ele><time>2026-04-26T10:16:55.124Z</time></trkpt><trkpt lat="44.2516557" lon="11.2365752"><ele>510.0</ele><time>2026-04-26T10:16:56.113Z</time></trkpt><trkpt lat="44.2515656" lon="11.2365679"><ele>510.0</ele><time>2026-04-26T10:16:57.13Z</time></trkpt><trkpt lat="44.2514699" lon="11.2365624"><ele>510.0</ele><time>2026-04-26T10:16:58.117Z</time></trkpt><trkpt lat="44.2513741" lon="11.2365457"><ele>510.0</ele><time>2026-04-26T10:16:59.121Z</time></trkpt><trkpt lat="44.2512803" lon="11.2365075"><ele>507.2</ele><time>2026-04-26T10:17:00.118Z</time></trkpt><trkpt lat="44.2511886" lon="11.2364524"><ele>504.4</ele><time>2026-04-26T10:17:01.114Z</time></trkpt><trkpt lat="44.2511005" lon="11.2363831"><ele>501.6</ele><time>2026-04-26T10:17:02.125Z</time></trkpt><trkpt lat="44.2510172" lon="11.2363056"><ele>498.8</ele><time>2026-04-26T10:17:03.128Z</time></trkpt><trkpt lat="44.2509385" lon="11.236227"><ele>496.0</ele><time>2026-04-26T10:17:04.114Z</time></trkpt><trkpt lat="44.2508659" lon="11.2361432"><ele>496.00000000000006</ele><time>2026-04-26T10:17:05.122Z</time></trkpt><trkpt lat="44.2508006" lon="11.236052"><ele>496.0</ele><time>2026-04-26T10:17:06.11Z</time></trkpt><trkpt lat="44.2507404" lon="11.2359603"><ele>496.0</ele><time>2026-04-26T10:17:07.121Z</time></trkpt><trkpt lat="44.2506836" lon="11.2358672"><ele>496.0</ele><time>2026-04-26T10:17:08.121Z</time></trkpt><trkpt lat="44.2506256" lon="11.2357774"><ele>496.00000000000006</ele><time>2026-04-26T10:17:09.126Z</time></trkpt><trkpt lat="44.2505697" lon="11.2356905"><ele>496.0</ele><time>2026-04-26T10:17:10.111Z</time></trkpt><trkpt lat="44.2505143" lon="11.2356131"><ele>496.6666666666667</ele><time>2026-04-26T10:17:11.113Z</time></trkpt><trkpt lat="44.2504553" lon="11.2355513"><ele>497.33333333333337</ele><time>2026-04-26T10:17:12.117Z</time></trkpt><trkpt lat="44.2503941" lon="11.2355057"><ele>498.0</ele><time>2026-04-26T10:17:13.117Z</time></trkpt><trkpt lat="44.2502715" lon="11.2354458"><ele>498.66666666666663</ele><time>2026-04-26T10:17:15.109Z</time></trkpt><trkpt lat="44.2502039" lon="11.2354145"><ele>499.3333333333333</ele><time>2026-04-26T10:17:16.118Z</time></trkpt><trkpt lat="44.2501332" lon="11.2353733"><ele>500.0</ele><time>2026-04-26T10:17:17.11Z</time></trkpt><trkpt lat="44.2500674" lon="11.235342"><ele>500.0</ele><time>2026-04-26T10:17:18.113Z</time></trkpt><trkpt lat="44.2499435" lon="11.2352723"><ele>500.0</ele><time>2026-04-26T10:17:20.124Z</time></trkpt><trkpt lat="44.2498814" lon="11.2352324"><ele>500.0</ele><time>2026-04-26T10:17:21.108Z</time></trkpt><trkpt lat="44.2497663" lon="11.2351504"><ele>500.0</ele><time>2026-04-26T10:17:23.119Z</time></trkpt><trkpt lat="44.2497115" lon="11.2350969"><ele>500.0</ele><time>2026-04-26T10:17:24.117Z</time></trkpt><trkpt lat="44.2496589" lon="11.2350431"><ele>502.0</ele><time>2026-04-26T10:17:25.123Z</time></trkpt><trkpt lat="44.2496109" lon="11.2349846"><ele>504.0</ele><time>2026-04-26T10:17:26.123Z</time></trkpt><trkpt lat="44.2495214" lon="11.2348653"><ele>506.0</ele><time>2026-04-26T10:17:28.12Z</time></trkpt><trkpt lat="44.2494368" lon="11.2347385"><ele>508.0</ele><time>2026-04-26T10:17:30.114Z</time></trkpt><trkpt lat="44.2493619" lon="11.2346105"><ele>510.0</ele><time>2026-04-26T10:17:32.113Z</time></trkpt><trkpt lat="44.2493024" lon="11.2344708"><ele>510.0</ele><time>2026-04-26T10:17:34.117Z</time></trkpt><trkpt lat="44.249262" lon="11.2343257"><ele>510.0</ele><time>2026-04-26T10:17:36.11Z</time></trkpt><trkpt lat="44.2492343" lon="11.2341749"><ele>510.0</ele><time>2026-04-26T10:17:38.116Z</time></trkpt><trkpt lat="44.2492176" lon="11.2340214"><ele>510.0</ele><time>2026-04-26T10:17:40.121Z</time></trkpt><trkpt lat="44.2492031" lon="11.2338673"><ele>510.0</ele><time>2026-04-26T10:17:42.119Z</time></trkpt><trkpt lat="44.2491872" lon="11.2337107"><ele>510.0</ele><time>2026-04-26T10:17:44.117Z</time></trkpt><trkpt lat="44.2491554" lon="11.2335642"><ele>510.0</ele><time>2026-04-26T10:17:46.119Z</time></trkpt><trkpt lat="44.2490973" lon="11.2334399"><ele>510.0</ele><time>2026-04-26T10:17:48.119Z</time></trkpt><trkpt lat="44.2490122" lon="11.2333516"><ele>510.0</ele><time>2026-04-26T10:17:50.115Z</time></trkpt><trkpt lat="44.2489122" lon="11.233291"><ele>510.0</ele><time>2026-04-26T10:17:52.123Z</time></trkpt><trkpt lat="44.248811" lon="11.2332301"><ele>510.0</ele><time>2026-04-26T10:17:54.113Z</time></trkpt><trkpt lat="44.2486986" lon="11.2331783"><ele>510.0</ele><time>2026-04-26T10:17:56.114Z</time></trkpt><trkpt lat="44.248638" lon="11.2331517"><ele>510.0</ele><time>2026-04-26T10:17:57.124Z</time></trkpt><trkpt lat="44.2485749" lon="11.2331247"><ele>510.0</ele><time>2026-04-26T10:17:58.118Z</time></trkpt><trkpt lat="44.2485116" lon="11.2330964"><ele>510.0</ele><time>2026-04-26T10:17:59.114Z</time></trkpt><trkpt lat="44.2484473" lon="11.2330676"><ele>510.0</ele><time>2026-04-26T10:18:00.115Z</time></trkpt><trkpt lat="44.248381" lon="11.2330356"><ele>510.8333333333333</ele><time>2026-04-26T10:18:01.112Z</time></trkpt><trkpt lat="44.2483138" lon="11.2329987"><ele>511.66666666666663</ele><time>2026-04-26T10:18:02.116Z</time></trkpt><trkpt lat="44.2482487" lon="11.2329512"><ele>512.5</ele><time>2026-04-26T10:18:03.119Z</time></trkpt><trkpt lat="44.2481888" lon="11.232888"><ele>513.3333333333333</ele><time>2026-04-26T10:18:04.111Z</time></trkpt><trkpt lat="44.2481348" lon="11.2328114"><ele>514.1666666666666</ele><time>2026-04-26T10:18:05.12Z</time></trkpt><trkpt lat="44.2480869" lon="11.2327238"><ele>515.0</ele><time>2026-04-26T10:18:06.114Z</time></trkpt><trkpt lat="44.2480405" lon="11.2326279"><ele>515.0</ele><time>2026-04-26T10:18:07.121Z</time></trkpt><trkpt lat="44.2479945" lon="11.2325256"><ele>515.0</ele><time>2026-04-26T10:18:08.108Z</time></trkpt><trkpt lat="44.2479509" lon="11.2324147"><ele>515.0</ele><time>2026-04-26T10:18:09.126Z</time></trkpt><trkpt lat="44.2479125" lon="11.2322933"><ele>515.0</ele><time>2026-04-26T10:18:10.124Z</time></trkpt><trkpt lat="44.2478791" lon="11.2321658"><ele>515.0</ele><time>2026-04-26T10:18:11.104Z</time></trkpt><trkpt lat="44.2478491" lon="11.2320307"><ele>512.4</ele><time>2026-04-26T10:18:12.115Z</time></trkpt><trkpt lat="44.2478211" lon="11.2318907"><ele>509.8</ele><time>2026-04-26T10:18:13.119Z</time></trkpt><trkpt lat="44.2477921" lon="11.2317513"><ele>507.20000000000005</ele><time>2026-04-26T10:18:14.113Z</time></trkpt><trkpt lat="44.2477634" lon="11.2316141"><ele>504.6</ele><time>2026-04-26T10:18:15.127Z</time></trkpt><trkpt lat="44.2477386" lon="11.2314815"><ele>502.0</ele><time>2026-04-26T10:18:16.118Z</time></trkpt><trkpt lat="44.2477222" lon="11.2313518"><ele>500.20000000000005</ele><time>2026-04-26T10:18:17.116Z</time></trkpt><trkpt lat="44.2477126" lon="11.2312173"><ele>498.40000000000003</ele><time>2026-04-26T10:18:18.115Z</time></trkpt><trkpt lat="44.2477033" lon="11.2310805"><ele>496.59999999999997</ele><time>2026-04-26T10:18:19.131Z</time></trkpt><trkpt lat="44.2477024" lon="11.2309356"><ele>494.79999999999995</ele><time>2026-04-26T10:18:20.119Z</time></trkpt><trkpt lat="44.2477057" lon="11.230788"><ele>493.0</ele><time>2026-04-26T10:18:21.116Z</time></trkpt><trkpt lat="44.2477081" lon="11.2306336"><ele>491.5</ele><time>2026-04-26T10:18:22.118Z</time></trkpt><trkpt lat="44.247709" lon="11.2304752"><ele>490.0</ele><time>2026-04-26T10:18:23.117Z</time></trkpt><trkpt lat="44.2477081" lon="11.230313"><ele>488.5</ele><time>2026-04-26T10:18:24.103Z</time></trkpt><trkpt lat="44.2477082" lon="11.2301475"><ele>487.0</ele><time>2026-04-26T10:18:25.12Z</time></trkpt><trkpt lat="44.24771" lon="11.2299796"><ele>485.0</ele><time>2026-04-26T10:18:26.117Z</time></trkpt><trkpt lat="44.2477126" lon="11.2298076"><ele>483.0</ele><time>2026-04-26T10:18:27.121Z</time></trkpt><trkpt lat="44.2477157" lon="11.2296333"><ele>481.0</ele><time>2026-04-26T10:18:28.119Z</time></trkpt><trkpt lat="44.2477195" lon="11.2294579"><ele>479.0</ele><time>2026-04-26T10:18:29.122Z</time></trkpt><trkpt lat="44.2477256" lon="11.2292929"><ele>479.0</ele><time>2026-04-26T10:18:30.123Z</time></trkpt><trkpt lat="44.2477397" lon="11.2291334"><ele>479.0</ele><time>2026-04-26T10:18:31.114Z</time></trkpt><trkpt lat="44.2477652" lon="11.2289894"><ele>479.0</ele><time>2026-04-26T10:18:32.117Z</time></trkpt><trkpt lat="44.247798" lon="11.2288661"><ele>479.0</ele><time>2026-04-26T10:18:33.116Z</time></trkpt><trkpt lat="44.2478284" lon="11.2287641"><ele>479.0</ele><time>2026-04-26T10:18:34.115Z</time></trkpt><trkpt lat="44.247844" lon="11.2286753"><ele>476.0</ele><time>2026-04-26T10:18:35.116Z</time></trkpt><trkpt lat="44.2478015" lon="11.2285421"><ele>473.0</ele><time>2026-04-26T10:18:37.113Z</time></trkpt><trkpt lat="44.2476923" lon="11.2284894"><ele>470.0</ele><time>2026-04-26T10:18:39.114Z</time></trkpt><trkpt lat="44.2475727" lon="11.228456"><ele>467.0</ele><time>2026-04-26T10:18:41.101Z</time></trkpt><trkpt lat="44.247505" lon="11.2284406"><ele>464.0</ele><time>2026-04-26T10:18:42.115Z</time></trkpt><trkpt lat="44.2474294" lon="11.2284273"><ele>464.0</ele><time>2026-04-26T10:18:43.122Z</time></trkpt><trkpt lat="44.2473368" lon="11.2284102"><ele>464.0</ele><time>2026-04-26T10:18:44.111Z</time></trkpt><trkpt lat="44.2472434" lon="11.2283855"><ele>464.0</ele><time>2026-04-26T10:18:45.114Z</time></trkpt><trkpt lat="44.2471443" lon="11.2283534"><ele>464.0</ele><time>2026-04-26T10:18:46.117Z</time></trkpt><trkpt lat="44.2470441" lon="11.2283161"><ele>464.0</ele><time>2026-04-26T10:18:47.113Z</time></trkpt><trkpt lat="44.2469514" lon="11.2282757"><ele>464.4</ele><time>2026-04-26T10:18:48.12Z</time></trkpt><trkpt lat="44.2468597" lon="11.2282352"><ele>464.79999999999995</ele><time>2026-04-26T10:18:49.12Z</time></trkpt><trkpt lat="44.2467735" lon="11.2281976"><ele>465.20000000000005</ele><time>2026-04-26T10:18:50.123Z</time></trkpt><trkpt lat="44.2466872" lon="11.2281616"><ele>465.6</ele><time>2026-04-26T10:18:51.111Z</time></trkpt><trkpt lat="44.2465947" lon="11.2281333"><ele>466.0</ele><time>2026-04-26T10:18:52.112Z</time></trkpt><trkpt lat="44.2464964" lon="11.2281137"><ele>459.8</ele><time>2026-04-26T10:18:53.124Z</time></trkpt><trkpt lat="44.2463926" lon="11.228106"><ele>453.6</ele><time>2026-04-26T10:18:54.117Z</time></trkpt><trkpt lat="44.2462866" lon="11.2281106"><ele>447.4</ele><time>2026-04-26T10:18:55.122Z</time></trkpt><trkpt lat="44.2461813" lon="11.2281165"><ele>441.2</ele><time>2026-04-26T10:18:56.129Z</time></trkpt><trkpt lat="44.2460757" lon="11.2281253"><ele>435.0</ele><time>2026-04-26T10:18:57.116Z</time></trkpt><trkpt lat="44.2459767" lon="11.2281318"><ele>435.0</ele><time>2026-04-26T10:18:58.122Z</time></trkpt><trkpt lat="44.2458838" lon="11.2281345"><ele>435.0</ele><time>2026-04-26T10:18:59.126Z</time></trkpt><trkpt lat="44.2457931" lon="11.2281286"><ele>435.0</ele><time>2026-04-26T10:19:00.112Z</time></trkpt><trkpt lat="44.245701" lon="11.2281172"><ele>435.0</ele><time>2026-04-26T10:19:01.111Z</time></trkpt><trkpt lat="44.2456076" lon="11.2280961"><ele>435.0</ele><time>2026-04-26T10:19:02.118Z</time></trkpt><trkpt lat="44.2455103" lon="11.2280668"><ele>437.3333333333333</ele><time>2026-04-26T10:19:03.122Z</time></trkpt><trkpt lat="44.2454132" lon="11.2280371"><ele>439.66666666666663</ele><time>2026-04-26T10:19:04.121Z</time></trkpt><trkpt lat="44.2453192" lon="11.2280053"><ele>442.0</ele><time>2026-04-26T10:19:05.111Z</time></trkpt><trkpt lat="44.2452361" lon="11.2279726"><ele>444.3333333333333</ele><time>2026-04-26T10:19:06.112Z</time></trkpt><trkpt lat="44.2451579" lon="11.2279423"><ele>446.66666666666663</ele><time>2026-04-26T10:19:07.123Z</time></trkpt><trkpt lat="44.2450882" lon="11.2278988"><ele>449.0</ele><time>2026-04-26T10:19:08.116Z</time></trkpt><trkpt lat="44.2450294" lon="11.227839"><ele>448.99999999999994</ele><time>2026-04-26T10:19:09.114Z</time></trkpt><trkpt lat="44.2449908" lon="11.2277593"><ele>449.0</ele><time>2026-04-26T10:19:10.108Z</time></trkpt><trkpt lat="44.2449804" lon="11.227666"><ele>449.0</ele><time>2026-04-26T10:19:11.115Z</time></trkpt><trkpt lat="44.2449964" lon="11.2275773"><ele>449.0</ele><time>2026-04-26T10:19:12.115Z</time></trkpt><trkpt lat="44.2450666" lon="11.2274337"><ele>448.99999999999994</ele><time>2026-04-26T10:19:14.117Z</time></trkpt><trkpt lat="44.2451507" lon="11.2273171"><ele>449.0</ele><time>2026-04-26T10:19:16.118Z</time></trkpt><trkpt lat="44.2452276" lon="11.2272108"><ele>448.16666666666663</ele><time>2026-04-26T10:19:18.115Z</time></trkpt><trkpt lat="44.2452973" lon="11.2271118"><ele>447.3333333333333</ele><time>2026-04-26T10:19:20.121Z</time></trkpt><trkpt lat="44.2453399" lon="11.2270017"><ele>446.5</ele><time>2026-04-26T10:19:22.114Z</time></trkpt><trkpt lat="44.2453361" lon="11.2268881"><ele>445.66666666666663</ele><time>2026-04-26T10:19:24.123Z</time></trkpt><trkpt lat="44.2452974" lon="11.2268053"><ele>444.8333333333333</ele><time>2026-04-26T10:19:26.118Z</time></trkpt><trkpt lat="44.2452405" lon="11.2267526"><ele>444.0</ele><time>2026-04-26T10:19:28.127Z</time></trkpt><trkpt lat="44.2451806" lon="11.2267148"><ele>444.0</ele><time>2026-04-26T10:19:30.103Z</time></trkpt><trkpt lat="44.2451142" lon="11.2266813"><ele>444.0</ele><time>2026-04-26T10:19:32.118Z</time></trkpt><trkpt lat="44.2450413" lon="11.2266579"><ele>444.0</ele><time>2026-04-26T10:19:34.122Z</time></trkpt><trkpt lat="44.2449598" lon="11.2266379"><ele>444.0</ele><time>2026-04-26T10:19:36.109Z</time></trkpt><trkpt lat="44.244872" lon="11.2266177"><ele>444.0</ele><time>2026-04-26T10:19:38.11Z</time></trkpt><trkpt lat="44.2447801" lon="11.226591"><ele>444.0</ele><time>2026-04-26T10:19:40.116Z</time></trkpt><trkpt lat="44.244683" lon="11.2265619"><ele>444.5</ele><time>2026-04-26T10:19:42.123Z</time></trkpt><trkpt lat="44.2445786" lon="11.2265339"><ele>445.0</ele><time>2026-04-26T10:19:44.126Z</time></trkpt><trkpt lat="44.2444702" lon="11.2265135"><ele>445.5</ele><time>2026-04-26T10:19:46.113Z</time></trkpt><trkpt lat="44.2443583" lon="11.226495"><ele>446.0</ele><time>2026-04-26T10:19:48.12Z</time></trkpt><trkpt lat="44.2442356" lon="11.2264785"><ele>445.99999999999994</ele><time>2026-04-26T10:19:50.116Z</time></trkpt><trkpt lat="44.2441672" lon="11.2264765"><ele>446.0</ele><time>2026-04-26T10:19:51.12Z</time></trkpt><trkpt lat="44.2440948" lon="11.2264751"><ele>446.0</ele><time>2026-04-26T10:19:52.121Z</time></trkpt><trkpt lat="44.2440159" lon="11.2264845"><ele>446.0</ele><time>2026-04-26T10:19:53.112Z</time></trkpt><trkpt lat="44.2439321" lon="11.2264972"><ele>445.99999999999994</ele><time>2026-04-26T10:19:54.114Z</time></trkpt><trkpt lat="44.2438457" lon="11.2265104"><ele>446.0</ele><time>2026-04-26T10:19:55.114Z</time></trkpt><trkpt lat="44.2437577" lon="11.2265248"><ele>444.99999999999994</ele><time>2026-04-26T10:19:56.115Z</time></trkpt><trkpt lat="44.2436693" lon="11.2265417"><ele>444.0</ele><time>2026-04-26T10:19:57.118Z</time></trkpt><trkpt lat="44.2435811" lon="11.2265601"><ele>443.0</ele><time>2026-04-26T10:19:58.113Z</time></trkpt><trkpt lat="44.2434934" lon="11.2265759"><ele>442.0</ele><time>2026-04-26T10:19:59.129Z</time></trkpt><trkpt lat="44.2434058" lon="11.2265915"><ele>440.99999999999994</ele><time>2026-04-26T10:20:00.109Z</time></trkpt><trkpt lat="44.2433181" lon="11.2266061"><ele>440.0</ele><time>2026-04-26T10:20:01.125Z</time></trkpt><trkpt lat="44.2432302" lon="11.2266224"><ele>440.0</ele><time>2026-04-26T10:20:02.116Z</time></trkpt><trkpt lat="44.2431409" lon="11.2266407"><ele>440.0</ele><time>2026-04-26T10:20:03.123Z</time></trkpt><trkpt lat="44.2430494" lon="11.2266565"><ele>440.0</ele><time>2026-04-26T10:20:04.111Z</time></trkpt><trkpt lat="44.2429569" lon="11.2266706"><ele>440.0</ele><time>2026-04-26T10:20:05.115Z</time></trkpt><trkpt lat="44.242864" lon="11.2266824"><ele>440.0</ele><time>2026-04-26T10:20:06.114Z</time></trkpt><trkpt lat="44.2427715" lon="11.226702"><ele>438.8</ele><time>2026-04-26T10:20:07.12Z</time></trkpt><trkpt lat="44.2426797" lon="11.2267195"><ele>437.6</ele><time>2026-04-26T10:20:08.112Z</time></trkpt><trkpt lat="44.2425894" lon="11.2267332"><ele>436.4</ele><time>2026-04-26T10:20:09.101Z</time></trkpt><trkpt lat="44.2424998" lon="11.2267399"><ele>435.2</ele><time>2026-04-26T10:20:10.113Z</time></trkpt><trkpt lat="44.2424111" lon="11.2267332"><ele>434.0</ele><time>2026-04-26T10:20:11.119Z</time></trkpt><trkpt lat="44.2423235" lon="11.2267203"><ele>433.66666666666663</ele><time>2026-04-26T10:20:12.125Z</time></trkpt><trkpt lat="44.2422361" lon="11.2267031"><ele>433.3333333333333</ele><time>2026-04-26T10:20:13.117Z</time></trkpt><trkpt lat="44.242149" lon="11.2266865"><ele>433.0</ele><time>2026-04-26T10:20:14.116Z</time></trkpt><trkpt lat="44.2420611" lon="11.2266718"><ele>432.66666666666663</ele><time>2026-04-26T10:20:15.125Z</time></trkpt><trkpt lat="44.2419734" lon="11.2266546"><ele>432.3333333333333</ele><time>2026-04-26T10:20:16.119Z</time></trkpt><trkpt lat="44.2418845" lon="11.2266373"><ele>432.0</ele><time>2026-04-26T10:20:17.126Z</time></trkpt><trkpt lat="44.2417948" lon="11.2266174"><ele>432.0</ele><time>2026-04-26T10:20:18.112Z</time></trkpt><trkpt lat="44.2417045" lon="11.2265989"><ele>432.0</ele><time>2026-04-26T10:20:19.12Z</time></trkpt><trkpt lat="44.2416144" lon="11.2265808"><ele>432.0</ele><time>2026-04-26T10:20:20.116Z</time></trkpt><trkpt lat="44.2415249" lon="11.2265633"><ele>432.0</ele><time>2026-04-26T10:20:21.109Z</time></trkpt><trkpt lat="44.2414371" lon="11.2265449"><ele>432.0</ele><time>2026-04-26T10:20:22.118Z</time></trkpt><trkpt lat="44.2413561" lon="11.2265268"><ele>432.0</ele><time>2026-04-26T10:20:23.125Z</time></trkpt><trkpt lat="44.2412861" lon="11.2265099"><ele>431.3333333333333</ele><time>2026-04-26T10:20:24.112Z</time></trkpt><trkpt lat="44.2411677" lon="11.2265042"><ele>430.66666666666663</ele><time>2026-04-26T10:20:26.114Z</time></trkpt><trkpt lat="44.2410641" lon="11.2265538"><ele>430.0</ele><time>2026-04-26T10:20:28.12Z</time></trkpt><trkpt lat="44.2410192" lon="11.2266193"><ele>429.3333333333333</ele><time>2026-04-26T10:20:29.12Z</time></trkpt><trkpt lat="44.2409776" lon="11.2267038"><ele>428.66666666666663</ele><time>2026-04-26T10:20:30.126Z</time></trkpt><trkpt lat="44.2409359" lon="11.226798"><ele>428.0</ele><time>2026-04-26T10:20:31.121Z</time></trkpt><trkpt lat="44.240892" lon="11.2268967"><ele>427.99999999999994</ele><time>2026-04-26T10:20:32.119Z</time></trkpt><trkpt lat="44.240849" lon="11.2270015"><ele>428.0</ele><time>2026-04-26T10:20:33.117Z</time></trkpt><trkpt lat="44.2408071" lon="11.2271013"><ele>428.0</ele><time>2026-04-26T10:20:34.116Z</time></trkpt><trkpt lat="44.240763" lon="11.2271798"><ele>428.0</ele><time>2026-04-26T10:20:35.123Z</time></trkpt><trkpt lat="44.2407134" lon="11.2272359"><ele>427.99999999999994</ele><time>2026-04-26T10:20:36.12Z</time></trkpt><trkpt lat="44.2406011" lon="11.2272311"><ele>428.0</ele><time>2026-04-26T10:20:38.124Z</time></trkpt><trkpt lat="44.2405453" lon="11.2270691"><ele>424.49999999999994</ele><time>2026-04-26T10:20:40.124Z</time></trkpt><trkpt lat="44.240544" lon="11.2269627"><ele>421.0</ele><time>2026-04-26T10:20:41.12Z</time></trkpt><trkpt lat="44.2405439" lon="11.2268506"><ele>417.5</ele><time>2026-04-26T10:20:42.114Z</time></trkpt><trkpt lat="44.2405381" lon="11.2267353"><ele>414.0</ele><time>2026-04-26T10:20:43.124Z</time></trkpt><trkpt lat="44.240529" lon="11.2266192"><ele>410.49999999999994</ele><time>2026-04-26T10:20:44.115Z</time></trkpt><trkpt lat="44.2405156" lon="11.2264983"><ele>407.0</ele><time>2026-04-26T10:20:45.118Z</time></trkpt><trkpt lat="44.2405021" lon="11.226372"><ele>406.8</ele><time>2026-04-26T10:20:46.121Z</time></trkpt><trkpt lat="44.2404866" lon="11.2262425"><ele>406.6</ele><time>2026-04-26T10:20:47.121Z</time></trkpt><trkpt lat="44.2404686" lon="11.2261135"><ele>406.40000000000003</ele><time>2026-04-26T10:20:48.123Z</time></trkpt><trkpt lat="44.2404508" lon="11.2259845"><ele>406.20000000000005</ele><time>2026-04-26T10:20:49.117Z</time></trkpt><trkpt lat="44.2404317" lon="11.2258553"><ele>406.0</ele><time>2026-04-26T10:20:50.124Z</time></trkpt><trkpt lat="44.2404185" lon="11.2257258"><ele>405.4</ele><time>2026-04-26T10:20:51.111Z</time></trkpt><trkpt lat="44.2404152" lon="11.2255953"><ele>404.8</ele><time>2026-04-26T10:20:52.115Z</time></trkpt><trkpt lat="44.2404188" lon="11.2254624"><ele>404.2</ele><time>2026-04-26T10:20:53.117Z</time></trkpt><trkpt lat="44.2404286" lon="11.2253305"><ele>403.59999999999997</ele><time>2026-04-26T10:20:54.113Z</time></trkpt><trkpt lat="44.2404384" lon="11.2252034"><ele>403.0</ele><time>2026-04-26T10:20:55.119Z</time></trkpt><trkpt lat="44.2404569" lon="11.2250836"><ele>403.0</ele><time>2026-04-26T10:20:56.114Z</time></trkpt><trkpt lat="44.2404696" lon="11.2249649"><ele>403.0</ele><time>2026-04-26T10:20:57.118Z</time></trkpt><trkpt lat="44.2404738" lon="11.2248596"><ele>403.0</ele><time>2026-04-26T10:20:58.125Z</time></trkpt><trkpt lat="44.24047" lon="11.2247673"><ele>403.0</ele><time>2026-04-26T10:20:59.125Z</time></trkpt><trkpt lat="44.2404118" lon="11.2246199"><ele>403.0</ele><time>2026-04-26T10:21:01.097Z</time></trkpt><trkpt lat="44.2403078" lon="11.2245803"><ele>403.00000000000006</ele><time>2026-04-26T10:21:03.11Z</time></trkpt><trkpt lat="44.2402035" lon="11.2246479"><ele>403.0</ele><time>2026-04-26T10:21:05.125Z</time></trkpt><trkpt lat="44.2401828" lon="11.2248102"><ele>403.0</ele><time>2026-04-26T10:21:07.115Z</time></trkpt><trkpt lat="44.2401834" lon="11.2248992"><ele>403.0</ele><time>2026-04-26T10:21:08.115Z</time></trkpt><trkpt lat="44.2401844" lon="11.2249974"><ele>403.00000000000006</ele><time>2026-04-26T10:21:09.113Z</time></trkpt><trkpt lat="44.240189" lon="11.2250998"><ele>403.0</ele><time>2026-04-26T10:21:10.113Z</time></trkpt><trkpt lat="44.2401909" lon="11.2252101"><ele>403.0</ele><time>2026-04-26T10:21:11.105Z</time></trkpt><trkpt lat="44.2401953" lon="11.2253254"><ele>403.0</ele><time>2026-04-26T10:21:12.129Z</time></trkpt><trkpt lat="44.2401854" lon="11.2254565"><ele>403.0</ele><time>2026-04-26T10:21:13.112Z</time></trkpt><trkpt lat="44.2401755" lon="11.2255896"><ele>403.0</ele><time>2026-04-26T10:21:14.121Z</time></trkpt><trkpt lat="44.2401655" lon="11.2257246"><ele>403.0</ele><time>2026-04-26T10:21:15.118Z</time></trkpt><trkpt lat="44.2401453" lon="11.22586"><ele>403.59999999999997</ele><time>2026-04-26T10:21:16.118Z</time></trkpt><trkpt lat="44.240121" lon="11.2259865"><ele>404.2</ele><time>2026-04-26T10:21:17.111Z</time></trkpt><trkpt lat="44.2400989" lon="11.2260967"><ele>404.8</ele><time>2026-04-26T10:21:18.12Z</time></trkpt><trkpt lat="44.2400797" lon="11.2261929"><ele>405.4</ele><time>2026-04-26T10:21:19.107Z</time></trkpt><trkpt lat="44.2400353" lon="11.2263398"><ele>406.0</ele><time>2026-04-26T10:21:21.115Z</time></trkpt><trkpt lat="44.2399458" lon="11.2263903"><ele>406.00000000000006</ele><time>2026-04-26T10:21:23.112Z</time></trkpt><trkpt lat="44.2398751" lon="11.2262703"><ele>406.0</ele><time>2026-04-26T10:21:25.117Z</time></trkpt><trkpt lat="44.2398641" lon="11.2261816"><ele>406.0</ele><time>2026-04-26T10:21:26.117Z</time></trkpt><trkpt lat="44.2398518" lon="11.2260877"><ele>406.0</ele><time>2026-04-26T10:21:27.11Z</time></trkpt><trkpt lat="44.2398378" lon="11.2259859"><ele>406.00000000000006</ele><time>2026-04-26T10:21:28.114Z</time></trkpt><trkpt lat="44.2398234" lon="11.2258771"><ele>406.0</ele><time>2026-04-26T10:21:29.12Z</time></trkpt><trkpt lat="44.2398077" lon="11.225763"><ele>404.0</ele><time>2026-04-26T10:21:30.108Z</time></trkpt><trkpt lat="44.2397906" lon="11.2256434"><ele>402.0</ele><time>2026-04-26T10:21:31.12Z</time></trkpt><trkpt lat="44.2397723" lon="11.2255184"><ele>400.0</ele><time>2026-04-26T10:21:32.112Z</time></trkpt><trkpt lat="44.2397545" lon="11.2253888"><ele>398.0</ele><time>2026-04-26T10:21:33.127Z</time></trkpt><trkpt lat="44.2397365" lon="11.2252552"><ele>396.0</ele><time>2026-04-26T10:21:34.121Z</time></trkpt><trkpt lat="44.2397197" lon="11.2251166"><ele>396.0</ele><time>2026-04-26T10:21:35.126Z</time></trkpt><trkpt lat="44.239701" lon="11.2249726"><ele>396.0</ele><time>2026-04-26T10:21:36.114Z</time></trkpt><trkpt lat="44.2396818" lon="11.2248282"><ele>396.0</ele><time>2026-04-26T10:21:37.122Z</time></trkpt><trkpt lat="44.2396629" lon="11.2246882"><ele>396.0</ele><time>2026-04-26T10:21:38.115Z</time></trkpt><trkpt lat="44.2396423" lon="11.2245545"><ele>396.0</ele><time>2026-04-26T10:21:39.113Z</time></trkpt><trkpt lat="44.2396234" lon="11.2244138"><ele>394.4</ele><time>2026-04-26T10:21:40.115Z</time></trkpt><trkpt lat="44.2396058" lon="11.2242749"><ele>392.8</ele><time>2026-04-26T10:21:41.12Z</time></trkpt><trkpt lat="44.2395983" lon="11.2241396"><ele>391.2</ele><time>2026-04-26T10:21:42.111Z</time></trkpt><trkpt lat="44.2395998" lon="11.2240136"><ele>389.59999999999997</ele><time>2026-04-26T10:21:43.111Z</time></trkpt><trkpt lat="44.2396101" lon="11.2238888"><ele>388.0</ele><time>2026-04-26T10:21:44.122Z</time></trkpt><trkpt lat="44.2396381" lon="11.2237771"><ele>388.0</ele><time>2026-04-26T10:21:45.119Z</time></trkpt><trkpt lat="44.2396864" lon="11.2236924"><ele>388.0</ele><time>2026-04-26T10:21:46.115Z</time></trkpt><trkpt lat="44.2397475" lon="11.2236402"><ele>388.0</ele><time>2026-04-26T10:21:47.115Z</time></trkpt><trkpt lat="44.2398078" lon="11.2236051"><ele>388.0</ele><time>2026-04-26T10:21:48.116Z</time></trkpt><trkpt lat="44.2399238" lon="11.2235811"><ele>388.0</ele><time>2026-04-26T10:21:50.122Z</time></trkpt><trkpt lat="44.2400408" lon="11.2235441"><ele>387.2857142857143</ele><time>2026-04-26T10:21:52.123Z</time></trkpt><trkpt lat="44.2401018" lon="11.2235161"><ele>386.5714285714286</ele><time>2026-04-26T10:21:53.113Z</time></trkpt><trkpt lat="44.2401653" lon="11.223487"><ele>385.8571428571429</ele><time>2026-04-26T10:21:54.13Z</time></trkpt><trkpt lat="44.2402311" lon="11.2234539"><ele>385.1428571428571</ele><time>2026-04-26T10:21:55.119Z</time></trkpt><trkpt lat="44.2402999" lon="11.2234175"><ele>384.42857142857144</ele><time>2026-04-26T10:21:56.118Z</time></trkpt><trkpt lat="44.2403719" lon="11.2233802"><ele>383.7142857142857</ele><time>2026-04-26T10:21:57.122Z</time></trkpt><trkpt lat="44.2404464" lon="11.2233416"><ele>383.0</ele><time>2026-04-26T10:21:58.118Z</time></trkpt><trkpt lat="44.2405232" lon="11.2232999"><ele>383.0</ele><time>2026-04-26T10:21:59.124Z</time></trkpt><trkpt lat="44.2406023" lon="11.2232571"><ele>383.0</ele><time>2026-04-26T10:22:00.125Z</time></trkpt><trkpt lat="44.240682" lon="11.2232116"><ele>383.0</ele><time>2026-04-26T10:22:01.118Z</time></trkpt><trkpt lat="44.240759" lon="11.2231553"><ele>383.0</ele><time>2026-04-26T10:22:02.113Z</time></trkpt><trkpt lat="44.2408317" lon="11.2230842"><ele>383.0</ele><time>2026-04-26T10:22:03.113Z</time></trkpt><trkpt lat="44.2408981" lon="11.2230028"><ele>383.0</ele><time>2026-04-26T10:22:04.133Z</time></trkpt><trkpt lat="44.2409594" lon="11.2229138"><ele>382.1666666666667</ele><time>2026-04-26T10:22:05.13Z</time></trkpt><trkpt lat="44.2410193" lon="11.2228236"><ele>381.33333333333337</ele><time>2026-04-26T10:22:06.112Z</time></trkpt><trkpt lat="44.2410827" lon="11.2227374"><ele>380.5</ele><time>2026-04-26T10:22:07.115Z</time></trkpt><trkpt lat="44.2411543" lon="11.2226639"><ele>379.6666666666667</ele><time>2026-04-26T10:22:08.119Z</time></trkpt><trkpt lat="44.2412328" lon="11.2226066"><ele>378.8333333333333</ele><time>2026-04-26T10:22:09.124Z</time></trkpt><trkpt lat="44.2413157" lon="11.2225652"><ele>378.0</ele><time>2026-04-26T10:22:10.121Z</time></trkpt><trkpt lat="44.2414007" lon="11.222536"><ele>377.3333333333333</ele><time>2026-04-26T10:22:11.114Z</time></trkpt><trkpt lat="44.241488" lon="11.2225238"><ele>376.6666666666667</ele><time>2026-04-26T10:22:12.121Z</time></trkpt><trkpt lat="44.241576" lon="11.2225339"><ele>376.0</ele><time>2026-04-26T10:22:13.105Z</time></trkpt><trkpt lat="44.2416627" lon="11.2225696"><ele>375.33333333333337</ele><time>2026-04-26T10:22:14.117Z</time></trkpt><trkpt lat="44.2417449" lon="11.2226254"><ele>374.6666666666667</ele><time>2026-04-26T10:22:15.113Z</time></trkpt><trkpt lat="44.2418244" lon="11.2226868"><ele>374.0</ele><time>2026-04-26T10:22:16.115Z</time></trkpt><trkpt lat="44.2419061" lon="11.2227456"><ele>374.0</ele><time>2026-04-26T10:22:17.109Z</time></trkpt><trkpt lat="44.2419903" lon="11.2227985"><ele>374.0</ele><time>2026-04-26T10:22:18.121Z</time></trkpt><trkpt lat="44.2420783" lon="11.2228401"><ele>374.0</ele><time>2026-04-26T10:22:19.118Z</time></trkpt><trkpt lat="44.2421691" lon="11.2228741"><ele>374.0</ele><time>2026-04-26T10:22:20.128Z</time></trkpt><trkpt lat="44.2422619" lon="11.2229032"><ele>374.0</ele><time>2026-04-26T10:22:21.115Z</time></trkpt><trkpt lat="44.2423561" lon="11.2229314"><ele>373.2</ele><time>2026-04-26T10:22:22.124Z</time></trkpt><trkpt lat="44.2424513" lon="11.2229594"><ele>372.4</ele><time>2026-04-26T10:22:23.116Z</time></trkpt><trkpt lat="44.242548" lon="11.222986"><ele>371.6</ele><time>2026-04-26T10:22:24.117Z</time></trkpt><trkpt lat="44.2426447" lon="11.2230077"><ele>370.8</ele><time>2026-04-26T10:22:25.128Z</time></trkpt><trkpt lat="44.2427423" lon="11.2230301"><ele>370.0</ele><time>2026-04-26T10:22:26.126Z</time></trkpt><trkpt lat="44.2428397" lon="11.2230523"><ele>370.0</ele><time>2026-04-26T10:22:27.13Z</time></trkpt><trkpt lat="44.2429353" lon="11.2230747"><ele>370.0</ele><time>2026-04-26T10:22:28.122Z</time></trkpt><trkpt lat="44.2430286" lon="11.2230968"><ele>370.0</ele><time>2026-04-26T10:22:29.127Z</time></trkpt><trkpt lat="44.2431195" lon="11.2231181"><ele>370.0</ele><time>2026-04-26T10:22:30.121Z</time></trkpt><trkpt lat="44.2432082" lon="11.223138"><ele>370.0</ele><time>2026-04-26T10:22:31.114Z</time></trkpt><trkpt lat="44.2432944" lon="11.2231579"><ele>370.0</ele><time>2026-04-26T10:22:32.121Z</time></trkpt><trkpt lat="44.2433763" lon="11.2231832"><ele>370.0</ele><time>2026-04-26T10:22:33.118Z</time></trkpt><trkpt lat="44.2434537" lon="11.2232178"><ele>370.0</ele><time>2026-04-26T10:22:34.113Z</time></trkpt><trkpt lat="44.2435255" lon="11.223266"><ele>370.0</ele><time>2026-04-26T10:22:35.121Z</time></trkpt><trkpt lat="44.2435918" lon="11.2233268"><ele>370.0</ele><time>2026-04-26T10:22:36.116Z</time></trkpt><trkpt lat="44.2436542" lon="11.223393"><ele>370.0</ele><time>2026-04-26T10:22:37.122Z</time></trkpt><trkpt lat="44.2437162" lon="11.2234587"><ele>370.0</ele><time>2026-04-26T10:22:38.136Z</time></trkpt><trkpt lat="44.2437798" lon="11.2235179"><ele>370.0</ele><time>2026-04-26T10:22:39.127Z</time></trkpt><trkpt lat="44.2438468" lon="11.2235653"><ele>370.0</ele><time>2026-04-26T10:22:40.124Z</time></trkpt><trkpt lat="44.2439169" lon="11.2236024"><ele>370.0</ele><time>2026-04-26T10:22:41.111Z</time></trkpt><trkpt lat="44.243989" lon="11.2236264"><ele>370.0</ele><time>2026-04-26T10:22:42.112Z</time></trkpt><trkpt lat="44.2440633" lon="11.2236304"><ele>370.0</ele><time>2026-04-26T10:22:43.117Z</time></trkpt><trkpt lat="44.2441388" lon="11.2236176"><ele>370.0</ele><time>2026-04-26T10:22:44.122Z</time></trkpt><trkpt lat="44.2442152" lon="11.2235934"><ele>370.0</ele><time>2026-04-26T10:22:45.128Z</time></trkpt><trkpt lat="44.2442935" lon="11.2235675"><ele>370.0</ele><time>2026-04-26T10:22:46.116Z</time></trkpt><trkpt lat="44.2443752" lon="11.2235429"><ele>370.0</ele><time>2026-04-26T10:22:47.109Z</time></trkpt><trkpt lat="44.2444602" lon="11.2235218"><ele>370.0</ele><time>2026-04-26T10:22:48.121Z</time></trkpt><trkpt lat="44.2445472" lon="11.2234994"><ele>370.0</ele><time>2026-04-26T10:22:49.105Z</time></trkpt><trkpt lat="44.2446364" lon="11.223478"><ele>370.0</ele><time>2026-04-26T10:22:50.102Z</time></trkpt><trkpt lat="44.2447263" lon="11.2234534"><ele>370.0</ele><time>2026-04-26T10:22:51.113Z</time></trkpt><trkpt lat="44.2448162" lon="11.2234292"><ele>370.0</ele><time>2026-04-26T10:22:52.111Z</time></trkpt><trkpt lat="44.2449041" lon="11.2234064"><ele>370.0</ele><time>2026-04-26T10:22:53.109Z</time></trkpt><trkpt lat="44.2449882" lon="11.2233821"><ele>370.0</ele><time>2026-04-26T10:22:54.116Z</time></trkpt><trkpt lat="44.2450689" lon="11.2233602"><ele>370.0</ele><time>2026-04-26T10:22:55.111Z</time></trkpt><trkpt lat="44.2451467" lon="11.2233514"><ele>369.8333333333333</ele><time>2026-04-26T10:22:56.113Z</time></trkpt><trkpt lat="44.2452209" lon="11.2233565"><ele>369.66666666666663</ele><time>2026-04-26T10:22:57.12Z</time></trkpt><trkpt lat="44.2452896" lon="11.2233689"><ele>369.5</ele><time>2026-04-26T10:22:58.118Z</time></trkpt><trkpt lat="44.2453523" lon="11.2233913"><ele>369.3333333333333</ele><time>2026-04-26T10:22:59.118Z</time></trkpt><trkpt lat="44.245461" lon="11.2234521"><ele>369.1666666666667</ele><time>2026-04-26T10:23:01.119Z</time></trkpt><trkpt lat="44.24556" lon="11.2234959"><ele>369.0</ele><time>2026-04-26T10:23:03.114Z</time></trkpt><trkpt lat="44.2456544" lon="11.2235184"><ele>368.79999999999995</ele><time>2026-04-26T10:23:05.113Z</time></trkpt><trkpt lat="44.2457493" lon="11.2235334"><ele>368.59999999999997</ele><time>2026-04-26T10:23:07.122Z</time></trkpt><trkpt lat="44.2458461" lon="11.2235406"><ele>368.4</ele><time>2026-04-26T10:23:09.108Z</time></trkpt><trkpt lat="44.2459443" lon="11.2235438"><ele>368.2</ele><time>2026-04-26T10:23:11.129Z</time></trkpt><trkpt lat="44.2460459" lon="11.2235414"><ele>368.0</ele><time>2026-04-26T10:23:13.109Z</time></trkpt><trkpt lat="44.2461476" lon="11.2235276"><ele>368.0</ele><time>2026-04-26T10:23:15.122Z</time></trkpt><trkpt lat="44.2462471" lon="11.223512"><ele>368.0</ele><time>2026-04-26T10:23:17.116Z</time></trkpt><trkpt lat="44.2463405" lon="11.2234983"><ele>368.0</ele><time>2026-04-26T10:23:19.121Z</time></trkpt><trkpt lat="44.2464294" lon="11.2234868"><ele>368.0</ele><time>2026-04-26T10:23:21.127Z</time></trkpt><trkpt lat="44.2465084" lon="11.2234744"><ele>368.0</ele><time>2026-04-26T10:23:23.113Z</time></trkpt><trkpt lat="44.2465763" lon="11.2234517"><ele>368.0</ele><time>2026-04-26T10:23:25.122Z</time></trkpt><trkpt lat="44.2466333" lon="11.2234107"><ele>368.5</ele><time>2026-04-26T10:23:27.111Z</time></trkpt><trkpt lat="44.2466983" lon="11.223355"><ele>369.0</ele><time>2026-04-26T10:23:30.126Z</time></trkpt><trkpt lat="44.2467513" lon="11.2232869"><ele>369.5</ele><time>2026-04-26T10:23:33.118Z</time></trkpt><trkpt lat="44.2468059" lon="11.223204"><ele>370.0</ele><time>2026-04-26T10:24:01.114Z</time></trkpt><trkpt lat="44.2468436" lon="11.2233036"><ele>370.5</ele><time>2026-04-26T11:01:27.121Z</time></trkpt><trkpt lat="44.2469188" lon="11.2233681"><ele>371.0</ele><time>2026-04-26T11:01:31.117Z</time></trkpt><trkpt lat="44.2469911" lon="11.2233828"><ele>371.0</ele><time>2026-04-26T11:01:33.119Z</time></trkpt><trkpt lat="44.2471223" lon="11.2232765"><ele>371.0</ele><time>2026-04-26T11:01:35.108Z</time></trkpt><trkpt lat="44.2472176" lon="11.2232307"><ele>371.0</ele><time>2026-04-26T11:01:37.107Z</time></trkpt><trkpt lat="44.2473169" lon="11.2231819"><ele>371.0</ele><time>2026-04-26T11:01:39.111Z</time></trkpt><trkpt lat="44.2474244" lon="11.2231395"><ele>370.6</ele><time>2026-04-26T11:01:41.118Z</time></trkpt><trkpt lat="44.247543" lon="11.2231458"><ele>370.20000000000005</ele><time>2026-04-26T11:01:43.117Z</time></trkpt><trkpt lat="44.2476413" lon="11.2232457"><ele>369.79999999999995</ele><time>2026-04-26T11:01:45.111Z</time></trkpt><trkpt lat="44.2476953" lon="11.2234062"><ele>369.4</ele><time>2026-04-26T11:01:47.123Z</time></trkpt><trkpt lat="44.2477154" lon="11.223494"><ele>369.0</ele><time>2026-04-26T11:01:48.127Z</time></trkpt><trkpt lat="44.2477361" lon="11.223585"><ele>369.0</ele><time>2026-04-26T11:01:49.118Z</time></trkpt><trkpt lat="44.247752" lon="11.2236771"><ele>369.0</ele><time>2026-04-26T11:01:50.117Z</time></trkpt><trkpt lat="44.2477679" lon="11.2237699"><ele>369.0</ele><time>2026-04-26T11:01:51.125Z</time></trkpt><trkpt lat="44.2477846" lon="11.2238635"><ele>369.0</ele><time>2026-04-26T11:01:52.116Z</time></trkpt><trkpt lat="44.2478029" lon="11.2239544"><ele>369.0</ele><time>2026-04-26T11:01:53.112Z</time></trkpt><trkpt lat="44.2478245" lon="11.2240452"><ele>369.0</ele><time>2026-04-26T11:01:54.113Z</time></trkpt><trkpt lat="44.2478507" lon="11.2241358"><ele>369.0</ele><time>2026-04-26T11:01:55.124Z</time></trkpt><trkpt lat="44.2478873" lon="11.2242171"><ele>368.7142857142857</ele><time>2026-04-26T11:01:56.115Z</time></trkpt><trkpt lat="44.2479359" lon="11.2242885"><ele>368.42857142857144</ele><time>2026-04-26T11:01:57.116Z</time></trkpt><trkpt lat="44.2479963" lon="11.2243414"><ele>368.1428571428571</ele><time>2026-04-26T11:01:58.117Z</time></trkpt><trkpt lat="44.248065" lon="11.2243707"><ele>367.8571428571429</ele><time>2026-04-26T11:01:59.118Z</time></trkpt><trkpt lat="44.2481346" lon="11.2243725"><ele>367.5714285714286</ele><time>2026-04-26T11:02:00.114Z</time></trkpt><trkpt lat="44.2482021" lon="11.2243485"><ele>367.2857142857143</ele><time>2026-04-26T11:02:01.11Z</time></trkpt><trkpt lat="44.2482655" lon="11.2243084"><ele>367.0</ele><time>2026-04-26T11:02:02.115Z</time></trkpt><trkpt lat="44.2483264" lon="11.2242574"><ele>367.0</ele><time>2026-04-26T11:02:03.124Z</time></trkpt><trkpt lat="44.2483856" lon="11.2242006"><ele>367.0</ele><time>2026-04-26T11:02:04.11Z</time></trkpt><trkpt lat="44.2484473" lon="11.2241441"><ele>367.0</ele><time>2026-04-26T11:02:05.109Z</time></trkpt><trkpt lat="44.2485132" lon="11.2240915"><ele>367.0</ele><time>2026-04-26T11:02:06.114Z</time></trkpt><trkpt lat="44.2485852" lon="11.2240497"><ele>367.0</ele><time>2026-04-26T11:02:07.115Z</time></trkpt><trkpt lat="44.2486607" lon="11.2240183"><ele>367.0</ele><time>2026-04-26T11:02:08.118Z</time></trkpt><trkpt lat="44.2487392" lon="11.2239941"><ele>365.3333333333333</ele><time>2026-04-26T11:02:09.114Z</time></trkpt><trkpt lat="44.2488195" lon="11.2239773"><ele>363.66666666666663</ele><time>2026-04-26T11:02:10.12Z</time></trkpt><trkpt lat="44.2489019" lon="11.2239636"><ele>362.0</ele><time>2026-04-26T11:02:11.11Z</time></trkpt><trkpt lat="44.2489854" lon="11.2239508"><ele>360.3333333333333</ele><time>2026-04-26T11:02:12.119Z</time></trkpt><trkpt lat="44.2490709" lon="11.2239394"><ele>358.6666666666667</ele><time>2026-04-26T11:02:13.12Z</time></trkpt><trkpt lat="44.2491576" lon="11.2239267"><ele>357.0</ele><time>2026-04-26T11:02:14.123Z</time></trkpt><trkpt lat="44.2492455" lon="11.2239159"><ele>356.1666666666667</ele><time>2026-04-26T11:02:15.12Z</time></trkpt><trkpt lat="44.2493329" lon="11.2239095"><ele>355.3333333333333</ele><time>2026-04-26T11:02:16.119Z</time></trkpt><trkpt lat="44.2494181" lon="11.2239097"><ele>354.5</ele><time>2026-04-26T11:02:17.118Z</time></trkpt><trkpt lat="44.2494991" lon="11.2239176"><ele>353.66666666666663</ele><time>2026-04-26T11:02:18.114Z</time></trkpt><trkpt lat="44.2495761" lon="11.2239351"><ele>352.8333333333333</ele><time>2026-04-26T11:02:19.116Z</time></trkpt><trkpt lat="44.2496495" lon="11.2239595"><ele>352.0</ele><time>2026-04-26T11:02:20.111Z</time></trkpt><trkpt lat="44.2497206" lon="11.223991"><ele>353.42857142857144</ele><time>2026-04-26T11:02:21.112Z</time></trkpt><trkpt lat="44.2497881" lon="11.2240293"><ele>354.85714285714283</ele><time>2026-04-26T11:02:22.108Z</time></trkpt><trkpt lat="44.2498527" lon="11.2240741"><ele>356.2857142857143</ele><time>2026-04-26T11:02:23.11Z</time></trkpt><trkpt lat="44.249913" lon="11.2241282"><ele>357.7142857142857</ele><time>2026-04-26T11:02:24.11Z</time></trkpt><trkpt lat="44.24997" lon="11.2241918"><ele>359.1428571428571</ele><time>2026-04-26T11:02:25.127Z</time></trkpt><trkpt lat="44.2500237" lon="11.2242598"><ele>360.57142857142856</ele><time>2026-04-26T11:02:26.107Z</time></trkpt><trkpt lat="44.2500752" lon="11.2243296"><ele>362.0</ele><time>2026-04-26T11:02:27.119Z</time></trkpt><trkpt lat="44.2501256" lon="11.2243999"><ele>362.0</ele><time>2026-04-26T11:02:28.115Z</time></trkpt><trkpt lat="44.2501755" lon="11.2244654"><ele>362.0</ele><time>2026-04-26T11:02:29.111Z</time></trkpt><trkpt lat="44.2502271" lon="11.2245252"><ele>362.0</ele><time>2026-04-26T11:02:30.114Z</time></trkpt><trkpt lat="44.2502793" lon="11.2245774"><ele>362.0</ele><time>2026-04-26T11:02:31.108Z</time></trkpt><trkpt lat="44.2503901" lon="11.2246564"><ele>362.0</ele><time>2026-04-26T11:02:33.12Z</time></trkpt><trkpt lat="44.2505085" lon="11.2246661"><ele>362.0</ele><time>2026-04-26T11:02:35.115Z</time></trkpt><trkpt lat="44.2506277" lon="11.2246368"><ele>362.5</ele><time>2026-04-26T11:02:37.113Z</time></trkpt><trkpt lat="44.2507485" lon="11.224603"><ele>363.0</ele><time>2026-04-26T11:02:39.117Z</time></trkpt><trkpt lat="44.2508657" lon="11.2245441"><ele>363.5</ele><time>2026-04-26T11:02:41.109Z</time></trkpt><trkpt lat="44.2509666" lon="11.2244435"><ele>364.0</ele><time>2026-04-26T11:02:43.119Z</time></trkpt><trkpt lat="44.2510198" lon="11.2242943"><ele>364.0</ele><time>2026-04-26T11:02:45.113Z</time></trkpt><trkpt lat="44.2510369" lon="11.2241334"><ele>364.0</ele><time>2026-04-26T11:02:47.109Z</time></trkpt><trkpt lat="44.2510346" lon="11.2239767"><ele>364.0</ele><time>2026-04-26T11:02:49.114Z</time></trkpt><trkpt lat="44.2510252" lon="11.223822"><ele>364.0</ele><time>2026-04-26T11:02:51.109Z</time></trkpt><trkpt lat="44.2510176" lon="11.2236738"><ele>364.0</ele><time>2026-04-26T11:02:53.114Z</time></trkpt><trkpt lat="44.2510139" lon="11.2235313"><ele>363.6</ele><time>2026-04-26T11:02:55.109Z</time></trkpt><trkpt lat="44.2510294" lon="11.2233941"><ele>363.2</ele><time>2026-04-26T11:02:57.124Z</time></trkpt><trkpt lat="44.2510638" lon="11.2232599"><ele>362.8</ele><time>2026-04-26T11:02:59.124Z</time></trkpt><trkpt lat="44.251121" lon="11.2231322"><ele>362.40000000000003</ele><time>2026-04-26T11:03:01.127Z</time></trkpt><trkpt lat="44.2512033" lon="11.223024"><ele>362.0</ele><time>2026-04-26T11:03:03.108Z</time></trkpt><trkpt lat="44.2513017" lon="11.2229372"><ele>360.83333333333337</ele><time>2026-04-26T11:03:05.114Z</time></trkpt><trkpt lat="44.251415" lon="11.2228827"><ele>359.6666666666667</ele><time>2026-04-26T11:03:07.128Z</time></trkpt><trkpt lat="44.2515392" lon="11.2228692"><ele>358.5</ele><time>2026-04-26T11:03:09.117Z</time></trkpt><trkpt lat="44.2516026" lon="11.2228778"><ele>357.3333333333333</ele><time>2026-04-26T11:03:10.118Z</time></trkpt><trkpt lat="44.2516658" lon="11.2228981"><ele>356.16666666666663</ele><time>2026-04-26T11:03:11.12Z</time></trkpt><trkpt lat="44.2517272" lon="11.2229278"><ele>355.0</ele><time>2026-04-26T11:03:12.124Z</time></trkpt><trkpt lat="44.2517886" lon="11.2229659"><ele>354.2857142857143</ele><time>2026-04-26T11:03:13.12Z</time></trkpt><trkpt lat="44.2518496" lon="11.2230089"><ele>353.57142857142856</ele><time>2026-04-26T11:03:14.134Z</time></trkpt><trkpt lat="44.2519104" lon="11.2230571"><ele>352.8571428571429</ele><time>2026-04-26T11:03:15.124Z</time></trkpt><trkpt lat="44.2519717" lon="11.2231091"><ele>352.1428571428571</ele><time>2026-04-26T11:03:16.115Z</time></trkpt><trkpt lat="44.2520336" lon="11.2231661"><ele>351.42857142857144</ele><time>2026-04-26T11:03:17.119Z</time></trkpt><trkpt lat="44.252092" lon="11.223235"><ele>350.7142857142857</ele><time>2026-04-26T11:03:18.116Z</time></trkpt><trkpt lat="44.2521445" lon="11.2233177"><ele>350.0</ele><time>2026-04-26T11:03:19.111Z</time></trkpt><trkpt lat="44.2521978" lon="11.2234031"><ele>351.33333333333337</ele><time>2026-04-26T11:03:20.12Z</time></trkpt><trkpt lat="44.25224" lon="11.2235042"><ele>352.6666666666667</ele><time>2026-04-26T11:03:21.104Z</time></trkpt><trkpt lat="44.2522851" lon="11.2236089"><ele>354.0</ele><time>2026-04-26T11:03:22.115Z</time></trkpt><trkpt lat="44.2523294" lon="11.2237124"><ele>355.3333333333333</ele><time>2026-04-26T11:03:23.111Z</time></trkpt><trkpt lat="44.2523925" lon="11.2237975"><ele>356.66666666666663</ele><time>2026-04-26T11:03:24.104Z</time></trkpt><trkpt lat="44.2524739" lon="11.2238556"><ele>358.0</ele><time>2026-04-26T11:03:25.111Z</time></trkpt><trkpt lat="44.2525665" lon="11.2238724"><ele>358.0</ele><time>2026-04-26T11:03:26.094Z</time></trkpt><trkpt lat="44.2526635" lon="11.2238499"><ele>358.0</ele><time>2026-04-26T11:03:27.124Z</time></trkpt><trkpt lat="44.2527591" lon="11.2238021"><ele>358.0</ele><time>2026-04-26T11:03:28.108Z</time></trkpt><trkpt lat="44.2528531" lon="11.2237404"><ele>358.0</ele><time>2026-04-26T11:03:29.118Z</time></trkpt><trkpt lat="44.2529441" lon="11.2236669"><ele>358.0</ele><time>2026-04-26T11:03:30.128Z</time></trkpt><trkpt lat="44.2530269" lon="11.2235743"><ele>358.0</ele><time>2026-04-26T11:03:31.122Z</time></trkpt><trkpt lat="44.2530987" lon="11.223467"><ele>358.0</ele><time>2026-04-26T11:03:32.127Z</time></trkpt><trkpt lat="44.2531689" lon="11.2233563"><ele>358.0</ele><time>2026-04-26T11:03:33.12Z</time></trkpt><trkpt lat="44.2532485" lon="11.2232548"><ele>358.0</ele><time>2026-04-26T11:03:34.117Z</time></trkpt><trkpt lat="44.2533419" lon="11.2231854"><ele>358.0</ele><time>2026-04-26T11:03:35.125Z</time></trkpt><trkpt lat="44.2534445" lon="11.223151"><ele>358.2</ele><time>2026-04-26T11:03:36.114Z</time></trkpt><trkpt lat="44.2535505" lon="11.2231561"><ele>358.4</ele><time>2026-04-26T11:03:37.125Z</time></trkpt><trkpt lat="44.2536556" lon="11.2231882"><ele>358.59999999999997</ele><time>2026-04-26T11:03:38.11Z</time></trkpt><trkpt lat="44.2537618" lon="11.2232229"><ele>358.79999999999995</ele><time>2026-04-26T11:03:39.117Z</time></trkpt><trkpt lat="44.2538725" lon="11.2232337"><ele>359.0</ele><time>2026-04-26T11:03:40.114Z</time></trkpt><trkpt lat="44.2539806" lon="11.2232398"><ele>359.79999999999995</ele><time>2026-04-26T11:03:41.113Z</time></trkpt><trkpt lat="44.2540746" lon="11.223185"><ele>360.59999999999997</ele><time>2026-04-26T11:03:42.113Z</time></trkpt><trkpt lat="44.2541616" lon="11.2231011"><ele>361.4</ele><time>2026-04-26T11:03:43.123Z</time></trkpt><trkpt lat="44.2542357" lon="11.2230105"><ele>362.2</ele><time>2026-04-26T11:03:44.106Z</time></trkpt><trkpt lat="44.2543043" lon="11.2229205"><ele>363.0</ele><time>2026-04-26T11:03:45.112Z</time></trkpt><trkpt lat="44.2543764" lon="11.2228294"><ele>360.2</ele><time>2026-04-26T11:03:46.123Z</time></trkpt><trkpt lat="44.2544617" lon="11.2227743"><ele>357.4</ele><time>2026-04-26T11:03:47.122Z</time></trkpt><trkpt lat="44.2545505" lon="11.222739"><ele>354.59999999999997</ele><time>2026-04-26T11:03:48.118Z</time></trkpt><trkpt lat="44.2546391" lon="11.2227031"><ele>351.79999999999995</ele><time>2026-04-26T11:03:49.11Z</time></trkpt><trkpt lat="44.2547269" lon="11.2226553"><ele>349.0</ele><time>2026-04-26T11:03:50.121Z</time></trkpt><trkpt lat="44.2548094" lon="11.222592"><ele>349.0</ele><time>2026-04-26T11:03:51.112Z</time></trkpt><trkpt lat="44.2548839" lon="11.2225133"><ele>349.0</ele><time>2026-04-26T11:03:52.11Z</time></trkpt><trkpt lat="44.2549547" lon="11.2224266"><ele>349.0</ele><time>2026-04-26T11:03:53.126Z</time></trkpt><trkpt lat="44.2550271" lon="11.2223428"><ele>349.0</ele><time>2026-04-26T11:03:54.118Z</time></trkpt><trkpt lat="44.2551105" lon="11.2222742"><ele>349.0</ele><time>2026-04-26T11:03:55.112Z</time></trkpt><trkpt lat="44.255202" lon="11.2222236"><ele>344.2</ele><time>2026-04-26T11:03:56.121Z</time></trkpt><trkpt lat="44.2552965" lon="11.2221874"><ele>339.4</ele><time>2026-04-26T11:03:57.118Z</time></trkpt><trkpt lat="44.2553935" lon="11.2221665"><ele>334.6</ele><time>2026-04-26T11:03:58.116Z</time></trkpt><trkpt lat="44.2554908" lon="11.2221549"><ele>329.8</ele><time>2026-04-26T11:03:59.119Z</time></trkpt><trkpt lat="44.2555902" lon="11.222145"><ele>325.0</ele><time>2026-04-26T11:04:00.134Z</time></trkpt><trkpt lat="44.2556901" lon="11.2221336"><ele>325.0</ele><time>2026-04-26T11:04:01.124Z</time></trkpt><trkpt lat="44.2557921" lon="11.2221288"><ele>325.0</ele><time>2026-04-26T11:04:02.127Z</time></trkpt><trkpt lat="44.2558952" lon="11.2221231"><ele>325.0</ele><time>2026-04-26T11:04:03.115Z</time></trkpt><trkpt lat="44.2559992" lon="11.2221256"><ele>325.0</ele><time>2026-04-26T11:04:04.116Z</time></trkpt><trkpt lat="44.2561018" lon="11.2221452"><ele>325.0</ele><time>2026-04-26T11:04:05.114Z</time></trkpt><trkpt lat="44.2562017" lon="11.2221873"><ele>325.0</ele><time>2026-04-26T11:04:06.112Z</time></trkpt><trkpt lat="44.2562951" lon="11.2222519"><ele>325.0</ele><time>2026-04-26T11:04:07.12Z</time></trkpt><trkpt lat="44.2563831" lon="11.2223354"><ele>325.0</ele><time>2026-04-26T11:04:08.106Z</time></trkpt><trkpt lat="44.2564687" lon="11.222429"><ele>325.0</ele><time>2026-04-26T11:04:09.117Z</time></trkpt><trkpt lat="44.2565543" lon="11.2225269"><ele>325.0</ele><time>2026-04-26T11:04:10.111Z</time></trkpt><trkpt lat="44.2566392" lon="11.222628"><ele>328.0</ele><time>2026-04-26T11:04:11.099Z</time></trkpt><trkpt lat="44.2567252" lon="11.2227288"><ele>331.0</ele><time>2026-04-26T11:04:12.11Z</time></trkpt><trkpt lat="44.2568146" lon="11.2228211"><ele>334.0</ele><time>2026-04-26T11:04:13.116Z</time></trkpt><trkpt lat="44.2569109" lon="11.2228932"><ele>337.0</ele><time>2026-04-26T11:04:14.124Z</time></trkpt><trkpt lat="44.2570143" lon="11.222936"><ele>340.0</ele><time>2026-04-26T11:04:15.118Z</time></trkpt><trkpt lat="44.2571192" lon="11.2229477"><ele>340.0</ele><time>2026-04-26T11:04:16.119Z</time></trkpt><trkpt lat="44.2572206" lon="11.2229311"><ele>340.0</ele><time>2026-04-26T11:04:17.125Z</time></trkpt><trkpt lat="44.2573176" lon="11.222893"><ele>340.0</ele><time>2026-04-26T11:04:18.12Z</time></trkpt><trkpt lat="44.2574084" lon="11.2228444"><ele>340.0</ele><time>2026-04-26T11:04:19.119Z</time></trkpt><trkpt lat="44.2574958" lon="11.2227911"><ele>340.0</ele><time>2026-04-26T11:04:20.115Z</time></trkpt><trkpt lat="44.2575833" lon="11.2227405"><ele>338.2</ele><time>2026-04-26T11:04:21.121Z</time></trkpt><trkpt lat="44.2576725" lon="11.2226952"><ele>336.4</ele><time>2026-04-26T11:04:22.123Z</time></trkpt><trkpt lat="44.2577666" lon="11.222658"><ele>334.6</ele><time>2026-04-26T11:04:23.122Z</time></trkpt><trkpt lat="44.2578658" lon="11.2226385"><ele>332.8</ele><time>2026-04-26T11:04:24.116Z</time></trkpt><trkpt lat="44.2579672" lon="11.2226417"><ele>331.0</ele><time>2026-04-26T11:04:25.127Z</time></trkpt><trkpt lat="44.2580683" lon="11.2226496"><ele>330.6</ele><time>2026-04-26T11:04:26.125Z</time></trkpt><trkpt lat="44.2581711" lon="11.222649"><ele>330.20000000000005</ele><time>2026-04-26T11:04:27.127Z</time></trkpt><trkpt lat="44.2582739" lon="11.2226351"><ele>329.79999999999995</ele><time>2026-04-26T11:04:28.126Z</time></trkpt><trkpt lat="44.2583734" lon="11.2226016"><ele>329.4</ele><time>2026-04-26T11:04:29.111Z</time></trkpt><trkpt lat="44.2584689" lon="11.2225539"><ele>329.0</ele><time>2026-04-26T11:04:30.121Z</time></trkpt><trkpt lat="44.2585626" lon="11.2225067"><ele>329.0</ele><time>2026-04-26T11:04:31.116Z</time></trkpt><trkpt lat="44.2586563" lon="11.2224639"><ele>329.0</ele><time>2026-04-26T11:04:32.123Z</time></trkpt><trkpt lat="44.2587473" lon="11.2224182"><ele>329.0</ele><time>2026-04-26T11:04:33.111Z</time></trkpt><trkpt lat="44.2588346" lon="11.2223678"><ele>329.0</ele><time>2026-04-26T11:04:34.116Z</time></trkpt><trkpt lat="44.2589166" lon="11.2223072"><ele>329.0</ele><time>2026-04-26T11:04:35.101Z</time></trkpt><trkpt lat="44.2589881" lon="11.2222265"><ele>328.0</ele><time>2026-04-26T11:04:36.116Z</time></trkpt><trkpt lat="44.2590481" lon="11.222126"><ele>327.0</ele><time>2026-04-26T11:04:37.1Z</time></trkpt><trkpt lat="44.2590967" lon="11.2220116"><ele>326.0</ele><time>2026-04-26T11:04:38.109Z</time></trkpt><trkpt lat="44.2591356" lon="11.2218855"><ele>325.0</ele><time>2026-04-26T11:04:39.113Z</time></trkpt><trkpt lat="44.2591736" lon="11.2217554"><ele>324.0</ele><time>2026-04-26T11:04:40.114Z</time></trkpt><trkpt lat="44.259216" lon="11.2216245"><ele>324.0</ele><time>2026-04-26T11:04:41.119Z</time></trkpt><trkpt lat="44.2592647" lon="11.2214978"><ele>324.0</ele><time>2026-04-26T11:04:42.126Z</time></trkpt><trkpt lat="44.259323" lon="11.2213784"><ele>324.0</ele><time>2026-04-26T11:04:43.12Z</time></trkpt><trkpt lat="44.2593928" lon="11.2212699"><ele>324.0</ele><time>2026-04-26T11:04:44.123Z</time></trkpt><trkpt lat="44.2594705" lon="11.221168"><ele>324.0</ele><time>2026-04-26T11:04:45.127Z</time></trkpt><trkpt lat="44.2595536" lon="11.2210717"><ele>322.59999999999997</ele><time>2026-04-26T11:04:46.118Z</time></trkpt><trkpt lat="44.259643" lon="11.2209848"><ele>321.2</ele><time>2026-04-26T11:04:47.108Z</time></trkpt><trkpt lat="44.2597377" lon="11.2209117"><ele>319.79999999999995</ele><time>2026-04-26T11:04:48.12Z</time></trkpt><trkpt lat="44.2598363" lon="11.2208468"><ele>318.4</ele><time>2026-04-26T11:04:49.132Z</time></trkpt><trkpt lat="44.2599351" lon="11.2207831"><ele>317.0</ele><time>2026-04-26T11:04:50.13Z</time></trkpt><trkpt lat="44.2600258" lon="11.2207188"><ele>317.0</ele><time>2026-04-26T11:04:51.114Z</time></trkpt><trkpt lat="44.2601105" lon="11.220658"><ele>317.0</ele><time>2026-04-26T11:04:52.114Z</time></trkpt><trkpt lat="44.2601616" lon="11.2205516"><ele>317.0</ele><time>2026-04-26T11:04:53.12Z</time></trkpt><trkpt lat="44.2601783" lon="11.220427"><ele>317.0</ele><time>2026-04-26T11:04:54.122Z</time></trkpt><trkpt lat="44.2601636" lon="11.2202994"><ele>317.0</ele><time>2026-04-26T11:04:55.121Z</time></trkpt><trkpt lat="44.2601462" lon="11.2201699"><ele>316.6</ele><time>2026-04-26T11:04:56.118Z</time></trkpt><trkpt lat="44.260094" lon="11.2200576"><ele>316.2</ele><time>2026-04-26T11:04:57.12Z</time></trkpt><trkpt lat="44.2600346" lon="11.219946"><ele>315.8</ele><time>2026-04-26T11:04:58.117Z</time></trkpt><trkpt lat="44.2599744" lon="11.2198329"><ele>315.4</ele><time>2026-04-26T11:04:59.117Z</time></trkpt><trkpt lat="44.2599192" lon="11.2197224"><ele>315.0</ele><time>2026-04-26T11:05:00.113Z</time></trkpt><trkpt lat="44.2598844" lon="11.2196135"><ele>313.1666666666667</ele><time>2026-04-26T11:05:01.111Z</time></trkpt><trkpt lat="44.2598802" lon="11.2195067"><ele>311.3333333333333</ele><time>2026-04-26T11:05:02.118Z</time></trkpt><trkpt lat="44.2599147" lon="11.2194047"><ele>309.5</ele><time>2026-04-26T11:05:03.121Z</time></trkpt><trkpt lat="44.2599762" lon="11.2193276"><ele>307.66666666666663</ele><time>2026-04-26T11:05:04.115Z</time></trkpt><trkpt lat="44.2600493" lon="11.2192663"><ele>305.8333333333333</ele><time>2026-04-26T11:05:05.125Z</time></trkpt><trkpt lat="44.2601254" lon="11.2192069"><ele>304.0</ele><time>2026-04-26T11:05:06.127Z</time></trkpt><trkpt lat="44.2602006" lon="11.2191417"><ele>304.0</ele><time>2026-04-26T11:05:07.127Z</time></trkpt><trkpt lat="44.2602768" lon="11.2190727"><ele>304.0</ele><time>2026-04-26T11:05:08.122Z</time></trkpt><trkpt lat="44.260354" lon="11.2190044"><ele>304.0</ele><time>2026-04-26T11:05:09.126Z</time></trkpt><trkpt lat="44.2604314" lon="11.2189381"><ele>304.0</ele><time>2026-04-26T11:05:10.131Z</time></trkpt><trkpt lat="44.2605109" lon="11.2188728"><ele>304.0</ele><time>2026-04-26T11:05:11.127Z</time></trkpt><trkpt lat="44.2605927" lon="11.2188078"><ele>303.0</ele><time>2026-04-26T11:05:12.111Z</time></trkpt><trkpt lat="44.2606765" lon="11.2187449"><ele>302.0</ele><time>2026-04-26T11:05:13.117Z</time></trkpt><trkpt lat="44.2607614" lon="11.2186842"><ele>301.0</ele><time>2026-04-26T11:05:14.134Z</time></trkpt><trkpt lat="44.2608463" lon="11.218623"><ele>300.0</ele><time>2026-04-26T11:05:15.119Z</time></trkpt><trkpt lat="44.2609314" lon="11.2185593"><ele>299.0</ele><time>2026-04-26T11:05:16.119Z</time></trkpt><trkpt lat="44.2610139" lon="11.218489"><ele>299.0</ele><time>2026-04-26T11:05:17.122Z</time></trkpt><trkpt lat="44.2610907" lon="11.2184061"><ele>299.0</ele><time>2026-04-26T11:05:18.12Z</time></trkpt><trkpt lat="44.2611626" lon="11.2183129"><ele>299.0</ele><time>2026-04-26T11:05:19.12Z</time></trkpt><trkpt lat="44.2612343" lon="11.2182206"><ele>299.0</ele><time>2026-04-26T11:05:20.112Z</time></trkpt><trkpt lat="44.2613037" lon="11.2181258"><ele>299.0</ele><time>2026-04-26T11:05:21.118Z</time></trkpt><trkpt lat="44.2613789" lon="11.2180347"><ele>298.0</ele><time>2026-04-26T11:05:22.119Z</time></trkpt><trkpt lat="44.2614583" lon="11.2179471"><ele>297.0</ele><time>2026-04-26T11:05:23.119Z</time></trkpt><trkpt lat="44.2615375" lon="11.2178591"><ele>296.0</ele><time>2026-04-26T11:05:24.118Z</time></trkpt><trkpt lat="44.2616193" lon="11.2177726"><ele>295.0</ele><time>2026-04-26T11:05:25.134Z</time></trkpt><trkpt lat="44.2616993" lon="11.2176846"><ele>294.0</ele><time>2026-04-26T11:05:26.125Z</time></trkpt><trkpt lat="44.2617779" lon="11.2175934"><ele>294.0</ele><time>2026-04-26T11:05:27.125Z</time></trkpt><trkpt lat="44.2618573" lon="11.2175046"><ele>294.0</ele><time>2026-04-26T11:05:28.117Z</time></trkpt><trkpt lat="44.2619352" lon="11.2174151"><ele>294.0</ele><time>2026-04-26T11:05:29.125Z</time></trkpt><trkpt lat="44.2620139" lon="11.2173285"><ele>294.0</ele><time>2026-04-26T11:05:30.121Z</time></trkpt><trkpt lat="44.2620924" lon="11.2172459"><ele>294.0</ele><time>2026-04-26T11:05:31.128Z</time></trkpt><trkpt lat="44.2621739" lon="11.2171688"><ele>293.0</ele><time>2026-04-26T11:05:32.129Z</time></trkpt><trkpt lat="44.2622585" lon="11.2170985"><ele>292.0</ele><time>2026-04-26T11:05:33.119Z</time></trkpt><trkpt lat="44.2623468" lon="11.2170371"><ele>291.0</ele><time>2026-04-26T11:05:34.126Z</time></trkpt><trkpt lat="44.2624395" lon="11.2169872"><ele>290.0</ele><time>2026-04-26T11:05:35.119Z</time></trkpt><trkpt lat="44.2625351" lon="11.2169482"><ele>289.0</ele><time>2026-04-26T11:05:36.114Z</time></trkpt><trkpt lat="44.2626295" lon="11.2169163"><ele>289.0</ele><time>2026-04-26T11:05:37.125Z</time></trkpt><trkpt lat="44.2627225" lon="11.2168901"><ele>289.0</ele><time>2026-04-26T11:05:38.124Z</time></trkpt><trkpt lat="44.2628122" lon="11.216864"><ele>289.0</ele><time>2026-04-26T11:05:39.119Z</time></trkpt><trkpt lat="44.2628991" lon="11.2168368"><ele>289.0</ele><time>2026-04-26T11:05:40.114Z</time></trkpt><trkpt lat="44.2629828" lon="11.2168078"><ele>289.0</ele><time>2026-04-26T11:05:41.123Z</time></trkpt><trkpt lat="44.2630614" lon="11.2167738"><ele>289.0</ele><time>2026-04-26T11:05:42.12Z</time></trkpt><trkpt lat="44.2631335" lon="11.2167314"><ele>289.2857142857143</ele><time>2026-04-26T11:05:43.11Z</time></trkpt><trkpt lat="44.2632029" lon="11.2166857"><ele>289.57142857142856</ele><time>2026-04-26T11:05:44.126Z</time></trkpt><trkpt lat="44.2632693" lon="11.216636"><ele>289.85714285714283</ele><time>2026-04-26T11:05:45.119Z</time></trkpt><trkpt lat="44.2633329" lon="11.216583"><ele>290.1428571428571</ele><time>2026-04-26T11:05:46.118Z</time></trkpt><trkpt lat="44.2633952" lon="11.2165303"><ele>290.4285714285714</ele><time>2026-04-26T11:05:47.122Z</time></trkpt><trkpt lat="44.2634569" lon="11.216479"><ele>290.7142857142857</ele><time>2026-04-26T11:05:48.12Z</time></trkpt><trkpt lat="44.2635194" lon="11.2164264"><ele>291.0</ele><time>2026-04-26T11:05:49.112Z</time></trkpt><trkpt lat="44.2635815" lon="11.2163695"><ele>291.1666666666667</ele><time>2026-04-26T11:05:50.124Z</time></trkpt><trkpt lat="44.2636435" lon="11.2163096"><ele>291.3333333333333</ele><time>2026-04-26T11:05:51.128Z</time></trkpt><trkpt lat="44.2637063" lon="11.2162462"><ele>291.5</ele><time>2026-04-26T11:05:52.123Z</time></trkpt><trkpt lat="44.2637695" lon="11.2161765"><ele>291.66666666666663</ele><time>2026-04-26T11:05:53.12Z</time></trkpt><trkpt lat="44.2638308" lon="11.2160995"><ele>291.8333333333333</ele><time>2026-04-26T11:05:54.118Z</time></trkpt><trkpt lat="44.2638922" lon="11.216019"><ele>292.0</ele><time>2026-04-26T11:05:55.122Z</time></trkpt><trkpt lat="44.2639566" lon="11.2159409"><ele>292.0</ele><time>2026-04-26T11:05:56.118Z</time></trkpt><trkpt lat="44.2640253" lon="11.2158662"><ele>292.0</ele><time>2026-04-26T11:05:57.119Z</time></trkpt><trkpt lat="44.2640981" lon="11.2157972"><ele>292.0</ele><time>2026-04-26T11:05:58.126Z</time></trkpt><trkpt lat="44.2641734" lon="11.2157357"><ele>292.0</ele><time>2026-04-26T11:05:59.12Z</time></trkpt><trkpt lat="44.2642505" lon="11.2156786"><ele>292.0</ele><time>2026-04-26T11:06:00.116Z</time></trkpt><trkpt lat="44.2643265" lon="11.2156245"><ele>292.0</ele><time>2026-04-26T11:06:01.123Z</time></trkpt><trkpt lat="44.2644017" lon="11.2155752"><ele>292.0</ele><time>2026-04-26T11:06:02.124Z</time></trkpt><trkpt lat="44.2644763" lon="11.2155263"><ele>292.0</ele><time>2026-04-26T11:06:03.118Z</time></trkpt><trkpt lat="44.2645498" lon="11.2154795"><ele>292.0</ele><time>2026-04-26T11:06:04.119Z</time></trkpt><trkpt lat="44.2646212" lon="11.2154336"><ele>292.0</ele><time>2026-04-26T11:06:05.127Z</time></trkpt><trkpt lat="44.2646887" lon="11.2153817"><ele>292.0</ele><time>2026-04-26T11:06:06.116Z</time></trkpt><trkpt lat="44.2647505" lon="11.2153195"><ele>292.0</ele><time>2026-04-26T11:06:07.118Z</time></trkpt><trkpt lat="44.2648054" lon="11.2152467"><ele>292.0</ele><time>2026-04-26T11:06:08.117Z</time></trkpt><trkpt lat="44.2648552" lon="11.2151678"><ele>292.0</ele><time>2026-04-26T11:06:09.12Z</time></trkpt><trkpt lat="44.2649028" lon="11.2150877"><ele>292.0</ele><time>2026-04-26T11:06:10.124Z</time></trkpt><trkpt lat="44.2649484" lon="11.2150068"><ele>292.0</ele><time>2026-04-26T11:06:11.123Z</time></trkpt><trkpt lat="44.2649925" lon="11.214928"><ele>292.0</ele><time>2026-04-26T11:06:12.122Z</time></trkpt><trkpt lat="44.2650361" lon="11.2148513"><ele>292.0</ele><time>2026-04-26T11:06:13.121Z</time></trkpt><trkpt lat="44.2650814" lon="11.2147797"><ele>292.0</ele><time>2026-04-26T11:06:14.118Z</time></trkpt><trkpt lat="44.2651303" lon="11.2147171"><ele>290.42857142857144</ele><time>2026-04-26T11:06:15.125Z</time></trkpt><trkpt lat="44.2651853" lon="11.2146673"><ele>288.8571428571429</ele><time>2026-04-26T11:06:16.127Z</time></trkpt><trkpt lat="44.265245" lon="11.2146322"><ele>287.28571428571433</ele><time>2026-04-26T11:06:17.13Z</time></trkpt><trkpt lat="44.2653055" lon="11.2146039"><ele>285.7142857142857</ele><time>2026-04-26T11:06:18.128Z</time></trkpt><trkpt lat="44.2653664" lon="11.2145786"><ele>284.14285714285717</ele><time>2026-04-26T11:06:19.121Z</time></trkpt><trkpt lat="44.2654284" lon="11.2145531"><ele>282.5714285714286</ele><time>2026-04-26T11:06:20.114Z</time></trkpt><trkpt lat="44.2654898" lon="11.2145306"><ele>281.0</ele><time>2026-04-26T11:06:21.13Z</time></trkpt><trkpt lat="44.2656108" lon="11.2144867"><ele>284.0</ele><time>2026-04-26T11:06:23.126Z</time></trkpt><trkpt lat="44.2657235" lon="11.2144331"><ele>287.0</ele><time>2026-04-26T11:06:25.131Z</time></trkpt><trkpt lat="44.26583" lon="11.2143773"><ele>290.0</ele><time>2026-04-26T11:06:27.128Z</time></trkpt><trkpt lat="44.2659308" lon="11.2143117"><ele>293.0</ele><time>2026-04-26T11:06:29.122Z</time></trkpt><trkpt lat="44.2660255" lon="11.2142369"><ele>293.0</ele><time>2026-04-26T11:06:31.114Z</time></trkpt><trkpt lat="44.2661102" lon="11.2141467"><ele>293.0</ele><time>2026-04-26T11:06:33.13Z</time></trkpt><trkpt lat="44.2661895" lon="11.2140579"><ele>293.0</ele><time>2026-04-26T11:06:35.126Z</time></trkpt><trkpt lat="44.2662677" lon="11.2139704"><ele>293.0</ele><time>2026-04-26T11:06:37.117Z</time></trkpt><trkpt lat="44.2663461" lon="11.2138853"><ele>293.0</ele><time>2026-04-26T11:06:39.122Z</time></trkpt><trkpt lat="44.2664334" lon="11.2138215"><ele>292.0</ele><time>2026-04-26T11:06:41.114Z</time></trkpt><trkpt lat="44.2665311" lon="11.2137794"><ele>291.0</ele><time>2026-04-26T11:06:43.108Z</time></trkpt><trkpt lat="44.2666295" lon="11.2137498"><ele>290.0</ele><time>2026-04-26T11:06:45.113Z</time></trkpt><trkpt lat="44.2667289" lon="11.2137045"><ele>289.0</ele><time>2026-04-26T11:06:47.121Z</time></trkpt><trkpt lat="44.2668221" lon="11.213635"><ele>288.0</ele><time>2026-04-26T11:06:49.122Z</time></trkpt><trkpt lat="44.2669021" lon="11.2135384"><ele>288.0</ele><time>2026-04-26T11:06:51.118Z</time></trkpt><trkpt lat="44.266979" lon="11.2134325"><ele>288.0</ele><time>2026-04-26T11:06:53.114Z</time></trkpt><trkpt lat="44.2670614" lon="11.2133305"><ele>288.0</ele><time>2026-04-26T11:06:55.126Z</time></trkpt><trkpt lat="44.2671573" lon="11.2132539"><ele>288.0</ele><time>2026-04-26T11:06:57.114Z</time></trkpt><trkpt lat="44.2672658" lon="11.2132115"><ele>288.0</ele><time>2026-04-26T11:06:59.123Z</time></trkpt><trkpt lat="44.2673748" lon="11.2131868"><ele>287.0</ele><time>2026-04-26T11:07:01.122Z</time></trkpt><trkpt lat="44.2674809" lon="11.2131593"><ele>286.0</ele><time>2026-04-26T11:07:03.119Z</time></trkpt><trkpt lat="44.2675841" lon="11.2131173"><ele>285.0</ele><time>2026-04-26T11:07:05.119Z</time></trkpt><trkpt lat="44.2676853" lon="11.213057"><ele>284.0</ele><time>2026-04-26T11:07:07.123Z</time></trkpt><trkpt lat="44.2677783" lon="11.2129704"><ele>283.0</ele><time>2026-04-26T11:07:09.116Z</time></trkpt><trkpt lat="44.2678661" lon="11.2128632"><ele>283.0</ele><time>2026-04-26T11:07:11.126Z</time></trkpt><trkpt lat="44.2679551" lon="11.2127522"><ele>283.0</ele><time>2026-04-26T11:07:13.129Z</time></trkpt><trkpt lat="44.2680461" lon="11.2126411"><ele>283.0</ele><time>2026-04-26T11:07:15.125Z</time></trkpt><trkpt lat="44.2681417" lon="11.2125364"><ele>283.0</ele><time>2026-04-26T11:07:17.12Z</time></trkpt><trkpt lat="44.2682437" lon="11.212452"><ele>284.4</ele><time>2026-04-26T11:07:19.124Z</time></trkpt><trkpt lat="44.2683441" lon="11.212374"><ele>285.8</ele><time>2026-04-26T11:07:21.124Z</time></trkpt><trkpt lat="44.2684418" lon="11.2122979"><ele>287.2</ele><time>2026-04-26T11:07:23.126Z</time></trkpt><trkpt lat="44.2685389" lon="11.2122253"><ele>288.6</ele><time>2026-04-26T11:07:25.125Z</time></trkpt><trkpt lat="44.2686338" lon="11.2121536"><ele>290.0</ele><time>2026-04-26T11:07:27.119Z</time></trkpt><trkpt lat="44.2687281" lon="11.2120792"><ele>290.0</ele><time>2026-04-26T11:07:29.119Z</time></trkpt><trkpt lat="44.2688197" lon="11.2120042"><ele>290.0</ele><time>2026-04-26T11:07:31.119Z</time></trkpt><trkpt lat="44.2689091" lon="11.2119319"><ele>290.0</ele><time>2026-04-26T11:07:33.122Z</time></trkpt><trkpt lat="44.2689982" lon="11.2118593"><ele>290.0</ele><time>2026-04-26T11:07:35.122Z</time></trkpt><trkpt lat="44.2690878" lon="11.2117838"><ele>290.0</ele><time>2026-04-26T11:07:37.115Z</time></trkpt><trkpt lat="44.269176" lon="11.2117027"><ele>289.8</ele><time>2026-04-26T11:07:39.124Z</time></trkpt><trkpt lat="44.2692644" lon="11.2116207"><ele>289.6</ele><time>2026-04-26T11:07:41.125Z</time></trkpt><trkpt lat="44.2693536" lon="11.2115326"><ele>289.4</ele><time>2026-04-26T11:07:43.12Z</time></trkpt><trkpt lat="44.2694377" lon="11.2114244"><ele>289.2</ele><time>2026-04-26T11:07:45.119Z</time></trkpt><trkpt lat="44.2695087" lon="11.2112947"><ele>289.0</ele><time>2026-04-26T11:07:47.125Z</time></trkpt><trkpt lat="44.2695664" lon="11.2111522"><ele>289.0</ele><time>2026-04-26T11:07:49.135Z</time></trkpt><trkpt lat="44.269611" lon="11.2109996"><ele>289.0</ele><time>2026-04-26T11:07:51.111Z</time></trkpt><trkpt lat="44.2696502" lon="11.210844"><ele>289.0</ele><time>2026-04-26T11:07:53.127Z</time></trkpt><trkpt lat="44.2696927" lon="11.2106873"><ele>289.0</ele><time>2026-04-26T11:07:55.133Z</time></trkpt><trkpt lat="44.2697507" lon="11.2105374"><ele>289.2857142857143</ele><time>2026-04-26T11:07:57.123Z</time></trkpt><trkpt lat="44.2698398" lon="11.2104138"><ele>289.57142857142856</ele><time>2026-04-26T11:07:59.116Z</time></trkpt><trkpt lat="44.2698929" lon="11.2103647"><ele>289.85714285714283</ele><time>2026-04-26T11:08:00.118Z</time></trkpt><trkpt lat="44.2699516" lon="11.2103264"><ele>290.1428571428571</ele><time>2026-04-26T11:08:01.117Z</time></trkpt><trkpt lat="44.2700127" lon="11.2103018"><ele>290.4285714285714</ele><time>2026-04-26T11:08:02.121Z</time></trkpt><trkpt lat="44.2700763" lon="11.2102889"><ele>290.7142857142857</ele><time>2026-04-26T11:08:03.133Z</time></trkpt><trkpt lat="44.2701393" lon="11.2102878"><ele>291.0</ele><time>2026-04-26T11:08:04.127Z</time></trkpt><trkpt lat="44.2702626" lon="11.2103142"><ele>291.0</ele><time>2026-04-26T11:08:06.121Z</time></trkpt><trkpt lat="44.2703825" lon="11.2103529"><ele>291.0</ele><time>2026-04-26T11:08:08.118Z</time></trkpt><trkpt lat="44.2705039" lon="11.2103673"><ele>291.0</ele><time>2026-04-26T11:08:10.121Z</time></trkpt><trkpt lat="44.2706224" lon="11.2103331"><ele>291.0</ele><time>2026-04-26T11:08:12.124Z</time></trkpt><trkpt lat="44.2707354" lon="11.210258"><ele>292.2857142857143</ele><time>2026-04-26T11:08:14.119Z</time></trkpt><trkpt lat="44.2707901" lon="11.2102117"><ele>293.57142857142856</ele><time>2026-04-26T11:08:15.12Z</time></trkpt><trkpt lat="44.2708434" lon="11.2101619"><ele>294.85714285714283</ele><time>2026-04-26T11:08:16.134Z</time></trkpt><trkpt lat="44.2708964" lon="11.2101122"><ele>296.1428571428571</ele><time>2026-04-26T11:08:17.125Z</time></trkpt><trkpt lat="44.2709504" lon="11.2100625"><ele>297.42857142857144</ele><time>2026-04-26T11:08:18.12Z</time></trkpt><trkpt lat="44.2710059" lon="11.2100167"><ele>298.71428571428567</ele><time>2026-04-26T11:08:19.123Z</time></trkpt><trkpt lat="44.2710603" lon="11.2099704"><ele>300.0</ele><time>2026-04-26T11:08:20.123Z</time></trkpt><trkpt lat="44.2711659" lon="11.2098746"><ele>299.57142857142856</ele><time>2026-04-26T11:08:22.119Z</time></trkpt><trkpt lat="44.2712187" lon="11.2098236"><ele>299.1428571428571</ele><time>2026-04-26T11:08:23.116Z</time></trkpt><trkpt lat="44.271273" lon="11.2097751"><ele>298.7142857142857</ele><time>2026-04-26T11:08:24.118Z</time></trkpt><trkpt lat="44.2713279" lon="11.2097254"><ele>298.2857142857143</ele><time>2026-04-26T11:08:25.127Z</time></trkpt><trkpt lat="44.2713827" lon="11.2096755"><ele>297.8571428571429</ele><time>2026-04-26T11:08:26.116Z</time></trkpt><trkpt lat="44.2714382" lon="11.209625"><ele>297.42857142857144</ele><time>2026-04-26T11:08:27.12Z</time></trkpt><trkpt lat="44.2714968" lon="11.2095706"><ele>297.0</ele><time>2026-04-26T11:08:28.122Z</time></trkpt><trkpt lat="44.2715535" lon="11.2095174"><ele>297.0</ele><time>2026-04-26T11:08:29.119Z</time></trkpt><trkpt lat="44.2716102" lon="11.2094636"><ele>297.0</ele><time>2026-04-26T11:08:30.118Z</time></trkpt><trkpt lat="44.2716683" lon="11.2094103"><ele>297.0</ele><time>2026-04-26T11:08:31.126Z</time></trkpt><trkpt lat="44.2717267" lon="11.2093554"><ele>297.0</ele><time>2026-04-26T11:08:32.117Z</time></trkpt><trkpt lat="44.2717847" lon="11.2092978"><ele>297.0</ele><time>2026-04-26T11:08:33.127Z</time></trkpt><trkpt lat="44.2718441" lon="11.2092387"><ele>297.0</ele><time>2026-04-26T11:08:34.121Z</time></trkpt><trkpt lat="44.271904" lon="11.2091776"><ele>297.0</ele><time>2026-04-26T11:08:35.121Z</time></trkpt><trkpt lat="44.2719649" lon="11.2091162"><ele>297.0</ele><time>2026-04-26T11:08:36.129Z</time></trkpt><trkpt lat="44.2720231" lon="11.2090493"><ele>297.0</ele><time>2026-04-26T11:08:37.123Z</time></trkpt><trkpt lat="44.2720752" lon="11.2089749"><ele>297.0</ele><time>2026-04-26T11:08:38.126Z</time></trkpt><trkpt lat="44.2721241" lon="11.2088949"><ele>297.0</ele><time>2026-04-26T11:08:39.129Z</time></trkpt><trkpt lat="44.2721718" lon="11.2088124"><ele>297.0</ele><time>2026-04-26T11:08:40.121Z</time></trkpt><trkpt lat="44.2722186" lon="11.2087279"><ele>297.0</ele><time>2026-04-26T11:08:41.125Z</time></trkpt><trkpt lat="44.2722669" lon="11.2086404"><ele>297.0</ele><time>2026-04-26T11:08:42.121Z</time></trkpt><trkpt lat="44.2723177" lon="11.2085517"><ele>297.0</ele><time>2026-04-26T11:08:43.126Z</time></trkpt><trkpt lat="44.2723703" lon="11.2084615"><ele>297.0</ele><time>2026-04-26T11:08:44.127Z</time></trkpt><trkpt lat="44.2724238" lon="11.2083674"><ele>297.0</ele><time>2026-04-26T11:08:45.12Z</time></trkpt><trkpt lat="44.2724788" lon="11.2082708"><ele>297.0</ele><time>2026-04-26T11:08:46.12Z</time></trkpt><trkpt lat="44.2725336" lon="11.2081719"><ele>297.0</ele><time>2026-04-26T11:08:47.116Z</time></trkpt><trkpt lat="44.2725902" lon="11.2080714"><ele>294.6</ele><time>2026-04-26T11:08:48.118Z</time></trkpt><trkpt lat="44.2726482" lon="11.207971"><ele>292.2</ele><time>2026-04-26T11:08:49.11Z</time></trkpt><trkpt lat="44.2727088" lon="11.2078691"><ele>289.8</ele><time>2026-04-26T11:08:50.119Z</time></trkpt><trkpt lat="44.2727695" lon="11.2077661"><ele>287.4</ele><time>2026-04-26T11:08:51.125Z</time></trkpt><trkpt lat="44.2728285" lon="11.2076587"><ele>285.0</ele><time>2026-04-26T11:08:52.119Z</time></trkpt><trkpt lat="44.2728862" lon="11.2075481"><ele>285.0</ele><time>2026-04-26T11:08:53.115Z</time></trkpt><trkpt lat="44.27294" lon="11.2074341"><ele>285.0</ele><time>2026-04-26T11:08:54.117Z</time></trkpt><trkpt lat="44.2729891" lon="11.2073166"><ele>285.0</ele><time>2026-04-26T11:08:55.119Z</time></trkpt><trkpt lat="44.2730376" lon="11.2071995"><ele>285.0</ele><time>2026-04-26T11:08:56.123Z</time></trkpt><trkpt lat="44.2730843" lon="11.2070812"><ele>285.0</ele><time>2026-04-26T11:08:57.134Z</time></trkpt><trkpt lat="44.2731321" lon="11.2069633"><ele>285.8</ele><time>2026-04-26T11:08:58.118Z</time></trkpt><trkpt lat="44.2731835" lon="11.2068478"><ele>286.6</ele><time>2026-04-26T11:08:59.123Z</time></trkpt><trkpt lat="44.2732414" lon="11.2067377"><ele>287.4</ele><time>2026-04-26T11:09:00.118Z</time></trkpt><trkpt lat="44.2733068" lon="11.2066349"><ele>288.2</ele><time>2026-04-26T11:09:01.129Z</time></trkpt><trkpt lat="44.2733799" lon="11.2065422"><ele>289.0</ele><time>2026-04-26T11:09:02.119Z</time></trkpt><trkpt lat="44.2734592" lon="11.2064614"><ele>286.8</ele><time>2026-04-26T11:09:03.119Z</time></trkpt><trkpt lat="44.2735436" lon="11.2063925"><ele>284.59999999999997</ele><time>2026-04-26T11:09:04.112Z</time></trkpt><trkpt lat="44.2736324" lon="11.2063352"><ele>282.4</ele><time>2026-04-26T11:09:05.12Z</time></trkpt><trkpt lat="44.2737249" lon="11.2062909"><ele>280.2</ele><time>2026-04-26T11:09:06.117Z</time></trkpt><trkpt lat="44.2738204" lon="11.2062592"><ele>278.0</ele><time>2026-04-26T11:09:07.123Z</time></trkpt><trkpt lat="44.2739177" lon="11.2062386"><ele>278.2</ele><time>2026-04-26T11:09:08.124Z</time></trkpt><trkpt lat="44.2740164" lon="11.2062225"><ele>278.4</ele><time>2026-04-26T11:09:09.119Z</time></trkpt><trkpt lat="44.274116" lon="11.2062091"><ele>278.59999999999997</ele><time>2026-04-26T11:09:10.122Z</time></trkpt><trkpt lat="44.2742154" lon="11.2061955"><ele>278.8</ele><time>2026-04-26T11:09:11.125Z</time></trkpt><trkpt lat="44.2743138" lon="11.2061817"><ele>279.0</ele><time>2026-04-26T11:09:12.128Z</time></trkpt><trkpt lat="44.2744113" lon="11.2061624"><ele>279.0</ele><time>2026-04-26T11:09:13.129Z</time></trkpt><trkpt lat="44.274506" lon="11.2061364"><ele>279.0</ele><time>2026-04-26T11:09:14.125Z</time></trkpt><trkpt lat="44.2745997" lon="11.2061014"><ele>279.0</ele><time>2026-04-26T11:09:15.132Z</time></trkpt><trkpt lat="44.2746903" lon="11.2060579"><ele>279.0</ele><time>2026-04-26T11:09:16.132Z</time></trkpt><trkpt lat="44.2747779" lon="11.2060063"><ele>279.0</ele><time>2026-04-26T11:09:17.118Z</time></trkpt><trkpt lat="44.2748616" lon="11.2059465"><ele>279.0</ele><time>2026-04-26T11:09:18.116Z</time></trkpt><trkpt lat="44.2749394" lon="11.2058733"><ele>279.0</ele><time>2026-04-26T11:09:19.121Z</time></trkpt><trkpt lat="44.2750091" lon="11.2057862"><ele>279.0</ele><time>2026-04-26T11:09:20.113Z</time></trkpt><trkpt lat="44.2750738" lon="11.2056925"><ele>279.0</ele><time>2026-04-26T11:09:21.122Z</time></trkpt><trkpt lat="44.2751332" lon="11.2055907"><ele>279.0</ele><time>2026-04-26T11:09:22.125Z</time></trkpt><trkpt lat="44.2751861" lon="11.2054826"><ele>279.0</ele><time>2026-04-26T11:09:23.119Z</time></trkpt><trkpt lat="44.2752338" lon="11.2053691"><ele>279.0</ele><time>2026-04-26T11:09:24.122Z</time></trkpt><trkpt lat="44.2752739" lon="11.2052504"><ele>279.0</ele><time>2026-04-26T11:09:25.122Z</time></trkpt><trkpt lat="44.2753079" lon="11.2051297"><ele>279.0</ele><time>2026-04-26T11:09:26.115Z</time></trkpt><trkpt lat="44.2753405" lon="11.2050085"><ele>279.0</ele><time>2026-04-26T11:09:27.125Z</time></trkpt><trkpt lat="44.2753746" lon="11.204888"><ele>280.59999999999997</ele><time>2026-04-26T11:09:28.127Z</time></trkpt><trkpt lat="44.2754168" lon="11.2047717"><ele>282.2</ele><time>2026-04-26T11:09:29.119Z</time></trkpt><trkpt lat="44.2754719" lon="11.2046644"><ele>283.79999999999995</ele><time>2026-04-26T11:09:30.114Z</time></trkpt><trkpt lat="44.2755366" lon="11.2045682"><ele>285.4</ele><time>2026-04-26T11:09:31.125Z</time></trkpt><trkpt lat="44.2756073" lon="11.2044819"><ele>287.0</ele><time>2026-04-26T11:09:32.128Z</time></trkpt><trkpt lat="44.2756783" lon="11.2043976"><ele>287.0</ele><time>2026-04-26T11:09:33.105Z</time></trkpt><trkpt lat="44.2757446" lon="11.2043091"><ele>287.0</ele><time>2026-04-26T11:09:34.12Z</time></trkpt><trkpt lat="44.2758049" lon="11.2042165"><ele>287.0</ele><time>2026-04-26T11:09:35.13Z</time></trkpt><trkpt lat="44.2758615" lon="11.2041252"><ele>287.0</ele><time>2026-04-26T11:09:36.119Z</time></trkpt><trkpt lat="44.2759148" lon="11.2040377"><ele>287.0</ele><time>2026-04-26T11:09:37.125Z</time></trkpt><trkpt lat="44.2759627" lon="11.2039527"><ele>287.0</ele><time>2026-04-26T11:09:38.118Z</time></trkpt><trkpt lat="44.2760055" lon="11.2038694"><ele>284.0</ele><time>2026-04-26T11:09:39.134Z</time></trkpt><trkpt lat="44.2760466" lon="11.2037914"><ele>281.0</ele><time>2026-04-26T11:09:40.12Z</time></trkpt><trkpt lat="44.2760866" lon="11.2037183"><ele>278.0</ele><time>2026-04-26T11:09:41.129Z</time></trkpt><trkpt lat="44.2761247" lon="11.2036483"><ele>275.0</ele><time>2026-04-26T11:09:42.119Z</time></trkpt><trkpt lat="44.2761964" lon="11.2035181"><ele>272.0</ele><time>2026-04-26T11:09:44.117Z</time></trkpt><trkpt lat="44.2762615" lon="11.2033977"><ele>269.0</ele><time>2026-04-26T11:09:46.121Z</time></trkpt><trkpt lat="44.2763195" lon="11.2032824"><ele>269.0</ele><time>2026-04-26T11:09:48.113Z</time></trkpt><trkpt lat="44.276376" lon="11.2031644"><ele>269.0</ele><time>2026-04-26T11:09:50.12Z</time></trkpt><trkpt lat="44.2764312" lon="11.2030402"><ele>269.0</ele><time>2026-04-26T11:09:52.128Z</time></trkpt><trkpt lat="44.2764875" lon="11.2029151"><ele>269.0</ele><time>2026-04-26T11:09:54.115Z</time></trkpt><trkpt lat="44.2765455" lon="11.2027891"><ele>269.0</ele><time>2026-04-26T11:09:56.126Z</time></trkpt><trkpt lat="44.2766068" lon="11.2026445"><ele>269.6666666666667</ele><time>2026-04-26T11:09:58.122Z</time></trkpt><trkpt lat="44.2766374" lon="11.202566"><ele>270.33333333333337</ele><time>2026-04-26T11:09:59.123Z</time></trkpt><trkpt lat="44.2766681" lon="11.2024851"><ele>271.0</ele><time>2026-04-26T11:10:00.127Z</time></trkpt><trkpt lat="44.2766904" lon="11.2024007"><ele>271.6666666666667</ele><time>2026-04-26T11:10:01.121Z</time></trkpt><trkpt lat="44.2766638" lon="11.2022404"><ele>272.3333333333333</ele><time>2026-04-26T11:10:03.119Z</time></trkpt><trkpt lat="44.2765523" lon="11.2021864"><ele>273.0</ele><time>2026-04-26T11:10:05.126Z</time></trkpt><trkpt lat="44.2764946" lon="11.202224"><ele>273.0</ele><time>2026-04-26T11:10:06.115Z</time></trkpt><trkpt lat="44.276451" lon="11.2022941"><ele>273.0</ele><time>2026-04-26T11:10:07.117Z</time></trkpt><trkpt lat="44.2764204" lon="11.202381"><ele>273.0</ele><time>2026-04-26T11:10:08.123Z</time></trkpt><trkpt lat="44.2763961" lon="11.2024762"><ele>273.0</ele><time>2026-04-26T11:10:09.121Z</time></trkpt><trkpt lat="44.2763719" lon="11.2025767"><ele>273.0</ele><time>2026-04-26T11:10:10.126Z</time></trkpt><trkpt lat="44.2763465" lon="11.2026813"><ele>273.0</ele><time>2026-04-26T11:10:11.108Z</time></trkpt><trkpt lat="44.2763187" lon="11.2027896"><ele>273.0</ele><time>2026-04-26T11:10:12.117Z</time></trkpt><trkpt lat="44.2762883" lon="11.2028974"><ele>272.3333333333333</ele><time>2026-04-26T11:10:13.135Z</time></trkpt><trkpt lat="44.2762564" lon="11.2030002"><ele>271.6666666666667</ele><time>2026-04-26T11:10:14.117Z</time></trkpt><trkpt lat="44.276221" lon="11.2030943"><ele>271.0</ele><time>2026-04-26T11:10:15.12Z</time></trkpt><trkpt lat="44.276178" lon="11.2031648"><ele>270.33333333333337</ele><time>2026-04-26T11:10:16.113Z</time></trkpt><trkpt lat="44.2760767" lon="11.2031769"><ele>269.6666666666667</ele><time>2026-04-26T11:10:18.119Z</time></trkpt><trkpt lat="44.2760455" lon="11.2030274"><ele>269.0</ele><time>2026-04-26T11:10:20.123Z</time></trkpt><trkpt lat="44.2760697" lon="11.2029447"><ele>268.2857142857143</ele><time>2026-04-26T11:10:21.111Z</time></trkpt><trkpt lat="44.2761032" lon="11.2028666"><ele>267.5714285714286</ele><time>2026-04-26T11:10:22.118Z</time></trkpt><trkpt lat="44.2761353" lon="11.2027856"><ele>266.8571428571429</ele><time>2026-04-26T11:10:23.126Z</time></trkpt><trkpt lat="44.2761593" lon="11.2026985"><ele>266.14285714285717</ele><time>2026-04-26T11:10:24.13Z</time></trkpt><trkpt lat="44.2761737" lon="11.2026042"><ele>265.42857142857144</ele><time>2026-04-26T11:10:25.124Z</time></trkpt><trkpt lat="44.2761746" lon="11.2025046"><ele>264.7142857142857</ele><time>2026-04-26T11:10:26.113Z</time></trkpt><trkpt lat="44.2761636" lon="11.202402"><ele>264.0</ele><time>2026-04-26T11:10:27.124Z</time></trkpt><trkpt lat="44.2761375" lon="11.2022988"><ele>263.6666666666667</ele><time>2026-04-26T11:10:28.112Z</time></trkpt><trkpt lat="44.2760922" lon="11.2022043"><ele>263.3333333333333</ele><time>2026-04-26T11:10:29.118Z</time></trkpt><trkpt lat="44.2760312" lon="11.2021215"><ele>263.0</ele><time>2026-04-26T11:10:30.121Z</time></trkpt><trkpt lat="44.2759618" lon="11.2020452"><ele>262.66666666666663</ele><time>2026-04-26T11:10:31.126Z</time></trkpt><trkpt lat="44.2758922" lon="11.2019731"><ele>262.3333333333333</ele><time>2026-04-26T11:10:32.124Z</time></trkpt><trkpt lat="44.275826" lon="11.2019086"><ele>262.0</ele><time>2026-04-26T11:10:33.116Z</time></trkpt><trkpt lat="44.275764" lon="11.2018505"><ele>262.0</ele><time>2026-04-26T11:10:34.117Z</time></trkpt><trkpt lat="44.2757094" lon="11.2017936"><ele>262.0</ele><time>2026-04-26T11:10:35.121Z</time></trkpt><trkpt lat="44.2756503" lon="11.2016416"><ele>262.0</ele><time>2026-04-26T11:10:37.119Z</time></trkpt><trkpt lat="44.2756515" lon="11.2015459"><ele>262.0</ele><time>2026-04-26T11:10:38.111Z</time></trkpt><trkpt lat="44.2756654" lon="11.2014445"><ele>262.0</ele><time>2026-04-26T11:10:39.123Z</time></trkpt><trkpt lat="44.2756791" lon="11.201343"><ele>262.0</ele><time>2026-04-26T11:10:40.116Z</time></trkpt><trkpt lat="44.2757021" lon="11.2012347"><ele>259.5</ele><time>2026-04-26T11:10:41.123Z</time></trkpt><trkpt lat="44.2757327" lon="11.2011254"><ele>257.0</ele><time>2026-04-26T11:10:42.109Z</time></trkpt><trkpt lat="44.2757679" lon="11.201018"><ele>254.5</ele><time>2026-04-26T11:10:43.125Z</time></trkpt><trkpt lat="44.2758163" lon="11.2009338"><ele>252.0</ele><time>2026-04-26T11:10:44.115Z</time></trkpt><trkpt lat="44.2758798" lon="11.2008677"><ele>249.49999999999997</ele><time>2026-04-26T11:10:45.119Z</time></trkpt><trkpt lat="44.2759502" lon="11.2008145"><ele>247.0</ele><time>2026-04-26T11:10:46.132Z</time></trkpt><trkpt lat="44.2760258" lon="11.2007705"><ele>247.0</ele><time>2026-04-26T11:10:47.121Z</time></trkpt><trkpt lat="44.276106" lon="11.2007257"><ele>247.0</ele><time>2026-04-26T11:10:48.118Z</time></trkpt><trkpt lat="44.2761875" lon="11.2006756"><ele>247.0</ele><time>2026-04-26T11:10:49.112Z</time></trkpt><trkpt lat="44.2762709" lon="11.2006239"><ele>247.0</ele><time>2026-04-26T11:10:50.128Z</time></trkpt><trkpt lat="44.2763548" lon="11.2005689"><ele>247.0</ele><time>2026-04-26T11:10:51.129Z</time></trkpt><trkpt lat="44.2764407" lon="11.2005121"><ele>246.49999999999997</ele><time>2026-04-26T11:10:52.123Z</time></trkpt><trkpt lat="44.2765242" lon="11.2004495"><ele>246.0</ele><time>2026-04-26T11:10:53.116Z</time></trkpt><trkpt lat="44.2766054" lon="11.2003833"><ele>245.5</ele><time>2026-04-26T11:10:54.118Z</time></trkpt><trkpt lat="44.2766821" lon="11.2003157"><ele>245.0</ele><time>2026-04-26T11:10:55.121Z</time></trkpt><trkpt lat="44.2767528" lon="11.2002521"><ele>244.49999999999997</ele><time>2026-04-26T11:10:56.114Z</time></trkpt><trkpt lat="44.276819" lon="11.2001989"><ele>244.0</ele><time>2026-04-26T11:10:57.124Z</time></trkpt><trkpt lat="44.2768833" lon="11.2001601"><ele>243.99999999999997</ele><time>2026-04-26T11:10:58.134Z</time></trkpt><trkpt lat="44.2769522" lon="11.2001383"><ele>244.0</ele><time>2026-04-26T11:10:59.117Z</time></trkpt><trkpt lat="44.2770227" lon="11.2001434"><ele>243.99999999999997</ele><time>2026-04-26T11:11:00.111Z</time></trkpt><trkpt lat="44.2770911" lon="11.2001804"><ele>243.99999999999997</ele><time>2026-04-26T11:11:01.116Z</time></trkpt><trkpt lat="44.2771511" lon="11.2002443"><ele>244.0</ele><time>2026-04-26T11:11:02.115Z</time></trkpt><trkpt lat="44.277204" lon="11.2003239"><ele>243.99999999999997</ele><time>2026-04-26T11:11:03.121Z</time></trkpt><trkpt lat="44.2772559" lon="11.2004074"><ele>243.99999999999997</ele><time>2026-04-26T11:11:04.115Z</time></trkpt><trkpt lat="44.2773136" lon="11.2004847"><ele>243.83333333333331</ele><time>2026-04-26T11:11:05.116Z</time></trkpt><trkpt lat="44.2773764" lon="11.2005358"><ele>243.66666666666666</ele><time>2026-04-26T11:11:06.123Z</time></trkpt><trkpt lat="44.2774401" lon="11.2005618"><ele>243.5</ele><time>2026-04-26T11:11:07.113Z</time></trkpt><trkpt lat="44.2775529" lon="11.2005746"><ele>243.33333333333331</ele><time>2026-04-26T11:11:09.121Z</time></trkpt><trkpt lat="44.2776315" lon="11.2005695"><ele>243.16666666666666</ele><time>2026-04-26T11:11:11.118Z</time></trkpt><trkpt lat="44.2776965" lon="11.200581"><ele>243.0</ele><time>2026-04-26T11:11:14.136Z</time></trkpt><trkpt lat="44.2777657" lon="11.2005723"><ele>243.0</ele><time>2026-04-26T11:11:18.118Z</time></trkpt><trkpt lat="44.2778163" lon="11.2005064"><ele>243.0</ele><time>2026-04-26T11:13:00.119Z</time></trkpt><trkpt lat="44.2781791" lon="11.2004117"><ele>243.0</ele><time>2026-04-26T11:14:17.059Z</time></trkpt><trkpt lat="44.2778497" lon="11.200468"><ele>243.0</ele><time>2026-04-26T11:14:33.47Z</time></trkpt><trkpt lat="44.2777871" lon="11.2004876"><ele>243.0</ele><time>2026-04-26T11:15:20.12Z</time></trkpt><trkpt lat="44.2777995" lon="11.200598"><ele>243.0</ele><time>2026-04-26T11:24:14.127Z</time></trkpt><trkpt lat="44.2777839" lon="11.2006833"><ele>243.0</ele><time>2026-04-26T11:24:21.114Z</time></trkpt><trkpt lat="44.2778249" lon="11.2007743"><ele>243.0</ele><time>2026-04-26T11:24:39.119Z</time></trkpt><trkpt lat="44.2778235" lon="11.200885"><ele>243.0</ele><time>2026-04-26T11:24:42.126Z</time></trkpt><trkpt lat="44.2778798" lon="11.2009724"><ele>243.0</ele><time>2026-04-26T11:24:45.118Z</time></trkpt><trkpt lat="44.2779485" lon="11.2010535"><ele>243.0</ele><time>2026-04-26T11:24:47.13Z</time></trkpt><trkpt lat="44.2779965" lon="11.20115"><ele>243.0</ele><time>2026-04-26T11:24:49.111Z</time></trkpt><trkpt lat="44.2780455" lon="11.2012311"><ele>243.0</ele><time>2026-04-26T11:24:51.086Z</time></trkpt><trkpt lat="44.2781044" lon="11.2013091"><ele>243.0</ele><time>2026-04-26T11:24:53.116Z</time></trkpt><trkpt lat="44.2781533" lon="11.2013892"><ele>243.0</ele><time>2026-04-26T11:24:55.13Z</time></trkpt><trkpt lat="44.278206" lon="11.201468"><ele>243.0</ele><time>2026-04-26T11:24:57.121Z</time></trkpt><trkpt lat="44.2782564" lon="11.2015511"><ele>244.5</ele><time>2026-04-26T11:24:59.125Z</time></trkpt><trkpt lat="44.278308" lon="11.2016383"><ele>246.0</ele><time>2026-04-26T11:25:01.123Z</time></trkpt><trkpt lat="44.2783603" lon="11.2017287"><ele>247.5</ele><time>2026-04-26T11:25:03.119Z</time></trkpt><trkpt lat="44.2784115" lon="11.201823"><ele>249.0</ele><time>2026-04-26T11:25:05.122Z</time></trkpt><trkpt lat="44.2784623" lon="11.2019197"><ele>250.5</ele><time>2026-04-26T11:25:07.124Z</time></trkpt><trkpt lat="44.278511" lon="11.2020211"><ele>252.0</ele><time>2026-04-26T11:25:09.119Z</time></trkpt><trkpt lat="44.2785607" lon="11.2021209"><ele>252.0</ele><time>2026-04-26T11:25:11.127Z</time></trkpt><trkpt lat="44.2786101" lon="11.2022209"><ele>252.0</ele><time>2026-04-26T11:25:13.122Z</time></trkpt><trkpt lat="44.2786658" lon="11.2023145"><ele>252.0</ele><time>2026-04-26T11:25:15.122Z</time></trkpt><trkpt lat="44.2787231" lon="11.2024077"><ele>252.0</ele><time>2026-04-26T11:25:17.123Z</time></trkpt><trkpt lat="44.2787856" lon="11.2024974"><ele>252.0</ele><time>2026-04-26T11:25:19.127Z</time></trkpt><trkpt lat="44.278853" lon="11.2025879"><ele>252.0</ele><time>2026-04-26T11:25:21.125Z</time></trkpt><trkpt lat="44.2789251" lon="11.2026819"><ele>252.6</ele><time>2026-04-26T11:25:23.12Z</time></trkpt><trkpt lat="44.2790023" lon="11.2027785"><ele>253.2</ele><time>2026-04-26T11:25:25.119Z</time></trkpt><trkpt lat="44.2790842" lon="11.2028797"><ele>253.8</ele><time>2026-04-26T11:25:27.107Z</time></trkpt><trkpt lat="44.2791669" lon="11.2029865"><ele>254.4</ele><time>2026-04-26T11:25:29.115Z</time></trkpt><trkpt lat="44.2792533" lon="11.2030964"><ele>255.0</ele><time>2026-04-26T11:25:31.122Z</time></trkpt><trkpt lat="44.2793436" lon="11.2032116"><ele>255.0</ele><time>2026-04-26T11:25:33.116Z</time></trkpt><trkpt lat="44.2794377" lon="11.2033288"><ele>255.0</ele><time>2026-04-26T11:25:35.124Z</time></trkpt><trkpt lat="44.2794862" lon="11.2033893"><ele>255.0</ele><time>2026-04-26T11:25:36.117Z</time></trkpt><trkpt lat="44.2795358" lon="11.2034501"><ele>255.0</ele><time>2026-04-26T11:25:37.126Z</time></trkpt><trkpt lat="44.2795862" lon="11.2035096"><ele>255.0</ele><time>2026-04-26T11:25:38.124Z</time></trkpt><trkpt lat="44.2796374" lon="11.2035683"><ele>255.0</ele><time>2026-04-26T11:25:39.123Z</time></trkpt><trkpt lat="44.2796907" lon="11.2036247"><ele>255.0</ele><time>2026-04-26T11:25:40.128Z</time></trkpt><trkpt lat="44.2797466" lon="11.2036804"><ele>255.00000000000003</ele><time>2026-04-26T11:25:41.119Z</time></trkpt><trkpt lat="44.2798052" lon="11.2037363"><ele>255.0</ele><time>2026-04-26T11:25:42.126Z</time></trkpt><trkpt lat="44.2798658" lon="11.2037931"><ele>255.0</ele><time>2026-04-26T11:25:43.125Z</time></trkpt><trkpt lat="44.2799288" lon="11.2038525"><ele>255.00000000000003</ele><time>2026-04-26T11:25:44.123Z</time></trkpt><trkpt lat="44.2799914" lon="11.2039192"><ele>255.0</ele><time>2026-04-26T11:25:45.124Z</time></trkpt><trkpt lat="44.2800519" lon="11.2039921"><ele>255.0</ele><time>2026-04-26T11:25:46.121Z</time></trkpt><trkpt lat="44.2801122" lon="11.2040683"><ele>253.66666666666666</ele><time>2026-04-26T11:25:47.123Z</time></trkpt><trkpt lat="44.2801714" lon="11.2041493"><ele>252.33333333333331</ele><time>2026-04-26T11:25:48.125Z</time></trkpt><trkpt lat="44.2802304" lon="11.2042336"><ele>251.0</ele><time>2026-04-26T11:25:49.112Z</time></trkpt><trkpt lat="44.2802884" lon="11.2043225"><ele>249.66666666666666</ele><time>2026-04-26T11:25:50.123Z</time></trkpt><trkpt lat="44.2803468" lon="11.2044131"><ele>248.33333333333331</ele><time>2026-04-26T11:25:51.123Z</time></trkpt><trkpt lat="44.2804068" lon="11.2045024"><ele>247.0</ele><time>2026-04-26T11:25:52.126Z</time></trkpt><trkpt lat="44.2804657" lon="11.2045907"><ele>246.99999999999997</ele><time>2026-04-26T11:25:53.128Z</time></trkpt><trkpt lat="44.2805193" lon="11.2046824"><ele>247.0</ele><time>2026-04-26T11:25:54.126Z</time></trkpt><trkpt lat="44.2805684" lon="11.2047777"><ele>247.0</ele><time>2026-04-26T11:25:55.123Z</time></trkpt><trkpt lat="44.280616" lon="11.2048701"><ele>247.0</ele><time>2026-04-26T11:25:56.124Z</time></trkpt><trkpt lat="44.2806647" lon="11.20496"><ele>246.99999999999997</ele><time>2026-04-26T11:25:57.138Z</time></trkpt><trkpt lat="44.2807153" lon="11.2050469"><ele>247.0</ele><time>2026-04-26T11:25:58.126Z</time></trkpt><trkpt lat="44.2807679" lon="11.2051289"><ele>245.49999999999997</ele><time>2026-04-26T11:25:59.128Z</time></trkpt><trkpt lat="44.2808238" lon="11.2052045"><ele>244.0</ele><time>2026-04-26T11:26:00.13Z</time></trkpt><trkpt lat="44.2808839" lon="11.2052709"><ele>242.5</ele><time>2026-04-26T11:26:01.13Z</time></trkpt><trkpt lat="44.2809444" lon="11.2053364"><ele>241.0</ele><time>2026-04-26T11:26:02.125Z</time></trkpt><trkpt lat="44.2810058" lon="11.2053985"><ele>239.49999999999997</ele><time>2026-04-26T11:26:03.127Z</time></trkpt><trkpt lat="44.2810666" lon="11.2054589"><ele>238.0</ele><time>2026-04-26T11:26:04.134Z</time></trkpt><trkpt lat="44.2811273" lon="11.2055183"><ele>238.0</ele><time>2026-04-26T11:26:05.121Z</time></trkpt><trkpt lat="44.2811877" lon="11.2055755"><ele>238.0</ele><time>2026-04-26T11:26:06.132Z</time></trkpt><trkpt lat="44.2812489" lon="11.2056284"><ele>238.0</ele><time>2026-04-26T11:26:07.129Z</time></trkpt><trkpt lat="44.2813112" lon="11.2056786"><ele>238.0</ele><time>2026-04-26T11:26:08.121Z</time></trkpt><trkpt lat="44.281375" lon="11.2057239"><ele>238.0</ele><time>2026-04-26T11:26:09.121Z</time></trkpt><trkpt lat="44.2814396" lon="11.2057654"><ele>238.0</ele><time>2026-04-26T11:26:10.138Z</time></trkpt><trkpt lat="44.2815049" lon="11.2057999"><ele>238.0</ele><time>2026-04-26T11:26:11.122Z</time></trkpt><trkpt lat="44.2815714" lon="11.2058285"><ele>238.28571428571428</ele><time>2026-04-26T11:26:12.121Z</time></trkpt><trkpt lat="44.2816381" lon="11.205848"><ele>238.57142857142856</ele><time>2026-04-26T11:26:13.124Z</time></trkpt><trkpt lat="44.2817039" lon="11.2058598"><ele>238.85714285714286</ele><time>2026-04-26T11:26:14.117Z</time></trkpt><trkpt lat="44.2817697" lon="11.2058625"><ele>239.14285714285714</ele><time>2026-04-26T11:26:15.129Z</time></trkpt><trkpt lat="44.2818356" lon="11.2058572"><ele>239.42857142857142</ele><time>2026-04-26T11:26:16.122Z</time></trkpt><trkpt lat="44.2819012" lon="11.2058461"><ele>239.71428571428572</ele><time>2026-04-26T11:26:17.136Z</time></trkpt><trkpt lat="44.2819656" lon="11.2058291"><ele>240.0</ele><time>2026-04-26T11:26:18.131Z</time></trkpt><trkpt lat="44.2820859" lon="11.2057839"><ele>240.0</ele><time>2026-04-26T11:26:20.121Z</time></trkpt><trkpt lat="44.2821448" lon="11.2057524"><ele>240.0</ele><time>2026-04-26T11:26:21.134Z</time></trkpt><trkpt lat="44.2822604" lon="11.2056895"><ele>240.0</ele><time>2026-04-26T11:26:23.12Z</time></trkpt><trkpt lat="44.282374" lon="11.205632"><ele>240.0</ele><time>2026-04-26T11:26:25.129Z</time></trkpt><trkpt lat="44.2824857" lon="11.2055826"><ele>240.0</ele><time>2026-04-26T11:26:27.128Z</time></trkpt><trkpt lat="44.2825998" lon="11.2055524"><ele>239.6</ele><time>2026-04-26T11:26:29.119Z</time></trkpt><trkpt lat="44.2827146" lon="11.2055479"><ele>239.2</ele><time>2026-04-26T11:26:31.127Z</time></trkpt><trkpt lat="44.2828247" lon="11.2055717"><ele>238.8</ele><time>2026-04-26T11:26:33.128Z</time></trkpt><trkpt lat="44.2829281" lon="11.2056223"><ele>238.4</ele><time>2026-04-26T11:26:35.123Z</time></trkpt><trkpt lat="44.2830235" lon="11.2056965"><ele>238.0</ele><time>2026-04-26T11:26:37.126Z</time></trkpt><trkpt lat="44.2831082" lon="11.2057908"><ele>238.0</ele><time>2026-04-26T11:26:39.123Z</time></trkpt><trkpt lat="44.2831806" lon="11.2059049"><ele>238.0</ele><time>2026-04-26T11:26:41.125Z</time></trkpt><trkpt lat="44.2832401" lon="11.20603"><ele>238.0</ele><time>2026-04-26T11:26:43.111Z</time></trkpt><trkpt lat="44.2832921" lon="11.2061597"><ele>238.0</ele><time>2026-04-26T11:26:45.13Z</time></trkpt><trkpt lat="44.2833369" lon="11.206292"><ele>238.0</ele><time>2026-04-26T11:26:47.133Z</time></trkpt><trkpt lat="44.2833808" lon="11.2064268"><ele>239.2</ele><time>2026-04-26T11:26:49.126Z</time></trkpt><trkpt lat="44.283426" lon="11.2065612"><ele>240.4</ele><time>2026-04-26T11:26:51.127Z</time></trkpt><trkpt lat="44.2834714" lon="11.206698"><ele>241.59999999999997</ele><time>2026-04-26T11:26:53.121Z</time></trkpt><trkpt lat="44.2835186" lon="11.2068361"><ele>242.79999999999998</ele><time>2026-04-26T11:26:55.127Z</time></trkpt><trkpt lat="44.28357" lon="11.206974"><ele>244.0</ele><time>2026-04-26T11:26:57.126Z</time></trkpt><trkpt lat="44.2836242" lon="11.2071114"><ele>244.0</ele><time>2026-04-26T11:26:59.122Z</time></trkpt><trkpt lat="44.2836806" lon="11.2072482"><ele>244.0</ele><time>2026-04-26T11:27:01.123Z</time></trkpt><trkpt lat="44.2837454" lon="11.2073793"><ele>244.0</ele><time>2026-04-26T11:27:03.13Z</time></trkpt><trkpt lat="44.2838137" lon="11.2075098"><ele>244.0</ele><time>2026-04-26T11:27:05.122Z</time></trkpt><trkpt lat="44.283883" lon="11.2076409"><ele>244.39999999999998</ele><time>2026-04-26T11:27:07.125Z</time></trkpt><trkpt lat="44.2839571" lon="11.2077709"><ele>244.79999999999998</ele><time>2026-04-26T11:27:09.119Z</time></trkpt><trkpt lat="44.284033" lon="11.2079037"><ele>245.20000000000002</ele><time>2026-04-26T11:27:11.123Z</time></trkpt><trkpt lat="44.2841131" lon="11.2080379"><ele>245.60000000000002</ele><time>2026-04-26T11:27:13.138Z</time></trkpt><trkpt lat="44.2841546" lon="11.2081063"><ele>246.0</ele><time>2026-04-26T11:27:14.128Z</time></trkpt><trkpt lat="44.2841965" lon="11.2081751"><ele>247.00000000000003</ele><time>2026-04-26T11:27:15.119Z</time></trkpt><trkpt lat="44.284241" lon="11.2082449"><ele>248.0</ele><time>2026-04-26T11:27:16.129Z</time></trkpt><trkpt lat="44.2842861" lon="11.208313"><ele>249.00000000000003</ele><time>2026-04-26T11:27:17.119Z</time></trkpt><trkpt lat="44.2843315" lon="11.2083808"><ele>250.00000000000003</ele><time>2026-04-26T11:27:18.138Z</time></trkpt><trkpt lat="44.2843755" lon="11.208451"><ele>251.0</ele><time>2026-04-26T11:27:19.128Z</time></trkpt><trkpt lat="44.2844187" lon="11.2085215"><ele>252.00000000000003</ele><time>2026-04-26T11:27:20.133Z</time></trkpt><trkpt lat="44.2844621" lon="11.2085936"><ele>253.00000000000003</ele><time>2026-04-26T11:27:21.121Z</time></trkpt><trkpt lat="44.2845063" lon="11.2086641"><ele>253.00000000000003</ele><time>2026-04-26T11:27:22.128Z</time></trkpt><trkpt lat="44.28455" lon="11.2087361"><ele>253.0</ele><time>2026-04-26T11:27:23.133Z</time></trkpt><trkpt lat="44.2845939" lon="11.2088093"><ele>253.00000000000003</ele><time>2026-04-26T11:27:24.127Z</time></trkpt><trkpt lat="44.2846387" lon="11.2088828"><ele>253.00000000000003</ele><time>2026-04-26T11:27:25.122Z</time></trkpt><trkpt lat="44.2846837" lon="11.2089559"><ele>253.0</ele><time>2026-04-26T11:27:26.125Z</time></trkpt><trkpt lat="44.2847301" lon="11.2090282"><ele>253.00000000000003</ele><time>2026-04-26T11:27:27.13Z</time></trkpt><trkpt lat="44.2847769" lon="11.2091008"><ele>253.00000000000003</ele><time>2026-04-26T11:27:28.127Z</time></trkpt><trkpt lat="44.2848239" lon="11.2091751"><ele>250.99999999999997</ele><time>2026-04-26T11:27:29.129Z</time></trkpt><trkpt lat="44.2848729" lon="11.2092522"><ele>249.0</ele><time>2026-04-26T11:27:30.128Z</time></trkpt><trkpt lat="44.2849235" lon="11.2093314"><ele>247.0</ele><time>2026-04-26T11:27:31.132Z</time></trkpt><trkpt lat="44.2849732" lon="11.2094123"><ele>245.0</ele><time>2026-04-26T11:27:32.122Z</time></trkpt><trkpt lat="44.285023" lon="11.2094936"><ele>242.99999999999997</ele><time>2026-04-26T11:27:33.13Z</time></trkpt><trkpt lat="44.2850717" lon="11.2095765"><ele>241.0</ele><time>2026-04-26T11:27:34.122Z</time></trkpt><trkpt lat="44.285121" lon="11.209661"><ele>240.99999999999997</ele><time>2026-04-26T11:27:35.131Z</time></trkpt><trkpt lat="44.2851704" lon="11.209746"><ele>241.0</ele><time>2026-04-26T11:27:36.122Z</time></trkpt><trkpt lat="44.2852187" lon="11.2098299"><ele>241.0</ele><time>2026-04-26T11:27:37.129Z</time></trkpt><trkpt lat="44.2852661" lon="11.209913"><ele>241.0</ele><time>2026-04-26T11:27:38.13Z</time></trkpt><trkpt lat="44.2853144" lon="11.209993"><ele>240.99999999999997</ele><time>2026-04-26T11:27:39.13Z</time></trkpt><trkpt lat="44.2853637" lon="11.2100663"><ele>241.0</ele><time>2026-04-26T11:27:40.126Z</time></trkpt><trkpt lat="44.2854159" lon="11.210136"><ele>240.57142857142858</ele><time>2026-04-26T11:27:41.123Z</time></trkpt><trkpt lat="44.2854687" lon="11.2102026"><ele>240.14285714285717</ele><time>2026-04-26T11:27:42.129Z</time></trkpt><trkpt lat="44.2855234" lon="11.2102654"><ele>239.71428571428572</ele><time>2026-04-26T11:27:43.132Z</time></trkpt><trkpt lat="44.2855806" lon="11.2103222"><ele>239.28571428571428</ele><time>2026-04-26T11:27:44.142Z</time></trkpt><trkpt lat="44.2856416" lon="11.2103737"><ele>238.85714285714286</ele><time>2026-04-26T11:27:45.13Z</time></trkpt><trkpt lat="44.2857052" lon="11.210422"><ele>238.42857142857144</ele><time>2026-04-26T11:27:46.134Z</time></trkpt><trkpt lat="44.28577" lon="11.2104671"><ele>238.0</ele><time>2026-04-26T11:27:47.126Z</time></trkpt><trkpt lat="44.2858348" lon="11.2105096"><ele>238.0</ele><time>2026-04-26T11:27:48.132Z</time></trkpt><trkpt lat="44.2858987" lon="11.2105525"><ele>238.0</ele><time>2026-04-26T11:27:49.127Z</time></trkpt><trkpt lat="44.2859605" lon="11.2105982"><ele>238.0</ele><time>2026-04-26T11:27:50.127Z</time></trkpt><trkpt lat="44.2860184" lon="11.2106541"><ele>238.0</ele><time>2026-04-26T11:27:51.133Z</time></trkpt><trkpt lat="44.2860708" lon="11.2107196"><ele>238.0</ele><time>2026-04-26T11:27:52.125Z</time></trkpt><trkpt lat="44.2861181" lon="11.2107956"><ele>238.0</ele><time>2026-04-26T11:27:53.123Z</time></trkpt><trkpt lat="44.2861597" lon="11.2108776"><ele>238.0</ele><time>2026-04-26T11:27:54.144Z</time></trkpt><trkpt lat="44.2861968" lon="11.2109646"><ele>237.85714285714286</ele><time>2026-04-26T11:27:55.13Z</time></trkpt><trkpt lat="44.2862338" lon="11.2110539"><ele>237.71428571428572</ele><time>2026-04-26T11:27:56.123Z</time></trkpt><trkpt lat="44.2862742" lon="11.2111381"><ele>237.57142857142856</ele><time>2026-04-26T11:27:57.127Z</time></trkpt><trkpt lat="44.2863152" lon="11.2112145"><ele>237.42857142857142</ele><time>2026-04-26T11:27:58.124Z</time></trkpt><trkpt lat="44.2863572" lon="11.2112863"><ele>237.28571428571428</ele><time>2026-04-26T11:27:59.122Z</time></trkpt><trkpt lat="44.286403" lon="11.2113511"><ele>237.1428571428571</ele><time>2026-04-26T11:28:00.123Z</time></trkpt><trkpt lat="44.2864547" lon="11.2114074"><ele>236.99999999999997</ele><time>2026-04-26T11:28:01.123Z</time></trkpt><trkpt lat="44.2865111" lon="11.2114538"><ele>238.1428571428571</ele><time>2026-04-26T11:28:02.132Z</time></trkpt><trkpt lat="44.2865696" lon="11.2114958"><ele>239.28571428571428</ele><time>2026-04-26T11:28:03.133Z</time></trkpt><trkpt lat="44.286629" lon="11.2115333"><ele>240.42857142857142</ele><time>2026-04-26T11:28:04.123Z</time></trkpt><trkpt lat="44.2866903" lon="11.2115669"><ele>241.57142857142856</ele><time>2026-04-26T11:28:05.123Z</time></trkpt><trkpt lat="44.2867539" lon="11.2115942"><ele>242.71428571428572</ele><time>2026-04-26T11:28:06.125Z</time></trkpt><trkpt lat="44.2868189" lon="11.2116167"><ele>243.85714285714286</ele><time>2026-04-26T11:28:07.135Z</time></trkpt><trkpt lat="44.2868845" lon="11.2116385"><ele>245.0</ele><time>2026-04-26T11:28:08.127Z</time></trkpt><trkpt lat="44.2869497" lon="11.2116596"><ele>245.0</ele><time>2026-04-26T11:28:09.132Z</time></trkpt><trkpt lat="44.2870146" lon="11.2116784"><ele>245.0</ele><time>2026-04-26T11:28:10.132Z</time></trkpt><trkpt lat="44.2870794" lon="11.2116982"><ele>245.0</ele><time>2026-04-26T11:28:11.105Z</time></trkpt><trkpt lat="44.2871443" lon="11.2117178"><ele>245.0</ele><time>2026-04-26T11:28:12.122Z</time></trkpt><trkpt lat="44.2872086" lon="11.2117403"><ele>245.0</ele><time>2026-04-26T11:28:13.107Z</time></trkpt><trkpt lat="44.2872726" lon="11.2117646"><ele>245.0</ele><time>2026-04-26T11:28:14.112Z</time></trkpt><trkpt lat="44.2873367" lon="11.2117891"><ele>245.0</ele><time>2026-04-26T11:28:15.12Z</time></trkpt><trkpt lat="44.2873998" lon="11.2118198"><ele>244.28571428571428</ele><time>2026-04-26T11:28:16.122Z</time></trkpt><trkpt lat="44.2874617" lon="11.2118586"><ele>243.57142857142856</ele><time>2026-04-26T11:28:17.126Z</time></trkpt><trkpt lat="44.2875219" lon="11.211904"><ele>242.85714285714286</ele><time>2026-04-26T11:28:18.121Z</time></trkpt><trkpt lat="44.287581" lon="11.2119513"><ele>242.14285714285714</ele><time>2026-04-26T11:28:19.126Z</time></trkpt><trkpt lat="44.2876375" lon="11.2120033"><ele>241.42857142857142</ele><time>2026-04-26T11:28:20.132Z</time></trkpt><trkpt lat="44.2876921" lon="11.2120575"><ele>240.71428571428572</ele><time>2026-04-26T11:28:21.118Z</time></trkpt><trkpt lat="44.2877467" lon="11.2121143"><ele>240.0</ele><time>2026-04-26T11:28:22.129Z</time></trkpt><trkpt lat="44.2878008" lon="11.2121695"><ele>240.0</ele><time>2026-04-26T11:28:23.123Z</time></trkpt><trkpt lat="44.2878548" lon="11.212225"><ele>240.0</ele><time>2026-04-26T11:28:24.131Z</time></trkpt><trkpt lat="44.2879094" lon="11.2122788"><ele>240.0</ele><time>2026-04-26T11:28:25.122Z</time></trkpt><trkpt lat="44.2879641" lon="11.2123324"><ele>240.0</ele><time>2026-04-26T11:28:26.119Z</time></trkpt><trkpt lat="44.2880165" lon="11.212392"><ele>240.0</ele><time>2026-04-26T11:28:27.126Z</time></trkpt><trkpt lat="44.2880702" lon="11.2124506"><ele>240.0</ele><time>2026-04-26T11:28:28.129Z</time></trkpt><trkpt lat="44.288121" lon="11.2125106"><ele>240.0</ele><time>2026-04-26T11:28:29.124Z</time></trkpt><trkpt lat="44.2881705" lon="11.2125769"><ele>240.28571428571428</ele><time>2026-04-26T11:28:30.121Z</time></trkpt><trkpt lat="44.2882166" lon="11.2126473"><ele>240.57142857142856</ele><time>2026-04-26T11:28:31.116Z</time></trkpt><trkpt lat="44.2882603" lon="11.2127228"><ele>240.85714285714283</ele><time>2026-04-26T11:28:32.124Z</time></trkpt><trkpt lat="44.2882995" lon="11.2128013"><ele>241.14285714285714</ele><time>2026-04-26T11:28:33.132Z</time></trkpt><trkpt lat="44.2883339" lon="11.2128818"><ele>241.4285714285714</ele><time>2026-04-26T11:28:34.126Z</time></trkpt><trkpt lat="44.2883664" lon="11.2129609"><ele>241.7142857142857</ele><time>2026-04-26T11:28:35.128Z</time></trkpt><trkpt lat="44.288399" lon="11.213041"><ele>242.0</ele><time>2026-04-26T11:28:36.126Z</time></trkpt><trkpt lat="44.2884334" lon="11.2131217"><ele>242.57142857142856</ele><time>2026-04-26T11:28:37.133Z</time></trkpt><trkpt lat="44.2884698" lon="11.2132019"><ele>243.1428571428571</ele><time>2026-04-26T11:28:38.124Z</time></trkpt><trkpt lat="44.2885091" lon="11.2132799"><ele>243.71428571428572</ele><time>2026-04-26T11:28:39.127Z</time></trkpt><trkpt lat="44.2885503" lon="11.2133589"><ele>244.28571428571428</ele><time>2026-04-26T11:28:40.123Z</time></trkpt><trkpt lat="44.2885958" lon="11.2134345"><ele>244.85714285714286</ele><time>2026-04-26T11:28:41.132Z</time></trkpt><trkpt lat="44.2886431" lon="11.2135053"><ele>245.42857142857144</ele><time>2026-04-26T11:28:42.128Z</time></trkpt><trkpt lat="44.2886932" lon="11.2135701"><ele>246.00000000000003</ele><time>2026-04-26T11:28:43.13Z</time></trkpt><trkpt lat="44.288744" lon="11.2136316"><ele>246.0</ele><time>2026-04-26T11:28:44.12Z</time></trkpt><trkpt lat="44.2887965" lon="11.2136913"><ele>246.0</ele><time>2026-04-26T11:28:45.128Z</time></trkpt><trkpt lat="44.2888512" lon="11.2137462"><ele>246.0</ele><time>2026-04-26T11:28:46.131Z</time></trkpt><trkpt lat="44.2889045" lon="11.213796"><ele>246.0</ele><time>2026-04-26T11:28:47.119Z</time></trkpt><trkpt lat="44.2890007" lon="11.213891"><ele>246.0</ele><time>2026-04-26T11:28:49.12Z</time></trkpt><trkpt lat="44.2890928" lon="11.2139833"><ele>246.0</ele><time>2026-04-26T11:28:51.127Z</time></trkpt><trkpt lat="44.2891676" lon="11.2141088"><ele>246.33333333333334</ele><time>2026-04-26T11:28:53.129Z</time></trkpt><trkpt lat="44.2892111" lon="11.2142678"><ele>246.66666666666669</ele><time>2026-04-26T11:28:55.129Z</time></trkpt><trkpt lat="44.2892403" lon="11.2144366"><ele>247.0</ele><time>2026-04-26T11:28:57.136Z</time></trkpt><trkpt lat="44.2892487" lon="11.2145238"><ele>247.33333333333334</ele><time>2026-04-26T11:28:58.118Z</time></trkpt><trkpt lat="44.2892496" lon="11.2146131"><ele>247.66666666666669</ele><time>2026-04-26T11:28:59.133Z</time></trkpt><trkpt lat="44.2892391" lon="11.2147029"><ele>248.0</ele><time>2026-04-26T11:29:00.134Z</time></trkpt><trkpt lat="44.289217" lon="11.21479"><ele>248.2857142857143</ele><time>2026-04-26T11:29:01.12Z</time></trkpt><trkpt lat="44.2891854" lon="11.2148733"><ele>248.5714285714286</ele><time>2026-04-26T11:29:02.118Z</time></trkpt><trkpt lat="44.2891437" lon="11.2149506"><ele>248.85714285714286</ele><time>2026-04-26T11:29:03.127Z</time></trkpt><trkpt lat="44.2890934" lon="11.2150176"><ele>249.14285714285717</ele><time>2026-04-26T11:29:04.128Z</time></trkpt><trkpt lat="44.2890374" lon="11.2150763"><ele>249.42857142857144</ele><time>2026-04-26T11:29:05.12Z</time></trkpt><trkpt lat="44.288979" lon="11.2151284"><ele>249.71428571428572</ele><time>2026-04-26T11:29:06.119Z</time></trkpt><trkpt lat="44.2889204" lon="11.2151787"><ele>250.0</ele><time>2026-04-26T11:29:07.129Z</time></trkpt><trkpt lat="44.2888654" lon="11.2152355"><ele>250.0</ele><time>2026-04-26T11:29:08.123Z</time></trkpt><trkpt lat="44.2888192" lon="11.2153042"><ele>250.0</ele><time>2026-04-26T11:29:09.123Z</time></trkpt><trkpt lat="44.2887853" lon="11.2153856"><ele>250.0</ele><time>2026-04-26T11:29:10.133Z</time></trkpt><trkpt lat="44.2887634" lon="11.2154739"><ele>250.0</ele><time>2026-04-26T11:29:11.118Z</time></trkpt><trkpt lat="44.2887542" lon="11.2155655"><ele>250.0</ele><time>2026-04-26T11:29:12.117Z</time></trkpt><trkpt lat="44.2887461" lon="11.2156583"><ele>250.0</ele><time>2026-04-26T11:29:13.112Z</time></trkpt><trkpt lat="44.288756" lon="11.2157536"><ele>250.0</ele><time>2026-04-26T11:29:14.129Z</time></trkpt><trkpt lat="44.2887682" lon="11.2158523"><ele>249.66666666666666</ele><time>2026-04-26T11:29:15.13Z</time></trkpt><trkpt lat="44.2887818" lon="11.2159544"><ele>249.33333333333331</ele><time>2026-04-26T11:29:16.127Z</time></trkpt><trkpt lat="44.288799" lon="11.216055"><ele>249.0</ele><time>2026-04-26T11:29:17.122Z</time></trkpt><trkpt lat="44.2888164" lon="11.216156"><ele>248.66666666666669</ele><time>2026-04-26T11:29:18.125Z</time></trkpt><trkpt lat="44.2888352" lon="11.2162587"><ele>248.33333333333334</ele><time>2026-04-26T11:29:19.125Z</time></trkpt><trkpt lat="44.2888528" lon="11.2163645"><ele>248.0</ele><time>2026-04-26T11:29:20.119Z</time></trkpt><trkpt lat="44.2888705" lon="11.2164696"><ele>248.33333333333334</ele><time>2026-04-26T11:29:21.134Z</time></trkpt><trkpt lat="44.2888879" lon="11.2165749"><ele>248.66666666666669</ele><time>2026-04-26T11:29:22.133Z</time></trkpt><trkpt lat="44.2889055" lon="11.2166793"><ele>249.0</ele><time>2026-04-26T11:29:23.117Z</time></trkpt><trkpt lat="44.2889232" lon="11.2167809"><ele>249.33333333333331</ele><time>2026-04-26T11:29:24.124Z</time></trkpt><trkpt lat="44.2889417" lon="11.2168828"><ele>249.66666666666666</ele><time>2026-04-26T11:29:25.13Z</time></trkpt><trkpt lat="44.2889584" lon="11.2169862"><ele>250.0</ele><time>2026-04-26T11:29:26.138Z</time></trkpt><trkpt lat="44.2889731" lon="11.2170885"><ele>248.28571428571428</ele><time>2026-04-26T11:29:27.127Z</time></trkpt><trkpt lat="44.2889899" lon="11.2171898"><ele>246.57142857142858</ele><time>2026-04-26T11:29:28.131Z</time></trkpt><trkpt lat="44.2890046" lon="11.2172894"><ele>244.85714285714286</ele><time>2026-04-26T11:29:29.135Z</time></trkpt><trkpt lat="44.2890194" lon="11.2173873"><ele>243.14285714285714</ele><time>2026-04-26T11:29:30.136Z</time></trkpt><trkpt lat="44.2890363" lon="11.2174825"><ele>241.42857142857144</ele><time>2026-04-26T11:29:31.122Z</time></trkpt><trkpt lat="44.289058" lon="11.2175775"><ele>239.71428571428572</ele><time>2026-04-26T11:29:32.126Z</time></trkpt><trkpt lat="44.2890853" lon="11.2176707"><ele>238.0</ele><time>2026-04-26T11:29:33.118Z</time></trkpt><trkpt lat="44.2891162" lon="11.2177607"><ele>237.85714285714286</ele><time>2026-04-26T11:29:34.119Z</time></trkpt><trkpt lat="44.2891481" lon="11.2178504"><ele>237.71428571428572</ele><time>2026-04-26T11:29:35.116Z</time></trkpt><trkpt lat="44.2891799" lon="11.2179407"><ele>237.57142857142856</ele><time>2026-04-26T11:29:36.13Z</time></trkpt><trkpt lat="44.2892146" lon="11.2180284"><ele>237.42857142857142</ele><time>2026-04-26T11:29:37.131Z</time></trkpt><trkpt lat="44.2892508" lon="11.2181164"><ele>237.28571428571428</ele><time>2026-04-26T11:29:38.13Z</time></trkpt><trkpt lat="44.2892897" lon="11.2182031"><ele>237.1428571428571</ele><time>2026-04-26T11:29:39.128Z</time></trkpt><trkpt lat="44.2893308" lon="11.2182889"><ele>236.99999999999997</ele><time>2026-04-26T11:29:40.117Z</time></trkpt><trkpt lat="44.2893733" lon="11.2183734"><ele>238.0</ele><time>2026-04-26T11:29:41.127Z</time></trkpt><trkpt lat="44.2894207" lon="11.2184547"><ele>239.0</ele><time>2026-04-26T11:29:42.129Z</time></trkpt><trkpt lat="44.2894699" lon="11.2185323"><ele>240.0</ele><time>2026-04-26T11:29:43.126Z</time></trkpt><trkpt lat="44.2895198" lon="11.2186116"><ele>241.0</ele><time>2026-04-26T11:29:44.126Z</time></trkpt><trkpt lat="44.2895693" lon="11.2186926"><ele>242.0</ele><time>2026-04-26T11:29:45.12Z</time></trkpt><trkpt lat="44.2896175" lon="11.2187762"><ele>243.0</ele><time>2026-04-26T11:29:46.131Z</time></trkpt><trkpt lat="44.2896616" lon="11.2188648"><ele>243.0</ele><time>2026-04-26T11:29:47.127Z</time></trkpt><trkpt lat="44.2897013" lon="11.2189568"><ele>243.0</ele><time>2026-04-26T11:29:48.129Z</time></trkpt><trkpt lat="44.2897365" lon="11.2190537"><ele>243.0</ele><time>2026-04-26T11:29:49.116Z</time></trkpt><trkpt lat="44.2897698" lon="11.2191552"><ele>243.0</ele><time>2026-04-26T11:29:50.118Z</time></trkpt><trkpt lat="44.2898016" lon="11.2192572"><ele>243.0</ele><time>2026-04-26T11:29:51.121Z</time></trkpt><trkpt lat="44.2898325" lon="11.21936"><ele>243.0</ele><time>2026-04-26T11:29:52.126Z</time></trkpt><trkpt lat="44.2898613" lon="11.2194633"><ele>241.5</ele><time>2026-04-26T11:29:53.131Z</time></trkpt><trkpt lat="44.2898892" lon="11.219567"><ele>240.0</ele><time>2026-04-26T11:29:54.121Z</time></trkpt><trkpt lat="44.2899158" lon="11.2196727"><ele>238.5</ele><time>2026-04-26T11:29:55.127Z</time></trkpt><trkpt lat="44.2899402" lon="11.2197791"><ele>237.0</ele><time>2026-04-26T11:29:56.129Z</time></trkpt><trkpt lat="44.2899623" lon="11.2198864"><ele>235.5</ele><time>2026-04-26T11:29:57.132Z</time></trkpt><trkpt lat="44.2899812" lon="11.2199955"><ele>234.0</ele><time>2026-04-26T11:29:58.129Z</time></trkpt><trkpt lat="44.2899968" lon="11.2201049"><ele>234.0</ele><time>2026-04-26T11:29:59.12Z</time></trkpt><trkpt lat="44.2900119" lon="11.2202135"><ele>234.0</ele><time>2026-04-26T11:30:00.13Z</time></trkpt><trkpt lat="44.2900268" lon="11.2203224"><ele>234.0</ele><time>2026-04-26T11:30:01.12Z</time></trkpt><trkpt lat="44.2900402" lon="11.2204332"><ele>234.0</ele><time>2026-04-26T11:30:02.13Z</time></trkpt><trkpt lat="44.2900568" lon="11.220545"><ele>234.0</ele><time>2026-04-26T11:30:03.123Z</time></trkpt><trkpt lat="44.2900762" lon="11.2206557"><ele>234.0</ele><time>2026-04-26T11:30:04.122Z</time></trkpt><trkpt lat="44.2900983" lon="11.2207653"><ele>234.0</ele><time>2026-04-26T11:30:05.135Z</time></trkpt><trkpt lat="44.2901249" lon="11.2208703"><ele>234.0</ele><time>2026-04-26T11:30:06.128Z</time></trkpt><trkpt lat="44.2901571" lon="11.2209723"><ele>234.0</ele><time>2026-04-26T11:30:07.138Z</time></trkpt><trkpt lat="44.2901912" lon="11.2210739"><ele>234.0</ele><time>2026-04-26T11:30:08.132Z</time></trkpt><trkpt lat="44.290223" lon="11.2211765"><ele>234.0</ele><time>2026-04-26T11:30:09.126Z</time></trkpt><trkpt lat="44.290252" lon="11.2212815"><ele>234.0</ele><time>2026-04-26T11:30:10.125Z</time></trkpt><trkpt lat="44.2902814" lon="11.221388"><ele>235.83333333333334</ele><time>2026-04-26T11:30:11.114Z</time></trkpt><trkpt lat="44.2903097" lon="11.221494"><ele>237.66666666666669</ele><time>2026-04-26T11:30:12.12Z</time></trkpt><trkpt lat="44.2903374" lon="11.2216021"><ele>239.5</ele><time>2026-04-26T11:30:13.127Z</time></trkpt><trkpt lat="44.2903659" lon="11.2217108"><ele>241.33333333333334</ele><time>2026-04-26T11:30:14.114Z</time></trkpt><trkpt lat="44.290393" lon="11.22182"><ele>243.16666666666669</ele><time>2026-04-26T11:30:15.129Z</time></trkpt><trkpt lat="44.2904192" lon="11.2219332"><ele>245.0</ele><time>2026-04-26T11:30:16.133Z</time></trkpt><trkpt lat="44.2904432" lon="11.2220431"><ele>245.00000000000003</ele><time>2026-04-26T11:30:17.119Z</time></trkpt><trkpt lat="44.2904672" lon="11.2221533"><ele>245.0</ele><time>2026-04-26T11:30:18.129Z</time></trkpt><trkpt lat="44.2904932" lon="11.2222637"><ele>245.0</ele><time>2026-04-26T11:30:19.118Z</time></trkpt><trkpt lat="44.2905211" lon="11.2223733"><ele>245.0</ele><time>2026-04-26T11:30:20.124Z</time></trkpt><trkpt lat="44.2905488" lon="11.2224831"><ele>245.00000000000003</ele><time>2026-04-26T11:30:21.125Z</time></trkpt><trkpt lat="44.2905773" lon="11.2225925"><ele>245.0</ele><time>2026-04-26T11:30:22.124Z</time></trkpt><trkpt lat="44.2906059" lon="11.2227008"><ele>242.83333333333334</ele><time>2026-04-26T11:30:23.13Z</time></trkpt><trkpt lat="44.2906348" lon="11.2228085"><ele>240.66666666666669</ele><time>2026-04-26T11:30:24.126Z</time></trkpt><trkpt lat="44.2906637" lon="11.222915"><ele>238.5</ele><time>2026-04-26T11:30:25.127Z</time></trkpt><trkpt lat="44.2906919" lon="11.223022"><ele>236.33333333333331</ele><time>2026-04-26T11:30:26.133Z</time></trkpt><trkpt lat="44.2907214" lon="11.2231273"><ele>234.16666666666666</ele><time>2026-04-26T11:30:27.129Z</time></trkpt><trkpt lat="44.2907503" lon="11.2232323"><ele>232.0</ele><time>2026-04-26T11:30:28.119Z</time></trkpt><trkpt lat="44.290778" lon="11.223338"><ele>231.99999999999997</ele><time>2026-04-26T11:30:29.121Z</time></trkpt><trkpt lat="44.2908053" lon="11.2234438"><ele>232.0</ele><time>2026-04-26T11:30:30.131Z</time></trkpt><trkpt lat="44.2908317" lon="11.2235499"><ele>232.0</ele><time>2026-04-26T11:30:31.116Z</time></trkpt><trkpt lat="44.2908547" lon="11.2236582"><ele>232.0</ele><time>2026-04-26T11:30:32.123Z</time></trkpt><trkpt lat="44.2908743" lon="11.2237686"><ele>231.99999999999997</ele><time>2026-04-26T11:30:33.134Z</time></trkpt><trkpt lat="44.2908914" lon="11.2238804"><ele>232.0</ele><time>2026-04-26T11:30:34.125Z</time></trkpt><trkpt lat="44.2909066" lon="11.2239933"><ele>232.33333333333331</ele><time>2026-04-26T11:30:35.127Z</time></trkpt><trkpt lat="44.2909206" lon="11.2241068"><ele>232.66666666666666</ele><time>2026-04-26T11:30:36.126Z</time></trkpt><trkpt lat="44.2909339" lon="11.2242196"><ele>233.0</ele><time>2026-04-26T11:30:37.126Z</time></trkpt><trkpt lat="44.2909486" lon="11.2243312"><ele>233.33333333333331</ele><time>2026-04-26T11:30:38.125Z</time></trkpt><trkpt lat="44.2909658" lon="11.2244405"><ele>233.66666666666666</ele><time>2026-04-26T11:30:39.121Z</time></trkpt><trkpt lat="44.2909858" lon="11.2245495"><ele>234.0</ele><time>2026-04-26T11:30:40.132Z</time></trkpt><trkpt lat="44.2910093" lon="11.2246582"><ele>234.0</ele><time>2026-04-26T11:30:41.126Z</time></trkpt><trkpt lat="44.2910343" lon="11.2247645"><ele>234.0</ele><time>2026-04-26T11:30:42.123Z</time></trkpt><trkpt lat="44.291064" lon="11.2248668"><ele>234.0</ele><time>2026-04-26T11:30:43.128Z</time></trkpt><trkpt lat="44.2910974" lon="11.2249652"><ele>234.0</ele><time>2026-04-26T11:30:44.123Z</time></trkpt><trkpt lat="44.2911364" lon="11.2250589"><ele>234.0</ele><time>2026-04-26T11:30:45.126Z</time></trkpt><trkpt lat="44.2911822" lon="11.2251452"><ele>234.0</ele><time>2026-04-26T11:30:46.122Z</time></trkpt><trkpt lat="44.2912343" lon="11.2252239"><ele>233.33333333333334</ele><time>2026-04-26T11:30:47.12Z</time></trkpt><trkpt lat="44.2912905" lon="11.225298"><ele>232.66666666666669</ele><time>2026-04-26T11:30:48.121Z</time></trkpt><trkpt lat="44.291347" lon="11.2253709"><ele>232.0</ele><time>2026-04-26T11:30:49.126Z</time></trkpt><trkpt lat="44.2914025" lon="11.2254377"><ele>231.33333333333334</ele><time>2026-04-26T11:30:50.12Z</time></trkpt><trkpt lat="44.2914562" lon="11.2255141"><ele>230.66666666666669</ele><time>2026-04-26T11:30:51.127Z</time></trkpt><trkpt lat="44.2915086" lon="11.2255934"><ele>230.0</ele><time>2026-04-26T11:30:52.13Z</time></trkpt><trkpt lat="44.2915585" lon="11.2256749"><ele>229.33333333333334</ele><time>2026-04-26T11:30:53.117Z</time></trkpt><trkpt lat="44.2916069" lon="11.2257587"><ele>228.66666666666669</ele><time>2026-04-26T11:30:54.119Z</time></trkpt><trkpt lat="44.2916525" lon="11.2258424"><ele>228.0</ele><time>2026-04-26T11:30:55.127Z</time></trkpt><trkpt lat="44.2916965" lon="11.2259298"><ele>227.33333333333331</ele><time>2026-04-26T11:30:56.127Z</time></trkpt><trkpt lat="44.2917362" lon="11.2260199"><ele>226.66666666666666</ele><time>2026-04-26T11:30:57.132Z</time></trkpt><trkpt lat="44.2917782" lon="11.2261087"><ele>226.0</ele><time>2026-04-26T11:30:58.129Z</time></trkpt><trkpt lat="44.2918224" lon="11.2261945"><ele>226.0</ele><time>2026-04-26T11:30:59.13Z</time></trkpt><trkpt lat="44.2918646" lon="11.2262804"><ele>226.0</ele><time>2026-04-26T11:31:00.126Z</time></trkpt><trkpt lat="44.291906" lon="11.2263666"><ele>226.0</ele><time>2026-04-26T11:31:01.138Z</time></trkpt><trkpt lat="44.2919467" lon="11.2264512"><ele>226.0</ele><time>2026-04-26T11:31:02.128Z</time></trkpt><trkpt lat="44.2919873" lon="11.2265352"><ele>226.0</ele><time>2026-04-26T11:31:03.116Z</time></trkpt><trkpt lat="44.2920276" lon="11.226619"><ele>226.0</ele><time>2026-04-26T11:31:04.12Z</time></trkpt><trkpt lat="44.2920671" lon="11.2267044"><ele>226.0</ele><time>2026-04-26T11:31:05.122Z</time></trkpt><trkpt lat="44.2921064" lon="11.2267905"><ele>225.85714285714286</ele><time>2026-04-26T11:31:06.117Z</time></trkpt><trkpt lat="44.2921437" lon="11.2268788"><ele>225.71428571428572</ele><time>2026-04-26T11:31:07.123Z</time></trkpt><trkpt lat="44.2921779" lon="11.2269707"><ele>225.57142857142858</ele><time>2026-04-26T11:31:08.121Z</time></trkpt><trkpt lat="44.2922077" lon="11.2270646"><ele>225.42857142857144</ele><time>2026-04-26T11:31:09.124Z</time></trkpt><trkpt lat="44.2922313" lon="11.2271606"><ele>225.28571428571428</ele><time>2026-04-26T11:31:10.12Z</time></trkpt><trkpt lat="44.2922521" lon="11.2272571"><ele>225.14285714285717</ele><time>2026-04-26T11:31:11.12Z</time></trkpt><trkpt lat="44.2922729" lon="11.2273534"><ele>225.00000000000003</ele><time>2026-04-26T11:31:12.131Z</time></trkpt><trkpt lat="44.2922952" lon="11.2274496"><ele>225.00000000000003</ele><time>2026-04-26T11:31:13.113Z</time></trkpt><trkpt lat="44.2923153" lon="11.2275467"><ele>225.0</ele><time>2026-04-26T11:31:14.122Z</time></trkpt><trkpt lat="44.2923344" lon="11.227645"><ele>225.00000000000003</ele><time>2026-04-26T11:31:15.129Z</time></trkpt><trkpt lat="44.2923529" lon="11.2277417"><ele>225.00000000000003</ele><time>2026-04-26T11:31:16.109Z</time></trkpt><trkpt lat="44.2923709" lon="11.2278367"><ele>225.0</ele><time>2026-04-26T11:31:17.126Z</time></trkpt><trkpt lat="44.2923891" lon="11.2279315"><ele>225.00000000000003</ele><time>2026-04-26T11:31:18.118Z</time></trkpt><trkpt lat="44.2924056" lon="11.2280274"><ele>225.00000000000003</ele><time>2026-04-26T11:31:19.121Z</time></trkpt><trkpt lat="44.2924216" lon="11.2281238"><ele>225.14285714285717</ele><time>2026-04-26T11:31:20.115Z</time></trkpt><trkpt lat="44.2924358" lon="11.2282192"><ele>225.28571428571428</ele><time>2026-04-26T11:31:21.119Z</time></trkpt><trkpt lat="44.2924503" lon="11.2283137"><ele>225.42857142857144</ele><time>2026-04-26T11:31:22.134Z</time></trkpt><trkpt lat="44.2924653" lon="11.2284093"><ele>225.57142857142858</ele><time>2026-04-26T11:31:23.125Z</time></trkpt><trkpt lat="44.2924795" lon="11.2285068"><ele>225.71428571428572</ele><time>2026-04-26T11:31:24.127Z</time></trkpt><trkpt lat="44.2924948" lon="11.2286059"><ele>225.85714285714286</ele><time>2026-04-26T11:31:25.123Z</time></trkpt><trkpt lat="44.2925124" lon="11.2287067"><ele>226.0</ele><time>2026-04-26T11:31:26.123Z</time></trkpt><trkpt lat="44.2925347" lon="11.2288069"><ele>225.99999999999997</ele><time>2026-04-26T11:31:27.118Z</time></trkpt><trkpt lat="44.2925625" lon="11.228907"><ele>226.0</ele><time>2026-04-26T11:31:28.129Z</time></trkpt><trkpt lat="44.2925985" lon="11.2290037"><ele>226.0</ele><time>2026-04-26T11:31:29.128Z</time></trkpt><trkpt lat="44.2926447" lon="11.2290945"><ele>226.0</ele><time>2026-04-26T11:31:30.121Z</time></trkpt><trkpt lat="44.2927017" lon="11.2291764"><ele>225.99999999999997</ele><time>2026-04-26T11:31:31.126Z</time></trkpt><trkpt lat="44.2927672" lon="11.2292495"><ele>226.0</ele><time>2026-04-26T11:31:32.114Z</time></trkpt><trkpt lat="44.2928369" lon="11.2293183"><ele>226.66666666666666</ele><time>2026-04-26T11:31:33.12Z</time></trkpt><trkpt lat="44.2929096" lon="11.2293833"><ele>227.33333333333331</ele><time>2026-04-26T11:31:34.122Z</time></trkpt><trkpt lat="44.2929838" lon="11.2294481"><ele>228.0</ele><time>2026-04-26T11:31:35.13Z</time></trkpt><trkpt lat="44.2930586" lon="11.2295146"><ele>228.66666666666669</ele><time>2026-04-26T11:31:36.125Z</time></trkpt><trkpt lat="44.2931342" lon="11.229582"><ele>229.33333333333334</ele><time>2026-04-26T11:31:37.12Z</time></trkpt><trkpt lat="44.2932108" lon="11.2296501"><ele>230.0</ele><time>2026-04-26T11:31:38.124Z</time></trkpt><trkpt lat="44.2932871" lon="11.2297178"><ele>229.00000000000003</ele><time>2026-04-26T11:31:39.11Z</time></trkpt><trkpt lat="44.2933609" lon="11.2297865"><ele>228.0</ele><time>2026-04-26T11:31:40.117Z</time></trkpt><trkpt lat="44.2934341" lon="11.229856"><ele>227.0</ele><time>2026-04-26T11:31:41.133Z</time></trkpt><trkpt lat="44.2935069" lon="11.2299248"><ele>226.0</ele><time>2026-04-26T11:31:42.126Z</time></trkpt><trkpt lat="44.2935796" lon="11.2299945"><ele>225.00000000000003</ele><time>2026-04-26T11:31:43.127Z</time></trkpt><trkpt lat="44.2936525" lon="11.2300667"><ele>224.0</ele><time>2026-04-26T11:31:44.122Z</time></trkpt><trkpt lat="44.2937224" lon="11.2301469"><ele>224.0</ele><time>2026-04-26T11:31:45.114Z</time></trkpt><trkpt lat="44.2937854" lon="11.2302414"><ele>223.99999999999997</ele><time>2026-04-26T11:31:46.124Z</time></trkpt><trkpt lat="44.2938364" lon="11.2303505"><ele>223.99999999999997</ele><time>2026-04-26T11:31:47.119Z</time></trkpt><trkpt lat="44.293887" lon="11.2304596"><ele>224.0</ele><time>2026-04-26T11:31:48.121Z</time></trkpt><trkpt lat="44.2939074" lon="11.2305888"><ele>224.0</ele><time>2026-04-26T11:31:49.125Z</time></trkpt><trkpt lat="44.2939175" lon="11.230725"><ele>222.2</ele><time>2026-04-26T11:31:50.118Z</time></trkpt><trkpt lat="44.2939239" lon="11.2308587"><ele>220.39999999999998</ele><time>2026-04-26T11:31:51.12Z</time></trkpt><trkpt lat="44.2939295" lon="11.2309928"><ele>218.6</ele><time>2026-04-26T11:31:52.123Z</time></trkpt><trkpt lat="44.2939376" lon="11.2311299"><ele>216.8</ele><time>2026-04-26T11:31:53.119Z</time></trkpt><trkpt lat="44.2939472" lon="11.2312677"><ele>215.0</ele><time>2026-04-26T11:31:54.128Z</time></trkpt><trkpt lat="44.293956" lon="11.2314068"><ele>214.0</ele><time>2026-04-26T11:31:55.123Z</time></trkpt><trkpt lat="44.2939621" lon="11.2315447"><ele>213.0</ele><time>2026-04-26T11:31:56.127Z</time></trkpt><trkpt lat="44.2939683" lon="11.2316791"><ele>212.0</ele><time>2026-04-26T11:31:57.126Z</time></trkpt><trkpt lat="44.2939755" lon="11.2318088"><ele>211.0</ele><time>2026-04-26T11:31:58.125Z</time></trkpt><trkpt lat="44.2939861" lon="11.2319342"><ele>210.0</ele><time>2026-04-26T11:31:59.124Z</time></trkpt><trkpt lat="44.2940052" lon="11.2320547"><ele>210.0</ele><time>2026-04-26T11:32:00.126Z</time></trkpt><trkpt lat="44.2940371" lon="11.2321654"><ele>210.0</ele><time>2026-04-26T11:32:01.129Z</time></trkpt><trkpt lat="44.2940803" lon="11.2322683"><ele>210.0</ele><time>2026-04-26T11:32:02.122Z</time></trkpt><trkpt lat="44.2941267" lon="11.2323665"><ele>210.0</ele><time>2026-04-26T11:32:03.129Z</time></trkpt><trkpt lat="44.2941749" lon="11.2324635"><ele>210.0</ele><time>2026-04-26T11:32:04.13Z</time></trkpt><trkpt lat="44.2942245" lon="11.2325584"><ele>210.0</ele><time>2026-04-26T11:32:05.136Z</time></trkpt><trkpt lat="44.2942737" lon="11.2326525"><ele>210.83333333333334</ele><time>2026-04-26T11:32:06.118Z</time></trkpt><trkpt lat="44.2943214" lon="11.2327462"><ele>211.66666666666669</ele><time>2026-04-26T11:32:07.124Z</time></trkpt><trkpt lat="44.2943681" lon="11.2328391"><ele>212.5</ele><time>2026-04-26T11:32:08.126Z</time></trkpt><trkpt lat="44.2944163" lon="11.2329298"><ele>213.33333333333334</ele><time>2026-04-26T11:32:09.124Z</time></trkpt><trkpt lat="44.2944631" lon="11.2330197"><ele>214.16666666666669</ele><time>2026-04-26T11:32:10.11Z</time></trkpt><trkpt lat="44.2945093" lon="11.2331093"><ele>215.0</ele><time>2026-04-26T11:32:11.121Z</time></trkpt><trkpt lat="44.2945558" lon="11.2331971"><ele>215.83333333333334</ele><time>2026-04-26T11:32:12.124Z</time></trkpt><trkpt lat="44.2946009" lon="11.2332859"><ele>216.66666666666669</ele><time>2026-04-26T11:32:13.124Z</time></trkpt><trkpt lat="44.2946455" lon="11.2333741"><ele>217.5</ele><time>2026-04-26T11:32:14.125Z</time></trkpt><trkpt lat="44.2946875" lon="11.2334636"><ele>218.33333333333331</ele><time>2026-04-26T11:32:15.122Z</time></trkpt><trkpt lat="44.2947273" lon="11.2335552"><ele>219.16666666666666</ele><time>2026-04-26T11:32:16.115Z</time></trkpt><trkpt lat="44.2947678" lon="11.2336464"><ele>220.0</ele><time>2026-04-26T11:32:17.121Z</time></trkpt><trkpt lat="44.2948089" lon="11.2337355"><ele>218.28571428571428</ele><time>2026-04-26T11:32:18.117Z</time></trkpt><trkpt lat="44.2948501" lon="11.2338226"><ele>216.57142857142856</ele><time>2026-04-26T11:32:19.125Z</time></trkpt><trkpt lat="44.294892" lon="11.2339092"><ele>214.85714285714283</ele><time>2026-04-26T11:32:20.129Z</time></trkpt><trkpt lat="44.294928" lon="11.2339993"><ele>213.14285714285714</ele><time>2026-04-26T11:32:21.128Z</time></trkpt><trkpt lat="44.2949531" lon="11.2340951"><ele>211.42857142857144</ele><time>2026-04-26T11:32:22.123Z</time></trkpt><trkpt lat="44.2949708" lon="11.2341938"><ele>209.7142857142857</ele><time>2026-04-26T11:32:23.122Z</time></trkpt><trkpt lat="44.2949865" lon="11.2342916"><ele>208.0</ele><time>2026-04-26T11:32:24.121Z</time></trkpt><trkpt lat="44.2949984" lon="11.2343907"><ele>208.0</ele><time>2026-04-26T11:32:25.129Z</time></trkpt><trkpt lat="44.2950048" lon="11.2344916"><ele>208.0</ele><time>2026-04-26T11:32:26.122Z</time></trkpt><trkpt lat="44.2950054" lon="11.2345922"><ele>208.0</ele><time>2026-04-26T11:32:27.118Z</time></trkpt><trkpt lat="44.2950026" lon="11.234692"><ele>208.0</ele><time>2026-04-26T11:32:28.12Z</time></trkpt><trkpt lat="44.2950017" lon="11.2347902"><ele>208.0</ele><time>2026-04-26T11:32:29.13Z</time></trkpt><trkpt lat="44.295008" lon="11.2348864"><ele>208.0</ele><time>2026-04-26T11:32:30.119Z</time></trkpt><trkpt lat="44.2950231" lon="11.2349807"><ele>208.0</ele><time>2026-04-26T11:32:31.12Z</time></trkpt><trkpt lat="44.2950436" lon="11.2350777"><ele>209.16666666666666</ele><time>2026-04-26T11:32:32.121Z</time></trkpt><trkpt lat="44.2950694" lon="11.2351788"><ele>210.33333333333331</ele><time>2026-04-26T11:32:33.122Z</time></trkpt><trkpt lat="44.2950912" lon="11.2352864"><ele>211.5</ele><time>2026-04-26T11:32:34.12Z</time></trkpt><trkpt lat="44.295106" lon="11.2353958"><ele>212.66666666666669</ele><time>2026-04-26T11:32:35.118Z</time></trkpt><trkpt lat="44.2951119" lon="11.2355064"><ele>213.83333333333334</ele><time>2026-04-26T11:32:36.1Z</time></trkpt><trkpt lat="44.2951084" lon="11.2356157"><ele>215.0</ele><time>2026-04-26T11:32:37.13Z</time></trkpt><trkpt lat="44.2950983" lon="11.2357223"><ele>215.14285714285714</ele><time>2026-04-26T11:32:38.124Z</time></trkpt><trkpt lat="44.2950813" lon="11.235826"><ele>215.2857142857143</ele><time>2026-04-26T11:32:39.12Z</time></trkpt><trkpt lat="44.2950608" lon="11.2359269"><ele>215.42857142857144</ele><time>2026-04-26T11:32:40.117Z</time></trkpt><trkpt lat="44.2950379" lon="11.2360257"><ele>215.57142857142856</ele><time>2026-04-26T11:32:41.125Z</time></trkpt><trkpt lat="44.2950146" lon="11.2361235"><ele>215.71428571428572</ele><time>2026-04-26T11:32:42.114Z</time></trkpt><trkpt lat="44.2949984" lon="11.236223"><ele>215.85714285714286</ele><time>2026-04-26T11:32:43.125Z</time></trkpt><trkpt lat="44.2949956" lon="11.2363216"><ele>216.0</ele><time>2026-04-26T11:32:44.127Z</time></trkpt><trkpt lat="44.2950076" lon="11.2364118"><ele>219.0</ele><time>2026-04-26T11:32:45.12Z</time></trkpt><trkpt lat="44.2950669" lon="11.236557"><ele>222.0</ele><time>2026-04-26T11:32:47.129Z</time></trkpt><trkpt lat="44.2951557" lon="11.2366507"><ele>225.0</ele><time>2026-04-26T11:32:49.12Z</time></trkpt><trkpt lat="44.2952598" lon="11.2367004"><ele>228.0</ele><time>2026-04-26T11:32:51.124Z</time></trkpt><trkpt lat="44.2953689" lon="11.2367326"><ele>228.0</ele><time>2026-04-26T11:32:53.124Z</time></trkpt><trkpt lat="44.2954744" lon="11.2367875"><ele>228.0</ele><time>2026-04-26T11:32:55.124Z</time></trkpt><trkpt lat="44.295557" lon="11.2368997"><ele>228.0</ele><time>2026-04-26T11:32:57.119Z</time></trkpt><trkpt lat="44.2955888" lon="11.2370581"><ele>228.0</ele><time>2026-04-26T11:32:59.121Z</time></trkpt><trkpt lat="44.2955854" lon="11.2372257"><ele>224.66666666666666</ele><time>2026-04-26T11:33:01.131Z</time></trkpt><trkpt lat="44.2955789" lon="11.2373983"><ele>221.33333333333331</ele><time>2026-04-26T11:33:03.128Z</time></trkpt><trkpt lat="44.2955748" lon="11.2374889"><ele>218.0</ele><time>2026-04-26T11:33:04.124Z</time></trkpt><trkpt lat="44.2955707" lon="11.2375815"><ele>214.66666666666666</ele><time>2026-04-26T11:33:05.118Z</time></trkpt><trkpt lat="44.2955735" lon="11.237678"><ele>211.33333333333331</ele><time>2026-04-26T11:33:06.123Z</time></trkpt><trkpt lat="44.2955832" lon="11.237776"><ele>208.0</ele><time>2026-04-26T11:33:07.119Z</time></trkpt><trkpt lat="44.2955972" lon="11.2378759"><ele>207.99999999999997</ele><time>2026-04-26T11:33:08.117Z</time></trkpt><trkpt lat="44.2956166" lon="11.2379767"><ele>208.0</ele><time>2026-04-26T11:33:09.124Z</time></trkpt><trkpt lat="44.2956398" lon="11.2380785"><ele>208.0</ele><time>2026-04-26T11:33:10.129Z</time></trkpt><trkpt lat="44.2956684" lon="11.2381811"><ele>208.0</ele><time>2026-04-26T11:33:11.121Z</time></trkpt><trkpt lat="44.2957007" lon="11.2382842"><ele>207.99999999999997</ele><time>2026-04-26T11:33:12.122Z</time></trkpt><trkpt lat="44.2957337" lon="11.238389"><ele>208.0</ele><time>2026-04-26T11:33:13.13Z</time></trkpt><trkpt lat="44.2957678" lon="11.2384958"><ele>209.16666666666666</ele><time>2026-04-26T11:33:14.122Z</time></trkpt><trkpt lat="44.2958048" lon="11.2386019"><ele>210.33333333333331</ele><time>2026-04-26T11:33:15.128Z</time></trkpt><trkpt lat="44.2958445" lon="11.2387111"><ele>211.5</ele><time>2026-04-26T11:33:16.125Z</time></trkpt><trkpt lat="44.2958849" lon="11.2388213"><ele>212.66666666666669</ele><time>2026-04-26T11:33:17.123Z</time></trkpt><trkpt lat="44.2959254" lon="11.2389342"><ele>213.83333333333334</ele><time>2026-04-26T11:33:18.141Z</time></trkpt><trkpt lat="44.2959664" lon="11.2390484"><ele>215.0</ele><time>2026-04-26T11:33:19.118Z</time></trkpt><trkpt lat="44.2960087" lon="11.239162"><ele>218.16666666666669</ele><time>2026-04-26T11:33:20.133Z</time></trkpt><trkpt lat="44.2960513" lon="11.2392723"><ele>221.33333333333334</ele><time>2026-04-26T11:33:21.131Z</time></trkpt><trkpt lat="44.2960933" lon="11.239383"><ele>224.5</ele><time>2026-04-26T11:33:22.114Z</time></trkpt><trkpt lat="44.2961367" lon="11.2394895"><ele>227.66666666666669</ele><time>2026-04-26T11:33:23.125Z</time></trkpt><trkpt lat="44.2961821" lon="11.2395922"><ele>230.83333333333334</ele><time>2026-04-26T11:33:24.124Z</time></trkpt><trkpt lat="44.2962287" lon="11.2396927"><ele>234.0</ele><time>2026-04-26T11:33:25.123Z</time></trkpt><trkpt lat="44.2962764" lon="11.2397918"><ele>237.16666666666666</ele><time>2026-04-26T11:33:26.129Z</time></trkpt><trkpt lat="44.2963247" lon="11.2398875"><ele>240.33333333333331</ele><time>2026-04-26T11:33:27.122Z</time></trkpt><trkpt lat="44.2963727" lon="11.239983"><ele>243.5</ele><time>2026-04-26T11:33:28.125Z</time></trkpt><trkpt lat="44.2964206" lon="11.2400784"><ele>246.66666666666666</ele><time>2026-04-26T11:33:29.125Z</time></trkpt><trkpt lat="44.2964692" lon="11.2401713"><ele>249.83333333333331</ele><time>2026-04-26T11:33:30.117Z</time></trkpt><trkpt lat="44.2965172" lon="11.2402631"><ele>253.0</ele><time>2026-04-26T11:33:31.129Z</time></trkpt><trkpt lat="44.296564" lon="11.2403549"><ele>248.83333333333331</ele><time>2026-04-26T11:33:32.127Z</time></trkpt><trkpt lat="44.2966112" lon="11.2404467"><ele>244.66666666666666</ele><time>2026-04-26T11:33:33.132Z</time></trkpt><trkpt lat="44.2966569" lon="11.2405387"><ele>240.5</ele><time>2026-04-26T11:33:34.132Z</time></trkpt><trkpt lat="44.2967022" lon="11.2406289"><ele>236.33333333333331</ele><time>2026-04-26T11:33:35.129Z</time></trkpt><trkpt lat="44.2967483" lon="11.2407177"><ele>232.16666666666666</ele><time>2026-04-26T11:33:36.123Z</time></trkpt><trkpt lat="44.2967971" lon="11.2408067"><ele>228.0</ele><time>2026-04-26T11:33:37.124Z</time></trkpt><trkpt lat="44.296848" lon="11.2408929"><ele>228.0</ele><time>2026-04-26T11:33:38.128Z</time></trkpt><trkpt lat="44.2968983" lon="11.2409793"><ele>228.0</ele><time>2026-04-26T11:33:39.135Z</time></trkpt><trkpt lat="44.2969552" lon="11.2410587"><ele>228.0</ele><time>2026-04-26T11:33:40.125Z</time></trkpt><trkpt lat="44.297015" lon="11.2411453"><ele>228.0</ele><time>2026-04-26T11:33:41.126Z</time></trkpt><trkpt lat="44.2970727" lon="11.2412415"><ele>228.0</ele><time>2026-04-26T11:33:42.124Z</time></trkpt><trkpt lat="44.297123" lon="11.241352"><ele>228.0</ele><time>2026-04-26T11:33:43.127Z</time></trkpt><trkpt lat="44.2971666" lon="11.241469"><ele>230.8</ele><time>2026-04-26T11:33:44.119Z</time></trkpt><trkpt lat="44.2972098" lon="11.2415885"><ele>233.60000000000002</ele><time>2026-04-26T11:33:45.135Z</time></trkpt><trkpt lat="44.2972454" lon="11.2417234"><ele>236.39999999999998</ele><time>2026-04-26T11:33:46.129Z</time></trkpt><trkpt lat="44.2972744" lon="11.2418631"><ele>239.2</ele><time>2026-04-26T11:33:47.12Z</time></trkpt><trkpt lat="44.2973008" lon="11.2420046"><ele>242.0</ele><time>2026-04-26T11:33:48.132Z</time></trkpt><trkpt lat="44.2973229" lon="11.24215"><ele>233.8</ele><time>2026-04-26T11:33:49.117Z</time></trkpt><trkpt lat="44.297343" lon="11.2422975"><ele>225.6</ele><time>2026-04-26T11:33:50.138Z</time></trkpt><trkpt lat="44.2973613" lon="11.2424469"><ele>217.4</ele><time>2026-04-26T11:33:51.123Z</time></trkpt><trkpt lat="44.2973838" lon="11.2425958"><ele>209.20000000000002</ele><time>2026-04-26T11:33:52.128Z</time></trkpt><trkpt lat="44.2974148" lon="11.2427426"><ele>201.0</ele><time>2026-04-26T11:33:53.132Z</time></trkpt><trkpt lat="44.297457" lon="11.2428866"><ele>201.0</ele><time>2026-04-26T11:33:54.121Z</time></trkpt><trkpt lat="44.2975125" lon="11.2430241"><ele>201.0</ele><time>2026-04-26T11:33:55.119Z</time></trkpt><trkpt lat="44.2975681" lon="11.24316"><ele>201.0</ele><time>2026-04-26T11:33:56.13Z</time></trkpt><trkpt lat="44.2976373" lon="11.2432794"><ele>201.0</ele><time>2026-04-26T11:33:57.117Z</time></trkpt><trkpt lat="44.2977065" lon="11.2433985"><ele>201.0</ele><time>2026-04-26T11:33:58.128Z</time></trkpt><trkpt lat="44.2977771" lon="11.2435162"><ele>200.8</ele><time>2026-04-26T11:33:59.13Z</time></trkpt><trkpt lat="44.2978443" lon="11.2436377"><ele>200.60000000000002</ele><time>2026-04-26T11:34:00.125Z</time></trkpt><trkpt lat="44.2979072" lon="11.2437625"><ele>200.4</ele><time>2026-04-26T11:34:01.122Z</time></trkpt><trkpt lat="44.297966" lon="11.243888"><ele>200.2</ele><time>2026-04-26T11:34:02.123Z</time></trkpt><trkpt lat="44.2980223" lon="11.2440113"><ele>200.0</ele><time>2026-04-26T11:34:03.13Z</time></trkpt><trkpt lat="44.2980781" lon="11.244133"><ele>198.2</ele><time>2026-04-26T11:34:04.119Z</time></trkpt><trkpt lat="44.2981335" lon="11.2442512"><ele>196.4</ele><time>2026-04-26T11:34:05.122Z</time></trkpt><trkpt lat="44.2981914" lon="11.2443641"><ele>194.60000000000002</ele><time>2026-04-26T11:34:06.125Z</time></trkpt><trkpt lat="44.2982506" lon="11.2444704"><ele>192.8</ele><time>2026-04-26T11:34:07.121Z</time></trkpt><trkpt lat="44.2983104" lon="11.2445721"><ele>191.0</ele><time>2026-04-26T11:34:08.122Z</time></trkpt><trkpt lat="44.2983735" lon="11.2446678"><ele>191.0</ele><time>2026-04-26T11:34:09.123Z</time></trkpt><trkpt lat="44.2984395" lon="11.2447584"><ele>191.0</ele><time>2026-04-26T11:34:10.129Z</time></trkpt><trkpt lat="44.2985054" lon="11.2448469"><ele>191.0</ele><time>2026-04-26T11:34:11.127Z</time></trkpt><trkpt lat="44.2985715" lon="11.244935"><ele>191.0</ele><time>2026-04-26T11:34:12.125Z</time></trkpt><trkpt lat="44.2986386" lon="11.2450194"><ele>191.0</ele><time>2026-04-26T11:34:13.123Z</time></trkpt><trkpt lat="44.2987089" lon="11.2450993"><ele>190.8</ele><time>2026-04-26T11:34:14.122Z</time></trkpt><trkpt lat="44.2987813" lon="11.2451742"><ele>190.60000000000002</ele><time>2026-04-26T11:34:15.131Z</time></trkpt><trkpt lat="44.2988549" lon="11.2452478"><ele>190.4</ele><time>2026-04-26T11:34:16.139Z</time></trkpt><trkpt lat="44.2989293" lon="11.2453194"><ele>190.2</ele><time>2026-04-26T11:34:17.125Z</time></trkpt><trkpt lat="44.2990038" lon="11.2453889"><ele>190.0</ele><time>2026-04-26T11:34:18.125Z</time></trkpt><trkpt lat="44.2990795" lon="11.2454595"><ele>190.0</ele><time>2026-04-26T11:34:19.13Z</time></trkpt><trkpt lat="44.2991552" lon="11.2455299"><ele>190.0</ele><time>2026-04-26T11:34:20.125Z</time></trkpt><trkpt lat="44.2992292" lon="11.2455998"><ele>190.0</ele><time>2026-04-26T11:34:21.123Z</time></trkpt><trkpt lat="44.2993041" lon="11.245671"><ele>190.0</ele><time>2026-04-26T11:34:22.123Z</time></trkpt><trkpt lat="44.2993794" lon="11.245738"><ele>190.0</ele><time>2026-04-26T11:34:23.118Z</time></trkpt><trkpt lat="44.2994552" lon="11.2458026"><ele>190.0</ele><time>2026-04-26T11:34:24.118Z</time></trkpt><trkpt lat="44.2995327" lon="11.2458684"><ele>190.66666666666669</ele><time>2026-04-26T11:34:25.119Z</time></trkpt><trkpt lat="44.2996106" lon="11.2459325"><ele>191.33333333333334</ele><time>2026-04-26T11:34:26.128Z</time></trkpt><trkpt lat="44.2996872" lon="11.2459941"><ele>192.0</ele><time>2026-04-26T11:34:27.122Z</time></trkpt><trkpt lat="44.2997654" lon="11.246043"><ele>192.66666666666669</ele><time>2026-04-26T11:34:28.129Z</time></trkpt><trkpt lat="44.2998418" lon="11.2460905"><ele>193.33333333333334</ele><time>2026-04-26T11:34:29.123Z</time></trkpt><trkpt lat="44.2999258" lon="11.2461259"><ele>194.0</ele><time>2026-04-26T11:34:30.118Z</time></trkpt><trkpt lat="44.3000088" lon="11.246155"><ele>194.00000000000003</ele><time>2026-04-26T11:34:31.136Z</time></trkpt><trkpt lat="44.3000923" lon="11.2461707"><ele>194.0</ele><time>2026-04-26T11:34:32.126Z</time></trkpt><trkpt lat="44.3001781" lon="11.2461684"><ele>194.0</ele><time>2026-04-26T11:34:33.126Z</time></trkpt><trkpt lat="44.3002616" lon="11.2461513"><ele>194.0</ele><time>2026-04-26T11:34:34.12Z</time></trkpt><trkpt lat="44.3003443" lon="11.2461255"><ele>194.00000000000003</ele><time>2026-04-26T11:34:35.126Z</time></trkpt><trkpt lat="44.300424" lon="11.2460848"><ele>194.0</ele><time>2026-04-26T11:34:36.127Z</time></trkpt><trkpt lat="44.3005021" lon="11.2460357"><ele>194.00000000000003</ele><time>2026-04-26T11:34:37.124Z</time></trkpt><trkpt lat="44.3005808" lon="11.2459875"><ele>194.0</ele><time>2026-04-26T11:34:38.12Z</time></trkpt><trkpt lat="44.3006579" lon="11.2459373"><ele>194.0</ele><time>2026-04-26T11:34:39.116Z</time></trkpt><trkpt lat="44.3007343" lon="11.2458843"><ele>194.0</ele><time>2026-04-26T11:34:40.12Z</time></trkpt><trkpt lat="44.3008078" lon="11.2458271"><ele>194.00000000000003</ele><time>2026-04-26T11:34:41.127Z</time></trkpt><trkpt lat="44.300881" lon="11.2457704"><ele>194.0</ele><time>2026-04-26T11:34:42.127Z</time></trkpt><trkpt lat="44.3009502" lon="11.2457076"><ele>194.66666666666669</ele><time>2026-04-26T11:34:43.118Z</time></trkpt><trkpt lat="44.3010156" lon="11.2456468"><ele>195.33333333333334</ele><time>2026-04-26T11:34:44.119Z</time></trkpt><trkpt lat="44.3010694" lon="11.2455665"><ele>196.0</ele><time>2026-04-26T11:34:45.123Z</time></trkpt><trkpt lat="44.3011162" lon="11.2454764"><ele>196.66666666666669</ele><time>2026-04-26T11:34:46.124Z</time></trkpt><trkpt lat="44.3011558" lon="11.2453822"><ele>197.33333333333334</ele><time>2026-04-26T11:34:47.127Z</time></trkpt><trkpt lat="44.3011929" lon="11.2452926"><ele>198.0</ele><time>2026-04-26T11:34:48.131Z</time></trkpt><trkpt lat="44.3012298" lon="11.2452045"><ele>196.2857142857143</ele><time>2026-04-26T11:34:49.12Z</time></trkpt><trkpt lat="44.3012662" lon="11.2451187"><ele>194.57142857142856</ele><time>2026-04-26T11:34:50.127Z</time></trkpt><trkpt lat="44.301305" lon="11.2450372"><ele>192.85714285714286</ele><time>2026-04-26T11:34:51.123Z</time></trkpt><trkpt lat="44.3013529" lon="11.2449708"><ele>191.14285714285717</ele><time>2026-04-26T11:34:52.131Z</time></trkpt><trkpt lat="44.3014123" lon="11.2449234"><ele>189.42857142857144</ele><time>2026-04-26T11:34:53.118Z</time></trkpt><trkpt lat="44.30148" lon="11.2448995"><ele>187.71428571428572</ele><time>2026-04-26T11:34:54.127Z</time></trkpt><trkpt lat="44.3015517" lon="11.2449085"><ele>186.0</ele><time>2026-04-26T11:34:55.123Z</time></trkpt><trkpt lat="44.3016176" lon="11.2449523"><ele>186.00000000000003</ele><time>2026-04-26T11:34:56.128Z</time></trkpt><trkpt lat="44.3016679" lon="11.2450228"><ele>186.0</ele><time>2026-04-26T11:34:57.119Z</time></trkpt><trkpt lat="44.3017065" lon="11.2451064"><ele>186.0</ele><time>2026-04-26T11:34:58.129Z</time></trkpt><trkpt lat="44.3017328" lon="11.2451991"><ele>186.0</ele><time>2026-04-26T11:34:59.128Z</time></trkpt><trkpt lat="44.3017536" lon="11.2452943"><ele>186.0</ele><time>2026-04-26T11:35:00.12Z</time></trkpt><trkpt lat="44.3017781" lon="11.2453871"><ele>186.00000000000003</ele><time>2026-04-26T11:35:01.124Z</time></trkpt><trkpt lat="44.301806" lon="11.2454786"><ele>186.0</ele><time>2026-04-26T11:35:02.121Z</time></trkpt><trkpt lat="44.3018342" lon="11.2455694"><ele>189.00000000000003</ele><time>2026-04-26T11:35:03.127Z</time></trkpt><trkpt lat="44.3018624" lon="11.2456587"><ele>192.0</ele><time>2026-04-26T11:35:04.126Z</time></trkpt><trkpt lat="44.3018921" lon="11.245746"><ele>195.0</ele><time>2026-04-26T11:35:05.124Z</time></trkpt><trkpt lat="44.3019176" lon="11.2458365"><ele>198.0</ele><time>2026-04-26T11:35:06.123Z</time></trkpt><trkpt lat="44.3019419" lon="11.2459264"><ele>201.0</ele><time>2026-04-26T11:35:07.117Z</time></trkpt><trkpt lat="44.3019685" lon="11.2460153"><ele>204.00000000000003</ele><time>2026-04-26T11:35:08.131Z</time></trkpt><trkpt lat="44.3019937" lon="11.2461035"><ele>207.0</ele><time>2026-04-26T11:35:09.129Z</time></trkpt><trkpt lat="44.3020173" lon="11.2461917"><ele>207.00000000000003</ele><time>2026-04-26T11:35:10.132Z</time></trkpt><trkpt lat="44.3020418" lon="11.2462793"><ele>207.0</ele><time>2026-04-26T11:35:11.131Z</time></trkpt><trkpt lat="44.3020668" lon="11.2463663"><ele>207.0</ele><time>2026-04-26T11:35:12.123Z</time></trkpt><trkpt lat="44.3020881" lon="11.2464613"><ele>207.0</ele><time>2026-04-26T11:35:13.119Z</time></trkpt><trkpt lat="44.3021126" lon="11.2465508"><ele>207.0</ele><time>2026-04-26T11:35:14.129Z</time></trkpt><trkpt lat="44.3021383" lon="11.2466366"><ele>207.00000000000003</ele><time>2026-04-26T11:35:15.12Z</time></trkpt><trkpt lat="44.3021659" lon="11.2467247"><ele>207.0</ele><time>2026-04-26T11:35:16.121Z</time></trkpt><trkpt lat="44.3021911" lon="11.2468106"><ele>208.71428571428572</ele><time>2026-04-26T11:35:17.131Z</time></trkpt><trkpt lat="44.3022149" lon="11.2468977"><ele>210.42857142857144</ele><time>2026-04-26T11:35:18.128Z</time></trkpt><trkpt lat="44.3022399" lon="11.2469854"><ele>212.14285714285717</ele><time>2026-04-26T11:35:19.12Z</time></trkpt><trkpt lat="44.3022676" lon="11.2470731"><ele>213.85714285714286</ele><time>2026-04-26T11:35:20.126Z</time></trkpt><trkpt lat="44.3022944" lon="11.2471568"><ele>215.57142857142856</ele><time>2026-04-26T11:35:21.119Z</time></trkpt><trkpt lat="44.3023193" lon="11.2472469"><ele>217.2857142857143</ele><time>2026-04-26T11:35:22.12Z</time></trkpt><trkpt lat="44.302347" lon="11.2473352"><ele>219.0</ele><time>2026-04-26T11:35:23.124Z</time></trkpt><trkpt lat="44.3023758" lon="11.2474246"><ele>215.14285714285714</ele><time>2026-04-26T11:35:24.131Z</time></trkpt><trkpt lat="44.3024061" lon="11.247513"><ele>211.28571428571428</ele><time>2026-04-26T11:35:25.122Z</time></trkpt><trkpt lat="44.3024399" lon="11.2475988"><ele>207.42857142857142</ele><time>2026-04-26T11:35:26.127Z</time></trkpt><trkpt lat="44.3024761" lon="11.2476844"><ele>203.57142857142856</ele><time>2026-04-26T11:35:27.126Z</time></trkpt><trkpt lat="44.3025145" lon="11.247767"><ele>199.71428571428572</ele><time>2026-04-26T11:35:28.12Z</time></trkpt><trkpt lat="44.3025572" lon="11.2478451"><ele>195.85714285714283</ele><time>2026-04-26T11:35:29.114Z</time></trkpt><trkpt lat="44.3026022" lon="11.2479199"><ele>192.0</ele><time>2026-04-26T11:35:30.13Z</time></trkpt><trkpt lat="44.302651" lon="11.2479883"><ele>191.99999999999997</ele><time>2026-04-26T11:35:31.127Z</time></trkpt><trkpt lat="44.3027026" lon="11.248052"><ele>192.0</ele><time>2026-04-26T11:35:32.13Z</time></trkpt><trkpt lat="44.3027549" lon="11.2481141"><ele>192.0</ele><time>2026-04-26T11:35:33.135Z</time></trkpt><trkpt lat="44.3028086" lon="11.2481723"><ele>192.0</ele><time>2026-04-26T11:35:34.122Z</time></trkpt><trkpt lat="44.3028604" lon="11.2482322"><ele>192.0</ele><time>2026-04-26T11:35:35.115Z</time></trkpt><trkpt lat="44.3029093" lon="11.2482931"><ele>191.99999999999997</ele><time>2026-04-26T11:35:36.124Z</time></trkpt><trkpt lat="44.302953" lon="11.2483599"><ele>192.0</ele><time>2026-04-26T11:35:37.133Z</time></trkpt><trkpt lat="44.3029916" lon="11.2484324"><ele>190.7142857142857</ele><time>2026-04-26T11:35:38.116Z</time></trkpt><trkpt lat="44.303031" lon="11.248504"><ele>189.42857142857142</ele><time>2026-04-26T11:35:39.132Z</time></trkpt><trkpt lat="44.3030675" lon="11.2485793"><ele>188.14285714285714</ele><time>2026-04-26T11:35:40.126Z</time></trkpt><trkpt lat="44.303105" lon="11.248653"><ele>186.85714285714283</ele><time>2026-04-26T11:35:41.123Z</time></trkpt><trkpt lat="44.3031434" lon="11.2487265"><ele>185.57142857142858</ele><time>2026-04-26T11:35:42.127Z</time></trkpt><trkpt lat="44.3031836" lon="11.2487947"><ele>184.28571428571428</ele><time>2026-04-26T11:35:43.126Z</time></trkpt><trkpt lat="44.3032264" lon="11.2488653"><ele>183.0</ele><time>2026-04-26T11:35:44.124Z</time></trkpt><trkpt lat="44.3032691" lon="11.248932"><ele>186.42857142857144</ele><time>2026-04-26T11:35:45.128Z</time></trkpt><trkpt lat="44.3033122" lon="11.2489999"><ele>189.85714285714286</ele><time>2026-04-26T11:35:46.123Z</time></trkpt><trkpt lat="44.3033576" lon="11.2490687"><ele>193.28571428571428</ele><time>2026-04-26T11:35:47.131Z</time></trkpt><trkpt lat="44.3034038" lon="11.2491367"><ele>196.71428571428572</ele><time>2026-04-26T11:35:48.125Z</time></trkpt><trkpt lat="44.3034505" lon="11.2492057"><ele>200.14285714285714</ele><time>2026-04-26T11:35:49.128Z</time></trkpt><trkpt lat="44.3034986" lon="11.2492709"><ele>203.57142857142858</ele><time>2026-04-26T11:35:50.129Z</time></trkpt><trkpt lat="44.30355" lon="11.249331"><ele>207.0</ele><time>2026-04-26T11:35:51.121Z</time></trkpt><trkpt lat="44.3036042" lon="11.2493873"><ele>207.00000000000003</ele><time>2026-04-26T11:35:52.121Z</time></trkpt><trkpt lat="44.3036605" lon="11.24944"><ele>207.0</ele><time>2026-04-26T11:35:53.133Z</time></trkpt><trkpt lat="44.3037192" lon="11.2494876"><ele>207.0</ele><time>2026-04-26T11:35:54.117Z</time></trkpt><trkpt lat="44.3037796" lon="11.2495299"><ele>207.0</ele><time>2026-04-26T11:35:55.128Z</time></trkpt><trkpt lat="44.3038421" lon="11.2495679"><ele>207.0</ele><time>2026-04-26T11:35:56.123Z</time></trkpt><trkpt lat="44.3039076" lon="11.2495965"><ele>207.00000000000003</ele><time>2026-04-26T11:35:57.127Z</time></trkpt><trkpt lat="44.3039751" lon="11.2496163"><ele>207.0</ele><time>2026-04-26T11:35:58.124Z</time></trkpt><trkpt lat="44.304043" lon="11.2496301"><ele>203.42857142857144</ele><time>2026-04-26T11:35:59.132Z</time></trkpt><trkpt lat="44.3041107" lon="11.2496402"><ele>199.85714285714286</ele><time>2026-04-26T11:36:00.13Z</time></trkpt><trkpt lat="44.3041782" lon="11.2496509"><ele>196.28571428571428</ele><time>2026-04-26T11:36:01.136Z</time></trkpt><trkpt lat="44.3042455" lon="11.2496618"><ele>192.71428571428572</ele><time>2026-04-26T11:36:02.123Z</time></trkpt><trkpt lat="44.3043122" lon="11.2496716"><ele>189.14285714285714</ele><time>2026-04-26T11:36:03.12Z</time></trkpt><trkpt lat="44.3043787" lon="11.2496831"><ele>185.57142857142858</ele><time>2026-04-26T11:36:04.125Z</time></trkpt><trkpt lat="44.3044449" lon="11.2496983"><ele>182.0</ele><time>2026-04-26T11:36:05.115Z</time></trkpt><trkpt lat="44.3045111" lon="11.2497121"><ele>182.0</ele><time>2026-04-26T11:36:06.123Z</time></trkpt><trkpt lat="44.3045762" lon="11.2497263"><ele>182.0</ele><time>2026-04-26T11:36:07.123Z</time></trkpt><trkpt lat="44.3046401" lon="11.2497548"><ele>182.0</ele><time>2026-04-26T11:36:08.13Z</time></trkpt><trkpt lat="44.3047017" lon="11.2497902"><ele>182.0</ele><time>2026-04-26T11:36:09.133Z</time></trkpt><trkpt lat="44.3047612" lon="11.2498307"><ele>182.0</ele><time>2026-04-26T11:36:10.122Z</time></trkpt><trkpt lat="44.3048185" lon="11.2498817"><ele>182.0</ele><time>2026-04-26T11:36:11.128Z</time></trkpt><trkpt lat="44.3048726" lon="11.2499379"><ele>182.0</ele><time>2026-04-26T11:36:12.122Z</time></trkpt><trkpt lat="44.3049231" lon="11.2500029"><ele>183.28571428571428</ele><time>2026-04-26T11:36:13.133Z</time></trkpt><trkpt lat="44.3049677" lon="11.2500791"><ele>184.57142857142856</ele><time>2026-04-26T11:36:14.168Z</time></trkpt><trkpt lat="44.3050025" lon="11.2501647"><ele>185.85714285714286</ele><time>2026-04-26T11:36:15.139Z</time></trkpt><trkpt lat="44.3050199" lon="11.2502615"><ele>187.14285714285714</ele><time>2026-04-26T11:36:16.135Z</time></trkpt><trkpt lat="44.305022" lon="11.250364"><ele>188.42857142857142</ele><time>2026-04-26T11:36:17.119Z</time></trkpt><trkpt lat="44.3050138" lon="11.2504682"><ele>189.71428571428572</ele><time>2026-04-26T11:36:18.117Z</time></trkpt><trkpt lat="44.3050042" lon="11.2505754"><ele>191.0</ele><time>2026-04-26T11:36:19.133Z</time></trkpt><trkpt lat="44.304993" lon="11.2506857"><ele>191.0</ele><time>2026-04-26T11:36:20.128Z</time></trkpt><trkpt lat="44.304984" lon="11.250799"><ele>191.0</ele><time>2026-04-26T11:36:21.122Z</time></trkpt><trkpt lat="44.304979" lon="11.2509169"><ele>191.0</ele><time>2026-04-26T11:36:22.125Z</time></trkpt><trkpt lat="44.3049799" lon="11.2510385"><ele>191.0</ele><time>2026-04-26T11:36:23.126Z</time></trkpt><trkpt lat="44.3049889" lon="11.2511644"><ele>191.0</ele><time>2026-04-26T11:36:24.135Z</time></trkpt><trkpt lat="44.305003" lon="11.25129"><ele>191.0</ele><time>2026-04-26T11:36:25.131Z</time></trkpt><trkpt lat="44.3050192" lon="11.2514176"><ele>191.4</ele><time>2026-04-26T11:36:26.122Z</time></trkpt><trkpt lat="44.3050355" lon="11.2515493"><ele>191.8</ele><time>2026-04-26T11:36:27.132Z</time></trkpt><trkpt lat="44.305045" lon="11.2516854"><ele>192.20000000000002</ele><time>2026-04-26T11:36:28.126Z</time></trkpt><trkpt lat="44.3050477" lon="11.2518249"><ele>192.60000000000002</ele><time>2026-04-26T11:36:29.123Z</time></trkpt><trkpt lat="44.3050413" lon="11.251966"><ele>193.0</ele><time>2026-04-26T11:36:30.134Z</time></trkpt><trkpt lat="44.305026" lon="11.2521073"><ele>193.0</ele><time>2026-04-26T11:36:31.124Z</time></trkpt><trkpt lat="44.3050044" lon="11.252248"><ele>193.0</ele><time>2026-04-26T11:36:32.119Z</time></trkpt><trkpt lat="44.3049824" lon="11.2523876"><ele>193.0</ele><time>2026-04-26T11:36:33.121Z</time></trkpt><trkpt lat="44.3049693" lon="11.2525291"><ele>193.0</ele><time>2026-04-26T11:36:34.127Z</time></trkpt><trkpt lat="44.3049742" lon="11.2526693"><ele>193.0</ele><time>2026-04-26T11:36:35.129Z</time></trkpt><trkpt lat="44.3049978" lon="11.2528046"><ele>192.4</ele><time>2026-04-26T11:36:36.126Z</time></trkpt><trkpt lat="44.3050221" lon="11.2529408"><ele>191.8</ele><time>2026-04-26T11:36:37.127Z</time></trkpt><trkpt lat="44.3050658" lon="11.2530609"><ele>191.2</ele><time>2026-04-26T11:36:38.125Z</time></trkpt><trkpt lat="44.305111" lon="11.2531745"><ele>190.6</ele><time>2026-04-26T11:36:39.125Z</time></trkpt><trkpt lat="44.3051567" lon="11.2532856"><ele>190.0</ele><time>2026-04-26T11:36:40.124Z</time></trkpt><trkpt lat="44.3052016" lon="11.2533975"><ele>190.0</ele><time>2026-04-26T11:36:41.13Z</time></trkpt><trkpt lat="44.3052463" lon="11.2535095"><ele>190.0</ele><time>2026-04-26T11:36:42.131Z</time></trkpt><trkpt lat="44.3052919" lon="11.2536187"><ele>190.0</ele><time>2026-04-26T11:36:43.131Z</time></trkpt><trkpt lat="44.3053379" lon="11.2537283"><ele>190.0</ele><time>2026-04-26T11:36:44.121Z</time></trkpt><trkpt lat="44.3053854" lon="11.2538374"><ele>190.0</ele><time>2026-04-26T11:36:45.127Z</time></trkpt><trkpt lat="44.3054315" lon="11.2539456"><ele>186.6</ele><time>2026-04-26T11:36:46.131Z</time></trkpt><trkpt lat="44.3054776" lon="11.2540551"><ele>183.2</ele><time>2026-04-26T11:36:47.126Z</time></trkpt><trkpt lat="44.3055239" lon="11.254165"><ele>179.8</ele><time>2026-04-26T11:36:48.128Z</time></trkpt><trkpt lat="44.3055715" lon="11.2542742"><ele>176.4</ele><time>2026-04-26T11:36:49.131Z</time></trkpt><trkpt lat="44.305621" lon="11.2543833"><ele>173.0</ele><time>2026-04-26T11:36:50.127Z</time></trkpt><trkpt lat="44.3056712" lon="11.2544911"><ele>173.0</ele><time>2026-04-26T11:36:51.128Z</time></trkpt><trkpt lat="44.3057289" lon="11.2545904"><ele>173.0</ele><time>2026-04-26T11:36:52.137Z</time></trkpt><trkpt lat="44.3057937" lon="11.254679"><ele>173.0</ele><time>2026-04-26T11:36:53.127Z</time></trkpt><trkpt lat="44.3058643" lon="11.2547586"><ele>173.0</ele><time>2026-04-26T11:36:54.121Z</time></trkpt><trkpt lat="44.3059411" lon="11.2548231"><ele>173.0</ele><time>2026-04-26T11:36:55.119Z</time></trkpt><trkpt lat="44.3060217" lon="11.2548764"><ele>172.66666666666666</ele><time>2026-04-26T11:36:56.128Z</time></trkpt><trkpt lat="44.3061021" lon="11.2549262"><ele>172.33333333333331</ele><time>2026-04-26T11:36:57.121Z</time></trkpt><trkpt lat="44.3061823" lon="11.2549684"><ele>172.0</ele><time>2026-04-26T11:36:58.126Z</time></trkpt><trkpt lat="44.3062609" lon="11.2550092"><ele>171.66666666666666</ele><time>2026-04-26T11:36:59.138Z</time></trkpt><trkpt lat="44.3063391" lon="11.2550502"><ele>171.33333333333334</ele><time>2026-04-26T11:37:00.128Z</time></trkpt><trkpt lat="44.3064156" lon="11.2550943"><ele>171.0</ele><time>2026-04-26T11:37:01.127Z</time></trkpt><trkpt lat="44.306491" lon="11.2551327"><ele>170.99999999999997</ele><time>2026-04-26T11:37:02.118Z</time></trkpt><trkpt lat="44.3065654" lon="11.2551675"><ele>171.0</ele><time>2026-04-26T11:37:03.122Z</time></trkpt><trkpt lat="44.3066374" lon="11.2551956"><ele>171.0</ele><time>2026-04-26T11:37:04.122Z</time></trkpt><trkpt lat="44.3067084" lon="11.2552186"><ele>171.0</ele><time>2026-04-26T11:37:05.128Z</time></trkpt><trkpt lat="44.3067781" lon="11.2552326"><ele>171.0</ele><time>2026-04-26T11:37:06.123Z</time></trkpt><trkpt lat="44.3068473" lon="11.2552397"><ele>170.99999999999997</ele><time>2026-04-26T11:37:07.129Z</time></trkpt><trkpt lat="44.3069138" lon="11.2552389"><ele>171.0</ele><time>2026-04-26T11:37:08.135Z</time></trkpt><trkpt lat="44.3069786" lon="11.2552303"><ele>171.0</ele><time>2026-04-26T11:37:09.125Z</time></trkpt><trkpt lat="44.3070987" lon="11.255205"><ele>171.0</ele><time>2026-04-26T11:37:11.124Z</time></trkpt><trkpt lat="44.3072068" lon="11.2551857"><ele>171.0</ele><time>2026-04-26T11:37:13.117Z</time></trkpt><trkpt lat="44.3073088" lon="11.2551728"><ele>171.0</ele><time>2026-04-26T11:37:15.132Z</time></trkpt><trkpt lat="44.3074086" lon="11.2551755"><ele>171.0</ele><time>2026-04-26T11:37:17.128Z</time></trkpt><trkpt lat="44.3075062" lon="11.2551915"><ele>171.4</ele><time>2026-04-26T11:37:19.116Z</time></trkpt><trkpt lat="44.3076021" lon="11.2552214"><ele>171.8</ele><time>2026-04-26T11:37:21.132Z</time></trkpt><trkpt lat="44.3076994" lon="11.255259"><ele>172.20000000000002</ele><time>2026-04-26T11:37:23.124Z</time></trkpt><trkpt lat="44.307797" lon="11.2553031"><ele>172.60000000000002</ele><time>2026-04-26T11:37:25.122Z</time></trkpt><trkpt lat="44.3078946" lon="11.2553415"><ele>173.0</ele><time>2026-04-26T11:37:27.122Z</time></trkpt><trkpt lat="44.3079897" lon="11.2553908"><ele>173.4</ele><time>2026-04-26T11:37:29.122Z</time></trkpt><trkpt lat="44.3080873" lon="11.255454"><ele>173.8</ele><time>2026-04-26T11:37:31.135Z</time></trkpt><trkpt lat="44.3081817" lon="11.2555409"><ele>174.2</ele><time>2026-04-26T11:37:33.134Z</time></trkpt><trkpt lat="44.3082676" lon="11.25566"><ele>174.6</ele><time>2026-04-26T11:37:35.122Z</time></trkpt><trkpt lat="44.3083042" lon="11.2557339"><ele>175.0</ele><time>2026-04-26T11:37:36.124Z</time></trkpt><trkpt lat="44.3083362" lon="11.2558169"><ele>175.5</ele><time>2026-04-26T11:37:37.124Z</time></trkpt><trkpt lat="44.3083644" lon="11.2559076"><ele>176.0</ele><time>2026-04-26T11:37:38.134Z</time></trkpt><trkpt lat="44.3083851" lon="11.2560057"><ele>176.5</ele><time>2026-04-26T11:37:39.122Z</time></trkpt><trkpt lat="44.3083968" lon="11.2561096"><ele>177.0</ele><time>2026-04-26T11:37:40.124Z</time></trkpt><trkpt lat="44.3084091" lon="11.25622"><ele>177.5</ele><time>2026-04-26T11:37:41.122Z</time></trkpt><trkpt lat="44.3084032" lon="11.2563339"><ele>178.0</ele><time>2026-04-26T11:37:42.125Z</time></trkpt><trkpt lat="44.3083821" lon="11.2564474"><ele>177.2</ele><time>2026-04-26T11:37:43.122Z</time></trkpt><trkpt lat="44.3083515" lon="11.2565587"><ele>176.4</ele><time>2026-04-26T11:37:44.12Z</time></trkpt><trkpt lat="44.3083197" lon="11.2566726"><ele>175.6</ele><time>2026-04-26T11:37:45.123Z</time></trkpt><trkpt lat="44.3082872" lon="11.256791"><ele>174.79999999999998</ele><time>2026-04-26T11:37:46.132Z</time></trkpt><trkpt lat="44.3082562" lon="11.2569129"><ele>174.0</ele><time>2026-04-26T11:37:47.12Z</time></trkpt><trkpt lat="44.3082364" lon="11.2570422"><ele>174.0</ele><time>2026-04-26T11:37:48.129Z</time></trkpt><trkpt lat="44.3082329" lon="11.2571733"><ele>174.0</ele><time>2026-04-26T11:37:49.128Z</time></trkpt><trkpt lat="44.3082462" lon="11.2572995"><ele>174.0</ele><time>2026-04-26T11:37:50.122Z</time></trkpt><trkpt lat="44.308271" lon="11.2574202"><ele>174.0</ele><time>2026-04-26T11:37:51.124Z</time></trkpt><trkpt lat="44.3083071" lon="11.2575325"><ele>174.0</ele><time>2026-04-26T11:37:52.123Z</time></trkpt><trkpt lat="44.3083417" lon="11.2576433"><ele>173.5</ele><time>2026-04-26T11:37:53.12Z</time></trkpt><trkpt lat="44.3083732" lon="11.2577554"><ele>173.0</ele><time>2026-04-26T11:37:54.126Z</time></trkpt><trkpt lat="44.3084052" lon="11.2578675"><ele>172.5</ele><time>2026-04-26T11:37:55.124Z</time></trkpt><trkpt lat="44.3084379" lon="11.2579783"><ele>172.0</ele><time>2026-04-26T11:37:56.123Z</time></trkpt><trkpt lat="44.3084706" lon="11.2580899"><ele>171.5</ele><time>2026-04-26T11:37:57.127Z</time></trkpt><trkpt lat="44.3085038" lon="11.2582005"><ele>171.0</ele><time>2026-04-26T11:37:58.128Z</time></trkpt><trkpt lat="44.3085367" lon="11.2583087"><ele>172.33333333333334</ele><time>2026-04-26T11:37:59.126Z</time></trkpt><trkpt lat="44.3085676" lon="11.2584179"><ele>173.66666666666666</ele><time>2026-04-26T11:38:00.123Z</time></trkpt><trkpt lat="44.3086006" lon="11.258525"><ele>175.0</ele><time>2026-04-26T11:38:01.12Z</time></trkpt><trkpt lat="44.3086328" lon="11.2586298"><ele>176.33333333333331</ele><time>2026-04-26T11:38:02.12Z</time></trkpt><trkpt lat="44.3086656" lon="11.2587323"><ele>177.66666666666666</ele><time>2026-04-26T11:38:03.128Z</time></trkpt><trkpt lat="44.308699" lon="11.2588307"><ele>179.0</ele><time>2026-04-26T11:38:04.126Z</time></trkpt><trkpt lat="44.308734" lon="11.2589275"><ele>178.33333333333331</ele><time>2026-04-26T11:38:05.124Z</time></trkpt><trkpt lat="44.3087689" lon="11.2590221"><ele>177.66666666666666</ele><time>2026-04-26T11:38:06.132Z</time></trkpt><trkpt lat="44.3088046" lon="11.2591155"><ele>177.0</ele><time>2026-04-26T11:38:07.124Z</time></trkpt><trkpt lat="44.3088429" lon="11.2592079"><ele>176.33333333333334</ele><time>2026-04-26T11:38:08.129Z</time></trkpt><trkpt lat="44.3088873" lon="11.259295"><ele>175.66666666666669</ele><time>2026-04-26T11:38:09.127Z</time></trkpt><trkpt lat="44.3089379" lon="11.2593761"><ele>175.0</ele><time>2026-04-26T11:38:10.125Z</time></trkpt><trkpt lat="44.308994" lon="11.259453"><ele>175.0</ele><time>2026-04-26T11:38:11.12Z</time></trkpt><trkpt lat="44.3090512" lon="11.2595283"><ele>175.0</ele><time>2026-04-26T11:38:12.127Z</time></trkpt><trkpt lat="44.3091098" lon="11.2596036"><ele>175.0</ele><time>2026-04-26T11:38:13.115Z</time></trkpt><trkpt lat="44.3091709" lon="11.2596762"><ele>175.0</ele><time>2026-04-26T11:38:14.122Z</time></trkpt><trkpt lat="44.3092357" lon="11.2597427"><ele>175.0</ele><time>2026-04-26T11:38:15.133Z</time></trkpt><trkpt lat="44.3093004" lon="11.2598088"><ele>175.0</ele><time>2026-04-26T11:38:16.128Z</time></trkpt><trkpt lat="44.309364" lon="11.2598765"><ele>178.33333333333334</ele><time>2026-04-26T11:38:17.126Z</time></trkpt><trkpt lat="44.3094269" lon="11.2599447"><ele>181.66666666666669</ele><time>2026-04-26T11:38:18.127Z</time></trkpt><trkpt lat="44.3094901" lon="11.2600103"><ele>185.0</ele><time>2026-04-26T11:38:19.12Z</time></trkpt><trkpt lat="44.3095529" lon="11.2600752"><ele>188.33333333333334</ele><time>2026-04-26T11:38:20.127Z</time></trkpt><trkpt lat="44.3096159" lon="11.2601401"><ele>191.66666666666666</ele><time>2026-04-26T11:38:21.108Z</time></trkpt><trkpt lat="44.3096779" lon="11.260203"><ele>195.0</ele><time>2026-04-26T11:38:22.114Z</time></trkpt><trkpt lat="44.3097404" lon="11.2602648"><ele>193.85714285714286</ele><time>2026-04-26T11:38:23.125Z</time></trkpt><trkpt lat="44.3098017" lon="11.26033"><ele>192.71428571428572</ele><time>2026-04-26T11:38:24.123Z</time></trkpt><trkpt lat="44.3098636" lon="11.2603916"><ele>191.57142857142856</ele><time>2026-04-26T11:38:25.127Z</time></trkpt><trkpt lat="44.3099253" lon="11.2604507"><ele>190.42857142857144</ele><time>2026-04-26T11:38:26.111Z</time></trkpt><trkpt lat="44.3099854" lon="11.2605096"><ele>189.2857142857143</ele><time>2026-04-26T11:38:27.126Z</time></trkpt><trkpt lat="44.3100444" lon="11.2605667"><ele>188.14285714285714</ele><time>2026-04-26T11:38:28.122Z</time></trkpt><trkpt lat="44.3101059" lon="11.2606159"><ele>187.0</ele><time>2026-04-26T11:38:29.117Z</time></trkpt><trkpt lat="44.3101693" lon="11.2606573"><ele>187.0</ele><time>2026-04-26T11:38:30.118Z</time></trkpt><trkpt lat="44.3102345" lon="11.2606927"><ele>187.0</ele><time>2026-04-26T11:38:31.122Z</time></trkpt><trkpt lat="44.3103012" lon="11.260722"><ele>187.0</ele><time>2026-04-26T11:38:32.121Z</time></trkpt><trkpt lat="44.3103697" lon="11.2607469"><ele>187.0</ele><time>2026-04-26T11:38:33.123Z</time></trkpt><trkpt lat="44.3104394" lon="11.2607653"><ele>187.0</ele><time>2026-04-26T11:38:34.122Z</time></trkpt><trkpt lat="44.3105103" lon="11.2607822"><ele>187.0</ele><time>2026-04-26T11:38:35.122Z</time></trkpt><trkpt lat="44.3105809" lon="11.2607978"><ele>187.0</ele><time>2026-04-26T11:38:36.127Z</time></trkpt><trkpt lat="44.3106514" lon="11.2608139"><ele>186.28571428571428</ele><time>2026-04-26T11:38:37.121Z</time></trkpt><trkpt lat="44.3107223" lon="11.2608298"><ele>185.57142857142858</ele><time>2026-04-26T11:38:38.127Z</time></trkpt><trkpt lat="44.3107934" lon="11.2608434"><ele>184.85714285714286</ele><time>2026-04-26T11:38:39.12Z</time></trkpt><trkpt lat="44.3108645" lon="11.2608495"><ele>184.14285714285714</ele><time>2026-04-26T11:38:40.137Z</time></trkpt><trkpt lat="44.3109365" lon="11.2608472"><ele>183.42857142857144</ele><time>2026-04-26T11:38:41.121Z</time></trkpt><trkpt lat="44.3110093" lon="11.2608361"><ele>182.71428571428572</ele><time>2026-04-26T11:38:42.122Z</time></trkpt><trkpt lat="44.3110813" lon="11.2608157"><ele>182.0</ele><time>2026-04-26T11:38:43.126Z</time></trkpt><trkpt lat="44.3111516" lon="11.2607828"><ele>182.0</ele><time>2026-04-26T11:38:44.123Z</time></trkpt><trkpt lat="44.3112216" lon="11.2607457"><ele>182.0</ele><time>2026-04-26T11:38:45.124Z</time></trkpt><trkpt lat="44.3112931" lon="11.2607081"><ele>182.0</ele><time>2026-04-26T11:38:46.132Z</time></trkpt><trkpt lat="44.3113659" lon="11.2606695"><ele>182.0</ele><time>2026-04-26T11:38:47.122Z</time></trkpt><trkpt lat="44.3114373" lon="11.2606232"><ele>182.0</ele><time>2026-04-26T11:38:48.124Z</time></trkpt><trkpt lat="44.3115086" lon="11.2605772"><ele>182.0</ele><time>2026-04-26T11:38:49.129Z</time></trkpt><trkpt lat="44.3115822" lon="11.2605348"><ele>178.5</ele><time>2026-04-26T11:38:50.123Z</time></trkpt><trkpt lat="44.3116522" lon="11.260494"><ele>175.0</ele><time>2026-04-26T11:38:51.123Z</time></trkpt><trkpt lat="44.3117247" lon="11.260447"><ele>171.5</ele><time>2026-04-26T11:38:52.13Z</time></trkpt><trkpt lat="44.3117958" lon="11.2603983"><ele>168.0</ele><time>2026-04-26T11:38:53.12Z</time></trkpt><trkpt lat="44.3118628" lon="11.2603438"><ele>164.5</ele><time>2026-04-26T11:38:54.126Z</time></trkpt><trkpt lat="44.3119263" lon="11.2602825"><ele>161.0</ele><time>2026-04-26T11:38:55.12Z</time></trkpt><trkpt lat="44.3119891" lon="11.2602218"><ele>161.0</ele><time>2026-04-26T11:38:56.13Z</time></trkpt><trkpt lat="44.3120522" lon="11.2601657"><ele>161.0</ele><time>2026-04-26T11:38:57.122Z</time></trkpt><trkpt lat="44.3121133" lon="11.2601082"><ele>161.0</ele><time>2026-04-26T11:38:58.124Z</time></trkpt><trkpt lat="44.3121729" lon="11.2600501"><ele>161.0</ele><time>2026-04-26T11:38:59.126Z</time></trkpt><trkpt lat="44.3122343" lon="11.2599959"><ele>161.0</ele><time>2026-04-26T11:39:00.129Z</time></trkpt><trkpt lat="44.3122953" lon="11.2599423"><ele>161.0</ele><time>2026-04-26T11:39:01.127Z</time></trkpt><trkpt lat="44.3123557" lon="11.2598854"><ele>161.0</ele><time>2026-04-26T11:39:02.123Z</time></trkpt><trkpt lat="44.3124139" lon="11.2598301"><ele>160.71428571428572</ele><time>2026-04-26T11:39:03.125Z</time></trkpt><trkpt lat="44.3124711" lon="11.2597755"><ele>160.42857142857144</ele><time>2026-04-26T11:39:04.122Z</time></trkpt><trkpt lat="44.3125303" lon="11.2597241"><ele>160.14285714285714</ele><time>2026-04-26T11:39:05.124Z</time></trkpt><trkpt lat="44.3125923" lon="11.2596752"><ele>159.85714285714286</ele><time>2026-04-26T11:39:06.12Z</time></trkpt><trkpt lat="44.312655" lon="11.2596252"><ele>159.57142857142858</ele><time>2026-04-26T11:39:07.139Z</time></trkpt><trkpt lat="44.3127189" lon="11.2595783"><ele>159.28571428571428</ele><time>2026-04-26T11:39:08.124Z</time></trkpt><trkpt lat="44.3127844" lon="11.259534"><ele>159.0</ele><time>2026-04-26T11:39:09.12Z</time></trkpt><trkpt lat="44.3128497" lon="11.259491"><ele>159.0</ele><time>2026-04-26T11:39:10.135Z</time></trkpt><trkpt lat="44.3129131" lon="11.2594482"><ele>159.0</ele><time>2026-04-26T11:39:11.117Z</time></trkpt><trkpt lat="44.3129759" lon="11.2594049"><ele>159.0</ele><time>2026-04-26T11:39:12.129Z</time></trkpt><trkpt lat="44.3130386" lon="11.2593597"><ele>159.0</ele><time>2026-04-26T11:39:13.121Z</time></trkpt><trkpt lat="44.3130996" lon="11.2593088"><ele>159.0</ele><time>2026-04-26T11:39:14.129Z</time></trkpt><trkpt lat="44.3131604" lon="11.2592568"><ele>159.0</ele><time>2026-04-26T11:39:15.141Z</time></trkpt><trkpt lat="44.3132183" lon="11.2591997"><ele>159.0</ele><time>2026-04-26T11:39:16.128Z</time></trkpt><trkpt lat="44.3132711" lon="11.2591349"><ele>159.0</ele><time>2026-04-26T11:39:17.133Z</time></trkpt><trkpt lat="44.3133211" lon="11.2590671"><ele>159.0</ele><time>2026-04-26T11:39:18.134Z</time></trkpt><trkpt lat="44.3133706" lon="11.2589991"><ele>159.0</ele><time>2026-04-26T11:39:19.118Z</time></trkpt><trkpt lat="44.313419" lon="11.2589286"><ele>159.0</ele><time>2026-04-26T11:39:20.124Z</time></trkpt><trkpt lat="44.3134646" lon="11.2588566"><ele>159.0</ele><time>2026-04-26T11:39:21.127Z</time></trkpt><trkpt lat="44.3135094" lon="11.2587847"><ele>159.0</ele><time>2026-04-26T11:39:22.124Z</time></trkpt><trkpt lat="44.3135522" lon="11.2587094"><ele>159.0</ele><time>2026-04-26T11:39:23.13Z</time></trkpt><trkpt lat="44.3135974" lon="11.2586369"><ele>159.0</ele><time>2026-04-26T11:39:24.129Z</time></trkpt><trkpt lat="44.3136439" lon="11.2585638"><ele>159.0</ele><time>2026-04-26T11:39:25.134Z</time></trkpt><trkpt lat="44.3136916" lon="11.2584878"><ele>159.0</ele><time>2026-04-26T11:39:26.146Z</time></trkpt><trkpt lat="44.3137388" lon="11.2584109"><ele>159.0</ele><time>2026-04-26T11:39:27.124Z</time></trkpt><trkpt lat="44.3137871" lon="11.2583333"><ele>159.0</ele><time>2026-04-26T11:39:28.121Z</time></trkpt><trkpt lat="44.3138356" lon="11.2582594"><ele>159.0</ele><time>2026-04-26T11:39:29.118Z</time></trkpt><trkpt lat="44.3138842" lon="11.2581845"><ele>159.0</ele><time>2026-04-26T11:39:30.121Z</time></trkpt><trkpt lat="44.3139363" lon="11.2581097"><ele>159.0</ele><time>2026-04-26T11:39:31.125Z</time></trkpt><trkpt lat="44.3139914" lon="11.2580332"><ele>159.0</ele><time>2026-04-26T11:39:32.127Z</time></trkpt><trkpt lat="44.3140468" lon="11.2579546"><ele>159.0</ele><time>2026-04-26T11:39:33.133Z</time></trkpt><trkpt lat="44.3141032" lon="11.2578768"><ele>159.0</ele><time>2026-04-26T11:39:34.127Z</time></trkpt><trkpt lat="44.3141625" lon="11.2578004"><ele>159.0</ele><time>2026-04-26T11:39:35.118Z</time></trkpt><trkpt lat="44.3142236" lon="11.2577235"><ele>159.0</ele><time>2026-04-26T11:39:36.129Z</time></trkpt><trkpt lat="44.3142843" lon="11.2576471"><ele>159.0</ele><time>2026-04-26T11:39:37.119Z</time></trkpt><trkpt lat="44.3143487" lon="11.2575731"><ele>159.0</ele><time>2026-04-26T11:39:38.131Z</time></trkpt><trkpt lat="44.3144165" lon="11.2575017"><ele>159.0</ele><time>2026-04-26T11:39:39.131Z</time></trkpt><trkpt lat="44.3144874" lon="11.2574316"><ele>159.0</ele><time>2026-04-26T11:39:40.123Z</time></trkpt><trkpt lat="44.314559" lon="11.2573647"><ele>159.0</ele><time>2026-04-26T11:39:41.12Z</time></trkpt><trkpt lat="44.3146304" lon="11.2572983"><ele>159.0</ele><time>2026-04-26T11:39:42.128Z</time></trkpt><trkpt lat="44.3147001" lon="11.2572308"><ele>159.0</ele><time>2026-04-26T11:39:43.121Z</time></trkpt><trkpt lat="44.3147654" lon="11.2571577"><ele>159.0</ele><time>2026-04-26T11:39:44.125Z</time></trkpt><trkpt lat="44.3148272" lon="11.2570824"><ele>159.0</ele><time>2026-04-26T11:39:45.122Z</time></trkpt><trkpt lat="44.3148892" lon="11.2570083"><ele>159.0</ele><time>2026-04-26T11:39:46.127Z</time></trkpt><trkpt lat="44.3149467" lon="11.2569342"><ele>159.0</ele><time>2026-04-26T11:39:47.135Z</time></trkpt><trkpt lat="44.3150118" lon="11.2568617"><ele>159.0</ele><time>2026-04-26T11:39:48.139Z</time></trkpt><trkpt lat="44.3150734" lon="11.2567837"><ele>159.0</ele><time>2026-04-26T11:39:49.123Z</time></trkpt><trkpt lat="44.315129" lon="11.2567138"><ele>159.0</ele><time>2026-04-26T11:39:50.115Z</time></trkpt><trkpt lat="44.3151846" lon="11.2566432"><ele>159.0</ele><time>2026-04-26T11:39:51.118Z</time></trkpt><trkpt lat="44.3152368" lon="11.2565748"><ele>159.0</ele><time>2026-04-26T11:39:52.114Z</time></trkpt><trkpt lat="44.3152883" lon="11.2565012"><ele>159.0</ele><time>2026-04-26T11:39:53.125Z</time></trkpt><trkpt lat="44.3153422" lon="11.2564294"><ele>159.0</ele><time>2026-04-26T11:39:54.127Z</time></trkpt><trkpt lat="44.3153972" lon="11.2563565"><ele>159.0</ele><time>2026-04-26T11:39:55.117Z</time></trkpt><trkpt lat="44.31545" lon="11.2562843"><ele>158.7142857142857</ele><time>2026-04-26T11:39:56.13Z</time></trkpt><trkpt lat="44.3155021" lon="11.2562156"><ele>158.42857142857144</ele><time>2026-04-26T11:39:57.127Z</time></trkpt><trkpt lat="44.3155565" lon="11.2561485"><ele>158.14285714285714</ele><time>2026-04-26T11:39:58.122Z</time></trkpt><trkpt lat="44.3156101" lon="11.2560838"><ele>157.85714285714283</ele><time>2026-04-26T11:39:59.125Z</time></trkpt><trkpt lat="44.3156634" lon="11.256019"><ele>157.57142857142856</ele><time>2026-04-26T11:40:00.132Z</time></trkpt><trkpt lat="44.3157172" lon="11.2559552"><ele>157.28571428571428</ele><time>2026-04-26T11:40:01.124Z</time></trkpt><trkpt lat="44.3157703" lon="11.2558926"><ele>157.0</ele><time>2026-04-26T11:40:02.125Z</time></trkpt><trkpt lat="44.3158221" lon="11.2558291"><ele>156.99999999999997</ele><time>2026-04-26T11:40:03.127Z</time></trkpt><trkpt lat="44.3158759" lon="11.2557679"><ele>157.0</ele><time>2026-04-26T11:40:04.125Z</time></trkpt><trkpt lat="44.3159305" lon="11.2557072"><ele>157.0</ele><time>2026-04-26T11:40:05.122Z</time></trkpt><trkpt lat="44.3159856" lon="11.2556484"><ele>157.0</ele><time>2026-04-26T11:40:06.125Z</time></trkpt><trkpt lat="44.3160442" lon="11.2555931"><ele>157.0</ele><time>2026-04-26T11:40:07.129Z</time></trkpt><trkpt lat="44.3161057" lon="11.2555426"><ele>156.99999999999997</ele><time>2026-04-26T11:40:08.125Z</time></trkpt><trkpt lat="44.316169" lon="11.2554951"><ele>157.0</ele><time>2026-04-26T11:40:09.127Z</time></trkpt><trkpt lat="44.3162364" lon="11.2554574"><ele>156.7142857142857</ele><time>2026-04-26T11:40:10.126Z</time></trkpt><trkpt lat="44.3163066" lon="11.2554282"><ele>156.42857142857142</ele><time>2026-04-26T11:40:11.133Z</time></trkpt><trkpt lat="44.3163776" lon="11.2554079"><ele>156.14285714285714</ele><time>2026-04-26T11:40:12.13Z</time></trkpt><trkpt lat="44.3164497" lon="11.2553994"><ele>155.85714285714283</ele><time>2026-04-26T11:40:13.121Z</time></trkpt><trkpt lat="44.3165224" lon="11.2553981"><ele>155.57142857142856</ele><time>2026-04-26T11:40:14.136Z</time></trkpt><trkpt lat="44.3165964" lon="11.2554041"><ele>155.28571428571428</ele><time>2026-04-26T11:40:15.126Z</time></trkpt><trkpt lat="44.3166694" lon="11.2554216"><ele>155.0</ele><time>2026-04-26T11:40:16.136Z</time></trkpt><trkpt lat="44.3167408" lon="11.2554518"><ele>155.57142857142858</ele><time>2026-04-26T11:40:17.123Z</time></trkpt><trkpt lat="44.3168089" lon="11.2554941"><ele>156.14285714285714</ele><time>2026-04-26T11:40:18.122Z</time></trkpt><trkpt lat="44.3168732" lon="11.2555479"><ele>156.71428571428572</ele><time>2026-04-26T11:40:19.136Z</time></trkpt><trkpt lat="44.3169326" lon="11.2556118"><ele>157.28571428571428</ele><time>2026-04-26T11:40:20.132Z</time></trkpt><trkpt lat="44.316987" lon="11.2556826"><ele>157.85714285714286</ele><time>2026-04-26T11:40:21.129Z</time></trkpt><trkpt lat="44.3170373" lon="11.2557586"><ele>158.42857142857142</ele><time>2026-04-26T11:40:22.126Z</time></trkpt><trkpt lat="44.3170826" lon="11.2558403"><ele>159.0</ele><time>2026-04-26T11:40:23.139Z</time></trkpt><trkpt lat="44.3171253" lon="11.255925"><ele>159.0</ele><time>2026-04-26T11:40:24.123Z</time></trkpt><trkpt lat="44.3171678" lon="11.2560081"><ele>159.0</ele><time>2026-04-26T11:40:25.115Z</time></trkpt><trkpt lat="44.3172074" lon="11.2560934"><ele>159.0</ele><time>2026-04-26T11:40:26.126Z</time></trkpt><trkpt lat="44.3172473" lon="11.2561809"><ele>159.0</ele><time>2026-04-26T11:40:27.118Z</time></trkpt><trkpt lat="44.3172884" lon="11.2562686"><ele>159.0</ele><time>2026-04-26T11:40:28.123Z</time></trkpt><trkpt lat="44.3173295" lon="11.2563535"><ele>159.0</ele><time>2026-04-26T11:40:29.116Z</time></trkpt><trkpt lat="44.3173701" lon="11.2564373"><ele>159.0</ele><time>2026-04-26T11:40:30.126Z</time></trkpt><trkpt lat="44.3174096" lon="11.2565192"><ele>158.85714285714286</ele><time>2026-04-26T11:40:31.128Z</time></trkpt><trkpt lat="44.3174469" lon="11.256597"><ele>158.71428571428572</ele><time>2026-04-26T11:40:32.126Z</time></trkpt><trkpt lat="44.3174906" lon="11.2566828"><ele>158.57142857142858</ele><time>2026-04-26T11:40:33.125Z</time></trkpt><trkpt lat="44.3175317" lon="11.2567686"><ele>158.42857142857144</ele><time>2026-04-26T11:40:34.128Z</time></trkpt><trkpt lat="44.3175719" lon="11.2568523"><ele>158.28571428571428</ele><time>2026-04-26T11:40:35.128Z</time></trkpt><trkpt lat="44.3176113" lon="11.2569334"><ele>158.14285714285717</ele><time>2026-04-26T11:40:36.124Z</time></trkpt><trkpt lat="44.3176513" lon="11.2570122"><ele>158.0</ele><time>2026-04-26T11:40:37.135Z</time></trkpt><trkpt lat="44.3176936" lon="11.2570952"><ele>158.00000000000003</ele><time>2026-04-26T11:40:38.124Z</time></trkpt><trkpt lat="44.3177352" lon="11.257177"><ele>158.0</ele><time>2026-04-26T11:40:39.123Z</time></trkpt><trkpt lat="44.3177784" lon="11.2572531"><ele>158.0</ele><time>2026-04-26T11:40:40.125Z</time></trkpt><trkpt lat="44.3178187" lon="11.2573234"><ele>158.0</ele><time>2026-04-26T11:40:41.124Z</time></trkpt><trkpt lat="44.3178591" lon="11.2573953"><ele>158.0</ele><time>2026-04-26T11:40:42.126Z</time></trkpt><trkpt lat="44.3179033" lon="11.2574871"><ele>158.00000000000003</ele><time>2026-04-26T11:40:43.136Z</time></trkpt><trkpt lat="44.3179455" lon="11.2575702"><ele>158.0</ele><time>2026-04-26T11:40:44.115Z</time></trkpt><trkpt lat="44.3179838" lon="11.2576525"><ele>157.85714285714286</ele><time>2026-04-26T11:40:45.123Z</time></trkpt><trkpt lat="44.318021" lon="11.2577359"><ele>157.71428571428572</ele><time>2026-04-26T11:40:46.126Z</time></trkpt><trkpt lat="44.3180672" lon="11.257825"><ele>157.57142857142856</ele><time>2026-04-26T11:40:47.122Z</time></trkpt><trkpt lat="44.3181087" lon="11.2579085"><ele>157.42857142857144</ele><time>2026-04-26T11:40:48.124Z</time></trkpt><trkpt lat="44.3181489" lon="11.2579916"><ele>157.28571428571428</ele><time>2026-04-26T11:40:49.117Z</time></trkpt><trkpt lat="44.3181909" lon="11.2580673"><ele>157.14285714285714</ele><time>2026-04-26T11:40:50.133Z</time></trkpt><trkpt lat="44.3182264" lon="11.2581439"><ele>157.0</ele><time>2026-04-26T11:40:51.115Z</time></trkpt><trkpt lat="44.3182723" lon="11.2582303"><ele>156.99999999999997</ele><time>2026-04-26T11:40:52.135Z</time></trkpt><trkpt lat="44.3183101" lon="11.2583189"><ele>157.0</ele><time>2026-04-26T11:40:53.127Z</time></trkpt><trkpt lat="44.3183537" lon="11.2584063"><ele>157.0</ele><time>2026-04-26T11:40:54.13Z</time></trkpt><trkpt lat="44.3183982" lon="11.2584884"><ele>157.0</ele><time>2026-04-26T11:40:55.133Z</time></trkpt><trkpt lat="44.3184413" lon="11.2585698"><ele>157.0</ele><time>2026-04-26T11:40:56.123Z</time></trkpt><trkpt lat="44.3184873" lon="11.2586504"><ele>156.99999999999997</ele><time>2026-04-26T11:40:57.13Z</time></trkpt><trkpt lat="44.3185329" lon="11.2587245"><ele>157.0</ele><time>2026-04-26T11:40:58.128Z</time></trkpt><trkpt lat="44.3185793" lon="11.2588051"><ele>156.99999999999997</ele><time>2026-04-26T11:40:59.124Z</time></trkpt><trkpt lat="44.3186275" lon="11.2588807"><ele>157.0</ele><time>2026-04-26T11:41:00.13Z</time></trkpt><trkpt lat="44.3186786" lon="11.2589538"><ele>157.0</ele><time>2026-04-26T11:41:01.115Z</time></trkpt><trkpt lat="44.3187309" lon="11.2590174"><ele>157.0</ele><time>2026-04-26T11:41:02.121Z</time></trkpt><trkpt lat="44.3187866" lon="11.2590796"><ele>157.0</ele><time>2026-04-26T11:41:03.126Z</time></trkpt><trkpt lat="44.3188413" lon="11.2591396"><ele>156.99999999999997</ele><time>2026-04-26T11:41:04.126Z</time></trkpt><trkpt lat="44.3188993" lon="11.2591982"><ele>157.0</ele><time>2026-04-26T11:41:05.123Z</time></trkpt><trkpt lat="44.3189581" lon="11.2592534"><ele>157.14285714285714</ele><time>2026-04-26T11:41:06.122Z</time></trkpt><trkpt lat="44.3190198" lon="11.2593022"><ele>157.28571428571428</ele><time>2026-04-26T11:41:07.126Z</time></trkpt><trkpt lat="44.3190826" lon="11.2593466"><ele>157.42857142857144</ele><time>2026-04-26T11:41:08.124Z</time></trkpt><trkpt lat="44.3191459" lon="11.2593884"><ele>157.57142857142856</ele><time>2026-04-26T11:41:09.125Z</time></trkpt><trkpt lat="44.3192101" lon="11.2594339"><ele>157.71428571428572</ele><time>2026-04-26T11:41:10.13Z</time></trkpt><trkpt lat="44.3192741" lon="11.2594785"><ele>157.85714285714286</ele><time>2026-04-26T11:41:11.12Z</time></trkpt><trkpt lat="44.3193414" lon="11.2595179"><ele>158.0</ele><time>2026-04-26T11:41:12.126Z</time></trkpt><trkpt lat="44.3194104" lon="11.2595541"><ele>158.00000000000003</ele><time>2026-04-26T11:41:13.119Z</time></trkpt><trkpt lat="44.319479" lon="11.2595918"><ele>158.0</ele><time>2026-04-26T11:41:14.118Z</time></trkpt><trkpt lat="44.3195463" lon="11.2596267"><ele>158.0</ele><time>2026-04-26T11:41:15.132Z</time></trkpt><trkpt lat="44.3196151" lon="11.2596637"><ele>158.0</ele><time>2026-04-26T11:41:16.122Z</time></trkpt><trkpt lat="44.3196831" lon="11.2597002"><ele>158.0</ele><time>2026-04-26T11:41:17.118Z</time></trkpt><trkpt lat="44.3197501" lon="11.2597401"><ele>158.00000000000003</ele><time>2026-04-26T11:41:18.13Z</time></trkpt><trkpt lat="44.3198178" lon="11.2597765"><ele>158.0</ele><time>2026-04-26T11:41:19.129Z</time></trkpt><trkpt lat="44.319885" lon="11.2598103"><ele>158.33333333333331</ele><time>2026-04-26T11:41:20.125Z</time></trkpt><trkpt lat="44.3199562" lon="11.2598448"><ele>158.66666666666666</ele><time>2026-04-26T11:41:21.117Z</time></trkpt><trkpt lat="44.320028" lon="11.259878"><ele>159.0</ele><time>2026-04-26T11:41:22.127Z</time></trkpt><trkpt lat="44.3201004" lon="11.2599101"><ele>159.33333333333334</ele><time>2026-04-26T11:41:23.127Z</time></trkpt><trkpt lat="44.3201734" lon="11.2599423"><ele>159.66666666666669</ele><time>2026-04-26T11:41:24.121Z</time></trkpt><trkpt lat="44.3202456" lon="11.2599739"><ele>160.0</ele><time>2026-04-26T11:41:25.127Z</time></trkpt><trkpt lat="44.3203184" lon="11.2600076"><ele>160.0</ele><time>2026-04-26T11:41:26.121Z</time></trkpt><trkpt lat="44.3203914" lon="11.2600383"><ele>160.0</ele><time>2026-04-26T11:41:27.122Z</time></trkpt><trkpt lat="44.3204623" lon="11.2600719"><ele>160.0</ele><time>2026-04-26T11:41:28.127Z</time></trkpt><trkpt lat="44.3205333" lon="11.2601051"><ele>160.0</ele><time>2026-04-26T11:41:29.13Z</time></trkpt><trkpt lat="44.3206023" lon="11.2601362"><ele>160.0</ele><time>2026-04-26T11:41:30.12Z</time></trkpt><trkpt lat="44.3206711" lon="11.2601686"><ele>160.0</ele><time>2026-04-26T11:41:31.123Z</time></trkpt><trkpt lat="44.3207412" lon="11.2602017"><ele>160.0</ele><time>2026-04-26T11:41:32.126Z</time></trkpt><trkpt lat="44.3208096" lon="11.260234"><ele>159.42857142857142</ele><time>2026-04-26T11:41:33.135Z</time></trkpt><trkpt lat="44.3208776" lon="11.2602647"><ele>158.85714285714286</ele><time>2026-04-26T11:41:34.128Z</time></trkpt><trkpt lat="44.3209456" lon="11.2602976"><ele>158.28571428571428</ele><time>2026-04-26T11:41:35.138Z</time></trkpt><trkpt lat="44.3210135" lon="11.2603282"><ele>157.71428571428572</ele><time>2026-04-26T11:41:36.123Z</time></trkpt><trkpt lat="44.3210816" lon="11.2603593"><ele>157.14285714285714</ele><time>2026-04-26T11:41:37.119Z</time></trkpt><trkpt lat="44.3211486" lon="11.2603899"><ele>156.57142857142858</ele><time>2026-04-26T11:41:38.127Z</time></trkpt><trkpt lat="44.3212149" lon="11.2604243"><ele>156.0</ele><time>2026-04-26T11:41:39.137Z</time></trkpt><trkpt lat="44.3212815" lon="11.2604612"><ele>156.0</ele><time>2026-04-26T11:41:40.122Z</time></trkpt><trkpt lat="44.3213472" lon="11.2605008"><ele>156.0</ele><time>2026-04-26T11:41:41.128Z</time></trkpt><trkpt lat="44.3214135" lon="11.2605413"><ele>156.0</ele><time>2026-04-26T11:41:42.125Z</time></trkpt><trkpt lat="44.32148" lon="11.260585"><ele>156.0</ele><time>2026-04-26T11:41:43.115Z</time></trkpt><trkpt lat="44.3215461" lon="11.2606306"><ele>156.0</ele><time>2026-04-26T11:41:44.121Z</time></trkpt><trkpt lat="44.3216123" lon="11.2606792"><ele>156.0</ele><time>2026-04-26T11:41:45.133Z</time></trkpt><trkpt lat="44.3216767" lon="11.2607277"><ele>156.0</ele><time>2026-04-26T11:41:46.126Z</time></trkpt><trkpt lat="44.3217425" lon="11.2607745"><ele>156.71428571428572</ele><time>2026-04-26T11:41:47.122Z</time></trkpt><trkpt lat="44.3218079" lon="11.2608223"><ele>157.42857142857142</ele><time>2026-04-26T11:41:48.13Z</time></trkpt><trkpt lat="44.3218728" lon="11.2608681"><ele>158.14285714285714</ele><time>2026-04-26T11:41:49.135Z</time></trkpt><trkpt lat="44.3219384" lon="11.2609121"><ele>158.85714285714286</ele><time>2026-04-26T11:41:50.128Z</time></trkpt><trkpt lat="44.3220035" lon="11.2609575"><ele>159.57142857142856</ele><time>2026-04-26T11:41:51.118Z</time></trkpt><trkpt lat="44.322068" lon="11.2610032"><ele>160.28571428571428</ele><time>2026-04-26T11:41:52.126Z</time></trkpt><trkpt lat="44.3221333" lon="11.2610491"><ele>161.0</ele><time>2026-04-26T11:41:53.126Z</time></trkpt><trkpt lat="44.3221983" lon="11.2610944"><ele>159.85714285714286</ele><time>2026-04-26T11:41:54.13Z</time></trkpt><trkpt lat="44.3222641" lon="11.2611418"><ele>158.71428571428572</ele><time>2026-04-26T11:41:55.119Z</time></trkpt><trkpt lat="44.3223306" lon="11.2611867"><ele>157.57142857142856</ele><time>2026-04-26T11:41:56.127Z</time></trkpt><trkpt lat="44.3223982" lon="11.2612297"><ele>156.42857142857144</ele><time>2026-04-26T11:41:57.122Z</time></trkpt><trkpt lat="44.3224658" lon="11.2612707"><ele>155.28571428571428</ele><time>2026-04-26T11:41:58.126Z</time></trkpt><trkpt lat="44.3225333" lon="11.2613124"><ele>154.14285714285714</ele><time>2026-04-26T11:41:59.124Z</time></trkpt><trkpt lat="44.3226011" lon="11.2613539"><ele>153.0</ele><time>2026-04-26T11:42:00.13Z</time></trkpt><trkpt lat="44.3226685" lon="11.2613971"><ele>153.0</ele><time>2026-04-26T11:42:01.119Z</time></trkpt><trkpt lat="44.3227354" lon="11.2614395"><ele>153.0</ele><time>2026-04-26T11:42:02.121Z</time></trkpt><trkpt lat="44.3228029" lon="11.2614794"><ele>153.0</ele><time>2026-04-26T11:42:03.126Z</time></trkpt><trkpt lat="44.3228702" lon="11.2615199"><ele>153.0</ele><time>2026-04-26T11:42:04.124Z</time></trkpt><trkpt lat="44.3229373" lon="11.2615607"><ele>153.0</ele><time>2026-04-26T11:42:05.129Z</time></trkpt><trkpt lat="44.3230042" lon="11.2616013"><ele>153.0</ele><time>2026-04-26T11:42:06.121Z</time></trkpt><trkpt lat="44.3230704" lon="11.2616393"><ele>153.0</ele><time>2026-04-26T11:42:07.117Z</time></trkpt><trkpt lat="44.3231361" lon="11.2616786"><ele>153.42857142857142</ele><time>2026-04-26T11:42:08.117Z</time></trkpt><trkpt lat="44.3232021" lon="11.2617175"><ele>153.85714285714286</ele><time>2026-04-26T11:42:09.129Z</time></trkpt><trkpt lat="44.3232678" lon="11.261756"><ele>154.28571428571428</ele><time>2026-04-26T11:42:10.118Z</time></trkpt><trkpt lat="44.3233339" lon="11.2617957"><ele>154.71428571428572</ele><time>2026-04-26T11:42:11.125Z</time></trkpt><trkpt lat="44.3234003" lon="11.2618361"><ele>155.14285714285714</ele><time>2026-04-26T11:42:12.122Z</time></trkpt><trkpt lat="44.3234678" lon="11.2618726"><ele>155.57142857142858</ele><time>2026-04-26T11:42:13.123Z</time></trkpt><trkpt lat="44.3235364" lon="11.2619045"><ele>156.0</ele><time>2026-04-26T11:42:14.126Z</time></trkpt><trkpt lat="44.3236052" lon="11.2619339"><ele>156.0</ele><time>2026-04-26T11:42:15.122Z</time></trkpt><trkpt lat="44.3236748" lon="11.2619618"><ele>156.0</ele><time>2026-04-26T11:42:16.131Z</time></trkpt><trkpt lat="44.3237456" lon="11.2619866"><ele>156.0</ele><time>2026-04-26T11:42:17.122Z</time></trkpt><trkpt lat="44.3238178" lon="11.262008"><ele>156.0</ele><time>2026-04-26T11:42:18.124Z</time></trkpt><trkpt lat="44.32389" lon="11.2620262"><ele>156.0</ele><time>2026-04-26T11:42:19.125Z</time></trkpt><trkpt lat="44.323962" lon="11.2620434"><ele>156.0</ele><time>2026-04-26T11:42:20.127Z</time></trkpt><trkpt lat="44.3240343" lon="11.2620573"><ele>156.0</ele><time>2026-04-26T11:42:21.123Z</time></trkpt><trkpt lat="44.3241065" lon="11.2620704"><ele>155.2857142857143</ele><time>2026-04-26T11:42:22.123Z</time></trkpt><trkpt lat="44.3241793" lon="11.2620819"><ele>154.57142857142856</ele><time>2026-04-26T11:42:23.127Z</time></trkpt><trkpt lat="44.3242523" lon="11.2620916"><ele>153.85714285714286</ele><time>2026-04-26T11:42:24.13Z</time></trkpt><trkpt lat="44.324325" lon="11.2620998"><ele>153.14285714285717</ele><time>2026-04-26T11:42:25.121Z</time></trkpt><trkpt lat="44.324398" lon="11.2621071"><ele>152.42857142857144</ele><time>2026-04-26T11:42:26.118Z</time></trkpt><trkpt lat="44.3244707" lon="11.2621117"><ele>151.71428571428572</ele><time>2026-04-26T11:42:27.119Z</time></trkpt><trkpt lat="44.3245439" lon="11.2621173"><ele>151.0</ele><time>2026-04-26T11:42:28.128Z</time></trkpt><trkpt lat="44.3246178" lon="11.2621208"><ele>151.00000000000003</ele><time>2026-04-26T11:42:29.121Z</time></trkpt><trkpt lat="44.3246915" lon="11.2621234"><ele>151.0</ele><time>2026-04-26T11:42:30.124Z</time></trkpt><trkpt lat="44.3247649" lon="11.2621242"><ele>151.0</ele><time>2026-04-26T11:42:31.123Z</time></trkpt><trkpt lat="44.3248384" lon="11.2621262"><ele>151.0</ele><time>2026-04-26T11:42:32.133Z</time></trkpt><trkpt lat="44.3249114" lon="11.2621282"><ele>151.0</ele><time>2026-04-26T11:42:33.124Z</time></trkpt><trkpt lat="44.3249834" lon="11.2621253"><ele>151.00000000000003</ele><time>2026-04-26T11:42:34.126Z</time></trkpt><trkpt lat="44.325057" lon="11.2621257"><ele>151.0</ele><time>2026-04-26T11:42:35.117Z</time></trkpt><trkpt lat="44.3251309" lon="11.2621263"><ele>150.57142857142858</ele><time>2026-04-26T11:42:36.122Z</time></trkpt><trkpt lat="44.325203" lon="11.2621275"><ele>150.14285714285714</ele><time>2026-04-26T11:42:37.118Z</time></trkpt><trkpt lat="44.3252742" lon="11.2621299"><ele>149.71428571428572</ele><time>2026-04-26T11:42:38.13Z</time></trkpt><trkpt lat="44.3253454" lon="11.2621328"><ele>149.28571428571428</ele><time>2026-04-26T11:42:39.122Z</time></trkpt><trkpt lat="44.3254162" lon="11.2621356"><ele>148.85714285714286</ele><time>2026-04-26T11:42:40.127Z</time></trkpt><trkpt lat="44.3254861" lon="11.2621396"><ele>148.42857142857144</ele><time>2026-04-26T11:42:41.132Z</time></trkpt><trkpt lat="44.3255567" lon="11.2621452"><ele>148.0</ele><time>2026-04-26T11:42:42.137Z</time></trkpt><trkpt lat="44.3256249" lon="11.262153"><ele>147.66666666666669</ele><time>2026-04-26T11:42:43.127Z</time></trkpt><trkpt lat="44.3256919" lon="11.2621637"><ele>147.33333333333334</ele><time>2026-04-26T11:42:44.127Z</time></trkpt><trkpt lat="44.3257556" lon="11.2621762"><ele>147.0</ele><time>2026-04-26T11:42:45.125Z</time></trkpt><trkpt lat="44.3258823" lon="11.2622078"><ele>146.66666666666666</ele><time>2026-04-26T11:42:47.123Z</time></trkpt><trkpt lat="44.3259436" lon="11.2622316"><ele>146.33333333333331</ele><time>2026-04-26T11:42:48.126Z</time></trkpt><trkpt lat="44.3260609" lon="11.2622832"><ele>146.0</ele><time>2026-04-26T11:42:50.119Z</time></trkpt><trkpt lat="44.3261737" lon="11.2623448"><ele>147.0</ele><time>2026-04-26T11:42:52.12Z</time></trkpt><trkpt lat="44.3262814" lon="11.2624151"><ele>148.0</ele><time>2026-04-26T11:42:54.136Z</time></trkpt><trkpt lat="44.3263844" lon="11.2625015"><ele>149.0</ele><time>2026-04-26T11:42:56.122Z</time></trkpt><trkpt lat="44.3264858" lon="11.2625975"><ele>150.0</ele><time>2026-04-26T11:42:58.126Z</time></trkpt><trkpt lat="44.3265831" lon="11.2626982"><ele>150.0</ele><time>2026-04-26T11:43:00.127Z</time></trkpt><trkpt lat="44.3266756" lon="11.2628144"><ele>150.0</ele><time>2026-04-26T11:43:02.122Z</time></trkpt><trkpt lat="44.3267587" lon="11.2629402"><ele>150.0</ele><time>2026-04-26T11:43:04.129Z</time></trkpt><trkpt lat="44.3268353" lon="11.2630753"><ele>150.0</ele><time>2026-04-26T11:43:06.122Z</time></trkpt><trkpt lat="44.3269052" lon="11.2632151"><ele>150.75</ele><time>2026-04-26T11:43:08.123Z</time></trkpt><trkpt lat="44.3269728" lon="11.2633524"><ele>151.5</ele><time>2026-04-26T11:43:10.126Z</time></trkpt><trkpt lat="44.3270414" lon="11.2634896"><ele>152.25</ele><time>2026-04-26T11:43:12.124Z</time></trkpt><trkpt lat="44.3271356" lon="11.2635833"><ele>153.0</ele><time>2026-04-26T11:43:14.132Z</time></trkpt><trkpt lat="44.3272481" lon="11.2636276"><ele>152.0</ele><time>2026-04-26T11:43:16.135Z</time></trkpt><trkpt lat="44.3273626" lon="11.2636905"><ele>151.0</ele><time>2026-04-26T11:43:18.133Z</time></trkpt><trkpt lat="44.3274576" lon="11.2638072"><ele>150.0</ele><time>2026-04-26T11:43:20.14Z</time></trkpt><trkpt lat="44.3274952" lon="11.2638809"><ele>149.0</ele><time>2026-04-26T11:43:21.13Z</time></trkpt><trkpt lat="44.3275313" lon="11.2639587"><ele>148.0</ele><time>2026-04-26T11:43:22.124Z</time></trkpt><trkpt lat="44.3275686" lon="11.2640358"><ele>147.0</ele><time>2026-04-26T11:43:23.122Z</time></trkpt><trkpt lat="44.3276052" lon="11.2641131"><ele>147.0</ele><time>2026-04-26T11:43:24.13Z</time></trkpt><trkpt lat="44.3276417" lon="11.264191"><ele>147.0</ele><time>2026-04-26T11:43:25.12Z</time></trkpt><trkpt lat="44.3276781" lon="11.2642692"><ele>147.0</ele><time>2026-04-26T11:43:26.131Z</time></trkpt><trkpt lat="44.3277151" lon="11.2643487"><ele>147.0</ele><time>2026-04-26T11:43:27.125Z</time></trkpt><trkpt lat="44.3277512" lon="11.2644283"><ele>147.0</ele><time>2026-04-26T11:43:28.142Z</time></trkpt><trkpt lat="44.3277903" lon="11.2645075"><ele>147.0</ele><time>2026-04-26T11:43:29.127Z</time></trkpt><trkpt lat="44.3278286" lon="11.2645872"><ele>147.0</ele><time>2026-04-26T11:43:30.128Z</time></trkpt><trkpt lat="44.3278658" lon="11.2646682"><ele>147.0</ele><time>2026-04-26T11:43:31.128Z</time></trkpt><trkpt lat="44.3279028" lon="11.2647495"><ele>147.0</ele><time>2026-04-26T11:43:32.123Z</time></trkpt><trkpt lat="44.3279396" lon="11.2648308"><ele>147.0</ele><time>2026-04-26T11:43:33.123Z</time></trkpt><trkpt lat="44.327977" lon="11.264912"><ele>147.0</ele><time>2026-04-26T11:43:34.127Z</time></trkpt><trkpt lat="44.3280154" lon="11.2649931"><ele>147.0</ele><time>2026-04-26T11:43:35.124Z</time></trkpt><trkpt lat="44.3280537" lon="11.2650728"><ele>147.0</ele><time>2026-04-26T11:43:36.123Z</time></trkpt><trkpt lat="44.3280919" lon="11.2651525"><ele>147.0</ele><time>2026-04-26T11:43:37.123Z</time></trkpt><trkpt lat="44.3281296" lon="11.2652322"><ele>147.14285714285714</ele><time>2026-04-26T11:43:38.127Z</time></trkpt><trkpt lat="44.3281672" lon="11.2653119"><ele>147.28571428571428</ele><time>2026-04-26T11:43:39.128Z</time></trkpt><trkpt lat="44.3282036" lon="11.2653923"><ele>147.42857142857144</ele><time>2026-04-26T11:43:40.136Z</time></trkpt><trkpt lat="44.3282409" lon="11.265473"><ele>147.57142857142856</ele><time>2026-04-26T11:43:41.127Z</time></trkpt><trkpt lat="44.3282796" lon="11.2655526"><ele>147.71428571428572</ele><time>2026-04-26T11:43:42.123Z</time></trkpt><trkpt lat="44.3283179" lon="11.265634"><ele>147.85714285714286</ele><time>2026-04-26T11:43:43.122Z</time></trkpt><trkpt lat="44.3283549" lon="11.2657164"><ele>148.0</ele><time>2026-04-26T11:43:44.123Z</time></trkpt><trkpt lat="44.3283934" lon="11.2657981"><ele>148.14285714285714</ele><time>2026-04-26T11:43:45.125Z</time></trkpt><trkpt lat="44.3284325" lon="11.2658792"><ele>148.28571428571428</ele><time>2026-04-26T11:43:46.126Z</time></trkpt><trkpt lat="44.3284707" lon="11.2659612"><ele>148.42857142857142</ele><time>2026-04-26T11:43:47.144Z</time></trkpt><trkpt lat="44.3285089" lon="11.2660452"><ele>148.57142857142856</ele><time>2026-04-26T11:43:48.132Z</time></trkpt><trkpt lat="44.3285471" lon="11.2661273"><ele>148.7142857142857</ele><time>2026-04-26T11:43:49.131Z</time></trkpt><trkpt lat="44.3285859" lon="11.266209"><ele>148.85714285714286</ele><time>2026-04-26T11:43:50.122Z</time></trkpt><trkpt lat="44.3286247" lon="11.266291"><ele>149.0</ele><time>2026-04-26T11:43:51.125Z</time></trkpt><trkpt lat="44.3286641" lon="11.266374"><ele>148.57142857142856</ele><time>2026-04-26T11:43:52.125Z</time></trkpt><trkpt lat="44.3287031" lon="11.2664568"><ele>148.14285714285714</ele><time>2026-04-26T11:43:53.127Z</time></trkpt><trkpt lat="44.3287416" lon="11.2665394"><ele>147.71428571428572</ele><time>2026-04-26T11:43:54.119Z</time></trkpt><trkpt lat="44.3287803" lon="11.2666211"><ele>147.28571428571428</ele><time>2026-04-26T11:43:55.123Z</time></trkpt><trkpt lat="44.3288179" lon="11.2667038"><ele>146.85714285714286</ele><time>2026-04-26T11:43:56.132Z</time></trkpt><trkpt lat="44.3288553" lon="11.2667863"><ele>146.42857142857142</ele><time>2026-04-26T11:43:57.127Z</time></trkpt><trkpt lat="44.3288933" lon="11.2668672"><ele>146.0</ele><time>2026-04-26T11:43:58.123Z</time></trkpt><trkpt lat="44.3289318" lon="11.266948"><ele>146.0</ele><time>2026-04-26T11:43:59.123Z</time></trkpt><trkpt lat="44.3289698" lon="11.267028"><ele>146.0</ele><time>2026-04-26T11:44:00.121Z</time></trkpt><trkpt lat="44.3290078" lon="11.267108"><ele>146.0</ele><time>2026-04-26T11:44:01.126Z</time></trkpt><trkpt lat="44.3290451" lon="11.2671888"><ele>146.0</ele><time>2026-04-26T11:44:02.124Z</time></trkpt><trkpt lat="44.3290824" lon="11.2672686"><ele>146.0</ele><time>2026-04-26T11:44:03.124Z</time></trkpt><trkpt lat="44.3291186" lon="11.2673495"><ele>146.0</ele><time>2026-04-26T11:44:04.126Z</time></trkpt><trkpt lat="44.3291546" lon="11.2674297"><ele>146.0</ele><time>2026-04-26T11:44:05.127Z</time></trkpt><trkpt lat="44.3291934" lon="11.2675079"><ele>147.14285714285714</ele><time>2026-04-26T11:44:06.132Z</time></trkpt><trkpt lat="44.3292313" lon="11.2675864"><ele>148.28571428571428</ele><time>2026-04-26T11:44:07.125Z</time></trkpt><trkpt lat="44.3292679" lon="11.2676662"><ele>149.42857142857144</ele><time>2026-04-26T11:44:08.123Z</time></trkpt><trkpt lat="44.3293046" lon="11.2677463"><ele>150.57142857142856</ele><time>2026-04-26T11:44:09.124Z</time></trkpt><trkpt lat="44.3293394" lon="11.2678281"><ele>151.71428571428572</ele><time>2026-04-26T11:44:10.123Z</time></trkpt><trkpt lat="44.3293756" lon="11.2679084"><ele>152.85714285714286</ele><time>2026-04-26T11:44:11.134Z</time></trkpt><trkpt lat="44.329413" lon="11.2679877"><ele>154.0</ele><time>2026-04-26T11:44:12.132Z</time></trkpt><trkpt lat="44.3294516" lon="11.2680658"><ele>156.28571428571428</ele><time>2026-04-26T11:44:13.125Z</time></trkpt><trkpt lat="44.3294922" lon="11.2681417"><ele>158.57142857142856</ele><time>2026-04-26T11:44:14.128Z</time></trkpt><trkpt lat="44.3295304" lon="11.2682213"><ele>160.85714285714286</ele><time>2026-04-26T11:44:15.133Z</time></trkpt><trkpt lat="44.329568" lon="11.2683013"><ele>163.14285714285714</ele><time>2026-04-26T11:44:16.127Z</time></trkpt><trkpt lat="44.3296067" lon="11.2683813"><ele>165.42857142857142</ele><time>2026-04-26T11:44:17.124Z</time></trkpt><trkpt lat="44.3296437" lon="11.268462"><ele>167.71428571428572</ele><time>2026-04-26T11:44:18.133Z</time></trkpt><trkpt lat="44.3296828" lon="11.2685411"><ele>170.0</ele><time>2026-04-26T11:44:19.135Z</time></trkpt><trkpt lat="44.329723" lon="11.2686188"><ele>166.85714285714286</ele><time>2026-04-26T11:44:20.13Z</time></trkpt><trkpt lat="44.3297648" lon="11.2686946"><ele>163.7142857142857</ele><time>2026-04-26T11:44:21.133Z</time></trkpt><trkpt lat="44.3298082" lon="11.268769"><ele>160.57142857142856</ele><time>2026-04-26T11:44:22.126Z</time></trkpt><trkpt lat="44.3298527" lon="11.2688429"><ele>157.42857142857144</ele><time>2026-04-26T11:44:23.117Z</time></trkpt><trkpt lat="44.3298984" lon="11.2689143"><ele>154.28571428571428</ele><time>2026-04-26T11:44:24.131Z</time></trkpt><trkpt lat="44.3299448" lon="11.2689846"><ele>151.14285714285714</ele><time>2026-04-26T11:44:25.13Z</time></trkpt><trkpt lat="44.3299926" lon="11.2690526"><ele>148.0</ele><time>2026-04-26T11:44:26.138Z</time></trkpt><trkpt lat="44.3300419" lon="11.2691182"><ele>148.0</ele><time>2026-04-26T11:44:27.126Z</time></trkpt><trkpt lat="44.3300923" lon="11.2691819"><ele>148.0</ele><time>2026-04-26T11:44:28.113Z</time></trkpt><trkpt lat="44.3301432" lon="11.2692453"><ele>148.0</ele><time>2026-04-26T11:44:29.137Z</time></trkpt><trkpt lat="44.3301956" lon="11.2693064"><ele>148.0</ele><time>2026-04-26T11:44:30.119Z</time></trkpt><trkpt lat="44.3302492" lon="11.2693659"><ele>148.0</ele><time>2026-04-26T11:44:31.126Z</time></trkpt><trkpt lat="44.3303042" lon="11.2694221"><ele>148.0</ele><time>2026-04-26T11:44:32.124Z</time></trkpt><trkpt lat="44.3303601" lon="11.2694775"><ele>148.0</ele><time>2026-04-26T11:44:33.119Z</time></trkpt><trkpt lat="44.330417" lon="11.269532"><ele>148.0</ele><time>2026-04-26T11:44:34.12Z</time></trkpt><trkpt lat="44.3304758" lon="11.2695847"><ele>148.0</ele><time>2026-04-26T11:44:35.127Z</time></trkpt><trkpt lat="44.3305353" lon="11.2696377"><ele>148.0</ele><time>2026-04-26T11:44:36.124Z</time></trkpt><trkpt lat="44.330596" lon="11.2696872"><ele>148.0</ele><time>2026-04-26T11:44:37.123Z</time></trkpt><trkpt lat="44.3306579" lon="11.2697333"><ele>148.0</ele><time>2026-04-26T11:44:38.132Z</time></trkpt><trkpt lat="44.3307195" lon="11.2697786"><ele>148.0</ele><time>2026-04-26T11:44:39.126Z</time></trkpt><trkpt lat="44.3307826" lon="11.2698196"><ele>148.0</ele><time>2026-04-26T11:44:40.135Z</time></trkpt><trkpt lat="44.3308469" lon="11.2698582"><ele>148.28571428571428</ele><time>2026-04-26T11:44:41.124Z</time></trkpt><trkpt lat="44.3309114" lon="11.269895"><ele>148.57142857142856</ele><time>2026-04-26T11:44:42.124Z</time></trkpt><trkpt lat="44.3309766" lon="11.2699307"><ele>148.85714285714283</ele><time>2026-04-26T11:44:43.118Z</time></trkpt><trkpt lat="44.3310422" lon="11.2699637"><ele>149.14285714285714</ele><time>2026-04-26T11:44:44.125Z</time></trkpt><trkpt lat="44.3311084" lon="11.2699937"><ele>149.42857142857142</ele><time>2026-04-26T11:44:45.121Z</time></trkpt><trkpt lat="44.3311753" lon="11.2700225"><ele>149.7142857142857</ele><time>2026-04-26T11:44:46.122Z</time></trkpt><trkpt lat="44.3312429" lon="11.2700481"><ele>150.0</ele><time>2026-04-26T11:44:47.121Z</time></trkpt><trkpt lat="44.3313107" lon="11.2700716"><ele>149.99999999999997</ele><time>2026-04-26T11:44:48.125Z</time></trkpt><trkpt lat="44.3313785" lon="11.2700933"><ele>150.0</ele><time>2026-04-26T11:44:49.123Z</time></trkpt><trkpt lat="44.3314466" lon="11.2701137"><ele>150.0</ele><time>2026-04-26T11:44:50.123Z</time></trkpt><trkpt lat="44.3315153" lon="11.2701303"><ele>150.0</ele><time>2026-04-26T11:44:51.122Z</time></trkpt><trkpt lat="44.3315845" lon="11.2701456"><ele>150.0</ele><time>2026-04-26T11:44:52.132Z</time></trkpt><trkpt lat="44.3316537" lon="11.2701572"><ele>149.99999999999997</ele><time>2026-04-26T11:44:53.128Z</time></trkpt><trkpt lat="44.3317238" lon="11.270166"><ele>150.0</ele><time>2026-04-26T11:44:54.123Z</time></trkpt><trkpt lat="44.3317937" lon="11.270173"><ele>149.7142857142857</ele><time>2026-04-26T11:44:55.125Z</time></trkpt><trkpt lat="44.3318642" lon="11.2701762"><ele>149.42857142857142</ele><time>2026-04-26T11:44:56.136Z</time></trkpt><trkpt lat="44.3319358" lon="11.2701762"><ele>149.14285714285714</ele><time>2026-04-26T11:44:57.121Z</time></trkpt><trkpt lat="44.3320068" lon="11.2701751"><ele>148.85714285714283</ele><time>2026-04-26T11:44:58.121Z</time></trkpt><trkpt lat="44.3320779" lon="11.2701719"><ele>148.57142857142856</ele><time>2026-04-26T11:44:59.122Z</time></trkpt><trkpt lat="44.3321486" lon="11.2701641"><ele>148.28571428571428</ele><time>2026-04-26T11:45:00.13Z</time></trkpt><trkpt lat="44.3322193" lon="11.2701561"><ele>148.0</ele><time>2026-04-26T11:45:01.126Z</time></trkpt><trkpt lat="44.3322895" lon="11.270145"><ele>148.0</ele><time>2026-04-26T11:45:02.13Z</time></trkpt><trkpt lat="44.332359" lon="11.2701293"><ele>148.0</ele><time>2026-04-26T11:45:03.129Z</time></trkpt><trkpt lat="44.3324281" lon="11.270113"><ele>148.0</ele><time>2026-04-26T11:45:04.125Z</time></trkpt><trkpt lat="44.3324973" lon="11.2700963"><ele>148.0</ele><time>2026-04-26T11:45:05.134Z</time></trkpt><trkpt lat="44.3325667" lon="11.270076"><ele>148.0</ele><time>2026-04-26T11:45:06.126Z</time></trkpt><trkpt lat="44.3326361" lon="11.2700532"><ele>148.0</ele><time>2026-04-26T11:45:07.132Z</time></trkpt><trkpt lat="44.3327064" lon="11.2700316"><ele>148.0</ele><time>2026-04-26T11:45:08.133Z</time></trkpt><trkpt lat="44.3327768" lon="11.2700088"><ele>148.0</ele><time>2026-04-26T11:45:09.13Z</time></trkpt><trkpt lat="44.3328472" lon="11.269986"><ele>148.0</ele><time>2026-04-26T11:45:10.13Z</time></trkpt><trkpt lat="44.3329179" lon="11.2699629"><ele>148.0</ele><time>2026-04-26T11:45:11.122Z</time></trkpt><trkpt lat="44.3329887" lon="11.2699394"><ele>148.0</ele><time>2026-04-26T11:45:12.128Z</time></trkpt><trkpt lat="44.3330591" lon="11.2699164"><ele>148.0</ele><time>2026-04-26T11:45:13.132Z</time></trkpt><trkpt lat="44.3331296" lon="11.2698935"><ele>148.0</ele><time>2026-04-26T11:45:14.131Z</time></trkpt><trkpt lat="44.3332001" lon="11.2698695"><ele>148.0</ele><time>2026-04-26T11:45:15.124Z</time></trkpt><trkpt lat="44.3332701" lon="11.2698467"><ele>148.42857142857144</ele><time>2026-04-26T11:45:16.126Z</time></trkpt><trkpt lat="44.3333402" lon="11.2698234"><ele>148.85714285714286</ele><time>2026-04-26T11:45:17.136Z</time></trkpt><trkpt lat="44.3334099" lon="11.2697997"><ele>149.28571428571428</ele><time>2026-04-26T11:45:18.12Z</time></trkpt><trkpt lat="44.3334801" lon="11.2697778"><ele>149.71428571428572</ele><time>2026-04-26T11:45:19.123Z</time></trkpt><trkpt lat="44.3335498" lon="11.2697556"><ele>150.14285714285714</ele><time>2026-04-26T11:45:20.123Z</time></trkpt><trkpt lat="44.333619" lon="11.2697325"><ele>150.57142857142858</ele><time>2026-04-26T11:45:21.126Z</time></trkpt><trkpt lat="44.3336875" lon="11.2697105"><ele>151.0</ele><time>2026-04-26T11:45:22.123Z</time></trkpt><trkpt lat="44.3337559" lon="11.2696877"><ele>149.2857142857143</ele><time>2026-04-26T11:45:23.135Z</time></trkpt><trkpt lat="44.3338235" lon="11.269663"><ele>147.57142857142858</ele><time>2026-04-26T11:45:24.127Z</time></trkpt><trkpt lat="44.3338906" lon="11.2696362"><ele>145.85714285714286</ele><time>2026-04-26T11:45:25.124Z</time></trkpt><trkpt lat="44.333958" lon="11.269611"><ele>144.14285714285717</ele><time>2026-04-26T11:45:26.131Z</time></trkpt><trkpt lat="44.3340256" lon="11.2695888"><ele>142.42857142857144</ele><time>2026-04-26T11:45:27.119Z</time></trkpt><trkpt lat="44.3340938" lon="11.2695711"><ele>140.71428571428572</ele><time>2026-04-26T11:45:28.133Z</time></trkpt><trkpt lat="44.3341615" lon="11.2695554"><ele>139.0</ele><time>2026-04-26T11:45:29.123Z</time></trkpt><trkpt lat="44.3342286" lon="11.2695401"><ele>139.0</ele><time>2026-04-26T11:45:30.138Z</time></trkpt><trkpt lat="44.334296" lon="11.2695377"><ele>139.0</ele><time>2026-04-26T11:45:31.132Z</time></trkpt><trkpt lat="44.3343617" lon="11.2695581"><ele>139.0</ele><time>2026-04-26T11:45:32.121Z</time></trkpt><trkpt lat="44.3344277" lon="11.2695838"><ele>139.0</ele><time>2026-04-26T11:45:33.127Z</time></trkpt><trkpt lat="44.3344951" lon="11.2696049"><ele>139.0</ele><time>2026-04-26T11:45:34.118Z</time></trkpt><trkpt lat="44.3345645" lon="11.2696175"><ele>139.0</ele><time>2026-04-26T11:45:35.126Z</time></trkpt><trkpt lat="44.3346345" lon="11.2696185"><ele>139.0</ele><time>2026-04-26T11:45:36.124Z</time></trkpt><trkpt lat="44.3347053" lon="11.2696132"><ele>139.42857142857142</ele><time>2026-04-26T11:45:37.129Z</time></trkpt><trkpt lat="44.3347749" lon="11.2696094"><ele>139.85714285714286</ele><time>2026-04-26T11:45:38.132Z</time></trkpt><trkpt lat="44.3348457" lon="11.2696021"><ele>140.28571428571428</ele><time>2026-04-26T11:45:39.127Z</time></trkpt><trkpt lat="44.3349163" lon="11.2695963"><ele>140.71428571428572</ele><time>2026-04-26T11:45:40.136Z</time></trkpt><trkpt lat="44.3349864" lon="11.2695902"><ele>141.14285714285714</ele><time>2026-04-26T11:45:41.125Z</time></trkpt><trkpt lat="44.3350563" lon="11.2695842"><ele>141.57142857142856</ele><time>2026-04-26T11:45:42.119Z</time></trkpt><trkpt lat="44.3351253" lon="11.2695792"><ele>142.0</ele><time>2026-04-26T11:45:43.125Z</time></trkpt><trkpt lat="44.3351942" lon="11.2695742"><ele>142.0</ele><time>2026-04-26T11:45:44.129Z</time></trkpt><trkpt lat="44.3352618" lon="11.2695685"><ele>142.0</ele><time>2026-04-26T11:45:45.131Z</time></trkpt><trkpt lat="44.3353292" lon="11.2695628"><ele>142.0</ele><time>2026-04-26T11:45:46.122Z</time></trkpt><trkpt lat="44.3353962" lon="11.2695571"><ele>142.0</ele><time>2026-04-26T11:45:47.123Z</time></trkpt><trkpt lat="44.3354633" lon="11.2695517"><ele>142.0</ele><time>2026-04-26T11:45:48.127Z</time></trkpt><trkpt lat="44.3355291" lon="11.2695421"><ele>142.0</ele><time>2026-04-26T11:45:49.135Z</time></trkpt><trkpt lat="44.3355949" lon="11.2695318"><ele>142.0</ele><time>2026-04-26T11:45:50.13Z</time></trkpt><trkpt lat="44.3356592" lon="11.2695211"><ele>142.0</ele><time>2026-04-26T11:45:51.119Z</time></trkpt><trkpt lat="44.3357229" lon="11.2695089"><ele>142.0</ele><time>2026-04-26T11:45:52.122Z</time></trkpt><trkpt lat="44.3357858" lon="11.2694943"><ele>142.0</ele><time>2026-04-26T11:45:53.122Z</time></trkpt><trkpt lat="44.3358488" lon="11.2694785"><ele>142.0</ele><time>2026-04-26T11:45:54.125Z</time></trkpt><trkpt lat="44.3359692" lon="11.2694445"><ele>142.0</ele><time>2026-04-26T11:45:56.132Z</time></trkpt><trkpt lat="44.3360879" lon="11.2694024"><ele>142.0</ele><time>2026-04-26T11:45:58.126Z</time></trkpt><trkpt lat="44.3362009" lon="11.2693549"><ele>142.0</ele><time>2026-04-26T11:46:00.129Z</time></trkpt><trkpt lat="44.3363119" lon="11.2693089"><ele>142.0</ele><time>2026-04-26T11:46:02.133Z</time></trkpt><trkpt lat="44.336422" lon="11.2692566"><ele>142.0</ele><time>2026-04-26T11:46:04.118Z</time></trkpt><trkpt lat="44.3365284" lon="11.269201"><ele>142.0</ele><time>2026-04-26T11:46:06.135Z</time></trkpt><trkpt lat="44.3366355" lon="11.2691464"><ele>142.0</ele><time>2026-04-26T11:46:08.122Z</time></trkpt><trkpt lat="44.3367411" lon="11.2690899"><ele>142.0</ele><time>2026-04-26T11:46:10.127Z</time></trkpt><trkpt lat="44.3368473" lon="11.2690319"><ele>142.0</ele><time>2026-04-26T11:46:12.136Z</time></trkpt><trkpt lat="44.3369519" lon="11.2689753"><ele>142.0</ele><time>2026-04-26T11:46:14.139Z</time></trkpt><trkpt lat="44.3370549" lon="11.2689188"><ele>141.25</ele><time>2026-04-26T11:46:16.125Z</time></trkpt><trkpt lat="44.3371624" lon="11.2688591"><ele>140.5</ele><time>2026-04-26T11:46:18.123Z</time></trkpt><trkpt lat="44.3372702" lon="11.2687999"><ele>139.75</ele><time>2026-04-26T11:46:20.129Z</time></trkpt><trkpt lat="44.3373791" lon="11.2687424"><ele>139.0</ele><time>2026-04-26T11:46:22.136Z</time></trkpt><trkpt lat="44.3374904" lon="11.2686867"><ele>139.0</ele><time>2026-04-26T11:46:24.13Z</time></trkpt><trkpt lat="44.3376048" lon="11.2686262"><ele>139.0</ele><time>2026-04-26T11:46:26.128Z</time></trkpt><trkpt lat="44.3377259" lon="11.2685689"><ele>139.0</ele><time>2026-04-26T11:46:28.124Z</time></trkpt><trkpt lat="44.3377869" lon="11.268541"><ele>139.0</ele><time>2026-04-26T11:46:29.135Z</time></trkpt><trkpt lat="44.3378491" lon="11.2685138"><ele>139.0</ele><time>2026-04-26T11:46:30.125Z</time></trkpt><trkpt lat="44.3379132" lon="11.268489"><ele>139.0</ele><time>2026-04-26T11:46:31.133Z</time></trkpt><trkpt lat="44.3379771" lon="11.2684643"><ele>139.0</ele><time>2026-04-26T11:46:32.117Z</time></trkpt><trkpt lat="44.3380426" lon="11.2684399"><ele>139.0</ele><time>2026-04-26T11:46:33.133Z</time></trkpt><trkpt lat="44.338109" lon="11.2684153"><ele>139.0</ele><time>2026-04-26T11:46:34.129Z</time></trkpt><trkpt lat="44.3381759" lon="11.2683936"><ele>139.0</ele><time>2026-04-26T11:46:35.131Z</time></trkpt><trkpt lat="44.3382438" lon="11.2683717"><ele>139.0</ele><time>2026-04-26T11:46:36.128Z</time></trkpt><trkpt lat="44.3383115" lon="11.2683513"><ele>139.0</ele><time>2026-04-26T11:46:37.121Z</time></trkpt><trkpt lat="44.3383798" lon="11.2683307"><ele>139.0</ele><time>2026-04-26T11:46:38.135Z</time></trkpt><trkpt lat="44.3384493" lon="11.2683161"><ele>139.57142857142856</ele><time>2026-04-26T11:46:39.124Z</time></trkpt><trkpt lat="44.3385201" lon="11.2683048"><ele>140.14285714285714</ele><time>2026-04-26T11:46:40.119Z</time></trkpt><trkpt lat="44.3385933" lon="11.2682924"><ele>140.71428571428572</ele><time>2026-04-26T11:46:41.122Z</time></trkpt><trkpt lat="44.338667" lon="11.2682805"><ele>141.28571428571428</ele><time>2026-04-26T11:46:42.123Z</time></trkpt><trkpt lat="44.3387414" lon="11.2682716"><ele>141.85714285714286</ele><time>2026-04-26T11:46:43.117Z</time></trkpt><trkpt lat="44.3388174" lon="11.2682606"><ele>142.42857142857142</ele><time>2026-04-26T11:46:44.132Z</time></trkpt><trkpt lat="44.3388951" lon="11.2682527"><ele>143.0</ele><time>2026-04-26T11:46:45.122Z</time></trkpt><trkpt lat="44.338974" lon="11.2682448"><ele>143.0</ele><time>2026-04-26T11:46:46.119Z</time></trkpt><trkpt lat="44.3390532" lon="11.2682388"><ele>143.0</ele><time>2026-04-26T11:46:47.136Z</time></trkpt><trkpt lat="44.3391323" lon="11.2682362"><ele>143.0</ele><time>2026-04-26T11:46:48.123Z</time></trkpt><trkpt lat="44.3392102" lon="11.268233"><ele>143.0</ele><time>2026-04-26T11:46:49.13Z</time></trkpt><trkpt lat="44.3392885" lon="11.2682329"><ele>143.0</ele><time>2026-04-26T11:46:50.129Z</time></trkpt><trkpt lat="44.3393661" lon="11.2682352"><ele>143.0</ele><time>2026-04-26T11:46:51.114Z</time></trkpt><trkpt lat="44.3394441" lon="11.2682368"><ele>143.0</ele><time>2026-04-26T11:46:52.135Z</time></trkpt><trkpt lat="44.3395207" lon="11.2682448"><ele>143.0</ele><time>2026-04-26T11:46:53.134Z</time></trkpt><trkpt lat="44.3396017" lon="11.2682567"><ele>143.0</ele><time>2026-04-26T11:46:54.14Z</time></trkpt><trkpt lat="44.339681" lon="11.2682747"><ele>143.0</ele><time>2026-04-26T11:46:55.128Z</time></trkpt><trkpt lat="44.3397595" lon="11.268299"><ele>143.0</ele><time>2026-04-26T11:46:56.123Z</time></trkpt><trkpt lat="44.3398363" lon="11.2683268"><ele>143.0</ele><time>2026-04-26T11:46:57.131Z</time></trkpt><trkpt lat="44.3399129" lon="11.2683593"><ele>142.16666666666666</ele><time>2026-04-26T11:46:58.128Z</time></trkpt><trkpt lat="44.3399879" lon="11.2683954"><ele>141.33333333333331</ele><time>2026-04-26T11:46:59.127Z</time></trkpt><trkpt lat="44.340062" lon="11.2684331"><ele>140.5</ele><time>2026-04-26T11:47:00.122Z</time></trkpt><trkpt lat="44.3401354" lon="11.2684721"><ele>139.66666666666666</ele><time>2026-04-26T11:47:01.116Z</time></trkpt><trkpt lat="44.3402099" lon="11.2685138"><ele>138.83333333333334</ele><time>2026-04-26T11:47:02.12Z</time></trkpt><trkpt lat="44.340285" lon="11.2685526"><ele>138.0</ele><time>2026-04-26T11:47:03.117Z</time></trkpt><trkpt lat="44.3403597" lon="11.2685905"><ele>138.0</ele><time>2026-04-26T11:47:04.132Z</time></trkpt><trkpt lat="44.3404344" lon="11.2686262"><ele>138.0</ele><time>2026-04-26T11:47:05.121Z</time></trkpt><trkpt lat="44.3405087" lon="11.2686605"><ele>138.0</ele><time>2026-04-26T11:47:06.132Z</time></trkpt><trkpt lat="44.3405828" lon="11.2686921"><ele>138.0</ele><time>2026-04-26T11:47:07.126Z</time></trkpt><trkpt lat="44.3406562" lon="11.2687222"><ele>138.0</ele><time>2026-04-26T11:47:08.124Z</time></trkpt><trkpt lat="44.3407277" lon="11.2687499"><ele>138.0</ele><time>2026-04-26T11:47:09.133Z</time></trkpt><trkpt lat="44.3407994" lon="11.2687754"><ele>137.42857142857144</ele><time>2026-04-26T11:47:10.113Z</time></trkpt><trkpt lat="44.3408703" lon="11.2688006"><ele>136.85714285714286</ele><time>2026-04-26T11:47:11.122Z</time></trkpt><trkpt lat="44.3409408" lon="11.2688235"><ele>136.28571428571428</ele><time>2026-04-26T11:47:12.13Z</time></trkpt><trkpt lat="44.341012" lon="11.2688449"><ele>135.71428571428572</ele><time>2026-04-26T11:47:13.121Z</time></trkpt><trkpt lat="44.341082" lon="11.2688652"><ele>135.14285714285714</ele><time>2026-04-26T11:47:14.124Z</time></trkpt><trkpt lat="44.3411518" lon="11.268881"><ele>134.57142857142858</ele><time>2026-04-26T11:47:15.116Z</time></trkpt><trkpt lat="44.3412214" lon="11.2688973"><ele>134.0</ele><time>2026-04-26T11:47:16.133Z</time></trkpt><trkpt lat="44.3412911" lon="11.2689133"><ele>134.0</ele><time>2026-04-26T11:47:17.126Z</time></trkpt><trkpt lat="44.3413607" lon="11.2689281"><ele>134.0</ele><time>2026-04-26T11:47:18.127Z</time></trkpt><trkpt lat="44.3414305" lon="11.268941"><ele>134.0</ele><time>2026-04-26T11:47:19.12Z</time></trkpt><trkpt lat="44.3414996" lon="11.2689537"><ele>134.0</ele><time>2026-04-26T11:47:20.128Z</time></trkpt><trkpt lat="44.3415703" lon="11.2689642"><ele>134.0</ele><time>2026-04-26T11:47:21.115Z</time></trkpt><trkpt lat="44.3416402" lon="11.2689745"><ele>134.0</ele><time>2026-04-26T11:47:22.123Z</time></trkpt><trkpt lat="44.3417109" lon="11.268983"><ele>134.0</ele><time>2026-04-26T11:47:23.131Z</time></trkpt><trkpt lat="44.3417809" lon="11.2689905"><ele>133.85714285714286</ele><time>2026-04-26T11:47:24.115Z</time></trkpt><trkpt lat="44.3418518" lon="11.2689958"><ele>133.71428571428572</ele><time>2026-04-26T11:47:25.125Z</time></trkpt><trkpt lat="44.3419227" lon="11.2690033"><ele>133.57142857142856</ele><time>2026-04-26T11:47:26.119Z</time></trkpt><trkpt lat="44.3419936" lon="11.2690108"><ele>133.42857142857144</ele><time>2026-04-26T11:47:27.135Z</time></trkpt><trkpt lat="44.3420644" lon="11.2690178"><ele>133.28571428571428</ele><time>2026-04-26T11:47:28.115Z</time></trkpt><trkpt lat="44.3421357" lon="11.2690216"><ele>133.14285714285714</ele><time>2026-04-26T11:47:29.137Z</time></trkpt><trkpt lat="44.3422064" lon="11.2690234"><ele>133.0</ele><time>2026-04-26T11:47:30.122Z</time></trkpt><trkpt lat="44.3422775" lon="11.2690243"><ele>132.85714285714286</ele><time>2026-04-26T11:47:31.123Z</time></trkpt><trkpt lat="44.3423487" lon="11.2690224"><ele>132.71428571428572</ele><time>2026-04-26T11:47:32.117Z</time></trkpt><trkpt lat="44.3424208" lon="11.2690197"><ele>132.57142857142856</ele><time>2026-04-26T11:47:33.121Z</time></trkpt><trkpt lat="44.3424926" lon="11.2690166"><ele>132.42857142857144</ele><time>2026-04-26T11:47:34.123Z</time></trkpt><trkpt lat="44.3425646" lon="11.2690112"><ele>132.28571428571428</ele><time>2026-04-26T11:47:35.12Z</time></trkpt><trkpt lat="44.3426367" lon="11.2690057"><ele>132.14285714285714</ele><time>2026-04-26T11:47:36.121Z</time></trkpt><trkpt lat="44.3427089" lon="11.2689989"><ele>132.0</ele><time>2026-04-26T11:47:37.134Z</time></trkpt><trkpt lat="44.3427811" lon="11.2689929"><ele>132.0</ele><time>2026-04-26T11:47:38.115Z</time></trkpt><trkpt lat="44.3428536" lon="11.2689854"><ele>132.0</ele><time>2026-04-26T11:47:39.128Z</time></trkpt><trkpt lat="44.3429265" lon="11.2689771"><ele>132.0</ele><time>2026-04-26T11:47:40.136Z</time></trkpt><trkpt lat="44.3429992" lon="11.2689683"><ele>132.0</ele><time>2026-04-26T11:47:41.126Z</time></trkpt><trkpt lat="44.3430719" lon="11.2689566"><ele>132.0</ele><time>2026-04-26T11:47:42.131Z</time></trkpt><trkpt lat="44.3431446" lon="11.2689474"><ele>132.0</ele><time>2026-04-26T11:47:43.128Z</time></trkpt><trkpt lat="44.3432182" lon="11.2689393"><ele>132.0</ele><time>2026-04-26T11:47:44.133Z</time></trkpt><trkpt lat="44.343291" lon="11.2689299"><ele>131.71428571428572</ele><time>2026-04-26T11:47:45.127Z</time></trkpt><trkpt lat="44.3433634" lon="11.2689207"><ele>131.42857142857144</ele><time>2026-04-26T11:47:46.135Z</time></trkpt><trkpt lat="44.3434359" lon="11.2689096"><ele>131.14285714285717</ele><time>2026-04-26T11:47:47.13Z</time></trkpt><trkpt lat="44.3435079" lon="11.2689001"><ele>130.85714285714286</ele><time>2026-04-26T11:47:48.126Z</time></trkpt><trkpt lat="44.3435801" lon="11.2688903"><ele>130.57142857142858</ele><time>2026-04-26T11:47:49.131Z</time></trkpt><trkpt lat="44.3436521" lon="11.2688805"><ele>130.2857142857143</ele><time>2026-04-26T11:47:50.124Z</time></trkpt><trkpt lat="44.3437237" lon="11.2688684"><ele>130.0</ele><time>2026-04-26T11:47:51.126Z</time></trkpt><trkpt lat="44.343795" lon="11.2688584"><ele>130.00000000000003</ele><time>2026-04-26T11:47:52.124Z</time></trkpt><trkpt lat="44.3438663" lon="11.2688467"><ele>130.0</ele><time>2026-04-26T11:47:53.126Z</time></trkpt><trkpt lat="44.3439381" lon="11.2688352"><ele>130.0</ele><time>2026-04-26T11:47:54.128Z</time></trkpt><trkpt lat="44.3440096" lon="11.2688232"><ele>130.0</ele><time>2026-04-26T11:47:55.125Z</time></trkpt><trkpt lat="44.3440813" lon="11.2688142"><ele>130.0</ele><time>2026-04-26T11:47:56.124Z</time></trkpt><trkpt lat="44.3441529" lon="11.2688033"><ele>130.00000000000003</ele><time>2026-04-26T11:47:57.12Z</time></trkpt><trkpt lat="44.344225" lon="11.2687919"><ele>130.0</ele><time>2026-04-26T11:47:58.12Z</time></trkpt><trkpt lat="44.3442953" lon="11.2687796"><ele>130.00000000000003</ele><time>2026-04-26T11:47:59.129Z</time></trkpt><trkpt lat="44.3443667" lon="11.268769"><ele>130.0</ele><time>2026-04-26T11:48:00.131Z</time></trkpt><trkpt lat="44.3444385" lon="11.2687579"><ele>130.0</ele><time>2026-04-26T11:48:01.128Z</time></trkpt><trkpt lat="44.3445097" lon="11.268746"><ele>130.0</ele><time>2026-04-26T11:48:02.127Z</time></trkpt><trkpt lat="44.3445809" lon="11.2687363"><ele>130.0</ele><time>2026-04-26T11:48:03.124Z</time></trkpt><trkpt lat="44.3446525" lon="11.2687275"><ele>130.00000000000003</ele><time>2026-04-26T11:48:04.129Z</time></trkpt><trkpt lat="44.3447234" lon="11.268717"><ele>130.0</ele><time>2026-04-26T11:48:05.132Z</time></trkpt><trkpt lat="44.344795" lon="11.2687067"><ele>130.00000000000003</ele><time>2026-04-26T11:48:06.125Z</time></trkpt><trkpt lat="44.3448655" lon="11.2686955"><ele>130.0</ele><time>2026-04-26T11:48:07.117Z</time></trkpt><trkpt lat="44.3449367" lon="11.2686859"><ele>130.0</ele><time>2026-04-26T11:48:08.115Z</time></trkpt><trkpt lat="44.3450078" lon="11.2686756"><ele>130.0</ele><time>2026-04-26T11:48:09.13Z</time></trkpt><trkpt lat="44.3450787" lon="11.2686659"><ele>130.0</ele><time>2026-04-26T11:48:10.122Z</time></trkpt><trkpt lat="44.3451494" lon="11.2686569"><ele>130.00000000000003</ele><time>2026-04-26T11:48:11.13Z</time></trkpt><trkpt lat="44.3452201" lon="11.2686468"><ele>130.0</ele><time>2026-04-26T11:48:12.12Z</time></trkpt><trkpt lat="44.3452908" lon="11.2686371"><ele>130.00000000000003</ele><time>2026-04-26T11:48:13.121Z</time></trkpt><trkpt lat="44.3453614" lon="11.2686271"><ele>130.0</ele><time>2026-04-26T11:48:14.129Z</time></trkpt><trkpt lat="44.3454323" lon="11.2686172"><ele>130.0</ele><time>2026-04-26T11:48:15.127Z</time></trkpt><trkpt lat="44.3455026" lon="11.2686077"><ele>130.0</ele><time>2026-04-26T11:48:16.135Z</time></trkpt><trkpt lat="44.3455742" lon="11.268599"><ele>130.0</ele><time>2026-04-26T11:48:17.114Z</time></trkpt><trkpt lat="44.3456457" lon="11.2685907"><ele>130.00000000000003</ele><time>2026-04-26T11:48:18.12Z</time></trkpt><trkpt lat="44.3457163" lon="11.2685821"><ele>130.0</ele><time>2026-04-26T11:48:19.131Z</time></trkpt><trkpt lat="44.3457862" lon="11.2685746"><ele>129.85714285714286</ele><time>2026-04-26T11:48:20.123Z</time></trkpt><trkpt lat="44.3458594" lon="11.2685662"><ele>129.71428571428572</ele><time>2026-04-26T11:48:21.125Z</time></trkpt><trkpt lat="44.3459327" lon="11.2685625"><ele>129.57142857142856</ele><time>2026-04-26T11:48:22.129Z</time></trkpt><trkpt lat="44.3460061" lon="11.2685592"><ele>129.42857142857144</ele><time>2026-04-26T11:48:23.129Z</time></trkpt><trkpt lat="44.346078" lon="11.2685554"><ele>129.28571428571428</ele><time>2026-04-26T11:48:24.123Z</time></trkpt><trkpt lat="44.3461504" lon="11.2685485"><ele>129.14285714285714</ele><time>2026-04-26T11:48:25.115Z</time></trkpt><trkpt lat="44.3462224" lon="11.2685398"><ele>129.0</ele><time>2026-04-26T11:48:26.133Z</time></trkpt><trkpt lat="44.3462948" lon="11.2685318"><ele>128.99999999999997</ele><time>2026-04-26T11:48:27.127Z</time></trkpt><trkpt lat="44.3463674" lon="11.2685218"><ele>129.0</ele><time>2026-04-26T11:48:28.119Z</time></trkpt><trkpt lat="44.346438" lon="11.2685104"><ele>129.0</ele><time>2026-04-26T11:48:29.123Z</time></trkpt><trkpt lat="44.3465099" lon="11.2684966"><ele>129.0</ele><time>2026-04-26T11:48:30.128Z</time></trkpt><trkpt lat="44.3465808" lon="11.2684828"><ele>129.0</ele><time>2026-04-26T11:48:31.119Z</time></trkpt><trkpt lat="44.3466514" lon="11.268469"><ele>128.99999999999997</ele><time>2026-04-26T11:48:32.136Z</time></trkpt><trkpt lat="44.3467214" lon="11.2684558"><ele>129.0</ele><time>2026-04-26T11:48:33.126Z</time></trkpt><trkpt lat="44.3467908" lon="11.2684414"><ele>129.14285714285714</ele><time>2026-04-26T11:48:34.123Z</time></trkpt><trkpt lat="44.34686" lon="11.2684275"><ele>129.28571428571428</ele><time>2026-04-26T11:48:35.137Z</time></trkpt><trkpt lat="44.3469286" lon="11.2684153"><ele>129.42857142857144</ele><time>2026-04-26T11:48:36.124Z</time></trkpt><trkpt lat="44.3469971" lon="11.2684044"><ele>129.57142857142856</ele><time>2026-04-26T11:48:37.136Z</time></trkpt><trkpt lat="44.347067" lon="11.2683939"><ele>129.71428571428572</ele><time>2026-04-26T11:48:38.124Z</time></trkpt><trkpt lat="44.3471366" lon="11.268383"><ele>129.85714285714286</ele><time>2026-04-26T11:48:39.13Z</time></trkpt><trkpt lat="44.3472068" lon="11.2683706"><ele>130.0</ele><time>2026-04-26T11:48:40.134Z</time></trkpt><trkpt lat="44.3472777" lon="11.2683602"><ele>130.14285714285717</ele><time>2026-04-26T11:48:41.133Z</time></trkpt><trkpt lat="44.3473487" lon="11.2683503"><ele>130.28571428571428</ele><time>2026-04-26T11:48:42.124Z</time></trkpt><trkpt lat="44.3474202" lon="11.2683393"><ele>130.42857142857144</ele><time>2026-04-26T11:48:43.135Z</time></trkpt><trkpt lat="44.3474927" lon="11.2683272"><ele>130.57142857142858</ele><time>2026-04-26T11:48:44.122Z</time></trkpt><trkpt lat="44.3475646" lon="11.2683142"><ele>130.71428571428572</ele><time>2026-04-26T11:48:45.131Z</time></trkpt><trkpt lat="44.3476371" lon="11.2683026"><ele>130.85714285714286</ele><time>2026-04-26T11:48:46.115Z</time></trkpt><trkpt lat="44.3477102" lon="11.2682907"><ele>131.0</ele><time>2026-04-26T11:48:47.126Z</time></trkpt><trkpt lat="44.3477824" lon="11.2682785"><ele>131.0</ele><time>2026-04-26T11:48:48.121Z</time></trkpt><trkpt lat="44.3478532" lon="11.2682673"><ele>131.0</ele><time>2026-04-26T11:48:49.125Z</time></trkpt><trkpt lat="44.3479234" lon="11.2682561"><ele>131.0</ele><time>2026-04-26T11:48:50.13Z</time></trkpt><trkpt lat="44.3479946" lon="11.2682455"><ele>131.0</ele><time>2026-04-26T11:48:51.119Z</time></trkpt><trkpt lat="44.3480654" lon="11.2682337"><ele>131.0</ele><time>2026-04-26T11:48:52.125Z</time></trkpt><trkpt lat="44.3481364" lon="11.2682217"><ele>131.0</ele><time>2026-04-26T11:48:53.116Z</time></trkpt><trkpt lat="44.348207" lon="11.2682094"><ele>131.0</ele><time>2026-04-26T11:48:54.129Z</time></trkpt><trkpt lat="44.3482778" lon="11.2681971"><ele>130.28571428571428</ele><time>2026-04-26T11:48:55.115Z</time></trkpt><trkpt lat="44.3483477" lon="11.2681845"><ele>129.57142857142858</ele><time>2026-04-26T11:48:56.123Z</time></trkpt><trkpt lat="44.3484181" lon="11.2681705"><ele>128.85714285714286</ele><time>2026-04-26T11:48:57.126Z</time></trkpt><trkpt lat="44.3484876" lon="11.2681556"><ele>128.14285714285714</ele><time>2026-04-26T11:48:58.122Z</time></trkpt><trkpt lat="44.3485566" lon="11.2681399"><ele>127.42857142857143</ele><time>2026-04-26T11:48:59.125Z</time></trkpt><trkpt lat="44.3486253" lon="11.2681243"><ele>126.71428571428572</ele><time>2026-04-26T11:49:00.122Z</time></trkpt><trkpt lat="44.3486943" lon="11.2681066"><ele>126.0</ele><time>2026-04-26T11:49:01.132Z</time></trkpt><trkpt lat="44.3487634" lon="11.2680903"><ele>126.0</ele><time>2026-04-26T11:49:02.116Z</time></trkpt><trkpt lat="44.3488323" lon="11.2680733"><ele>126.0</ele><time>2026-04-26T11:49:03.12Z</time></trkpt><trkpt lat="44.3489013" lon="11.2680574"><ele>126.0</ele><time>2026-04-26T11:49:04.124Z</time></trkpt><trkpt lat="44.3489698" lon="11.2680407"><ele>126.0</ele><time>2026-04-26T11:49:05.111Z</time></trkpt><trkpt lat="44.3490381" lon="11.2680239"><ele>126.0</ele><time>2026-04-26T11:49:06.131Z</time></trkpt><trkpt lat="44.3491064" lon="11.2680058"><ele>126.0</ele><time>2026-04-26T11:49:07.123Z</time></trkpt><trkpt lat="44.3491749" lon="11.2679868"><ele>126.0</ele><time>2026-04-26T11:49:08.128Z</time></trkpt><trkpt lat="44.349243" lon="11.2679691"><ele>126.0</ele><time>2026-04-26T11:49:09.122Z</time></trkpt><trkpt lat="44.3493112" lon="11.2679512"><ele>126.0</ele><time>2026-04-26T11:49:10.118Z</time></trkpt><trkpt lat="44.3493794" lon="11.2679334"><ele>126.0</ele><time>2026-04-26T11:49:11.108Z</time></trkpt><trkpt lat="44.3494479" lon="11.267915"><ele>126.0</ele><time>2026-04-26T11:49:12.132Z</time></trkpt><trkpt lat="44.3495159" lon="11.2678964"><ele>126.0</ele><time>2026-04-26T11:49:13.12Z</time></trkpt><trkpt lat="44.3495841" lon="11.2678772"><ele>126.0</ele><time>2026-04-26T11:49:14.134Z</time></trkpt><trkpt lat="44.3496522" lon="11.2678591"><ele>126.0</ele><time>2026-04-26T11:49:15.105Z</time></trkpt><trkpt lat="44.3497205" lon="11.2678401"><ele>126.14285714285714</ele><time>2026-04-26T11:49:16.118Z</time></trkpt><trkpt lat="44.349789" lon="11.2678219"><ele>126.28571428571428</ele><time>2026-04-26T11:49:17.128Z</time></trkpt><trkpt lat="44.3498573" lon="11.2678047"><ele>126.42857142857143</ele><time>2026-04-26T11:49:18.133Z</time></trkpt><trkpt lat="44.3499248" lon="11.2677874"><ele>126.57142857142857</ele><time>2026-04-26T11:49:19.138Z</time></trkpt><trkpt lat="44.349992" lon="11.2677681"><ele>126.71428571428571</ele><time>2026-04-26T11:49:20.121Z</time></trkpt><trkpt lat="44.3500578" lon="11.2677477"><ele>126.85714285714286</ele><time>2026-04-26T11:49:21.133Z</time></trkpt><trkpt lat="44.3501235" lon="11.267728"><ele>127.0</ele><time>2026-04-26T11:49:22.127Z</time></trkpt><trkpt lat="44.350188" lon="11.2677085"><ele>127.0</ele><time>2026-04-26T11:49:23.13Z</time></trkpt><trkpt lat="44.3502509" lon="11.2676865"><ele>126.99999999999999</ele><time>2026-04-26T11:49:24.126Z</time></trkpt><trkpt lat="44.3503125" lon="11.2676663"><ele>126.99999999999999</ele><time>2026-04-26T11:49:25.133Z</time></trkpt><trkpt lat="44.3504273" lon="11.2676206"><ele>127.0</ele><time>2026-04-26T11:49:27.124Z</time></trkpt><trkpt lat="44.3505351" lon="11.2675727"><ele>127.0</ele><time>2026-04-26T11:49:29.126Z</time></trkpt><trkpt lat="44.3506383" lon="11.2675169"><ele>126.75</ele><time>2026-04-26T11:49:31.137Z</time></trkpt><trkpt lat="44.3507408" lon="11.2674538"><ele>126.5</ele><time>2026-04-26T11:49:33.128Z</time></trkpt><trkpt lat="44.3508459" lon="11.2673858"><ele>126.25</ele><time>2026-04-26T11:49:35.129Z</time></trkpt><trkpt lat="44.3509511" lon="11.2673139"><ele>126.0</ele><time>2026-04-26T11:49:37.127Z</time></trkpt><trkpt lat="44.3510582" lon="11.2672404"><ele>126.0</ele><time>2026-04-26T11:49:39.123Z</time></trkpt><trkpt lat="44.3511686" lon="11.2671656"><ele>126.0</ele><time>2026-04-26T11:49:41.122Z</time></trkpt><trkpt lat="44.351227" lon="11.2671264"><ele>126.0</ele><time>2026-04-26T11:49:42.122Z</time></trkpt><trkpt lat="44.3512889" lon="11.2670871"><ele>126.0</ele><time>2026-04-26T11:49:43.121Z</time></trkpt><trkpt lat="44.3513536" lon="11.2670481"><ele>126.0</ele><time>2026-04-26T11:49:44.143Z</time></trkpt><trkpt lat="44.3514199" lon="11.2670095"><ele>126.0</ele><time>2026-04-26T11:49:45.13Z</time></trkpt><trkpt lat="44.3514897" lon="11.2669737"><ele>126.33333333333333</ele><time>2026-04-26T11:49:46.124Z</time></trkpt><trkpt lat="44.351561" lon="11.2669439"><ele>126.66666666666666</ele><time>2026-04-26T11:49:47.122Z</time></trkpt><trkpt lat="44.3516344" lon="11.2669197"><ele>127.0</ele><time>2026-04-26T11:49:48.128Z</time></trkpt><trkpt lat="44.3517095" lon="11.2668972"><ele>127.33333333333333</ele><time>2026-04-26T11:49:49.113Z</time></trkpt><trkpt lat="44.3517833" lon="11.2668737"><ele>127.66666666666666</ele><time>2026-04-26T11:49:50.121Z</time></trkpt><trkpt lat="44.3518607" lon="11.2668536"><ele>128.0</ele><time>2026-04-26T11:49:51.128Z</time></trkpt><trkpt lat="44.3519372" lon="11.2668347"><ele>127.99999999999999</ele><time>2026-04-26T11:49:52.134Z</time></trkpt><trkpt lat="44.3520128" lon="11.2668163"><ele>128.0</ele><time>2026-04-26T11:49:53.125Z</time></trkpt><trkpt lat="44.3520879" lon="11.2667988"><ele>128.0</ele><time>2026-04-26T11:49:54.123Z</time></trkpt><trkpt lat="44.3521635" lon="11.2667804"><ele>128.0</ele><time>2026-04-26T11:49:55.136Z</time></trkpt><trkpt lat="44.352238" lon="11.2667608"><ele>127.99999999999999</ele><time>2026-04-26T11:49:56.129Z</time></trkpt><trkpt lat="44.3523116" lon="11.2667402"><ele>128.0</ele><time>2026-04-26T11:49:57.115Z</time></trkpt><trkpt lat="44.3523837" lon="11.2667206"><ele>128.57142857142856</ele><time>2026-04-26T11:49:58.116Z</time></trkpt><trkpt lat="44.3524553" lon="11.2666976"><ele>129.14285714285714</ele><time>2026-04-26T11:49:59.112Z</time></trkpt><trkpt lat="44.3525269" lon="11.2666743"><ele>129.71428571428572</ele><time>2026-04-26T11:50:00.112Z</time></trkpt><trkpt lat="44.3525983" lon="11.2666478"><ele>130.28571428571428</ele><time>2026-04-26T11:50:01.126Z</time></trkpt><trkpt lat="44.3526684" lon="11.2666183"><ele>130.85714285714286</ele><time>2026-04-26T11:50:02.119Z</time></trkpt><trkpt lat="44.3527375" lon="11.2665853"><ele>131.42857142857142</ele><time>2026-04-26T11:50:03.124Z</time></trkpt><trkpt lat="44.3528057" lon="11.2665513"><ele>132.0</ele><time>2026-04-26T11:50:04.126Z</time></trkpt><trkpt lat="44.3528741" lon="11.2665204"><ele>132.0</ele><time>2026-04-26T11:50:05.121Z</time></trkpt><trkpt lat="44.352944" lon="11.2664942"><ele>132.0</ele><time>2026-04-26T11:50:06.126Z</time></trkpt><trkpt lat="44.3530132" lon="11.2664724"><ele>132.0</ele><time>2026-04-26T11:50:07.114Z</time></trkpt><trkpt lat="44.3530817" lon="11.2664427"><ele>132.0</ele><time>2026-04-26T11:50:08.119Z</time></trkpt><trkpt lat="44.3531488" lon="11.2664097"><ele>132.0</ele><time>2026-04-26T11:50:09.118Z</time></trkpt><trkpt lat="44.3532156" lon="11.2663765"><ele>132.0</ele><time>2026-04-26T11:50:10.12Z</time></trkpt><trkpt lat="44.3532816" lon="11.2663415"><ele>132.0</ele><time>2026-04-26T11:50:11.127Z</time></trkpt><trkpt lat="44.3533488" lon="11.2663065"><ele>130.71428571428572</ele><time>2026-04-26T11:50:12.128Z</time></trkpt><trkpt lat="44.3534151" lon="11.2662731"><ele>129.42857142857144</ele><time>2026-04-26T11:50:13.107Z</time></trkpt><trkpt lat="44.3534812" lon="11.2662392"><ele>128.14285714285717</ele><time>2026-04-26T11:50:14.129Z</time></trkpt><trkpt lat="44.3535472" lon="11.2662058"><ele>126.85714285714286</ele><time>2026-04-26T11:50:15.124Z</time></trkpt><trkpt lat="44.3536134" lon="11.2661727"><ele>125.57142857142858</ele><time>2026-04-26T11:50:16.126Z</time></trkpt><trkpt lat="44.3536791" lon="11.2661401"><ele>124.2857142857143</ele><time>2026-04-26T11:50:17.125Z</time></trkpt><trkpt lat="44.3537437" lon="11.2661054"><ele>123.00000000000001</ele><time>2026-04-26T11:50:18.123Z</time></trkpt><trkpt lat="44.3538082" lon="11.2660714"><ele>122.71428571428572</ele><time>2026-04-26T11:50:19.12Z</time></trkpt><trkpt lat="44.3538741" lon="11.2660384"><ele>122.42857142857143</ele><time>2026-04-26T11:50:20.122Z</time></trkpt><trkpt lat="44.3539399" lon="11.2660057"><ele>122.14285714285714</ele><time>2026-04-26T11:50:21.121Z</time></trkpt><trkpt lat="44.3540055" lon="11.2659741"><ele>121.85714285714286</ele><time>2026-04-26T11:50:22.125Z</time></trkpt><trkpt lat="44.3540716" lon="11.2659402"><ele>121.57142857142856</ele><time>2026-04-26T11:50:23.127Z</time></trkpt><trkpt lat="44.354137" lon="11.2659072"><ele>121.28571428571428</ele><time>2026-04-26T11:50:24.12Z</time></trkpt><trkpt lat="44.3542032" lon="11.2658736"><ele>121.0</ele><time>2026-04-26T11:50:25.128Z</time></trkpt><trkpt lat="44.3542684" lon="11.2658412"><ele>121.0</ele><time>2026-04-26T11:50:26.133Z</time></trkpt><trkpt lat="44.3543335" lon="11.2658074"><ele>120.99999999999999</ele><time>2026-04-26T11:50:27.13Z</time></trkpt><trkpt lat="44.3543986" lon="11.2657745"><ele>121.0</ele><time>2026-04-26T11:50:28.126Z</time></trkpt><trkpt lat="44.3544643" lon="11.2657419"><ele>121.0</ele><time>2026-04-26T11:50:29.13Z</time></trkpt><trkpt lat="44.3545289" lon="11.2657077"><ele>120.99999999999999</ele><time>2026-04-26T11:50:30.122Z</time></trkpt><trkpt lat="44.3545931" lon="11.2656753"><ele>121.0</ele><time>2026-04-26T11:50:31.127Z</time></trkpt><trkpt lat="44.3546568" lon="11.2656428"><ele>121.0</ele><time>2026-04-26T11:50:32.129Z</time></trkpt><trkpt lat="44.35472" lon="11.2656101"><ele>120.28571428571428</ele><time>2026-04-26T11:50:33.129Z</time></trkpt><trkpt lat="44.3547833" lon="11.2655776"><ele>119.57142857142856</ele><time>2026-04-26T11:50:34.126Z</time></trkpt><trkpt lat="44.3548473" lon="11.2655456"><ele>118.85714285714286</ele><time>2026-04-26T11:50:35.129Z</time></trkpt><trkpt lat="44.3549107" lon="11.2655145"><ele>118.14285714285714</ele><time>2026-04-26T11:50:36.128Z</time></trkpt><trkpt lat="44.354974" lon="11.2654831"><ele>117.42857142857143</ele><time>2026-04-26T11:50:37.126Z</time></trkpt><trkpt lat="44.3550369" lon="11.2654521"><ele>116.71428571428572</ele><time>2026-04-26T11:50:38.125Z</time></trkpt><trkpt lat="44.3551" lon="11.26542"><ele>116.00000000000001</ele><time>2026-04-26T11:50:39.127Z</time></trkpt><trkpt lat="44.355163" lon="11.2653875"><ele>116.00000000000001</ele><time>2026-04-26T11:50:40.131Z</time></trkpt><trkpt lat="44.3552253" lon="11.265355"><ele>116.0</ele><time>2026-04-26T11:50:41.121Z</time></trkpt><trkpt lat="44.3552871" lon="11.2653224"><ele>116.00000000000001</ele><time>2026-04-26T11:50:42.13Z</time></trkpt><trkpt lat="44.35535" lon="11.2652898"><ele>116.00000000000001</ele><time>2026-04-26T11:50:43.114Z</time></trkpt><trkpt lat="44.355413" lon="11.2652587"><ele>116.0</ele><time>2026-04-26T11:50:44.125Z</time></trkpt><trkpt lat="44.355476" lon="11.265226"><ele>116.00000000000001</ele><time>2026-04-26T11:50:45.13Z</time></trkpt><trkpt lat="44.3555389" lon="11.2651932"><ele>116.00000000000001</ele><time>2026-04-26T11:50:46.125Z</time></trkpt><trkpt lat="44.3556023" lon="11.2651613"><ele>116.71428571428572</ele><time>2026-04-26T11:50:47.122Z</time></trkpt><trkpt lat="44.3556658" lon="11.2651274"><ele>117.42857142857143</ele><time>2026-04-26T11:50:48.128Z</time></trkpt><trkpt lat="44.3557297" lon="11.2650928"><ele>118.14285714285714</ele><time>2026-04-26T11:50:49.119Z</time></trkpt><trkpt lat="44.3557941" lon="11.2650601"><ele>118.85714285714286</ele><time>2026-04-26T11:50:50.117Z</time></trkpt><trkpt lat="44.3558596" lon="11.2650265"><ele>119.57142857142856</ele><time>2026-04-26T11:50:51.122Z</time></trkpt><trkpt lat="44.3559249" lon="11.2649943"><ele>120.28571428571428</ele><time>2026-04-26T11:50:52.126Z</time></trkpt><trkpt lat="44.3559897" lon="11.2649613"><ele>121.0</ele><time>2026-04-26T11:50:53.124Z</time></trkpt><trkpt lat="44.3560536" lon="11.2649279"><ele>121.0</ele><time>2026-04-26T11:50:54.134Z</time></trkpt><trkpt lat="44.3561177" lon="11.2648953"><ele>120.99999999999999</ele><time>2026-04-26T11:50:55.125Z</time></trkpt><trkpt lat="44.3561811" lon="11.2648616"><ele>121.0</ele><time>2026-04-26T11:50:56.125Z</time></trkpt><trkpt lat="44.3562447" lon="11.26483"><ele>121.0</ele><time>2026-04-26T11:50:57.129Z</time></trkpt><trkpt lat="44.3563081" lon="11.2647987"><ele>120.99999999999999</ele><time>2026-04-26T11:50:58.124Z</time></trkpt><trkpt lat="44.3563716" lon="11.2647664"><ele>121.0</ele><time>2026-04-26T11:50:59.124Z</time></trkpt><trkpt lat="44.3564354" lon="11.264734"><ele>121.0</ele><time>2026-04-26T11:51:00.133Z</time></trkpt><trkpt lat="44.356499" lon="11.2647009"><ele>120.57142857142857</ele><time>2026-04-26T11:51:01.13Z</time></trkpt><trkpt lat="44.3565625" lon="11.2646687"><ele>120.14285714285714</ele><time>2026-04-26T11:51:02.121Z</time></trkpt><trkpt lat="44.3566265" lon="11.2646379"><ele>119.71428571428571</ele><time>2026-04-26T11:51:03.126Z</time></trkpt><trkpt lat="44.3566897" lon="11.2646056"><ele>119.28571428571428</ele><time>2026-04-26T11:51:04.114Z</time></trkpt><trkpt lat="44.3567517" lon="11.2645714"><ele>118.85714285714286</ele><time>2026-04-26T11:51:05.132Z</time></trkpt><trkpt lat="44.3568135" lon="11.2645381"><ele>118.42857142857142</ele><time>2026-04-26T11:51:06.126Z</time></trkpt><trkpt lat="44.356876" lon="11.2645061"><ele>118.0</ele><time>2026-04-26T11:51:07.122Z</time></trkpt><trkpt lat="44.3569391" lon="11.2644735"><ele>118.0</ele><time>2026-04-26T11:51:08.131Z</time></trkpt><trkpt lat="44.3570024" lon="11.2644409"><ele>118.0</ele><time>2026-04-26T11:51:09.125Z</time></trkpt><trkpt lat="44.3570653" lon="11.2644094"><ele>118.0</ele><time>2026-04-26T11:51:10.131Z</time></trkpt><trkpt lat="44.3571279" lon="11.2643772"><ele>118.0</ele><time>2026-04-26T11:51:11.137Z</time></trkpt><trkpt lat="44.35719" lon="11.2643447"><ele>118.0</ele><time>2026-04-26T11:51:12.118Z</time></trkpt><trkpt lat="44.3572493" lon="11.2643135"><ele>118.0</ele><time>2026-04-26T11:51:13.129Z</time></trkpt><trkpt lat="44.35731" lon="11.2642822"><ele>118.0</ele><time>2026-04-26T11:51:14.13Z</time></trkpt><trkpt lat="44.35737" lon="11.2642514"><ele>119.14285714285714</ele><time>2026-04-26T11:51:15.136Z</time></trkpt><trkpt lat="44.3574303" lon="11.2642201"><ele>120.28571428571429</ele><time>2026-04-26T11:51:16.121Z</time></trkpt><trkpt lat="44.3574913" lon="11.2641899"><ele>121.42857142857143</ele><time>2026-04-26T11:51:17.123Z</time></trkpt><trkpt lat="44.3575521" lon="11.2641578"><ele>122.57142857142857</ele><time>2026-04-26T11:51:18.137Z</time></trkpt><trkpt lat="44.3576127" lon="11.2641261"><ele>123.71428571428572</ele><time>2026-04-26T11:51:19.132Z</time></trkpt><trkpt lat="44.3576735" lon="11.2640945"><ele>124.85714285714286</ele><time>2026-04-26T11:51:20.126Z</time></trkpt><trkpt lat="44.3577348" lon="11.2640638"><ele>126.0</ele><time>2026-04-26T11:51:21.134Z</time></trkpt><trkpt lat="44.3577955" lon="11.2640306"><ele>126.0</ele><time>2026-04-26T11:51:22.127Z</time></trkpt><trkpt lat="44.3578566" lon="11.2639975"><ele>126.0</ele><time>2026-04-26T11:51:23.12Z</time></trkpt><trkpt lat="44.3579184" lon="11.2639655"><ele>126.0</ele><time>2026-04-26T11:51:24.125Z</time></trkpt><trkpt lat="44.3579801" lon="11.2639337"><ele>126.0</ele><time>2026-04-26T11:51:25.127Z</time></trkpt><trkpt lat="44.3580421" lon="11.2639011"><ele>126.0</ele><time>2026-04-26T11:51:26.115Z</time></trkpt><trkpt lat="44.3581043" lon="11.2638679"><ele>126.0</ele><time>2026-04-26T11:51:27.139Z</time></trkpt><trkpt lat="44.3581661" lon="11.263834"><ele>126.0</ele><time>2026-04-26T11:51:28.124Z</time></trkpt><trkpt lat="44.3582272" lon="11.2637995"><ele>125.14285714285714</ele><time>2026-04-26T11:51:29.121Z</time></trkpt><trkpt lat="44.3582889" lon="11.2637657"><ele>124.28571428571428</ele><time>2026-04-26T11:51:30.123Z</time></trkpt><trkpt lat="44.3583513" lon="11.2637332"><ele>123.42857142857143</ele><time>2026-04-26T11:51:31.123Z</time></trkpt><trkpt lat="44.3584133" lon="11.2636995"><ele>122.57142857142857</ele><time>2026-04-26T11:51:32.119Z</time></trkpt><trkpt lat="44.3584751" lon="11.2636658"><ele>121.71428571428571</ele><time>2026-04-26T11:51:33.124Z</time></trkpt><trkpt lat="44.3585362" lon="11.2636324"><ele>120.85714285714286</ele><time>2026-04-26T11:51:34.132Z</time></trkpt><trkpt lat="44.3585978" lon="11.2636008"><ele>120.0</ele><time>2026-04-26T11:51:35.12Z</time></trkpt><trkpt lat="44.3586605" lon="11.2635725"><ele>120.0</ele><time>2026-04-26T11:51:36.122Z</time></trkpt><trkpt lat="44.3587227" lon="11.2635479"><ele>120.0</ele><time>2026-04-26T11:51:37.13Z</time></trkpt><trkpt lat="44.3587864" lon="11.2635299"><ele>120.0</ele><time>2026-04-26T11:51:38.13Z</time></trkpt><trkpt lat="44.3588504" lon="11.2635182"><ele>120.0</ele><time>2026-04-26T11:51:39.128Z</time></trkpt><trkpt lat="44.3589139" lon="11.2635073"><ele>120.0</ele><time>2026-04-26T11:51:40.132Z</time></trkpt><trkpt lat="44.3589771" lon="11.2634985"><ele>120.0</ele><time>2026-04-26T11:51:41.127Z</time></trkpt><trkpt lat="44.3591016" lon="11.2634913"><ele>120.0</ele><time>2026-04-26T11:51:43.122Z</time></trkpt><trkpt lat="44.359226" lon="11.2634889"><ele>120.16666666666667</ele><time>2026-04-26T11:51:45.124Z</time></trkpt><trkpt lat="44.3593499" lon="11.263486"><ele>120.33333333333334</ele><time>2026-04-26T11:51:47.139Z</time></trkpt><trkpt lat="44.3594745" lon="11.2634859"><ele>120.5</ele><time>2026-04-26T11:51:49.13Z</time></trkpt><trkpt lat="44.3595387" lon="11.2634886"><ele>120.66666666666667</ele><time>2026-04-26T11:51:50.12Z</time></trkpt><trkpt lat="44.3596031" lon="11.263495"><ele>120.83333333333334</ele><time>2026-04-26T11:51:51.13Z</time></trkpt><trkpt lat="44.3596666" lon="11.2635012"><ele>121.0</ele><time>2026-04-26T11:51:52.131Z</time></trkpt><trkpt lat="44.3597302" lon="11.2635063"><ele>120.66666666666667</ele><time>2026-04-26T11:51:53.126Z</time></trkpt><trkpt lat="44.3597956" lon="11.2635114"><ele>120.33333333333334</ele><time>2026-04-26T11:51:54.124Z</time></trkpt><trkpt lat="44.3598619" lon="11.2635187"><ele>120.0</ele><time>2026-04-26T11:51:55.121Z</time></trkpt><trkpt lat="44.359929" lon="11.2635243"><ele>119.66666666666666</ele><time>2026-04-26T11:51:56.119Z</time></trkpt><trkpt lat="44.3599933" lon="11.263528"><ele>119.33333333333333</ele><time>2026-04-26T11:51:57.129Z</time></trkpt><trkpt lat="44.3601178" lon="11.2635343"><ele>119.0</ele><time>2026-04-26T11:51:59.129Z</time></trkpt><trkpt lat="44.3601814" lon="11.2635368"><ele>119.0</ele><time>2026-04-26T11:52:00.122Z</time></trkpt><trkpt lat="44.3602444" lon="11.2635389"><ele>119.0</ele><time>2026-04-26T11:52:01.119Z</time></trkpt><trkpt lat="44.3603084" lon="11.2635433"><ele>119.0</ele><time>2026-04-26T11:52:02.129Z</time></trkpt><trkpt lat="44.3604335" lon="11.2635502"><ele>119.0</ele><time>2026-04-26T11:52:04.129Z</time></trkpt><trkpt lat="44.3605006" lon="11.2635552"><ele>119.0</ele><time>2026-04-26T11:52:05.117Z</time></trkpt><trkpt lat="44.3605651" lon="11.2635618"><ele>119.0</ele><time>2026-04-26T11:52:06.12Z</time></trkpt><trkpt lat="44.3606299" lon="11.2635702"><ele>119.0</ele><time>2026-04-26T11:52:07.116Z</time></trkpt><trkpt lat="44.3606965" lon="11.2635785"><ele>118.85714285714286</ele><time>2026-04-26T11:52:08.119Z</time></trkpt><trkpt lat="44.3607634" lon="11.2635861"><ele>118.71428571428572</ele><time>2026-04-26T11:52:09.13Z</time></trkpt><trkpt lat="44.3608307" lon="11.2635914"><ele>118.57142857142857</ele><time>2026-04-26T11:52:10.129Z</time></trkpt><trkpt lat="44.3608969" lon="11.2635943"><ele>118.42857142857143</ele><time>2026-04-26T11:52:11.123Z</time></trkpt><trkpt lat="44.3609607" lon="11.2635923"><ele>118.28571428571429</ele><time>2026-04-26T11:52:12.126Z</time></trkpt><trkpt lat="44.3610248" lon="11.2635877"><ele>118.14285714285714</ele><time>2026-04-26T11:52:13.128Z</time></trkpt><trkpt lat="44.361089" lon="11.2635788"><ele>118.0</ele><time>2026-04-26T11:52:14.129Z</time></trkpt><trkpt lat="44.3611546" lon="11.2635701"><ele>118.0</ele><time>2026-04-26T11:52:15.134Z</time></trkpt><trkpt lat="44.3612193" lon="11.26355"><ele>118.0</ele><time>2026-04-26T11:52:16.131Z</time></trkpt><trkpt lat="44.3612838" lon="11.2635265"><ele>118.0</ele><time>2026-04-26T11:52:17.124Z</time></trkpt><trkpt lat="44.3613451" lon="11.2634957"><ele>118.0</ele><time>2026-04-26T11:52:18.115Z</time></trkpt><trkpt lat="44.3614072" lon="11.2634587"><ele>118.0</ele><time>2026-04-26T11:52:19.12Z</time></trkpt><trkpt lat="44.361468" lon="11.2634184"><ele>118.0</ele><time>2026-04-26T11:52:20.128Z</time></trkpt><trkpt lat="44.3615278" lon="11.2633766"><ele>118.0</ele><time>2026-04-26T11:52:21.122Z</time></trkpt><trkpt lat="44.3615858" lon="11.2633301"><ele>118.28571428571428</ele><time>2026-04-26T11:52:22.125Z</time></trkpt><trkpt lat="44.3616448" lon="11.263282"><ele>118.57142857142858</ele><time>2026-04-26T11:52:23.123Z</time></trkpt><trkpt lat="44.361704" lon="11.2632362"><ele>118.85714285714286</ele><time>2026-04-26T11:52:24.12Z</time></trkpt><trkpt lat="44.3617626" lon="11.2631914"><ele>119.14285714285714</ele><time>2026-04-26T11:52:25.123Z</time></trkpt><trkpt lat="44.361823" lon="11.2631511"><ele>119.42857142857142</ele><time>2026-04-26T11:52:26.132Z</time></trkpt><trkpt lat="44.3618851" lon="11.2631149"><ele>119.71428571428572</ele><time>2026-04-26T11:52:27.121Z</time></trkpt><trkpt lat="44.3619453" lon="11.2630799"><ele>120.0</ele><time>2026-04-26T11:52:28.129Z</time></trkpt><trkpt lat="44.3620071" lon="11.2630486"><ele>119.57142857142858</ele><time>2026-04-26T11:52:29.128Z</time></trkpt><trkpt lat="44.3620695" lon="11.2630195"><ele>119.14285714285714</ele><time>2026-04-26T11:52:30.128Z</time></trkpt><trkpt lat="44.3621337" lon="11.262992"><ele>118.71428571428572</ele><time>2026-04-26T11:52:31.13Z</time></trkpt><trkpt lat="44.3621986" lon="11.262966"><ele>118.28571428571429</ele><time>2026-04-26T11:52:32.111Z</time></trkpt><trkpt lat="44.3622624" lon="11.2629407"><ele>117.85714285714286</ele><time>2026-04-26T11:52:33.127Z</time></trkpt><trkpt lat="44.3623287" lon="11.2629213"><ele>117.42857142857143</ele><time>2026-04-26T11:52:34.124Z</time></trkpt><trkpt lat="44.3623945" lon="11.2629055"><ele>117.0</ele><time>2026-04-26T11:52:35.13Z</time></trkpt><trkpt lat="44.3624594" lon="11.2628917"><ele>117.0</ele><time>2026-04-26T11:52:36.124Z</time></trkpt><trkpt lat="44.3625263" lon="11.262876"><ele>117.00000000000001</ele><time>2026-04-26T11:52:37.125Z</time></trkpt><trkpt lat="44.3625928" lon="11.2628587"><ele>117.0</ele><time>2026-04-26T11:52:38.127Z</time></trkpt><trkpt lat="44.362658" lon="11.2628425"><ele>117.0</ele><time>2026-04-26T11:52:39.125Z</time></trkpt><trkpt lat="44.3627275" lon="11.2628211"><ele>117.00000000000001</ele><time>2026-04-26T11:52:40.122Z</time></trkpt><trkpt lat="44.362797" lon="11.2628024"><ele>117.0</ele><time>2026-04-26T11:52:41.133Z</time></trkpt><trkpt lat="44.3628676" lon="11.2627863"><ele>117.0</ele><time>2026-04-26T11:52:42.126Z</time></trkpt><trkpt lat="44.3629373" lon="11.2627648"><ele>117.0</ele><time>2026-04-26T11:52:43.122Z</time></trkpt><trkpt lat="44.3630056" lon="11.262743"><ele>117.00000000000001</ele><time>2026-04-26T11:52:44.114Z</time></trkpt><trkpt lat="44.3630738" lon="11.2627196"><ele>117.0</ele><time>2026-04-26T11:52:45.129Z</time></trkpt><trkpt lat="44.3631473" lon="11.2626976"><ele>117.0</ele><time>2026-04-26T11:52:46.126Z</time></trkpt><trkpt lat="44.3632211" lon="11.2626769"><ele>117.00000000000001</ele><time>2026-04-26T11:52:47.134Z</time></trkpt><trkpt lat="44.3632959" lon="11.2626583"><ele>117.0</ele><time>2026-04-26T11:52:48.128Z</time></trkpt><trkpt lat="44.3633689" lon="11.2626386"><ele>117.0</ele><time>2026-04-26T11:52:49.128Z</time></trkpt><trkpt lat="44.3634435" lon="11.2626181"><ele>117.42857142857143</ele><time>2026-04-26T11:52:50.13Z</time></trkpt><trkpt lat="44.3635172" lon="11.2625976"><ele>117.85714285714286</ele><time>2026-04-26T11:52:51.128Z</time></trkpt><trkpt lat="44.3635889" lon="11.2625738"><ele>118.28571428571429</ele><time>2026-04-26T11:52:52.124Z</time></trkpt><trkpt lat="44.3636606" lon="11.2625498"><ele>118.71428571428572</ele><time>2026-04-26T11:52:53.128Z</time></trkpt><trkpt lat="44.3637314" lon="11.2625233"><ele>119.14285714285714</ele><time>2026-04-26T11:52:54.127Z</time></trkpt><trkpt lat="44.3638018" lon="11.2624875"><ele>119.57142857142858</ele><time>2026-04-26T11:52:55.118Z</time></trkpt><trkpt lat="44.3638686" lon="11.2624422"><ele>120.0</ele><time>2026-04-26T11:52:56.128Z</time></trkpt><trkpt lat="44.363932" lon="11.262389"><ele>119.16666666666667</ele><time>2026-04-26T11:52:57.123Z</time></trkpt><trkpt lat="44.3639937" lon="11.2623316"><ele>118.33333333333334</ele><time>2026-04-26T11:52:58.123Z</time></trkpt><trkpt lat="44.3640553" lon="11.2622701"><ele>117.5</ele><time>2026-04-26T11:52:59.122Z</time></trkpt><trkpt lat="44.3641133" lon="11.2622043"><ele>116.66666666666667</ele><time>2026-04-26T11:53:00.125Z</time></trkpt><trkpt lat="44.3641707" lon="11.2621362"><ele>115.83333333333334</ele><time>2026-04-26T11:53:01.123Z</time></trkpt><trkpt lat="44.364228" lon="11.2620675"><ele>115.0</ele><time>2026-04-26T11:53:02.123Z</time></trkpt><trkpt lat="44.3642892" lon="11.2620007"><ele>115.00000000000001</ele><time>2026-04-26T11:53:03.139Z</time></trkpt><trkpt lat="44.364354" lon="11.2619399"><ele>115.0</ele><time>2026-04-26T11:53:04.125Z</time></trkpt><trkpt lat="44.3644199" lon="11.2618847"><ele>115.0</ele><time>2026-04-26T11:53:05.121Z</time></trkpt><trkpt lat="44.3644867" lon="11.2618338"><ele>115.0</ele><time>2026-04-26T11:53:06.131Z</time></trkpt><trkpt lat="44.3645545" lon="11.2617874"><ele>115.00000000000001</ele><time>2026-04-26T11:53:07.131Z</time></trkpt><trkpt lat="44.3646225" lon="11.2617408"><ele>115.0</ele><time>2026-04-26T11:53:08.13Z</time></trkpt><trkpt lat="44.3646905" lon="11.2616961"><ele>115.16666666666667</ele><time>2026-04-26T11:53:09.127Z</time></trkpt><trkpt lat="44.3647579" lon="11.2616513"><ele>115.33333333333334</ele><time>2026-04-26T11:53:10.122Z</time></trkpt><trkpt lat="44.3648266" lon="11.261607"><ele>115.5</ele><time>2026-04-26T11:53:11.121Z</time></trkpt><trkpt lat="44.3648967" lon="11.2615692"><ele>115.66666666666666</ele><time>2026-04-26T11:53:12.131Z</time></trkpt><trkpt lat="44.3649659" lon="11.2615294"><ele>115.83333333333333</ele><time>2026-04-26T11:53:13.125Z</time></trkpt><trkpt lat="44.3650353" lon="11.2614883"><ele>116.0</ele><time>2026-04-26T11:53:14.128Z</time></trkpt><trkpt lat="44.3651032" lon="11.2614459"><ele>116.00000000000001</ele><time>2026-04-26T11:53:15.129Z</time></trkpt><trkpt lat="44.3651699" lon="11.2614021"><ele>116.0</ele><time>2026-04-26T11:53:16.13Z</time></trkpt><trkpt lat="44.365234" lon="11.2613542"><ele>116.00000000000001</ele><time>2026-04-26T11:53:17.138Z</time></trkpt><trkpt lat="44.3652955" lon="11.2613029"><ele>116.00000000000001</ele><time>2026-04-26T11:53:18.12Z</time></trkpt><trkpt lat="44.365355" lon="11.261252"><ele>116.0</ele><time>2026-04-26T11:53:19.124Z</time></trkpt><trkpt lat="44.365413" lon="11.2611995"><ele>116.00000000000001</ele><time>2026-04-26T11:53:20.128Z</time></trkpt><trkpt lat="44.3654704" lon="11.2611454"><ele>116.00000000000001</ele><time>2026-04-26T11:53:21.134Z</time></trkpt><trkpt lat="44.3655276" lon="11.2610908"><ele>115.85714285714288</ele><time>2026-04-26T11:53:22.128Z</time></trkpt><trkpt lat="44.3655842" lon="11.2610362"><ele>115.71428571428572</ele><time>2026-04-26T11:53:23.123Z</time></trkpt><trkpt lat="44.3656388" lon="11.2609789"><ele>115.57142857142857</ele><time>2026-04-26T11:53:24.126Z</time></trkpt><trkpt lat="44.3656911" lon="11.2609194"><ele>115.42857142857143</ele><time>2026-04-26T11:53:25.124Z</time></trkpt><trkpt lat="44.3657404" lon="11.2608573"><ele>115.28571428571428</ele><time>2026-04-26T11:53:26.123Z</time></trkpt><trkpt lat="44.3657868" lon="11.260793"><ele>115.14285714285712</ele><time>2026-04-26T11:53:27.128Z</time></trkpt><trkpt lat="44.3658317" lon="11.2607297"><ele>114.99999999999999</ele><time>2026-04-26T11:53:28.129Z</time></trkpt><trkpt lat="44.3659165" lon="11.2606027"><ele>114.0</ele><time>2026-04-26T11:53:30.128Z</time></trkpt><trkpt lat="44.3659943" lon="11.2604755"><ele>113.0</ele><time>2026-04-26T11:53:32.125Z</time></trkpt><trkpt lat="44.3660686" lon="11.2603523"><ele>112.0</ele><time>2026-04-26T11:53:34.125Z</time></trkpt><trkpt lat="44.3661392" lon="11.2602309"><ele>111.0</ele><time>2026-04-26T11:53:36.136Z</time></trkpt><trkpt lat="44.3661964" lon="11.2601028"><ele>111.0</ele><time>2026-04-26T11:53:38.123Z</time></trkpt><trkpt lat="44.3662447" lon="11.2599751"><ele>111.0</ele><time>2026-04-26T11:53:40.128Z</time></trkpt><trkpt lat="44.3663046" lon="11.2598659"><ele>111.0</ele><time>2026-04-26T11:53:42.131Z</time></trkpt><trkpt lat="44.366391" lon="11.2598169"><ele>111.0</ele><time>2026-04-26T11:53:44.119Z</time></trkpt><trkpt lat="44.3664861" lon="11.2598389"><ele>111.0</ele><time>2026-04-26T11:53:46.126Z</time></trkpt><trkpt lat="44.3665772" lon="11.2599008"><ele>111.6</ele><time>2026-04-26T11:53:48.125Z</time></trkpt><trkpt lat="44.3666638" lon="11.2599777"><ele>112.19999999999999</ele><time>2026-04-26T11:53:50.128Z</time></trkpt><trkpt lat="44.3667493" lon="11.2600582"><ele>112.80000000000001</ele><time>2026-04-26T11:53:52.121Z</time></trkpt><trkpt lat="44.3668405" lon="11.2601252"><ele>113.4</ele><time>2026-04-26T11:53:54.12Z</time></trkpt><trkpt lat="44.3669354" lon="11.2601749"><ele>114.0</ele><time>2026-04-26T11:53:56.123Z</time></trkpt><trkpt lat="44.3670337" lon="11.260205"><ele>114.0</ele><time>2026-04-26T11:53:58.12Z</time></trkpt><trkpt lat="44.3671332" lon="11.2602258"><ele>114.0</ele><time>2026-04-26T11:54:00.122Z</time></trkpt><trkpt lat="44.3672356" lon="11.2602291"><ele>114.0</ele><time>2026-04-26T11:54:02.126Z</time></trkpt><trkpt lat="44.3673388" lon="11.2602085"><ele>114.0</ele><time>2026-04-26T11:54:04.13Z</time></trkpt><trkpt lat="44.3674389" lon="11.2601711"><ele>114.0</ele><time>2026-04-26T11:54:06.129Z</time></trkpt><trkpt lat="44.3675387" lon="11.2601165"><ele>115.0</ele><time>2026-04-26T11:54:08.121Z</time></trkpt><trkpt lat="44.3676397" lon="11.2600547"><ele>116.0</ele><time>2026-04-26T11:54:10.146Z</time></trkpt><trkpt lat="44.3677392" lon="11.2599943"><ele>117.0</ele><time>2026-04-26T11:54:12.129Z</time></trkpt><trkpt lat="44.3678399" lon="11.25994"><ele>118.0</ele><time>2026-04-26T11:54:14.125Z</time></trkpt><trkpt lat="44.3679377" lon="11.2598813"><ele>119.0</ele><time>2026-04-26T11:54:16.122Z</time></trkpt><trkpt lat="44.368035" lon="11.2598223"><ele>118.4</ele><time>2026-04-26T11:54:18.129Z</time></trkpt><trkpt lat="44.3681334" lon="11.2597697"><ele>117.80000000000001</ele><time>2026-04-26T11:54:20.119Z</time></trkpt><trkpt lat="44.3682326" lon="11.2597217"><ele>117.19999999999999</ele><time>2026-04-26T11:54:22.119Z</time></trkpt><trkpt lat="44.368334" lon="11.2596841"><ele>116.6</ele><time>2026-04-26T11:54:24.12Z</time></trkpt><trkpt lat="44.3684366" lon="11.2596531"><ele>116.0</ele><time>2026-04-26T11:54:26.119Z</time></trkpt><trkpt lat="44.3685369" lon="11.2596194"><ele>116.0</ele><time>2026-04-26T11:54:28.12Z</time></trkpt><trkpt lat="44.368632" lon="11.2595811"><ele>116.0</ele><time>2026-04-26T11:54:30.133Z</time></trkpt><trkpt lat="44.3687257" lon="11.2595464"><ele>116.0</ele><time>2026-04-26T11:54:32.12Z</time></trkpt><trkpt lat="44.3688188" lon="11.2595095"><ele>116.0</ele><time>2026-04-26T11:54:34.119Z</time></trkpt><trkpt lat="44.3689062" lon="11.2594584"><ele>116.0</ele><time>2026-04-26T11:54:36.117Z</time></trkpt><trkpt lat="44.3689892" lon="11.2594168"><ele>116.83333333333333</ele><time>2026-04-26T11:54:38.129Z</time></trkpt><trkpt lat="44.3690654" lon="11.259438"><ele>117.66666666666666</ele><time>2026-04-26T11:54:40.121Z</time></trkpt><trkpt lat="44.3691164" lon="11.2594918"><ele>118.5</ele><time>2026-04-26T11:54:42.136Z</time></trkpt><trkpt lat="44.3691679" lon="11.2595826"><ele>119.33333333333334</ele><time>2026-04-26T11:54:45.132Z</time></trkpt><trkpt lat="44.3692162" lon="11.2596711"><ele>120.16666666666667</ele><time>2026-04-26T11:54:48.125Z</time></trkpt><trkpt lat="44.369266" lon="11.2597561"><ele>121.0</ele><time>2026-04-26T11:54:51.115Z</time></trkpt><trkpt lat="44.3693113" lon="11.259854"><ele>121.00000000000001</ele><time>2026-04-26T11:54:54.124Z</time></trkpt><trkpt lat="44.3693503" lon="11.2599566"><ele>121.0</ele><time>2026-04-26T11:54:57.131Z</time></trkpt><trkpt lat="44.3693894" lon="11.2600584"><ele>121.0</ele><time>2026-04-26T11:55:00.12Z</time></trkpt><trkpt lat="44.3694236" lon="11.2601673"><ele>121.0</ele><time>2026-04-26T11:55:03.123Z</time></trkpt><trkpt lat="44.3694545" lon="11.2602635"><ele>121.00000000000001</ele><time>2026-04-26T11:55:06.123Z</time></trkpt><trkpt lat="44.3694911" lon="11.2603616"><ele>121.0</ele><time>2026-04-26T11:55:09.121Z</time></trkpt><trkpt lat="44.3695438" lon="11.260446"><ele>121.00000000000001</ele><time>2026-04-26T11:55:12.126Z</time></trkpt><trkpt lat="44.3696147" lon="11.2604762"><ele>121.0</ele><time>2026-04-26T11:55:15.125Z</time></trkpt><trkpt lat="44.3696897" lon="11.2604378"><ele>121.0</ele><time>2026-04-26T11:55:18.118Z</time></trkpt><trkpt lat="44.3697334" lon="11.2603487"><ele>121.0</ele><time>2026-04-26T11:55:21.128Z</time></trkpt><trkpt lat="44.3697423" lon="11.2602414"><ele>121.00000000000001</ele><time>2026-04-26T11:55:24.129Z</time></trkpt><trkpt lat="44.3697335" lon="11.2601277"><ele>121.0</ele><time>2026-04-26T11:55:27.127Z</time></trkpt><trkpt lat="44.369725" lon="11.2600108"><ele>123.00000000000001</ele><time>2026-04-26T11:55:30.135Z</time></trkpt><trkpt lat="44.36972" lon="11.2599105"><ele>125.0</ele><time>2026-04-26T11:55:33.126Z</time></trkpt><trkpt lat="44.3697207" lon="11.2598015"><ele>127.0</ele><time>2026-04-26T11:55:36.126Z</time></trkpt><trkpt lat="44.3697272" lon="11.2596839"><ele>129.0</ele><time>2026-04-26T11:55:39.124Z</time></trkpt><trkpt lat="44.3697371" lon="11.2595756"><ele>131.0</ele><time>2026-04-26T11:55:42.135Z</time></trkpt><trkpt lat="44.3697517" lon="11.2594745"><ele>133.0</ele><time>2026-04-26T11:55:45.123Z</time></trkpt><trkpt lat="44.3697825" lon="11.2593796"><ele>133.0</ele><time>2026-04-26T11:55:48.118Z</time></trkpt><trkpt lat="44.3698218" lon="11.2592823"><ele>133.0</ele><time>2026-04-26T11:55:51.126Z</time></trkpt><trkpt lat="44.3698654" lon="11.2591904"><ele>133.0</ele><time>2026-04-26T11:55:54.131Z</time></trkpt><trkpt lat="44.3699166" lon="11.2591033"><ele>133.0</ele><time>2026-04-26T11:55:57.133Z</time></trkpt><trkpt lat="44.3699721" lon="11.2590233"><ele>133.0</ele><time>2026-04-26T11:56:00.121Z</time></trkpt><trkpt lat="44.3700293" lon="11.2589455"><ele>133.0</ele><time>2026-04-26T11:56:03.13Z</time></trkpt><trkpt lat="44.3700869" lon="11.2588682"><ele>132.57142857142858</ele><time>2026-04-26T11:56:06.121Z</time></trkpt><trkpt lat="44.3701475" lon="11.2587989"><ele>132.14285714285714</ele><time>2026-04-26T11:56:09.131Z</time></trkpt><trkpt lat="44.3702028" lon="11.2587282"><ele>131.71428571428572</ele><time>2026-04-26T11:56:12.124Z</time></trkpt><trkpt lat="44.3702568" lon="11.2586568"><ele>131.28571428571428</ele><time>2026-04-26T11:56:15.141Z</time></trkpt><trkpt lat="44.3703137" lon="11.2585831"><ele>130.85714285714286</ele><time>2026-04-26T11:56:18.125Z</time></trkpt><trkpt lat="44.3703633" lon="11.2585148"><ele>130.42857142857144</ele><time>2026-04-26T11:56:21.124Z</time></trkpt><trkpt lat="44.3704201" lon="11.2584475"><ele>130.0</ele><time>2026-04-26T11:56:24.123Z</time></trkpt><trkpt lat="44.370476" lon="11.2583722"><ele>132.14285714285717</ele><time>2026-04-26T11:56:27.124Z</time></trkpt><trkpt lat="44.3705359" lon="11.2583092"><ele>134.28571428571428</ele><time>2026-04-26T11:56:30.136Z</time></trkpt><trkpt lat="44.3705994" lon="11.2582528"><ele>136.42857142857144</ele><time>2026-04-26T11:56:33.128Z</time></trkpt><trkpt lat="44.3706699" lon="11.2582217"><ele>138.57142857142858</ele><time>2026-04-26T11:56:36.128Z</time></trkpt><trkpt lat="44.3707432" lon="11.2582164"><ele>140.71428571428572</ele><time>2026-04-26T11:56:39.125Z</time></trkpt><trkpt lat="44.3708127" lon="11.2582472"><ele>142.85714285714286</ele><time>2026-04-26T11:56:42.117Z</time></trkpt><trkpt lat="44.3708734" lon="11.258313"><ele>145.0</ele><time>2026-04-26T11:56:45.126Z</time></trkpt><trkpt lat="44.3709257" lon="11.2583947"><ele>145.0</ele><time>2026-04-26T11:56:48.128Z</time></trkpt><trkpt lat="44.3709779" lon="11.2584745"><ele>145.0</ele><time>2026-04-26T11:56:51.132Z</time></trkpt><trkpt lat="44.371035" lon="11.258545"><ele>145.0</ele><time>2026-04-26T11:56:54.124Z</time></trkpt><trkpt lat="44.3711017" lon="11.2586031"><ele>145.0</ele><time>2026-04-26T11:56:57.129Z</time></trkpt><trkpt lat="44.3711762" lon="11.2586387"><ele>145.0</ele><time>2026-04-26T11:57:00.125Z</time></trkpt><trkpt lat="44.3712544" lon="11.2586431"><ele>145.0</ele><time>2026-04-26T11:57:03.124Z</time></trkpt><trkpt lat="44.3713299" lon="11.2586107"><ele>146.83333333333334</ele><time>2026-04-26T11:57:06.129Z</time></trkpt><trkpt lat="44.3713973" lon="11.2585495"><ele>148.66666666666669</ele><time>2026-04-26T11:57:09.123Z</time></trkpt><trkpt lat="44.3714566" lon="11.2584858"><ele>150.5</ele><time>2026-04-26T11:57:12.122Z</time></trkpt><trkpt lat="44.3715104" lon="11.2584247"><ele>152.33333333333334</ele><time>2026-04-26T11:57:15.123Z</time></trkpt><trkpt lat="44.3715626" lon="11.2583529"><ele>154.16666666666666</ele><time>2026-04-26T11:57:18.115Z</time></trkpt><trkpt lat="44.3716171" lon="11.2582664"><ele>156.0</ele><time>2026-04-26T11:57:21.122Z</time></trkpt><trkpt lat="44.3716692" lon="11.2581747"><ele>154.83333333333334</ele><time>2026-04-26T11:57:24.126Z</time></trkpt><trkpt lat="44.3717206" lon="11.2580808"><ele>153.66666666666666</ele><time>2026-04-26T11:57:27.121Z</time></trkpt><trkpt lat="44.3717725" lon="11.2579855"><ele>152.5</ele><time>2026-04-26T11:57:30.13Z</time></trkpt><trkpt lat="44.3718313" lon="11.2578932"><ele>151.33333333333331</ele><time>2026-04-26T11:57:33.118Z</time></trkpt><trkpt lat="44.3718946" lon="11.2578004"><ele>150.16666666666666</ele><time>2026-04-26T11:57:36.126Z</time></trkpt><trkpt lat="44.3719568" lon="11.2577112"><ele>149.0</ele><time>2026-04-26T11:57:39.116Z</time></trkpt><trkpt lat="44.3720196" lon="11.2576343"><ele>149.0</ele><time>2026-04-26T11:57:42.127Z</time></trkpt><trkpt lat="44.3720802" lon="11.2575551"><ele>149.0</ele><time>2026-04-26T11:57:45.126Z</time></trkpt><trkpt lat="44.3721446" lon="11.2574746"><ele>149.0</ele><time>2026-04-26T11:57:48.13Z</time></trkpt><trkpt lat="44.3722083" lon="11.2573932"><ele>149.0</ele><time>2026-04-26T11:57:51.123Z</time></trkpt><trkpt lat="44.3722696" lon="11.2573073"><ele>149.0</ele><time>2026-04-26T11:57:54.129Z</time></trkpt><trkpt lat="44.3723369" lon="11.2572289"><ele>149.0</ele><time>2026-04-26T11:57:57.128Z</time></trkpt><trkpt lat="44.3724025" lon="11.2571444"><ele>150.4</ele><time>2026-04-26T11:58:00.125Z</time></trkpt><trkpt lat="44.3724691" lon="11.2570621"><ele>151.8</ele><time>2026-04-26T11:58:03.13Z</time></trkpt><trkpt lat="44.3725361" lon="11.2569788"><ele>153.2</ele><time>2026-04-26T11:58:06.123Z</time></trkpt><trkpt lat="44.3726022" lon="11.2568953"><ele>154.6</ele><time>2026-04-26T11:58:09.117Z</time></trkpt><trkpt lat="44.3726664" lon="11.256806"><ele>156.0</ele><time>2026-04-26T11:58:12.128Z</time></trkpt><trkpt lat="44.3727356" lon="11.2567219"><ele>156.0</ele><time>2026-04-26T11:58:15.129Z</time></trkpt><trkpt lat="44.3728049" lon="11.2566331"><ele>156.0</ele><time>2026-04-26T11:58:18.12Z</time></trkpt><trkpt lat="44.3728501" lon="11.2565718"><ele>156.0</ele><time>2026-04-26T11:58:20.131Z</time></trkpt><trkpt lat="44.3729167" lon="11.2564824"><ele>156.0</ele><time>2026-04-26T11:58:23.127Z</time></trkpt><trkpt lat="44.3729891" lon="11.2564006"><ele>156.0</ele><time>2026-04-26T11:58:26.124Z</time></trkpt><trkpt lat="44.3730577" lon="11.256314"><ele>156.0</ele><time>2026-04-26T11:58:29.132Z</time></trkpt><trkpt lat="44.3731259" lon="11.2562279"><ele>157.0</ele><time>2026-04-26T11:58:32.118Z</time></trkpt><trkpt lat="44.3731944" lon="11.2561406"><ele>158.0</ele><time>2026-04-26T11:58:35.118Z</time></trkpt><trkpt lat="44.3732615" lon="11.2560564"><ele>159.0</ele><time>2026-04-26T11:58:38.12Z</time></trkpt><trkpt lat="44.3733301" lon="11.2559761"><ele>160.0</ele><time>2026-04-26T11:58:41.118Z</time></trkpt><trkpt lat="44.3734025" lon="11.2558964"><ele>161.0</ele><time>2026-04-26T11:58:44.116Z</time></trkpt><trkpt lat="44.3734782" lon="11.2558235"><ele>161.0</ele><time>2026-04-26T11:58:47.121Z</time></trkpt><trkpt lat="44.3735334" lon="11.2557796"><ele>161.0</ele><time>2026-04-26T11:58:49.126Z</time></trkpt><trkpt lat="44.373593" lon="11.2557404"><ele>161.0</ele><time>2026-04-26T11:58:51.114Z</time></trkpt><trkpt lat="44.3736543" lon="11.2557068"><ele>161.0</ele><time>2026-04-26T11:58:53.117Z</time></trkpt><trkpt lat="44.3737148" lon="11.2556745"><ele>161.0</ele><time>2026-04-26T11:58:55.129Z</time></trkpt><trkpt lat="44.3737773" lon="11.2556404"><ele>161.0</ele><time>2026-04-26T11:58:57.12Z</time></trkpt><trkpt lat="44.3738397" lon="11.2556052"><ele>161.0</ele><time>2026-04-26T11:58:59.121Z</time></trkpt><trkpt lat="44.3739029" lon="11.2555682"><ele>161.0</ele><time>2026-04-26T11:59:01.13Z</time></trkpt><trkpt lat="44.3739668" lon="11.2555282"><ele>161.0</ele><time>2026-04-26T11:59:03.129Z</time></trkpt><trkpt lat="44.3740255" lon="11.2554787"><ele>161.0</ele><time>2026-04-26T11:59:05.125Z</time></trkpt><trkpt lat="44.3740824" lon="11.2554285"><ele>161.0</ele><time>2026-04-26T11:59:07.119Z</time></trkpt><trkpt lat="44.3741361" lon="11.255379"><ele>161.0</ele><time>2026-04-26T11:59:09.133Z</time></trkpt><trkpt lat="44.3741893" lon="11.2553312"><ele>161.0</ele><time>2026-04-26T11:59:11.114Z</time></trkpt><trkpt lat="44.3742699" lon="11.2552649"><ele>161.0</ele><time>2026-04-26T11:59:14.123Z</time></trkpt><trkpt lat="44.3743261" lon="11.2552252"><ele>161.0</ele><time>2026-04-26T11:59:16.123Z</time></trkpt><trkpt lat="44.3743867" lon="11.2552009"><ele>161.0</ele><time>2026-04-26T11:59:18.118Z</time></trkpt><trkpt lat="44.3744789" lon="11.2551802"><ele>161.0</ele><time>2026-04-26T11:59:21.123Z</time></trkpt><trkpt lat="44.3745727" lon="11.2551813"><ele>161.0</ele><time>2026-04-26T11:59:24.134Z</time></trkpt><trkpt lat="44.3746638" lon="11.255185"><ele>161.0</ele><time>2026-04-26T11:59:27.127Z</time></trkpt><trkpt lat="44.3747582" lon="11.2551704"><ele>161.0</ele><time>2026-04-26T11:59:30.126Z</time></trkpt><trkpt lat="44.3748201" lon="11.2551482"><ele>162.28571428571428</ele><time>2026-04-26T11:59:32.121Z</time></trkpt><trkpt lat="44.3748785" lon="11.2551077"><ele>163.57142857142856</ele><time>2026-04-26T11:59:34.122Z</time></trkpt><trkpt lat="44.3749345" lon="11.2550603"><ele>164.85714285714286</ele><time>2026-04-26T11:59:36.126Z</time></trkpt><trkpt lat="44.3749891" lon="11.2550072"><ele>166.14285714285714</ele><time>2026-04-26T11:59:38.113Z</time></trkpt><trkpt lat="44.3750417" lon="11.254954"><ele>167.42857142857142</ele><time>2026-04-26T11:59:40.122Z</time></trkpt><trkpt lat="44.3750966" lon="11.2549034"><ele>168.71428571428572</ele><time>2026-04-26T11:59:42.112Z</time></trkpt><trkpt lat="44.3751564" lon="11.254861"><ele>170.0</ele><time>2026-04-26T11:59:44.121Z</time></trkpt><trkpt lat="44.375217" lon="11.2548277"><ele>170.0</ele><time>2026-04-26T11:59:46.13Z</time></trkpt><trkpt lat="44.3752766" lon="11.254797"><ele>170.0</ele><time>2026-04-26T11:59:48.121Z</time></trkpt><trkpt lat="44.3753658" lon="11.2547663"><ele>170.0</ele><time>2026-04-26T11:59:51.129Z</time></trkpt><trkpt lat="44.375452" lon="11.2547701"><ele>170.0</ele><time>2026-04-26T11:59:54.123Z</time></trkpt><trkpt lat="44.3754528" lon="11.2548716"><ele>170.0</ele><time>2026-04-26T11:59:57.12Z</time></trkpt><trkpt lat="44.3753846" lon="11.2549268"><ele>170.0</ele><time>2026-04-26T12:00:00.121Z</time></trkpt><trkpt lat="44.3753013" lon="11.2549717"><ele>170.0</ele><time>2026-04-26T12:00:03.13Z</time></trkpt><trkpt lat="44.3752223" lon="11.2550302"><ele>170.0</ele><time>2026-04-26T12:00:06.128Z</time></trkpt><trkpt lat="44.3751528" lon="11.2550982"><ele>170.0</ele><time>2026-04-26T12:00:09.115Z</time></trkpt><trkpt lat="44.3750903" lon="11.2551742"><ele>170.0</ele><time>2026-04-26T12:00:12.115Z</time></trkpt><trkpt lat="44.3750339" lon="11.2552528"><ele>170.0</ele><time>2026-04-26T12:00:15.131Z</time></trkpt><trkpt lat="44.3749802" lon="11.2553443"><ele>170.0</ele><time>2026-04-26T12:00:18.124Z</time></trkpt><trkpt lat="44.3749366" lon="11.2554375"><ele>170.0</ele><time>2026-04-26T12:00:21.128Z</time></trkpt><trkpt lat="44.3749076" lon="11.2555348"><ele>170.0</ele><time>2026-04-26T12:00:24.124Z</time></trkpt><trkpt lat="44.3748988" lon="11.255641"><ele>170.0</ele><time>2026-04-26T12:00:27.132Z</time></trkpt><trkpt lat="44.3748966" lon="11.2557495"><ele>170.0</ele><time>2026-04-26T12:00:30.125Z</time></trkpt><trkpt lat="44.3748996" lon="11.2558574"><ele>170.0</ele><time>2026-04-26T12:00:33.122Z</time></trkpt><trkpt lat="44.3749019" lon="11.2559709"><ele>170.0</ele><time>2026-04-26T12:00:36.112Z</time></trkpt><trkpt lat="44.3748982" lon="11.2560856"><ele>171.66666666666666</ele><time>2026-04-26T12:00:39.118Z</time></trkpt><trkpt lat="44.3748762" lon="11.2561973"><ele>173.33333333333331</ele><time>2026-04-26T12:00:42.122Z</time></trkpt><trkpt lat="44.3748433" lon="11.2563018"><ele>175.0</ele><time>2026-04-26T12:00:45.114Z</time></trkpt><trkpt lat="44.3747967" lon="11.2563945"><ele>176.66666666666666</ele><time>2026-04-26T12:00:48.119Z</time></trkpt><trkpt lat="44.3747428" lon="11.2564694"><ele>178.33333333333334</ele><time>2026-04-26T12:00:51.126Z</time></trkpt><trkpt lat="44.3746958" lon="11.2565461"><ele>180.0</ele><time>2026-04-26T12:00:54.129Z</time></trkpt><trkpt lat="44.3746708" lon="11.256638"><ele>181.7142857142857</ele><time>2026-04-26T12:00:57.127Z</time></trkpt><trkpt lat="44.3747002" lon="11.2567301"><ele>183.42857142857144</ele><time>2026-04-26T12:01:00.125Z</time></trkpt><trkpt lat="44.3747655" lon="11.2567462"><ele>185.14285714285714</ele><time>2026-04-26T12:01:03.133Z</time></trkpt><trkpt lat="44.374838" lon="11.2567179"><ele>186.85714285714283</ele><time>2026-04-26T12:01:06.126Z</time></trkpt><trkpt lat="44.3749048" lon="11.2566758"><ele>188.57142857142856</ele><time>2026-04-26T12:01:09.125Z</time></trkpt><trkpt lat="44.3749617" lon="11.2566186"><ele>190.28571428571428</ele><time>2026-04-26T12:01:12.125Z</time></trkpt><trkpt lat="44.3750138" lon="11.2565546"><ele>192.0</ele><time>2026-04-26T12:01:15.125Z</time></trkpt><trkpt lat="44.3750619" lon="11.2564879"><ele>191.99999999999997</ele><time>2026-04-26T12:01:18.13Z</time></trkpt><trkpt lat="44.3751121" lon="11.25642"><ele>192.0</ele><time>2026-04-26T12:01:21.122Z</time></trkpt><trkpt lat="44.3751632" lon="11.2563604"><ele>192.0</ele><time>2026-04-26T12:01:24.128Z</time></trkpt><trkpt lat="44.3752275" lon="11.2563331"><ele>192.0</ele><time>2026-04-26T12:01:27.125Z</time></trkpt><trkpt lat="44.3752793" lon="11.2564117"><ele>192.0</ele><time>2026-04-26T12:01:31.119Z</time></trkpt><trkpt lat="44.3752554" lon="11.2564977"><ele>191.99999999999997</ele><time>2026-04-26T12:01:34.128Z</time></trkpt><trkpt lat="44.3752132" lon="11.2565721"><ele>192.0</ele><time>2026-04-26T12:01:37.124Z</time></trkpt><trkpt lat="44.3751675" lon="11.2566471"><ele>191.99999999999997</ele><time>2026-04-26T12:01:40.121Z</time></trkpt><trkpt lat="44.3751212" lon="11.25672"><ele>192.0</ele><time>2026-04-26T12:01:43.126Z</time></trkpt><trkpt lat="44.3750849" lon="11.256803"><ele>192.0</ele><time>2026-04-26T12:01:46.128Z</time></trkpt><trkpt lat="44.3750572" lon="11.2568981"><ele>192.0</ele><time>2026-04-26T12:01:49.122Z</time></trkpt><trkpt lat="44.37503" lon="11.2569927"><ele>192.0</ele><time>2026-04-26T12:01:52.117Z</time></trkpt><trkpt lat="44.3750123" lon="11.2570905"><ele>191.99999999999997</ele><time>2026-04-26T12:01:55.127Z</time></trkpt><trkpt lat="44.3749972" lon="11.25719"><ele>192.0</ele><time>2026-04-26T12:01:58.126Z</time></trkpt><trkpt lat="44.3749836" lon="11.25729"><ele>193.5</ele><time>2026-04-26T12:02:01.126Z</time></trkpt><trkpt lat="44.3749703" lon="11.2573897"><ele>195.0</ele><time>2026-04-26T12:02:04.127Z</time></trkpt><trkpt lat="44.3749546" lon="11.2574914"><ele>196.5</ele><time>2026-04-26T12:02:07.127Z</time></trkpt><trkpt lat="44.3749314" lon="11.2575936"><ele>198.0</ele><time>2026-04-26T12:02:10.115Z</time></trkpt><trkpt lat="44.3749055" lon="11.2576931"><ele>199.5</ele><time>2026-04-26T12:02:13.129Z</time></trkpt><trkpt lat="44.374871" lon="11.2577919"><ele>201.0</ele><time>2026-04-26T12:02:16.118Z</time></trkpt><trkpt lat="44.374839" lon="11.2578893"><ele>201.0</ele><time>2026-04-26T12:02:19.121Z</time></trkpt><trkpt lat="44.3748063" lon="11.2579848"><ele>201.0</ele><time>2026-04-26T12:02:22.119Z</time></trkpt><trkpt lat="44.3747703" lon="11.2580813"><ele>201.0</ele><time>2026-04-26T12:02:25.127Z</time></trkpt><trkpt lat="44.3747343" lon="11.2581792"><ele>201.0</ele><time>2026-04-26T12:02:28.133Z</time></trkpt><trkpt lat="44.3746979" lon="11.2582764"><ele>201.0</ele><time>2026-04-26T12:02:31.116Z</time></trkpt><trkpt lat="44.3746592" lon="11.2583722"><ele>201.0</ele><time>2026-04-26T12:02:34.116Z</time></trkpt><trkpt lat="44.3746098" lon="11.2584581"><ele>200.0</ele><time>2026-04-26T12:02:37.126Z</time></trkpt><trkpt lat="44.3745515" lon="11.258525"><ele>199.0</ele><time>2026-04-26T12:02:40.123Z</time></trkpt><trkpt lat="44.3744942" lon="11.2585918"><ele>198.0</ele><time>2026-04-26T12:02:43.124Z</time></trkpt><trkpt lat="44.374442" lon="11.2586645"><ele>197.0</ele><time>2026-04-26T12:02:46.128Z</time></trkpt><trkpt lat="44.3744358" lon="11.2587622"><ele>196.0</ele><time>2026-04-26T12:02:49.121Z</time></trkpt><trkpt lat="44.3744921" lon="11.2588205"><ele>195.0</ele><time>2026-04-26T12:02:52.122Z</time></trkpt><trkpt lat="44.3745672" lon="11.2588261"><ele>194.0</ele><time>2026-04-26T12:02:55.128Z</time></trkpt><trkpt lat="44.3746392" lon="11.2588208"><ele>195.85714285714286</ele><time>2026-04-26T12:02:58.13Z</time></trkpt><trkpt lat="44.3747096" lon="11.2588039"><ele>197.71428571428572</ele><time>2026-04-26T12:03:01.12Z</time></trkpt><trkpt lat="44.3747776" lon="11.2587864"><ele>199.57142857142858</ele><time>2026-04-26T12:03:04.127Z</time></trkpt><trkpt lat="44.3748458" lon="11.2587662"><ele>201.42857142857144</ele><time>2026-04-26T12:03:07.116Z</time></trkpt><trkpt lat="44.374912" lon="11.258745"><ele>203.28571428571428</ele><time>2026-04-26T12:03:10.116Z</time></trkpt><trkpt lat="44.3749768" lon="11.2587265"><ele>205.14285714285717</ele><time>2026-04-26T12:03:13.124Z</time></trkpt><trkpt lat="44.3750418" lon="11.2587048"><ele>207.0</ele><time>2026-04-26T12:03:16.122Z</time></trkpt><trkpt lat="44.3751063" lon="11.2586855"><ele>207.00000000000003</ele><time>2026-04-26T12:03:19.117Z</time></trkpt><trkpt lat="44.3751702" lon="11.2586654"><ele>207.0</ele><time>2026-04-26T12:03:22.117Z</time></trkpt><trkpt lat="44.375235" lon="11.2586459"><ele>207.0</ele><time>2026-04-26T12:03:25.128Z</time></trkpt><trkpt lat="44.3752989" lon="11.2586246"><ele>207.0</ele><time>2026-04-26T12:03:28.144Z</time></trkpt><trkpt lat="44.3753653" lon="11.2586151"><ele>207.0</ele><time>2026-04-26T12:03:31.121Z</time></trkpt><trkpt lat="44.3754332" lon="11.2586609"><ele>207.00000000000003</ele><time>2026-04-26T12:03:35.12Z</time></trkpt><trkpt lat="44.3754121" lon="11.2587595"><ele>207.0</ele><time>2026-04-26T12:03:39.128Z</time></trkpt><trkpt lat="44.3753682" lon="11.2588302"><ele>207.00000000000003</ele><time>2026-04-26T12:03:42.108Z</time></trkpt><trkpt lat="44.3753166" lon="11.258885"><ele>207.0</ele><time>2026-04-26T12:03:45.133Z</time></trkpt><trkpt lat="44.3752479" lon="11.2589478"><ele>207.0</ele><time>2026-04-26T12:03:49.124Z</time></trkpt><trkpt lat="44.3751821" lon="11.2590091"><ele>207.0</ele><time>2026-04-26T12:03:53.12Z</time></trkpt><trkpt lat="44.3751201" lon="11.2590686"><ele>207.0</ele><time>2026-04-26T12:03:57.129Z</time></trkpt><trkpt lat="44.375066" lon="11.2591384"><ele>207.00000000000003</ele><time>2026-04-26T12:04:01.128Z</time></trkpt><trkpt lat="44.37502" lon="11.2592111"><ele>207.0</ele><time>2026-04-26T12:04:04.125Z</time></trkpt><trkpt lat="44.3749798" lon="11.2593104"><ele>209.14285714285717</ele><time>2026-04-26T12:04:08.128Z</time></trkpt><trkpt lat="44.3749673" lon="11.2593996"><ele>211.28571428571428</ele><time>2026-04-26T12:04:11.128Z</time></trkpt><trkpt lat="44.3749667" lon="11.2594932"><ele>213.42857142857144</ele><time>2026-04-26T12:04:14.127Z</time></trkpt><trkpt lat="44.374966" lon="11.259586"><ele>215.57142857142858</ele><time>2026-04-26T12:04:17.122Z</time></trkpt><trkpt lat="44.3749708" lon="11.2596786"><ele>217.71428571428572</ele><time>2026-04-26T12:04:20.116Z</time></trkpt><trkpt lat="44.3749843" lon="11.2597693"><ele>219.85714285714286</ele><time>2026-04-26T12:04:23.121Z</time></trkpt><trkpt lat="44.3749965" lon="11.2598625"><ele>222.0</ele><time>2026-04-26T12:04:26.128Z</time></trkpt><trkpt lat="44.3750039" lon="11.259958"><ele>223.66666666666666</ele><time>2026-04-26T12:04:29.128Z</time></trkpt><trkpt lat="44.3750045" lon="11.2600571"><ele>225.33333333333331</ele><time>2026-04-26T12:04:32.124Z</time></trkpt><trkpt lat="44.3749946" lon="11.2601607"><ele>227.0</ele><time>2026-04-26T12:04:35.122Z</time></trkpt><trkpt lat="44.3749641" lon="11.2602645"><ele>228.66666666666666</ele><time>2026-04-26T12:04:38.128Z</time></trkpt><trkpt lat="44.3749244" lon="11.2603595"><ele>230.33333333333331</ele><time>2026-04-26T12:04:41.123Z</time></trkpt><trkpt lat="44.374871" lon="11.2604402"><ele>232.0</ele><time>2026-04-26T12:04:44.131Z</time></trkpt><trkpt lat="44.3748108" lon="11.2605181"><ele>231.99999999999997</ele><time>2026-04-26T12:04:47.125Z</time></trkpt><trkpt lat="44.3747466" lon="11.2605941"><ele>232.0</ele><time>2026-04-26T12:04:50.119Z</time></trkpt><trkpt lat="44.3746842" lon="11.260671"><ele>232.0</ele><time>2026-04-26T12:04:53.133Z</time></trkpt><trkpt lat="44.3746188" lon="11.2607495"><ele>232.0</ele><time>2026-04-26T12:04:56.117Z</time></trkpt><trkpt lat="44.3745544" lon="11.2608309"><ele>231.99999999999997</ele><time>2026-04-26T12:04:59.123Z</time></trkpt><trkpt lat="44.3744843" lon="11.2609107"><ele>232.0</ele><time>2026-04-26T12:05:02.115Z</time></trkpt><trkpt lat="44.3744346" lon="11.2609676"><ele>231.8571428571429</ele><time>2026-04-26T12:05:04.13Z</time></trkpt><trkpt lat="44.3743902" lon="11.2610382"><ele>231.71428571428572</ele><time>2026-04-26T12:05:06.126Z</time></trkpt><trkpt lat="44.3743461" lon="11.2611086"><ele>231.57142857142858</ele><time>2026-04-26T12:05:08.125Z</time></trkpt><trkpt lat="44.3742991" lon="11.2611858"><ele>231.42857142857144</ele><time>2026-04-26T12:05:10.121Z</time></trkpt><trkpt lat="44.3742506" lon="11.2612611"><ele>231.28571428571428</ele><time>2026-04-26T12:05:12.126Z</time></trkpt><trkpt lat="44.3742041" lon="11.2613373"><ele>231.14285714285714</ele><time>2026-04-26T12:05:14.124Z</time></trkpt><trkpt lat="44.3741611" lon="11.261418"><ele>231.0</ele><time>2026-04-26T12:05:16.129Z</time></trkpt><trkpt lat="44.3741153" lon="11.2615012"><ele>229.16666666666666</ele><time>2026-04-26T12:05:18.132Z</time></trkpt><trkpt lat="44.3740682" lon="11.2615888"><ele>227.33333333333331</ele><time>2026-04-26T12:05:20.125Z</time></trkpt><trkpt lat="44.3740182" lon="11.2616746"><ele>225.5</ele><time>2026-04-26T12:05:22.127Z</time></trkpt><trkpt lat="44.3739648" lon="11.2617559"><ele>223.66666666666666</ele><time>2026-04-26T12:05:24.116Z</time></trkpt><trkpt lat="44.373904" lon="11.2618259"><ele>221.83333333333331</ele><time>2026-04-26T12:05:26.128Z</time></trkpt><trkpt lat="44.3738481" lon="11.2618956"><ele>220.0</ele><time>2026-04-26T12:05:28.118Z</time></trkpt><trkpt lat="44.3737912" lon="11.2619643"><ele>219.99999999999997</ele><time>2026-04-26T12:05:30.116Z</time></trkpt><trkpt lat="44.3737392" lon="11.2620428"><ele>220.0</ele><time>2026-04-26T12:05:32.123Z</time></trkpt><trkpt lat="44.3737011" lon="11.2621372"><ele>220.0</ele><time>2026-04-26T12:05:34.122Z</time></trkpt><trkpt lat="44.3736887" lon="11.2622472"><ele>220.0</ele><time>2026-04-26T12:05:36.118Z</time></trkpt><trkpt lat="44.3736936" lon="11.2623657"><ele>219.99999999999997</ele><time>2026-04-26T12:05:38.121Z</time></trkpt><trkpt lat="44.3737116" lon="11.2624864"><ele>220.0</ele><time>2026-04-26T12:05:40.12Z</time></trkpt><trkpt lat="44.3737299" lon="11.262604"><ele>220.83333333333331</ele><time>2026-04-26T12:05:42.13Z</time></trkpt><trkpt lat="44.3737547" lon="11.2627165"><ele>221.66666666666666</ele><time>2026-04-26T12:05:44.125Z</time></trkpt><trkpt lat="44.373788" lon="11.2628233"><ele>222.5</ele><time>2026-04-26T12:05:46.128Z</time></trkpt><trkpt lat="44.3738235" lon="11.2629313"><ele>223.33333333333331</ele><time>2026-04-26T12:05:48.127Z</time></trkpt><trkpt lat="44.373856" lon="11.2630414"><ele>224.16666666666666</ele><time>2026-04-26T12:05:50.129Z</time></trkpt><trkpt lat="44.373891" lon="11.2631489"><ele>225.0</ele><time>2026-04-26T12:05:52.104Z</time></trkpt><trkpt lat="44.3739293" lon="11.2632528"><ele>228.5</ele><time>2026-04-26T12:05:54.12Z</time></trkpt><trkpt lat="44.37397" lon="11.2633567"><ele>232.0</ele><time>2026-04-26T12:05:56.128Z</time></trkpt><trkpt lat="44.3740052" lon="11.2634418"><ele>235.5</ele><time>2026-04-26T12:05:58.126Z</time></trkpt><trkpt lat="44.374036" lon="11.2635281"><ele>239.0</ele><time>2026-04-26T12:06:00.125Z</time></trkpt><trkpt lat="44.3740787" lon="11.2636415"><ele>242.5</ele><time>2026-04-26T12:06:02.128Z</time></trkpt><trkpt lat="44.3741126" lon="11.2637381"><ele>246.0</ele><time>2026-04-26T12:06:04.127Z</time></trkpt><trkpt lat="44.3741501" lon="11.2638334"><ele>246.0</ele><time>2026-04-26T12:06:06.121Z</time></trkpt><trkpt lat="44.3741939" lon="11.2639276"><ele>246.0</ele><time>2026-04-26T12:06:08.118Z</time></trkpt><trkpt lat="44.3742374" lon="11.2640197"><ele>246.0</ele><time>2026-04-26T12:06:10.123Z</time></trkpt><trkpt lat="44.3742884" lon="11.2641199"><ele>246.0</ele><time>2026-04-26T12:06:12.11Z</time></trkpt><trkpt lat="44.3743364" lon="11.264215"><ele>246.0</ele><time>2026-04-26T12:06:14.119Z</time></trkpt><trkpt lat="44.3743851" lon="11.2643194"><ele>246.0</ele><time>2026-04-26T12:06:16.13Z</time></trkpt><trkpt lat="44.374426" lon="11.264433"><ele>244.20000000000002</ele><time>2026-04-26T12:06:18.119Z</time></trkpt><trkpt lat="44.3744589" lon="11.2645554"><ele>242.40000000000003</ele><time>2026-04-26T12:06:20.126Z</time></trkpt><trkpt lat="44.3744844" lon="11.2646781"><ele>240.6</ele><time>2026-04-26T12:06:22.118Z</time></trkpt><trkpt lat="44.3745079" lon="11.2648037"><ele>238.8</ele><time>2026-04-26T12:06:24.133Z</time></trkpt><trkpt lat="44.3745322" lon="11.2649283"><ele>237.0</ele><time>2026-04-26T12:06:26.127Z</time></trkpt><trkpt lat="44.3745542" lon="11.2650535"><ele>236.2</ele><time>2026-04-26T12:06:28.126Z</time></trkpt><trkpt lat="44.3745731" lon="11.2651791"><ele>235.39999999999998</ele><time>2026-04-26T12:06:30.12Z</time></trkpt><trkpt lat="44.3745879" lon="11.2653096"><ele>234.60000000000002</ele><time>2026-04-26T12:06:32.118Z</time></trkpt><trkpt lat="44.3745961" lon="11.2654382"><ele>233.8</ele><time>2026-04-26T12:06:34.136Z</time></trkpt><trkpt lat="44.3745967" lon="11.2655641"><ele>233.0</ele><time>2026-04-26T12:06:36.13Z</time></trkpt><trkpt lat="44.3745937" lon="11.2656839"><ele>233.0</ele><time>2026-04-26T12:06:38.118Z</time></trkpt><trkpt lat="44.3745825" lon="11.2658182"><ele>233.0</ele><time>2026-04-26T12:06:40.136Z</time></trkpt><trkpt lat="44.3745637" lon="11.2659544"><ele>233.0</ele><time>2026-04-26T12:06:42.125Z</time></trkpt><trkpt lat="44.3745375" lon="11.2660816"><ele>233.0</ele><time>2026-04-26T12:06:44.122Z</time></trkpt><trkpt lat="44.3745134" lon="11.2662055"><ele>233.0</ele><time>2026-04-26T12:06:46.117Z</time></trkpt><trkpt lat="44.374487" lon="11.2663282"><ele>233.4</ele><time>2026-04-26T12:06:48.124Z</time></trkpt><trkpt lat="44.374461" lon="11.266454"><ele>233.8</ele><time>2026-04-26T12:06:50.137Z</time></trkpt><trkpt lat="44.3744369" lon="11.2665838"><ele>234.2</ele><time>2026-04-26T12:06:52.125Z</time></trkpt><trkpt lat="44.3744097" lon="11.2667125"><ele>234.6</ele><time>2026-04-26T12:06:54.124Z</time></trkpt><trkpt lat="44.3743816" lon="11.2668395"><ele>235.0</ele><time>2026-04-26T12:06:56.121Z</time></trkpt><trkpt lat="44.3743467" lon="11.2669629"><ele>235.0</ele><time>2026-04-26T12:06:58.127Z</time></trkpt><trkpt lat="44.3743072" lon="11.2670888"><ele>235.0</ele><time>2026-04-26T12:07:00.126Z</time></trkpt><trkpt lat="44.3742691" lon="11.2672159"><ele>235.0</ele><time>2026-04-26T12:07:02.126Z</time></trkpt><trkpt lat="44.3742324" lon="11.267355"><ele>235.0</ele><time>2026-04-26T12:07:04.118Z</time></trkpt><trkpt lat="44.3742018" lon="11.2675147"><ele>235.0</ele><time>2026-04-26T12:07:06.124Z</time></trkpt><trkpt lat="44.3741764" lon="11.2676639"><ele>236.66666666666666</ele><time>2026-04-26T12:07:08.107Z</time></trkpt><trkpt lat="44.3741523" lon="11.2678351"><ele>238.33333333333331</ele><time>2026-04-26T12:07:10.124Z</time></trkpt><trkpt lat="44.3741367" lon="11.2679237"><ele>240.0</ele><time>2026-04-26T12:07:11.116Z</time></trkpt><trkpt lat="44.3741232" lon="11.268017"><ele>241.66666666666669</ele><time>2026-04-26T12:07:12.12Z</time></trkpt><trkpt lat="44.3741105" lon="11.2681147"><ele>243.33333333333334</ele><time>2026-04-26T12:07:13.123Z</time></trkpt><trkpt lat="44.3740956" lon="11.2682113"><ele>245.0</ele><time>2026-04-26T12:07:14.122Z</time></trkpt><trkpt lat="44.3740739" lon="11.2683108"><ele>246.28571428571428</ele><time>2026-04-26T12:07:15.125Z</time></trkpt><trkpt lat="44.3740427" lon="11.2684064"><ele>247.57142857142856</ele><time>2026-04-26T12:07:16.123Z</time></trkpt><trkpt lat="44.3740041" lon="11.2684986"><ele>248.85714285714286</ele><time>2026-04-26T12:07:17.131Z</time></trkpt><trkpt lat="44.373962" lon="11.2685861"><ele>250.14285714285714</ele><time>2026-04-26T12:07:18.127Z</time></trkpt><trkpt lat="44.3739192" lon="11.2686728"><ele>251.42857142857142</ele><time>2026-04-26T12:07:19.12Z</time></trkpt><trkpt lat="44.3738729" lon="11.2687533"><ele>252.71428571428572</ele><time>2026-04-26T12:07:20.116Z</time></trkpt><trkpt lat="44.3738266" lon="11.2688304"><ele>254.0</ele><time>2026-04-26T12:07:21.131Z</time></trkpt><trkpt lat="44.3737789" lon="11.2689066"><ele>250.85714285714286</ele><time>2026-04-26T12:07:22.123Z</time></trkpt><trkpt lat="44.3737246" lon="11.2689739"><ele>247.71428571428572</ele><time>2026-04-26T12:07:23.133Z</time></trkpt><trkpt lat="44.3736693" lon="11.2690375"><ele>244.57142857142858</ele><time>2026-04-26T12:07:24.115Z</time></trkpt><trkpt lat="44.3736148" lon="11.2691025"><ele>241.42857142857144</ele><time>2026-04-26T12:07:25.131Z</time></trkpt><trkpt lat="44.3735598" lon="11.2691678"><ele>238.28571428571428</ele><time>2026-04-26T12:07:26.132Z</time></trkpt><trkpt lat="44.3735072" lon="11.2692427"><ele>235.14285714285717</ele><time>2026-04-26T12:07:27.123Z</time></trkpt><trkpt lat="44.3734567" lon="11.2693244"><ele>232.00000000000003</ele><time>2026-04-26T12:07:28.123Z</time></trkpt><trkpt lat="44.3734108" lon="11.2694116"><ele>231.99999999999997</ele><time>2026-04-26T12:07:29.123Z</time></trkpt><trkpt lat="44.3733688" lon="11.2694981"><ele>232.0</ele><time>2026-04-26T12:07:30.129Z</time></trkpt><trkpt lat="44.3733239" lon="11.2695864"><ele>232.0</ele><time>2026-04-26T12:07:31.12Z</time></trkpt><trkpt lat="44.3732794" lon="11.2696787"><ele>232.0</ele><time>2026-04-26T12:07:32.111Z</time></trkpt><trkpt lat="44.3732358" lon="11.2697736"><ele>231.99999999999997</ele><time>2026-04-26T12:07:33.122Z</time></trkpt><trkpt lat="44.3731893" lon="11.2698712"><ele>232.0</ele><time>2026-04-26T12:07:34.119Z</time></trkpt><trkpt lat="44.3731393" lon="11.2699704"><ele>230.66666666666666</ele><time>2026-04-26T12:07:35.12Z</time></trkpt><trkpt lat="44.3730847" lon="11.2700664"><ele>229.33333333333331</ele><time>2026-04-26T12:07:36.111Z</time></trkpt><trkpt lat="44.3730369" lon="11.2701627"><ele>228.0</ele><time>2026-04-26T12:07:37.125Z</time></trkpt><trkpt lat="44.3729731" lon="11.2702452"><ele>226.66666666666669</ele><time>2026-04-26T12:07:38.116Z</time></trkpt><trkpt lat="44.3729073" lon="11.2703143"><ele>225.33333333333334</ele><time>2026-04-26T12:07:39.119Z</time></trkpt><trkpt lat="44.3728397" lon="11.2703836"><ele>224.0</ele><time>2026-04-26T12:07:40.123Z</time></trkpt><trkpt lat="44.3727694" lon="11.2704509"><ele>224.00000000000003</ele><time>2026-04-26T12:07:41.132Z</time></trkpt><trkpt lat="44.372699" lon="11.2705219"><ele>224.0</ele><time>2026-04-26T12:07:42.134Z</time></trkpt><trkpt lat="44.3726299" lon="11.270599"><ele>224.0</ele><time>2026-04-26T12:07:43.115Z</time></trkpt><trkpt lat="44.3725609" lon="11.2706764"><ele>224.0</ele><time>2026-04-26T12:07:44.133Z</time></trkpt><trkpt lat="44.3724888" lon="11.270755"><ele>224.00000000000003</ele><time>2026-04-26T12:07:45.125Z</time></trkpt><trkpt lat="44.3724267" lon="11.2708434"><ele>224.0</ele><time>2026-04-26T12:07:46.116Z</time></trkpt><trkpt lat="44.3723652" lon="11.2709364"><ele>224.16666666666669</ele><time>2026-04-26T12:07:47.127Z</time></trkpt><trkpt lat="44.3723061" lon="11.27103"><ele>224.33333333333334</ele><time>2026-04-26T12:07:48.125Z</time></trkpt><trkpt lat="44.3722488" lon="11.2711195"><ele>224.5</ele><time>2026-04-26T12:07:49.12Z</time></trkpt><trkpt lat="44.3721975" lon="11.2712097"><ele>224.66666666666669</ele><time>2026-04-26T12:07:50.12Z</time></trkpt><trkpt lat="44.372147" lon="11.2713053"><ele>224.83333333333334</ele><time>2026-04-26T12:07:51.119Z</time></trkpt><trkpt lat="44.3721016" lon="11.2713988"><ele>225.0</ele><time>2026-04-26T12:07:52.13Z</time></trkpt><trkpt lat="44.3720603" lon="11.2714911"><ele>225.83333333333334</ele><time>2026-04-26T12:07:53.126Z</time></trkpt><trkpt lat="44.3720213" lon="11.2715831"><ele>226.66666666666669</ele><time>2026-04-26T12:07:54.118Z</time></trkpt><trkpt lat="44.3719875" lon="11.2716774"><ele>227.5</ele><time>2026-04-26T12:07:55.119Z</time></trkpt><trkpt lat="44.3719599" lon="11.2717664"><ele>228.33333333333334</ele><time>2026-04-26T12:07:56.127Z</time></trkpt><trkpt lat="44.3719315" lon="11.2718531"><ele>229.16666666666669</ele><time>2026-04-26T12:07:57.125Z</time></trkpt><trkpt lat="44.3719055" lon="11.271936"><ele>230.0</ele><time>2026-04-26T12:07:58.129Z</time></trkpt><trkpt lat="44.3718569" lon="11.2720931"><ele>230.0</ele><time>2026-04-26T12:08:00.119Z</time></trkpt><trkpt lat="44.3718168" lon="11.2722398"><ele>230.0</ele><time>2026-04-26T12:08:02.124Z</time></trkpt><trkpt lat="44.3717792" lon="11.2723833"><ele>230.0</ele><time>2026-04-26T12:08:04.119Z</time></trkpt><trkpt lat="44.3717418" lon="11.2725161"><ele>230.0</ele><time>2026-04-26T12:08:06.132Z</time></trkpt><trkpt lat="44.3717063" lon="11.2726504"><ele>230.0</ele><time>2026-04-26T12:08:08.123Z</time></trkpt><trkpt lat="44.3716736" lon="11.2727821"><ele>232.2</ele><time>2026-04-26T12:08:10.123Z</time></trkpt><trkpt lat="44.3716443" lon="11.2729147"><ele>234.4</ele><time>2026-04-26T12:08:12.12Z</time></trkpt><trkpt lat="44.3716262" lon="11.273052"><ele>236.60000000000002</ele><time>2026-04-26T12:08:14.123Z</time></trkpt><trkpt lat="44.3716186" lon="11.2731893"><ele>238.8</ele><time>2026-04-26T12:08:16.115Z</time></trkpt><trkpt lat="44.3716145" lon="11.2733309"><ele>241.0</ele><time>2026-04-26T12:08:18.127Z</time></trkpt><trkpt lat="44.3716159" lon="11.2734799"><ele>243.20000000000002</ele><time>2026-04-26T12:08:20.126Z</time></trkpt><trkpt lat="44.3716051" lon="11.2736273"><ele>245.40000000000003</ele><time>2026-04-26T12:08:22.127Z</time></trkpt><trkpt lat="44.3715904" lon="11.2737683"><ele>247.6</ele><time>2026-04-26T12:08:24.124Z</time></trkpt><trkpt lat="44.3715423" lon="11.2738858"><ele>249.8</ele><time>2026-04-26T12:08:26.118Z</time></trkpt><trkpt lat="44.3714729" lon="11.2739536"><ele>252.0</ele><time>2026-04-26T12:08:28.122Z</time></trkpt><trkpt lat="44.3713859" lon="11.2740012"><ele>255.33333333333334</ele><time>2026-04-26T12:08:30.117Z</time></trkpt><trkpt lat="44.3713059" lon="11.2740474"><ele>258.6666666666667</ele><time>2026-04-26T12:08:32.116Z</time></trkpt><trkpt lat="44.3712222" lon="11.2740911"><ele>262.0</ele><time>2026-04-26T12:08:34.123Z</time></trkpt><trkpt lat="44.3711549" lon="11.2741175"><ele>265.33333333333337</ele><time>2026-04-26T12:08:36.122Z</time></trkpt><trkpt lat="44.3710817" lon="11.2741097"><ele>268.6666666666667</ele><time>2026-04-26T12:08:39.134Z</time></trkpt><trkpt lat="44.3710088" lon="11.2740766"><ele>272.0</ele><time>2026-04-26T12:08:43.122Z</time></trkpt><trkpt lat="44.3709538" lon="11.2740102"><ele>267.5</ele><time>2026-04-26T12:08:46.119Z</time></trkpt><trkpt lat="44.3709006" lon="11.2739274"><ele>263.0</ele><time>2026-04-26T12:08:49.122Z</time></trkpt><trkpt lat="44.3708429" lon="11.2738417"><ele>258.5</ele><time>2026-04-26T12:08:52.118Z</time></trkpt><trkpt lat="44.370782" lon="11.2737474"><ele>254.0</ele><time>2026-04-26T12:08:55.121Z</time></trkpt><trkpt lat="44.3707213" lon="11.2736569"><ele>249.50000000000003</ele><time>2026-04-26T12:08:58.126Z</time></trkpt><trkpt lat="44.3706593" lon="11.2735631"><ele>245.0</ele><time>2026-04-26T12:09:01.122Z</time></trkpt><trkpt lat="44.370599" lon="11.2734696"><ele>245.00000000000003</ele><time>2026-04-26T12:09:04.124Z</time></trkpt><trkpt lat="44.3705441" lon="11.27338"><ele>245.0</ele><time>2026-04-26T12:09:07.121Z</time></trkpt><trkpt lat="44.3705006" lon="11.2733016"><ele>245.0</ele><time>2026-04-26T12:09:10.124Z</time></trkpt><trkpt lat="44.3704556" lon="11.273211"><ele>245.0</ele><time>2026-04-26T12:09:14.13Z</time></trkpt><trkpt lat="44.3704217" lon="11.2731131"><ele>245.00000000000003</ele><time>2026-04-26T12:09:17.128Z</time></trkpt><trkpt lat="44.3703867" lon="11.2729913"><ele>245.0</ele><time>2026-04-26T12:09:20.121Z</time></trkpt><trkpt lat="44.370368" lon="11.2728789"><ele>248.00000000000003</ele><time>2026-04-26T12:09:22.117Z</time></trkpt><trkpt lat="44.3703351" lon="11.2727918"><ele>251.0</ele><time>2026-04-26T12:09:24.126Z</time></trkpt><trkpt lat="44.3703136" lon="11.2726931"><ele>254.0</ele><time>2026-04-26T12:09:26.115Z</time></trkpt><trkpt lat="44.3702834" lon="11.2726027"><ele>257.0</ele><time>2026-04-26T12:09:28.13Z</time></trkpt><trkpt lat="44.3702219" lon="11.2725122"><ele>260.0</ele><time>2026-04-26T12:09:31.127Z</time></trkpt><trkpt lat="44.3701593" lon="11.2724437"><ele>263.0</ele><time>2026-04-26T12:09:34.117Z</time></trkpt><trkpt lat="44.3700982" lon="11.2723913"><ele>263.0</ele><time>2026-04-26T12:09:37.129Z</time></trkpt><trkpt lat="44.3700422" lon="11.2723504"><ele>263.0</ele><time>2026-04-26T12:09:39.119Z</time></trkpt><trkpt lat="44.3699739" lon="11.2723015"><ele>263.0</ele><time>2026-04-26T12:09:41.114Z</time></trkpt><trkpt lat="44.3699129" lon="11.2722632"><ele>263.0</ele><time>2026-04-26T12:09:43.125Z</time></trkpt><trkpt lat="44.3698434" lon="11.2722197"><ele>263.0</ele><time>2026-04-26T12:09:45.125Z</time></trkpt><trkpt lat="44.3697667" lon="11.2721887"><ele>263.0</ele><time>2026-04-26T12:09:47.124Z</time></trkpt><trkpt lat="44.3696905" lon="11.2721472"><ele>263.0</ele><time>2026-04-26T12:09:49.14Z</time></trkpt><trkpt lat="44.3696267" lon="11.2721195"><ele>261.5</ele><time>2026-04-26T12:09:51.127Z</time></trkpt><trkpt lat="44.3695595" lon="11.2720848"><ele>260.0</ele><time>2026-04-26T12:09:53.121Z</time></trkpt><trkpt lat="44.3694936" lon="11.272047"><ele>258.5</ele><time>2026-04-26T12:09:55.126Z</time></trkpt><trkpt lat="44.3694205" lon="11.2720079"><ele>257.0</ele><time>2026-04-26T12:09:57.128Z</time></trkpt><trkpt lat="44.3693447" lon="11.2719679"><ele>255.50000000000003</ele><time>2026-04-26T12:09:59.131Z</time></trkpt><trkpt lat="44.3692624" lon="11.2719227"><ele>254.0</ele><time>2026-04-26T12:10:01.117Z</time></trkpt><trkpt lat="44.369188" lon="11.271871"><ele>254.0</ele><time>2026-04-26T12:10:03.123Z</time></trkpt><trkpt lat="44.369106" lon="11.2718115"><ele>253.99999999999997</ele><time>2026-04-26T12:10:05.121Z</time></trkpt><trkpt lat="44.3690232" lon="11.2717448"><ele>253.99999999999997</ele><time>2026-04-26T12:10:07.121Z</time></trkpt><trkpt lat="44.3689377" lon="11.2716743"><ele>254.0</ele><time>2026-04-26T12:10:09.131Z</time></trkpt><trkpt lat="44.3688603" lon="11.2716056"><ele>254.0</ele><time>2026-04-26T12:10:11.122Z</time></trkpt><trkpt lat="44.3687871" lon="11.2715428"><ele>253.50000000000003</ele><time>2026-04-26T12:10:13.133Z</time></trkpt><trkpt lat="44.3687171" lon="11.2714833"><ele>253.0</ele><time>2026-04-26T12:10:15.129Z</time></trkpt><trkpt lat="44.3686501" lon="11.2714127"><ele>252.5</ele><time>2026-04-26T12:10:17.12Z</time></trkpt><trkpt lat="44.3685794" lon="11.2713476"><ele>252.0</ele><time>2026-04-26T12:10:19.137Z</time></trkpt><trkpt lat="44.3685149" lon="11.2712889"><ele>251.50000000000003</ele><time>2026-04-26T12:10:21.117Z</time></trkpt><trkpt lat="44.3684476" lon="11.2712159"><ele>251.0</ele><time>2026-04-26T12:10:23.118Z</time></trkpt><trkpt lat="44.3683865" lon="11.2711522"><ele>251.00000000000003</ele><time>2026-04-26T12:10:25.127Z</time></trkpt><trkpt lat="44.3683284" lon="11.2710765"><ele>251.0</ele><time>2026-04-26T12:10:27.127Z</time></trkpt><trkpt lat="44.3682667" lon="11.2709999"><ele>251.0</ele><time>2026-04-26T12:10:29.119Z</time></trkpt><trkpt lat="44.3682082" lon="11.2709166"><ele>251.0</ele><time>2026-04-26T12:10:31.118Z</time></trkpt><trkpt lat="44.368144" lon="11.2708372"><ele>251.00000000000003</ele><time>2026-04-26T12:10:33.121Z</time></trkpt><trkpt lat="44.3680753" lon="11.2707673"><ele>251.0</ele><time>2026-04-26T12:10:35.128Z</time></trkpt><trkpt lat="44.3680106" lon="11.2707119"><ele>251.28571428571425</ele><time>2026-04-26T12:10:37.12Z</time></trkpt><trkpt lat="44.3679491" lon="11.270658"><ele>251.57142857142856</ele><time>2026-04-26T12:10:39.133Z</time></trkpt><trkpt lat="44.3678871" lon="11.270614"><ele>251.85714285714286</ele><time>2026-04-26T12:10:41.127Z</time></trkpt><trkpt lat="44.3678248" lon="11.2705694"><ele>252.14285714285714</ele><time>2026-04-26T12:10:43.121Z</time></trkpt><trkpt lat="44.3677631" lon="11.2705258"><ele>252.42857142857144</ele><time>2026-04-26T12:10:45.123Z</time></trkpt><trkpt lat="44.3677034" lon="11.2704865"><ele>252.71428571428575</ele><time>2026-04-26T12:10:47.124Z</time></trkpt><trkpt lat="44.367643" lon="11.27045"><ele>253.00000000000003</ele><time>2026-04-26T12:10:49.127Z</time></trkpt><trkpt lat="44.367562" lon="11.2704018"><ele>252.99999999999997</ele><time>2026-04-26T12:10:52.12Z</time></trkpt><trkpt lat="44.3674976" lon="11.2703531"><ele>253.0</ele><time>2026-04-26T12:10:54.138Z</time></trkpt><trkpt lat="44.3674106" lon="11.2702958"><ele>253.0</ele><time>2026-04-26T12:10:57.118Z</time></trkpt><trkpt lat="44.3673511" lon="11.2702514"><ele>253.0</ele><time>2026-04-26T12:10:59.126Z</time></trkpt><trkpt lat="44.3672936" lon="11.2702107"><ele>252.99999999999997</ele><time>2026-04-26T12:11:01.11Z</time></trkpt><trkpt lat="44.3672168" lon="11.2701541"><ele>253.0</ele><time>2026-04-26T12:11:04.127Z</time></trkpt><trkpt lat="44.3671361" lon="11.2700944"><ele>253.99999999999997</ele><time>2026-04-26T12:11:07.128Z</time></trkpt><trkpt lat="44.3670576" lon="11.2700436"><ele>255.0</ele><time>2026-04-26T12:11:10.126Z</time></trkpt><trkpt lat="44.3669833" lon="11.2699954"><ele>256.0</ele><time>2026-04-26T12:11:14.129Z</time></trkpt><trkpt lat="44.3669151" lon="11.2699577"><ele>257.0</ele><time>2026-04-26T12:11:17.133Z</time></trkpt><trkpt lat="44.3668421" lon="11.2699032"><ele>258.0</ele><time>2026-04-26T12:11:20.128Z</time></trkpt><trkpt lat="44.3667694" lon="11.2698341"><ele>259.0</ele><time>2026-04-26T12:11:23.126Z</time></trkpt><trkpt lat="44.3667075" lon="11.2697405"><ele>259.0</ele><time>2026-04-26T12:11:26.125Z</time></trkpt><trkpt lat="44.3666521" lon="11.2696427"><ele>259.0</ele><time>2026-04-26T12:11:29.122Z</time></trkpt><trkpt lat="44.3666125" lon="11.2695393"><ele>259.0</ele><time>2026-04-26T12:11:32.126Z</time></trkpt><trkpt lat="44.366567" lon="11.2694347"><ele>259.0</ele><time>2026-04-26T12:11:35.122Z</time></trkpt><trkpt lat="44.3665236" lon="11.2693299"><ele>259.0</ele><time>2026-04-26T12:11:38.123Z</time></trkpt><trkpt lat="44.3664742" lon="11.2692392"><ele>259.0</ele><time>2026-04-26T12:11:41.128Z</time></trkpt><trkpt lat="44.3664223" lon="11.2691568"><ele>260.66666666666663</ele><time>2026-04-26T12:11:44.118Z</time></trkpt><trkpt lat="44.366361" lon="11.269083"><ele>262.3333333333333</ele><time>2026-04-26T12:11:47.126Z</time></trkpt><trkpt lat="44.3662954" lon="11.2690242"><ele>264.0</ele><time>2026-04-26T12:11:50.12Z</time></trkpt><trkpt lat="44.3662226" lon="11.2689893"><ele>265.6666666666667</ele><time>2026-04-26T12:11:53.119Z</time></trkpt><trkpt lat="44.3661438" lon="11.2690009"><ele>267.33333333333337</ele><time>2026-04-26T12:11:56.118Z</time></trkpt><trkpt lat="44.3660648" lon="11.2690294"><ele>269.0</ele><time>2026-04-26T12:11:59.121Z</time></trkpt><trkpt lat="44.36599" lon="11.2690737"><ele>269.0</ele><time>2026-04-26T12:12:02.126Z</time></trkpt><trkpt lat="44.3659148" lon="11.26912"><ele>269.0</ele><time>2026-04-26T12:12:05.124Z</time></trkpt><trkpt lat="44.3658385" lon="11.2691721"><ele>269.0</ele><time>2026-04-26T12:12:08.122Z</time></trkpt><trkpt lat="44.3657632" lon="11.2692104"><ele>269.0</ele><time>2026-04-26T12:12:11.12Z</time></trkpt><trkpt lat="44.3656827" lon="11.2692364"><ele>269.0</ele><time>2026-04-26T12:12:14.121Z</time></trkpt><trkpt lat="44.3655945" lon="11.269263"><ele>269.0</ele><time>2026-04-26T12:12:17.126Z</time></trkpt><trkpt lat="44.3655085" lon="11.2692908"><ele>269.0</ele><time>2026-04-26T12:12:20.123Z</time></trkpt><trkpt lat="44.3654283" lon="11.2693201"><ele>269.0</ele><time>2026-04-26T12:12:23.126Z</time></trkpt><trkpt lat="44.36535" lon="11.2693637"><ele>269.0</ele><time>2026-04-26T12:12:26.123Z</time></trkpt><trkpt lat="44.3652732" lon="11.269409"><ele>269.0</ele><time>2026-04-26T12:12:29.127Z</time></trkpt><trkpt lat="44.3651981" lon="11.2694659"><ele>269.0</ele><time>2026-04-26T12:12:32.118Z</time></trkpt><trkpt lat="44.3651186" lon="11.2695153"><ele>269.0</ele><time>2026-04-26T12:12:35.122Z</time></trkpt><trkpt lat="44.365041" lon="11.2695763"><ele>269.0</ele><time>2026-04-26T12:12:38.122Z</time></trkpt><trkpt lat="44.364971" lon="11.2696369"><ele>269.0</ele><time>2026-04-26T12:12:41.118Z</time></trkpt><trkpt lat="44.3649047" lon="11.2696844"><ele>269.0</ele><time>2026-04-26T12:12:44.12Z</time></trkpt><trkpt lat="44.3648364" lon="11.2697383"><ele>269.0</ele><time>2026-04-26T12:12:49.121Z</time></trkpt><trkpt lat="44.364769" lon="11.2697867"><ele>269.0</ele><time>2026-04-26T12:12:53.122Z</time></trkpt><trkpt lat="44.3647042" lon="11.2698498"><ele>269.0</ele><time>2026-04-26T12:12:57.128Z</time></trkpt><trkpt lat="44.3646536" lon="11.2699361"><ele>270.5</ele><time>2026-04-26T12:13:01.124Z</time></trkpt><trkpt lat="44.3646817" lon="11.2700445"><ele>272.0</ele><time>2026-04-26T12:13:05.118Z</time></trkpt><trkpt lat="44.3647509" lon="11.2701052"><ele>273.5</ele><time>2026-04-26T12:13:09.115Z</time></trkpt><trkpt lat="44.364836" lon="11.2701185"><ele>275.0</ele><time>2026-04-26T12:13:13.128Z</time></trkpt><trkpt lat="44.3649116" lon="11.270122"><ele>276.5</ele><time>2026-04-26T12:13:16.121Z</time></trkpt><trkpt lat="44.3649897" lon="11.2701253"><ele>278.0</ele><time>2026-04-26T12:13:19.123Z</time></trkpt><trkpt lat="44.36507" lon="11.2701354"><ele>278.0</ele><time>2026-04-26T12:13:22.121Z</time></trkpt><trkpt lat="44.3651524" lon="11.2701572"><ele>278.0</ele><time>2026-04-26T12:13:25.119Z</time></trkpt><trkpt lat="44.3652375" lon="11.2701788"><ele>278.0</ele><time>2026-04-26T12:13:28.129Z</time></trkpt><trkpt lat="44.3653241" lon="11.270192"><ele>278.0</ele><time>2026-04-26T12:13:31.124Z</time></trkpt><trkpt lat="44.3654105" lon="11.2702014"><ele>278.0</ele><time>2026-04-26T12:13:34.135Z</time></trkpt><trkpt lat="44.3654945" lon="11.2702058"><ele>278.0</ele><time>2026-04-26T12:13:37.126Z</time></trkpt><trkpt lat="44.3655757" lon="11.2702156"><ele>279.0</ele><time>2026-04-26T12:13:40.128Z</time></trkpt><trkpt lat="44.365658" lon="11.2702165"><ele>280.0</ele><time>2026-04-26T12:13:43.113Z</time></trkpt><trkpt lat="44.3657364" lon="11.2702165"><ele>281.0</ele><time>2026-04-26T12:13:46.115Z</time></trkpt><trkpt lat="44.3658098" lon="11.2702223"><ele>282.0</ele><time>2026-04-26T12:13:49.124Z</time></trkpt><trkpt lat="44.3658857" lon="11.2702404"><ele>283.0</ele><time>2026-04-26T12:13:52.118Z</time></trkpt><trkpt lat="44.3659247" lon="11.2703351"><ele>284.0</ele><time>2026-04-26T12:13:55.125Z</time></trkpt><trkpt lat="44.3658732" lon="11.2704255"><ele>284.0</ele><time>2026-04-26T12:13:58.12Z</time></trkpt><trkpt lat="44.3657875" lon="11.2704537"><ele>284.0</ele><time>2026-04-26T12:14:01.125Z</time></trkpt><trkpt lat="44.365696" lon="11.2704893"><ele>284.0</ele><time>2026-04-26T12:14:04.119Z</time></trkpt><trkpt lat="44.3656307" lon="11.2705066"><ele>284.0</ele><time>2026-04-26T12:14:06.126Z</time></trkpt><trkpt lat="44.3655659" lon="11.2705269"><ele>284.0</ele><time>2026-04-26T12:14:08.117Z</time></trkpt><trkpt lat="44.3655019" lon="11.2705448"><ele>284.0</ele><time>2026-04-26T12:14:10.126Z</time></trkpt><trkpt lat="44.3654338" lon="11.2705612"><ele>283.1428571428571</ele><time>2026-04-26T12:14:12.126Z</time></trkpt><trkpt lat="44.3653657" lon="11.2705842"><ele>282.2857142857143</ele><time>2026-04-26T12:14:14.123Z</time></trkpt><trkpt lat="44.3652976" lon="11.2706077"><ele>281.42857142857144</ele><time>2026-04-26T12:14:16.13Z</time></trkpt><trkpt lat="44.3652292" lon="11.2706323"><ele>280.57142857142856</ele><time>2026-04-26T12:14:18.126Z</time></trkpt><trkpt lat="44.3651641" lon="11.27066"><ele>279.7142857142857</ele><time>2026-04-26T12:14:20.125Z</time></trkpt><trkpt lat="44.3650982" lon="11.2706832"><ele>278.85714285714283</ele><time>2026-04-26T12:14:22.123Z</time></trkpt><trkpt lat="44.3650332" lon="11.2707061"><ele>278.0</ele><time>2026-04-26T12:14:24.124Z</time></trkpt><trkpt lat="44.364968" lon="11.2707302"><ele>280.57142857142856</ele><time>2026-04-26T12:14:26.12Z</time></trkpt><trkpt lat="44.3649011" lon="11.2707472"><ele>283.14285714285717</ele><time>2026-04-26T12:14:28.114Z</time></trkpt><trkpt lat="44.3648325" lon="11.2707629"><ele>285.7142857142857</ele><time>2026-04-26T12:14:30.121Z</time></trkpt><trkpt lat="44.364765" lon="11.2707815"><ele>288.2857142857143</ele><time>2026-04-26T12:14:32.13Z</time></trkpt><trkpt lat="44.3646955" lon="11.2707923"><ele>290.85714285714283</ele><time>2026-04-26T12:14:34.13Z</time></trkpt><trkpt lat="44.3646218" lon="11.2707899"><ele>293.42857142857144</ele><time>2026-04-26T12:14:36.123Z</time></trkpt><trkpt lat="44.3645491" lon="11.2707691"><ele>296.0</ele><time>2026-04-26T12:14:38.119Z</time></trkpt><trkpt lat="44.3644749" lon="11.2707378"><ele>296.83333333333337</ele><time>2026-04-26T12:14:40.119Z</time></trkpt><trkpt lat="44.364402" lon="11.2707012"><ele>297.6666666666667</ele><time>2026-04-26T12:14:42.122Z</time></trkpt><trkpt lat="44.3643319" lon="11.2706621"><ele>298.5</ele><time>2026-04-26T12:14:44.129Z</time></trkpt><trkpt lat="44.364267" lon="11.2706134"><ele>299.3333333333333</ele><time>2026-04-26T12:14:46.126Z</time></trkpt><trkpt lat="44.3642048" lon="11.2705617"><ele>300.16666666666663</ele><time>2026-04-26T12:14:48.123Z</time></trkpt><trkpt lat="44.3641463" lon="11.270514"><ele>301.0</ele><time>2026-04-26T12:14:50.125Z</time></trkpt><trkpt lat="44.364063" lon="11.2704769"><ele>301.0</ele><time>2026-04-26T12:14:53.13Z</time></trkpt><trkpt lat="44.3639848" lon="11.2705262"><ele>301.0</ele><time>2026-04-26T12:14:56.11Z</time></trkpt><trkpt lat="44.3639673" lon="11.2706142"><ele>301.0</ele><time>2026-04-26T12:14:58.123Z</time></trkpt><trkpt lat="44.3639963" lon="11.2706941"><ele>301.0</ele><time>2026-04-26T12:15:00.112Z</time></trkpt><trkpt lat="44.3640628" lon="11.2707728"><ele>301.0</ele><time>2026-04-26T12:15:03.117Z</time></trkpt><trkpt lat="44.3641445" lon="11.2708237"><ele>301.0</ele><time>2026-04-26T12:15:06.122Z</time></trkpt><trkpt lat="44.3642259" lon="11.2708769"><ele>301.0</ele><time>2026-04-26T12:15:09.121Z</time></trkpt><trkpt lat="44.3643054" lon="11.2709225"><ele>301.0</ele><time>2026-04-26T12:15:12.122Z</time></trkpt><trkpt lat="44.3643838" lon="11.270961"><ele>301.0</ele><time>2026-04-26T12:15:15.131Z</time></trkpt><trkpt lat="44.3644602" lon="11.2710069"><ele>301.0</ele><time>2026-04-26T12:15:18.129Z</time></trkpt><trkpt lat="44.3645392" lon="11.2710502"><ele>301.0</ele><time>2026-04-26T12:15:21.112Z</time></trkpt><trkpt lat="44.3646156" lon="11.2710956"><ele>301.0</ele><time>2026-04-26T12:15:24.143Z</time></trkpt><trkpt lat="44.364692" lon="11.2711336"><ele>300.16666666666663</ele><time>2026-04-26T12:15:27.126Z</time></trkpt><trkpt lat="44.3647706" lon="11.2711679"><ele>299.3333333333333</ele><time>2026-04-26T12:15:30.12Z</time></trkpt><trkpt lat="44.3648464" lon="11.2712052"><ele>298.5</ele><time>2026-04-26T12:15:33.124Z</time></trkpt><trkpt lat="44.3649213" lon="11.2712438"><ele>297.6666666666667</ele><time>2026-04-26T12:15:36.125Z</time></trkpt><trkpt lat="44.364995" lon="11.2712928"><ele>296.83333333333337</ele><time>2026-04-26T12:15:39.111Z</time></trkpt><trkpt lat="44.3650647" lon="11.2713487"><ele>296.0</ele><time>2026-04-26T12:15:42.122Z</time></trkpt><trkpt lat="44.365133" lon="11.2714044"><ele>299.0</ele><time>2026-04-26T12:15:45.111Z</time></trkpt><trkpt lat="44.3652058" lon="11.2714553"><ele>302.0</ele><time>2026-04-26T12:15:48.117Z</time></trkpt><trkpt lat="44.365283" lon="11.2714927"><ele>305.0</ele><time>2026-04-26T12:15:51.126Z</time></trkpt><trkpt lat="44.3653637" lon="11.2715203"><ele>308.0</ele><time>2026-04-26T12:15:54.11Z</time></trkpt><trkpt lat="44.3654419" lon="11.2715499"><ele>311.0</ele><time>2026-04-26T12:15:57.122Z</time></trkpt><trkpt lat="44.365513" lon="11.2715938"><ele>314.0</ele><time>2026-04-26T12:16:00.118Z</time></trkpt><trkpt lat="44.3655875" lon="11.2716256"><ele>314.0</ele><time>2026-04-26T12:16:03.119Z</time></trkpt><trkpt lat="44.3656606" lon="11.2716554"><ele>314.0</ele><time>2026-04-26T12:16:06.114Z</time></trkpt><trkpt lat="44.3657131" lon="11.2717289"><ele>314.0</ele><time>2026-04-26T12:16:09.115Z</time></trkpt><trkpt lat="44.3656973" lon="11.2718311"><ele>314.0</ele><time>2026-04-26T12:16:12.133Z</time></trkpt><trkpt lat="44.3656293" lon="11.2718708"><ele>314.0</ele><time>2026-04-26T12:16:15.108Z</time></trkpt><trkpt lat="44.3655575" lon="11.2718928"><ele>314.0</ele><time>2026-04-26T12:16:18.124Z</time></trkpt><trkpt lat="44.3654743" lon="11.2718937"><ele>314.6666666666667</ele><time>2026-04-26T12:16:21.116Z</time></trkpt><trkpt lat="44.3653995" lon="11.2719013"><ele>315.33333333333337</ele><time>2026-04-26T12:16:24.126Z</time></trkpt><trkpt lat="44.3653366" lon="11.2719111"><ele>316.0</ele><time>2026-04-26T12:16:27.124Z</time></trkpt><trkpt lat="44.365255" lon="11.2719207"><ele>316.6666666666667</ele><time>2026-04-26T12:16:30.129Z</time></trkpt><trkpt lat="44.3651769" lon="11.2719212"><ele>317.3333333333333</ele><time>2026-04-26T12:16:33.124Z</time></trkpt><trkpt lat="44.3650987" lon="11.2719052"><ele>318.0</ele><time>2026-04-26T12:16:36.119Z</time></trkpt><trkpt lat="44.3650254" lon="11.2718847"><ele>318.0</ele><time>2026-04-26T12:16:39.123Z</time></trkpt><trkpt lat="44.3649505" lon="11.2718667"><ele>318.0</ele><time>2026-04-26T12:16:42.123Z</time></trkpt><trkpt lat="44.3648783" lon="11.2718515"><ele>318.0</ele><time>2026-04-26T12:16:45.119Z</time></trkpt><trkpt lat="44.3647962" lon="11.2718316"><ele>318.0</ele><time>2026-04-26T12:16:48.124Z</time></trkpt><trkpt lat="44.3647195" lon="11.2718087"><ele>318.0</ele><time>2026-04-26T12:16:51.135Z</time></trkpt><trkpt lat="44.3646381" lon="11.2717862"><ele>318.0</ele><time>2026-04-26T12:16:54.13Z</time></trkpt><trkpt lat="44.364564" lon="11.2717685"><ele>318.1666666666667</ele><time>2026-04-26T12:16:57.126Z</time></trkpt><trkpt lat="44.3644876" lon="11.2717575"><ele>318.3333333333333</ele><time>2026-04-26T12:17:00.123Z</time></trkpt><trkpt lat="44.3644031" lon="11.2717717"><ele>318.5</ele><time>2026-04-26T12:17:03.116Z</time></trkpt><trkpt lat="44.3643277" lon="11.2718115"><ele>318.66666666666663</ele><time>2026-04-26T12:17:06.122Z</time></trkpt><trkpt lat="44.3642602" lon="11.2718746"><ele>318.8333333333333</ele><time>2026-04-26T12:17:09.112Z</time></trkpt><trkpt lat="44.3641972" lon="11.2719506"><ele>319.0</ele><time>2026-04-26T12:17:12.124Z</time></trkpt><trkpt lat="44.3641379" lon="11.2720435"><ele>319.0</ele><time>2026-04-26T12:17:15.122Z</time></trkpt><trkpt lat="44.3640965" lon="11.2721501"><ele>319.0</ele><time>2026-04-26T12:17:18.123Z</time></trkpt><trkpt lat="44.3640906" lon="11.2722671"><ele>319.0</ele><time>2026-04-26T12:17:21.125Z</time></trkpt><trkpt lat="44.3641442" lon="11.272352"><ele>319.0</ele><time>2026-04-26T12:17:24.123Z</time></trkpt><trkpt lat="44.3642203" lon="11.2723595"><ele>319.0</ele><time>2026-04-26T12:17:27.125Z</time></trkpt><trkpt lat="44.3642711" lon="11.2722676"><ele>319.0</ele><time>2026-04-26T12:17:30.12Z</time></trkpt><trkpt lat="44.3643128" lon="11.272156"><ele>319.0</ele><time>2026-04-26T12:17:33.126Z</time></trkpt><trkpt lat="44.3643754" lon="11.2720721"><ele>319.0</ele><time>2026-04-26T12:17:36.121Z</time></trkpt><trkpt lat="44.3644595" lon="11.2720491"><ele>319.0</ele><time>2026-04-26T12:17:39.127Z</time></trkpt><trkpt lat="44.3645471" lon="11.272073"><ele>319.0</ele><time>2026-04-26T12:17:42.117Z</time></trkpt><trkpt lat="44.3646296" lon="11.2721018"><ele>319.0</ele><time>2026-04-26T12:17:45.122Z</time></trkpt><trkpt lat="44.3647085" lon="11.2721383"><ele>319.0</ele><time>2026-04-26T12:17:48.116Z</time></trkpt><trkpt lat="44.3647871" lon="11.2721732"><ele>318.8333333333333</ele><time>2026-04-26T12:17:51.123Z</time></trkpt><trkpt lat="44.3648623" lon="11.2722068"><ele>318.66666666666663</ele><time>2026-04-26T12:17:54.13Z</time></trkpt><trkpt lat="44.3649409" lon="11.2722509"><ele>318.5</ele><time>2026-04-26T12:17:57.123Z</time></trkpt><trkpt lat="44.3650206" lon="11.272295"><ele>318.3333333333333</ele><time>2026-04-26T12:18:00.129Z</time></trkpt><trkpt lat="44.3651018" lon="11.2723424"><ele>318.1666666666667</ele><time>2026-04-26T12:18:03.119Z</time></trkpt><trkpt lat="44.365181" lon="11.2723812"><ele>318.0</ele><time>2026-04-26T12:18:06.13Z</time></trkpt><trkpt lat="44.365258" lon="11.2724191"><ele>321.3333333333333</ele><time>2026-04-26T12:18:09.128Z</time></trkpt><trkpt lat="44.3653392" lon="11.2724519"><ele>324.6666666666667</ele><time>2026-04-26T12:18:12.128Z</time></trkpt><trkpt lat="44.3654237" lon="11.2724743"><ele>328.0</ele><time>2026-04-26T12:18:15.125Z</time></trkpt><trkpt lat="44.3655056" lon="11.2724805"><ele>331.33333333333337</ele><time>2026-04-26T12:18:18.128Z</time></trkpt><trkpt lat="44.3655877" lon="11.2724845"><ele>334.6666666666667</ele><time>2026-04-26T12:18:21.134Z</time></trkpt><trkpt lat="44.3656718" lon="11.2725006"><ele>338.0</ele><time>2026-04-26T12:18:24.133Z</time></trkpt><trkpt lat="44.3657263" lon="11.2725881"><ele>338.0</ele><time>2026-04-26T12:18:27.12Z</time></trkpt><trkpt lat="44.3656796" lon="11.2726767"><ele>338.0</ele><time>2026-04-26T12:18:30.12Z</time></trkpt><trkpt lat="44.3655977" lon="11.2727006"><ele>338.0</ele><time>2026-04-26T12:18:33.125Z</time></trkpt><trkpt lat="44.3655225" lon="11.2727082"><ele>338.0</ele><time>2026-04-26T12:18:36.117Z</time></trkpt><trkpt lat="44.3654315" lon="11.2727077"><ele>338.0</ele><time>2026-04-26T12:18:40.128Z</time></trkpt><trkpt lat="44.3653604" lon="11.2727069"><ele>338.0</ele><time>2026-04-26T12:18:42.115Z</time></trkpt><trkpt lat="44.3652945" lon="11.2727087"><ele>338.83333333333337</ele><time>2026-04-26T12:18:44.129Z</time></trkpt><trkpt lat="44.3652271" lon="11.2727"><ele>339.6666666666667</ele><time>2026-04-26T12:18:46.131Z</time></trkpt><trkpt lat="44.3651397" lon="11.2726801"><ele>340.5</ele><time>2026-04-26T12:18:49.113Z</time></trkpt><trkpt lat="44.365056" lon="11.2726525"><ele>341.3333333333333</ele><time>2026-04-26T12:18:52.13Z</time></trkpt><trkpt lat="44.364976" lon="11.2726275"><ele>342.16666666666663</ele><time>2026-04-26T12:18:55.123Z</time></trkpt><trkpt lat="44.3648874" lon="11.2726036"><ele>343.0</ele><time>2026-04-26T12:18:58.12Z</time></trkpt><trkpt lat="44.364801" lon="11.272597"><ele>343.0</ele><time>2026-04-26T12:19:01.114Z</time></trkpt><trkpt lat="44.3647251" lon="11.2726326"><ele>343.0</ele><time>2026-04-26T12:19:04.125Z</time></trkpt><trkpt lat="44.3646515" lon="11.2726997"><ele>343.0</ele><time>2026-04-26T12:19:07.117Z</time></trkpt><trkpt lat="44.3645895" lon="11.2727881"><ele>343.0</ele><time>2026-04-26T12:19:10.127Z</time></trkpt><trkpt lat="44.3645311" lon="11.2728674"><ele>343.0</ele><time>2026-04-26T12:19:13.121Z</time></trkpt><trkpt lat="44.3644944" lon="11.2729392"><ele>343.0</ele><time>2026-04-26T12:19:16.115Z</time></trkpt><trkpt lat="44.3644449" lon="11.2730082"><ele>343.66666666666663</ele><time>2026-04-26T12:19:19.115Z</time></trkpt><trkpt lat="44.3644003" lon="11.273078"><ele>344.3333333333333</ele><time>2026-04-26T12:19:22.111Z</time></trkpt><trkpt lat="44.3643551" lon="11.2731616"><ele>345.0</ele><time>2026-04-26T12:19:25.124Z</time></trkpt><trkpt lat="44.3642997" lon="11.2732594"><ele>345.6666666666667</ele><time>2026-04-26T12:19:28.128Z</time></trkpt><trkpt lat="44.3642432" lon="11.2733531"><ele>346.33333333333337</ele><time>2026-04-26T12:19:31.13Z</time></trkpt><trkpt lat="44.364195" lon="11.2734481"><ele>347.0</ele><time>2026-04-26T12:19:34.122Z</time></trkpt><trkpt lat="44.3641421" lon="11.2735384"><ele>347.0</ele><time>2026-04-26T12:19:37.124Z</time></trkpt><trkpt lat="44.364087" lon="11.2736257"><ele>347.0</ele><time>2026-04-26T12:19:40.118Z</time></trkpt><trkpt lat="44.3640437" lon="11.2737093"><ele>347.0</ele><time>2026-04-26T12:19:43.129Z</time></trkpt><trkpt lat="44.3639913" lon="11.2737936"><ele>347.0</ele><time>2026-04-26T12:19:46.135Z</time></trkpt><trkpt lat="44.3639184" lon="11.2738608"><ele>347.0</ele><time>2026-04-26T12:19:49.116Z</time></trkpt><trkpt lat="44.3638472" lon="11.2739173"><ele>347.0</ele><time>2026-04-26T12:19:52.126Z</time></trkpt><trkpt lat="44.3637697" lon="11.2739708"><ele>348.0</ele><time>2026-04-26T12:19:55.122Z</time></trkpt><trkpt lat="44.3636965" lon="11.274017"><ele>349.0</ele><time>2026-04-26T12:19:58.12Z</time></trkpt><trkpt lat="44.3636193" lon="11.2740713"><ele>350.0</ele><time>2026-04-26T12:20:01.123Z</time></trkpt><trkpt lat="44.363539" lon="11.2741217"><ele>351.0</ele><time>2026-04-26T12:20:04.119Z</time></trkpt><trkpt lat="44.3634658" lon="11.2741679"><ele>352.0</ele><time>2026-04-26T12:20:07.116Z</time></trkpt><trkpt lat="44.3633909" lon="11.2742104"><ele>353.0</ele><time>2026-04-26T12:20:10.127Z</time></trkpt><trkpt lat="44.3633246" lon="11.2742665"><ele>353.0</ele><time>2026-04-26T12:20:13.137Z</time></trkpt><trkpt lat="44.3632752" lon="11.2743409"><ele>353.0</ele><time>2026-04-26T12:20:16.126Z</time></trkpt><trkpt lat="44.3632401" lon="11.2744233"><ele>353.0</ele><time>2026-04-26T12:20:19.125Z</time></trkpt><trkpt lat="44.3632204" lon="11.2745131"><ele>353.0</ele><time>2026-04-26T12:20:22.114Z</time></trkpt><trkpt lat="44.3632103" lon="11.2746082"><ele>353.0</ele><time>2026-04-26T12:20:25.113Z</time></trkpt><trkpt lat="44.3632104" lon="11.274706"><ele>353.0</ele><time>2026-04-26T12:20:28.125Z</time></trkpt><trkpt lat="44.3631993" lon="11.2748022"><ele>353.0</ele><time>2026-04-26T12:20:31.117Z</time></trkpt><trkpt lat="44.3631881" lon="11.274896"><ele>352.1428571428571</ele><time>2026-04-26T12:20:34.121Z</time></trkpt><trkpt lat="44.3631646" lon="11.2750027"><ele>351.28571428571433</ele><time>2026-04-26T12:20:38.13Z</time></trkpt><trkpt lat="44.3631391" lon="11.2750894"><ele>350.42857142857144</ele><time>2026-04-26T12:20:41.12Z</time></trkpt><trkpt lat="44.3631035" lon="11.2751716"><ele>349.57142857142856</ele><time>2026-04-26T12:20:44.115Z</time></trkpt><trkpt lat="44.3630595" lon="11.2752535"><ele>348.71428571428567</ele><time>2026-04-26T12:20:47.118Z</time></trkpt><trkpt lat="44.3630084" lon="11.2753266"><ele>347.8571428571429</ele><time>2026-04-26T12:20:50.118Z</time></trkpt><trkpt lat="44.3629516" lon="11.2753936"><ele>347.0</ele><time>2026-04-26T12:20:53.126Z</time></trkpt><trkpt lat="44.3629052" lon="11.2754634"><ele>347.0</ele><time>2026-04-26T12:20:56.126Z</time></trkpt><trkpt lat="44.3628606" lon="11.2755343"><ele>347.0</ele><time>2026-04-26T12:20:59.113Z</time></trkpt><trkpt lat="44.3628187" lon="11.2756116"><ele>347.0</ele><time>2026-04-26T12:21:02.115Z</time></trkpt><trkpt lat="44.3627705" lon="11.2757074"><ele>347.0</ele><time>2026-04-26T12:21:06.124Z</time></trkpt><trkpt lat="44.3627361" lon="11.2757861"><ele>347.0</ele><time>2026-04-26T12:21:09.121Z</time></trkpt><trkpt lat="44.362702" lon="11.2758633"><ele>347.0</ele><time>2026-04-26T12:21:12.122Z</time></trkpt><trkpt lat="44.3626679" lon="11.275952"><ele>347.0</ele><time>2026-04-26T12:21:16.126Z</time></trkpt><trkpt lat="44.3626324" lon="11.2760645"><ele>349.14285714285717</ele><time>2026-04-26T12:21:20.112Z</time></trkpt><trkpt lat="44.3625854" lon="11.2761406"><ele>351.2857142857143</ele><time>2026-04-26T12:21:24.125Z</time></trkpt><trkpt lat="44.3625267" lon="11.2762137"><ele>353.42857142857144</ele><time>2026-04-26T12:21:27.114Z</time></trkpt><trkpt lat="44.3624699" lon="11.2762624"><ele>355.57142857142856</ele><time>2026-04-26T12:21:30.121Z</time></trkpt><trkpt lat="44.3624164" lon="11.276323"><ele>357.71428571428567</ele><time>2026-04-26T12:21:33.126Z</time></trkpt><trkpt lat="44.3623628" lon="11.276371"><ele>359.85714285714283</ele><time>2026-04-26T12:21:35.125Z</time></trkpt><trkpt lat="44.3622946" lon="11.276441"><ele>362.0</ele><time>2026-04-26T12:21:38.121Z</time></trkpt><trkpt lat="44.3622245" lon="11.2765278"><ele>362.6666666666667</ele><time>2026-04-26T12:21:41.112Z</time></trkpt><trkpt lat="44.3621577" lon="11.2766094"><ele>363.33333333333337</ele><time>2026-04-26T12:21:44.135Z</time></trkpt><trkpt lat="44.362093" lon="11.2766852"><ele>364.0</ele><time>2026-04-26T12:21:47.123Z</time></trkpt><trkpt lat="44.3620391" lon="11.2767476"><ele>364.6666666666667</ele><time>2026-04-26T12:21:50.112Z</time></trkpt><trkpt lat="44.3619812" lon="11.2768228"><ele>365.3333333333333</ele><time>2026-04-26T12:21:53.111Z</time></trkpt><trkpt lat="44.3619183" lon="11.2768879"><ele>366.0</ele><time>2026-04-26T12:21:56.119Z</time></trkpt><trkpt lat="44.3618626" lon="11.2769636"><ele>366.0</ele><time>2026-04-26T12:21:59.123Z</time></trkpt><trkpt lat="44.3618063" lon="11.2770443"><ele>366.0</ele><time>2026-04-26T12:22:02.135Z</time></trkpt><trkpt lat="44.3617538" lon="11.2771365"><ele>366.0</ele><time>2026-04-26T12:22:05.116Z</time></trkpt><trkpt lat="44.3617119" lon="11.2772258"><ele>366.0</ele><time>2026-04-26T12:22:08.121Z</time></trkpt><trkpt lat="44.3616654" lon="11.2773172"><ele>366.0</ele><time>2026-04-26T12:22:11.124Z</time></trkpt><trkpt lat="44.3616219" lon="11.2773933"><ele>366.0</ele><time>2026-04-26T12:22:14.131Z</time></trkpt><trkpt lat="44.361575" lon="11.2774829"><ele>367.5</ele><time>2026-04-26T12:22:17.118Z</time></trkpt><trkpt lat="44.3615119" lon="11.2775826"><ele>369.0</ele><time>2026-04-26T12:22:20.136Z</time></trkpt><trkpt lat="44.3614519" lon="11.2776528"><ele>370.5</ele><time>2026-04-26T12:22:23.124Z</time></trkpt><trkpt lat="44.3614052" lon="11.2777198"><ele>372.0</ele><time>2026-04-26T12:22:25.118Z</time></trkpt><trkpt lat="44.3613494" lon="11.2777936"><ele>373.5</ele><time>2026-04-26T12:22:27.125Z</time></trkpt><trkpt lat="44.3612807" lon="11.2778757"><ele>375.0</ele><time>2026-04-26T12:22:30.11Z</time></trkpt><trkpt lat="44.361222" lon="11.2779349"><ele>375.3333333333333</ele><time>2026-04-26T12:22:32.124Z</time></trkpt><trkpt lat="44.36115" lon="11.278"><ele>375.6666666666667</ele><time>2026-04-26T12:22:35.125Z</time></trkpt><trkpt lat="44.3610709" lon="11.2780658"><ele>376.0</ele><time>2026-04-26T12:22:37.119Z</time></trkpt><trkpt lat="44.3609984" lon="11.27811"><ele>376.33333333333337</ele><time>2026-04-26T12:22:39.12Z</time></trkpt><trkpt lat="44.360927" lon="11.2781554"><ele>376.6666666666667</ele><time>2026-04-26T12:22:41.124Z</time></trkpt><trkpt lat="44.360857" lon="11.2781801"><ele>377.0</ele><time>2026-04-26T12:22:43.126Z</time></trkpt><trkpt lat="44.3607854" lon="11.2781966"><ele>377.2857142857143</ele><time>2026-04-26T12:22:45.119Z</time></trkpt><trkpt lat="44.3606875" lon="11.2782052"><ele>377.57142857142856</ele><time>2026-04-26T12:22:48.13Z</time></trkpt><trkpt lat="44.3606144" lon="11.2782072"><ele>377.8571428571429</ele><time>2026-04-26T12:22:50.115Z</time></trkpt><trkpt lat="44.3605471" lon="11.2782056"><ele>378.1428571428571</ele><time>2026-04-26T12:22:52.123Z</time></trkpt><trkpt lat="44.3604749" lon="11.2782108"><ele>378.42857142857144</ele><time>2026-04-26T12:22:54.123Z</time></trkpt><trkpt lat="44.3604092" lon="11.2782065"><ele>378.7142857142857</ele><time>2026-04-26T12:22:56.131Z</time></trkpt><trkpt lat="44.3603448" lon="11.2781905"><ele>379.0</ele><time>2026-04-26T12:22:58.126Z</time></trkpt><trkpt lat="44.3602804" lon="11.2781674"><ele>380.0</ele><time>2026-04-26T12:23:00.116Z</time></trkpt><trkpt lat="44.3602141" lon="11.2781296"><ele>381.0</ele><time>2026-04-26T12:23:02.124Z</time></trkpt><trkpt lat="44.3601406" lon="11.2780969"><ele>382.0</ele><time>2026-04-26T12:23:04.12Z</time></trkpt><trkpt lat="44.3600751" lon="11.278069"><ele>383.0</ele><time>2026-04-26T12:23:06.126Z</time></trkpt><trkpt lat="44.3599956" lon="11.278052"><ele>384.00000000000006</ele><time>2026-04-26T12:23:09.121Z</time></trkpt><trkpt lat="44.3599046" lon="11.2780526"><ele>385.0</ele><time>2026-04-26T12:23:12.102Z</time></trkpt><trkpt lat="44.3598343" lon="11.2780798"><ele>385.00000000000006</ele><time>2026-04-26T12:23:14.122Z</time></trkpt><trkpt lat="44.3597599" lon="11.2781303"><ele>385.0</ele><time>2026-04-26T12:23:16.126Z</time></trkpt><trkpt lat="44.3596888" lon="11.2781899"><ele>385.0</ele><time>2026-04-26T12:23:18.119Z</time></trkpt><trkpt lat="44.3596233" lon="11.2782654"><ele>385.0</ele><time>2026-04-26T12:23:20.118Z</time></trkpt><trkpt lat="44.3595866" lon="11.2783605"><ele>385.00000000000006</ele><time>2026-04-26T12:23:22.114Z</time></trkpt><trkpt lat="44.3596041" lon="11.2784717"><ele>385.0</ele><time>2026-04-26T12:23:25.129Z</time></trkpt><trkpt lat="44.3596366" lon="11.2785877"><ele>385.0</ele><time>2026-04-26T12:23:28.127Z</time></trkpt><trkpt lat="44.3596729" lon="11.2786813"><ele>385.0</ele><time>2026-04-26T12:23:31.125Z</time></trkpt><trkpt lat="44.3597079" lon="11.278757"><ele>385.0</ele><time>2026-04-26T12:23:34.128Z</time></trkpt><trkpt lat="44.3597469" lon="11.2788312"><ele>385.0</ele><time>2026-04-26T12:23:37.121Z</time></trkpt><trkpt lat="44.359793" lon="11.2789165"><ele>385.0</ele><time>2026-04-26T12:23:40.125Z</time></trkpt><trkpt lat="44.3598415" lon="11.2790092"><ele>385.0</ele><time>2026-04-26T12:23:44.112Z</time></trkpt><trkpt lat="44.3598862" lon="11.2790833"><ele>385.0</ele><time>2026-04-26T12:23:47.126Z</time></trkpt><trkpt lat="44.3599445" lon="11.2791608"><ele>385.7142857142857</ele><time>2026-04-26T12:23:50.119Z</time></trkpt><trkpt lat="44.3599911" lon="11.2792355"><ele>386.42857142857144</ele><time>2026-04-26T12:23:53.128Z</time></trkpt><trkpt lat="44.3600409" lon="11.2793005"><ele>387.1428571428571</ele><time>2026-04-26T12:23:56.11Z</time></trkpt><trkpt lat="44.360101" lon="11.279373"><ele>387.8571428571429</ele><time>2026-04-26T12:23:59.118Z</time></trkpt><trkpt lat="44.3601603" lon="11.27944"><ele>388.57142857142856</ele><time>2026-04-26T12:24:02.121Z</time></trkpt><trkpt lat="44.3602168" lon="11.279513"><ele>389.2857142857143</ele><time>2026-04-26T12:24:05.117Z</time></trkpt><trkpt lat="44.36027" lon="11.2795668"><ele>390.0</ele><time>2026-04-26T12:24:08.126Z</time></trkpt><trkpt lat="44.3603244" lon="11.2796245"><ele>390.0</ele><time>2026-04-26T12:24:11.118Z</time></trkpt><trkpt lat="44.3603819" lon="11.2796812"><ele>390.0</ele><time>2026-04-26T12:24:14.12Z</time></trkpt><trkpt lat="44.3604382" lon="11.279752"><ele>390.0</ele><time>2026-04-26T12:24:17.128Z</time></trkpt><trkpt lat="44.3604957" lon="11.2798233"><ele>390.0</ele><time>2026-04-26T12:24:20.125Z</time></trkpt><trkpt lat="44.3605493" lon="11.2798967"><ele>390.0</ele><time>2026-04-26T12:24:23.127Z</time></trkpt><trkpt lat="44.3605938" lon="11.2799839"><ele>390.0</ele><time>2026-04-26T12:24:26.125Z</time></trkpt><trkpt lat="44.3606311" lon="11.2800714"><ele>390.0</ele><time>2026-04-26T12:24:29.126Z</time></trkpt><trkpt lat="44.3606504" lon="11.2801777"><ele>389.1428571428571</ele><time>2026-04-26T12:24:32.133Z</time></trkpt><trkpt lat="44.3606469" lon="11.2803032"><ele>388.2857142857143</ele><time>2026-04-26T12:24:35.124Z</time></trkpt><trkpt lat="44.360643" lon="11.2803933"><ele>387.42857142857144</ele><time>2026-04-26T12:24:37.12Z</time></trkpt><trkpt lat="44.3606422" lon="11.28049"><ele>386.57142857142856</ele><time>2026-04-26T12:24:39.122Z</time></trkpt><trkpt lat="44.360643" lon="11.2805849"><ele>385.7142857142857</ele><time>2026-04-26T12:24:41.117Z</time></trkpt><trkpt lat="44.3606347" lon="11.2806871"><ele>384.85714285714283</ele><time>2026-04-26T12:24:43.124Z</time></trkpt><trkpt lat="44.3606219" lon="11.2807901"><ele>384.0</ele><time>2026-04-26T12:24:45.119Z</time></trkpt><trkpt lat="44.3606042" lon="11.2808929"><ele>383.6666666666667</ele><time>2026-04-26T12:24:47.123Z</time></trkpt><trkpt lat="44.3605782" lon="11.280999"><ele>383.3333333333333</ele><time>2026-04-26T12:24:49.122Z</time></trkpt><trkpt lat="44.3605478" lon="11.2811069"><ele>383.0</ele><time>2026-04-26T12:24:51.124Z</time></trkpt><trkpt lat="44.3605243" lon="11.2812168"><ele>382.66666666666663</ele><time>2026-04-26T12:24:53.119Z</time></trkpt><trkpt lat="44.3605027" lon="11.281329"><ele>382.3333333333333</ele><time>2026-04-26T12:24:55.121Z</time></trkpt><trkpt lat="44.3604878" lon="11.281445"><ele>382.0</ele><time>2026-04-26T12:24:57.122Z</time></trkpt><trkpt lat="44.3604697" lon="11.2815687"><ele>391.6</ele><time>2026-04-26T12:24:59.127Z</time></trkpt><trkpt lat="44.3604472" lon="11.2817002"><ele>401.20000000000005</ele><time>2026-04-26T12:25:01.131Z</time></trkpt><trkpt lat="44.3604214" lon="11.2818395"><ele>410.8</ele><time>2026-04-26T12:25:03.126Z</time></trkpt><trkpt lat="44.3603931" lon="11.2819829"><ele>420.4</ele><time>2026-04-26T12:25:05.119Z</time></trkpt><trkpt lat="44.3603633" lon="11.2821253"><ele>430.0</ele><time>2026-04-26T12:25:07.135Z</time></trkpt><trkpt lat="44.3603419" lon="11.282264"><ele>427.4</ele><time>2026-04-26T12:25:09.124Z</time></trkpt><trkpt lat="44.3603128" lon="11.2823967"><ele>424.8</ele><time>2026-04-26T12:25:11.123Z</time></trkpt><trkpt lat="44.360281" lon="11.282537"><ele>422.20000000000005</ele><time>2026-04-26T12:25:13.124Z</time></trkpt><trkpt lat="44.3602424" lon="11.2826815"><ele>419.6</ele><time>2026-04-26T12:25:15.136Z</time></trkpt><trkpt lat="44.3601962" lon="11.2828242"><ele>417.0</ele><time>2026-04-26T12:25:17.132Z</time></trkpt><trkpt lat="44.3601416" lon="11.2829615"><ele>417.0</ele><time>2026-04-26T12:25:19.125Z</time></trkpt><trkpt lat="44.3600837" lon="11.283096"><ele>417.0</ele><time>2026-04-26T12:25:21.128Z</time></trkpt><trkpt lat="44.3600285" lon="11.2832252"><ele>417.0</ele><time>2026-04-26T12:25:23.123Z</time></trkpt><trkpt lat="44.3599736" lon="11.2833529"><ele>417.0</ele><time>2026-04-26T12:25:25.124Z</time></trkpt><trkpt lat="44.3599208" lon="11.2834731"><ele>417.0</ele><time>2026-04-26T12:25:27.121Z</time></trkpt><trkpt lat="44.359856" lon="11.2835834"><ele>415.8</ele><time>2026-04-26T12:25:29.121Z</time></trkpt><trkpt lat="44.3597861" lon="11.2836811"><ele>414.6</ele><time>2026-04-26T12:25:31.122Z</time></trkpt><trkpt lat="44.3597128" lon="11.2837789"><ele>413.40000000000003</ele><time>2026-04-26T12:25:33.127Z</time></trkpt><trkpt lat="44.3596422" lon="11.2838683"><ele>412.20000000000005</ele><time>2026-04-26T12:25:35.12Z</time></trkpt><trkpt lat="44.3595715" lon="11.2839492"><ele>411.0</ele><time>2026-04-26T12:25:37.125Z</time></trkpt><trkpt lat="44.3595012" lon="11.2840173"><ele>411.0</ele><time>2026-04-26T12:25:39.119Z</time></trkpt><trkpt lat="44.3594312" lon="11.2840951"><ele>411.0</ele><time>2026-04-26T12:25:41.122Z</time></trkpt><trkpt lat="44.3593589" lon="11.2841772"><ele>411.0</ele><time>2026-04-26T12:25:43.12Z</time></trkpt><trkpt lat="44.3592823" lon="11.2842635"><ele>411.0</ele><time>2026-04-26T12:25:45.121Z</time></trkpt><trkpt lat="44.3592022" lon="11.2843679"><ele>411.0</ele><time>2026-04-26T12:25:47.123Z</time></trkpt><trkpt lat="44.3591197" lon="11.2844722"><ele>411.0</ele><time>2026-04-26T12:25:49.127Z</time></trkpt><trkpt lat="44.359041" lon="11.2845789"><ele>411.0</ele><time>2026-04-26T12:25:51.112Z</time></trkpt><trkpt lat="44.3589647" lon="11.2846841"><ele>411.0</ele><time>2026-04-26T12:25:53.128Z</time></trkpt><trkpt lat="44.3588938" lon="11.2847894"><ele>411.0</ele><time>2026-04-26T12:25:55.127Z</time></trkpt><trkpt lat="44.3588226" lon="11.284895"><ele>411.0</ele><time>2026-04-26T12:25:57.123Z</time></trkpt><trkpt lat="44.3587524" lon="11.2849994"><ele>413.20000000000005</ele><time>2026-04-26T12:25:59.122Z</time></trkpt><trkpt lat="44.3586885" lon="11.2851094"><ele>415.40000000000003</ele><time>2026-04-26T12:26:01.124Z</time></trkpt><trkpt lat="44.3586277" lon="11.285216"><ele>417.6</ele><time>2026-04-26T12:26:03.123Z</time></trkpt><trkpt lat="44.3585692" lon="11.2853243"><ele>419.8</ele><time>2026-04-26T12:26:05.125Z</time></trkpt><trkpt lat="44.3585162" lon="11.2854294"><ele>422.0</ele><time>2026-04-26T12:26:07.124Z</time></trkpt><trkpt lat="44.3584687" lon="11.2855262"><ele>419.49999999999994</ele><time>2026-04-26T12:26:09.13Z</time></trkpt><trkpt lat="44.3584221" lon="11.2856195"><ele>417.0</ele><time>2026-04-26T12:26:11.115Z</time></trkpt><trkpt lat="44.3583893" lon="11.2857014"><ele>414.5</ele><time>2026-04-26T12:26:13.123Z</time></trkpt><trkpt lat="44.3583428" lon="11.2858021"><ele>412.0</ele><time>2026-04-26T12:26:15.123Z</time></trkpt><trkpt lat="44.3582785" lon="11.2859128"><ele>409.49999999999994</ele><time>2026-04-26T12:26:17.129Z</time></trkpt><trkpt lat="44.3582166" lon="11.2860368"><ele>407.0</ele><time>2026-04-26T12:26:19.117Z</time></trkpt><trkpt lat="44.3581647" lon="11.2861614"><ele>407.0</ele><time>2026-04-26T12:26:21.123Z</time></trkpt><trkpt lat="44.3581808" lon="11.2863144"><ele>407.0</ele><time>2026-04-26T12:26:23.124Z</time></trkpt><trkpt lat="44.3582635" lon="11.2863976"><ele>407.0</ele><time>2026-04-26T12:26:25.126Z</time></trkpt><trkpt lat="44.358366" lon="11.2863786"><ele>407.0</ele><time>2026-04-26T12:26:27.116Z</time></trkpt><trkpt lat="44.35845" lon="11.286325"><ele>407.0</ele><time>2026-04-26T12:26:29.119Z</time></trkpt><trkpt lat="44.3585309" lon="11.2862564"><ele>406.99999999999994</ele><time>2026-04-26T12:26:31.11Z</time></trkpt><trkpt lat="44.3586078" lon="11.2861951"><ele>407.0</ele><time>2026-04-26T12:26:33.12Z</time></trkpt><trkpt lat="44.3586795" lon="11.2861427"><ele>407.0</ele><time>2026-04-26T12:26:35.129Z</time></trkpt><trkpt lat="44.358738" lon="11.2861013"><ele>407.0</ele><time>2026-04-26T12:26:37.119Z</time></trkpt><trkpt lat="44.358816" lon="11.2860398"><ele>406.99999999999994</ele><time>2026-04-26T12:26:40.118Z</time></trkpt><trkpt lat="44.3588895" lon="11.2859942"><ele>407.0</ele><time>2026-04-26T12:26:43.12Z</time></trkpt><trkpt lat="44.3589544" lon="11.2859378"><ele>405.5714285714286</ele><time>2026-04-26T12:26:46.12Z</time></trkpt><trkpt lat="44.3590134" lon="11.2858869"><ele>404.14285714285717</ele><time>2026-04-26T12:26:49.119Z</time></trkpt><trkpt lat="44.359073" lon="11.2858296"><ele>402.7142857142857</ele><time>2026-04-26T12:26:52.12Z</time></trkpt><trkpt lat="44.3591268" lon="11.2857657"><ele>401.28571428571433</ele><time>2026-04-26T12:26:56.121Z</time></trkpt><trkpt lat="44.3591781" lon="11.285705"><ele>399.85714285714283</ele><time>2026-04-26T12:26:59.119Z</time></trkpt><trkpt lat="44.3592406" lon="11.2856298"><ele>398.42857142857144</ele><time>2026-04-26T12:27:02.122Z</time></trkpt><trkpt lat="44.3592979" lon="11.2855686"><ele>397.0</ele><time>2026-04-26T12:27:05.124Z</time></trkpt><trkpt lat="44.3593619" lon="11.2855157"><ele>395.83333333333337</ele><time>2026-04-26T12:27:08.12Z</time></trkpt><trkpt lat="44.359446" lon="11.2854725"><ele>394.6666666666667</ele><time>2026-04-26T12:27:11.118Z</time></trkpt><trkpt lat="44.3595243" lon="11.2854244"><ele>393.5</ele><time>2026-04-26T12:27:14.118Z</time></trkpt><trkpt lat="44.359598" lon="11.2853882"><ele>392.33333333333337</ele><time>2026-04-26T12:27:17.124Z</time></trkpt><trkpt lat="44.3596694" lon="11.2853524"><ele>391.1666666666667</ele><time>2026-04-26T12:27:20.125Z</time></trkpt><trkpt lat="44.3597406" lon="11.2853234"><ele>390.0</ele><time>2026-04-26T12:27:23.133Z</time></trkpt><trkpt lat="44.3598127" lon="11.2852986"><ele>389.4</ele><time>2026-04-26T12:27:26.129Z</time></trkpt><trkpt lat="44.3598933" lon="11.2852832"><ele>388.8</ele><time>2026-04-26T12:27:29.131Z</time></trkpt><trkpt lat="44.3599633" lon="11.2852717"><ele>388.20000000000005</ele><time>2026-04-26T12:27:31.124Z</time></trkpt><trkpt lat="44.3600492" lon="11.2852605"><ele>387.6</ele><time>2026-04-26T12:27:33.127Z</time></trkpt><trkpt lat="44.3601494" lon="11.2852426"><ele>387.0</ele><time>2026-04-26T12:27:35.125Z</time></trkpt><trkpt lat="44.3602656" lon="11.2852388"><ele>387.0</ele><time>2026-04-26T12:27:37.123Z</time></trkpt><trkpt lat="44.3603299" lon="11.2852429"><ele>387.0</ele><time>2026-04-26T12:27:38.127Z</time></trkpt><trkpt lat="44.3603976" lon="11.2852529"><ele>387.0</ele><time>2026-04-26T12:27:39.122Z</time></trkpt><trkpt lat="44.3604677" lon="11.2852726"><ele>387.0</ele><time>2026-04-26T12:27:40.123Z</time></trkpt><trkpt lat="44.3605375" lon="11.2853018"><ele>387.0</ele><time>2026-04-26T12:27:41.114Z</time></trkpt><trkpt lat="44.3606052" lon="11.2853415"><ele>387.0</ele><time>2026-04-26T12:27:42.119Z</time></trkpt><trkpt lat="44.3606692" lon="11.2853935"><ele>387.0</ele><time>2026-04-26T12:27:43.123Z</time></trkpt><trkpt lat="44.3607272" lon="11.2854572"><ele>387.2857142857143</ele><time>2026-04-26T12:27:44.115Z</time></trkpt><trkpt lat="44.3607797" lon="11.2855274"><ele>387.57142857142856</ele><time>2026-04-26T12:27:45.116Z</time></trkpt><trkpt lat="44.3608296" lon="11.2855995"><ele>387.8571428571429</ele><time>2026-04-26T12:27:46.115Z</time></trkpt><trkpt lat="44.360878" lon="11.2856713"><ele>388.1428571428571</ele><time>2026-04-26T12:27:47.121Z</time></trkpt><trkpt lat="44.3609233" lon="11.2857412"><ele>388.4285714285714</ele><time>2026-04-26T12:27:48.122Z</time></trkpt><trkpt lat="44.3609694" lon="11.2858083"><ele>388.7142857142857</ele><time>2026-04-26T12:27:49.122Z</time></trkpt><trkpt lat="44.3610148" lon="11.2858713"><ele>389.0</ele><time>2026-04-26T12:27:50.126Z</time></trkpt><trkpt lat="44.3611061" lon="11.2859784"><ele>391.49999999999994</ele><time>2026-04-26T12:27:52.118Z</time></trkpt><trkpt lat="44.3611902" lon="11.2860578"><ele>394.0</ele><time>2026-04-26T12:27:54.121Z</time></trkpt><trkpt lat="44.3612657" lon="11.2861205"><ele>396.5</ele><time>2026-04-26T12:27:56.131Z</time></trkpt><trkpt lat="44.3613367" lon="11.2861675"><ele>399.0</ele><time>2026-04-26T12:27:58.138Z</time></trkpt><trkpt lat="44.361399" lon="11.2862021"><ele>401.49999999999994</ele><time>2026-04-26T12:28:00.122Z</time></trkpt><trkpt lat="44.3614583" lon="11.2862354"><ele>404.0</ele><time>2026-04-26T12:28:02.12Z</time></trkpt><trkpt lat="44.3615436" lon="11.2862871"><ele>403.99999999999994</ele><time>2026-04-26T12:28:05.13Z</time></trkpt><trkpt lat="44.3616302" lon="11.2863343"><ele>404.0</ele><time>2026-04-26T12:28:08.119Z</time></trkpt><trkpt lat="44.3616895" lon="11.2863659"><ele>404.0</ele><time>2026-04-26T12:28:10.117Z</time></trkpt><trkpt lat="44.3617485" lon="11.2863991"><ele>404.0</ele><time>2026-04-26T12:28:12.121Z</time></trkpt><trkpt lat="44.3618082" lon="11.286434"><ele>403.99999999999994</ele><time>2026-04-26T12:28:14.12Z</time></trkpt><trkpt lat="44.3618931" lon="11.2864855"><ele>404.0</ele><time>2026-04-26T12:28:17.121Z</time></trkpt><trkpt lat="44.3619765" lon="11.2865393"><ele>404.3333333333333</ele><time>2026-04-26T12:28:20.124Z</time></trkpt><trkpt lat="44.3620359" lon="11.2865788"><ele>404.66666666666663</ele><time>2026-04-26T12:28:22.124Z</time></trkpt><trkpt lat="44.3620926" lon="11.2866206"><ele>405.0</ele><time>2026-04-26T12:28:24.114Z</time></trkpt><trkpt lat="44.3621734" lon="11.2866694"><ele>405.33333333333337</ele><time>2026-04-26T12:28:27.126Z</time></trkpt><trkpt lat="44.3622611" lon="11.2867251"><ele>405.6666666666667</ele><time>2026-04-26T12:28:30.122Z</time></trkpt><trkpt lat="44.3623442" lon="11.2867751"><ele>406.0</ele><time>2026-04-26T12:28:33.124Z</time></trkpt><trkpt lat="44.3624264" lon="11.2868204"><ele>407.50000000000006</ele><time>2026-04-26T12:28:36.118Z</time></trkpt><trkpt lat="44.3625043" lon="11.2868538"><ele>409.0</ele><time>2026-04-26T12:28:39.12Z</time></trkpt><trkpt lat="44.3625696" lon="11.2868843"><ele>410.5</ele><time>2026-04-26T12:28:42.113Z</time></trkpt><trkpt lat="44.3626488" lon="11.2869085"><ele>412.0</ele><time>2026-04-26T12:28:46.12Z</time></trkpt><trkpt lat="44.3627316" lon="11.286934"><ele>413.50000000000006</ele><time>2026-04-26T12:28:50.117Z</time></trkpt><trkpt lat="44.3628044" lon="11.2869468"><ele>415.0</ele><time>2026-04-26T12:28:54.121Z</time></trkpt><trkpt lat="44.3628677" lon="11.2869589"><ele>415.00000000000006</ele><time>2026-04-26T12:28:58.113Z</time></trkpt><trkpt lat="44.3629523" lon="11.2869817"><ele>415.0</ele><time>2026-04-26T12:29:03.117Z</time></trkpt><trkpt lat="44.363029" lon="11.2870158"><ele>415.0</ele><time>2026-04-26T12:29:07.125Z</time></trkpt><trkpt lat="44.3631017" lon="11.2870545"><ele>415.0</ele><time>2026-04-26T12:29:11.126Z</time></trkpt><trkpt lat="44.3631643" lon="11.2870807"><ele>415.00000000000006</ele><time>2026-04-26T12:29:15.126Z</time></trkpt><trkpt lat="44.3632291" lon="11.2871058"><ele>415.0</ele><time>2026-04-26T12:29:19.121Z</time></trkpt><trkpt lat="44.363302" lon="11.2871482"><ele>416.2857142857143</ele><time>2026-04-26T12:29:23.126Z</time></trkpt><trkpt lat="44.363365" lon="11.2871828"><ele>417.57142857142856</ele><time>2026-04-26T12:29:27.122Z</time></trkpt><trkpt lat="44.3634368" lon="11.2872084"><ele>418.8571428571429</ele><time>2026-04-26T12:29:31.125Z</time></trkpt><trkpt lat="44.3635096" lon="11.287245"><ele>420.1428571428571</ele><time>2026-04-26T12:29:35.121Z</time></trkpt><trkpt lat="44.3635867" lon="11.2872721"><ele>421.4285714285714</ele><time>2026-04-26T12:29:39.121Z</time></trkpt><trkpt lat="44.363658" lon="11.2873002"><ele>422.7142857142857</ele><time>2026-04-26T12:29:43.127Z</time></trkpt><trkpt lat="44.3637284" lon="11.2873222"><ele>424.0</ele><time>2026-04-26T12:29:47.121Z</time></trkpt><trkpt lat="44.3637983" lon="11.2873628"><ele>424.00000000000006</ele><time>2026-04-26T12:29:51.113Z</time></trkpt><trkpt lat="44.3638624" lon="11.2874021"><ele>424.0</ele><time>2026-04-26T12:29:55.119Z</time></trkpt><trkpt lat="44.3639208" lon="11.2874398"><ele>424.0</ele><time>2026-04-26T12:29:58.122Z</time></trkpt><trkpt lat="44.3639829" lon="11.2874829"><ele>424.0</ele><time>2026-04-26T12:30:01.131Z</time></trkpt><trkpt lat="44.364046" lon="11.2875389"><ele>424.00000000000006</ele><time>2026-04-26T12:30:04.123Z</time></trkpt><trkpt lat="44.3641165" lon="11.287604"><ele>424.0</ele><time>2026-04-26T12:30:07.117Z</time></trkpt><trkpt lat="44.3641974" lon="11.2876744"><ele>425.6666666666667</ele><time>2026-04-26T12:30:10.118Z</time></trkpt><trkpt lat="44.3642715" lon="11.2877321"><ele>427.33333333333337</ele><time>2026-04-26T12:30:12.132Z</time></trkpt><trkpt lat="44.364361" lon="11.2877885"><ele>429.0</ele><time>2026-04-26T12:30:14.122Z</time></trkpt><trkpt lat="44.3644624" lon="11.2878717"><ele>430.66666666666663</ele><time>2026-04-26T12:30:16.127Z</time></trkpt><trkpt lat="44.364517" lon="11.2879224"><ele>432.3333333333333</ele><time>2026-04-26T12:30:17.124Z</time></trkpt><trkpt lat="44.3645778" lon="11.2879839"><ele>434.0</ele><time>2026-04-26T12:30:18.114Z</time></trkpt><trkpt lat="44.3646379" lon="11.2880616"><ele>434.16666666666663</ele><time>2026-04-26T12:30:19.116Z</time></trkpt><trkpt lat="44.3646934" lon="11.2881419"><ele>434.3333333333333</ele><time>2026-04-26T12:30:20.118Z</time></trkpt><trkpt lat="44.364744" lon="11.2882297"><ele>434.5</ele><time>2026-04-26T12:30:21.13Z</time></trkpt><trkpt lat="44.3647929" lon="11.2883202"><ele>434.66666666666663</ele><time>2026-04-26T12:30:22.128Z</time></trkpt><trkpt lat="44.3648403" lon="11.2884081"><ele>434.8333333333333</ele><time>2026-04-26T12:30:23.12Z</time></trkpt><trkpt lat="44.3648854" lon="11.2884963"><ele>435.0</ele><time>2026-04-26T12:30:24.12Z</time></trkpt><trkpt lat="44.3649302" lon="11.2885836"><ele>433.42857142857144</ele><time>2026-04-26T12:30:25.118Z</time></trkpt><trkpt lat="44.3649731" lon="11.2886705"><ele>431.8571428571429</ele><time>2026-04-26T12:30:26.119Z</time></trkpt><trkpt lat="44.3650149" lon="11.2887551"><ele>430.28571428571433</ele><time>2026-04-26T12:30:27.125Z</time></trkpt><trkpt lat="44.365056" lon="11.2888359"><ele>428.7142857142857</ele><time>2026-04-26T12:30:28.124Z</time></trkpt><trkpt lat="44.3650962" lon="11.2889149"><ele>427.1428571428571</ele><time>2026-04-26T12:30:29.127Z</time></trkpt><trkpt lat="44.3651358" lon="11.2889952"><ele>425.5714285714286</ele><time>2026-04-26T12:30:30.117Z</time></trkpt><trkpt lat="44.365173" lon="11.289077"><ele>424.0</ele><time>2026-04-26T12:30:31.12Z</time></trkpt><trkpt lat="44.3652093" lon="11.2891601"><ele>424.00000000000006</ele><time>2026-04-26T12:30:32.121Z</time></trkpt><trkpt lat="44.3652419" lon="11.289245"><ele>424.0</ele><time>2026-04-26T12:30:33.123Z</time></trkpt><trkpt lat="44.3652669" lon="11.2893338"><ele>424.0</ele><time>2026-04-26T12:30:34.127Z</time></trkpt><trkpt lat="44.3652873" lon="11.2894285"><ele>424.0</ele><time>2026-04-26T12:30:35.129Z</time></trkpt><trkpt lat="44.3653075" lon="11.2895294"><ele>424.00000000000006</ele><time>2026-04-26T12:30:36.132Z</time></trkpt><trkpt lat="44.3653301" lon="11.289638"><ele>424.0</ele><time>2026-04-26T12:30:37.125Z</time></trkpt><trkpt lat="44.3653577" lon="11.2897543"><ele>424.4</ele><time>2026-04-26T12:30:38.134Z</time></trkpt><trkpt lat="44.3653856" lon="11.2898781"><ele>424.79999999999995</ele><time>2026-04-26T12:30:39.124Z</time></trkpt><trkpt lat="44.365414" lon="11.2900039"><ele>425.20000000000005</ele><time>2026-04-26T12:30:40.125Z</time></trkpt><trkpt lat="44.3654428" lon="11.2901321"><ele>425.6</ele><time>2026-04-26T12:30:41.119Z</time></trkpt><trkpt lat="44.3654705" lon="11.2902653"><ele>426.0</ele><time>2026-04-26T12:30:42.127Z</time></trkpt><trkpt lat="44.3654989" lon="11.2903978"><ele>426.0</ele><time>2026-04-26T12:30:43.129Z</time></trkpt><trkpt lat="44.3655268" lon="11.2905264"><ele>426.0</ele><time>2026-04-26T12:30:44.119Z</time></trkpt><trkpt lat="44.3655544" lon="11.2906512"><ele>426.0</ele><time>2026-04-26T12:30:45.12Z</time></trkpt><trkpt lat="44.3655803" lon="11.2907765"><ele>426.0</ele><time>2026-04-26T12:30:46.127Z</time></trkpt><trkpt lat="44.3656038" lon="11.2908999"><ele>426.0</ele><time>2026-04-26T12:30:47.128Z</time></trkpt><trkpt lat="44.3656268" lon="11.2910198"><ele>423.5</ele><time>2026-04-26T12:30:48.123Z</time></trkpt><trkpt lat="44.3656493" lon="11.2911356"><ele>421.0</ele><time>2026-04-26T12:30:49.12Z</time></trkpt><trkpt lat="44.3656702" lon="11.291243"><ele>418.5</ele><time>2026-04-26T12:30:50.119Z</time></trkpt><trkpt lat="44.3656908" lon="11.2913509"><ele>416.0</ele><time>2026-04-26T12:30:51.119Z</time></trkpt><trkpt lat="44.3657099" lon="11.2914627"><ele>413.5</ele><time>2026-04-26T12:30:52.11Z</time></trkpt><trkpt lat="44.3657213" lon="11.2915873"><ele>411.0</ele><time>2026-04-26T12:30:53.103Z</time></trkpt><trkpt lat="44.3657309" lon="11.2917114"><ele>410.4</ele><time>2026-04-26T12:30:54.132Z</time></trkpt><trkpt lat="44.3657396" lon="11.2918317"><ele>409.8</ele><time>2026-04-26T12:30:55.119Z</time></trkpt><trkpt lat="44.3657513" lon="11.2919621"><ele>409.2</ele><time>2026-04-26T12:30:56.129Z</time></trkpt><trkpt lat="44.3657648" lon="11.2920977"><ele>408.59999999999997</ele><time>2026-04-26T12:30:57.133Z</time></trkpt><trkpt lat="44.3657744" lon="11.2922409"><ele>408.0</ele><time>2026-04-26T12:30:58.128Z</time></trkpt><trkpt lat="44.3657789" lon="11.292396"><ele>406.5</ele><time>2026-04-26T12:30:59.121Z</time></trkpt><trkpt lat="44.36578" lon="11.2925577"><ele>405.0</ele><time>2026-04-26T12:31:00.129Z</time></trkpt><trkpt lat="44.3657822" lon="11.2927282"><ele>403.5</ele><time>2026-04-26T12:31:01.13Z</time></trkpt><trkpt lat="44.3657844" lon="11.2929073"><ele>402.0</ele><time>2026-04-26T12:31:02.121Z</time></trkpt><trkpt lat="44.365788" lon="11.2930933"><ele>401.5</ele><time>2026-04-26T12:31:03.115Z</time></trkpt><trkpt lat="44.3657938" lon="11.2932825"><ele>401.0</ele><time>2026-04-26T12:31:04.13Z</time></trkpt><trkpt lat="44.3658132" lon="11.2934617"><ele>400.5</ele><time>2026-04-26T12:31:05.115Z</time></trkpt><trkpt lat="44.3658553" lon="11.2936328"><ele>400.0</ele><time>2026-04-26T12:31:06.129Z</time></trkpt><trkpt lat="44.3659165" lon="11.293783"><ele>400.0</ele><time>2026-04-26T12:31:07.119Z</time></trkpt><trkpt lat="44.3659976" lon="11.2939066"><ele>400.0</ele><time>2026-04-26T12:31:08.125Z</time></trkpt><trkpt lat="44.3660931" lon="11.2940073"><ele>400.0</ele><time>2026-04-26T12:31:09.114Z</time></trkpt><trkpt lat="44.3661944" lon="11.2940931"><ele>400.0</ele><time>2026-04-26T12:31:10.126Z</time></trkpt><trkpt lat="44.3662939" lon="11.2941755"><ele>395.8</ele><time>2026-04-26T12:31:11.123Z</time></trkpt><trkpt lat="44.366377" lon="11.2942681"><ele>391.6</ele><time>2026-04-26T12:31:12.127Z</time></trkpt><trkpt lat="44.3664607" lon="11.2943641"><ele>387.4</ele><time>2026-04-26T12:31:13.125Z</time></trkpt><trkpt lat="44.3665151" lon="11.2944936"><ele>383.2</ele><time>2026-04-26T12:31:14.121Z</time></trkpt><trkpt lat="44.3665409" lon="11.2946377"><ele>379.0</ele><time>2026-04-26T12:31:15.13Z</time></trkpt><trkpt lat="44.3665221" lon="11.2947807"><ele>379.0</ele><time>2026-04-26T12:31:16.131Z</time></trkpt><trkpt lat="44.3664918" lon="11.2949149"><ele>379.0</ele><time>2026-04-26T12:31:17.127Z</time></trkpt><trkpt lat="44.366463" lon="11.2950421"><ele>379.0</ele><time>2026-04-26T12:31:18.13Z</time></trkpt><trkpt lat="44.3664411" lon="11.2951653"><ele>379.0</ele><time>2026-04-26T12:31:19.121Z</time></trkpt><trkpt lat="44.3664268" lon="11.2952862"><ele>379.0</ele><time>2026-04-26T12:31:20.13Z</time></trkpt><trkpt lat="44.3664186" lon="11.2953986"><ele>379.0</ele><time>2026-04-26T12:31:21.129Z</time></trkpt><trkpt lat="44.3664138" lon="11.2955091"><ele>379.0</ele><time>2026-04-26T12:31:22.127Z</time></trkpt><trkpt lat="44.3664082" lon="11.2956163"><ele>379.0</ele><time>2026-04-26T12:31:23.122Z</time></trkpt><trkpt lat="44.3664058" lon="11.2957232"><ele>379.0</ele><time>2026-04-26T12:31:24.123Z</time></trkpt><trkpt lat="44.3664038" lon="11.2958304"><ele>379.0</ele><time>2026-04-26T12:31:25.126Z</time></trkpt><trkpt lat="44.3664047" lon="11.2959367"><ele>379.0</ele><time>2026-04-26T12:31:26.132Z</time></trkpt><trkpt lat="44.3664004" lon="11.2960457"><ele>378.5</ele><time>2026-04-26T12:31:27.126Z</time></trkpt><trkpt lat="44.3663926" lon="11.2961551"><ele>378.0</ele><time>2026-04-26T12:31:28.13Z</time></trkpt><trkpt lat="44.3663847" lon="11.296263"><ele>377.5</ele><time>2026-04-26T12:31:29.128Z</time></trkpt><trkpt lat="44.3663784" lon="11.2963674"><ele>377.0</ele><time>2026-04-26T12:31:30.114Z</time></trkpt><trkpt lat="44.3663718" lon="11.2964674"><ele>376.5</ele><time>2026-04-26T12:31:31.124Z</time></trkpt><trkpt lat="44.3663658" lon="11.2965615"><ele>376.0</ele><time>2026-04-26T12:31:32.126Z</time></trkpt><trkpt lat="44.3663501" lon="11.2967342"><ele>376.0</ele><time>2026-04-26T12:31:34.122Z</time></trkpt><trkpt lat="44.3663401" lon="11.2968237"><ele>376.0</ele><time>2026-04-26T12:31:35.125Z</time></trkpt><trkpt lat="44.3663252" lon="11.2969179"><ele>376.0</ele><time>2026-04-26T12:31:36.123Z</time></trkpt><trkpt lat="44.3663143" lon="11.2970062"><ele>376.0</ele><time>2026-04-26T12:31:37.123Z</time></trkpt><trkpt lat="44.3663039" lon="11.2970936"><ele>376.0</ele><time>2026-04-26T12:31:38.127Z</time></trkpt><trkpt lat="44.3662851" lon="11.297261"><ele>376.0</ele><time>2026-04-26T12:31:40.13Z</time></trkpt><trkpt lat="44.3662529" lon="11.2974314"><ele>376.2857142857143</ele><time>2026-04-26T12:31:42.123Z</time></trkpt><trkpt lat="44.3662365" lon="11.2975174"><ele>376.57142857142856</ele><time>2026-04-26T12:31:43.121Z</time></trkpt><trkpt lat="44.3662109" lon="11.2976057"><ele>376.8571428571429</ele><time>2026-04-26T12:31:44.118Z</time></trkpt><trkpt lat="44.3661916" lon="11.2976923"><ele>377.1428571428571</ele><time>2026-04-26T12:31:45.128Z</time></trkpt><trkpt lat="44.3661558" lon="11.2977832"><ele>377.42857142857144</ele><time>2026-04-26T12:31:46.133Z</time></trkpt><trkpt lat="44.3661186" lon="11.2978767"><ele>377.7142857142857</ele><time>2026-04-26T12:31:47.132Z</time></trkpt><trkpt lat="44.3660802" lon="11.2979719"><ele>378.0</ele><time>2026-04-26T12:31:48.12Z</time></trkpt><trkpt lat="44.3660433" lon="11.298069"><ele>378.6666666666667</ele><time>2026-04-26T12:31:49.12Z</time></trkpt><trkpt lat="44.3660051" lon="11.2981666"><ele>379.3333333333333</ele><time>2026-04-26T12:31:50.128Z</time></trkpt><trkpt lat="44.3659683" lon="11.2982584"><ele>380.0</ele><time>2026-04-26T12:31:51.126Z</time></trkpt><trkpt lat="44.3659317" lon="11.298351"><ele>380.66666666666663</ele><time>2026-04-26T12:31:52.12Z</time></trkpt><trkpt lat="44.3658953" lon="11.2984462"><ele>381.3333333333333</ele><time>2026-04-26T12:31:53.124Z</time></trkpt><trkpt lat="44.3658585" lon="11.2985507"><ele>382.0</ele><time>2026-04-26T12:31:54.131Z</time></trkpt><trkpt lat="44.3658206" lon="11.2986563"><ele>382.0</ele><time>2026-04-26T12:31:55.132Z</time></trkpt><trkpt lat="44.3657847" lon="11.2987554"><ele>382.0</ele><time>2026-04-26T12:31:56.133Z</time></trkpt><trkpt lat="44.3657609" lon="11.2988678"><ele>382.0</ele><time>2026-04-26T12:31:57.126Z</time></trkpt><trkpt lat="44.365737" lon="11.2989828"><ele>382.0</ele><time>2026-04-26T12:31:58.126Z</time></trkpt><trkpt lat="44.365721" lon="11.2991074"><ele>382.0</ele><time>2026-04-26T12:31:59.13Z</time></trkpt><trkpt lat="44.365704" lon="11.2992272"><ele>382.0</ele><time>2026-04-26T12:32:00.133Z</time></trkpt><trkpt lat="44.3657097" lon="11.2993622"><ele>381.20000000000005</ele><time>2026-04-26T12:32:01.119Z</time></trkpt><trkpt lat="44.3657379" lon="11.2994899"><ele>380.4</ele><time>2026-04-26T12:32:02.128Z</time></trkpt><trkpt lat="44.3657867" lon="11.2996058"><ele>379.6</ele><time>2026-04-26T12:32:03.129Z</time></trkpt><trkpt lat="44.3658551" lon="11.2997058"><ele>378.79999999999995</ele><time>2026-04-26T12:32:04.131Z</time></trkpt><trkpt lat="44.3659239" lon="11.299802"><ele>378.0</ele><time>2026-04-26T12:32:05.121Z</time></trkpt><trkpt lat="44.3660172" lon="11.2998637"><ele>377.4</ele><time>2026-04-26T12:32:06.116Z</time></trkpt><trkpt lat="44.3661079" lon="11.2999252"><ele>376.79999999999995</ele><time>2026-04-26T12:32:07.118Z</time></trkpt><trkpt lat="44.3661985" lon="11.3000019"><ele>376.2</ele><time>2026-04-26T12:32:08.117Z</time></trkpt><trkpt lat="44.3662786" lon="11.3001054"><ele>375.6</ele><time>2026-04-26T12:32:09.13Z</time></trkpt><trkpt lat="44.3663469" lon="11.3002239"><ele>375.0</ele><time>2026-04-26T12:32:10.126Z</time></trkpt><trkpt lat="44.3664152" lon="11.3003428"><ele>374.0</ele><time>2026-04-26T12:32:11.119Z</time></trkpt><trkpt lat="44.3664681" lon="11.300478"><ele>373.0</ele><time>2026-04-26T12:32:12.124Z</time></trkpt><trkpt lat="44.366535" lon="11.3006057"><ele>372.0</ele><time>2026-04-26T12:32:13.124Z</time></trkpt><trkpt lat="44.3666034" lon="11.3007242"><ele>371.0</ele><time>2026-04-26T12:32:14.13Z</time></trkpt><trkpt lat="44.366673" lon="11.3008436"><ele>370.0</ele><time>2026-04-26T12:32:15.128Z</time></trkpt><trkpt lat="44.3667553" lon="11.3009597"><ele>370.0</ele><time>2026-04-26T12:32:16.132Z</time></trkpt><trkpt lat="44.3668402" lon="11.3010714"><ele>370.0</ele><time>2026-04-26T12:32:17.12Z</time></trkpt><trkpt lat="44.3669273" lon="11.3011806"><ele>370.0</ele><time>2026-04-26T12:32:18.123Z</time></trkpt><trkpt lat="44.3670196" lon="11.3012899"><ele>370.0</ele><time>2026-04-26T12:32:19.138Z</time></trkpt><trkpt lat="44.367117" lon="11.3013916"><ele>368.0</ele><time>2026-04-26T12:32:20.121Z</time></trkpt><trkpt lat="44.3672128" lon="11.3014909"><ele>366.0</ele><time>2026-04-26T12:32:21.12Z</time></trkpt><trkpt lat="44.36731" lon="11.3015839"><ele>364.0</ele><time>2026-04-26T12:32:22.125Z</time></trkpt><trkpt lat="44.3674102" lon="11.3016669"><ele>362.0</ele><time>2026-04-26T12:32:23.117Z</time></trkpt><trkpt lat="44.3675096" lon="11.3017514"><ele>362.0</ele><time>2026-04-26T12:32:24.13Z</time></trkpt><trkpt lat="44.3676067" lon="11.3018353"><ele>362.0</ele><time>2026-04-26T12:32:25.124Z</time></trkpt><trkpt lat="44.3676956" lon="11.3019343"><ele>362.0</ele><time>2026-04-26T12:32:26.13Z</time></trkpt><trkpt lat="44.3677739" lon="11.3020511"><ele>362.0</ele><time>2026-04-26T12:32:27.127Z</time></trkpt><trkpt lat="44.3678444" lon="11.3021782"><ele>361.6</ele><time>2026-04-26T12:32:28.126Z</time></trkpt><trkpt lat="44.367911" lon="11.3023079"><ele>361.20000000000005</ele><time>2026-04-26T12:32:29.121Z</time></trkpt><trkpt lat="44.3679782" lon="11.302436"><ele>360.8</ele><time>2026-04-26T12:32:30.127Z</time></trkpt><trkpt lat="44.3680391" lon="11.3025652"><ele>360.4</ele><time>2026-04-26T12:32:31.118Z</time></trkpt><trkpt lat="44.3680926" lon="11.3026993"><ele>360.0</ele><time>2026-04-26T12:32:32.124Z</time></trkpt><trkpt lat="44.3681295" lon="11.3028425"><ele>360.0</ele><time>2026-04-26T12:32:33.118Z</time></trkpt><trkpt lat="44.3681526" lon="11.3029923"><ele>360.0</ele><time>2026-04-26T12:32:34.139Z</time></trkpt><trkpt lat="44.3681698" lon="11.3031436"><ele>360.0</ele><time>2026-04-26T12:32:35.12Z</time></trkpt><trkpt lat="44.3681784" lon="11.3032931"><ele>360.0</ele><time>2026-04-26T12:32:36.123Z</time></trkpt><trkpt lat="44.3681796" lon="11.3034407"><ele>360.0</ele><time>2026-04-26T12:32:37.118Z</time></trkpt><trkpt lat="44.3681761" lon="11.3035866"><ele>360.6</ele><time>2026-04-26T12:32:38.117Z</time></trkpt><trkpt lat="44.3681615" lon="11.3037299"><ele>361.2</ele><time>2026-04-26T12:32:39.12Z</time></trkpt><trkpt lat="44.3681374" lon="11.3038719"><ele>361.79999999999995</ele><time>2026-04-26T12:32:40.127Z</time></trkpt><trkpt lat="44.368104" lon="11.3040123"><ele>362.4</ele><time>2026-04-26T12:32:41.121Z</time></trkpt><trkpt lat="44.3680587" lon="11.304149"><ele>363.0</ele><time>2026-04-26T12:32:42.129Z</time></trkpt><trkpt lat="44.3679933" lon="11.3042744"><ele>355.25</ele><time>2026-04-26T12:32:43.122Z</time></trkpt><trkpt lat="44.3679129" lon="11.304384"><ele>347.5</ele><time>2026-04-26T12:32:44.137Z</time></trkpt><trkpt lat="44.3678278" lon="11.3044904"><ele>339.75</ele><time>2026-04-26T12:32:45.124Z</time></trkpt><trkpt lat="44.3677435" lon="11.3046046"><ele>332.0</ele><time>2026-04-26T12:32:46.141Z</time></trkpt><trkpt lat="44.3676663" lon="11.3047297"><ele>335.25</ele><time>2026-04-26T12:32:47.123Z</time></trkpt><trkpt lat="44.3675971" lon="11.304862"><ele>338.5</ele><time>2026-04-26T12:32:48.128Z</time></trkpt><trkpt lat="44.367531" lon="11.3049939"><ele>341.75</ele><time>2026-04-26T12:32:49.125Z</time></trkpt><trkpt lat="44.3674596" lon="11.3051178"><ele>345.0</ele><time>2026-04-26T12:32:50.133Z</time></trkpt><trkpt lat="44.3673878" lon="11.305238"><ele>345.0</ele><time>2026-04-26T12:32:51.125Z</time></trkpt><trkpt lat="44.3673186" lon="11.3053562"><ele>345.0</ele><time>2026-04-26T12:32:52.126Z</time></trkpt><trkpt lat="44.3672813" lon="11.305486"><ele>345.0</ele><time>2026-04-26T12:32:53.115Z</time></trkpt><trkpt lat="44.3672494" lon="11.3056084"><ele>345.0</ele><time>2026-04-26T12:32:54.128Z</time></trkpt><trkpt lat="44.3672941" lon="11.3057273"><ele>345.0</ele><time>2026-04-26T12:32:55.126Z</time></trkpt><trkpt lat="44.3673416" lon="11.3058434"><ele>345.0</ele><time>2026-04-26T12:32:56.122Z</time></trkpt><trkpt lat="44.3674299" lon="11.3059223"><ele>345.0</ele><time>2026-04-26T12:32:57.123Z</time></trkpt><trkpt lat="44.3675277" lon="11.3059948"><ele>345.0</ele><time>2026-04-26T12:32:58.125Z</time></trkpt><trkpt lat="44.3676284" lon="11.3060688"><ele>345.0</ele><time>2026-04-26T12:32:59.123Z</time></trkpt><trkpt lat="44.3677299" lon="11.3061535"><ele>345.0</ele><time>2026-04-26T12:33:00.122Z</time></trkpt><trkpt lat="44.3678312" lon="11.3062459"><ele>345.0</ele><time>2026-04-26T12:33:01.136Z</time></trkpt><trkpt lat="44.3679359" lon="11.3063368"><ele>345.0</ele><time>2026-04-26T12:33:02.123Z</time></trkpt><trkpt lat="44.368045" lon="11.306414"><ele>345.0</ele><time>2026-04-26T12:33:03.124Z</time></trkpt><trkpt lat="44.3681638" lon="11.3064619"><ele>345.0</ele><time>2026-04-26T12:33:04.119Z</time></trkpt><trkpt lat="44.3682882" lon="11.3064672"><ele>347.4</ele><time>2026-04-26T12:33:05.13Z</time></trkpt><trkpt lat="44.3684071" lon="11.3064397"><ele>349.8</ele><time>2026-04-26T12:33:06.121Z</time></trkpt><trkpt lat="44.3685139" lon="11.306414"><ele>352.20000000000005</ele><time>2026-04-26T12:33:07.133Z</time></trkpt><trkpt lat="44.3686176" lon="11.3063937"><ele>354.6</ele><time>2026-04-26T12:33:08.127Z</time></trkpt><trkpt lat="44.3687225" lon="11.3063855"><ele>357.0</ele><time>2026-04-26T12:33:09.123Z</time></trkpt><trkpt lat="44.3688266" lon="11.3064004"><ele>349.20000000000005</ele><time>2026-04-26T12:33:10.123Z</time></trkpt><trkpt lat="44.3689275" lon="11.3064358"><ele>341.40000000000003</ele><time>2026-04-26T12:33:11.12Z</time></trkpt><trkpt lat="44.3690269" lon="11.3064799"><ele>333.6</ele><time>2026-04-26T12:33:12.118Z</time></trkpt><trkpt lat="44.3691292" lon="11.3065143"><ele>325.8</ele><time>2026-04-26T12:33:13.124Z</time></trkpt><trkpt lat="44.3692322" lon="11.3065251"><ele>318.0</ele><time>2026-04-26T12:33:14.127Z</time></trkpt><trkpt lat="44.369335" lon="11.3065344"><ele>318.0</ele><time>2026-04-26T12:33:15.119Z</time></trkpt><trkpt lat="44.3694348" lon="11.3064859"><ele>318.0</ele><time>2026-04-26T12:33:16.126Z</time></trkpt><trkpt lat="44.3695284" lon="11.3063965"><ele>318.0</ele><time>2026-04-26T12:33:17.128Z</time></trkpt><trkpt lat="44.3696215" lon="11.3062991"><ele>318.0</ele><time>2026-04-26T12:33:18.131Z</time></trkpt><trkpt lat="44.369712" lon="11.3061949"><ele>318.0</ele><time>2026-04-26T12:33:19.129Z</time></trkpt><trkpt lat="44.3697985" lon="11.3060851"><ele>318.0</ele><time>2026-04-26T12:33:20.127Z</time></trkpt><trkpt lat="44.3698837" lon="11.3059704"><ele>318.0</ele><time>2026-04-26T12:33:21.123Z</time></trkpt><trkpt lat="44.369966" lon="11.3058497"><ele>318.0</ele><time>2026-04-26T12:33:22.125Z</time></trkpt><trkpt lat="44.3700437" lon="11.3057274"><ele>318.0</ele><time>2026-04-26T12:33:23.131Z</time></trkpt><trkpt lat="44.3701208" lon="11.3056087"><ele>318.0</ele><time>2026-04-26T12:33:24.135Z</time></trkpt><trkpt lat="44.3701982" lon="11.3054925"><ele>318.0</ele><time>2026-04-26T12:33:25.116Z</time></trkpt><trkpt lat="44.3702757" lon="11.3053792"><ele>318.0</ele><time>2026-04-26T12:33:26.13Z</time></trkpt><trkpt lat="44.3703526" lon="11.3052643"><ele>320.8</ele><time>2026-04-26T12:33:27.121Z</time></trkpt><trkpt lat="44.370428" lon="11.3051523"><ele>323.6</ele><time>2026-04-26T12:33:28.122Z</time></trkpt><trkpt lat="44.3705028" lon="11.3050423"><ele>326.40000000000003</ele><time>2026-04-26T12:33:29.132Z</time></trkpt><trkpt lat="44.3705755" lon="11.3049356"><ele>329.20000000000005</ele><time>2026-04-26T12:33:30.132Z</time></trkpt><trkpt lat="44.3706491" lon="11.3048317"><ele>332.0</ele><time>2026-04-26T12:33:31.127Z</time></trkpt><trkpt lat="44.3707309" lon="11.3047221"><ele>324.25</ele><time>2026-04-26T12:33:32.132Z</time></trkpt><trkpt lat="44.3708324" lon="11.3046457"><ele>316.5</ele><time>2026-04-26T12:33:33.128Z</time></trkpt><trkpt lat="44.3709399" lon="11.3045772"><ele>308.75</ele><time>2026-04-26T12:33:34.126Z</time></trkpt><trkpt lat="44.3710609" lon="11.3045218"><ele>301.0</ele><time>2026-04-26T12:33:35.123Z</time></trkpt><trkpt lat="44.3711871" lon="11.3044608"><ele>301.0</ele><time>2026-04-26T12:33:36.123Z</time></trkpt><trkpt lat="44.3713114" lon="11.3043963"><ele>301.0</ele><time>2026-04-26T12:33:37.127Z</time></trkpt><trkpt lat="44.371438" lon="11.3043253"><ele>301.0</ele><time>2026-04-26T12:33:38.12Z</time></trkpt><trkpt lat="44.3715572" lon="11.3042455"><ele>301.0</ele><time>2026-04-26T12:33:39.121Z</time></trkpt><trkpt lat="44.3716797" lon="11.304189"><ele>300.0</ele><time>2026-04-26T12:33:40.115Z</time></trkpt><trkpt lat="44.3718134" lon="11.3041601"><ele>299.0</ele><time>2026-04-26T12:33:41.13Z</time></trkpt><trkpt lat="44.3719451" lon="11.304156"><ele>298.0</ele><time>2026-04-26T12:33:42.115Z</time></trkpt><trkpt lat="44.3720713" lon="11.3041561"><ele>297.0</ele><time>2026-04-26T12:33:43.129Z</time></trkpt><trkpt lat="44.372196" lon="11.3041844"><ele>295.0</ele><time>2026-04-26T12:33:44.124Z</time></trkpt><trkpt lat="44.372318" lon="11.3042202"><ele>293.0</ele><time>2026-04-26T12:33:45.128Z</time></trkpt><trkpt lat="44.3724322" lon="11.3042648"><ele>291.0</ele><time>2026-04-26T12:33:46.129Z</time></trkpt><trkpt lat="44.3725421" lon="11.3043086"><ele>289.0</ele><time>2026-04-26T12:33:47.118Z</time></trkpt><trkpt lat="44.3726494" lon="11.3043392"><ele>289.0</ele><time>2026-04-26T12:33:48.123Z</time></trkpt><trkpt lat="44.3727553" lon="11.3043412"><ele>289.0</ele><time>2026-04-26T12:33:49.12Z</time></trkpt><trkpt lat="44.3728574" lon="11.304312"><ele>289.0</ele><time>2026-04-26T12:33:50.131Z</time></trkpt><trkpt lat="44.3729546" lon="11.304254"><ele>289.0</ele><time>2026-04-26T12:33:51.13Z</time></trkpt><trkpt lat="44.3730467" lon="11.3041803"><ele>289.0</ele><time>2026-04-26T12:33:52.119Z</time></trkpt><trkpt lat="44.3731364" lon="11.3040987"><ele>289.0</ele><time>2026-04-26T12:33:53.138Z</time></trkpt><trkpt lat="44.3732244" lon="11.3040103"><ele>289.0</ele><time>2026-04-26T12:33:54.125Z</time></trkpt><trkpt lat="44.3733126" lon="11.3039217"><ele>289.0</ele><time>2026-04-26T12:33:55.122Z</time></trkpt><trkpt lat="44.3734017" lon="11.3038313"><ele>289.0</ele><time>2026-04-26T12:33:56.134Z</time></trkpt><trkpt lat="44.3734919" lon="11.3037412"><ele>289.0</ele><time>2026-04-26T12:33:57.128Z</time></trkpt><trkpt lat="44.3735863" lon="11.303653"><ele>284.5</ele><time>2026-04-26T12:33:58.123Z</time></trkpt><trkpt lat="44.3736832" lon="11.3035691"><ele>280.0</ele><time>2026-04-26T12:33:59.132Z</time></trkpt><trkpt lat="44.373784" lon="11.3034954"><ele>275.5</ele><time>2026-04-26T12:34:00.131Z</time></trkpt><trkpt lat="44.3738936" lon="11.3034502"><ele>271.0</ele><time>2026-04-26T12:34:01.126Z</time></trkpt><trkpt lat="44.374006" lon="11.3034547"><ele>271.0</ele><time>2026-04-26T12:34:02.128Z</time></trkpt><trkpt lat="44.3741133" lon="11.3034953"><ele>271.0</ele><time>2026-04-26T12:34:03.126Z</time></trkpt><trkpt lat="44.3742152" lon="11.3035507"><ele>271.0</ele><time>2026-04-26T12:34:04.117Z</time></trkpt><trkpt lat="44.3743128" lon="11.3036155"><ele>271.0</ele><time>2026-04-26T12:34:05.12Z</time></trkpt><trkpt lat="44.3744034" lon="11.3036902"><ele>271.0</ele><time>2026-04-26T12:34:06.122Z</time></trkpt><trkpt lat="44.3744848" lon="11.3037803"><ele>271.0</ele><time>2026-04-26T12:34:07.125Z</time></trkpt><trkpt lat="44.3745527" lon="11.3038856"><ele>271.0</ele><time>2026-04-26T12:34:08.12Z</time></trkpt><trkpt lat="44.374604" lon="11.3040034"><ele>271.0</ele><time>2026-04-26T12:34:09.119Z</time></trkpt><trkpt lat="44.3746548" lon="11.3041188"><ele>271.0</ele><time>2026-04-26T12:34:10.123Z</time></trkpt><trkpt lat="44.3747172" lon="11.3042184"><ele>271.0</ele><time>2026-04-26T12:34:11.127Z</time></trkpt><trkpt lat="44.3747787" lon="11.3043141"><ele>271.8333333333333</ele><time>2026-04-26T12:34:12.13Z</time></trkpt><trkpt lat="44.3748494" lon="11.3043812"><ele>272.66666666666663</ele><time>2026-04-26T12:34:13.123Z</time></trkpt><trkpt lat="44.3749204" lon="11.3044364"><ele>273.5</ele><time>2026-04-26T12:34:14.117Z</time></trkpt><trkpt lat="44.3749927" lon="11.3044829"><ele>274.3333333333333</ele><time>2026-04-26T12:34:15.123Z</time></trkpt><trkpt lat="44.3750723" lon="11.3045267"><ele>275.1666666666667</ele><time>2026-04-26T12:34:16.135Z</time></trkpt><trkpt lat="44.3751625" lon="11.3045586"><ele>276.0</ele><time>2026-04-26T12:34:17.115Z</time></trkpt><trkpt lat="44.3752474" lon="11.3045753"><ele>276.0</ele><time>2026-04-26T12:34:18.128Z</time></trkpt><trkpt lat="44.3753308" lon="11.3045805"><ele>276.0</ele><time>2026-04-26T12:34:19.118Z</time></trkpt><trkpt lat="44.375415" lon="11.3045793"><ele>276.0</ele><time>2026-04-26T12:34:20.122Z</time></trkpt><trkpt lat="44.3754953" lon="11.3045715"><ele>276.0</ele><time>2026-04-26T12:34:21.129Z</time></trkpt><trkpt lat="44.3755712" lon="11.3045464"><ele>276.0</ele><time>2026-04-26T12:34:22.124Z</time></trkpt><trkpt lat="44.3756414" lon="11.3045068"><ele>276.0</ele><time>2026-04-26T12:34:23.129Z</time></trkpt><trkpt lat="44.3757046" lon="11.3044591"><ele>275.1666666666667</ele><time>2026-04-26T12:34:24.117Z</time></trkpt><trkpt lat="44.3757604" lon="11.3044072"><ele>274.3333333333333</ele><time>2026-04-26T12:34:25.122Z</time></trkpt><trkpt lat="44.3758083" lon="11.3043475"><ele>273.5</ele><time>2026-04-26T12:34:26.13Z</time></trkpt><trkpt lat="44.375854" lon="11.3042864"><ele>272.66666666666663</ele><time>2026-04-26T12:34:27.119Z</time></trkpt><trkpt lat="44.375938" lon="11.3041657"><ele>271.8333333333333</ele><time>2026-04-26T12:34:29.121Z</time></trkpt><trkpt lat="44.3760144" lon="11.3040465"><ele>271.0</ele><time>2026-04-26T12:34:31.128Z</time></trkpt><trkpt lat="44.3760882" lon="11.3039286"><ele>271.75</ele><time>2026-04-26T12:34:33.118Z</time></trkpt><trkpt lat="44.3761686" lon="11.3038208"><ele>272.5</ele><time>2026-04-26T12:34:35.128Z</time></trkpt><trkpt lat="44.3762578" lon="11.3037201"><ele>273.25</ele><time>2026-04-26T12:34:37.129Z</time></trkpt><trkpt lat="44.3763563" lon="11.3036314"><ele>274.0</ele><time>2026-04-26T12:34:39.122Z</time></trkpt><trkpt lat="44.3764592" lon="11.303554"><ele>274.0</ele><time>2026-04-26T12:34:41.122Z</time></trkpt><trkpt lat="44.3765628" lon="11.303485"><ele>274.0</ele><time>2026-04-26T12:34:43.126Z</time></trkpt><trkpt lat="44.3766635" lon="11.3034232"><ele>274.0</ele><time>2026-04-26T12:34:45.13Z</time></trkpt><trkpt lat="44.3767608" lon="11.3033642"><ele>274.0</ele><time>2026-04-26T12:34:47.139Z</time></trkpt><trkpt lat="44.3768551" lon="11.3033051"><ele>274.0</ele><time>2026-04-26T12:34:49.125Z</time></trkpt><trkpt lat="44.3769506" lon="11.3032464"><ele>274.0</ele><time>2026-04-26T12:34:51.127Z</time></trkpt><trkpt lat="44.3770471" lon="11.3031931"><ele>274.0</ele><time>2026-04-26T12:34:53.124Z</time></trkpt><trkpt lat="44.377151" lon="11.3031425"><ele>274.0</ele><time>2026-04-26T12:34:55.119Z</time></trkpt><trkpt lat="44.3772572" lon="11.3031188"><ele>274.0</ele><time>2026-04-26T12:34:57.129Z</time></trkpt><trkpt lat="44.3773607" lon="11.3031107"><ele>274.0</ele><time>2026-04-26T12:34:59.126Z</time></trkpt><trkpt lat="44.3774608" lon="11.3031075"><ele>275.4</ele><time>2026-04-26T12:35:01.118Z</time></trkpt><trkpt lat="44.3775593" lon="11.3031128"><ele>276.79999999999995</ele><time>2026-04-26T12:35:03.145Z</time></trkpt><trkpt lat="44.3776581" lon="11.303132"><ele>278.20000000000005</ele><time>2026-04-26T12:35:05.127Z</time></trkpt><trkpt lat="44.3777608" lon="11.3031685"><ele>279.6</ele><time>2026-04-26T12:35:07.127Z</time></trkpt><trkpt lat="44.377859" lon="11.303223"><ele>281.0</ele><time>2026-04-26T12:35:09.12Z</time></trkpt><trkpt lat="44.3779574" lon="11.3032694"><ele>282.2</ele><time>2026-04-26T12:35:11.126Z</time></trkpt><trkpt lat="44.3780537" lon="11.3033214"><ele>283.40000000000003</ele><time>2026-04-26T12:35:13.129Z</time></trkpt><trkpt lat="44.3781394" lon="11.3033684"><ele>284.6</ele><time>2026-04-26T12:35:15.131Z</time></trkpt><trkpt lat="44.378223" lon="11.3034153"><ele>285.8</ele><time>2026-04-26T12:35:17.112Z</time></trkpt><trkpt lat="44.3782989" lon="11.3034553"><ele>287.0</ele><time>2026-04-26T12:35:19.12Z</time></trkpt><trkpt lat="44.3783765" lon="11.3035003"><ele>287.0</ele><time>2026-04-26T12:35:21.12Z</time></trkpt><trkpt lat="44.3784552" lon="11.3035539"><ele>287.0</ele><time>2026-04-26T12:35:23.13Z</time></trkpt><trkpt lat="44.3785299" lon="11.3036182"><ele>287.0</ele><time>2026-04-26T12:35:25.124Z</time></trkpt><trkpt lat="44.3786064" lon="11.3037027"><ele>287.0</ele><time>2026-04-26T12:35:27.129Z</time></trkpt><trkpt lat="44.3786822" lon="11.3037919"><ele>287.0</ele><time>2026-04-26T12:35:29.131Z</time></trkpt><trkpt lat="44.37876" lon="11.3039089"><ele>286.1666666666667</ele><time>2026-04-26T12:35:31.124Z</time></trkpt><trkpt lat="44.3788035" lon="11.3039845"><ele>285.33333333333337</ele><time>2026-04-26T12:35:32.123Z</time></trkpt><trkpt lat="44.3788491" lon="11.3040618"><ele>284.5</ele><time>2026-04-26T12:35:33.116Z</time></trkpt><trkpt lat="44.3788963" lon="11.304146"><ele>283.6666666666667</ele><time>2026-04-26T12:35:34.116Z</time></trkpt><trkpt lat="44.3789452" lon="11.304238"><ele>282.8333333333333</ele><time>2026-04-26T12:35:35.111Z</time></trkpt><trkpt lat="44.3789981" lon="11.3043322"><ele>282.0</ele><time>2026-04-26T12:35:36.12Z</time></trkpt><trkpt lat="44.3790611" lon="11.3044191"><ele>282.0</ele><time>2026-04-26T12:35:37.124Z</time></trkpt><trkpt lat="44.3791391" lon="11.304483"><ele>282.0</ele><time>2026-04-26T12:35:38.129Z</time></trkpt><trkpt lat="44.3792316" lon="11.3045068"><ele>282.0</ele><time>2026-04-26T12:35:39.119Z</time></trkpt><trkpt lat="44.3793272" lon="11.3044946"><ele>282.0</ele><time>2026-04-26T12:35:40.125Z</time></trkpt><trkpt lat="44.3794224" lon="11.304463"><ele>282.0</ele><time>2026-04-26T12:35:41.124Z</time></trkpt><trkpt lat="44.3795177" lon="11.304421"><ele>282.0</ele><time>2026-04-26T12:35:42.122Z</time></trkpt><trkpt lat="44.379611" lon="11.3043738"><ele>282.0</ele><time>2026-04-26T12:35:43.111Z</time></trkpt><trkpt lat="44.3797045" lon="11.3043209"><ele>282.0</ele><time>2026-04-26T12:35:44.121Z</time></trkpt><trkpt lat="44.3798008" lon="11.3042664"><ele>282.0</ele><time>2026-04-26T12:35:45.123Z</time></trkpt><trkpt lat="44.3798957" lon="11.3042101"><ele>282.0</ele><time>2026-04-26T12:35:46.128Z</time></trkpt><trkpt lat="44.3799912" lon="11.3041564"><ele>280.2</ele><time>2026-04-26T12:35:47.132Z</time></trkpt><trkpt lat="44.3800882" lon="11.3041138"><ele>278.4</ele><time>2026-04-26T12:35:48.115Z</time></trkpt><trkpt lat="44.3801878" lon="11.3040903"><ele>276.6</ele><time>2026-04-26T12:35:49.12Z</time></trkpt><trkpt lat="44.3802874" lon="11.3040872"><ele>274.8</ele><time>2026-04-26T12:35:50.121Z</time></trkpt><trkpt lat="44.3803831" lon="11.3040849"><ele>273.0</ele><time>2026-04-26T12:35:51.132Z</time></trkpt><trkpt lat="44.3804743" lon="11.3041238"><ele>273.5</ele><time>2026-04-26T12:35:52.122Z</time></trkpt><trkpt lat="44.3805578" lon="11.3041707"><ele>274.0</ele><time>2026-04-26T12:35:53.121Z</time></trkpt><trkpt lat="44.3806355" lon="11.3042199"><ele>274.5</ele><time>2026-04-26T12:35:54.121Z</time></trkpt><trkpt lat="44.3807079" lon="11.3042668"><ele>275.0</ele><time>2026-04-26T12:35:55.123Z</time></trkpt><trkpt lat="44.3807751" lon="11.3043099"><ele>275.5</ele><time>2026-04-26T12:35:56.123Z</time></trkpt><trkpt lat="44.3808404" lon="11.3043508"><ele>276.0</ele><time>2026-04-26T12:35:57.125Z</time></trkpt><trkpt lat="44.3809005" lon="11.3043888"><ele>276.0</ele><time>2026-04-26T12:35:58.115Z</time></trkpt><trkpt lat="44.380959" lon="11.3044266"><ele>276.0</ele><time>2026-04-26T12:35:59.126Z</time></trkpt><trkpt lat="44.3810627" lon="11.3044919"><ele>276.0</ele><time>2026-04-26T12:36:01.12Z</time></trkpt><trkpt lat="44.3811594" lon="11.3045537"><ele>276.0</ele><time>2026-04-26T12:36:03.119Z</time></trkpt><trkpt lat="44.3812504" lon="11.304614"><ele>276.0</ele><time>2026-04-26T12:36:05.128Z</time></trkpt><trkpt lat="44.3813371" lon="11.304669"><ele>275.8333333333333</ele><time>2026-04-26T12:36:07.113Z</time></trkpt><trkpt lat="44.3814168" lon="11.3047182"><ele>275.6666666666667</ele><time>2026-04-26T12:36:09.118Z</time></trkpt><trkpt lat="44.3814959" lon="11.3047664"><ele>275.5</ele><time>2026-04-26T12:36:11.137Z</time></trkpt><trkpt lat="44.3815714" lon="11.3048096"><ele>275.33333333333337</ele><time>2026-04-26T12:36:13.119Z</time></trkpt><trkpt lat="44.3816413" lon="11.304852"><ele>275.1666666666667</ele><time>2026-04-26T12:36:15.118Z</time></trkpt><trkpt lat="44.3817102" lon="11.3048929"><ele>275.0</ele><time>2026-04-26T12:36:17.136Z</time></trkpt><trkpt lat="44.3817789" lon="11.304933"><ele>275.0</ele><time>2026-04-26T12:36:19.124Z</time></trkpt><trkpt lat="44.3818436" lon="11.3049725"><ele>275.0</ele><time>2026-04-26T12:36:21.118Z</time></trkpt><trkpt lat="44.3819039" lon="11.305008"><ele>275.0</ele><time>2026-04-26T12:36:23.122Z</time></trkpt><trkpt lat="44.3819626" lon="11.3050435"><ele>275.0</ele><time>2026-04-26T12:36:25.129Z</time></trkpt><trkpt lat="44.3820492" lon="11.3050907"><ele>275.0</ele><time>2026-04-26T12:36:28.133Z</time></trkpt><trkpt lat="44.3821327" lon="11.3051416"><ele>275.0</ele><time>2026-04-26T12:36:31.122Z</time></trkpt><trkpt lat="44.3822137" lon="11.3051902"><ele>276.1666666666667</ele><time>2026-04-26T12:36:34.126Z</time></trkpt><trkpt lat="44.3822868" lon="11.3052372"><ele>277.33333333333337</ele><time>2026-04-26T12:36:37.14Z</time></trkpt><trkpt lat="44.3823625" lon="11.3052867"><ele>278.5</ele><time>2026-04-26T12:36:40.128Z</time></trkpt><trkpt lat="44.3824444" lon="11.3053213"><ele>279.6666666666667</ele><time>2026-04-26T12:36:43.122Z</time></trkpt><trkpt lat="44.3825288" lon="11.3053508"><ele>280.8333333333333</ele><time>2026-04-26T12:36:46.127Z</time></trkpt><trkpt lat="44.3826153" lon="11.3053674"><ele>282.0</ele><time>2026-04-26T12:36:49.125Z</time></trkpt><trkpt lat="44.3827028" lon="11.3053761"><ele>282.0</ele><time>2026-04-26T12:36:52.126Z</time></trkpt><trkpt lat="44.3827924" lon="11.3053716"><ele>282.0</ele><time>2026-04-26T12:36:55.129Z</time></trkpt><trkpt lat="44.382882" lon="11.3053653"><ele>282.0</ele><time>2026-04-26T12:36:58.123Z</time></trkpt><trkpt lat="44.3829596" lon="11.3053634"><ele>282.0</ele><time>2026-04-26T12:37:01.124Z</time></trkpt><trkpt lat="44.3830498" lon="11.3053863"><ele>282.0</ele><time>2026-04-26T12:37:04.131Z</time></trkpt><trkpt lat="44.383111" lon="11.3054241"><ele>282.0</ele><time>2026-04-26T12:37:06.123Z</time></trkpt><trkpt lat="44.3831665" lon="11.3054795"><ele>281.8571428571429</ele><time>2026-04-26T12:37:08.134Z</time></trkpt><trkpt lat="44.3832211" lon="11.305537"><ele>281.7142857142857</ele><time>2026-04-26T12:37:10.124Z</time></trkpt><trkpt lat="44.3832679" lon="11.3056034"><ele>281.57142857142856</ele><time>2026-04-26T12:37:12.126Z</time></trkpt><trkpt lat="44.3833181" lon="11.3056693"><ele>281.42857142857144</ele><time>2026-04-26T12:37:14.131Z</time></trkpt><trkpt lat="44.3833644" lon="11.3057343"><ele>281.2857142857143</ele><time>2026-04-26T12:37:16.131Z</time></trkpt><trkpt lat="44.3834139" lon="11.3057945"><ele>281.14285714285717</ele><time>2026-04-26T12:37:18.126Z</time></trkpt><trkpt lat="44.38347" lon="11.3058509"><ele>281.0</ele><time>2026-04-26T12:37:20.128Z</time></trkpt><trkpt lat="44.3835271" lon="11.3059047"><ele>281.0</ele><time>2026-04-26T12:37:22.131Z</time></trkpt><trkpt lat="44.3835914" lon="11.3059504"><ele>281.0</ele><time>2026-04-26T12:37:24.122Z</time></trkpt><trkpt lat="44.3836564" lon="11.3059914"><ele>281.0</ele><time>2026-04-26T12:37:26.115Z</time></trkpt><trkpt lat="44.3837308" lon="11.3060353"><ele>281.0</ele><time>2026-04-26T12:37:28.12Z</time></trkpt><trkpt lat="44.3838129" lon="11.3060789"><ele>281.0</ele><time>2026-04-26T12:37:30.126Z</time></trkpt><trkpt lat="44.3838986" lon="11.3061365"><ele>281.0</ele><time>2026-04-26T12:37:32.125Z</time></trkpt><trkpt lat="44.383989" lon="11.3062014"><ele>280.8</ele><time>2026-04-26T12:37:34.131Z</time></trkpt><trkpt lat="44.3840779" lon="11.3062786"><ele>280.6</ele><time>2026-04-26T12:37:36.115Z</time></trkpt><trkpt lat="44.3841621" lon="11.3063697"><ele>280.4</ele><time>2026-04-26T12:37:38.126Z</time></trkpt><trkpt lat="44.3842425" lon="11.3064599"><ele>280.2</ele><time>2026-04-26T12:37:40.123Z</time></trkpt><trkpt lat="44.3843193" lon="11.3065524"><ele>280.0</ele><time>2026-04-26T12:37:42.124Z</time></trkpt><trkpt lat="44.3843964" lon="11.3066489"><ele>280.0</ele><time>2026-04-26T12:37:44.126Z</time></trkpt><trkpt lat="44.3844687" lon="11.3067511"><ele>280.0</ele><time>2026-04-26T12:37:46.129Z</time></trkpt><trkpt lat="44.3845373" lon="11.3068619"><ele>280.0</ele><time>2026-04-26T12:37:48.129Z</time></trkpt><trkpt lat="44.3845977" lon="11.306984"><ele>280.0</ele><time>2026-04-26T12:37:50.128Z</time></trkpt><trkpt lat="44.3846509" lon="11.3071163"><ele>280.0</ele><time>2026-04-26T12:37:52.119Z</time></trkpt><trkpt lat="44.384696" lon="11.3072536"><ele>281.2</ele><time>2026-04-26T12:37:54.12Z</time></trkpt><trkpt lat="44.3847322" lon="11.3073922"><ele>282.4</ele><time>2026-04-26T12:37:56.125Z</time></trkpt><trkpt lat="44.3847568" lon="11.3075352"><ele>283.6</ele><time>2026-04-26T12:37:58.128Z</time></trkpt><trkpt lat="44.3847728" lon="11.3076828"><ele>284.8</ele><time>2026-04-26T12:38:00.123Z</time></trkpt><trkpt lat="44.3847907" lon="11.3078285"><ele>286.0</ele><time>2026-04-26T12:38:02.128Z</time></trkpt><trkpt lat="44.3848181" lon="11.3079716"><ele>285.40000000000003</ele><time>2026-04-26T12:38:04.126Z</time></trkpt><trkpt lat="44.3848635" lon="11.3081077"><ele>284.8</ele><time>2026-04-26T12:38:06.133Z</time></trkpt><trkpt lat="44.3849294" lon="11.3082271"><ele>284.20000000000005</ele><time>2026-04-26T12:38:08.122Z</time></trkpt><trkpt lat="44.38501" lon="11.30831"><ele>283.6</ele><time>2026-04-26T12:38:10.122Z</time></trkpt><trkpt lat="44.3851143" lon="11.3083179"><ele>283.0</ele><time>2026-04-26T12:38:12.111Z</time></trkpt><trkpt lat="44.3852193" lon="11.3082691"><ele>283.0</ele><time>2026-04-26T12:38:14.128Z</time></trkpt><trkpt lat="44.3853244" lon="11.3082058"><ele>283.0</ele><time>2026-04-26T12:38:16.122Z</time></trkpt><trkpt lat="44.3854302" lon="11.3081354"><ele>283.0</ele><time>2026-04-26T12:38:18.125Z</time></trkpt><trkpt lat="44.3855397" lon="11.3080774"><ele>283.0</ele><time>2026-04-26T12:38:20.125Z</time></trkpt><trkpt lat="44.3856589" lon="11.3080346"><ele>281.75</ele><time>2026-04-26T12:38:22.118Z</time></trkpt><trkpt lat="44.3857815" lon="11.308014"><ele>280.5</ele><time>2026-04-26T12:38:24.126Z</time></trkpt><trkpt lat="44.3859054" lon="11.3080287"><ele>279.25</ele><time>2026-04-26T12:38:26.132Z</time></trkpt><trkpt lat="44.3860303" lon="11.3080426"><ele>278.0</ele><time>2026-04-26T12:38:28.123Z</time></trkpt><trkpt lat="44.3861548" lon="11.3080546"><ele>278.0</ele><time>2026-04-26T12:38:30.128Z</time></trkpt><trkpt lat="44.386276" lon="11.3080684"><ele>278.0</ele><time>2026-04-26T12:38:32.129Z</time></trkpt><trkpt lat="44.3863873" lon="11.3080904"><ele>278.0</ele><time>2026-04-26T12:38:34.123Z</time></trkpt><trkpt lat="44.3864947" lon="11.3081074"><ele>278.0</ele><time>2026-04-26T12:38:36.117Z</time></trkpt><trkpt lat="44.3865996" lon="11.3081254"><ele>278.0</ele><time>2026-04-26T12:38:38.123Z</time></trkpt><trkpt lat="44.3867015" lon="11.3081402"><ele>278.5</ele><time>2026-04-26T12:38:40.126Z</time></trkpt><trkpt lat="44.3867976" lon="11.3081522"><ele>279.0</ele><time>2026-04-26T12:38:42.132Z</time></trkpt><trkpt lat="44.3868892" lon="11.3081668"><ele>279.5</ele><time>2026-04-26T12:38:44.122Z</time></trkpt><trkpt lat="44.3869778" lon="11.3081774"><ele>280.0</ele><time>2026-04-26T12:38:46.13Z</time></trkpt><trkpt lat="44.3870626" lon="11.308183"><ele>280.5</ele><time>2026-04-26T12:38:48.137Z</time></trkpt><trkpt lat="44.3871423" lon="11.3081831"><ele>281.0</ele><time>2026-04-26T12:38:50.127Z</time></trkpt><trkpt lat="44.3872185" lon="11.3081758"><ele>281.14285714285717</ele><time>2026-04-26T12:38:52.128Z</time></trkpt><trkpt lat="44.387293" lon="11.3081696"><ele>281.2857142857143</ele><time>2026-04-26T12:38:54.121Z</time></trkpt><trkpt lat="44.3873644" lon="11.3081549"><ele>281.42857142857144</ele><time>2026-04-26T12:38:56.131Z</time></trkpt><trkpt lat="44.3874323" lon="11.3081349"><ele>281.57142857142856</ele><time>2026-04-26T12:38:58.116Z</time></trkpt><trkpt lat="44.3875016" lon="11.3081073"><ele>281.7142857142857</ele><time>2026-04-26T12:39:00.119Z</time></trkpt><trkpt lat="44.3875693" lon="11.3080766"><ele>281.8571428571429</ele><time>2026-04-26T12:39:02.13Z</time></trkpt><trkpt lat="44.3876385" lon="11.3080418"><ele>282.0</ele><time>2026-04-26T12:39:04.12Z</time></trkpt><trkpt lat="44.3877074" lon="11.3080128"><ele>282.0</ele><time>2026-04-26T12:39:06.131Z</time></trkpt><trkpt lat="44.3877763" lon="11.3079922"><ele>282.0</ele><time>2026-04-26T12:39:08.122Z</time></trkpt><trkpt lat="44.3878479" lon="11.3079775"><ele>282.0</ele><time>2026-04-26T12:39:10.123Z</time></trkpt><trkpt lat="44.3879197" lon="11.3079687"><ele>282.0</ele><time>2026-04-26T12:39:12.128Z</time></trkpt><trkpt lat="44.3879891" lon="11.3079694"><ele>282.0</ele><time>2026-04-26T12:39:14.136Z</time></trkpt><trkpt lat="44.3880563" lon="11.307975"><ele>282.0</ele><time>2026-04-26T12:39:16.129Z</time></trkpt><trkpt lat="44.3881198" lon="11.3079841"><ele>282.0</ele><time>2026-04-26T12:39:18.128Z</time></trkpt><trkpt lat="44.3882125" lon="11.3079992"><ele>283.5</ele><time>2026-04-26T12:39:21.12Z</time></trkpt><trkpt lat="44.3883052" lon="11.3080118"><ele>285.0</ele><time>2026-04-26T12:39:24.134Z</time></trkpt><trkpt lat="44.3883973" lon="11.3080235"><ele>286.5</ele><time>2026-04-26T12:39:27.136Z</time></trkpt><trkpt lat="44.3884889" lon="11.3080287"><ele>288.0</ele><time>2026-04-26T12:39:30.124Z</time></trkpt><trkpt lat="44.3885522" lon="11.3080317"><ele>289.5</ele><time>2026-04-26T12:39:32.115Z</time></trkpt><trkpt lat="44.3886433" lon="11.3080428"><ele>291.0</ele><time>2026-04-26T12:39:35.114Z</time></trkpt><trkpt lat="44.3887333" lon="11.3080446"><ele>291.0</ele><time>2026-04-26T12:39:38.116Z</time></trkpt><trkpt lat="44.3888229" lon="11.3080441"><ele>291.0</ele><time>2026-04-26T12:39:41.122Z</time></trkpt><trkpt lat="44.3889142" lon="11.3080418"><ele>291.0</ele><time>2026-04-26T12:39:44.127Z</time></trkpt><trkpt lat="44.3890063" lon="11.3080329"><ele>291.0</ele><time>2026-04-26T12:39:47.12Z</time></trkpt><trkpt lat="44.3890997" lon="11.3080251"><ele>291.0</ele><time>2026-04-26T12:39:50.124Z</time></trkpt><trkpt lat="44.3891936" lon="11.3080269"><ele>292.1666666666667</ele><time>2026-04-26T12:39:53.126Z</time></trkpt><trkpt lat="44.3892567" lon="11.3080361"><ele>293.3333333333333</ele><time>2026-04-26T12:39:55.133Z</time></trkpt><trkpt lat="44.3893217" lon="11.3080464"><ele>294.5</ele><time>2026-04-26T12:39:57.13Z</time></trkpt><trkpt lat="44.3894131" lon="11.3080734"><ele>295.66666666666663</ele><time>2026-04-26T12:40:00.126Z</time></trkpt><trkpt lat="44.3894739" lon="11.3080967"><ele>296.8333333333333</ele><time>2026-04-26T12:40:02.131Z</time></trkpt><trkpt lat="44.3895586" lon="11.3081383"><ele>298.0</ele><time>2026-04-26T12:40:05.125Z</time></trkpt><trkpt lat="44.3896417" lon="11.3081776"><ele>299.16666666666663</ele><time>2026-04-26T12:40:08.12Z</time></trkpt><trkpt lat="44.3897248" lon="11.3082259"><ele>300.3333333333333</ele><time>2026-04-26T12:40:11.126Z</time></trkpt><trkpt lat="44.3898095" lon="11.3082741"><ele>301.5</ele><time>2026-04-26T12:40:14.126Z</time></trkpt><trkpt lat="44.3898931" lon="11.3083162"><ele>302.6666666666667</ele><time>2026-04-26T12:40:17.133Z</time></trkpt><trkpt lat="44.3899758" lon="11.308355"><ele>303.83333333333337</ele><time>2026-04-26T12:40:20.127Z</time></trkpt><trkpt lat="44.390051" lon="11.3084131"><ele>305.0</ele><time>2026-04-26T12:40:23.13Z</time></trkpt><trkpt lat="44.3901098" lon="11.3084514"><ele>305.0</ele><time>2026-04-26T12:40:26.127Z</time></trkpt><trkpt lat="44.3901905" lon="11.3084921"><ele>305.0</ele><time>2026-04-26T12:40:30.129Z</time></trkpt><trkpt lat="44.3902564" lon="11.3085302"><ele>305.0</ele><time>2026-04-26T12:40:33.133Z</time></trkpt><trkpt lat="44.3903243" lon="11.3085619"><ele>305.0</ele><time>2026-04-26T12:40:36.131Z</time></trkpt><trkpt lat="44.3903981" lon="11.3086037"><ele>305.0</ele><time>2026-04-26T12:40:39.132Z</time></trkpt><trkpt lat="44.3904676" lon="11.3086445"><ele>305.0</ele><time>2026-04-26T12:40:42.13Z</time></trkpt><trkpt lat="44.3905377" lon="11.3086817"><ele>304.0</ele><time>2026-04-26T12:40:45.125Z</time></trkpt><trkpt lat="44.390612" lon="11.3087236"><ele>303.0</ele><time>2026-04-26T12:40:48.129Z</time></trkpt><trkpt lat="44.3906875" lon="11.3087637"><ele>302.0</ele><time>2026-04-26T12:40:51.128Z</time></trkpt><trkpt lat="44.3907588" lon="11.3088139"><ele>301.0</ele><time>2026-04-26T12:40:54.121Z</time></trkpt><trkpt lat="44.3908338" lon="11.3088738"><ele>300.0</ele><time>2026-04-26T12:40:57.134Z</time></trkpt><trkpt lat="44.3909007" lon="11.3089281"><ele>299.0</ele><time>2026-04-26T12:41:00.125Z</time></trkpt><trkpt lat="44.3909606" lon="11.3089985"><ele>299.6666666666667</ele><time>2026-04-26T12:41:03.124Z</time></trkpt><trkpt lat="44.3910178" lon="11.3090761"><ele>300.33333333333337</ele><time>2026-04-26T12:41:06.118Z</time></trkpt><trkpt lat="44.3910793" lon="11.3091512"><ele>301.0</ele><time>2026-04-26T12:41:09.132Z</time></trkpt><trkpt lat="44.3911441" lon="11.3092221"><ele>301.6666666666667</ele><time>2026-04-26T12:41:12.12Z</time></trkpt><trkpt lat="44.3912128" lon="11.3092879"><ele>302.3333333333333</ele><time>2026-04-26T12:41:15.119Z</time></trkpt><trkpt lat="44.3912899" lon="11.3093551"><ele>303.0</ele><time>2026-04-26T12:41:18.125Z</time></trkpt><trkpt lat="44.3913506" lon="11.3093931"><ele>303.0</ele><time>2026-04-26T12:41:20.13Z</time></trkpt><trkpt lat="44.391416" lon="11.3094287"><ele>303.0</ele><time>2026-04-26T12:41:22.127Z</time></trkpt><trkpt lat="44.3914837" lon="11.3094652"><ele>303.0</ele><time>2026-04-26T12:41:24.135Z</time></trkpt><trkpt lat="44.3915564" lon="11.3094964"><ele>303.0</ele><time>2026-04-26T12:41:26.125Z</time></trkpt><trkpt lat="44.3916294" lon="11.3095315"><ele>303.0</ele><time>2026-04-26T12:41:28.125Z</time></trkpt><trkpt lat="44.3917043" lon="11.3095614"><ele>303.0</ele><time>2026-04-26T12:41:30.134Z</time></trkpt><trkpt lat="44.3917817" lon="11.3095882"><ele>303.0</ele><time>2026-04-26T12:41:32.13Z</time></trkpt><trkpt lat="44.3918593" lon="11.3096196"><ele>303.0</ele><time>2026-04-26T12:41:34.119Z</time></trkpt><trkpt lat="44.3919368" lon="11.3096493"><ele>303.0</ele><time>2026-04-26T12:41:36.122Z</time></trkpt><trkpt lat="44.3920136" lon="11.3096777"><ele>303.0</ele><time>2026-04-26T12:41:38.133Z</time></trkpt><trkpt lat="44.3920921" lon="11.3097067"><ele>303.0</ele><time>2026-04-26T12:41:40.124Z</time></trkpt><trkpt lat="44.3921657" lon="11.3097521"><ele>303.0</ele><time>2026-04-26T12:41:42.122Z</time></trkpt><trkpt lat="44.3922409" lon="11.3098008"><ele>304.5</ele><time>2026-04-26T12:41:44.125Z</time></trkpt><trkpt lat="44.3923163" lon="11.3098478"><ele>306.0</ele><time>2026-04-26T12:41:46.132Z</time></trkpt><trkpt lat="44.3923957" lon="11.3098932"><ele>307.5</ele><time>2026-04-26T12:41:48.127Z</time></trkpt><trkpt lat="44.3924811" lon="11.3099383"><ele>309.0</ele><time>2026-04-26T12:41:50.115Z</time></trkpt><trkpt lat="44.3925663" lon="11.309993"><ele>310.5</ele><time>2026-04-26T12:41:52.139Z</time></trkpt><trkpt lat="44.392648" lon="11.3100537"><ele>312.0</ele><time>2026-04-26T12:41:54.119Z</time></trkpt><trkpt lat="44.3927251" lon="11.3101244"><ele>312.0</ele><time>2026-04-26T12:41:56.122Z</time></trkpt><trkpt lat="44.3927976" lon="11.310207"><ele>312.0</ele><time>2026-04-26T12:41:58.13Z</time></trkpt><trkpt lat="44.392872" lon="11.3102886"><ele>312.0</ele><time>2026-04-26T12:42:00.127Z</time></trkpt><trkpt lat="44.392943" lon="11.3103738"><ele>312.0</ele><time>2026-04-26T12:42:02.128Z</time></trkpt><trkpt lat="44.3930165" lon="11.3104688"><ele>312.0</ele><time>2026-04-26T12:42:04.133Z</time></trkpt><trkpt lat="44.3930864" lon="11.3105755"><ele>314.4</ele><time>2026-04-26T12:42:06.137Z</time></trkpt><trkpt lat="44.3931538" lon="11.3106985"><ele>316.79999999999995</ele><time>2026-04-26T12:42:08.13Z</time></trkpt><trkpt lat="44.3932105" lon="11.3108354"><ele>319.2</ele><time>2026-04-26T12:42:10.135Z</time></trkpt><trkpt lat="44.3932493" lon="11.3109841"><ele>321.59999999999997</ele><time>2026-04-26T12:42:12.127Z</time></trkpt><trkpt lat="44.3932799" lon="11.311131"><ele>324.0</ele><time>2026-04-26T12:42:14.131Z</time></trkpt><trkpt lat="44.3933071" lon="11.3112744"><ele>321.8</ele><time>2026-04-26T12:42:16.123Z</time></trkpt><trkpt lat="44.3933329" lon="11.3114134"><ele>319.59999999999997</ele><time>2026-04-26T12:42:18.121Z</time></trkpt><trkpt lat="44.3933575" lon="11.3115484"><ele>317.4</ele><time>2026-04-26T12:42:20.124Z</time></trkpt><trkpt lat="44.3933835" lon="11.3116794"><ele>315.2</ele><time>2026-04-26T12:42:22.134Z</time></trkpt><trkpt lat="44.3934088" lon="11.3118092"><ele>313.0</ele><time>2026-04-26T12:42:24.131Z</time></trkpt><trkpt lat="44.3934304" lon="11.3119405"><ele>313.0</ele><time>2026-04-26T12:42:26.124Z</time></trkpt><trkpt lat="44.3934368" lon="11.3120855"><ele>313.0</ele><time>2026-04-26T12:42:28.129Z</time></trkpt><trkpt lat="44.3934359" lon="11.3122466"><ele>313.0</ele><time>2026-04-26T12:42:30.124Z</time></trkpt><trkpt lat="44.3934265" lon="11.3124193"><ele>313.0</ele><time>2026-04-26T12:42:32.127Z</time></trkpt><trkpt lat="44.3934196" lon="11.3125121"><ele>313.0</ele><time>2026-04-26T12:42:33.129Z</time></trkpt><trkpt lat="44.3934112" lon="11.3126061"><ele>312.2857142857143</ele><time>2026-04-26T12:42:34.133Z</time></trkpt><trkpt lat="44.3934039" lon="11.3127009"><ele>311.57142857142856</ele><time>2026-04-26T12:42:35.13Z</time></trkpt><trkpt lat="44.3933947" lon="11.3127957"><ele>310.8571428571429</ele><time>2026-04-26T12:42:36.13Z</time></trkpt><trkpt lat="44.3933838" lon="11.3128901"><ele>310.1428571428571</ele><time>2026-04-26T12:42:37.122Z</time></trkpt><trkpt lat="44.3933739" lon="11.3129849"><ele>309.42857142857144</ele><time>2026-04-26T12:42:38.129Z</time></trkpt><trkpt lat="44.3933646" lon="11.3130796"><ele>308.7142857142857</ele><time>2026-04-26T12:42:39.121Z</time></trkpt><trkpt lat="44.3933546" lon="11.3131756"><ele>308.0</ele><time>2026-04-26T12:42:40.127Z</time></trkpt><trkpt lat="44.3933435" lon="11.3132716"><ele>308.0</ele><time>2026-04-26T12:42:41.124Z</time></trkpt><trkpt lat="44.3933314" lon="11.3133684"><ele>308.0</ele><time>2026-04-26T12:42:42.13Z</time></trkpt><trkpt lat="44.393321" lon="11.3134622"><ele>308.0</ele><time>2026-04-26T12:42:43.124Z</time></trkpt><trkpt lat="44.3933023" lon="11.3136245"><ele>308.0</ele><time>2026-04-26T12:42:45.132Z</time></trkpt><trkpt lat="44.3932883" lon="11.3137627"><ele>308.0</ele><time>2026-04-26T12:42:47.129Z</time></trkpt><trkpt lat="44.3932751" lon="11.3138798"><ele>308.0</ele><time>2026-04-26T12:42:49.111Z</time></trkpt><trkpt lat="44.3932648" lon="11.313981"><ele>308.0</ele><time>2026-04-26T12:42:51.127Z</time></trkpt><trkpt lat="44.393251" lon="11.3140846"><ele>308.0</ele><time>2026-04-26T12:42:54.117Z</time></trkpt><trkpt lat="44.39323" lon="11.3142531"><ele>308.0</ele><time>2026-04-26T12:53:27.124Z</time></trkpt><trkpt lat="44.3932052" lon="11.3144205"><ele>308.0</ele><time>2026-04-26T12:53:30.116Z</time></trkpt><trkpt lat="44.3931821" lon="11.3145371"><ele>308.0</ele><time>2026-04-26T12:53:32.122Z</time></trkpt><trkpt lat="44.3931548" lon="11.3146729"><ele>306.8</ele><time>2026-04-26T12:53:34.129Z</time></trkpt><trkpt lat="44.3931267" lon="11.3148171"><ele>305.6</ele><time>2026-04-26T12:53:36.127Z</time></trkpt><trkpt lat="44.3930983" lon="11.3149671"><ele>304.4</ele><time>2026-04-26T12:53:38.126Z</time></trkpt><trkpt lat="44.3930656" lon="11.3151192"><ele>303.2</ele><time>2026-04-26T12:53:40.125Z</time></trkpt><trkpt lat="44.3930305" lon="11.3152732"><ele>302.0</ele><time>2026-04-26T12:53:42.119Z</time></trkpt><trkpt lat="44.3930015" lon="11.3154203"><ele>302.0</ele><time>2026-04-26T12:53:44.126Z</time></trkpt><trkpt lat="44.3929772" lon="11.3155594"><ele>302.0</ele><time>2026-04-26T12:53:46.123Z</time></trkpt><trkpt lat="44.3929582" lon="11.3156874"><ele>302.0</ele><time>2026-04-26T12:53:48.121Z</time></trkpt><trkpt lat="44.3929456" lon="11.3158115"><ele>302.0</ele><time>2026-04-26T12:53:50.115Z</time></trkpt><trkpt lat="44.39294" lon="11.3159316"><ele>302.0</ele><time>2026-04-26T12:53:52.133Z</time></trkpt><trkpt lat="44.3929361" lon="11.3160481"><ele>302.0</ele><time>2026-04-26T12:53:54.124Z</time></trkpt><trkpt lat="44.3929318" lon="11.3161645"><ele>302.0</ele><time>2026-04-26T12:53:56.128Z</time></trkpt><trkpt lat="44.3929266" lon="11.3162828"><ele>302.0</ele><time>2026-04-26T12:53:58.122Z</time></trkpt><trkpt lat="44.3929174" lon="11.3164214"><ele>302.0</ele><time>2026-04-26T12:54:00.127Z</time></trkpt><trkpt lat="44.3928887" lon="11.3165812"><ele>302.0</ele><time>2026-04-26T12:54:02.129Z</time></trkpt><trkpt lat="44.3928651" lon="11.3166664"><ele>301.14285714285717</ele><time>2026-04-26T12:54:03.136Z</time></trkpt><trkpt lat="44.392831" lon="11.3167501"><ele>300.2857142857143</ele><time>2026-04-26T12:54:04.12Z</time></trkpt><trkpt lat="44.392785" lon="11.3168305"><ele>299.42857142857144</ele><time>2026-04-26T12:54:05.127Z</time></trkpt><trkpt lat="44.3927375" lon="11.3169133"><ele>298.57142857142856</ele><time>2026-04-26T12:54:06.126Z</time></trkpt><trkpt lat="44.3926916" lon="11.3169983"><ele>297.7142857142857</ele><time>2026-04-26T12:54:07.122Z</time></trkpt><trkpt lat="44.392653" lon="11.3170915"><ele>296.8571428571429</ele><time>2026-04-26T12:54:08.126Z</time></trkpt><trkpt lat="44.3926216" lon="11.3171874"><ele>296.0</ele><time>2026-04-26T12:54:09.129Z</time></trkpt><trkpt lat="44.3925938" lon="11.3172835"><ele>296.0</ele><time>2026-04-26T12:54:10.137Z</time></trkpt><trkpt lat="44.3925662" lon="11.3173815"><ele>296.0</ele><time>2026-04-26T12:54:11.124Z</time></trkpt><trkpt lat="44.392532" lon="11.317484"><ele>296.0</ele><time>2026-04-26T12:54:12.123Z</time></trkpt><trkpt lat="44.3924788" lon="11.3175822"><ele>296.0</ele><time>2026-04-26T12:54:13.132Z</time></trkpt><trkpt lat="44.3924102" lon="11.3176697"><ele>296.0</ele><time>2026-04-26T12:54:14.126Z</time></trkpt><trkpt lat="44.3923408" lon="11.3177566"><ele>296.0</ele><time>2026-04-26T12:54:15.105Z</time></trkpt><trkpt lat="44.3922574" lon="11.317826"><ele>294.2</ele><time>2026-04-26T12:54:16.104Z</time></trkpt><trkpt lat="44.3921725" lon="11.3178999"><ele>292.40000000000003</ele><time>2026-04-26T12:54:17.129Z</time></trkpt><trkpt lat="44.3920914" lon="11.3179831"><ele>290.6</ele><time>2026-04-26T12:54:18.135Z</time></trkpt><trkpt lat="44.3920149" lon="11.318077"><ele>288.8</ele><time>2026-04-26T12:54:19.136Z</time></trkpt><trkpt lat="44.3919432" lon="11.3181817"><ele>287.0</ele><time>2026-04-26T12:54:20.129Z</time></trkpt><trkpt lat="44.3918728" lon="11.3182949"><ele>287.0</ele><time>2026-04-26T12:54:21.137Z</time></trkpt><trkpt lat="44.3917992" lon="11.3184117"><ele>287.0</ele><time>2026-04-26T12:54:22.124Z</time></trkpt><trkpt lat="44.391722" lon="11.318529"><ele>287.0</ele><time>2026-04-26T12:54:23.131Z</time></trkpt><trkpt lat="44.3916435" lon="11.3186464"><ele>287.0</ele><time>2026-04-26T12:54:24.142Z</time></trkpt><trkpt lat="44.3915655" lon="11.3187658"><ele>287.0</ele><time>2026-04-26T12:54:25.139Z</time></trkpt><trkpt lat="44.3914889" lon="11.3188881"><ele>287.0</ele><time>2026-04-26T12:54:26.126Z</time></trkpt><trkpt lat="44.391415" lon="11.319015"><ele>287.0</ele><time>2026-04-26T12:54:27.133Z</time></trkpt><trkpt lat="44.3913433" lon="11.319146"><ele>287.0</ele><time>2026-04-26T12:54:28.124Z</time></trkpt><trkpt lat="44.3912767" lon="11.3192776"><ele>285.6</ele><time>2026-04-26T12:54:29.128Z</time></trkpt><trkpt lat="44.3912163" lon="11.3194062"><ele>284.2</ele><time>2026-04-26T12:54:30.129Z</time></trkpt><trkpt lat="44.391155" lon="11.319529"><ele>282.8</ele><time>2026-04-26T12:54:31.126Z</time></trkpt><trkpt lat="44.3910907" lon="11.319648"><ele>281.4</ele><time>2026-04-26T12:54:32.126Z</time></trkpt><trkpt lat="44.3910244" lon="11.3197662"><ele>280.0</ele><time>2026-04-26T12:54:33.131Z</time></trkpt><trkpt lat="44.3909603" lon="11.3198869"><ele>280.0</ele><time>2026-04-26T12:54:34.128Z</time></trkpt><trkpt lat="44.3909025" lon="11.3200119"><ele>280.0</ele><time>2026-04-26T12:54:35.13Z</time></trkpt><trkpt lat="44.390848" lon="11.3201337"><ele>280.0</ele><time>2026-04-26T12:54:36.134Z</time></trkpt><trkpt lat="44.3907925" lon="11.3202441"><ele>280.0</ele><time>2026-04-26T12:54:37.128Z</time></trkpt><trkpt lat="44.3907303" lon="11.3203458"><ele>280.0</ele><time>2026-04-26T12:54:38.127Z</time></trkpt><trkpt lat="44.3906577" lon="11.3204334"><ele>280.0</ele><time>2026-04-26T12:54:39.125Z</time></trkpt><trkpt lat="44.3905785" lon="11.3205105"><ele>280.0</ele><time>2026-04-26T12:54:40.131Z</time></trkpt><trkpt lat="44.3905021" lon="11.3205924"><ele>280.0</ele><time>2026-04-26T12:54:41.133Z</time></trkpt><trkpt lat="44.3904317" lon="11.3206846"><ele>280.0</ele><time>2026-04-26T12:54:42.126Z</time></trkpt><trkpt lat="44.3903644" lon="11.3207833"><ele>280.0</ele><time>2026-04-26T12:54:43.129Z</time></trkpt><trkpt lat="44.3902923" lon="11.3208781"><ele>278.2</ele><time>2026-04-26T12:54:44.118Z</time></trkpt><trkpt lat="44.3902125" lon="11.3209617"><ele>276.4</ele><time>2026-04-26T12:54:45.134Z</time></trkpt><trkpt lat="44.3901255" lon="11.3210309"><ele>274.6</ele><time>2026-04-26T12:54:46.142Z</time></trkpt><trkpt lat="44.3900357" lon="11.3210919"><ele>272.8</ele><time>2026-04-26T12:54:47.125Z</time></trkpt><trkpt lat="44.3899457" lon="11.3211515"><ele>271.0</ele><time>2026-04-26T12:54:48.129Z</time></trkpt><trkpt lat="44.3898558" lon="11.3212123"><ele>271.0</ele><time>2026-04-26T12:54:49.12Z</time></trkpt><trkpt lat="44.3897665" lon="11.3212758"><ele>271.0</ele><time>2026-04-26T12:54:50.128Z</time></trkpt><trkpt lat="44.3896786" lon="11.3213457"><ele>271.0</ele><time>2026-04-26T12:54:51.13Z</time></trkpt><trkpt lat="44.3895906" lon="11.3214187"><ele>271.0</ele><time>2026-04-26T12:54:52.13Z</time></trkpt><trkpt lat="44.3895068" lon="11.3215011"><ele>271.0</ele><time>2026-04-26T12:54:53.134Z</time></trkpt><trkpt lat="44.3894327" lon="11.3215979"><ele>269.8</ele><time>2026-04-26T12:54:54.136Z</time></trkpt><trkpt lat="44.3893663" lon="11.3217045"><ele>268.6</ele><time>2026-04-26T12:54:55.134Z</time></trkpt><trkpt lat="44.3893091" lon="11.3218182"><ele>267.4</ele><time>2026-04-26T12:54:56.121Z</time></trkpt><trkpt lat="44.3892599" lon="11.3219369"><ele>266.2</ele><time>2026-04-26T12:54:57.123Z</time></trkpt><trkpt lat="44.3892159" lon="11.3220579"><ele>265.0</ele><time>2026-04-26T12:54:58.13Z</time></trkpt><trkpt lat="44.3891792" lon="11.3221811"><ele>266.0</ele><time>2026-04-26T12:54:59.133Z</time></trkpt><trkpt lat="44.3891457" lon="11.3223045"><ele>267.0</ele><time>2026-04-26T12:55:00.121Z</time></trkpt><trkpt lat="44.3891079" lon="11.3224289"><ele>268.0</ele><time>2026-04-26T12:55:01.129Z</time></trkpt><trkpt lat="44.3890558" lon="11.3225483"><ele>269.0</ele><time>2026-04-26T12:55:02.133Z</time></trkpt><trkpt lat="44.3889858" lon="11.3226507"><ele>270.0</ele><time>2026-04-26T12:55:03.139Z</time></trkpt><trkpt lat="44.3889071" lon="11.322741"><ele>266.2</ele><time>2026-04-26T12:55:04.127Z</time></trkpt><trkpt lat="44.3888302" lon="11.3228335"><ele>262.4</ele><time>2026-04-26T12:55:05.131Z</time></trkpt><trkpt lat="44.3887606" lon="11.3229353"><ele>258.6</ele><time>2026-04-26T12:55:06.125Z</time></trkpt><trkpt lat="44.3887028" lon="11.3230504"><ele>254.8</ele><time>2026-04-26T12:55:07.133Z</time></trkpt><trkpt lat="44.3886614" lon="11.3231768"><ele>251.0</ele><time>2026-04-26T12:55:08.124Z</time></trkpt><trkpt lat="44.3886366" lon="11.3233089"><ele>250.4</ele><time>2026-04-26T12:55:09.116Z</time></trkpt><trkpt lat="44.3886296" lon="11.3234412"><ele>249.8</ele><time>2026-04-26T12:55:10.128Z</time></trkpt><trkpt lat="44.3886348" lon="11.3235734"><ele>249.20000000000002</ele><time>2026-04-26T12:55:11.132Z</time></trkpt><trkpt lat="44.3886401" lon="11.3237019"><ele>248.60000000000002</ele><time>2026-04-26T12:55:12.131Z</time></trkpt><trkpt lat="44.3886601" lon="11.3238336"><ele>248.0</ele><time>2026-04-26T12:55:13.126Z</time></trkpt><trkpt lat="44.3886774" lon="11.3239741"><ele>247.4</ele><time>2026-04-26T12:55:14.133Z</time></trkpt><trkpt lat="44.3886914" lon="11.3241226"><ele>246.8</ele><time>2026-04-26T12:55:15.127Z</time></trkpt><trkpt lat="44.3887026" lon="11.3242763"><ele>246.2</ele><time>2026-04-26T12:55:16.128Z</time></trkpt><trkpt lat="44.3887123" lon="11.3244342"><ele>245.6</ele><time>2026-04-26T12:55:17.125Z</time></trkpt><trkpt lat="44.3887207" lon="11.3245957"><ele>245.0</ele><time>2026-04-26T12:55:18.129Z</time></trkpt><trkpt lat="44.388721" lon="11.3247614"><ele>245.0</ele><time>2026-04-26T12:55:19.116Z</time></trkpt><trkpt lat="44.388702" lon="11.3249276"><ele>245.0</ele><time>2026-04-26T12:55:20.124Z</time></trkpt><trkpt lat="44.3886605" lon="11.3250877"><ele>245.0</ele><time>2026-04-26T12:55:21.122Z</time></trkpt><trkpt lat="44.3886011" lon="11.3252392"><ele>245.0</ele><time>2026-04-26T12:55:22.128Z</time></trkpt><trkpt lat="44.3885381" lon="11.3253893"><ele>245.0</ele><time>2026-04-26T12:55:23.127Z</time></trkpt><trkpt lat="44.3884809" lon="11.3255463"><ele>245.0</ele><time>2026-04-26T12:55:24.126Z</time></trkpt><trkpt lat="44.3884296" lon="11.3257087"><ele>245.0</ele><time>2026-04-26T12:55:25.135Z</time></trkpt><trkpt lat="44.3883724" lon="11.3258654"><ele>245.0</ele><time>2026-04-26T12:55:26.128Z</time></trkpt><trkpt lat="44.3883021" lon="11.3260071"><ele>245.75</ele><time>2026-04-26T12:55:27.125Z</time></trkpt><trkpt lat="44.3882246" lon="11.3261417"><ele>246.5</ele><time>2026-04-26T12:55:28.127Z</time></trkpt><trkpt lat="44.3881494" lon="11.3262794"><ele>247.25</ele><time>2026-04-26T12:55:29.129Z</time></trkpt><trkpt lat="44.3880846" lon="11.3264303"><ele>248.0</ele><time>2026-04-26T12:55:30.13Z</time></trkpt><trkpt lat="44.3880348" lon="11.3265911"><ele>246.5</ele><time>2026-04-26T12:55:31.132Z</time></trkpt><trkpt lat="44.3880081" lon="11.3267599"><ele>245.0</ele><time>2026-04-26T12:55:32.138Z</time></trkpt><trkpt lat="44.3880091" lon="11.3269334"><ele>243.5</ele><time>2026-04-26T12:55:33.124Z</time></trkpt><trkpt lat="44.3880373" lon="11.3270949"><ele>242.0</ele><time>2026-04-26T12:55:34.129Z</time></trkpt><trkpt lat="44.3880786" lon="11.3272353"><ele>239.39999999999998</ele><time>2026-04-26T12:55:35.133Z</time></trkpt><trkpt lat="44.3881375" lon="11.3273454"><ele>236.79999999999998</ele><time>2026-04-26T12:55:36.133Z</time></trkpt><trkpt lat="44.388214" lon="11.3274166"><ele>234.2</ele><time>2026-04-26T12:55:37.134Z</time></trkpt><trkpt lat="44.3883051" lon="11.3274325"><ele>231.6</ele><time>2026-04-26T12:55:38.119Z</time></trkpt><trkpt lat="44.3883987" lon="11.3274076"><ele>229.0</ele><time>2026-04-26T12:55:39.129Z</time></trkpt><trkpt lat="44.3884899" lon="11.3273583"><ele>229.0</ele><time>2026-04-26T12:55:40.131Z</time></trkpt><trkpt lat="44.3885838" lon="11.3273019"><ele>228.99999999999997</ele><time>2026-04-26T12:55:41.131Z</time></trkpt><trkpt lat="44.3886843" lon="11.3272544"><ele>228.99999999999997</ele><time>2026-04-26T12:55:42.117Z</time></trkpt><trkpt lat="44.3887902" lon="11.3272089"><ele>229.0</ele><time>2026-04-26T12:55:43.133Z</time></trkpt><trkpt lat="44.3889009" lon="11.3271648"><ele>229.0</ele><time>2026-04-26T12:55:44.12Z</time></trkpt><trkpt lat="44.3890177" lon="11.3271274"><ele>231.25</ele><time>2026-04-26T12:55:45.133Z</time></trkpt><trkpt lat="44.3891383" lon="11.327094"><ele>233.5</ele><time>2026-04-26T12:55:46.128Z</time></trkpt><trkpt lat="44.3892604" lon="11.3270523"><ele>235.75</ele><time>2026-04-26T12:55:47.12Z</time></trkpt><trkpt lat="44.3893767" lon="11.3269919"><ele>238.0</ele><time>2026-04-26T12:55:48.126Z</time></trkpt><trkpt lat="44.3894793" lon="11.3269057"><ele>238.0</ele><time>2026-04-26T12:55:49.122Z</time></trkpt><trkpt lat="44.389567" lon="11.3267909"><ele>238.0</ele><time>2026-04-26T12:55:50.124Z</time></trkpt><trkpt lat="44.389642" lon="11.3266553"><ele>238.0</ele><time>2026-04-26T12:55:51.13Z</time></trkpt><trkpt lat="44.3897136" lon="11.3265139"><ele>238.0</ele><time>2026-04-26T12:55:52.139Z</time></trkpt><trkpt lat="44.3897946" lon="11.3263881"><ele>236.60000000000002</ele><time>2026-04-26T12:55:53.129Z</time></trkpt><trkpt lat="44.3898885" lon="11.3262963"><ele>235.20000000000002</ele><time>2026-04-26T12:55:54.125Z</time></trkpt><trkpt lat="44.3899929" lon="11.3262434"><ele>233.8</ele><time>2026-04-26T12:55:55.127Z</time></trkpt><trkpt lat="44.3900999" lon="11.3262352"><ele>232.4</ele><time>2026-04-26T12:55:56.12Z</time></trkpt><trkpt lat="44.3901991" lon="11.3262769"><ele>231.0</ele><time>2026-04-26T12:55:57.136Z</time></trkpt><trkpt lat="44.390284" lon="11.3263633"><ele>227.8</ele><time>2026-04-26T12:55:58.13Z</time></trkpt><trkpt lat="44.3903558" lon="11.3264752"><ele>224.60000000000002</ele><time>2026-04-26T12:55:59.124Z</time></trkpt><trkpt lat="44.3904247" lon="11.3265958"><ele>221.4</ele><time>2026-04-26T12:56:00.131Z</time></trkpt><trkpt lat="44.3904954" lon="11.3267206"><ele>218.2</ele><time>2026-04-26T12:56:01.132Z</time></trkpt><trkpt lat="44.3905681" lon="11.3268486"><ele>215.0</ele><time>2026-04-26T12:56:02.125Z</time></trkpt><trkpt lat="44.3906439" lon="11.3269789"><ele>215.0</ele><time>2026-04-26T12:56:03.126Z</time></trkpt><trkpt lat="44.3907213" lon="11.3271104"><ele>215.0</ele><time>2026-04-26T12:56:04.121Z</time></trkpt><trkpt lat="44.390795" lon="11.3272382"><ele>215.0</ele><time>2026-04-26T12:56:05.121Z</time></trkpt><trkpt lat="44.3908617" lon="11.3273603"><ele>215.0</ele><time>2026-04-26T12:56:06.124Z</time></trkpt><trkpt lat="44.3909163" lon="11.3274748"><ele>215.0</ele><time>2026-04-26T12:56:07.125Z</time></trkpt><trkpt lat="44.3909487" lon="11.3275783"><ele>213.7142857142857</ele><time>2026-04-26T12:56:08.13Z</time></trkpt><trkpt lat="44.3909535" lon="11.3276781"><ele>212.42857142857144</ele><time>2026-04-26T12:56:09.13Z</time></trkpt><trkpt lat="44.3909228" lon="11.3277623"><ele>211.14285714285714</ele><time>2026-04-26T12:56:10.13Z</time></trkpt><trkpt lat="44.3908609" lon="11.3278023"><ele>209.85714285714283</ele><time>2026-04-26T12:56:11.126Z</time></trkpt><trkpt lat="44.3907885" lon="11.3277895"><ele>208.57142857142856</ele><time>2026-04-26T12:56:12.119Z</time></trkpt><trkpt lat="44.3907169" lon="11.3277477"><ele>207.28571428571428</ele><time>2026-04-26T12:56:13.133Z</time></trkpt><trkpt lat="44.3906452" lon="11.3276939"><ele>206.0</ele><time>2026-04-26T12:56:14.132Z</time></trkpt><trkpt lat="44.3905719" lon="11.3276358"><ele>205.4</ele><time>2026-04-26T12:56:15.124Z</time></trkpt><trkpt lat="44.3904946" lon="11.3275775"><ele>204.8</ele><time>2026-04-26T12:56:16.13Z</time></trkpt><trkpt lat="44.3904109" lon="11.327527"><ele>204.20000000000002</ele><time>2026-04-26T12:56:17.145Z</time></trkpt><trkpt lat="44.3903205" lon="11.3274924"><ele>203.60000000000002</ele><time>2026-04-26T12:56:18.13Z</time></trkpt><trkpt lat="44.3902281" lon="11.3274737"><ele>203.0</ele><time>2026-04-26T12:56:19.13Z</time></trkpt><trkpt lat="44.3901394" lon="11.3274691"><ele>203.00000000000003</ele><time>2026-04-26T12:56:20.124Z</time></trkpt><trkpt lat="44.3900584" lon="11.3274897"><ele>203.0</ele><time>2026-04-26T12:56:21.135Z</time></trkpt><trkpt lat="44.3899927" lon="11.3275491"><ele>203.0</ele><time>2026-04-26T12:56:22.142Z</time></trkpt><trkpt lat="44.3899552" lon="11.3276422"><ele>203.0</ele><time>2026-04-26T12:56:23.137Z</time></trkpt><trkpt lat="44.3899545" lon="11.3277539"><ele>203.00000000000003</ele><time>2026-04-26T12:56:24.131Z</time></trkpt><trkpt lat="44.3899907" lon="11.3278596"><ele>203.0</ele><time>2026-04-26T12:56:25.127Z</time></trkpt><trkpt lat="44.3900557" lon="11.3279418"><ele>203.0</ele><time>2026-04-26T12:56:26.127Z</time></trkpt><trkpt lat="44.390134" lon="11.3280034"><ele>203.0</ele><time>2026-04-26T12:56:27.13Z</time></trkpt><trkpt lat="44.3902143" lon="11.3280593"><ele>203.0</ele><time>2026-04-26T12:56:28.129Z</time></trkpt><trkpt lat="44.3902956" lon="11.3281187"><ele>203.0</ele><time>2026-04-26T12:56:29.133Z</time></trkpt><trkpt lat="44.3903763" lon="11.3281848"><ele>203.0</ele><time>2026-04-26T12:56:30.122Z</time></trkpt><trkpt lat="44.3904589" lon="11.3282513"><ele>201.2</ele><time>2026-04-26T12:56:31.133Z</time></trkpt><trkpt lat="44.3905446" lon="11.3283141"><ele>199.4</ele><time>2026-04-26T12:56:32.123Z</time></trkpt><trkpt lat="44.3906327" lon="11.3283758"><ele>197.6</ele><time>2026-04-26T12:56:33.126Z</time></trkpt><trkpt lat="44.3907224" lon="11.3284379"><ele>195.79999999999998</ele><time>2026-04-26T12:56:34.127Z</time></trkpt><trkpt lat="44.3908137" lon="11.3285018"><ele>194.0</ele><time>2026-04-26T12:56:35.127Z</time></trkpt><trkpt lat="44.3909084" lon="11.3285658"><ele>194.0</ele><time>2026-04-26T12:56:36.134Z</time></trkpt><trkpt lat="44.391004" lon="11.3286291"><ele>194.0</ele><time>2026-04-26T12:56:37.128Z</time></trkpt><trkpt lat="44.3911011" lon="11.3286929"><ele>194.0</ele><time>2026-04-26T12:56:38.133Z</time></trkpt><trkpt lat="44.3911986" lon="11.3287565"><ele>194.0</ele><time>2026-04-26T12:56:39.121Z</time></trkpt><trkpt lat="44.3912965" lon="11.328822"><ele>194.0</ele><time>2026-04-26T12:56:40.131Z</time></trkpt><trkpt lat="44.3913949" lon="11.3288872"><ele>191.6</ele><time>2026-04-26T12:56:41.133Z</time></trkpt><trkpt lat="44.391494" lon="11.328951"><ele>189.2</ele><time>2026-04-26T12:56:42.134Z</time></trkpt><trkpt lat="44.3915933" lon="11.3290136"><ele>186.79999999999998</ele><time>2026-04-26T12:56:43.128Z</time></trkpt><trkpt lat="44.3916937" lon="11.3290718"><ele>184.39999999999998</ele><time>2026-04-26T12:56:44.125Z</time></trkpt><trkpt lat="44.3917924" lon="11.3291327"><ele>182.0</ele><time>2026-04-26T12:56:45.143Z</time></trkpt><trkpt lat="44.3918906" lon="11.3291974"><ele>182.0</ele><time>2026-04-26T12:56:46.131Z</time></trkpt><trkpt lat="44.3919877" lon="11.3292655"><ele>182.0</ele><time>2026-04-26T12:56:47.133Z</time></trkpt><trkpt lat="44.392086" lon="11.329331"><ele>182.0</ele><time>2026-04-26T12:56:48.127Z</time></trkpt><trkpt lat="44.3921852" lon="11.3293952"><ele>182.0</ele><time>2026-04-26T12:56:49.133Z</time></trkpt><trkpt lat="44.3922847" lon="11.3294603"><ele>182.0</ele><time>2026-04-26T12:56:50.13Z</time></trkpt><trkpt lat="44.3923847" lon="11.3295259"><ele>180.0</ele><time>2026-04-26T12:56:51.135Z</time></trkpt><trkpt lat="44.3924855" lon="11.3295908"><ele>178.0</ele><time>2026-04-26T12:56:52.129Z</time></trkpt><trkpt lat="44.3925873" lon="11.3296562"><ele>176.0</ele><time>2026-04-26T12:56:53.132Z</time></trkpt><trkpt lat="44.3926892" lon="11.3297241"><ele>174.0</ele><time>2026-04-26T12:56:54.136Z</time></trkpt><trkpt lat="44.3927919" lon="11.329793"><ele>173.0</ele><time>2026-04-26T12:56:55.137Z</time></trkpt><trkpt lat="44.3928951" lon="11.3298632"><ele>172.0</ele><time>2026-04-26T12:56:56.13Z</time></trkpt><trkpt lat="44.3930006" lon="11.3299291"><ele>171.0</ele><time>2026-04-26T12:56:57.131Z</time></trkpt><trkpt lat="44.393107" lon="11.3299957"><ele>170.0</ele><time>2026-04-26T12:56:58.13Z</time></trkpt><trkpt lat="44.3932135" lon="11.330064"><ele>170.0</ele><time>2026-04-26T12:56:59.123Z</time></trkpt><trkpt lat="44.3933189" lon="11.3301337"><ele>170.0</ele><time>2026-04-26T12:57:00.129Z</time></trkpt><trkpt lat="44.3934211" lon="11.3302073"><ele>170.0</ele><time>2026-04-26T12:57:01.133Z</time></trkpt><trkpt lat="44.3935151" lon="11.3302919"><ele>170.0</ele><time>2026-04-26T12:57:02.121Z</time></trkpt><trkpt lat="44.3935986" lon="11.3303864"><ele>170.0</ele><time>2026-04-26T12:57:03.118Z</time></trkpt><trkpt lat="44.3936669" lon="11.3304929"><ele>170.0</ele><time>2026-04-26T12:57:04.131Z</time></trkpt><trkpt lat="44.3937195" lon="11.3306078"><ele>170.0</ele><time>2026-04-26T12:57:05.13Z</time></trkpt><trkpt lat="44.3937592" lon="11.3307259"><ele>170.0</ele><time>2026-04-26T12:57:06.133Z</time></trkpt><trkpt lat="44.3937943" lon="11.3308425"><ele>170.0</ele><time>2026-04-26T12:57:07.127Z</time></trkpt><trkpt lat="44.3938289" lon="11.3309548"><ele>169.83333333333331</ele><time>2026-04-26T12:57:08.124Z</time></trkpt><trkpt lat="44.3938628" lon="11.3310648"><ele>169.66666666666666</ele><time>2026-04-26T12:57:09.125Z</time></trkpt><trkpt lat="44.3938946" lon="11.3311742"><ele>169.5</ele><time>2026-04-26T12:57:10.13Z</time></trkpt><trkpt lat="44.393925" lon="11.3312823"><ele>169.33333333333334</ele><time>2026-04-26T12:57:11.129Z</time></trkpt><trkpt lat="44.3939551" lon="11.3313884"><ele>169.16666666666669</ele><time>2026-04-26T12:57:12.125Z</time></trkpt><trkpt lat="44.3939867" lon="11.3314916"><ele>169.0</ele><time>2026-04-26T12:57:13.136Z</time></trkpt><trkpt lat="44.3940178" lon="11.3315919"><ele>168.71428571428572</ele><time>2026-04-26T12:57:14.14Z</time></trkpt><trkpt lat="44.3940505" lon="11.3316886"><ele>168.42857142857142</ele><time>2026-04-26T12:57:15.135Z</time></trkpt><trkpt lat="44.3940859" lon="11.3317789"><ele>168.14285714285714</ele><time>2026-04-26T12:57:16.13Z</time></trkpt><trkpt lat="44.3941259" lon="11.3318617"><ele>167.85714285714286</ele><time>2026-04-26T12:57:17.134Z</time></trkpt><trkpt lat="44.3941726" lon="11.3319365"><ele>167.57142857142858</ele><time>2026-04-26T12:57:18.132Z</time></trkpt><trkpt lat="44.394224" lon="11.3320045"><ele>167.28571428571428</ele><time>2026-04-26T12:57:19.133Z</time></trkpt><trkpt lat="44.3942804" lon="11.3320641"><ele>167.0</ele><time>2026-04-26T12:57:20.123Z</time></trkpt><trkpt lat="44.394342" lon="11.332115"><ele>167.0</ele><time>2026-04-26T12:57:21.124Z</time></trkpt><trkpt lat="44.3944068" lon="11.3321615"><ele>167.0</ele><time>2026-04-26T12:57:22.137Z</time></trkpt><trkpt lat="44.3944727" lon="11.3322062"><ele>167.0</ele><time>2026-04-26T12:57:23.129Z</time></trkpt><trkpt lat="44.3945396" lon="11.3322509"><ele>167.0</ele><time>2026-04-26T12:57:24.13Z</time></trkpt><trkpt lat="44.3946077" lon="11.3322943"><ele>167.0</ele><time>2026-04-26T12:57:25.133Z</time></trkpt><trkpt lat="44.3946764" lon="11.3323364"><ele>167.0</ele><time>2026-04-26T12:57:26.13Z</time></trkpt><trkpt lat="44.394746" lon="11.3323788"><ele>167.0</ele><time>2026-04-26T12:57:27.139Z</time></trkpt><trkpt lat="44.3948154" lon="11.3324224"><ele>166.83333333333331</ele><time>2026-04-26T12:57:28.124Z</time></trkpt><trkpt lat="44.3948847" lon="11.332466"><ele>166.66666666666666</ele><time>2026-04-26T12:57:29.128Z</time></trkpt><trkpt lat="44.3949542" lon="11.3325119"><ele>166.5</ele><time>2026-04-26T12:57:30.138Z</time></trkpt><trkpt lat="44.3950243" lon="11.3325571"><ele>166.33333333333334</ele><time>2026-04-26T12:57:31.124Z</time></trkpt><trkpt lat="44.3950956" lon="11.332602"><ele>166.16666666666669</ele><time>2026-04-26T12:57:32.126Z</time></trkpt><trkpt lat="44.3951664" lon="11.3326472"><ele>166.0</ele><time>2026-04-26T12:57:33.125Z</time></trkpt><trkpt lat="44.3952378" lon="11.3326925"><ele>166.0</ele><time>2026-04-26T12:57:34.123Z</time></trkpt><trkpt lat="44.3953097" lon="11.3327378"><ele>166.0</ele><time>2026-04-26T12:57:35.141Z</time></trkpt><trkpt lat="44.3953811" lon="11.3327839"><ele>166.0</ele><time>2026-04-26T12:57:36.126Z</time></trkpt><trkpt lat="44.3954531" lon="11.3328299"><ele>166.0</ele><time>2026-04-26T12:57:37.123Z</time></trkpt><trkpt lat="44.3955252" lon="11.3328759"><ele>166.0</ele><time>2026-04-26T12:57:38.126Z</time></trkpt><trkpt lat="44.395597" lon="11.3329215"><ele>166.0</ele><time>2026-04-26T12:57:39.13Z</time></trkpt><trkpt lat="44.3956666" lon="11.332967"><ele>166.0</ele><time>2026-04-26T12:57:40.128Z</time></trkpt><trkpt lat="44.3957354" lon="11.3330119"><ele>166.0</ele><time>2026-04-26T12:57:41.123Z</time></trkpt><trkpt lat="44.3958049" lon="11.3330569"><ele>166.0</ele><time>2026-04-26T12:57:42.126Z</time></trkpt><trkpt lat="44.3958751" lon="11.3331016"><ele>166.0</ele><time>2026-04-26T12:57:43.129Z</time></trkpt><trkpt lat="44.3959455" lon="11.3331465"><ele>166.0</ele><time>2026-04-26T12:57:44.121Z</time></trkpt><trkpt lat="44.3960163" lon="11.3331916"><ele>166.0</ele><time>2026-04-26T12:57:45.133Z</time></trkpt><trkpt lat="44.3960873" lon="11.3332376"><ele>165.5</ele><time>2026-04-26T12:57:46.131Z</time></trkpt><trkpt lat="44.3961586" lon="11.3332848"><ele>165.0</ele><time>2026-04-26T12:57:47.131Z</time></trkpt><trkpt lat="44.39623" lon="11.3333314"><ele>164.5</ele><time>2026-04-26T12:57:48.131Z</time></trkpt><trkpt lat="44.3963013" lon="11.3333767"><ele>164.0</ele><time>2026-04-26T12:57:49.122Z</time></trkpt><trkpt lat="44.3963724" lon="11.3334238"><ele>163.5</ele><time>2026-04-26T12:57:50.127Z</time></trkpt><trkpt lat="44.3964436" lon="11.3334694"><ele>163.0</ele><time>2026-04-26T12:57:51.123Z</time></trkpt><trkpt lat="44.3965153" lon="11.3335159"><ele>163.0</ele><time>2026-04-26T12:57:52.126Z</time></trkpt><trkpt lat="44.3965864" lon="11.3335627"><ele>163.0</ele><time>2026-04-26T12:57:53.132Z</time></trkpt><trkpt lat="44.3966588" lon="11.3336095"><ele>163.0</ele><time>2026-04-26T12:57:54.129Z</time></trkpt><trkpt lat="44.3967315" lon="11.3336555"><ele>163.0</ele><time>2026-04-26T12:57:55.127Z</time></trkpt><trkpt lat="44.3968045" lon="11.333702"><ele>163.0</ele><time>2026-04-26T12:57:56.128Z</time></trkpt><trkpt lat="44.3968768" lon="11.3337487"><ele>163.0</ele><time>2026-04-26T12:57:57.132Z</time></trkpt><trkpt lat="44.396949" lon="11.3337965"><ele>163.0</ele><time>2026-04-26T12:57:58.132Z</time></trkpt><trkpt lat="44.3970213" lon="11.333845"><ele>163.0</ele><time>2026-04-26T12:57:59.132Z</time></trkpt><trkpt lat="44.3970947" lon="11.3338927"><ele>163.0</ele><time>2026-04-26T12:58:00.128Z</time></trkpt><trkpt lat="44.3971685" lon="11.3339395"><ele>163.0</ele><time>2026-04-26T12:58:01.134Z</time></trkpt><trkpt lat="44.3972428" lon="11.3339866"><ele>163.0</ele><time>2026-04-26T12:58:02.126Z</time></trkpt><trkpt lat="44.3973169" lon="11.3340343"><ele>163.0</ele><time>2026-04-26T12:58:03.118Z</time></trkpt><trkpt lat="44.3973919" lon="11.3340813"><ele>162.33333333333334</ele><time>2026-04-26T12:58:04.128Z</time></trkpt><trkpt lat="44.3974647" lon="11.3341284"><ele>161.66666666666669</ele><time>2026-04-26T12:58:05.131Z</time></trkpt><trkpt lat="44.3975376" lon="11.3341748"><ele>161.0</ele><time>2026-04-26T12:58:06.128Z</time></trkpt><trkpt lat="44.3976105" lon="11.3342207"><ele>160.33333333333334</ele><time>2026-04-26T12:58:07.13Z</time></trkpt><trkpt lat="44.3976825" lon="11.3342674"><ele>159.66666666666666</ele><time>2026-04-26T12:58:08.13Z</time></trkpt><trkpt lat="44.3977534" lon="11.3343136"><ele>159.0</ele><time>2026-04-26T12:58:09.129Z</time></trkpt><trkpt lat="44.3978252" lon="11.334359"><ele>159.0</ele><time>2026-04-26T12:58:10.131Z</time></trkpt><trkpt lat="44.3978969" lon="11.3344059"><ele>159.0</ele><time>2026-04-26T12:58:11.126Z</time></trkpt><trkpt lat="44.3979688" lon="11.3344521"><ele>159.0</ele><time>2026-04-26T12:58:12.128Z</time></trkpt><trkpt lat="44.39804" lon="11.3344981"><ele>159.0</ele><time>2026-04-26T12:58:13.124Z</time></trkpt><trkpt lat="44.3981115" lon="11.3345437"><ele>159.0</ele><time>2026-04-26T12:58:14.122Z</time></trkpt><trkpt lat="44.3981834" lon="11.3345892"><ele>159.0</ele><time>2026-04-26T12:58:15.138Z</time></trkpt><trkpt lat="44.3982551" lon="11.3346349"><ele>158.5</ele><time>2026-04-26T12:58:16.135Z</time></trkpt><trkpt lat="44.3983257" lon="11.3346801"><ele>158.0</ele><time>2026-04-26T12:58:17.133Z</time></trkpt><trkpt lat="44.3983961" lon="11.3347258"><ele>157.5</ele><time>2026-04-26T12:58:18.128Z</time></trkpt><trkpt lat="44.3984656" lon="11.3347707"><ele>157.0</ele><time>2026-04-26T12:58:19.127Z</time></trkpt><trkpt lat="44.3985335" lon="11.3348171"><ele>156.5</ele><time>2026-04-26T12:58:20.122Z</time></trkpt><trkpt lat="44.3986009" lon="11.3348645"><ele>156.0</ele><time>2026-04-26T12:58:21.125Z</time></trkpt><trkpt lat="44.3986657" lon="11.3349198"><ele>156.0</ele><time>2026-04-26T12:58:22.126Z</time></trkpt><trkpt lat="44.3987256" lon="11.3349897"><ele>156.0</ele><time>2026-04-26T12:58:23.126Z</time></trkpt><trkpt lat="44.3987737" lon="11.335082"><ele>156.0</ele><time>2026-04-26T12:58:24.124Z</time></trkpt><trkpt lat="44.3988066" lon="11.335192"><ele>156.0</ele><time>2026-04-26T12:58:25.124Z</time></trkpt><trkpt lat="44.3988212" lon="11.3353128"><ele>156.0</ele><time>2026-04-26T12:58:26.124Z</time></trkpt><trkpt lat="44.3988209" lon="11.3354387"><ele>156.0</ele><time>2026-04-26T12:58:27.12Z</time></trkpt><trkpt lat="44.3988109" lon="11.3355685"><ele>154.8</ele><time>2026-04-26T12:58:28.123Z</time></trkpt><trkpt lat="44.3987967" lon="11.3357015"><ele>153.6</ele><time>2026-04-26T12:58:29.123Z</time></trkpt><trkpt lat="44.3987873" lon="11.3358396"><ele>152.4</ele><time>2026-04-26T12:58:30.132Z</time></trkpt><trkpt lat="44.3987795" lon="11.3359818"><ele>151.2</ele><time>2026-04-26T12:58:31.125Z</time></trkpt><trkpt lat="44.3987706" lon="11.3361283"><ele>150.0</ele><time>2026-04-26T12:58:32.126Z</time></trkpt><trkpt lat="44.3987606" lon="11.3362799"><ele>148.2</ele><time>2026-04-26T12:58:33.126Z</time></trkpt><trkpt lat="44.3987479" lon="11.3364345"><ele>146.4</ele><time>2026-04-26T12:58:34.13Z</time></trkpt><trkpt lat="44.398735" lon="11.3365926"><ele>144.6</ele><time>2026-04-26T12:58:35.128Z</time></trkpt><trkpt lat="44.3987198" lon="11.3367409"><ele>142.8</ele><time>2026-04-26T12:58:36.135Z</time></trkpt><trkpt lat="44.3986962" lon="11.3368798"><ele>141.0</ele><time>2026-04-26T12:58:37.129Z</time></trkpt><trkpt lat="44.3986564" lon="11.3370126"><ele>141.0</ele><time>2026-04-26T12:58:38.124Z</time></trkpt><trkpt lat="44.3986031" lon="11.3371339"><ele>141.0</ele><time>2026-04-26T12:58:39.124Z</time></trkpt><trkpt lat="44.3985571" lon="11.3372477"><ele>141.0</ele><time>2026-04-26T12:58:40.13Z</time></trkpt><trkpt lat="44.3985378" lon="11.3373618"><ele>141.0</ele><time>2026-04-26T12:58:41.125Z</time></trkpt><trkpt lat="44.3985518" lon="11.3374725"><ele>141.0</ele><time>2026-04-26T12:58:42.126Z</time></trkpt><trkpt lat="44.3985966" lon="11.3375617"><ele>141.0</ele><time>2026-04-26T12:58:43.126Z</time></trkpt><trkpt lat="44.3986609" lon="11.3376182"><ele>140.66666666666666</ele><time>2026-04-26T12:58:44.122Z</time></trkpt><trkpt lat="44.3987319" lon="11.3376512"><ele>140.33333333333334</ele><time>2026-04-26T12:58:45.128Z</time></trkpt><trkpt lat="44.3988053" lon="11.3376785"><ele>140.0</ele><time>2026-04-26T12:58:46.133Z</time></trkpt><trkpt lat="44.3988797" lon="11.3377068"><ele>139.66666666666669</ele><time>2026-04-26T12:58:47.134Z</time></trkpt><trkpt lat="44.3989553" lon="11.3377342"><ele>139.33333333333334</ele><time>2026-04-26T12:58:48.125Z</time></trkpt><trkpt lat="44.3990337" lon="11.3377575"><ele>139.0</ele><time>2026-04-26T12:58:49.113Z</time></trkpt><trkpt lat="44.3991142" lon="11.3377752"><ele>138.83333333333334</ele><time>2026-04-26T12:58:50.117Z</time></trkpt><trkpt lat="44.3991958" lon="11.3377917"><ele>138.66666666666669</ele><time>2026-04-26T12:58:51.129Z</time></trkpt><trkpt lat="44.3992788" lon="11.3378049"><ele>138.5</ele><time>2026-04-26T12:58:52.117Z</time></trkpt><trkpt lat="44.3993641" lon="11.3378196"><ele>138.33333333333334</ele><time>2026-04-26T12:58:53.117Z</time></trkpt><trkpt lat="44.3994502" lon="11.3378347"><ele>138.16666666666666</ele><time>2026-04-26T12:58:54.122Z</time></trkpt><trkpt lat="44.3995371" lon="11.3378503"><ele>138.0</ele><time>2026-04-26T12:58:55.114Z</time></trkpt><trkpt lat="44.3996256" lon="11.3378672"><ele>138.0</ele><time>2026-04-26T12:58:56.131Z</time></trkpt><trkpt lat="44.3997141" lon="11.337883"><ele>138.0</ele><time>2026-04-26T12:58:57.109Z</time></trkpt><trkpt lat="44.3998033" lon="11.3378991"><ele>138.0</ele><time>2026-04-26T12:58:58.127Z</time></trkpt><trkpt lat="44.3998937" lon="11.3379147"><ele>138.0</ele><time>2026-04-26T12:58:59.115Z</time></trkpt><trkpt lat="44.3999838" lon="11.3379305"><ele>138.0</ele><time>2026-04-26T12:59:00.123Z</time></trkpt><trkpt lat="44.4000731" lon="11.3379464"><ele>138.0</ele><time>2026-04-26T12:59:01.122Z</time></trkpt><trkpt lat="44.400161" lon="11.3379627"><ele>138.0</ele><time>2026-04-26T12:59:02.127Z</time></trkpt><trkpt lat="44.4002479" lon="11.3379799"><ele>138.0</ele><time>2026-04-26T12:59:03.126Z</time></trkpt><trkpt lat="44.400334" lon="11.3379956"><ele>138.0</ele><time>2026-04-26T12:59:04.132Z</time></trkpt><trkpt lat="44.4004197" lon="11.3380103"><ele>138.0</ele><time>2026-04-26T12:59:05.127Z</time></trkpt><trkpt lat="44.4005035" lon="11.3380243"><ele>138.0</ele><time>2026-04-26T12:59:06.131Z</time></trkpt><trkpt lat="44.4005843" lon="11.3380372"><ele>137.83333333333334</ele><time>2026-04-26T12:59:07.127Z</time></trkpt><trkpt lat="44.400663" lon="11.3380517"><ele>137.66666666666666</ele><time>2026-04-26T12:59:08.122Z</time></trkpt><trkpt lat="44.4007391" lon="11.3380671"><ele>137.5</ele><time>2026-04-26T12:59:09.132Z</time></trkpt><trkpt lat="44.4008138" lon="11.338081"><ele>137.33333333333331</ele><time>2026-04-26T12:59:10.134Z</time></trkpt><trkpt lat="44.4008866" lon="11.3380938"><ele>137.16666666666666</ele><time>2026-04-26T12:59:11.126Z</time></trkpt><trkpt lat="44.4009589" lon="11.3381059"><ele>137.0</ele><time>2026-04-26T12:59:12.123Z</time></trkpt><trkpt lat="44.4010303" lon="11.3381172"><ele>137.0</ele><time>2026-04-26T12:59:13.139Z</time></trkpt><trkpt lat="44.4011023" lon="11.3381314"><ele>137.0</ele><time>2026-04-26T12:59:14.129Z</time></trkpt><trkpt lat="44.401177" lon="11.3381451"><ele>137.0</ele><time>2026-04-26T12:59:15.129Z</time></trkpt><trkpt lat="44.4012514" lon="11.3381587"><ele>137.0</ele><time>2026-04-26T12:59:16.128Z</time></trkpt><trkpt lat="44.4013257" lon="11.3381736"><ele>137.0</ele><time>2026-04-26T12:59:17.137Z</time></trkpt><trkpt lat="44.4014008" lon="11.3381896"><ele>137.0</ele><time>2026-04-26T12:59:18.137Z</time></trkpt><trkpt lat="44.4014759" lon="11.3382071"><ele>136.5</ele><time>2026-04-26T12:59:19.127Z</time></trkpt><trkpt lat="44.4015504" lon="11.3382278"><ele>136.0</ele><time>2026-04-26T12:59:20.126Z</time></trkpt><trkpt lat="44.4016243" lon="11.3382516"><ele>135.5</ele><time>2026-04-26T12:59:21.132Z</time></trkpt><trkpt lat="44.4016985" lon="11.338276"><ele>135.0</ele><time>2026-04-26T12:59:22.125Z</time></trkpt><trkpt lat="44.4017734" lon="11.3383024"><ele>134.5</ele><time>2026-04-26T12:59:23.124Z</time></trkpt><trkpt lat="44.4018481" lon="11.33833"><ele>134.0</ele><time>2026-04-26T12:59:24.133Z</time></trkpt><trkpt lat="44.4019219" lon="11.3383589"><ele>134.0</ele><time>2026-04-26T12:59:25.126Z</time></trkpt><trkpt lat="44.4019956" lon="11.3383909"><ele>134.0</ele><time>2026-04-26T12:59:26.126Z</time></trkpt><trkpt lat="44.4020693" lon="11.338424"><ele>134.0</ele><time>2026-04-26T12:59:27.128Z</time></trkpt><trkpt lat="44.4021425" lon="11.3384602"><ele>134.0</ele><time>2026-04-26T12:59:28.125Z</time></trkpt><trkpt lat="44.4022149" lon="11.3384998"><ele>134.0</ele><time>2026-04-26T12:59:29.125Z</time></trkpt><trkpt lat="44.402287" lon="11.3385409"><ele>134.0</ele><time>2026-04-26T12:59:30.133Z</time></trkpt><trkpt lat="44.4023588" lon="11.3385831"><ele>134.0</ele><time>2026-04-26T12:59:31.124Z</time></trkpt><trkpt lat="44.4024304" lon="11.338626"><ele>134.0</ele><time>2026-04-26T12:59:32.123Z</time></trkpt><trkpt lat="44.4025015" lon="11.3386713"><ele>134.0</ele><time>2026-04-26T12:59:33.135Z</time></trkpt><trkpt lat="44.4025727" lon="11.3387169"><ele>134.0</ele><time>2026-04-26T12:59:34.124Z</time></trkpt><trkpt lat="44.4026432" lon="11.3387649"><ele>134.0</ele><time>2026-04-26T12:59:35.125Z</time></trkpt><trkpt lat="44.4027133" lon="11.3388152"><ele>134.0</ele><time>2026-04-26T12:59:36.131Z</time></trkpt><trkpt lat="44.4027833" lon="11.3388659"><ele>133.83333333333331</ele><time>2026-04-26T12:59:37.128Z</time></trkpt><trkpt lat="44.4028538" lon="11.338917"><ele>133.66666666666666</ele><time>2026-04-26T12:59:38.144Z</time></trkpt><trkpt lat="44.4029253" lon="11.3389676"><ele>133.5</ele><time>2026-04-26T12:59:39.124Z</time></trkpt><trkpt lat="44.4029962" lon="11.3390179"><ele>133.33333333333334</ele><time>2026-04-26T12:59:40.128Z</time></trkpt><trkpt lat="44.4030675" lon="11.3390685"><ele>133.16666666666669</ele><time>2026-04-26T12:59:41.128Z</time></trkpt><trkpt lat="44.4031379" lon="11.3391189"><ele>133.0</ele><time>2026-04-26T12:59:42.133Z</time></trkpt><trkpt lat="44.4032085" lon="11.3391689"><ele>132.83333333333334</ele><time>2026-04-26T12:59:43.117Z</time></trkpt><trkpt lat="44.4032791" lon="11.339219"><ele>132.66666666666669</ele><time>2026-04-26T12:59:44.127Z</time></trkpt><trkpt lat="44.4033503" lon="11.3392686"><ele>132.5</ele><time>2026-04-26T12:59:45.127Z</time></trkpt><trkpt lat="44.403421" lon="11.3393188"><ele>132.33333333333334</ele><time>2026-04-26T12:59:46.128Z</time></trkpt><trkpt lat="44.4034909" lon="11.3393703"><ele>132.16666666666666</ele><time>2026-04-26T12:59:47.121Z</time></trkpt><trkpt lat="44.4035619" lon="11.3394216"><ele>132.0</ele><time>2026-04-26T12:59:48.127Z</time></trkpt><trkpt lat="44.4036332" lon="11.3394731"><ele>132.0</ele><time>2026-04-26T12:59:49.121Z</time></trkpt><trkpt lat="44.4037048" lon="11.3395228"><ele>132.0</ele><time>2026-04-26T12:59:50.123Z</time></trkpt><trkpt lat="44.4037767" lon="11.3395723"><ele>132.0</ele><time>2026-04-26T12:59:51.134Z</time></trkpt><trkpt lat="44.4038476" lon="11.3396234"><ele>132.0</ele><time>2026-04-26T12:59:52.12Z</time></trkpt><trkpt lat="44.4039181" lon="11.3396753"><ele>132.0</ele><time>2026-04-26T12:59:53.135Z</time></trkpt><trkpt lat="44.4039888" lon="11.3397268"><ele>132.0</ele><time>2026-04-26T12:59:54.135Z</time></trkpt><trkpt lat="44.4040592" lon="11.3397776"><ele>131.83333333333334</ele><time>2026-04-26T12:59:55.129Z</time></trkpt><trkpt lat="44.4041296" lon="11.3398274"><ele>131.66666666666666</ele><time>2026-04-26T12:59:56.122Z</time></trkpt><trkpt lat="44.4041994" lon="11.3398773"><ele>131.5</ele><time>2026-04-26T12:59:57.117Z</time></trkpt><trkpt lat="44.4042692" lon="11.3399268"><ele>131.33333333333331</ele><time>2026-04-26T12:59:58.132Z</time></trkpt><trkpt lat="44.4043383" lon="11.3399763"><ele>131.16666666666666</ele><time>2026-04-26T12:59:59.128Z</time></trkpt><trkpt lat="44.4044076" lon="11.3400254"><ele>131.0</ele><time>2026-04-26T13:00:00.124Z</time></trkpt><trkpt lat="44.4044763" lon="11.3400745"><ele>131.0</ele><time>2026-04-26T13:00:01.124Z</time></trkpt><trkpt lat="44.4045451" lon="11.3401242"><ele>131.0</ele><time>2026-04-26T13:00:02.129Z</time></trkpt><trkpt lat="44.404614" lon="11.340174"><ele>131.0</ele><time>2026-04-26T13:00:03.124Z</time></trkpt><trkpt lat="44.4046827" lon="11.3402231"><ele>131.0</ele><time>2026-04-26T13:00:04.122Z</time></trkpt><trkpt lat="44.404751" lon="11.3402717"><ele>131.0</ele><time>2026-04-26T13:00:05.127Z</time></trkpt><trkpt lat="44.4048191" lon="11.3403193"><ele>131.0</ele><time>2026-04-26T13:00:06.126Z</time></trkpt><trkpt lat="44.4048865" lon="11.3403671"><ele>131.0</ele><time>2026-04-26T13:00:07.126Z</time></trkpt><trkpt lat="44.4049542" lon="11.3404142"><ele>131.0</ele><time>2026-04-26T13:00:08.129Z</time></trkpt><trkpt lat="44.405022" lon="11.3404616"><ele>131.0</ele><time>2026-04-26T13:00:09.132Z</time></trkpt><trkpt lat="44.4050903" lon="11.3405092"><ele>131.0</ele><time>2026-04-26T13:00:10.134Z</time></trkpt><trkpt lat="44.4051583" lon="11.340558"><ele>131.0</ele><time>2026-04-26T13:00:11.135Z</time></trkpt><trkpt lat="44.4052262" lon="11.3406071"><ele>131.0</ele><time>2026-04-26T13:00:12.127Z</time></trkpt><trkpt lat="44.4052948" lon="11.3406539"><ele>131.0</ele><time>2026-04-26T13:00:13.131Z</time></trkpt><trkpt lat="44.4053636" lon="11.3407001"><ele>131.0</ele><time>2026-04-26T13:00:14.132Z</time></trkpt><trkpt lat="44.4054316" lon="11.3407481"><ele>131.0</ele><time>2026-04-26T13:00:15.123Z</time></trkpt><trkpt lat="44.4054998" lon="11.3407966"><ele>131.0</ele><time>2026-04-26T13:00:16.121Z</time></trkpt><trkpt lat="44.4055676" lon="11.3408462"><ele>131.0</ele><time>2026-04-26T13:00:17.127Z</time></trkpt><trkpt lat="44.405635" lon="11.3408963"><ele>131.0</ele><time>2026-04-26T13:00:18.122Z</time></trkpt><trkpt lat="44.4057024" lon="11.340946"><ele>130.5</ele><time>2026-04-26T13:00:19.13Z</time></trkpt><trkpt lat="44.4057703" lon="11.3409944"><ele>130.0</ele><time>2026-04-26T13:00:20.124Z</time></trkpt><trkpt lat="44.4058382" lon="11.3410411"><ele>129.5</ele><time>2026-04-26T13:00:21.131Z</time></trkpt><trkpt lat="44.4059061" lon="11.3410891"><ele>129.0</ele><time>2026-04-26T13:00:22.126Z</time></trkpt><trkpt lat="44.4059733" lon="11.3411374"><ele>128.5</ele><time>2026-04-26T13:00:23.129Z</time></trkpt><trkpt lat="44.4060406" lon="11.3411871"><ele>128.0</ele><time>2026-04-26T13:00:24.126Z</time></trkpt><trkpt lat="44.4061078" lon="11.3412379"><ele>127.99999999999999</ele><time>2026-04-26T13:00:25.126Z</time></trkpt><trkpt lat="44.4061757" lon="11.3412876"><ele>128.0</ele><time>2026-04-26T13:00:26.127Z</time></trkpt><trkpt lat="44.4062447" lon="11.3413354"><ele>128.0</ele><time>2026-04-26T13:00:27.13Z</time></trkpt><trkpt lat="44.4063129" lon="11.3413826"><ele>128.0</ele><time>2026-04-26T13:00:28.134Z</time></trkpt><trkpt lat="44.4063802" lon="11.3414293"><ele>127.99999999999999</ele><time>2026-04-26T13:00:29.126Z</time></trkpt><trkpt lat="44.4064472" lon="11.3414772"><ele>128.0</ele><time>2026-04-26T13:00:30.123Z</time></trkpt><trkpt lat="44.4065141" lon="11.3415247"><ele>128.0</ele><time>2026-04-26T13:00:31.129Z</time></trkpt><trkpt lat="44.4065811" lon="11.3415711"><ele>127.99999999999999</ele><time>2026-04-26T13:00:32.134Z</time></trkpt><trkpt lat="44.4066484" lon="11.3416185"><ele>128.0</ele><time>2026-04-26T13:00:33.128Z</time></trkpt><trkpt lat="44.4067142" lon="11.3416659"><ele>128.0</ele><time>2026-04-26T13:00:34.123Z</time></trkpt><trkpt lat="44.4067809" lon="11.3417116"><ele>127.99999999999999</ele><time>2026-04-26T13:00:35.128Z</time></trkpt><trkpt lat="44.4068469" lon="11.3417583"><ele>128.0</ele><time>2026-04-26T13:00:36.125Z</time></trkpt><trkpt lat="44.4069135" lon="11.3418058"><ele>128.0</ele><time>2026-04-26T13:00:37.13Z</time></trkpt><trkpt lat="44.4069797" lon="11.3418527"><ele>128.0</ele><time>2026-04-26T13:00:38.131Z</time></trkpt><trkpt lat="44.4070469" lon="11.3418977"><ele>127.99999999999999</ele><time>2026-04-26T13:00:39.124Z</time></trkpt><trkpt lat="44.4071144" lon="11.3419447"><ele>128.0</ele><time>2026-04-26T13:00:40.131Z</time></trkpt><trkpt lat="44.4071812" lon="11.3419916"><ele>128.0</ele><time>2026-04-26T13:00:41.138Z</time></trkpt><trkpt lat="44.4072478" lon="11.3420377"><ele>127.99999999999999</ele><time>2026-04-26T13:00:42.125Z</time></trkpt><trkpt lat="44.4073136" lon="11.3420856"><ele>128.0</ele><time>2026-04-26T13:00:43.13Z</time></trkpt><trkpt lat="44.4073787" lon="11.3421338"><ele>128.0</ele><time>2026-04-26T13:00:44.14Z</time></trkpt><trkpt lat="44.4074441" lon="11.3421798"><ele>127.85714285714285</ele><time>2026-04-26T13:00:45.131Z</time></trkpt><trkpt lat="44.4075094" lon="11.3422259"><ele>127.7142857142857</ele><time>2026-04-26T13:00:46.116Z</time></trkpt><trkpt lat="44.4075738" lon="11.342273"><ele>127.57142857142857</ele><time>2026-04-26T13:00:47.124Z</time></trkpt><trkpt lat="44.4076379" lon="11.3423186"><ele>127.42857142857142</ele><time>2026-04-26T13:00:48.125Z</time></trkpt><trkpt lat="44.4077024" lon="11.3423647"><ele>127.28571428571428</ele><time>2026-04-26T13:00:49.13Z</time></trkpt><trkpt lat="44.4077667" lon="11.3424111"><ele>127.14285714285714</ele><time>2026-04-26T13:00:50.131Z</time></trkpt><trkpt lat="44.4078317" lon="11.3424568"><ele>127.0</ele><time>2026-04-26T13:00:51.128Z</time></trkpt><trkpt lat="44.4078957" lon="11.3425027"><ele>127.0</ele><time>2026-04-26T13:00:52.129Z</time></trkpt><trkpt lat="44.4079595" lon="11.3425491"><ele>127.0</ele><time>2026-04-26T13:00:53.13Z</time></trkpt><trkpt lat="44.4080239" lon="11.3425935"><ele>127.0</ele><time>2026-04-26T13:00:54.135Z</time></trkpt><trkpt lat="44.4080884" lon="11.3426376"><ele>127.0</ele><time>2026-04-26T13:00:55.126Z</time></trkpt><trkpt lat="44.4081529" lon="11.3426811"><ele>127.0</ele><time>2026-04-26T13:00:56.131Z</time></trkpt><trkpt lat="44.4082166" lon="11.3427261"><ele>127.0</ele><time>2026-04-26T13:00:57.132Z</time></trkpt><trkpt lat="44.4082798" lon="11.3427715"><ele>127.0</ele><time>2026-04-26T13:00:58.132Z</time></trkpt><trkpt lat="44.4083432" lon="11.3428152"><ele>127.14285714285714</ele><time>2026-04-26T13:00:59.125Z</time></trkpt><trkpt lat="44.408406" lon="11.3428608"><ele>127.28571428571428</ele><time>2026-04-26T13:01:00.139Z</time></trkpt><trkpt lat="44.4084678" lon="11.3429081"><ele>127.42857142857142</ele><time>2026-04-26T13:01:01.123Z</time></trkpt><trkpt lat="44.4085306" lon="11.3429537"><ele>127.57142857142857</ele><time>2026-04-26T13:01:02.132Z</time></trkpt><trkpt lat="44.4085935" lon="11.3429991"><ele>127.7142857142857</ele><time>2026-04-26T13:01:03.127Z</time></trkpt><trkpt lat="44.4086569" lon="11.343044"><ele>127.85714285714285</ele><time>2026-04-26T13:01:04.12Z</time></trkpt><trkpt lat="44.4087206" lon="11.3430887"><ele>128.0</ele><time>2026-04-26T13:01:05.131Z</time></trkpt><trkpt lat="44.408784" lon="11.343134"><ele>128.0</ele><time>2026-04-26T13:01:06.131Z</time></trkpt><trkpt lat="44.4088469" lon="11.3431809"><ele>127.99999999999999</ele><time>2026-04-26T13:01:07.124Z</time></trkpt><trkpt lat="44.408909" lon="11.3432281"><ele>128.0</ele><time>2026-04-26T13:01:08.121Z</time></trkpt><trkpt lat="44.4089715" lon="11.343274"><ele>128.0</ele><time>2026-04-26T13:01:09.13Z</time></trkpt><trkpt lat="44.4090332" lon="11.3433195"><ele>127.99999999999999</ele><time>2026-04-26T13:01:10.129Z</time></trkpt><trkpt lat="44.4090949" lon="11.3433653"><ele>128.0</ele><time>2026-04-26T13:01:11.127Z</time></trkpt><trkpt lat="44.4091562" lon="11.3434107"><ele>128.0</ele><time>2026-04-26T13:01:12.126Z</time></trkpt><trkpt lat="44.4092178" lon="11.3434552"><ele>128.0</ele><time>2026-04-26T13:01:13.129Z</time></trkpt><trkpt lat="44.4092794" lon="11.3434992"><ele>127.99999999999999</ele><time>2026-04-26T13:01:14.121Z</time></trkpt><trkpt lat="44.4093412" lon="11.3435429"><ele>128.0</ele><time>2026-04-26T13:01:15.126Z</time></trkpt><trkpt lat="44.4094027" lon="11.3435864"><ele>128.0</ele><time>2026-04-26T13:01:16.13Z</time></trkpt><trkpt lat="44.4094645" lon="11.3436305"><ele>127.99999999999999</ele><time>2026-04-26T13:01:17.122Z</time></trkpt><trkpt lat="44.4095263" lon="11.3436745"><ele>128.0</ele><time>2026-04-26T13:01:18.128Z</time></trkpt><trkpt lat="44.4095883" lon="11.3437181"><ele>128.0</ele><time>2026-04-26T13:01:19.131Z</time></trkpt><trkpt lat="44.4096508" lon="11.3437617"><ele>128.14285714285714</ele><time>2026-04-26T13:01:20.124Z</time></trkpt><trkpt lat="44.4097137" lon="11.3438054"><ele>128.28571428571428</ele><time>2026-04-26T13:01:21.118Z</time></trkpt><trkpt lat="44.4097765" lon="11.3438485"><ele>128.42857142857142</ele><time>2026-04-26T13:01:22.126Z</time></trkpt><trkpt lat="44.4098388" lon="11.3438921"><ele>128.57142857142856</ele><time>2026-04-26T13:01:23.121Z</time></trkpt><trkpt lat="44.4099008" lon="11.3439371"><ele>128.71428571428572</ele><time>2026-04-26T13:01:24.12Z</time></trkpt><trkpt lat="44.4099636" lon="11.3439827"><ele>128.85714285714283</ele><time>2026-04-26T13:01:25.127Z</time></trkpt><trkpt lat="44.4100267" lon="11.3440298"><ele>129.0</ele><time>2026-04-26T13:01:26.133Z</time></trkpt><trkpt lat="44.4100909" lon="11.3440759"><ele>128.99999999999997</ele><time>2026-04-26T13:01:27.122Z</time></trkpt><trkpt lat="44.4101552" lon="11.3441218"><ele>129.0</ele><time>2026-04-26T13:01:28.128Z</time></trkpt><trkpt lat="44.4102195" lon="11.3441673"><ele>129.0</ele><time>2026-04-26T13:01:29.136Z</time></trkpt><trkpt lat="44.4102845" lon="11.3442124"><ele>129.0</ele><time>2026-04-26T13:01:30.131Z</time></trkpt><trkpt lat="44.4103494" lon="11.3442573"><ele>129.0</ele><time>2026-04-26T13:01:31.13Z</time></trkpt><trkpt lat="44.4104134" lon="11.3443034"><ele>128.99999999999997</ele><time>2026-04-26T13:01:32.131Z</time></trkpt><trkpt lat="44.4104771" lon="11.3443486"><ele>129.0</ele><time>2026-04-26T13:01:33.123Z</time></trkpt><trkpt lat="44.4105407" lon="11.344394"><ele>129.14285714285714</ele><time>2026-04-26T13:01:34.132Z</time></trkpt><trkpt lat="44.410605" lon="11.3444368"><ele>129.28571428571428</ele><time>2026-04-26T13:01:35.132Z</time></trkpt><trkpt lat="44.4106694" lon="11.3444782"><ele>129.42857142857144</ele><time>2026-04-26T13:01:36.129Z</time></trkpt><trkpt lat="44.4107336" lon="11.3445197"><ele>129.57142857142856</ele><time>2026-04-26T13:01:37.127Z</time></trkpt><trkpt lat="44.410797" lon="11.3445622"><ele>129.71428571428572</ele><time>2026-04-26T13:01:38.136Z</time></trkpt><trkpt lat="44.41086" lon="11.3446054"><ele>129.85714285714286</ele><time>2026-04-26T13:01:39.136Z</time></trkpt><trkpt lat="44.4109228" lon="11.3446475"><ele>130.0</ele><time>2026-04-26T13:01:40.136Z</time></trkpt><trkpt lat="44.410985" lon="11.3446903"><ele>129.85714285714286</ele><time>2026-04-26T13:01:41.13Z</time></trkpt><trkpt lat="44.4110472" lon="11.3447338"><ele>129.71428571428572</ele><time>2026-04-26T13:01:42.125Z</time></trkpt><trkpt lat="44.4111093" lon="11.3447776"><ele>129.57142857142856</ele><time>2026-04-26T13:01:43.129Z</time></trkpt><trkpt lat="44.4111709" lon="11.3448214"><ele>129.42857142857144</ele><time>2026-04-26T13:01:44.141Z</time></trkpt><trkpt lat="44.4112327" lon="11.3448652"><ele>129.28571428571428</ele><time>2026-04-26T13:01:45.128Z</time></trkpt><trkpt lat="44.4112944" lon="11.3449096"><ele>129.14285714285714</ele><time>2026-04-26T13:01:46.131Z</time></trkpt><trkpt lat="44.4113565" lon="11.3449531"><ele>129.0</ele><time>2026-04-26T13:01:47.128Z</time></trkpt><trkpt lat="44.4114193" lon="11.344995"><ele>128.57142857142856</ele><time>2026-04-26T13:01:48.128Z</time></trkpt><trkpt lat="44.411482" lon="11.3450366"><ele>128.14285714285714</ele><time>2026-04-26T13:01:49.128Z</time></trkpt><trkpt lat="44.4115432" lon="11.3450797"><ele>127.71428571428571</ele><time>2026-04-26T13:01:50.126Z</time></trkpt><trkpt lat="44.4116038" lon="11.3451228"><ele>127.28571428571428</ele><time>2026-04-26T13:01:51.126Z</time></trkpt><trkpt lat="44.4116642" lon="11.3451655"><ele>126.85714285714286</ele><time>2026-04-26T13:01:52.12Z</time></trkpt><trkpt lat="44.4117246" lon="11.345207"><ele>126.42857142857143</ele><time>2026-04-26T13:01:53.133Z</time></trkpt><trkpt lat="44.4117842" lon="11.3452482"><ele>126.0</ele><time>2026-04-26T13:01:54.126Z</time></trkpt><trkpt lat="44.4118441" lon="11.3452886"><ele>126.0</ele><time>2026-04-26T13:01:55.12Z</time></trkpt><trkpt lat="44.4119045" lon="11.3453273"><ele>126.0</ele><time>2026-04-26T13:01:56.13Z</time></trkpt><trkpt lat="44.4119654" lon="11.3453658"><ele>126.0</ele><time>2026-04-26T13:01:57.127Z</time></trkpt><trkpt lat="44.4120272" lon="11.3454024"><ele>126.0</ele><time>2026-04-26T13:01:58.125Z</time></trkpt><trkpt lat="44.4120892" lon="11.3454383"><ele>126.0</ele><time>2026-04-26T13:01:59.123Z</time></trkpt><trkpt lat="44.412152" lon="11.3454736"><ele>126.0</ele><time>2026-04-26T13:02:00.126Z</time></trkpt><trkpt lat="44.412216" lon="11.3455076"><ele>126.0</ele><time>2026-04-26T13:02:01.134Z</time></trkpt><trkpt lat="44.4122806" lon="11.3455407"><ele>126.28571428571428</ele><time>2026-04-26T13:02:02.113Z</time></trkpt><trkpt lat="44.4123458" lon="11.3455727"><ele>126.57142857142857</ele><time>2026-04-26T13:02:03.123Z</time></trkpt><trkpt lat="44.4124119" lon="11.3456029"><ele>126.85714285714286</ele><time>2026-04-26T13:02:04.123Z</time></trkpt><trkpt lat="44.4124781" lon="11.345632"><ele>127.14285714285714</ele><time>2026-04-26T13:02:05.137Z</time></trkpt><trkpt lat="44.4125442" lon="11.3456587"><ele>127.42857142857142</ele><time>2026-04-26T13:02:06.125Z</time></trkpt><trkpt lat="44.4126104" lon="11.345683"><ele>127.71428571428571</ele><time>2026-04-26T13:02:07.124Z</time></trkpt><trkpt lat="44.4126764" lon="11.3457064"><ele>128.0</ele><time>2026-04-26T13:02:08.132Z</time></trkpt><trkpt lat="44.412742" lon="11.3457272"><ele>128.0</ele><time>2026-04-26T13:02:09.123Z</time></trkpt><trkpt lat="44.4128076" lon="11.3457475"><ele>127.99999999999999</ele><time>2026-04-26T13:02:10.127Z</time></trkpt><trkpt lat="44.4128732" lon="11.3457683"><ele>128.0</ele><time>2026-04-26T13:02:11.127Z</time></trkpt><trkpt lat="44.412939" lon="11.3457881"><ele>128.0</ele><time>2026-04-26T13:02:12.125Z</time></trkpt><trkpt lat="44.4130053" lon="11.3458041"><ele>127.99999999999999</ele><time>2026-04-26T13:02:13.123Z</time></trkpt><trkpt lat="44.4130717" lon="11.3458186"><ele>128.0</ele><time>2026-04-26T13:02:14.13Z</time></trkpt><trkpt lat="44.4131385" lon="11.3458322"><ele>128.0</ele><time>2026-04-26T13:02:15.127Z</time></trkpt><trkpt lat="44.4132055" lon="11.3458447"><ele>128.0</ele><time>2026-04-26T13:02:16.13Z</time></trkpt><trkpt lat="44.4132727" lon="11.3458558"><ele>127.99999999999999</ele><time>2026-04-26T13:02:17.129Z</time></trkpt><trkpt lat="44.4133393" lon="11.345866"><ele>128.0</ele><time>2026-04-26T13:02:18.129Z</time></trkpt><trkpt lat="44.4134062" lon="11.3458738"><ele>128.0</ele><time>2026-04-26T13:02:19.121Z</time></trkpt><trkpt lat="44.4134732" lon="11.34588"><ele>127.99999999999999</ele><time>2026-04-26T13:02:20.139Z</time></trkpt><trkpt lat="44.4135401" lon="11.3458859"><ele>128.0</ele><time>2026-04-26T13:02:21.128Z</time></trkpt><trkpt lat="44.4136068" lon="11.3458918"><ele>128.0</ele><time>2026-04-26T13:02:22.124Z</time></trkpt><trkpt lat="44.4136736" lon="11.3458944"><ele>128.0</ele><time>2026-04-26T13:02:23.127Z</time></trkpt><trkpt lat="44.4137403" lon="11.3458953"><ele>127.99999999999999</ele><time>2026-04-26T13:02:24.125Z</time></trkpt><trkpt lat="44.4138065" lon="11.3458946"><ele>128.0</ele><time>2026-04-26T13:02:25.123Z</time></trkpt><trkpt lat="44.4138725" lon="11.3458935"><ele>128.0</ele><time>2026-04-26T13:02:26.138Z</time></trkpt><trkpt lat="44.4139382" lon="11.345891"><ele>127.99999999999999</ele><time>2026-04-26T13:02:27.128Z</time></trkpt><trkpt lat="44.4140038" lon="11.3458885"><ele>128.0</ele><time>2026-04-26T13:02:28.131Z</time></trkpt><trkpt lat="44.4140691" lon="11.3458825"><ele>128.0</ele><time>2026-04-26T13:02:29.134Z</time></trkpt><trkpt lat="44.4141346" lon="11.3458763"><ele>127.85714285714285</ele><time>2026-04-26T13:02:30.133Z</time></trkpt><trkpt lat="44.4142003" lon="11.3458686"><ele>127.7142857142857</ele><time>2026-04-26T13:02:31.131Z</time></trkpt><trkpt lat="44.4142663" lon="11.3458613"><ele>127.57142857142857</ele><time>2026-04-26T13:02:32.127Z</time></trkpt><trkpt lat="44.4143329" lon="11.3458536"><ele>127.42857142857142</ele><time>2026-04-26T13:02:33.126Z</time></trkpt><trkpt lat="44.4144" lon="11.3458453"><ele>127.28571428571428</ele><time>2026-04-26T13:02:34.133Z</time></trkpt><trkpt lat="44.4144674" lon="11.3458358"><ele>127.14285714285714</ele><time>2026-04-26T13:02:35.131Z</time></trkpt><trkpt lat="44.4145351" lon="11.3458266"><ele>127.0</ele><time>2026-04-26T13:02:36.128Z</time></trkpt><trkpt lat="44.414603" lon="11.3458179"><ele>126.71428571428572</ele><time>2026-04-26T13:02:37.131Z</time></trkpt><trkpt lat="44.414672" lon="11.3458098"><ele>126.42857142857142</ele><time>2026-04-26T13:02:38.119Z</time></trkpt><trkpt lat="44.4147409" lon="11.3458002"><ele>126.14285714285714</ele><time>2026-04-26T13:02:39.128Z</time></trkpt><trkpt lat="44.414811" lon="11.345792"><ele>125.85714285714286</ele><time>2026-04-26T13:02:40.131Z</time></trkpt><trkpt lat="44.4148819" lon="11.3457829"><ele>125.57142857142858</ele><time>2026-04-26T13:02:41.117Z</time></trkpt><trkpt lat="44.4149529" lon="11.3457741"><ele>125.28571428571428</ele><time>2026-04-26T13:02:42.135Z</time></trkpt><trkpt lat="44.415023" lon="11.3457633"><ele>125.0</ele><time>2026-04-26T13:02:43.129Z</time></trkpt><trkpt lat="44.4150939" lon="11.3457525"><ele>125.0</ele><time>2026-04-26T13:02:44.135Z</time></trkpt><trkpt lat="44.4151656" lon="11.3457436"><ele>125.0</ele><time>2026-04-26T13:02:45.131Z</time></trkpt><trkpt lat="44.4152376" lon="11.3457339"><ele>125.0</ele><time>2026-04-26T13:02:46.132Z</time></trkpt><trkpt lat="44.4153105" lon="11.345723"><ele>125.0</ele><time>2026-04-26T13:02:47.12Z</time></trkpt><trkpt lat="44.4153843" lon="11.3457134"><ele>125.0</ele><time>2026-04-26T13:02:48.125Z</time></trkpt><trkpt lat="44.4154595" lon="11.3457027"><ele>125.0</ele><time>2026-04-26T13:02:49.139Z</time></trkpt><trkpt lat="44.4155344" lon="11.3456926"><ele>125.0</ele><time>2026-04-26T13:02:50.122Z</time></trkpt><trkpt lat="44.4156106" lon="11.3456835"><ele>124.49999999999999</ele><time>2026-04-26T13:02:51.125Z</time></trkpt><trkpt lat="44.415687" lon="11.3456755"><ele>124.0</ele><time>2026-04-26T13:02:52.124Z</time></trkpt><trkpt lat="44.4157638" lon="11.3456664"><ele>123.5</ele><time>2026-04-26T13:02:53.127Z</time></trkpt><trkpt lat="44.4158405" lon="11.3456573"><ele>123.0</ele><time>2026-04-26T13:02:54.13Z</time></trkpt><trkpt lat="44.4159176" lon="11.3456482"><ele>122.49999999999999</ele><time>2026-04-26T13:02:55.135Z</time></trkpt><trkpt lat="44.4159946" lon="11.3456397"><ele>122.0</ele><time>2026-04-26T13:02:56.136Z</time></trkpt><trkpt lat="44.4160723" lon="11.3456315"><ele>121.99999999999999</ele><time>2026-04-26T13:02:57.127Z</time></trkpt><trkpt lat="44.4161498" lon="11.3456245"><ele>122.0</ele><time>2026-04-26T13:02:58.136Z</time></trkpt><trkpt lat="44.4162268" lon="11.3456198"><ele>122.0</ele><time>2026-04-26T13:02:59.127Z</time></trkpt><trkpt lat="44.4163039" lon="11.3456156"><ele>122.0</ele><time>2026-04-26T13:03:00.125Z</time></trkpt><trkpt lat="44.4163808" lon="11.3456112"><ele>121.99999999999999</ele><time>2026-04-26T13:03:01.127Z</time></trkpt><trkpt lat="44.416458" lon="11.3456071"><ele>122.0</ele><time>2026-04-26T13:03:02.131Z</time></trkpt><trkpt lat="44.4165353" lon="11.3456037"><ele>121.99999999999999</ele><time>2026-04-26T13:03:03.131Z</time></trkpt><trkpt lat="44.4166127" lon="11.3455989"><ele>122.0</ele><time>2026-04-26T13:03:04.134Z</time></trkpt><trkpt lat="44.4166904" lon="11.345596"><ele>122.0</ele><time>2026-04-26T13:03:05.135Z</time></trkpt><trkpt lat="44.4167678" lon="11.3455948"><ele>122.0</ele><time>2026-04-26T13:03:06.128Z</time></trkpt><trkpt lat="44.4168451" lon="11.3455927"><ele>121.99999999999999</ele><time>2026-04-26T13:03:07.128Z</time></trkpt><trkpt lat="44.4169215" lon="11.3455887"><ele>122.0</ele><time>2026-04-26T13:03:08.129Z</time></trkpt><trkpt lat="44.4169979" lon="11.345585"><ele>121.99999999999999</ele><time>2026-04-26T13:03:09.12Z</time></trkpt><trkpt lat="44.4170736" lon="11.3455825"><ele>122.0</ele><time>2026-04-26T13:03:10.124Z</time></trkpt><trkpt lat="44.4171491" lon="11.3455793"><ele>122.0</ele><time>2026-04-26T13:03:11.13Z</time></trkpt><trkpt lat="44.4172246" lon="11.3455753"><ele>122.0</ele><time>2026-04-26T13:03:12.128Z</time></trkpt><trkpt lat="44.4172999" lon="11.3455716"><ele>121.99999999999999</ele><time>2026-04-26T13:03:13.123Z</time></trkpt><trkpt lat="44.4173747" lon="11.3455677"><ele>122.0</ele><time>2026-04-26T13:03:14.136Z</time></trkpt><trkpt lat="44.4174492" lon="11.3455636"><ele>121.85714285714283</ele><time>2026-04-26T13:03:15.139Z</time></trkpt><trkpt lat="44.4175227" lon="11.3455599"><ele>121.71428571428571</ele><time>2026-04-26T13:03:16.128Z</time></trkpt><trkpt lat="44.4175961" lon="11.3455555"><ele>121.57142857142856</ele><time>2026-04-26T13:03:17.126Z</time></trkpt><trkpt lat="44.4176689" lon="11.3455508"><ele>121.42857142857142</ele><time>2026-04-26T13:03:18.135Z</time></trkpt><trkpt lat="44.4177413" lon="11.3455457"><ele>121.28571428571428</ele><time>2026-04-26T13:03:19.125Z</time></trkpt><trkpt lat="44.4178137" lon="11.3455405"><ele>121.14285714285714</ele><time>2026-04-26T13:03:20.132Z</time></trkpt><trkpt lat="44.4178865" lon="11.3455335"><ele>121.0</ele><time>2026-04-26T13:03:21.123Z</time></trkpt><trkpt lat="44.4179599" lon="11.3455273"><ele>121.16666666666667</ele><time>2026-04-26T13:03:22.124Z</time></trkpt><trkpt lat="44.4180332" lon="11.3455205"><ele>121.33333333333334</ele><time>2026-04-26T13:03:23.122Z</time></trkpt><trkpt lat="44.4181076" lon="11.3455112"><ele>121.5</ele><time>2026-04-26T13:03:24.129Z</time></trkpt><trkpt lat="44.418182" lon="11.3455009"><ele>121.66666666666666</ele><time>2026-04-26T13:03:25.134Z</time></trkpt><trkpt lat="44.4182572" lon="11.3454896"><ele>121.83333333333333</ele><time>2026-04-26T13:03:26.124Z</time></trkpt><trkpt lat="44.4183321" lon="11.3454792"><ele>122.0</ele><time>2026-04-26T13:03:27.13Z</time></trkpt><trkpt lat="44.4184074" lon="11.3454683"><ele>121.99999999999999</ele><time>2026-04-26T13:03:28.121Z</time></trkpt><trkpt lat="44.4184827" lon="11.345456"><ele>122.0</ele><time>2026-04-26T13:03:29.136Z</time></trkpt><trkpt lat="44.4185587" lon="11.3454442"><ele>122.0</ele><time>2026-04-26T13:03:30.126Z</time></trkpt><trkpt lat="44.4186345" lon="11.3454335"><ele>122.0</ele><time>2026-04-26T13:03:31.127Z</time></trkpt><trkpt lat="44.4187109" lon="11.3454229"><ele>121.99999999999999</ele><time>2026-04-26T13:03:32.135Z</time></trkpt><trkpt lat="44.4187864" lon="11.3454131"><ele>122.0</ele><time>2026-04-26T13:03:33.131Z</time></trkpt><trkpt lat="44.4188615" lon="11.3454021"><ele>122.7142857142857</ele><time>2026-04-26T13:03:34.133Z</time></trkpt><trkpt lat="44.4189358" lon="11.3453912"><ele>123.42857142857142</ele><time>2026-04-26T13:03:35.123Z</time></trkpt><trkpt lat="44.4190096" lon="11.3453803"><ele>124.14285714285714</ele><time>2026-04-26T13:03:36.129Z</time></trkpt><trkpt lat="44.4190824" lon="11.3453701"><ele>124.85714285714285</ele><time>2026-04-26T13:03:37.127Z</time></trkpt><trkpt lat="44.4191553" lon="11.3453593"><ele>125.57142857142856</ele><time>2026-04-26T13:03:38.123Z</time></trkpt><trkpt lat="44.4192273" lon="11.3453492"><ele>126.28571428571429</ele><time>2026-04-26T13:03:39.126Z</time></trkpt><trkpt lat="44.4192987" lon="11.3453402"><ele>127.0</ele><time>2026-04-26T13:03:40.131Z</time></trkpt><trkpt lat="44.4193701" lon="11.3453309"><ele>127.0</ele><time>2026-04-26T13:03:41.123Z</time></trkpt><trkpt lat="44.4194409" lon="11.3453215"><ele>127.0</ele><time>2026-04-26T13:03:42.13Z</time></trkpt><trkpt lat="44.419512" lon="11.3453107"><ele>127.0</ele><time>2026-04-26T13:03:43.136Z</time></trkpt><trkpt lat="44.4195825" lon="11.3453008"><ele>127.0</ele><time>2026-04-26T13:03:44.125Z</time></trkpt><trkpt lat="44.4196529" lon="11.3452922"><ele>127.0</ele><time>2026-04-26T13:03:45.126Z</time></trkpt><trkpt lat="44.4197237" lon="11.3452835"><ele>127.0</ele><time>2026-04-26T13:03:46.127Z</time></trkpt><trkpt lat="44.4197945" lon="11.3452733"><ele>127.0</ele><time>2026-04-26T13:03:47.123Z</time></trkpt><trkpt lat="44.4198641" lon="11.3452609"><ele>126.57142857142858</ele><time>2026-04-26T13:03:48.12Z</time></trkpt><trkpt lat="44.4199359" lon="11.3452515"><ele>126.14285714285714</ele><time>2026-04-26T13:03:49.132Z</time></trkpt><trkpt lat="44.4200079" lon="11.3452429"><ele>125.71428571428572</ele><time>2026-04-26T13:03:50.123Z</time></trkpt><trkpt lat="44.4200811" lon="11.3452343"><ele>125.28571428571429</ele><time>2026-04-26T13:03:51.134Z</time></trkpt><trkpt lat="44.4201547" lon="11.345225"><ele>124.85714285714286</ele><time>2026-04-26T13:03:52.127Z</time></trkpt><trkpt lat="44.420229" lon="11.345215"><ele>124.42857142857143</ele><time>2026-04-26T13:03:53.125Z</time></trkpt><trkpt lat="44.4203035" lon="11.3452037"><ele>124.0</ele><time>2026-04-26T13:03:54.124Z</time></trkpt><trkpt lat="44.4203784" lon="11.3451952"><ele>124.00000000000001</ele><time>2026-04-26T13:03:55.114Z</time></trkpt><trkpt lat="44.4204535" lon="11.3451864"><ele>124.0</ele><time>2026-04-26T13:03:56.12Z</time></trkpt><trkpt lat="44.4205293" lon="11.3451768"><ele>124.0</ele><time>2026-04-26T13:03:57.12Z</time></trkpt><trkpt lat="44.4206046" lon="11.3451677"><ele>124.0</ele><time>2026-04-26T13:03:58.128Z</time></trkpt><trkpt lat="44.4206802" lon="11.3451581"><ele>124.00000000000001</ele><time>2026-04-26T13:03:59.127Z</time></trkpt><trkpt lat="44.4207561" lon="11.345146"><ele>124.0</ele><time>2026-04-26T13:04:00.126Z</time></trkpt><trkpt lat="44.4208323" lon="11.3451343"><ele>122.50000000000001</ele><time>2026-04-26T13:04:01.123Z</time></trkpt><trkpt lat="44.4209084" lon="11.3451239"><ele>121.0</ele><time>2026-04-26T13:04:02.13Z</time></trkpt><trkpt lat="44.4209852" lon="11.3451166"><ele>119.5</ele><time>2026-04-26T13:04:03.126Z</time></trkpt><trkpt lat="44.4210624" lon="11.345109"><ele>118.0</ele><time>2026-04-26T13:04:04.126Z</time></trkpt><trkpt lat="44.42114" lon="11.3450986"><ele>116.50000000000001</ele><time>2026-04-26T13:04:05.127Z</time></trkpt><trkpt lat="44.4212171" lon="11.3450874"><ele>115.0</ele><time>2026-04-26T13:04:06.126Z</time></trkpt><trkpt lat="44.421293" lon="11.3450752"><ele>115.42857142857142</ele><time>2026-04-26T13:04:07.123Z</time></trkpt><trkpt lat="44.4213665" lon="11.3450638"><ele>115.85714285714286</ele><time>2026-04-26T13:04:08.128Z</time></trkpt><trkpt lat="44.4214401" lon="11.3450558"><ele>116.28571428571428</ele><time>2026-04-26T13:04:09.118Z</time></trkpt><trkpt lat="44.4215122" lon="11.3450484"><ele>116.71428571428571</ele><time>2026-04-26T13:04:10.121Z</time></trkpt><trkpt lat="44.4215832" lon="11.3450408"><ele>117.14285714285714</ele><time>2026-04-26T13:04:11.123Z</time></trkpt><trkpt lat="44.4216526" lon="11.345035"><ele>117.57142857142857</ele><time>2026-04-26T13:04:12.122Z</time></trkpt><trkpt lat="44.4217213" lon="11.3450315"><ele>118.0</ele><time>2026-04-26T13:04:13.124Z</time></trkpt><trkpt lat="44.4217893" lon="11.3450285"><ele>118.0</ele><time>2026-04-26T13:04:14.124Z</time></trkpt><trkpt lat="44.4218572" lon="11.3450269"><ele>118.0</ele><time>2026-04-26T13:04:15.127Z</time></trkpt><trkpt lat="44.4219253" lon="11.3450262"><ele>118.0</ele><time>2026-04-26T13:04:16.124Z</time></trkpt><trkpt lat="44.4219931" lon="11.3450274"><ele>118.0</ele><time>2026-04-26T13:04:17.125Z</time></trkpt><trkpt lat="44.4220607" lon="11.3450298"><ele>118.0</ele><time>2026-04-26T13:04:18.125Z</time></trkpt><trkpt lat="44.4221284" lon="11.3450334"><ele>118.0</ele><time>2026-04-26T13:04:19.125Z</time></trkpt><trkpt lat="44.4221963" lon="11.3450388"><ele>118.0</ele><time>2026-04-26T13:04:20.129Z</time></trkpt><trkpt lat="44.4222641" lon="11.3450443"><ele>117.71428571428571</ele><time>2026-04-26T13:04:21.129Z</time></trkpt><trkpt lat="44.4223319" lon="11.3450512"><ele>117.42857142857144</ele><time>2026-04-26T13:04:22.123Z</time></trkpt><trkpt lat="44.4223994" lon="11.3450599"><ele>117.14285714285715</ele><time>2026-04-26T13:04:23.124Z</time></trkpt><trkpt lat="44.4224676" lon="11.3450679"><ele>116.85714285714286</ele><time>2026-04-26T13:04:24.122Z</time></trkpt><trkpt lat="44.4225363" lon="11.3450791"><ele>116.57142857142858</ele><time>2026-04-26T13:04:25.125Z</time></trkpt><trkpt lat="44.422604" lon="11.3450906"><ele>116.2857142857143</ele><time>2026-04-26T13:04:26.13Z</time></trkpt><trkpt lat="44.4226721" lon="11.3451042"><ele>116.00000000000001</ele><time>2026-04-26T13:04:27.128Z</time></trkpt><trkpt lat="44.4227401" lon="11.3451207"><ele>116.00000000000001</ele><time>2026-04-26T13:04:28.129Z</time></trkpt><trkpt lat="44.4228082" lon="11.3451362"><ele>116.0</ele><time>2026-04-26T13:04:29.126Z</time></trkpt><trkpt lat="44.422876" lon="11.3451515"><ele>116.00000000000001</ele><time>2026-04-26T13:04:30.125Z</time></trkpt><trkpt lat="44.4229437" lon="11.3451709"><ele>116.00000000000001</ele><time>2026-04-26T13:04:31.127Z</time></trkpt><trkpt lat="44.4230099" lon="11.3451908"><ele>116.0</ele><time>2026-04-26T13:04:32.126Z</time></trkpt><trkpt lat="44.4230767" lon="11.3452125"><ele>116.00000000000001</ele><time>2026-04-26T13:04:33.14Z</time></trkpt><trkpt lat="44.423144" lon="11.3452348"><ele>116.00000000000001</ele><time>2026-04-26T13:04:34.128Z</time></trkpt><trkpt lat="44.423209" lon="11.3452583"><ele>116.85714285714288</ele><time>2026-04-26T13:04:35.13Z</time></trkpt><trkpt lat="44.4232739" lon="11.3452815"><ele>117.71428571428572</ele><time>2026-04-26T13:04:36.126Z</time></trkpt><trkpt lat="44.4233389" lon="11.3453036"><ele>118.57142857142857</ele><time>2026-04-26T13:04:37.126Z</time></trkpt><trkpt lat="44.4234036" lon="11.3453299"><ele>119.42857142857143</ele><time>2026-04-26T13:04:38.133Z</time></trkpt><trkpt lat="44.4234682" lon="11.3453583"><ele>120.28571428571428</ele><time>2026-04-26T13:04:39.135Z</time></trkpt><trkpt lat="44.4235315" lon="11.3453888"><ele>121.14285714285712</ele><time>2026-04-26T13:04:40.133Z</time></trkpt><trkpt lat="44.4235956" lon="11.3454211"><ele>121.99999999999999</ele><time>2026-04-26T13:04:41.115Z</time></trkpt><trkpt lat="44.4236596" lon="11.3454516"><ele>121.99999999999999</ele><time>2026-04-26T13:04:42.129Z</time></trkpt><trkpt lat="44.4237232" lon="11.3454833"><ele>122.0</ele><time>2026-04-26T13:04:43.123Z</time></trkpt><trkpt lat="44.4237868" lon="11.345516"><ele>121.99999999999999</ele><time>2026-04-26T13:04:44.119Z</time></trkpt><trkpt lat="44.4238497" lon="11.3455491"><ele>121.99999999999999</ele><time>2026-04-26T13:04:45.118Z</time></trkpt><trkpt lat="44.4239132" lon="11.3455839"><ele>122.0</ele><time>2026-04-26T13:04:46.117Z</time></trkpt><trkpt lat="44.4239757" lon="11.3456207"><ele>121.99999999999999</ele><time>2026-04-26T13:04:47.125Z</time></trkpt><trkpt lat="44.4240387" lon="11.3456572"><ele>121.99999999999999</ele><time>2026-04-26T13:04:48.118Z</time></trkpt><trkpt lat="44.4241017" lon="11.3456942"><ele>120.85714285714283</ele><time>2026-04-26T13:04:49.116Z</time></trkpt><trkpt lat="44.4241636" lon="11.3457343"><ele>119.71428571428571</ele><time>2026-04-26T13:04:50.132Z</time></trkpt><trkpt lat="44.4242259" lon="11.3457758"><ele>118.57142857142856</ele><time>2026-04-26T13:04:51.117Z</time></trkpt><trkpt lat="44.4242872" lon="11.3458179"><ele>117.42857142857142</ele><time>2026-04-26T13:04:52.123Z</time></trkpt><trkpt lat="44.4243476" lon="11.345862"><ele>116.28571428571428</ele><time>2026-04-26T13:04:53.131Z</time></trkpt><trkpt lat="44.4244083" lon="11.3459044"><ele>115.14285714285714</ele><time>2026-04-26T13:04:54.117Z</time></trkpt><trkpt lat="44.4244693" lon="11.3459503"><ele>114.0</ele><time>2026-04-26T13:04:55.139Z</time></trkpt><trkpt lat="44.4245304" lon="11.345996"><ele>114.0</ele><time>2026-04-26T13:04:56.138Z</time></trkpt><trkpt lat="44.4245906" lon="11.346044"><ele>113.99999999999999</ele><time>2026-04-26T13:04:57.121Z</time></trkpt><trkpt lat="44.4246494" lon="11.346096"><ele>114.0</ele><time>2026-04-26T13:04:58.122Z</time></trkpt><trkpt lat="44.4247077" lon="11.346147"><ele>114.0</ele><time>2026-04-26T13:04:59.131Z</time></trkpt><trkpt lat="44.4247651" lon="11.3461968"><ele>113.99999999999999</ele><time>2026-04-26T13:05:00.129Z</time></trkpt><trkpt lat="44.4248222" lon="11.3462479"><ele>114.0</ele><time>2026-04-26T13:05:01.123Z</time></trkpt><trkpt lat="44.4248789" lon="11.3463009"><ele>114.0</ele><time>2026-04-26T13:05:02.109Z</time></trkpt><trkpt lat="44.4249354" lon="11.3463538"><ele>113.85714285714285</ele><time>2026-04-26T13:05:03.128Z</time></trkpt><trkpt lat="44.4249909" lon="11.3464089"><ele>113.7142857142857</ele><time>2026-04-26T13:05:04.134Z</time></trkpt><trkpt lat="44.4250469" lon="11.3464642"><ele>113.57142857142857</ele><time>2026-04-26T13:05:05.138Z</time></trkpt><trkpt lat="44.4251023" lon="11.3465213"><ele>113.42857142857142</ele><time>2026-04-26T13:05:06.124Z</time></trkpt><trkpt lat="44.4251565" lon="11.3465804"><ele>113.28571428571428</ele><time>2026-04-26T13:05:07.124Z</time></trkpt><trkpt lat="44.4252106" lon="11.3466404"><ele>113.14285714285714</ele><time>2026-04-26T13:05:08.126Z</time></trkpt><trkpt lat="44.4252652" lon="11.3467012"><ele>113.0</ele><time>2026-04-26T13:05:09.132Z</time></trkpt><trkpt lat="44.4253198" lon="11.3467638"><ele>113.0</ele><time>2026-04-26T13:05:10.127Z</time></trkpt><trkpt lat="44.4253739" lon="11.3468282"><ele>113.0</ele><time>2026-04-26T13:05:11.125Z</time></trkpt><trkpt lat="44.4254282" lon="11.3468939"><ele>113.0</ele><time>2026-04-26T13:05:12.126Z</time></trkpt><trkpt lat="44.4254817" lon="11.346962"><ele>113.0</ele><time>2026-04-26T13:05:13.122Z</time></trkpt><trkpt lat="44.4255346" lon="11.3470311"><ele>113.0</ele><time>2026-04-26T13:05:14.125Z</time></trkpt><trkpt lat="44.4255871" lon="11.3471027"><ele>113.0</ele><time>2026-04-26T13:05:15.123Z</time></trkpt><trkpt lat="44.4256393" lon="11.3471746"><ele>113.0</ele><time>2026-04-26T13:05:16.138Z</time></trkpt><trkpt lat="44.4256927" lon="11.3472469"><ele>113.0</ele><time>2026-04-26T13:05:17.127Z</time></trkpt><trkpt lat="44.425745" lon="11.3473201"><ele>113.0</ele><time>2026-04-26T13:05:18.126Z</time></trkpt><trkpt lat="44.4257976" lon="11.3473936"><ele>113.0</ele><time>2026-04-26T13:05:19.119Z</time></trkpt><trkpt lat="44.4258507" lon="11.3474682"><ele>113.0</ele><time>2026-04-26T13:05:20.118Z</time></trkpt><trkpt lat="44.4259029" lon="11.3475443"><ele>113.0</ele><time>2026-04-26T13:05:21.125Z</time></trkpt><trkpt lat="44.4259554" lon="11.3476186"><ele>113.0</ele><time>2026-04-26T13:05:22.122Z</time></trkpt><trkpt lat="44.4260084" lon="11.3476932"><ele>113.0</ele><time>2026-04-26T13:05:23.118Z</time></trkpt><trkpt lat="44.4260608" lon="11.3477681"><ele>113.0</ele><time>2026-04-26T13:05:24.127Z</time></trkpt><trkpt lat="44.4261118" lon="11.3478412"><ele>113.0</ele><time>2026-04-26T13:05:25.122Z</time></trkpt><trkpt lat="44.4261628" lon="11.347914"><ele>113.0</ele><time>2026-04-26T13:05:26.127Z</time></trkpt><trkpt lat="44.4262141" lon="11.3479832"><ele>113.0</ele><time>2026-04-26T13:05:27.126Z</time></trkpt><trkpt lat="44.4262648" lon="11.3480507"><ele>113.0</ele><time>2026-04-26T13:05:28.132Z</time></trkpt><trkpt lat="44.4263162" lon="11.3481175"><ele>113.0</ele><time>2026-04-26T13:05:29.131Z</time></trkpt><trkpt lat="44.4263661" lon="11.3481825"><ele>113.0</ele><time>2026-04-26T13:05:30.118Z</time></trkpt><trkpt lat="44.4264229" lon="11.3482425"><ele>112.85714285714286</ele><time>2026-04-26T13:05:31.133Z</time></trkpt><trkpt lat="44.4264787" lon="11.3483006"><ele>112.71428571428571</ele><time>2026-04-26T13:05:32.127Z</time></trkpt><trkpt lat="44.4265344" lon="11.3483564"><ele>112.57142857142857</ele><time>2026-04-26T13:05:33.128Z</time></trkpt><trkpt lat="44.4265914" lon="11.3484099"><ele>112.42857142857143</ele><time>2026-04-26T13:05:34.129Z</time></trkpt><trkpt lat="44.4266493" lon="11.348463"><ele>112.28571428571428</ele><time>2026-04-26T13:05:35.134Z</time></trkpt><trkpt lat="44.4267074" lon="11.3485152"><ele>112.14285714285714</ele><time>2026-04-26T13:05:36.126Z</time></trkpt><trkpt lat="44.4267676" lon="11.3485652"><ele>112.0</ele><time>2026-04-26T13:05:37.115Z</time></trkpt><trkpt lat="44.426829" lon="11.348614"><ele>112.0</ele><time>2026-04-26T13:05:38.126Z</time></trkpt><trkpt lat="44.4268926" lon="11.3486627"><ele>112.0</ele><time>2026-04-26T13:05:39.126Z</time></trkpt><trkpt lat="44.4269562" lon="11.3487073"><ele>112.0</ele><time>2026-04-26T13:05:40.132Z</time></trkpt><trkpt lat="44.4270215" lon="11.3487481"><ele>112.0</ele><time>2026-04-26T13:05:41.133Z</time></trkpt><trkpt lat="44.4270874" lon="11.3487854"><ele>112.0</ele><time>2026-04-26T13:05:42.131Z</time></trkpt><trkpt lat="44.427154" lon="11.3488229"><ele>112.0</ele><time>2026-04-26T13:05:43.124Z</time></trkpt><trkpt lat="44.4272219" lon="11.3488586"><ele>112.0</ele><time>2026-04-26T13:05:44.122Z</time></trkpt><trkpt lat="44.4272912" lon="11.3488918"><ele>111.85714285714286</ele><time>2026-04-26T13:05:45.128Z</time></trkpt><trkpt lat="44.42736" lon="11.3489261"><ele>111.71428571428572</ele><time>2026-04-26T13:05:46.128Z</time></trkpt><trkpt lat="44.4274298" lon="11.3489612"><ele>111.57142857142857</ele><time>2026-04-26T13:05:47.119Z</time></trkpt><trkpt lat="44.4274998" lon="11.3489931"><ele>111.42857142857143</ele><time>2026-04-26T13:05:48.125Z</time></trkpt><trkpt lat="44.4275703" lon="11.3490251"><ele>111.28571428571429</ele><time>2026-04-26T13:05:49.13Z</time></trkpt><trkpt lat="44.4276411" lon="11.3490594"><ele>111.14285714285714</ele><time>2026-04-26T13:05:50.121Z</time></trkpt><trkpt lat="44.4277128" lon="11.3490922"><ele>111.0</ele><time>2026-04-26T13:05:51.127Z</time></trkpt><trkpt lat="44.4277843" lon="11.3491247"><ele>111.0</ele><time>2026-04-26T13:05:52.131Z</time></trkpt><trkpt lat="44.4278564" lon="11.3491569"><ele>111.0</ele><time>2026-04-26T13:05:53.129Z</time></trkpt><trkpt lat="44.4279285" lon="11.3491891"><ele>111.0</ele><time>2026-04-26T13:05:54.133Z</time></trkpt><trkpt lat="44.428" lon="11.349221"><ele>111.0</ele><time>2026-04-26T13:05:55.122Z</time></trkpt><trkpt lat="44.4280709" lon="11.3492529"><ele>111.0</ele><time>2026-04-26T13:05:56.126Z</time></trkpt><trkpt lat="44.4281419" lon="11.3492859"><ele>111.0</ele><time>2026-04-26T13:05:57.125Z</time></trkpt><trkpt lat="44.4282123" lon="11.349319"><ele>110.71428571428571</ele><time>2026-04-26T13:05:58.127Z</time></trkpt><trkpt lat="44.4282832" lon="11.3493511"><ele>110.42857142857143</ele><time>2026-04-26T13:05:59.124Z</time></trkpt><trkpt lat="44.4283533" lon="11.3493823"><ele>110.14285714285714</ele><time>2026-04-26T13:06:00.133Z</time></trkpt><trkpt lat="44.4284239" lon="11.3494135"><ele>109.85714285714286</ele><time>2026-04-26T13:06:01.127Z</time></trkpt><trkpt lat="44.4284939" lon="11.3494446"><ele>109.57142857142858</ele><time>2026-04-26T13:06:02.118Z</time></trkpt><trkpt lat="44.4285638" lon="11.3494773"><ele>109.28571428571429</ele><time>2026-04-26T13:06:03.131Z</time></trkpt><trkpt lat="44.4286341" lon="11.3495087"><ele>109.0</ele><time>2026-04-26T13:06:04.12Z</time></trkpt><trkpt lat="44.428705" lon="11.34954"><ele>109.0</ele><time>2026-04-26T13:06:05.126Z</time></trkpt><trkpt lat="44.4287764" lon="11.3495708"><ele>109.0</ele><time>2026-04-26T13:06:06.123Z</time></trkpt><trkpt lat="44.4288476" lon="11.3496026"><ele>109.0</ele><time>2026-04-26T13:06:07.125Z</time></trkpt><trkpt lat="44.4289186" lon="11.3496349"><ele>109.0</ele><time>2026-04-26T13:06:08.126Z</time></trkpt><trkpt lat="44.4289888" lon="11.3496671"><ele>109.0</ele><time>2026-04-26T13:06:09.127Z</time></trkpt><trkpt lat="44.4290601" lon="11.3496998"><ele>109.0</ele><time>2026-04-26T13:06:10.12Z</time></trkpt><trkpt lat="44.4291318" lon="11.3497339"><ele>109.0</ele><time>2026-04-26T13:06:11.127Z</time></trkpt><trkpt lat="44.4292042" lon="11.3497693"><ele>109.00000000000001</ele><time>2026-04-26T13:06:12.124Z</time></trkpt><trkpt lat="44.4292767" lon="11.3498038"><ele>109.0</ele><time>2026-04-26T13:06:13.125Z</time></trkpt><trkpt lat="44.4293495" lon="11.3498385"><ele>109.0</ele><time>2026-04-26T13:06:14.134Z</time></trkpt><trkpt lat="44.4294227" lon="11.3498734"><ele>109.0</ele><time>2026-04-26T13:06:15.125Z</time></trkpt><trkpt lat="44.4294961" lon="11.3499098"><ele>109.00000000000001</ele><time>2026-04-26T13:06:16.129Z</time></trkpt><trkpt lat="44.4295693" lon="11.3499461"><ele>109.0</ele><time>2026-04-26T13:06:17.117Z</time></trkpt><trkpt lat="44.4296423" lon="11.3499814"><ele>109.00000000000001</ele><time>2026-04-26T13:06:18.131Z</time></trkpt><trkpt lat="44.4297162" lon="11.3500158"><ele>109.0</ele><time>2026-04-26T13:06:19.129Z</time></trkpt><trkpt lat="44.4297902" lon="11.35005"><ele>109.0</ele><time>2026-04-26T13:06:20.128Z</time></trkpt><trkpt lat="44.4298636" lon="11.3500844"><ele>109.0</ele><time>2026-04-26T13:06:21.128Z</time></trkpt><trkpt lat="44.4299363" lon="11.3501199"><ele>109.00000000000001</ele><time>2026-04-26T13:06:22.135Z</time></trkpt><trkpt lat="44.4300092" lon="11.3501544"><ele>109.0</ele><time>2026-04-26T13:06:23.136Z</time></trkpt><trkpt lat="44.4300833" lon="11.3501875"><ele>109.00000000000001</ele><time>2026-04-26T13:06:24.127Z</time></trkpt><trkpt lat="44.4301568" lon="11.3502216"><ele>109.0</ele><time>2026-04-26T13:06:25.122Z</time></trkpt><trkpt lat="44.4302306" lon="11.3502563"><ele>109.0</ele><time>2026-04-26T13:06:26.127Z</time></trkpt><trkpt lat="44.4303043" lon="11.3502902"><ele>109.0</ele><time>2026-04-26T13:06:27.13Z</time></trkpt><trkpt lat="44.4303777" lon="11.3503236"><ele>109.00000000000001</ele><time>2026-04-26T13:06:28.123Z</time></trkpt><trkpt lat="44.4304508" lon="11.3503574"><ele>109.0</ele><time>2026-04-26T13:06:29.123Z</time></trkpt><trkpt lat="44.4305235" lon="11.3503905"><ele>109.00000000000001</ele><time>2026-04-26T13:06:30.124Z</time></trkpt><trkpt lat="44.4305966" lon="11.3504237"><ele>109.0</ele><time>2026-04-26T13:06:31.141Z</time></trkpt><trkpt lat="44.430669" lon="11.3504556"><ele>109.0</ele><time>2026-04-26T13:06:32.132Z</time></trkpt><trkpt lat="44.4307413" lon="11.3504879"><ele>109.0</ele><time>2026-04-26T13:06:33.126Z</time></trkpt><trkpt lat="44.4308129" lon="11.3505223"><ele>109.00000000000001</ele><time>2026-04-26T13:06:34.127Z</time></trkpt><trkpt lat="44.4308848" lon="11.350555"><ele>109.0</ele><time>2026-04-26T13:06:35.131Z</time></trkpt><trkpt lat="44.430956" lon="11.3505852"><ele>109.0</ele><time>2026-04-26T13:06:36.125Z</time></trkpt><trkpt lat="44.4310277" lon="11.3506157"><ele>109.0</ele><time>2026-04-26T13:06:37.136Z</time></trkpt><trkpt lat="44.431099" lon="11.350647"><ele>109.0</ele><time>2026-04-26T13:06:38.127Z</time></trkpt><trkpt lat="44.4311706" lon="11.3506774"><ele>109.0</ele><time>2026-04-26T13:06:39.123Z</time></trkpt><trkpt lat="44.431242" lon="11.3507067"><ele>109.0</ele><time>2026-04-26T13:06:40.125Z</time></trkpt><trkpt lat="44.4313133" lon="11.3507369"><ele>109.0</ele><time>2026-04-26T13:06:41.121Z</time></trkpt><trkpt lat="44.4313841" lon="11.3507678"><ele>109.0</ele><time>2026-04-26T13:06:42.126Z</time></trkpt><trkpt lat="44.4314547" lon="11.3508005"><ele>109.42857142857143</ele><time>2026-04-26T13:06:43.119Z</time></trkpt><trkpt lat="44.4315251" lon="11.3508336"><ele>109.85714285714286</ele><time>2026-04-26T13:06:44.125Z</time></trkpt><trkpt lat="44.4315951" lon="11.3508659"><ele>110.28571428571428</ele><time>2026-04-26T13:06:45.132Z</time></trkpt><trkpt lat="44.4316648" lon="11.3508989"><ele>110.71428571428572</ele><time>2026-04-26T13:06:46.127Z</time></trkpt><trkpt lat="44.4317345" lon="11.3509337"><ele>111.14285714285714</ele><time>2026-04-26T13:06:47.124Z</time></trkpt><trkpt lat="44.4318045" lon="11.3509683"><ele>111.57142857142857</ele><time>2026-04-26T13:06:48.128Z</time></trkpt><trkpt lat="44.4318747" lon="11.3510023"><ele>112.0</ele><time>2026-04-26T13:06:49.129Z</time></trkpt><trkpt lat="44.4319445" lon="11.3510354"><ele>112.0</ele><time>2026-04-26T13:06:50.121Z</time></trkpt><trkpt lat="44.4320141" lon="11.3510684"><ele>112.0</ele><time>2026-04-26T13:06:51.124Z</time></trkpt><trkpt lat="44.4320836" lon="11.3511007"><ele>112.0</ele><time>2026-04-26T13:06:52.12Z</time></trkpt><trkpt lat="44.4321526" lon="11.3511327"><ele>112.0</ele><time>2026-04-26T13:06:53.121Z</time></trkpt><trkpt lat="44.4322215" lon="11.3511656"><ele>112.0</ele><time>2026-04-26T13:06:54.137Z</time></trkpt><trkpt lat="44.43229" lon="11.3511968"><ele>112.0</ele><time>2026-04-26T13:06:55.134Z</time></trkpt><trkpt lat="44.4323572" lon="11.3512281"><ele>112.0</ele><time>2026-04-26T13:06:56.13Z</time></trkpt><trkpt lat="44.432424" lon="11.3512597"><ele>111.28571428571429</ele><time>2026-04-26T13:06:57.121Z</time></trkpt><trkpt lat="44.4324904" lon="11.351291"><ele>110.57142857142857</ele><time>2026-04-26T13:06:58.129Z</time></trkpt><trkpt lat="44.4325561" lon="11.351321"><ele>109.85714285714286</ele><time>2026-04-26T13:06:59.131Z</time></trkpt><trkpt lat="44.4326225" lon="11.3513521"><ele>109.14285714285714</ele><time>2026-04-26T13:07:00.127Z</time></trkpt><trkpt lat="44.4326886" lon="11.3513839"><ele>108.42857142857143</ele><time>2026-04-26T13:07:01.118Z</time></trkpt><trkpt lat="44.4327548" lon="11.3514145"><ele>107.71428571428572</ele><time>2026-04-26T13:07:02.118Z</time></trkpt><trkpt lat="44.4328215" lon="11.351445"><ele>107.0</ele><time>2026-04-26T13:07:03.123Z</time></trkpt><trkpt lat="44.4328882" lon="11.3514751"><ele>107.00000000000001</ele><time>2026-04-26T13:07:04.122Z</time></trkpt><trkpt lat="44.4329552" lon="11.3515045"><ele>107.0</ele><time>2026-04-26T13:07:05.131Z</time></trkpt><trkpt lat="44.433023" lon="11.3515297"><ele>107.0</ele><time>2026-04-26T13:07:06.123Z</time></trkpt><trkpt lat="44.4330914" lon="11.3515519"><ele>107.0</ele><time>2026-04-26T13:07:07.129Z</time></trkpt><trkpt lat="44.4331601" lon="11.351573"><ele>107.0</ele><time>2026-04-26T13:07:08.131Z</time></trkpt><trkpt lat="44.4332297" lon="11.351592"><ele>107.00000000000001</ele><time>2026-04-26T13:07:09.132Z</time></trkpt><trkpt lat="44.4332995" lon="11.3516102"><ele>107.0</ele><time>2026-04-26T13:07:10.126Z</time></trkpt><trkpt lat="44.4333699" lon="11.3516251"><ele>107.00000000000001</ele><time>2026-04-26T13:07:11.128Z</time></trkpt><trkpt lat="44.4334409" lon="11.3516364"><ele>107.0</ele><time>2026-04-26T13:07:12.128Z</time></trkpt><trkpt lat="44.4335111" lon="11.3516466"><ele>107.0</ele><time>2026-04-26T13:07:13.126Z</time></trkpt><trkpt lat="44.4335822" lon="11.3516555"><ele>107.0</ele><time>2026-04-26T13:07:14.134Z</time></trkpt><trkpt lat="44.4336531" lon="11.3516621"><ele>107.0</ele><time>2026-04-26T13:07:15.13Z</time></trkpt><trkpt lat="44.4337241" lon="11.3516683"><ele>107.00000000000001</ele><time>2026-04-26T13:07:16.12Z</time></trkpt><trkpt lat="44.4337948" lon="11.3516759"><ele>107.0</ele><time>2026-04-26T13:07:17.128Z</time></trkpt><trkpt lat="44.4338653" lon="11.3516832"><ele>106.85714285714286</ele><time>2026-04-26T13:07:18.122Z</time></trkpt><trkpt lat="44.4339352" lon="11.3516905"><ele>106.71428571428572</ele><time>2026-04-26T13:07:19.15Z</time></trkpt><trkpt lat="44.4340049" lon="11.3516979"><ele>106.57142857142858</ele><time>2026-04-26T13:07:20.135Z</time></trkpt><trkpt lat="44.434075" lon="11.3517059"><ele>106.42857142857143</ele><time>2026-04-26T13:07:21.123Z</time></trkpt><trkpt lat="44.4341434" lon="11.3517137"><ele>106.28571428571428</ele><time>2026-04-26T13:07:22.13Z</time></trkpt><trkpt lat="44.4342097" lon="11.3517205"><ele>106.14285714285715</ele><time>2026-04-26T13:07:23.141Z</time></trkpt><trkpt lat="44.4342732" lon="11.3517256"><ele>106.0</ele><time>2026-04-26T13:07:24.134Z</time></trkpt><trkpt lat="44.4343944" lon="11.3517387"><ele>106.0</ele><time>2026-04-26T13:07:26.138Z</time></trkpt><trkpt lat="44.4345117" lon="11.3517528"><ele>106.0</ele><time>2026-04-26T13:07:28.132Z</time></trkpt><trkpt lat="44.4346289" lon="11.3517595"><ele>106.0</ele><time>2026-04-26T13:07:30.135Z</time></trkpt><trkpt lat="44.4347529" lon="11.3517704"><ele>106.0</ele><time>2026-04-26T13:07:32.125Z</time></trkpt><trkpt lat="44.4348162" lon="11.3517771"><ele>106.0</ele><time>2026-04-26T13:07:33.135Z</time></trkpt><trkpt lat="44.4348805" lon="11.3517882"><ele>106.14285714285715</ele><time>2026-04-26T13:07:34.126Z</time></trkpt><trkpt lat="44.4349444" lon="11.3517974"><ele>106.28571428571428</ele><time>2026-04-26T13:07:35.131Z</time></trkpt><trkpt lat="44.4350088" lon="11.3518021"><ele>106.42857142857143</ele><time>2026-04-26T13:07:36.129Z</time></trkpt><trkpt lat="44.435074" lon="11.3518068"><ele>106.57142857142858</ele><time>2026-04-26T13:07:37.139Z</time></trkpt><trkpt lat="44.4351387" lon="11.351813"><ele>106.71428571428572</ele><time>2026-04-26T13:07:38.126Z</time></trkpt><trkpt lat="44.4352033" lon="11.3518204"><ele>106.85714285714286</ele><time>2026-04-26T13:07:39.124Z</time></trkpt><trkpt lat="44.4352686" lon="11.351828"><ele>107.0</ele><time>2026-04-26T13:07:40.134Z</time></trkpt><trkpt lat="44.4353346" lon="11.351835"><ele>107.00000000000001</ele><time>2026-04-26T13:07:41.12Z</time></trkpt><trkpt lat="44.4354006" lon="11.3518409"><ele>107.0</ele><time>2026-04-26T13:07:42.129Z</time></trkpt><trkpt lat="44.4354666" lon="11.3518467"><ele>107.0</ele><time>2026-04-26T13:07:43.126Z</time></trkpt><trkpt lat="44.4355327" lon="11.3518543"><ele>107.0</ele><time>2026-04-26T13:07:44.133Z</time></trkpt><trkpt lat="44.4355987" lon="11.3518619"><ele>107.0</ele><time>2026-04-26T13:07:45.123Z</time></trkpt><trkpt lat="44.4356653" lon="11.3518665"><ele>107.00000000000001</ele><time>2026-04-26T13:07:46.127Z</time></trkpt><trkpt lat="44.4357318" lon="11.3518713"><ele>107.0</ele><time>2026-04-26T13:07:47.127Z</time></trkpt><trkpt lat="44.4357982" lon="11.3518779"><ele>106.85714285714286</ele><time>2026-04-26T13:07:48.123Z</time></trkpt><trkpt lat="44.4358648" lon="11.3518845"><ele>106.71428571428572</ele><time>2026-04-26T13:07:49.133Z</time></trkpt><trkpt lat="44.4359314" lon="11.3518907"><ele>106.57142857142858</ele><time>2026-04-26T13:07:50.126Z</time></trkpt><trkpt lat="44.4359977" lon="11.3518961"><ele>106.42857142857143</ele><time>2026-04-26T13:07:51.127Z</time></trkpt><trkpt lat="44.4360638" lon="11.3519025"><ele>106.28571428571428</ele><time>2026-04-26T13:07:52.131Z</time></trkpt><trkpt lat="44.4361298" lon="11.3519106"><ele>106.14285714285715</ele><time>2026-04-26T13:07:53.126Z</time></trkpt><trkpt lat="44.4361961" lon="11.3519188"><ele>106.0</ele><time>2026-04-26T13:07:54.129Z</time></trkpt><trkpt lat="44.4362632" lon="11.3519263"><ele>105.42857142857143</ele><time>2026-04-26T13:07:55.142Z</time></trkpt><trkpt lat="44.4363308" lon="11.351933"><ele>104.85714285714285</ele><time>2026-04-26T13:07:56.122Z</time></trkpt><trkpt lat="44.4363989" lon="11.3519397"><ele>104.28571428571428</ele><time>2026-04-26T13:07:57.129Z</time></trkpt><trkpt lat="44.4364675" lon="11.3519465"><ele>103.71428571428572</ele><time>2026-04-26T13:07:58.122Z</time></trkpt><trkpt lat="44.4365365" lon="11.3519509"><ele>103.14285714285714</ele><time>2026-04-26T13:07:59.128Z</time></trkpt><trkpt lat="44.436605" lon="11.3519583"><ele>102.57142857142857</ele><time>2026-04-26T13:08:00.13Z</time></trkpt><trkpt lat="44.4366733" lon="11.3519658"><ele>102.0</ele><time>2026-04-26T13:08:01.128Z</time></trkpt><trkpt lat="44.4367415" lon="11.3519733"><ele>102.0</ele><time>2026-04-26T13:08:02.127Z</time></trkpt><trkpt lat="44.4368095" lon="11.3519806"><ele>102.0</ele><time>2026-04-26T13:08:03.123Z</time></trkpt><trkpt lat="44.4368771" lon="11.3519868"><ele>102.0</ele><time>2026-04-26T13:08:04.136Z</time></trkpt><trkpt lat="44.4369446" lon="11.3519933"><ele>102.0</ele><time>2026-04-26T13:08:05.133Z</time></trkpt><trkpt lat="44.4370119" lon="11.3520002"><ele>102.0</ele><time>2026-04-26T13:08:06.128Z</time></trkpt><trkpt lat="44.4370791" lon="11.3520056"><ele>102.0</ele><time>2026-04-26T13:08:07.136Z</time></trkpt><trkpt lat="44.4371461" lon="11.3520111"><ele>102.0</ele><time>2026-04-26T13:08:08.134Z</time></trkpt><trkpt lat="44.4372136" lon="11.352018"><ele>101.57142857142857</ele><time>2026-04-26T13:08:09.123Z</time></trkpt><trkpt lat="44.437281" lon="11.3520249"><ele>101.14285714285714</ele><time>2026-04-26T13:08:10.132Z</time></trkpt><trkpt lat="44.4373483" lon="11.3520314"><ele>100.71428571428572</ele><time>2026-04-26T13:08:11.123Z</time></trkpt><trkpt lat="44.4374155" lon="11.3520363"><ele>100.28571428571428</ele><time>2026-04-26T13:08:12.126Z</time></trkpt><trkpt lat="44.4374828" lon="11.3520433"><ele>99.85714285714285</ele><time>2026-04-26T13:08:13.141Z</time></trkpt><trkpt lat="44.4375507" lon="11.3520495"><ele>99.42857142857143</ele><time>2026-04-26T13:08:14.123Z</time></trkpt><trkpt lat="44.4376189" lon="11.3520572"><ele>99.0</ele><time>2026-04-26T13:08:15.133Z</time></trkpt><trkpt lat="44.437687" lon="11.3520649"><ele>99.0</ele><time>2026-04-26T13:08:16.129Z</time></trkpt><trkpt lat="44.4377556" lon="11.3520708"><ele>99.0</ele><time>2026-04-26T13:08:17.128Z</time></trkpt><trkpt lat="44.4378249" lon="11.3520758"><ele>99.0</ele><time>2026-04-26T13:08:18.131Z</time></trkpt><trkpt lat="44.4378944" lon="11.352082"><ele>99.0</ele><time>2026-04-26T13:08:19.132Z</time></trkpt><trkpt lat="44.4379638" lon="11.3520882"><ele>99.0</ele><time>2026-04-26T13:08:20.132Z</time></trkpt><trkpt lat="44.4380326" lon="11.3520941"><ele>99.0</ele><time>2026-04-26T13:08:21.131Z</time></trkpt><trkpt lat="44.4381006" lon="11.3521004"><ele>99.0</ele><time>2026-04-26T13:08:22.122Z</time></trkpt><trkpt lat="44.4381687" lon="11.3521047"><ele>99.0</ele><time>2026-04-26T13:08:23.133Z</time></trkpt><trkpt lat="44.438237" lon="11.3521084"><ele>99.0</ele><time>2026-04-26T13:08:24.13Z</time></trkpt><trkpt lat="44.4383055" lon="11.3521122"><ele>99.0</ele><time>2026-04-26T13:08:25.127Z</time></trkpt><trkpt lat="44.4383744" lon="11.352115"><ele>99.0</ele><time>2026-04-26T13:08:26.134Z</time></trkpt><trkpt lat="44.4384441" lon="11.3521184"><ele>99.0</ele><time>2026-04-26T13:08:27.122Z</time></trkpt><trkpt lat="44.4385145" lon="11.3521216"><ele>99.0</ele><time>2026-04-26T13:08:28.128Z</time></trkpt><trkpt lat="44.4385856" lon="11.3521239"><ele>99.0</ele><time>2026-04-26T13:08:29.122Z</time></trkpt><trkpt lat="44.4386574" lon="11.3521268"><ele>99.0</ele><time>2026-04-26T13:08:30.131Z</time></trkpt><trkpt lat="44.4387301" lon="11.3521289"><ele>99.0</ele><time>2026-04-26T13:08:31.124Z</time></trkpt><trkpt lat="44.4388026" lon="11.3521301"><ele>99.0</ele><time>2026-04-26T13:08:32.127Z</time></trkpt><trkpt lat="44.4388757" lon="11.3521322"><ele>99.0</ele><time>2026-04-26T13:08:33.13Z</time></trkpt><trkpt lat="44.4389476" lon="11.3521332"><ele>99.0</ele><time>2026-04-26T13:08:34.126Z</time></trkpt><trkpt lat="44.439018" lon="11.3521332"><ele>99.0</ele><time>2026-04-26T13:08:35.135Z</time></trkpt><trkpt lat="44.4390868" lon="11.3521339"><ele>99.0</ele><time>2026-04-26T13:08:36.127Z</time></trkpt><trkpt lat="44.4391542" lon="11.352135"><ele>99.5</ele><time>2026-04-26T13:08:37.128Z</time></trkpt><trkpt lat="44.4392211" lon="11.3521356"><ele>100.0</ele><time>2026-04-26T13:08:38.124Z</time></trkpt><trkpt lat="44.4392867" lon="11.3521373"><ele>100.5</ele><time>2026-04-26T13:08:39.124Z</time></trkpt><trkpt lat="44.4393508" lon="11.3521396"><ele>101.0</ele><time>2026-04-26T13:08:40.131Z</time></trkpt><trkpt lat="44.4394138" lon="11.3521399"><ele>101.5</ele><time>2026-04-26T13:08:41.123Z</time></trkpt><trkpt lat="44.4395375" lon="11.3521421"><ele>102.0</ele><time>2026-04-26T13:08:43.124Z</time></trkpt><trkpt lat="44.43966" lon="11.3521727"><ele>101.8</ele><time>2026-04-26T13:08:45.127Z</time></trkpt><trkpt lat="44.4397172" lon="11.3522112"><ele>101.6</ele><time>2026-04-26T13:08:46.126Z</time></trkpt><trkpt lat="44.4397681" lon="11.3522633"><ele>101.39999999999999</ele><time>2026-04-26T13:08:47.124Z</time></trkpt><trkpt lat="44.439856" lon="11.3523878"><ele>101.19999999999999</ele><time>2026-04-26T13:08:49.126Z</time></trkpt><trkpt lat="44.4399089" lon="11.3525457"><ele>101.0</ele><time>2026-04-26T13:08:51.136Z</time></trkpt><trkpt lat="44.4399348" lon="11.3527102"><ele>101.0</ele><time>2026-04-26T13:08:53.132Z</time></trkpt><trkpt lat="44.4399531" lon="11.3528678"><ele>101.0</ele><time>2026-04-26T13:08:55.125Z</time></trkpt><trkpt lat="44.4399742" lon="11.3530208"><ele>101.0</ele><time>2026-04-26T13:08:57.13Z</time></trkpt><trkpt lat="44.4399933" lon="11.3531737"><ele>101.0</ele><time>2026-04-26T13:08:59.126Z</time></trkpt><trkpt lat="44.4400133" lon="11.3533257"><ele>101.0</ele><time>2026-04-26T13:09:01.126Z</time></trkpt><trkpt lat="44.4400341" lon="11.3534765"><ele>100.6</ele><time>2026-04-26T13:09:03.119Z</time></trkpt><trkpt lat="44.4400569" lon="11.3536226"><ele>100.19999999999999</ele><time>2026-04-26T13:09:05.13Z</time></trkpt><trkpt lat="44.4400722" lon="11.353768"><ele>99.80000000000001</ele><time>2026-04-26T13:09:07.123Z</time></trkpt><trkpt lat="44.4400603" lon="11.3539092"><ele>99.4</ele><time>2026-04-26T13:09:09.13Z</time></trkpt><trkpt lat="44.4400046" lon="11.3540298"><ele>99.0</ele><time>2026-04-26T13:09:11.121Z</time></trkpt><trkpt lat="44.4399438" lon="11.3541448"><ele>100.0</ele><time>2026-04-26T13:09:13.124Z</time></trkpt><trkpt lat="44.439942" lon="11.354287"><ele>101.0</ele><time>2026-04-26T13:09:15.128Z</time></trkpt><trkpt lat="44.4400224" lon="11.3543718"><ele>102.0</ele><time>2026-04-26T13:09:17.136Z</time></trkpt><trkpt lat="44.440129" lon="11.3543678"><ele>103.0</ele><time>2026-04-26T13:09:19.131Z</time></trkpt><trkpt lat="44.4402289" lon="11.3542962"><ele>104.0</ele><time>2026-04-26T13:09:21.139Z</time></trkpt><trkpt lat="44.4403348" lon="11.3542521"><ele>104.0</ele><time>2026-04-26T13:09:23.134Z</time></trkpt><trkpt lat="44.440447" lon="11.3542366"><ele>104.0</ele><time>2026-04-26T13:09:25.135Z</time></trkpt><trkpt lat="44.4405585" lon="11.3542225"><ele>104.0</ele><time>2026-04-26T13:09:27.131Z</time></trkpt><trkpt lat="44.4406671" lon="11.3542017"><ele>104.0</ele><time>2026-04-26T13:09:29.142Z</time></trkpt><trkpt lat="44.4407718" lon="11.3541814"><ele>104.0</ele><time>2026-04-26T13:09:31.127Z</time></trkpt><trkpt lat="44.440875" lon="11.3541626"><ele>104.2</ele><time>2026-04-26T13:09:33.122Z</time></trkpt><trkpt lat="44.4409731" lon="11.3541424"><ele>104.4</ele><time>2026-04-26T13:09:35.123Z</time></trkpt><trkpt lat="44.4410699" lon="11.3541206"><ele>104.6</ele><time>2026-04-26T13:09:37.123Z</time></trkpt><trkpt lat="44.4411667" lon="11.3540997"><ele>104.8</ele><time>2026-04-26T13:09:39.126Z</time></trkpt><trkpt lat="44.4412709" lon="11.3540837"><ele>105.0</ele><time>2026-04-26T13:09:41.13Z</time></trkpt><trkpt lat="44.441379" lon="11.3540716"><ele>105.0</ele><time>2026-04-26T13:09:43.137Z</time></trkpt><trkpt lat="44.4414905" lon="11.3540803"><ele>105.0</ele><time>2026-04-26T13:09:45.125Z</time></trkpt><trkpt lat="44.4416012" lon="11.3541265"><ele>105.0</ele><time>2026-04-26T13:09:47.123Z</time></trkpt><trkpt lat="44.44171" lon="11.354185"><ele>105.0</ele><time>2026-04-26T13:09:49.124Z</time></trkpt><trkpt lat="44.4418213" lon="11.3542587"><ele>105.0</ele><time>2026-04-26T13:09:51.125Z</time></trkpt><trkpt lat="44.4418823" lon="11.3542987"><ele>105.0</ele><time>2026-04-26T13:09:52.127Z</time></trkpt><trkpt lat="44.4419407" lon="11.354338"><ele>105.0</ele><time>2026-04-26T13:09:53.126Z</time></trkpt><trkpt lat="44.4419964" lon="11.35438"><ele>105.0</ele><time>2026-04-26T13:09:54.132Z</time></trkpt><trkpt lat="44.4420532" lon="11.3544202"><ele>105.0</ele><time>2026-04-26T13:09:55.122Z</time></trkpt><trkpt lat="44.4421098" lon="11.3544607"><ele>105.0</ele><time>2026-04-26T13:09:56.129Z</time></trkpt><trkpt lat="44.4422233" lon="11.3545272"><ele>105.0</ele><time>2026-04-26T13:09:58.132Z</time></trkpt><trkpt lat="44.4423398" lon="11.354585"><ele>104.75</ele><time>2026-04-26T13:10:00.129Z</time></trkpt><trkpt lat="44.4424529" lon="11.3546506"><ele>104.5</ele><time>2026-04-26T13:10:02.134Z</time></trkpt><trkpt lat="44.4425583" lon="11.354728"><ele>104.25</ele><time>2026-04-26T13:10:04.122Z</time></trkpt><trkpt lat="44.4426617" lon="11.3548128"><ele>104.0</ele><time>2026-04-26T13:10:06.127Z</time></trkpt><trkpt lat="44.4427668" lon="11.3549054"><ele>103.71428571428571</ele><time>2026-04-26T13:10:08.118Z</time></trkpt><trkpt lat="44.4428201" lon="11.354955"><ele>103.42857142857143</ele><time>2026-04-26T13:10:09.122Z</time></trkpt><trkpt lat="44.4428729" lon="11.3550037"><ele>103.14285714285714</ele><time>2026-04-26T13:10:10.126Z</time></trkpt><trkpt lat="44.4429258" lon="11.3550545"><ele>102.85714285714286</ele><time>2026-04-26T13:10:11.126Z</time></trkpt><trkpt lat="44.4429789" lon="11.3551096"><ele>102.57142857142858</ele><time>2026-04-26T13:10:12.127Z</time></trkpt><trkpt lat="44.4430299" lon="11.3551648"><ele>102.28571428571429</ele><time>2026-04-26T13:10:13.126Z</time></trkpt><trkpt lat="44.4430809" lon="11.3552207"><ele>102.0</ele><time>2026-04-26T13:10:14.142Z</time></trkpt><trkpt lat="44.4431838" lon="11.3553103"><ele>102.0</ele><time>2026-04-26T13:10:16.127Z</time></trkpt><trkpt lat="44.4432766" lon="11.3553767"><ele>102.0</ele><time>2026-04-26T13:10:18.131Z</time></trkpt><trkpt lat="44.4433397" lon="11.3554106"><ele>102.0</ele><time>2026-04-26T13:10:20.124Z</time></trkpt><trkpt lat="44.4434009" lon="11.3554605"><ele>102.0</ele><time>2026-04-26T13:10:23.127Z</time></trkpt><trkpt lat="44.4433648" lon="11.3555877"><ele>102.0</ele><time>2026-04-26T13:11:51.122Z</time></trkpt><trkpt lat="44.4434254" lon="11.3556372"><ele>102.0</ele><time>2026-04-26T13:11:54.13Z</time></trkpt><trkpt lat="44.4434773" lon="11.3556992"><ele>102.5</ele><time>2026-04-26T13:11:57.128Z</time></trkpt><trkpt lat="44.4435265" lon="11.3558038"><ele>103.0</ele><time>2026-04-26T13:12:00.119Z</time></trkpt><trkpt lat="44.4435755" lon="11.3558721"><ele>103.5</ele><time>2026-04-26T13:12:02.12Z</time></trkpt><trkpt lat="44.4436278" lon="11.3559577"><ele>104.0</ele><time>2026-04-26T13:12:04.118Z</time></trkpt><trkpt lat="44.4436601" lon="11.3560781"><ele>104.5</ele><time>2026-04-26T13:12:06.128Z</time></trkpt><trkpt lat="44.4436968" lon="11.3561946"><ele>105.0</ele><time>2026-04-26T13:12:08.13Z</time></trkpt><trkpt lat="44.4437427" lon="11.356319"><ele>105.0</ele><time>2026-04-26T13:12:10.13Z</time></trkpt><trkpt lat="44.4437945" lon="11.3564476"><ele>105.0</ele><time>2026-04-26T13:12:12.119Z</time></trkpt><trkpt lat="44.4438528" lon="11.3565745"><ele>105.0</ele><time>2026-04-26T13:12:14.126Z</time></trkpt><trkpt lat="44.4439092" lon="11.3567057"><ele>105.0</ele><time>2026-04-26T13:12:16.116Z</time></trkpt><trkpt lat="44.4439622" lon="11.3568409"><ele>105.0</ele><time>2026-04-26T13:12:18.123Z</time></trkpt><trkpt lat="44.4440235" lon="11.3569748"><ele>104.25</ele><time>2026-04-26T13:12:20.131Z</time></trkpt><trkpt lat="44.4440846" lon="11.3571092"><ele>103.5</ele><time>2026-04-26T13:12:22.129Z</time></trkpt><trkpt lat="44.444146" lon="11.3572443"><ele>102.75</ele><time>2026-04-26T13:12:24.137Z</time></trkpt><trkpt lat="44.4442015" lon="11.3573854"><ele>102.0</ele><time>2026-04-26T13:12:26.121Z</time></trkpt><trkpt lat="44.4442571" lon="11.3575288"><ele>102.0</ele><time>2026-04-26T13:12:28.133Z</time></trkpt><trkpt lat="44.4443138" lon="11.3576697"><ele>102.0</ele><time>2026-04-26T13:12:30.121Z</time></trkpt><trkpt lat="44.4443755" lon="11.3578006"><ele>102.0</ele><time>2026-04-26T13:12:32.12Z</time></trkpt><trkpt lat="44.4444426" lon="11.3579209"><ele>102.0</ele><time>2026-04-26T13:12:34.121Z</time></trkpt><trkpt lat="44.4445133" lon="11.3580382"><ele>102.0</ele><time>2026-04-26T13:12:36.124Z</time></trkpt><trkpt lat="44.4445941" lon="11.3581429"><ele>101.5</ele><time>2026-04-26T13:12:38.141Z</time></trkpt><trkpt lat="44.4446894" lon="11.3582241"><ele>101.0</ele><time>2026-04-26T13:12:40.123Z</time></trkpt><trkpt lat="44.444793" lon="11.3582907"><ele>100.5</ele><time>2026-04-26T13:12:42.127Z</time></trkpt><trkpt lat="44.4449018" lon="11.3583357"><ele>100.0</ele><time>2026-04-26T13:12:44.118Z</time></trkpt><trkpt lat="44.4450128" lon="11.3583602"><ele>100.0</ele><time>2026-04-26T13:12:46.127Z</time></trkpt><trkpt lat="44.4451249" lon="11.3583738"><ele>100.0</ele><time>2026-04-26T13:12:48.126Z</time></trkpt><trkpt lat="44.4452393" lon="11.3583738"><ele>100.0</ele><time>2026-04-26T13:12:50.126Z</time></trkpt><trkpt lat="44.4453541" lon="11.3583691"><ele>100.0</ele><time>2026-04-26T13:12:52.127Z</time></trkpt><trkpt lat="44.4454689" lon="11.3583649"><ele>99.4</ele><time>2026-04-26T13:12:54.127Z</time></trkpt><trkpt lat="44.445583" lon="11.3583507"><ele>98.8</ele><time>2026-04-26T13:12:56.133Z</time></trkpt><trkpt lat="44.4456954" lon="11.3583341"><ele>98.19999999999999</ele><time>2026-04-26T13:12:58.124Z</time></trkpt><trkpt lat="44.4458071" lon="11.3583151"><ele>97.6</ele><time>2026-04-26T13:13:00.14Z</time></trkpt><trkpt lat="44.4459032" lon="11.3582961"><ele>97.0</ele><time>2026-04-26T13:13:02.127Z</time></trkpt><trkpt lat="44.4460095" lon="11.3582721"><ele>97.0</ele><time>2026-04-26T13:13:04.13Z</time></trkpt><trkpt lat="44.4461074" lon="11.3582564"><ele>97.0</ele><time>2026-04-26T13:13:06.125Z</time></trkpt><trkpt lat="44.446204" lon="11.3582466"><ele>97.0</ele><time>2026-04-26T13:13:08.14Z</time></trkpt><trkpt lat="44.4463125" lon="11.3582375"><ele>97.0</ele><time>2026-04-26T13:13:10.126Z</time></trkpt><trkpt lat="44.4464178" lon="11.3582352"><ele>97.0</ele><time>2026-04-26T13:13:12.125Z</time></trkpt><trkpt lat="44.4465235" lon="11.3582342"><ele>97.6</ele><time>2026-04-26T13:13:14.126Z</time></trkpt><trkpt lat="44.4466294" lon="11.3582488"><ele>98.19999999999999</ele><time>2026-04-26T13:13:16.128Z</time></trkpt><trkpt lat="44.4467344" lon="11.3582831"><ele>98.8</ele><time>2026-04-26T13:13:18.117Z</time></trkpt><trkpt lat="44.4468385" lon="11.3583307"><ele>99.4</ele><time>2026-04-26T13:13:20.133Z</time></trkpt><trkpt lat="44.4469391" lon="11.3583828"><ele>100.0</ele><time>2026-04-26T13:13:22.136Z</time></trkpt><trkpt lat="44.4470345" lon="11.3584341"><ele>100.0</ele><time>2026-04-26T13:13:24.124Z</time></trkpt><trkpt lat="44.447125" lon="11.3584823"><ele>100.0</ele><time>2026-04-26T13:13:26.129Z</time></trkpt><trkpt lat="44.4472193" lon="11.3585295"><ele>100.0</ele><time>2026-04-26T13:13:28.126Z</time></trkpt><trkpt lat="44.4473151" lon="11.3585767"><ele>100.0</ele><time>2026-04-26T13:13:30.134Z</time></trkpt><trkpt lat="44.4474108" lon="11.3586242"><ele>100.0</ele><time>2026-04-26T13:13:32.133Z</time></trkpt><trkpt lat="44.4475108" lon="11.3586706"><ele>99.8</ele><time>2026-04-26T13:13:34.127Z</time></trkpt><trkpt lat="44.4476044" lon="11.3587188"><ele>99.6</ele><time>2026-04-26T13:13:36.126Z</time></trkpt><trkpt lat="44.4476968" lon="11.358771"><ele>99.4</ele><time>2026-04-26T13:13:38.128Z</time></trkpt><trkpt lat="44.4477911" lon="11.3588384"><ele>99.2</ele><time>2026-04-26T13:13:40.128Z</time></trkpt><trkpt lat="44.4478815" lon="11.3589247"><ele>99.0</ele><time>2026-04-26T13:13:42.121Z</time></trkpt><trkpt lat="44.4479667" lon="11.3590256"><ele>100.5</ele><time>2026-04-26T13:13:44.122Z</time></trkpt><trkpt lat="44.44805" lon="11.3591348"><ele>102.0</ele><time>2026-04-26T13:13:46.123Z</time></trkpt><trkpt lat="44.448135" lon="11.3592464"><ele>103.5</ele><time>2026-04-26T13:13:48.121Z</time></trkpt><trkpt lat="44.4482237" lon="11.3593602"><ele>105.0</ele><time>2026-04-26T13:13:50.122Z</time></trkpt><trkpt lat="44.448315" lon="11.359482"><ele>105.0</ele><time>2026-04-26T13:13:52.129Z</time></trkpt><trkpt lat="44.4483631" lon="11.3595405"><ele>105.0</ele><time>2026-04-26T13:13:53.127Z</time></trkpt><trkpt lat="44.4484119" lon="11.3595984"><ele>105.0</ele><time>2026-04-26T13:13:54.131Z</time></trkpt><trkpt lat="44.4484614" lon="11.3596561"><ele>105.0</ele><time>2026-04-26T13:13:55.129Z</time></trkpt><trkpt lat="44.4485585" lon="11.3597673"><ele>105.0</ele><time>2026-04-26T13:13:57.142Z</time></trkpt><trkpt lat="44.4486604" lon="11.3598699"><ele>105.0</ele><time>2026-04-26T13:13:59.124Z</time></trkpt><trkpt lat="44.4487612" lon="11.3599688"><ele>105.0</ele><time>2026-04-26T13:14:01.127Z</time></trkpt><trkpt lat="44.4488635" lon="11.360061"><ele>105.0</ele><time>2026-04-26T13:14:03.123Z</time></trkpt><trkpt lat="44.448965" lon="11.3601484"><ele>105.0</ele><time>2026-04-26T13:14:05.122Z</time></trkpt><trkpt lat="44.4490619" lon="11.3602401"><ele>105.0</ele><time>2026-04-26T13:14:07.132Z</time></trkpt><trkpt lat="44.4491509" lon="11.3603301"><ele>105.0</ele><time>2026-04-26T13:14:09.131Z</time></trkpt><trkpt lat="44.4492341" lon="11.3604208"><ele>105.0</ele><time>2026-04-26T13:14:11.124Z</time></trkpt><trkpt lat="44.4493117" lon="11.360522"><ele>105.0</ele><time>2026-04-26T13:14:13.127Z</time></trkpt><trkpt lat="44.4493902" lon="11.3606292"><ele>105.0</ele><time>2026-04-26T13:14:15.135Z</time></trkpt><trkpt lat="44.4494688" lon="11.3607371"><ele>105.0</ele><time>2026-04-26T13:14:17.126Z</time></trkpt><trkpt lat="44.4495505" lon="11.3608425"><ele>104.5</ele><time>2026-04-26T13:14:19.127Z</time></trkpt><trkpt lat="44.4496389" lon="11.3609452"><ele>104.0</ele><time>2026-04-26T13:14:21.12Z</time></trkpt><trkpt lat="44.4497333" lon="11.3610457"><ele>103.5</ele><time>2026-04-26T13:14:23.124Z</time></trkpt><trkpt lat="44.4498344" lon="11.361143"><ele>103.0</ele><time>2026-04-26T13:14:25.126Z</time></trkpt><trkpt lat="44.4499381" lon="11.3612399"><ele>102.99999999999999</ele><time>2026-04-26T13:14:27.122Z</time></trkpt><trkpt lat="44.4499913" lon="11.3612888"><ele>103.0</ele><time>2026-04-26T13:14:28.134Z</time></trkpt><trkpt lat="44.4500462" lon="11.3613382"><ele>103.0</ele><time>2026-04-26T13:14:29.121Z</time></trkpt><trkpt lat="44.4501014" lon="11.361387"><ele>103.0</ele><time>2026-04-26T13:14:30.134Z</time></trkpt><trkpt lat="44.4501575" lon="11.3614342"><ele>103.0</ele><time>2026-04-26T13:14:31.126Z</time></trkpt><trkpt lat="44.4502148" lon="11.3614807"><ele>102.99999999999999</ele><time>2026-04-26T13:14:32.127Z</time></trkpt><trkpt lat="44.4502719" lon="11.3615303"><ele>103.0</ele><time>2026-04-26T13:14:33.128Z</time></trkpt><trkpt lat="44.4503294" lon="11.3615797"><ele>102.85714285714285</ele><time>2026-04-26T13:14:34.122Z</time></trkpt><trkpt lat="44.4503873" lon="11.3616297"><ele>102.71428571428571</ele><time>2026-04-26T13:14:35.13Z</time></trkpt><trkpt lat="44.4504463" lon="11.3616812"><ele>102.57142857142857</ele><time>2026-04-26T13:14:36.124Z</time></trkpt><trkpt lat="44.4505056" lon="11.3617335"><ele>102.42857142857142</ele><time>2026-04-26T13:14:37.122Z</time></trkpt><trkpt lat="44.450563" lon="11.3617881"><ele>102.28571428571429</ele><time>2026-04-26T13:14:38.124Z</time></trkpt><trkpt lat="44.4506194" lon="11.3618458"><ele>102.14285714285714</ele><time>2026-04-26T13:14:39.123Z</time></trkpt><trkpt lat="44.4506732" lon="11.3619068"><ele>102.0</ele><time>2026-04-26T13:14:40.126Z</time></trkpt><trkpt lat="44.4507242" lon="11.3619704"><ele>101.71428571428572</ele><time>2026-04-26T13:14:41.142Z</time></trkpt><trkpt lat="44.4507729" lon="11.3620378"><ele>101.42857142857143</ele><time>2026-04-26T13:14:42.122Z</time></trkpt><trkpt lat="44.4508208" lon="11.3621052"><ele>101.14285714285714</ele><time>2026-04-26T13:14:43.121Z</time></trkpt><trkpt lat="44.4508687" lon="11.3621725"><ele>100.85714285714286</ele><time>2026-04-26T13:14:44.115Z</time></trkpt><trkpt lat="44.4509161" lon="11.3622396"><ele>100.57142857142857</ele><time>2026-04-26T13:14:45.123Z</time></trkpt><trkpt lat="44.4509629" lon="11.3623089"><ele>100.28571428571429</ele><time>2026-04-26T13:14:46.134Z</time></trkpt><trkpt lat="44.4510101" lon="11.3623784"><ele>100.0</ele><time>2026-04-26T13:14:47.118Z</time></trkpt><trkpt lat="44.4510589" lon="11.3624469"><ele>100.00000000000001</ele><time>2026-04-26T13:14:48.133Z</time></trkpt><trkpt lat="44.4511081" lon="11.3625115"><ele>100.0</ele><time>2026-04-26T13:14:49.135Z</time></trkpt><trkpt lat="44.4511607" lon="11.3625727"><ele>100.0</ele><time>2026-04-26T13:14:50.13Z</time></trkpt><trkpt lat="44.4512152" lon="11.3626307"><ele>100.0</ele><time>2026-04-26T13:14:51.125Z</time></trkpt><trkpt lat="44.4512724" lon="11.3626852"><ele>100.0</ele><time>2026-04-26T13:14:52.118Z</time></trkpt><trkpt lat="44.4513313" lon="11.3627385"><ele>100.00000000000001</ele><time>2026-04-26T13:14:53.135Z</time></trkpt><trkpt lat="44.4513911" lon="11.362793"><ele>100.0</ele><time>2026-04-26T13:14:54.125Z</time></trkpt><trkpt lat="44.4514515" lon="11.3628494"><ele>99.83333333333334</ele><time>2026-04-26T13:14:55.128Z</time></trkpt><trkpt lat="44.4515124" lon="11.3629083"><ele>99.66666666666667</ele><time>2026-04-26T13:14:56.116Z</time></trkpt><trkpt lat="44.4515731" lon="11.3629705"><ele>99.5</ele><time>2026-04-26T13:14:57.125Z</time></trkpt><trkpt lat="44.4516324" lon="11.3630368"><ele>99.33333333333334</ele><time>2026-04-26T13:14:58.127Z</time></trkpt><trkpt lat="44.451688" lon="11.3631132"><ele>99.16666666666667</ele><time>2026-04-26T13:14:59.121Z</time></trkpt><trkpt lat="44.4517421" lon="11.3631951"><ele>99.0</ele><time>2026-04-26T13:15:00.121Z</time></trkpt><trkpt lat="44.451793" lon="11.3632827"><ele>99.16666666666667</ele><time>2026-04-26T13:15:01.124Z</time></trkpt><trkpt lat="44.4518394" lon="11.3633806"><ele>99.33333333333334</ele><time>2026-04-26T13:15:02.123Z</time></trkpt><trkpt lat="44.4518781" lon="11.3634831"><ele>99.5</ele><time>2026-04-26T13:15:03.141Z</time></trkpt><trkpt lat="44.4519178" lon="11.3635859"><ele>99.66666666666667</ele><time>2026-04-26T13:15:04.126Z</time></trkpt><trkpt lat="44.4519604" lon="11.3636867"><ele>99.83333333333334</ele><time>2026-04-26T13:15:05.125Z</time></trkpt><trkpt lat="44.4520056" lon="11.3637835"><ele>100.0</ele><time>2026-04-26T13:15:06.128Z</time></trkpt><trkpt lat="44.4520581" lon="11.3638761"><ele>100.00000000000001</ele><time>2026-04-26T13:15:07.123Z</time></trkpt><trkpt lat="44.4521109" lon="11.3639695"><ele>100.0</ele><time>2026-04-26T13:15:08.126Z</time></trkpt><trkpt lat="44.4521682" lon="11.3640599"><ele>100.0</ele><time>2026-04-26T13:15:09.134Z</time></trkpt><trkpt lat="44.4522283" lon="11.3641507"><ele>100.0</ele><time>2026-04-26T13:15:10.123Z</time></trkpt><trkpt lat="44.4522886" lon="11.3642418"><ele>100.00000000000001</ele><time>2026-04-26T13:15:11.126Z</time></trkpt><trkpt lat="44.4523492" lon="11.3643341"><ele>100.0</ele><time>2026-04-26T13:15:12.13Z</time></trkpt><trkpt lat="44.4524102" lon="11.3644281"><ele>99.33333333333334</ele><time>2026-04-26T13:15:13.121Z</time></trkpt><trkpt lat="44.4524697" lon="11.364522"><ele>98.66666666666667</ele><time>2026-04-26T13:15:14.123Z</time></trkpt><trkpt lat="44.4525273" lon="11.3646159"><ele>98.0</ele><time>2026-04-26T13:15:15.127Z</time></trkpt><trkpt lat="44.4525839" lon="11.3647092"><ele>97.33333333333334</ele><time>2026-04-26T13:15:16.122Z</time></trkpt><trkpt lat="44.4526394" lon="11.3648001"><ele>96.66666666666667</ele><time>2026-04-26T13:15:17.129Z</time></trkpt><trkpt lat="44.4526918" lon="11.3648907"><ele>96.0</ele><time>2026-04-26T13:15:18.13Z</time></trkpt><trkpt lat="44.4527416" lon="11.3649809"><ele>95.99999999999999</ele><time>2026-04-26T13:15:19.124Z</time></trkpt><trkpt lat="44.4527874" lon="11.3650689"><ele>96.0</ele><time>2026-04-26T13:15:20.132Z</time></trkpt><trkpt lat="44.4528317" lon="11.3651542"><ele>96.0</ele><time>2026-04-26T13:15:21.126Z</time></trkpt><trkpt lat="44.4528758" lon="11.3652367"><ele>96.0</ele><time>2026-04-26T13:15:22.132Z</time></trkpt><trkpt lat="44.4529203" lon="11.3653147"><ele>96.0</ele><time>2026-04-26T13:15:23.135Z</time></trkpt><trkpt lat="44.4529683" lon="11.3653865"><ele>95.99999999999999</ele><time>2026-04-26T13:15:24.133Z</time></trkpt><trkpt lat="44.4530146" lon="11.3654534"><ele>96.0</ele><time>2026-04-26T13:15:25.133Z</time></trkpt><trkpt lat="44.4530672" lon="11.365516"><ele>94.42857142857142</ele><time>2026-04-26T13:15:26.134Z</time></trkpt><trkpt lat="44.4531219" lon="11.3655764"><ele>92.85714285714286</ele><time>2026-04-26T13:15:27.136Z</time></trkpt><trkpt lat="44.4531783" lon="11.3656379"><ele>91.28571428571428</ele><time>2026-04-26T13:15:28.136Z</time></trkpt><trkpt lat="44.4532346" lon="11.3656975"><ele>89.71428571428571</ele><time>2026-04-26T13:15:29.127Z</time></trkpt><trkpt lat="44.4532899" lon="11.3657559"><ele>88.14285714285714</ele><time>2026-04-26T13:15:30.14Z</time></trkpt><trkpt lat="44.4533451" lon="11.3658173"><ele>86.57142857142857</ele><time>2026-04-26T13:15:31.138Z</time></trkpt><trkpt lat="44.453399" lon="11.3658804"><ele>85.0</ele><time>2026-04-26T13:15:32.133Z</time></trkpt><trkpt lat="44.4534534" lon="11.3659422"><ele>85.0</ele><time>2026-04-26T13:15:33.14Z</time></trkpt><trkpt lat="44.4535066" lon="11.3660023"><ele>85.0</ele><time>2026-04-26T13:15:34.134Z</time></trkpt><trkpt lat="44.4535608" lon="11.3660618"><ele>85.0</ele><time>2026-04-26T13:15:35.123Z</time></trkpt><trkpt lat="44.4536149" lon="11.3661238"><ele>85.0</ele><time>2026-04-26T13:15:36.13Z</time></trkpt><trkpt lat="44.4536692" lon="11.3661866"><ele>85.0</ele><time>2026-04-26T13:15:37.127Z</time></trkpt><trkpt lat="44.453721" lon="11.3662494"><ele>85.0</ele><time>2026-04-26T13:15:38.119Z</time></trkpt><trkpt lat="44.4537715" lon="11.366317"><ele>85.0</ele><time>2026-04-26T13:15:39.13Z</time></trkpt><trkpt lat="44.453819" lon="11.3663876"><ele>86.16666666666666</ele><time>2026-04-26T13:15:40.128Z</time></trkpt><trkpt lat="44.4538666" lon="11.3664567"><ele>87.33333333333333</ele><time>2026-04-26T13:15:41.132Z</time></trkpt><trkpt lat="44.4539166" lon="11.3665198"><ele>88.5</ele><time>2026-04-26T13:15:42.129Z</time></trkpt><trkpt lat="44.453965" lon="11.36658"><ele>89.66666666666667</ele><time>2026-04-26T13:15:43.122Z</time></trkpt><trkpt lat="44.454036" lon="11.3667062"><ele>90.83333333333334</ele><time>2026-04-26T13:15:45.13Z</time></trkpt><trkpt lat="44.4540069" lon="11.3668603"><ele>92.0</ele><time>2026-04-26T13:15:47.121Z</time></trkpt><trkpt lat="44.4539741" lon="11.3669361"><ele>92.0</ele><time>2026-04-26T13:15:48.135Z</time></trkpt><trkpt lat="44.4539365" lon="11.3670119"><ele>92.0</ele><time>2026-04-26T13:15:49.126Z</time></trkpt><trkpt lat="44.4538957" lon="11.3670883"><ele>92.0</ele><time>2026-04-26T13:15:50.123Z</time></trkpt><trkpt lat="44.4538522" lon="11.3671695"><ele>92.0</ele><time>2026-04-26T13:15:51.116Z</time></trkpt><trkpt lat="44.4538018" lon="11.3672546"><ele>92.0</ele><time>2026-04-26T13:15:52.131Z</time></trkpt><trkpt lat="44.453753" lon="11.3673434"><ele>92.0</ele><time>2026-04-26T13:15:53.12Z</time></trkpt><trkpt lat="44.4537032" lon="11.3674347"><ele>92.0</ele><time>2026-04-26T13:15:54.124Z</time></trkpt><trkpt lat="44.4536525" lon="11.3675292"><ele>91.33333333333334</ele><time>2026-04-26T13:15:55.124Z</time></trkpt><trkpt lat="44.4536015" lon="11.3676259"><ele>90.66666666666667</ele><time>2026-04-26T13:15:56.124Z</time></trkpt><trkpt lat="44.4535514" lon="11.3677217"><ele>90.0</ele><time>2026-04-26T13:15:57.12Z</time></trkpt><trkpt lat="44.4535038" lon="11.3678145"><ele>89.33333333333333</ele><time>2026-04-26T13:15:58.132Z</time></trkpt><trkpt lat="44.4534599" lon="11.3679107"><ele>88.66666666666666</ele><time>2026-04-26T13:15:59.123Z</time></trkpt><trkpt lat="44.4534079" lon="11.3680036"><ele>88.0</ele><time>2026-04-26T13:16:00.134Z</time></trkpt><trkpt lat="44.453355" lon="11.3681025"><ele>88.0</ele><time>2026-04-26T13:16:01.12Z</time></trkpt><trkpt lat="44.4533067" lon="11.3681946"><ele>88.0</ele><time>2026-04-26T13:16:02.126Z</time></trkpt><trkpt lat="44.4532613" lon="11.3682813"><ele>88.0</ele><time>2026-04-26T13:16:03.111Z</time></trkpt><trkpt lat="44.453224" lon="11.3683674"><ele>88.0</ele><time>2026-04-26T13:16:04.126Z</time></trkpt><trkpt lat="44.4531923" lon="11.3684546"><ele>88.0</ele><time>2026-04-26T13:16:05.124Z</time></trkpt><trkpt lat="44.4531662" lon="11.368542"><ele>88.0</ele><time>2026-04-26T13:16:06.118Z</time></trkpt><trkpt lat="44.4531435" lon="11.368627"><ele>88.0</ele><time>2026-04-26T13:16:07.124Z</time></trkpt><trkpt lat="44.4531111" lon="11.3687947"><ele>87.4</ele><time>2026-04-26T13:16:09.124Z</time></trkpt><trkpt lat="44.4530911" lon="11.3689557"><ele>86.80000000000001</ele><time>2026-04-26T13:16:11.12Z</time></trkpt><trkpt lat="44.4530831" lon="11.3691077"><ele>86.2</ele><time>2026-04-26T13:16:13.113Z</time></trkpt><trkpt lat="44.4530802" lon="11.3692521"><ele>85.6</ele><time>2026-04-26T13:16:15.13Z</time></trkpt><trkpt lat="44.4530789" lon="11.3693923"><ele>85.0</ele><time>2026-04-26T13:16:17.121Z</time></trkpt><trkpt lat="44.45305" lon="11.3695299"><ele>85.0</ele><time>2026-04-26T13:16:19.133Z</time></trkpt><trkpt lat="44.4529675" lon="11.3696236"><ele>85.0</ele><time>2026-04-26T13:16:21.138Z</time></trkpt><trkpt lat="44.452879" lon="11.3697236"><ele>85.0</ele><time>2026-04-26T13:16:23.127Z</time></trkpt><trkpt lat="44.4528337" lon="11.3698801"><ele>85.0</ele><time>2026-04-26T13:16:25.137Z</time></trkpt><trkpt lat="44.4528655" lon="11.3700449"><ele>85.0</ele><time>2026-04-26T13:16:27.13Z</time></trkpt><trkpt lat="44.4529598" lon="11.3701573"><ele>85.0</ele><time>2026-04-26T13:16:29.13Z</time></trkpt><trkpt lat="44.4530749" lon="11.3702269"><ele>85.0</ele><time>2026-04-26T13:16:31.133Z</time></trkpt><trkpt lat="44.4531822" lon="11.3703191"><ele>85.0</ele><time>2026-04-26T13:16:33.139Z</time></trkpt><trkpt lat="44.4532283" lon="11.3703799"><ele>85.0</ele><time>2026-04-26T13:16:34.12Z</time></trkpt><trkpt lat="44.4532728" lon="11.3704431"><ele>85.0</ele><time>2026-04-26T13:16:35.119Z</time></trkpt><trkpt lat="44.4533163" lon="11.3705071"><ele>85.0</ele><time>2026-04-26T13:16:36.13Z</time></trkpt><trkpt lat="44.4533593" lon="11.3705717"><ele>85.0</ele><time>2026-04-26T13:16:37.123Z</time></trkpt><trkpt lat="44.453441" lon="11.3707017"><ele>85.0</ele><time>2026-04-26T13:16:39.128Z</time></trkpt><trkpt lat="44.4535234" lon="11.3708292"><ele>85.0</ele><time>2026-04-26T13:16:41.128Z</time></trkpt><trkpt lat="44.4536062" lon="11.3709549"><ele>85.0</ele><time>2026-04-26T13:16:43.119Z</time></trkpt><trkpt lat="44.4536875" lon="11.3710802"><ele>85.0</ele><time>2026-04-26T13:16:45.123Z</time></trkpt><trkpt lat="44.45377" lon="11.3712073"><ele>85.0</ele><time>2026-04-26T13:16:47.136Z</time></trkpt><trkpt lat="44.4538534" lon="11.3713306"><ele>85.0</ele><time>2026-04-26T13:16:49.123Z</time></trkpt><trkpt lat="44.4539379" lon="11.3714515"><ele>84.25</ele><time>2026-04-26T13:16:51.118Z</time></trkpt><trkpt lat="44.4540251" lon="11.371566"><ele>83.5</ele><time>2026-04-26T13:16:53.125Z</time></trkpt><trkpt lat="44.4541149" lon="11.3716798"><ele>82.75</ele><time>2026-04-26T13:16:55.139Z</time></trkpt><trkpt lat="44.454208" lon="11.3717864"><ele>82.0</ele><time>2026-04-26T13:16:57.127Z</time></trkpt><trkpt lat="44.4543057" lon="11.3718857"><ele>82.0</ele><time>2026-04-26T13:16:59.128Z</time></trkpt><trkpt lat="44.454408" lon="11.3719786"><ele>82.0</ele><time>2026-04-26T13:17:01.131Z</time></trkpt><trkpt lat="44.4545144" lon="11.3720664"><ele>82.0</ele><time>2026-04-26T13:17:03.128Z</time></trkpt><trkpt lat="44.4545696" lon="11.3721094"><ele>82.0</ele><time>2026-04-26T13:17:04.142Z</time></trkpt><trkpt lat="44.4546261" lon="11.372152"><ele>82.0</ele><time>2026-04-26T13:17:05.123Z</time></trkpt><trkpt lat="44.4546841" lon="11.37219"><ele>82.0</ele><time>2026-04-26T13:17:06.129Z</time></trkpt><trkpt lat="44.4547414" lon="11.3722277"><ele>81.57142857142857</ele><time>2026-04-26T13:17:07.128Z</time></trkpt><trkpt lat="44.4547991" lon="11.3722644"><ele>81.14285714285714</ele><time>2026-04-26T13:17:08.117Z</time></trkpt><trkpt lat="44.4548575" lon="11.3722998"><ele>80.71428571428572</ele><time>2026-04-26T13:17:09.131Z</time></trkpt><trkpt lat="44.4549172" lon="11.3723342"><ele>80.28571428571428</ele><time>2026-04-26T13:17:10.126Z</time></trkpt><trkpt lat="44.4549777" lon="11.3723676"><ele>79.85714285714286</ele><time>2026-04-26T13:17:11.129Z</time></trkpt><trkpt lat="44.4550384" lon="11.3724013"><ele>79.42857142857143</ele><time>2026-04-26T13:17:12.12Z</time></trkpt><trkpt lat="44.4550995" lon="11.3724333"><ele>79.0</ele><time>2026-04-26T13:17:13.129Z</time></trkpt><trkpt lat="44.4551614" lon="11.3724622"><ele>79.00000000000001</ele><time>2026-04-26T13:17:14.13Z</time></trkpt><trkpt lat="44.4552229" lon="11.3724971"><ele>79.0</ele><time>2026-04-26T13:17:15.125Z</time></trkpt><trkpt lat="44.4552842" lon="11.3725351"><ele>79.0</ele><time>2026-04-26T13:17:16.139Z</time></trkpt><trkpt lat="44.4553472" lon="11.3725698"><ele>79.0</ele><time>2026-04-26T13:17:17.128Z</time></trkpt><trkpt lat="44.4554112" lon="11.3726042"><ele>79.0</ele><time>2026-04-26T13:17:18.125Z</time></trkpt><trkpt lat="44.4554758" lon="11.3726394"><ele>79.00000000000001</ele><time>2026-04-26T13:17:19.126Z</time></trkpt><trkpt lat="44.45554" lon="11.3726753"><ele>79.0</ele><time>2026-04-26T13:17:20.122Z</time></trkpt><trkpt lat="44.4556043" lon="11.3727122"><ele>79.28571428571429</ele><time>2026-04-26T13:17:21.121Z</time></trkpt><trkpt lat="44.4556697" lon="11.3727479"><ele>79.57142857142857</ele><time>2026-04-26T13:17:22.131Z</time></trkpt><trkpt lat="44.4557359" lon="11.3727832"><ele>79.85714285714286</ele><time>2026-04-26T13:17:23.127Z</time></trkpt><trkpt lat="44.4558015" lon="11.372819"><ele>80.14285714285714</ele><time>2026-04-26T13:17:24.122Z</time></trkpt><trkpt lat="44.455867" lon="11.372857"><ele>80.42857142857143</ele><time>2026-04-26T13:17:25.124Z</time></trkpt><trkpt lat="44.4559324" lon="11.3728931"><ele>80.71428571428572</ele><time>2026-04-26T13:17:26.129Z</time></trkpt><trkpt lat="44.4559989" lon="11.3729282"><ele>81.0</ele><time>2026-04-26T13:17:27.131Z</time></trkpt><trkpt lat="44.4560653" lon="11.3729629"><ele>81.0</ele><time>2026-04-26T13:17:28.133Z</time></trkpt><trkpt lat="44.4561323" lon="11.3729978"><ele>81.0</ele><time>2026-04-26T13:17:29.134Z</time></trkpt><trkpt lat="44.4561997" lon="11.3730333"><ele>81.0</ele><time>2026-04-26T13:17:30.132Z</time></trkpt><trkpt lat="44.4562665" lon="11.373071"><ele>81.0</ele><time>2026-04-26T13:17:31.128Z</time></trkpt><trkpt lat="44.4563332" lon="11.3731074"><ele>81.0</ele><time>2026-04-26T13:17:32.13Z</time></trkpt><trkpt lat="44.4564002" lon="11.3731429"><ele>81.0</ele><time>2026-04-26T13:17:33.122Z</time></trkpt><trkpt lat="44.4564671" lon="11.3731763"><ele>81.0</ele><time>2026-04-26T13:17:34.138Z</time></trkpt><trkpt lat="44.4565348" lon="11.3732083"><ele>80.42857142857143</ele><time>2026-04-26T13:17:35.133Z</time></trkpt><trkpt lat="44.4566023" lon="11.3732393"><ele>79.85714285714286</ele><time>2026-04-26T13:17:36.125Z</time></trkpt><trkpt lat="44.4566709" lon="11.3732686"><ele>79.28571428571428</ele><time>2026-04-26T13:17:37.126Z</time></trkpt><trkpt lat="44.4567395" lon="11.3732974"><ele>78.71428571428572</ele><time>2026-04-26T13:17:38.131Z</time></trkpt><trkpt lat="44.4568087" lon="11.3733234"><ele>78.14285714285714</ele><time>2026-04-26T13:17:39.124Z</time></trkpt><trkpt lat="44.4568777" lon="11.3733502"><ele>77.57142857142857</ele><time>2026-04-26T13:17:40.127Z</time></trkpt><trkpt lat="44.4569472" lon="11.373375"><ele>77.0</ele><time>2026-04-26T13:17:41.134Z</time></trkpt><trkpt lat="44.4570179" lon="11.3733966"><ele>77.0</ele><time>2026-04-26T13:17:42.13Z</time></trkpt><trkpt lat="44.4570886" lon="11.3734165"><ele>77.0</ele><time>2026-04-26T13:17:43.121Z</time></trkpt><trkpt lat="44.4571605" lon="11.3734344"><ele>77.0</ele><time>2026-04-26T13:17:44.124Z</time></trkpt><trkpt lat="44.4572334" lon="11.3734501"><ele>77.0</ele><time>2026-04-26T13:17:45.127Z</time></trkpt><trkpt lat="44.457307" lon="11.3734677"><ele>77.0</ele><time>2026-04-26T13:17:46.134Z</time></trkpt><trkpt lat="44.4573808" lon="11.3734857"><ele>77.0</ele><time>2026-04-26T13:17:47.126Z</time></trkpt><trkpt lat="44.4574545" lon="11.3735017"><ele>77.0</ele><time>2026-04-26T13:17:48.127Z</time></trkpt><trkpt lat="44.4575283" lon="11.3735171"><ele>77.28571428571429</ele><time>2026-04-26T13:17:49.139Z</time></trkpt><trkpt lat="44.4576009" lon="11.3735328"><ele>77.57142857142857</ele><time>2026-04-26T13:17:50.12Z</time></trkpt><trkpt lat="44.4576723" lon="11.3735494"><ele>77.85714285714286</ele><time>2026-04-26T13:17:51.125Z</time></trkpt><trkpt lat="44.4577435" lon="11.3735648"><ele>78.14285714285714</ele><time>2026-04-26T13:17:52.126Z</time></trkpt><trkpt lat="44.4578138" lon="11.373581"><ele>78.42857142857143</ele><time>2026-04-26T13:17:53.132Z</time></trkpt><trkpt lat="44.457884" lon="11.3735964"><ele>78.71428571428572</ele><time>2026-04-26T13:17:54.126Z</time></trkpt><trkpt lat="44.4579533" lon="11.3736117"><ele>79.0</ele><time>2026-04-26T13:17:55.128Z</time></trkpt><trkpt lat="44.4580219" lon="11.3736269"><ele>79.28571428571429</ele><time>2026-04-26T13:17:56.126Z</time></trkpt><trkpt lat="44.4580899" lon="11.373643"><ele>79.57142857142857</ele><time>2026-04-26T13:17:57.133Z</time></trkpt><trkpt lat="44.4581578" lon="11.3736582"><ele>79.85714285714286</ele><time>2026-04-26T13:17:58.126Z</time></trkpt><trkpt lat="44.4582255" lon="11.373674"><ele>80.14285714285714</ele><time>2026-04-26T13:17:59.13Z</time></trkpt><trkpt lat="44.4582934" lon="11.3736922"><ele>80.42857142857143</ele><time>2026-04-26T13:18:00.125Z</time></trkpt><trkpt lat="44.4583611" lon="11.3737125"><ele>80.71428571428572</ele><time>2026-04-26T13:18:01.119Z</time></trkpt><trkpt lat="44.4584294" lon="11.3737361"><ele>81.0</ele><time>2026-04-26T13:18:02.117Z</time></trkpt><trkpt lat="44.4584977" lon="11.37376"><ele>81.0</ele><time>2026-04-26T13:18:03.124Z</time></trkpt><trkpt lat="44.4585661" lon="11.3737878"><ele>81.0</ele><time>2026-04-26T13:18:04.115Z</time></trkpt><trkpt lat="44.4586343" lon="11.3738186"><ele>81.0</ele><time>2026-04-26T13:18:05.124Z</time></trkpt><trkpt lat="44.4587026" lon="11.3738518"><ele>81.0</ele><time>2026-04-26T13:18:06.131Z</time></trkpt><trkpt lat="44.458769" lon="11.3738896"><ele>81.0</ele><time>2026-04-26T13:18:07.121Z</time></trkpt><trkpt lat="44.4588344" lon="11.3739316"><ele>81.0</ele><time>2026-04-26T13:18:08.123Z</time></trkpt><trkpt lat="44.4588982" lon="11.3739777"><ele>81.0</ele><time>2026-04-26T13:18:09.124Z</time></trkpt><trkpt lat="44.45896" lon="11.3740264"><ele>80.57142857142857</ele><time>2026-04-26T13:18:10.132Z</time></trkpt><trkpt lat="44.4590213" lon="11.3740749"><ele>80.14285714285714</ele><time>2026-04-26T13:18:11.129Z</time></trkpt><trkpt lat="44.4590809" lon="11.3741282"><ele>79.71428571428572</ele><time>2026-04-26T13:18:12.126Z</time></trkpt><trkpt lat="44.4591368" lon="11.374186"><ele>79.28571428571428</ele><time>2026-04-26T13:18:13.13Z</time></trkpt><trkpt lat="44.4591916" lon="11.3742455"><ele>78.85714285714285</ele><time>2026-04-26T13:18:14.119Z</time></trkpt><trkpt lat="44.4592454" lon="11.3743053"><ele>78.42857142857143</ele><time>2026-04-26T13:18:15.128Z</time></trkpt><trkpt lat="44.4592967" lon="11.374368"><ele>78.0</ele><time>2026-04-26T13:18:16.127Z</time></trkpt><trkpt lat="44.459345" lon="11.3744339"><ele>78.0</ele><time>2026-04-26T13:18:17.13Z</time></trkpt><trkpt lat="44.4593871" lon="11.3745056"><ele>78.0</ele><time>2026-04-26T13:18:18.13Z</time></trkpt><trkpt lat="44.4594195" lon="11.3745863"><ele>78.0</ele><time>2026-04-26T13:18:19.12Z</time></trkpt><trkpt lat="44.4594389" lon="11.3746742"><ele>78.0</ele><time>2026-04-26T13:18:20.132Z</time></trkpt><trkpt lat="44.4594414" lon="11.3747666"><ele>78.0</ele><time>2026-04-26T13:18:21.13Z</time></trkpt><trkpt lat="44.4594316" lon="11.3748561"><ele>78.0</ele><time>2026-04-26T13:18:22.124Z</time></trkpt><trkpt lat="44.4594227" lon="11.3749448"><ele>78.0</ele><time>2026-04-26T13:18:23.129Z</time></trkpt><trkpt lat="44.4594198" lon="11.3750354"><ele>77.71428571428572</ele><time>2026-04-26T13:18:24.125Z</time></trkpt><trkpt lat="44.4594287" lon="11.3751251"><ele>77.42857142857142</ele><time>2026-04-26T13:18:25.125Z</time></trkpt><trkpt lat="44.4594504" lon="11.3752115"><ele>77.14285714285714</ele><time>2026-04-26T13:18:26.128Z</time></trkpt><trkpt lat="44.4594834" lon="11.3752906"><ele>76.85714285714286</ele><time>2026-04-26T13:18:27.128Z</time></trkpt><trkpt lat="44.4595258" lon="11.3753607"><ele>76.57142857142858</ele><time>2026-04-26T13:18:28.124Z</time></trkpt><trkpt lat="44.459575" lon="11.3754225"><ele>76.28571428571428</ele><time>2026-04-26T13:18:29.122Z</time></trkpt><trkpt lat="44.4596284" lon="11.3754786"><ele>76.0</ele><time>2026-04-26T13:18:30.133Z</time></trkpt><trkpt lat="44.4596828" lon="11.3755346"><ele>76.0</ele><time>2026-04-26T13:18:31.122Z</time></trkpt><trkpt lat="44.4597367" lon="11.3755948"><ele>76.0</ele><time>2026-04-26T13:18:32.148Z</time></trkpt><trkpt lat="44.4597857" lon="11.3756637"><ele>76.0</ele><time>2026-04-26T13:18:33.125Z</time></trkpt><trkpt lat="44.4598303" lon="11.3757403"><ele>76.0</ele><time>2026-04-26T13:18:34.118Z</time></trkpt><trkpt lat="44.4598631" lon="11.3758282"><ele>76.0</ele><time>2026-04-26T13:18:35.126Z</time></trkpt><trkpt lat="44.4598863" lon="11.3759225"><ele>76.0</ele><time>2026-04-26T13:18:36.122Z</time></trkpt><trkpt lat="44.4599081" lon="11.3760179"><ele>76.0</ele><time>2026-04-26T13:18:37.13Z</time></trkpt><trkpt lat="44.4599306" lon="11.3761144"><ele>76.0</ele><time>2026-04-26T13:18:38.129Z</time></trkpt><trkpt lat="44.4599538" lon="11.3762105"><ele>76.0</ele><time>2026-04-26T13:18:39.12Z</time></trkpt><trkpt lat="44.4599769" lon="11.3763079"><ele>76.0</ele><time>2026-04-26T13:18:40.129Z</time></trkpt><trkpt lat="44.4599992" lon="11.3764047"><ele>76.0</ele><time>2026-04-26T13:18:41.127Z</time></trkpt><trkpt lat="44.4600244" lon="11.3765006"><ele>76.0</ele><time>2026-04-26T13:18:42.126Z</time></trkpt><trkpt lat="44.4600514" lon="11.3765957"><ele>76.0</ele><time>2026-04-26T13:18:43.14Z</time></trkpt><trkpt lat="44.4600797" lon="11.3766893"><ele>76.0</ele><time>2026-04-26T13:18:44.125Z</time></trkpt><trkpt lat="44.4601126" lon="11.3767801"><ele>75.42857142857143</ele><time>2026-04-26T13:18:45.132Z</time></trkpt><trkpt lat="44.4601478" lon="11.3768685"><ele>74.85714285714286</ele><time>2026-04-26T13:18:46.128Z</time></trkpt><trkpt lat="44.4601862" lon="11.3769562"><ele>74.28571428571429</ele><time>2026-04-26T13:18:47.125Z</time></trkpt><trkpt lat="44.4602275" lon="11.3770392"><ele>73.71428571428572</ele><time>2026-04-26T13:18:48.132Z</time></trkpt><trkpt lat="44.4602685" lon="11.3771204"><ele>73.14285714285714</ele><time>2026-04-26T13:18:49.136Z</time></trkpt><trkpt lat="44.4603103" lon="11.3771991"><ele>72.57142857142858</ele><time>2026-04-26T13:18:50.133Z</time></trkpt><trkpt lat="44.4603544" lon="11.3772759"><ele>72.0</ele><time>2026-04-26T13:18:51.117Z</time></trkpt><trkpt lat="44.4604013" lon="11.3773499"><ele>72.42857142857143</ele><time>2026-04-26T13:18:52.132Z</time></trkpt><trkpt lat="44.4604513" lon="11.3774211"><ele>72.85714285714286</ele><time>2026-04-26T13:18:53.129Z</time></trkpt><trkpt lat="44.4605012" lon="11.3774929"><ele>73.28571428571428</ele><time>2026-04-26T13:18:54.116Z</time></trkpt><trkpt lat="44.4605512" lon="11.377566"><ele>73.71428571428572</ele><time>2026-04-26T13:18:55.131Z</time></trkpt><trkpt lat="44.4606006" lon="11.3776392"><ele>74.14285714285714</ele><time>2026-04-26T13:18:56.124Z</time></trkpt><trkpt lat="44.4606513" lon="11.3777113"><ele>74.57142857142857</ele><time>2026-04-26T13:18:57.122Z</time></trkpt><trkpt lat="44.4607028" lon="11.3777814"><ele>75.0</ele><time>2026-04-26T13:18:58.131Z</time></trkpt><trkpt lat="44.4607548" lon="11.3778515"><ele>74.99999999999999</ele><time>2026-04-26T13:18:59.124Z</time></trkpt><trkpt lat="44.4608064" lon="11.3779218"><ele>75.0</ele><time>2026-04-26T13:19:00.128Z</time></trkpt><trkpt lat="44.4608574" lon="11.3779931"><ele>75.0</ele><time>2026-04-26T13:19:01.12Z</time></trkpt><trkpt lat="44.4609082" lon="11.3780637"><ele>75.0</ele><time>2026-04-26T13:19:02.124Z</time></trkpt><trkpt lat="44.4609586" lon="11.3781345"><ele>75.0</ele><time>2026-04-26T13:19:03.122Z</time></trkpt><trkpt lat="44.4610091" lon="11.3782055"><ele>74.99999999999999</ele><time>2026-04-26T13:19:04.128Z</time></trkpt><trkpt lat="44.4610587" lon="11.3782752"><ele>75.0</ele><time>2026-04-26T13:19:05.125Z</time></trkpt><trkpt lat="44.4611074" lon="11.3783434"><ele>75.0</ele><time>2026-04-26T13:19:06.128Z</time></trkpt><trkpt lat="44.4611546" lon="11.3784115"><ele>75.0</ele><time>2026-04-26T13:19:07.127Z</time></trkpt><trkpt lat="44.4612006" lon="11.3784774"><ele>75.0</ele><time>2026-04-26T13:19:08.135Z</time></trkpt><trkpt lat="44.4612458" lon="11.3785435"><ele>75.0</ele><time>2026-04-26T13:19:09.123Z</time></trkpt><trkpt lat="44.4612905" lon="11.3786111"><ele>75.0</ele><time>2026-04-26T13:19:10.127Z</time></trkpt><trkpt lat="44.4613765" lon="11.3787395"><ele>75.0</ele><time>2026-04-26T13:19:12.125Z</time></trkpt><trkpt lat="44.46142" lon="11.3788048"><ele>74.71428571428571</ele><time>2026-04-26T13:19:13.124Z</time></trkpt><trkpt lat="44.4614643" lon="11.3788675"><ele>74.42857142857143</ele><time>2026-04-26T13:19:14.128Z</time></trkpt><trkpt lat="44.4615058" lon="11.3789341"><ele>74.14285714285714</ele><time>2026-04-26T13:19:15.132Z</time></trkpt><trkpt lat="44.4615393" lon="11.3790095"><ele>73.85714285714286</ele><time>2026-04-26T13:19:16.124Z</time></trkpt><trkpt lat="44.4615628" lon="11.3790935"><ele>73.57142857142857</ele><time>2026-04-26T13:19:17.127Z</time></trkpt><trkpt lat="44.4615732" lon="11.379181"><ele>73.28571428571428</ele><time>2026-04-26T13:19:18.127Z</time></trkpt><trkpt lat="44.4615583" lon="11.3793565"><ele>73.0</ele><time>2026-04-26T13:19:20.127Z</time></trkpt><trkpt lat="44.4615459" lon="11.3794432"><ele>73.0</ele><time>2026-04-26T13:19:21.139Z</time></trkpt><trkpt lat="44.4615383" lon="11.3795312"><ele>73.0</ele><time>2026-04-26T13:19:22.13Z</time></trkpt><trkpt lat="44.461551" lon="11.3797043"><ele>73.0</ele><time>2026-04-26T13:19:24.131Z</time></trkpt><trkpt lat="44.4615732" lon="11.3797869"><ele>73.0</ele><time>2026-04-26T13:19:25.121Z</time></trkpt><trkpt lat="44.4616016" lon="11.379867"><ele>73.0</ele><time>2026-04-26T13:19:26.129Z</time></trkpt><trkpt lat="44.4616274" lon="11.379949"><ele>73.0</ele><time>2026-04-26T13:19:27.129Z</time></trkpt><trkpt lat="44.4616458" lon="11.3800367"><ele>73.0</ele><time>2026-04-26T13:19:28.121Z</time></trkpt><trkpt lat="44.461657" lon="11.3801273"><ele>72.85714285714286</ele><time>2026-04-26T13:19:29.113Z</time></trkpt><trkpt lat="44.4616547" lon="11.3802201"><ele>72.71428571428572</ele><time>2026-04-26T13:19:30.123Z</time></trkpt><trkpt lat="44.4616323" lon="11.3803072"><ele>72.57142857142858</ele><time>2026-04-26T13:19:31.125Z</time></trkpt><trkpt lat="44.4616024" lon="11.3803887"><ele>72.42857142857143</ele><time>2026-04-26T13:19:32.134Z</time></trkpt><trkpt lat="44.4615699" lon="11.3804684"><ele>72.28571428571429</ele><time>2026-04-26T13:19:33.123Z</time></trkpt><trkpt lat="44.4615389" lon="11.3805493"><ele>72.14285714285715</ele><time>2026-04-26T13:19:34.123Z</time></trkpt><trkpt lat="44.4615091" lon="11.3806316"><ele>72.0</ele><time>2026-04-26T13:19:35.124Z</time></trkpt><trkpt lat="44.4614782" lon="11.3807144"><ele>71.71428571428572</ele><time>2026-04-26T13:19:36.13Z</time></trkpt><trkpt lat="44.4614478" lon="11.3807988"><ele>71.42857142857143</ele><time>2026-04-26T13:19:37.124Z</time></trkpt><trkpt lat="44.4614182" lon="11.3808837"><ele>71.14285714285714</ele><time>2026-04-26T13:19:38.129Z</time></trkpt><trkpt lat="44.4613874" lon="11.3809688"><ele>70.85714285714286</ele><time>2026-04-26T13:19:39.119Z</time></trkpt><trkpt lat="44.461356" lon="11.3810526"><ele>70.57142857142857</ele><time>2026-04-26T13:19:40.129Z</time></trkpt><trkpt lat="44.4613245" lon="11.3811365"><ele>70.28571428571429</ele><time>2026-04-26T13:19:41.129Z</time></trkpt><trkpt lat="44.4612938" lon="11.3812213"><ele>70.0</ele><time>2026-04-26T13:19:42.115Z</time></trkpt><trkpt lat="44.4612635" lon="11.3813053"><ele>70.71428571428571</ele><time>2026-04-26T13:19:43.136Z</time></trkpt><trkpt lat="44.4612326" lon="11.3813898"><ele>71.42857142857143</ele><time>2026-04-26T13:19:44.139Z</time></trkpt><trkpt lat="44.461203" lon="11.3814738"><ele>72.14285714285714</ele><time>2026-04-26T13:19:45.131Z</time></trkpt><trkpt lat="44.4611745" lon="11.3815581"><ele>72.85714285714286</ele><time>2026-04-26T13:19:46.13Z</time></trkpt><trkpt lat="44.4611442" lon="11.381642"><ele>73.57142857142857</ele><time>2026-04-26T13:19:47.123Z</time></trkpt><trkpt lat="44.4611124" lon="11.3817244"><ele>74.28571428571428</ele><time>2026-04-26T13:19:48.122Z</time></trkpt><trkpt lat="44.4610827" lon="11.381808"><ele>75.0</ele><time>2026-04-26T13:19:49.131Z</time></trkpt><trkpt lat="44.4610561" lon="11.381889"><ele>75.0</ele><time>2026-04-26T13:19:50.131Z</time></trkpt><trkpt lat="44.4610193" lon="11.3820282"><ele>75.0</ele><time>2026-04-26T13:19:52.129Z</time></trkpt><trkpt lat="44.4609993" lon="11.382119"><ele>75.0</ele><time>2026-04-26T13:19:55.129Z</time></trkpt><trkpt lat="44.4609919" lon="11.3822257"><ele>75.0</ele><time>2026-04-26T13:20:21.126Z</time></trkpt><trkpt lat="44.4609901" lon="11.3823202"><ele>75.0</ele><time>2026-04-26T13:20:24.137Z</time></trkpt><trkpt lat="44.4609863" lon="11.3824396"><ele>75.0</ele><time>2026-04-26T13:20:27.116Z</time></trkpt><trkpt lat="44.4609864" lon="11.3825355"><ele>75.0</ele><time>2026-04-26T13:20:29.118Z</time></trkpt><trkpt lat="44.4609884" lon="11.3826422"><ele>75.0</ele><time>2026-04-26T13:20:31.131Z</time></trkpt><trkpt lat="44.4610006" lon="11.3827582"><ele>75.0</ele><time>2026-04-26T13:20:33.122Z</time></trkpt><trkpt lat="44.461019" lon="11.3828779"><ele>75.0</ele><time>2026-04-26T13:20:35.116Z</time></trkpt><trkpt lat="44.4610469" lon="11.3830005"><ele>75.0</ele><time>2026-04-26T13:20:37.139Z</time></trkpt><trkpt lat="44.4610753" lon="11.3831093"><ele>75.0</ele><time>2026-04-26T13:20:39.123Z</time></trkpt><trkpt lat="44.4622627" lon="11.3844998"><ele>75.0</ele><time>2026-04-26T13:21:07.124Z</time></trkpt><trkpt lat="44.4623614" lon="11.3845816"><ele>75.0</ele><time>2026-04-26T13:21:09.125Z</time></trkpt><trkpt lat="44.46246" lon="11.384675"><ele>75.0</ele><time>2026-04-26T13:21:11.126Z</time></trkpt><trkpt lat="44.4625554" lon="11.384768"><ele>75.0</ele><time>2026-04-26T13:21:13.131Z</time></trkpt><trkpt lat="44.4626509" lon="11.384865"><ele>74.25</ele><time>2026-04-26T13:21:15.143Z</time></trkpt><trkpt lat="44.4627417" lon="11.3849622"><ele>73.5</ele><time>2026-04-26T13:21:17.126Z</time></trkpt><trkpt lat="44.4628416" lon="11.3850591"><ele>72.75</ele><time>2026-04-26T13:21:19.127Z</time></trkpt><trkpt lat="44.4629478" lon="11.3851527"><ele>72.0</ele><time>2026-04-26T13:21:21.123Z</time></trkpt><trkpt lat="44.4630519" lon="11.3852536"><ele>72.0</ele><time>2026-04-26T13:21:23.127Z</time></trkpt><trkpt lat="44.4631568" lon="11.3853471"><ele>72.0</ele><time>2026-04-26T13:21:25.126Z</time></trkpt><trkpt lat="44.4632125" lon="11.3853941"><ele>72.0</ele><time>2026-04-26T13:21:26.122Z</time></trkpt><trkpt lat="44.4632678" lon="11.3854401"><ele>72.0</ele><time>2026-04-26T13:21:27.125Z</time></trkpt><trkpt lat="44.4633233" lon="11.3854889"><ele>72.0</ele><time>2026-04-26T13:21:28.132Z</time></trkpt><trkpt lat="44.4633793" lon="11.3855389"><ele>72.0</ele><time>2026-04-26T13:21:29.122Z</time></trkpt><trkpt lat="44.4634358" lon="11.3855862"><ele>72.14285714285715</ele><time>2026-04-26T13:21:30.121Z</time></trkpt><trkpt lat="44.463494" lon="11.3856321"><ele>72.28571428571429</ele><time>2026-04-26T13:21:31.13Z</time></trkpt><trkpt lat="44.4635546" lon="11.3856736"><ele>72.42857142857143</ele><time>2026-04-26T13:21:32.123Z</time></trkpt><trkpt lat="44.4636174" lon="11.3857152"><ele>72.57142857142858</ele><time>2026-04-26T13:21:33.13Z</time></trkpt><trkpt lat="44.4636799" lon="11.3857505"><ele>72.71428571428572</ele><time>2026-04-26T13:21:34.128Z</time></trkpt><trkpt lat="44.4637487" lon="11.3857795"><ele>72.85714285714286</ele><time>2026-04-26T13:21:35.124Z</time></trkpt><trkpt lat="44.4638193" lon="11.3857911"><ele>73.0</ele><time>2026-04-26T13:21:36.119Z</time></trkpt><trkpt lat="44.4638872" lon="11.385796"><ele>72.71428571428571</ele><time>2026-04-26T13:21:37.117Z</time></trkpt><trkpt lat="44.4639568" lon="11.3858036"><ele>72.42857142857143</ele><time>2026-04-26T13:21:38.13Z</time></trkpt><trkpt lat="44.4640258" lon="11.3858119"><ele>72.14285714285714</ele><time>2026-04-26T13:21:39.124Z</time></trkpt><trkpt lat="44.4640956" lon="11.3858188"><ele>71.85714285714286</ele><time>2026-04-26T13:21:40.131Z</time></trkpt><trkpt lat="44.464167" lon="11.3858236"><ele>71.57142857142857</ele><time>2026-04-26T13:21:41.123Z</time></trkpt><trkpt lat="44.4642372" lon="11.3858267"><ele>71.28571428571428</ele><time>2026-04-26T13:21:42.128Z</time></trkpt><trkpt lat="44.4643102" lon="11.3858301"><ele>71.0</ele><time>2026-04-26T13:21:43.126Z</time></trkpt><trkpt lat="44.4643843" lon="11.385832"><ele>71.0</ele><time>2026-04-26T13:21:44.126Z</time></trkpt><trkpt lat="44.4644564" lon="11.385832"><ele>71.0</ele><time>2026-04-26T13:21:45.131Z</time></trkpt><trkpt lat="44.4645274" lon="11.3858337"><ele>71.0</ele><time>2026-04-26T13:21:46.127Z</time></trkpt><trkpt lat="44.4645979" lon="11.3858356"><ele>71.0</ele><time>2026-04-26T13:21:47.129Z</time></trkpt><trkpt lat="44.4646694" lon="11.3858384"><ele>71.0</ele><time>2026-04-26T13:21:48.131Z</time></trkpt><trkpt lat="44.4647417" lon="11.3858412"><ele>71.0</ele><time>2026-04-26T13:21:49.135Z</time></trkpt><trkpt lat="44.4648145" lon="11.3858442"><ele>71.0</ele><time>2026-04-26T13:21:50.121Z</time></trkpt><trkpt lat="44.4648865" lon="11.3858464"><ele>70.71428571428571</ele><time>2026-04-26T13:21:51.13Z</time></trkpt><trkpt lat="44.4649572" lon="11.385851"><ele>70.42857142857142</ele><time>2026-04-26T13:21:52.129Z</time></trkpt><trkpt lat="44.4650287" lon="11.3858584"><ele>70.14285714285714</ele><time>2026-04-26T13:21:53.13Z</time></trkpt><trkpt lat="44.465101" lon="11.3858748"><ele>69.85714285714286</ele><time>2026-04-26T13:21:54.12Z</time></trkpt><trkpt lat="44.4651691" lon="11.385901"><ele>69.57142857142858</ele><time>2026-04-26T13:21:55.131Z</time></trkpt><trkpt lat="44.4652363" lon="11.3859355"><ele>69.28571428571429</ele><time>2026-04-26T13:21:56.132Z</time></trkpt><trkpt lat="44.4653039" lon="11.3859768"><ele>69.0</ele><time>2026-04-26T13:21:57.127Z</time></trkpt><trkpt lat="44.4653706" lon="11.3860221"><ele>69.0</ele><time>2026-04-26T13:21:58.134Z</time></trkpt><trkpt lat="44.4654334" lon="11.3860719"><ele>69.0</ele><time>2026-04-26T13:21:59.134Z</time></trkpt><trkpt lat="44.465495" lon="11.3861303"><ele>69.0</ele><time>2026-04-26T13:22:00.131Z</time></trkpt><trkpt lat="44.4655491" lon="11.3861968"><ele>69.0</ele><time>2026-04-26T13:22:01.134Z</time></trkpt><trkpt lat="44.4655992" lon="11.3862684"><ele>69.0</ele><time>2026-04-26T13:22:02.129Z</time></trkpt><trkpt lat="44.4656448" lon="11.3863408"><ele>69.0</ele><time>2026-04-26T13:22:03.131Z</time></trkpt><trkpt lat="44.4656886" lon="11.3864133"><ele>69.0</ele><time>2026-04-26T13:22:04.133Z</time></trkpt><trkpt lat="44.4657342" lon="11.3864905"><ele>69.42857142857143</ele><time>2026-04-26T13:22:05.122Z</time></trkpt><trkpt lat="44.4657788" lon="11.3865705"><ele>69.85714285714286</ele><time>2026-04-26T13:22:06.126Z</time></trkpt><trkpt lat="44.4658198" lon="11.3866472"><ele>70.28571428571429</ele><time>2026-04-26T13:22:07.133Z</time></trkpt><trkpt lat="44.4658621" lon="11.386721"><ele>70.71428571428572</ele><time>2026-04-26T13:22:08.128Z</time></trkpt><trkpt lat="44.4659043" lon="11.3867957"><ele>71.14285714285714</ele><time>2026-04-26T13:22:09.125Z</time></trkpt><trkpt lat="44.4659452" lon="11.38687"><ele>71.57142857142858</ele><time>2026-04-26T13:22:10.13Z</time></trkpt><trkpt lat="44.4659859" lon="11.3869452"><ele>72.0</ele><time>2026-04-26T13:22:11.149Z</time></trkpt><trkpt lat="44.4660257" lon="11.3870205"><ele>72.00000000000001</ele><time>2026-04-26T13:22:12.128Z</time></trkpt><trkpt lat="44.4660655" lon="11.3870944"><ele>72.0</ele><time>2026-04-26T13:22:13.139Z</time></trkpt><trkpt lat="44.4661053" lon="11.3871697"><ele>72.0</ele><time>2026-04-26T13:22:14.13Z</time></trkpt><trkpt lat="44.4661436" lon="11.3872463"><ele>72.0</ele><time>2026-04-26T13:22:15.137Z</time></trkpt><trkpt lat="44.4661788" lon="11.3873253"><ele>72.0</ele><time>2026-04-26T13:22:16.136Z</time></trkpt><trkpt lat="44.4662146" lon="11.3874031"><ele>72.00000000000001</ele><time>2026-04-26T13:22:17.128Z</time></trkpt><trkpt lat="44.4662439" lon="11.3874897"><ele>72.0</ele><time>2026-04-26T13:22:18.136Z</time></trkpt><trkpt lat="44.4662695" lon="11.3875792"><ele>71.85714285714286</ele><time>2026-04-26T13:22:19.144Z</time></trkpt><trkpt lat="44.4662926" lon="11.3876716"><ele>71.71428571428572</ele><time>2026-04-26T13:22:20.126Z</time></trkpt><trkpt lat="44.4663094" lon="11.3877661"><ele>71.57142857142857</ele><time>2026-04-26T13:22:21.125Z</time></trkpt><trkpt lat="44.4663241" lon="11.3878611"><ele>71.42857142857143</ele><time>2026-04-26T13:22:22.125Z</time></trkpt><trkpt lat="44.4663364" lon="11.3879568"><ele>71.28571428571428</ele><time>2026-04-26T13:22:23.126Z</time></trkpt><trkpt lat="44.4663442" lon="11.3880557"><ele>71.14285714285714</ele><time>2026-04-26T13:22:24.137Z</time></trkpt><trkpt lat="44.4663526" lon="11.3881559"><ele>71.0</ele><time>2026-04-26T13:22:25.132Z</time></trkpt><trkpt lat="44.4663617" lon="11.3882591"><ele>71.0</ele><time>2026-04-26T13:22:26.132Z</time></trkpt><trkpt lat="44.4663703" lon="11.3883646"><ele>71.0</ele><time>2026-04-26T13:22:27.137Z</time></trkpt><trkpt lat="44.466379" lon="11.3884718"><ele>71.0</ele><time>2026-04-26T13:22:28.131Z</time></trkpt><trkpt lat="44.4663867" lon="11.388577"><ele>71.0</ele><time>2026-04-26T13:22:29.138Z</time></trkpt><trkpt lat="44.4663947" lon="11.3886801"><ele>71.0</ele><time>2026-04-26T13:22:30.118Z</time></trkpt><trkpt lat="44.4664038" lon="11.3887936"><ele>71.0</ele><time>2026-04-26T13:22:31.126Z</time></trkpt><trkpt lat="44.4672842" lon="11.391839"><ele>70.6</ele><time>2026-04-26T13:23:00.122Z</time></trkpt><trkpt lat="44.4673589" lon="11.3919124"><ele>70.19999999999999</ele><time>2026-04-26T13:23:01.129Z</time></trkpt><trkpt lat="44.4674045" lon="11.3919767"><ele>69.80000000000001</ele><time>2026-04-26T13:23:02.135Z</time></trkpt><trkpt lat="44.4674502" lon="11.3920376"><ele>69.4</ele><time>2026-04-26T13:23:03.13Z</time></trkpt><trkpt lat="44.4675413" lon="11.3921442"><ele>69.0</ele><time>2026-04-26T13:23:05.127Z</time></trkpt><trkpt lat="44.4676371" lon="11.3922427"><ele>68.60000000000001</ele><time>2026-04-26T13:23:07.119Z</time></trkpt><trkpt lat="44.467732" lon="11.3923424"><ele>68.2</ele><time>2026-04-26T13:23:09.124Z</time></trkpt><trkpt lat="44.4678212" lon="11.3924296"><ele>67.80000000000001</ele><time>2026-04-26T13:23:11.133Z</time></trkpt><trkpt lat="44.4679056" lon="11.3925207"><ele>67.4</ele><time>2026-04-26T13:23:13.132Z</time></trkpt><trkpt lat="44.4679866" lon="11.3926107"><ele>67.0</ele><time>2026-04-26T13:23:15.137Z</time></trkpt><trkpt lat="44.4680709" lon="11.3926984"><ele>67.6</ele><time>2026-04-26T13:23:17.125Z</time></trkpt><trkpt lat="44.4681531" lon="11.3927896"><ele>68.2</ele><time>2026-04-26T13:23:19.119Z</time></trkpt><trkpt lat="44.4682344" lon="11.3928789"><ele>68.8</ele><time>2026-04-26T13:23:21.138Z</time></trkpt><trkpt lat="44.4683115" lon="11.39297"><ele>69.4</ele><time>2026-04-26T13:23:23.13Z</time></trkpt><trkpt lat="44.4683912" lon="11.3930604"><ele>70.0</ele><time>2026-04-26T13:23:25.132Z</time></trkpt><trkpt lat="44.4684687" lon="11.3931464"><ele>70.0</ele><time>2026-04-26T13:23:27.142Z</time></trkpt><trkpt lat="44.4685411" lon="11.3932374"><ele>70.0</ele><time>2026-04-26T13:23:29.128Z</time></trkpt><trkpt lat="44.468603" lon="11.3933338"><ele>70.0</ele><time>2026-04-26T13:23:31.13Z</time></trkpt><trkpt lat="44.4686528" lon="11.3934352"><ele>70.0</ele><time>2026-04-26T13:23:33.128Z</time></trkpt><trkpt lat="44.4686968" lon="11.3935481"><ele>70.0</ele><time>2026-04-26T13:23:35.126Z</time></trkpt><trkpt lat="44.4687028" lon="11.3936798"><ele>70.0</ele><time>2026-04-26T13:23:37.127Z</time></trkpt><trkpt lat="44.468707" lon="11.3938155"><ele>70.0</ele><time>2026-04-26T13:23:39.122Z</time></trkpt><trkpt lat="44.4687172" lon="11.393958"><ele>70.0</ele><time>2026-04-26T13:23:41.137Z</time></trkpt><trkpt lat="44.4687332" lon="11.3941004"><ele>70.0</ele><time>2026-04-26T13:23:43.125Z</time></trkpt><trkpt lat="44.4687514" lon="11.3942434"><ele>70.0</ele><time>2026-04-26T13:23:45.129Z</time></trkpt><trkpt lat="44.46877" lon="11.3943877"><ele>70.0</ele><time>2026-04-26T13:23:47.138Z</time></trkpt><trkpt lat="44.4687852" lon="11.3945344"><ele>70.0</ele><time>2026-04-26T13:23:49.121Z</time></trkpt><trkpt lat="44.4687817" lon="11.3946801"><ele>70.0</ele><time>2026-04-26T13:23:51.137Z</time></trkpt><trkpt lat="44.4687552" lon="11.3948219"><ele>70.0</ele><time>2026-04-26T13:23:53.13Z</time></trkpt><trkpt lat="44.4686984" lon="11.3949473"><ele>70.0</ele><time>2026-04-26T13:23:55.142Z</time></trkpt><trkpt lat="44.4686184" lon="11.3950454"><ele>69.2</ele><time>2026-04-26T13:23:57.132Z</time></trkpt><trkpt lat="44.4685344" lon="11.3951259"><ele>68.4</ele><time>2026-04-26T13:23:59.126Z</time></trkpt><trkpt lat="44.4684544" lon="11.3951934"><ele>67.6</ele><time>2026-04-26T13:24:01.12Z</time></trkpt><trkpt lat="44.4683743" lon="11.3952588"><ele>66.8</ele><time>2026-04-26T13:24:03.125Z</time></trkpt><trkpt lat="44.468295" lon="11.3953286"><ele>66.0</ele><time>2026-04-26T13:24:05.138Z</time></trkpt><trkpt lat="44.4682144" lon="11.395396"><ele>66.0</ele><time>2026-04-26T13:24:07.126Z</time></trkpt><trkpt lat="44.4681302" lon="11.3954586"><ele>66.0</ele><time>2026-04-26T13:24:09.125Z</time></trkpt><trkpt lat="44.4680492" lon="11.3955287"><ele>66.0</ele><time>2026-04-26T13:24:11.138Z</time></trkpt><trkpt lat="44.467972" lon="11.3955997"><ele>66.0</ele><time>2026-04-26T13:24:13.137Z</time></trkpt><trkpt lat="44.4678922" lon="11.3956653"><ele>66.0</ele><time>2026-04-26T13:24:15.136Z</time></trkpt><trkpt lat="44.4678132" lon="11.3957253"><ele>67.16666666666667</ele><time>2026-04-26T13:24:17.123Z</time></trkpt><trkpt lat="44.4677387" lon="11.3957907"><ele>68.33333333333333</ele><time>2026-04-26T13:24:19.125Z</time></trkpt><trkpt lat="44.4676624" lon="11.3958564"><ele>69.5</ele><time>2026-04-26T13:24:21.127Z</time></trkpt><trkpt lat="44.467586" lon="11.3959214"><ele>70.66666666666666</ele><time>2026-04-26T13:24:23.12Z</time></trkpt><trkpt lat="44.4675101" lon="11.3959879"><ele>71.83333333333333</ele><time>2026-04-26T13:24:25.126Z</time></trkpt><trkpt lat="44.4674361" lon="11.3960581"><ele>73.0</ele><time>2026-04-26T13:24:27.133Z</time></trkpt><trkpt lat="44.4673587" lon="11.3961224"><ele>73.0</ele><time>2026-04-26T13:24:29.133Z</time></trkpt><trkpt lat="44.4672781" lon="11.3961836"><ele>73.0</ele><time>2026-04-26T13:24:31.119Z</time></trkpt><trkpt lat="44.4671957" lon="11.3962482"><ele>73.0</ele><time>2026-04-26T13:24:33.125Z</time></trkpt><trkpt lat="44.4671113" lon="11.3963174"><ele>73.0</ele><time>2026-04-26T13:24:35.123Z</time></trkpt><trkpt lat="44.4670276" lon="11.3963848"><ele>73.0</ele><time>2026-04-26T13:24:37.133Z</time></trkpt><trkpt lat="44.4669449" lon="11.3964501"><ele>73.0</ele><time>2026-04-26T13:24:39.127Z</time></trkpt><trkpt lat="44.4668618" lon="11.3965142"><ele>73.0</ele><time>2026-04-26T13:24:41.13Z</time></trkpt><trkpt lat="44.4667775" lon="11.3965782"><ele>73.0</ele><time>2026-04-26T13:24:43.132Z</time></trkpt><trkpt lat="44.4666916" lon="11.3966416"><ele>73.0</ele><time>2026-04-26T13:24:45.118Z</time></trkpt><trkpt lat="44.4666039" lon="11.396704"><ele>73.0</ele><time>2026-04-26T13:24:47.135Z</time></trkpt><trkpt lat="44.4665159" lon="11.396767"><ele>73.0</ele><time>2026-04-26T13:24:49.127Z</time></trkpt><trkpt lat="44.4664318" lon="11.3968383"><ele>73.0</ele><time>2026-04-26T13:24:51.126Z</time></trkpt><trkpt lat="44.4663498" lon="11.396915"><ele>73.0</ele><time>2026-04-26T13:24:53.131Z</time></trkpt><trkpt lat="44.46627" lon="11.3969983"><ele>73.0</ele><time>2026-04-26T13:24:55.129Z</time></trkpt><trkpt lat="44.4661956" lon="11.3970901"><ele>73.0</ele><time>2026-04-26T13:24:57.137Z</time></trkpt><trkpt lat="44.4661248" lon="11.3971873"><ele>73.8</ele><time>2026-04-26T13:24:59.135Z</time></trkpt><trkpt lat="44.4660578" lon="11.3972881"><ele>74.6</ele><time>2026-04-26T13:25:01.132Z</time></trkpt><trkpt lat="44.4659888" lon="11.3973882"><ele>75.4</ele><time>2026-04-26T13:25:03.13Z</time></trkpt><trkpt lat="44.4659237" lon="11.3974903"><ele>76.2</ele><time>2026-04-26T13:25:05.127Z</time></trkpt><trkpt lat="44.46586" lon="11.397591"><ele>77.0</ele><time>2026-04-26T13:25:07.134Z</time></trkpt><trkpt lat="44.4657956" lon="11.3976897"><ele>77.0</ele><time>2026-04-26T13:25:09.135Z</time></trkpt><trkpt lat="44.465731" lon="11.3977868"><ele>77.0</ele><time>2026-04-26T13:25:11.124Z</time></trkpt><trkpt lat="44.4656666" lon="11.3978857"><ele>77.0</ele><time>2026-04-26T13:25:13.123Z</time></trkpt><trkpt lat="44.4656033" lon="11.3979861"><ele>77.0</ele><time>2026-04-26T13:25:15.124Z</time></trkpt><trkpt lat="44.4655392" lon="11.3980847"><ele>77.0</ele><time>2026-04-26T13:25:17.132Z</time></trkpt><trkpt lat="44.4654738" lon="11.3981814"><ele>77.8</ele><time>2026-04-26T13:25:19.125Z</time></trkpt><trkpt lat="44.4654106" lon="11.3982794"><ele>78.6</ele><time>2026-04-26T13:25:21.133Z</time></trkpt><trkpt lat="44.4653469" lon="11.3983787"><ele>79.39999999999999</ele><time>2026-04-26T13:25:23.124Z</time></trkpt><trkpt lat="44.4652824" lon="11.3984769"><ele>80.2</ele><time>2026-04-26T13:25:25.135Z</time></trkpt><trkpt lat="44.4652175" lon="11.3985768"><ele>81.0</ele><time>2026-04-26T13:25:27.131Z</time></trkpt><trkpt lat="44.4651512" lon="11.398675"><ele>81.0</ele><time>2026-04-26T13:25:29.133Z</time></trkpt><trkpt lat="44.465087" lon="11.3987742"><ele>81.0</ele><time>2026-04-26T13:25:31.135Z</time></trkpt><trkpt lat="44.4650234" lon="11.3988727"><ele>81.0</ele><time>2026-04-26T13:25:33.127Z</time></trkpt><trkpt lat="44.4649602" lon="11.3989714"><ele>81.0</ele><time>2026-04-26T13:25:35.132Z</time></trkpt><trkpt lat="44.4648977" lon="11.3990688"><ele>81.0</ele><time>2026-04-26T13:25:37.134Z</time></trkpt><trkpt lat="44.4648449" lon="11.3991663"><ele>80.83333333333333</ele><time>2026-04-26T13:25:39.133Z</time></trkpt><trkpt lat="44.4648098" lon="11.3992736"><ele>80.66666666666667</ele><time>2026-04-26T13:25:41.143Z</time></trkpt><trkpt lat="44.4647664" lon="11.3993732"><ele>80.5</ele><time>2026-04-26T13:25:43.122Z</time></trkpt><trkpt lat="44.4647292" lon="11.3994623"><ele>80.33333333333334</ele><time>2026-04-26T13:25:45.126Z</time></trkpt><trkpt lat="44.4646921" lon="11.3995392"><ele>80.16666666666667</ele><time>2026-04-26T13:25:47.137Z</time></trkpt><trkpt lat="44.4646403" lon="11.3996409"><ele>80.0</ele><time>2026-04-26T13:25:50.119Z</time></trkpt><trkpt lat="44.4645963" lon="11.3997286"><ele>80.0</ele><time>2026-04-26T13:25:53.118Z</time></trkpt><trkpt lat="44.4645506" lon="11.3998001"><ele>80.0</ele><time>2026-04-26T13:25:56.129Z</time></trkpt><trkpt lat="44.4645049" lon="11.3998731"><ele>80.0</ele><time>2026-04-26T13:25:59.125Z</time></trkpt><trkpt lat="44.4644614" lon="11.3999648"><ele>80.0</ele><time>2026-04-26T13:26:02.13Z</time></trkpt><trkpt lat="44.4644203" lon="11.4000879"><ele>80.0</ele><time>2026-04-26T13:26:05.132Z</time></trkpt><trkpt lat="44.4643979" lon="11.4001801"><ele>80.0</ele><time>2026-04-26T13:26:07.123Z</time></trkpt><trkpt lat="44.4644029" lon="11.4002886"><ele>80.0</ele><time>2026-04-26T13:26:10.116Z</time></trkpt><trkpt lat="44.4644493" lon="11.4003665"><ele>80.0</ele><time>2026-04-26T13:26:14.122Z</time></trkpt><trkpt lat="44.4645063" lon="11.4004096"><ele>80.0</ele><time>2026-04-26T13:26:35.119Z</time></trkpt><trkpt lat="44.4645851" lon="11.400386"><ele>80.0</ele><time>2026-04-26T13:26:39.123Z</time></trkpt><trkpt lat="44.4646178" lon="11.4002902"><ele>80.0</ele><time>2026-04-26T13:26:42.129Z</time></trkpt><trkpt lat="44.4646335" lon="11.4001797"><ele>80.0</ele><time>2026-04-26T13:26:45.133Z</time></trkpt><trkpt lat="44.4646701" lon="11.4000585"><ele>79.85714285714286</ele><time>2026-04-26T13:26:48.122Z</time></trkpt><trkpt lat="44.4647022" lon="11.3999767"><ele>79.71428571428572</ele><time>2026-04-26T13:26:50.133Z</time></trkpt><trkpt lat="44.4647376" lon="11.3998844"><ele>79.57142857142858</ele><time>2026-04-26T13:26:52.129Z</time></trkpt><trkpt lat="44.4647731" lon="11.3997929"><ele>79.42857142857143</ele><time>2026-04-26T13:26:54.127Z</time></trkpt><trkpt lat="44.4648017" lon="11.3997066"><ele>79.28571428571429</ele><time>2026-04-26T13:26:56.133Z</time></trkpt><trkpt lat="44.4648382" lon="11.3995935"><ele>79.14285714285715</ele><time>2026-04-26T13:26:59.131Z</time></trkpt><trkpt lat="44.4648994" lon="11.3995381"><ele>79.0</ele><time>2026-04-26T13:27:01.121Z</time></trkpt><trkpt lat="44.4649823" lon="11.3995225"><ele>79.0</ele><time>2026-04-26T13:27:03.128Z</time></trkpt><trkpt lat="44.4650619" lon="11.3995875"><ele>79.0</ele><time>2026-04-26T13:27:05.133Z</time></trkpt><trkpt lat="44.4651329" lon="11.399674"><ele>79.0</ele><time>2026-04-26T13:27:07.122Z</time></trkpt><trkpt lat="44.4652023" lon="11.3997634"><ele>79.0</ele><time>2026-04-26T13:27:09.134Z</time></trkpt><trkpt lat="44.465273" lon="11.3998466"><ele>79.0</ele><time>2026-04-26T13:27:11.12Z</time></trkpt><trkpt lat="44.4653572" lon="11.3998907"><ele>79.0</ele><time>2026-04-26T13:27:13.129Z</time></trkpt><trkpt lat="44.4654405" lon="11.3998625"><ele>79.0</ele><time>2026-04-26T13:27:15.116Z</time></trkpt><trkpt lat="44.4654964" lon="11.3997834"><ele>79.0</ele><time>2026-04-26T13:27:17.137Z</time></trkpt><trkpt lat="44.4655434" lon="11.3997009"><ele>79.0</ele><time>2026-04-26T13:27:19.128Z</time></trkpt><trkpt lat="44.4655836" lon="11.3996134"><ele>79.0</ele><time>2026-04-26T13:27:21.121Z</time></trkpt><trkpt lat="44.465628" lon="11.3995316"><ele>79.0</ele><time>2026-04-26T13:27:23.12Z</time></trkpt><trkpt lat="44.4656776" lon="11.3994628"><ele>79.42857142857143</ele><time>2026-04-26T13:27:25.119Z</time></trkpt><trkpt lat="44.46572" lon="11.3993912"><ele>79.85714285714286</ele><time>2026-04-26T13:27:27.127Z</time></trkpt><trkpt lat="44.465747" lon="11.3993104"><ele>80.28571428571428</ele><time>2026-04-26T13:27:29.125Z</time></trkpt><trkpt lat="44.4657178" lon="11.3991896"><ele>80.71428571428572</ele><time>2026-04-26T13:27:32.12Z</time></trkpt><trkpt lat="44.4656662" lon="11.3991189"><ele>81.14285714285714</ele><time>2026-04-26T13:27:34.121Z</time></trkpt><trkpt lat="44.4656089" lon="11.3990498"><ele>81.57142857142857</ele><time>2026-04-26T13:27:36.133Z</time></trkpt><trkpt lat="44.4655478" lon="11.3989846"><ele>82.0</ele><time>2026-04-26T13:27:38.131Z</time></trkpt><trkpt lat="44.4654905" lon="11.3989184"><ele>81.28571428571428</ele><time>2026-04-26T13:27:40.127Z</time></trkpt><trkpt lat="44.4654275" lon="11.3988667"><ele>80.57142857142857</ele><time>2026-04-26T13:27:42.126Z</time></trkpt><trkpt lat="44.4653565" lon="11.3988553"><ele>79.85714285714286</ele><time>2026-04-26T13:27:44.132Z</time></trkpt><trkpt lat="44.4652936" lon="11.3989126"><ele>79.14285714285714</ele><time>2026-04-26T13:27:46.123Z</time></trkpt><trkpt lat="44.4652345" lon="11.3989812"><ele>78.42857142857143</ele><time>2026-04-26T13:27:48.132Z</time></trkpt><trkpt lat="44.4651847" lon="11.3990592"><ele>77.71428571428571</ele><time>2026-04-26T13:27:50.118Z</time></trkpt><trkpt lat="44.4651356" lon="11.3991374"><ele>77.0</ele><time>2026-04-26T13:27:52.114Z</time></trkpt><trkpt lat="44.4650889" lon="11.3992177"><ele>77.0</ele><time>2026-04-26T13:27:54.127Z</time></trkpt><trkpt lat="44.4650415" lon="11.399295"><ele>77.0</ele><time>2026-04-26T13:27:56.13Z</time></trkpt><trkpt lat="44.4650007" lon="11.3993743"><ele>77.0</ele><time>2026-04-26T13:27:58.125Z</time></trkpt><trkpt lat="44.4649866" lon="11.3994674"><ele>77.0</ele><time>2026-04-26T13:28:00.126Z</time></trkpt><trkpt lat="44.4650237" lon="11.3995635"><ele>77.0</ele><time>2026-04-26T13:28:02.118Z</time></trkpt><trkpt lat="44.4650908" lon="11.3996465"><ele>77.0</ele><time>2026-04-26T13:28:04.122Z</time></trkpt><trkpt lat="44.4651611" lon="11.3997286"><ele>77.33333333333334</ele><time>2026-04-26T13:28:06.125Z</time></trkpt><trkpt lat="44.465228" lon="11.3998085"><ele>77.66666666666667</ele><time>2026-04-26T13:28:08.125Z</time></trkpt><trkpt lat="44.4652975" lon="11.3998837"><ele>78.0</ele><time>2026-04-26T13:28:10.132Z</time></trkpt><trkpt lat="44.4653755" lon="11.3999188"><ele>78.33333333333333</ele><time>2026-04-26T13:28:12.127Z</time></trkpt><trkpt lat="44.4654472" lon="11.3998776"><ele>78.66666666666666</ele><time>2026-04-26T13:28:14.131Z</time></trkpt><trkpt lat="44.4655023" lon="11.3998054"><ele>79.0</ele><time>2026-04-26T13:28:16.132Z</time></trkpt><trkpt lat="44.465547" lon="11.3997278"><ele>79.5</ele><time>2026-04-26T13:28:18.129Z</time></trkpt><trkpt lat="44.4655881" lon="11.3996458"><ele>80.0</ele><time>2026-04-26T13:28:20.131Z</time></trkpt><trkpt lat="44.4656361" lon="11.3995593"><ele>80.5</ele><time>2026-04-26T13:28:22.123Z</time></trkpt><trkpt lat="44.4656926" lon="11.3994835"><ele>81.0</ele><time>2026-04-26T13:28:24.13Z</time></trkpt><trkpt lat="44.4657461" lon="11.399401"><ele>81.5</ele><time>2026-04-26T13:28:26.132Z</time></trkpt><trkpt lat="44.4657726" lon="11.3992931"><ele>82.0</ele><time>2026-04-26T13:28:28.131Z</time></trkpt><trkpt lat="44.4657429" lon="11.3991923"><ele>82.0</ele><time>2026-04-26T13:28:30.119Z</time></trkpt><trkpt lat="44.4656781" lon="11.3991213"><ele>82.0</ele><time>2026-04-26T13:28:32.135Z</time></trkpt><trkpt lat="44.4656151" lon="11.3990465"><ele>82.0</ele><time>2026-04-26T13:28:34.126Z</time></trkpt><trkpt lat="44.4655514" lon="11.3989715"><ele>82.0</ele><time>2026-04-26T13:28:36.132Z</time></trkpt><trkpt lat="44.4654878" lon="11.398896"><ele>82.0</ele><time>2026-04-26T13:28:38.131Z</time></trkpt><trkpt lat="44.4654143" lon="11.3988437"><ele>82.0</ele><time>2026-04-26T13:28:40.119Z</time></trkpt><trkpt lat="44.4653356" lon="11.3988721"><ele>81.16666666666666</ele><time>2026-04-26T13:28:42.13Z</time></trkpt><trkpt lat="44.4652688" lon="11.3989414"><ele>80.33333333333333</ele><time>2026-04-26T13:28:44.121Z</time></trkpt><trkpt lat="44.465215" lon="11.3990236"><ele>79.5</ele><time>2026-04-26T13:28:46.116Z</time></trkpt><trkpt lat="44.4651698" lon="11.3991075"><ele>78.66666666666667</ele><time>2026-04-26T13:28:48.125Z</time></trkpt><trkpt lat="44.4651266" lon="11.3991833"><ele>77.83333333333334</ele><time>2026-04-26T13:28:50.143Z</time></trkpt><trkpt lat="44.4650921" lon="11.3992612"><ele>77.0</ele><time>2026-04-26T13:28:52.132Z</time></trkpt><trkpt lat="44.4651113" lon="11.3993786"><ele>77.0</ele><time>2026-04-26T13:28:55.124Z</time></trkpt><trkpt lat="44.4651816" lon="11.3994492"><ele>77.0</ele><time>2026-04-26T13:28:58.124Z</time></trkpt><trkpt lat="44.4652553" lon="11.3995317"><ele>77.0</ele><time>2026-04-26T13:29:01.139Z</time></trkpt><trkpt lat="44.4653286" lon="11.399609"><ele>77.0</ele><time>2026-04-26T13:29:04.122Z</time></trkpt><trkpt lat="44.4654129" lon="11.3995566"><ele>77.0</ele><time>2026-04-26T13:29:07.131Z</time></trkpt><trkpt lat="44.4654586" lon="11.3994926"><ele>77.0</ele><time>2026-04-26T13:29:09.148Z</time></trkpt><trkpt lat="44.4655049" lon="11.3994061"><ele>82.0</ele><time>2026-04-26T13:29:12.123Z</time></trkpt></trkseg></trk></gpx>